<?xml version="1.0" encoding="UTF-8" standalone="no" ?>
<gpx xmlns="http://www.topografix.com/GPX/1/1" xmlns:xsi="http://www.w3.org/2001/XMLSchema-instance" xsi:schemaLocation="http://www.topografix.com/GPX/1/1 http://www.topografix.com/GPX/1/1/gpx.xsd" version="1.1" creator="VisuGPX - https://www.visugpx.com">
  <metadata>
    <name>Randonnée des dindes à Montargis</name>
    <desc><![CDATA[Le parcours est tout simplement splendide ...

Des singles, du technique, du vrai VTT !]]></desc>
  </metadata>
  <trk>
    <name><![CDATA[Randonnée des dindes à Montargis_1]]></name>
    <trkseg>
      <trkpt lat="48.01033" lon="2.75079">
        <ele>89</ele>
        <time>2016-12-11T07:19:17.422Z</time>
      </trkpt>
      <trkpt lat="48.01032" lon="2.75078">
        <ele>85</ele>
        <time>2016-12-11T07:19:18.398Z</time>
      </trkpt>
      <trkpt lat="48.01032" lon="2.75078">
        <ele>85</ele>
        <time>2016-12-11T07:19:19.406Z</time>
      </trkpt>
      <trkpt lat="48.0103" lon="2.75075">
        <ele>85</ele>
        <time>2016-12-11T07:19:20.412Z</time>
      </trkpt>
      <trkpt lat="48.0103" lon="2.75075">
        <ele>85</ele>
        <time>2016-12-11T07:19:21.412Z</time>
      </trkpt>
      <trkpt lat="48.01027" lon="2.7507">
        <ele>85</ele>
        <time>2016-12-11T07:19:22.422Z</time>
      </trkpt>
      <trkpt lat="48.01027" lon="2.7507">
        <ele>85</ele>
        <time>2016-12-11T07:19:23.433Z</time>
      </trkpt>
      <trkpt lat="48.01024" lon="2.75061">
        <ele>85</ele>
        <time>2016-12-11T07:19:24.401Z</time>
      </trkpt>
      <trkpt lat="48.01024" lon="2.75061">
        <ele>85</ele>
        <time>2016-12-11T07:19:25.404Z</time>
      </trkpt>
      <trkpt lat="48.01023" lon="2.75051">
        <ele>85</ele>
        <time>2016-12-11T07:19:26.403Z</time>
      </trkpt>
      <trkpt lat="48.01023" lon="2.75051">
        <ele>85</ele>
        <time>2016-12-11T07:19:27.401Z</time>
      </trkpt>
      <trkpt lat="48.01022" lon="2.7504">
        <ele>85</ele>
        <time>2016-12-11T07:19:28.399Z</time>
      </trkpt>
      <trkpt lat="48.01022" lon="2.7504">
        <ele>85</ele>
        <time>2016-12-11T07:19:29.398Z</time>
      </trkpt>
      <trkpt lat="48.01022" lon="2.75031">
        <ele>85</ele>
        <time>2016-12-11T07:19:30.402Z</time>
      </trkpt>
      <trkpt lat="48.01022" lon="2.75031">
        <ele>85</ele>
        <time>2016-12-11T07:19:31.397Z</time>
      </trkpt>
      <trkpt lat="48.01021" lon="2.75023">
        <ele>86</ele>
        <time>2016-12-11T07:19:32.416Z</time>
      </trkpt>
      <trkpt lat="48.01021" lon="2.75023">
        <ele>86</ele>
        <time>2016-12-11T07:19:33.415Z</time>
      </trkpt>
      <trkpt lat="48.01018" lon="2.75015">
        <ele>85</ele>
        <time>2016-12-11T07:19:34.416Z</time>
      </trkpt>
      <trkpt lat="48.01018" lon="2.75015">
        <ele>85</ele>
        <time>2016-12-11T07:19:35.405Z</time>
      </trkpt>
      <trkpt lat="48.01016" lon="2.75008">
        <ele>85</ele>
        <time>2016-12-11T07:19:36.404Z</time>
      </trkpt>
      <trkpt lat="48.01014" lon="2.75003">
        <ele>85</ele>
        <time>2016-12-11T07:19:37.400Z</time>
      </trkpt>
      <trkpt lat="48.01012" lon="2.75">
        <ele>85</ele>
        <time>2016-12-11T07:19:38.401Z</time>
      </trkpt>
      <trkpt lat="48.01012" lon="2.75">
        <ele>85</ele>
        <time>2016-12-11T07:19:39.396Z</time>
      </trkpt>
      <trkpt lat="48.0101" lon="2.75">
        <ele>86</ele>
        <time>2016-12-11T07:19:40.399Z</time>
      </trkpt>
      <trkpt lat="48.0101" lon="2.75">
        <ele>86</ele>
        <time>2016-12-11T07:19:41.398Z</time>
      </trkpt>
      <trkpt lat="48.01006" lon="2.75001">
        <ele>85</ele>
        <time>2016-12-11T07:19:42.408Z</time>
      </trkpt>
      <trkpt lat="48.01003" lon="2.75004">
        <ele>85</ele>
        <time>2016-12-11T07:19:43.402Z</time>
      </trkpt>
      <trkpt lat="48.01001" lon="2.75004">
        <ele>85</ele>
        <time>2016-12-11T07:19:44.405Z</time>
      </trkpt>
      <trkpt lat="48.01001" lon="2.75004">
        <ele>85</ele>
        <time>2016-12-11T07:19:45.399Z</time>
      </trkpt>
      <trkpt lat="48.00997" lon="2.75007">
        <ele>86</ele>
        <time>2016-12-11T07:19:46.414Z</time>
      </trkpt>
      <trkpt lat="48.00997" lon="2.75007">
        <ele>86</ele>
        <time>2016-12-11T07:19:47.405Z</time>
      </trkpt>
      <trkpt lat="48.00997" lon="2.75008">
        <ele>86</ele>
        <time>2016-12-11T07:19:48.403Z</time>
      </trkpt>
      <trkpt lat="48.00997" lon="2.75008">
        <ele>86</ele>
        <time>2016-12-11T07:19:49.397Z</time>
      </trkpt>
      <trkpt lat="48.00996" lon="2.75004">
        <ele>86</ele>
        <time>2016-12-11T07:19:50.401Z</time>
      </trkpt>
      <trkpt lat="48.00996" lon="2.75004">
        <ele>86</ele>
        <time>2016-12-11T07:19:51.396Z</time>
      </trkpt>
      <trkpt lat="48.00998" lon="2.75">
        <ele>86</ele>
        <time>2016-12-11T07:19:52.409Z</time>
      </trkpt>
      <trkpt lat="48.00998" lon="2.75">
        <ele>86</ele>
        <time>2016-12-11T07:19:53.435Z</time>
      </trkpt>
      <trkpt lat="48.01003" lon="2.74994">
        <ele>86</ele>
        <time>2016-12-11T07:19:54.399Z</time>
      </trkpt>
      <trkpt lat="48.01003" lon="2.74994">
        <ele>86</ele>
        <time>2016-12-11T07:19:55.401Z</time>
      </trkpt>
      <trkpt lat="48.01007" lon="2.74989">
        <ele>87</ele>
        <time>2016-12-11T07:19:56.404Z</time>
      </trkpt>
      <trkpt lat="48.01007" lon="2.74989">
        <ele>87</ele>
        <time>2016-12-11T07:19:57.396Z</time>
      </trkpt>
      <trkpt lat="48.0101" lon="2.74987">
        <ele>88</ele>
        <time>2016-12-11T07:19:58.434Z</time>
      </trkpt>
      <trkpt lat="48.01012" lon="2.74986">
        <ele>88</ele>
        <time>2016-12-11T07:19:59.433Z</time>
      </trkpt>
      <trkpt lat="48.01014" lon="2.74984">
        <ele>89</ele>
        <time>2016-12-11T07:20:00.397Z</time>
      </trkpt>
      <trkpt lat="48.01016" lon="2.74982">
        <ele>89</ele>
        <time>2016-12-11T07:20:01.401Z</time>
      </trkpt>
      <trkpt lat="48.01016" lon="2.74982">
        <ele>89</ele>
        <time>2016-12-11T07:20:02.409Z</time>
      </trkpt>
      <trkpt lat="48.0102" lon="2.74979">
        <ele>89</ele>
        <time>2016-12-11T07:20:03.421Z</time>
      </trkpt>
      <trkpt lat="48.01022" lon="2.74978">
        <ele>89</ele>
        <time>2016-12-11T07:20:04.410Z</time>
      </trkpt>
      <trkpt lat="48.01022" lon="2.74978">
        <ele>89</ele>
        <time>2016-12-11T07:20:05.406Z</time>
      </trkpt>
      <trkpt lat="48.01024" lon="2.74977">
        <ele>89</ele>
        <time>2016-12-11T07:20:06.401Z</time>
      </trkpt>
      <trkpt lat="48.01024" lon="2.74977">
        <ele>89</ele>
        <time>2016-12-11T07:20:07.396Z</time>
      </trkpt>
      <trkpt lat="48.01028" lon="2.74978">
        <ele>88</ele>
        <time>2016-12-11T07:20:08.401Z</time>
      </trkpt>
      <trkpt lat="48.01028" lon="2.74978">
        <ele>88</ele>
        <time>2016-12-11T07:20:09.396Z</time>
      </trkpt>
      <trkpt lat="48.01031" lon="2.74981">
        <ele>88</ele>
        <time>2016-12-11T07:20:10.399Z</time>
      </trkpt>
      <trkpt lat="48.01033" lon="2.74983">
        <ele>88</ele>
        <time>2016-12-11T07:20:11.401Z</time>
      </trkpt>
      <trkpt lat="48.01033" lon="2.74983">
        <ele>88</ele>
        <time>2016-12-11T07:20:12.435Z</time>
      </trkpt>
      <trkpt lat="48.01036" lon="2.74985">
        <ele>88</ele>
        <time>2016-12-11T07:20:13.419Z</time>
      </trkpt>
      <trkpt lat="48.01037" lon="2.74985">
        <ele>88</ele>
        <time>2016-12-11T07:20:14.414Z</time>
      </trkpt>
      <trkpt lat="48.01037" lon="2.74985">
        <ele>88</ele>
        <time>2016-12-11T07:20:15.428Z</time>
      </trkpt>
      <trkpt lat="48.01041" lon="2.74987">
        <ele>87</ele>
        <time>2016-12-11T07:20:16.396Z</time>
      </trkpt>
      <trkpt lat="48.01043" lon="2.74989">
        <ele>87</ele>
        <time>2016-12-11T07:20:17.431Z</time>
      </trkpt>
      <trkpt lat="48.01043" lon="2.74989">
        <ele>87</ele>
        <time>2016-12-11T07:20:18.429Z</time>
      </trkpt>
      <trkpt lat="48.01049" lon="2.74991">
        <ele>86</ele>
        <time>2016-12-11T07:20:19.402Z</time>
      </trkpt>
      <trkpt lat="48.01052" lon="2.74991">
        <ele>86</ele>
        <time>2016-12-11T07:20:20.402Z</time>
      </trkpt>
      <trkpt lat="48.01052" lon="2.74991">
        <ele>86</ele>
        <time>2016-12-11T07:20:21.432Z</time>
      </trkpt>
      <trkpt lat="48.01058" lon="2.74993">
        <ele>85</ele>
        <time>2016-12-11T07:20:22.401Z</time>
      </trkpt>
      <trkpt lat="48.01058" lon="2.74993">
        <ele>85</ele>
        <time>2016-12-11T07:20:23.435Z</time>
      </trkpt>
      <trkpt lat="48.01063" lon="2.74994">
        <ele>85</ele>
        <time>2016-12-11T07:20:24.400Z</time>
      </trkpt>
      <trkpt lat="48.01066" lon="2.74994">
        <ele>84</ele>
        <time>2016-12-11T07:20:25.404Z</time>
      </trkpt>
      <trkpt lat="48.01069" lon="2.74995">
        <ele>85</ele>
        <time>2016-12-11T07:20:26.409Z</time>
      </trkpt>
      <trkpt lat="48.01069" lon="2.74995">
        <ele>85</ele>
        <time>2016-12-11T07:20:27.400Z</time>
      </trkpt>
      <trkpt lat="48.01075" lon="2.74996">
        <ele>86</ele>
        <time>2016-12-11T07:20:28.401Z</time>
      </trkpt>
      <trkpt lat="48.01075" lon="2.74996">
        <ele>86</ele>
        <time>2016-12-11T07:20:29.435Z</time>
      </trkpt>
      <trkpt lat="48.0108" lon="2.75002">
        <ele>86</ele>
        <time>2016-12-11T07:20:30.399Z</time>
      </trkpt>
      <trkpt lat="48.0108" lon="2.75002">
        <ele>86</ele>
        <time>2016-12-11T07:20:31.435Z</time>
      </trkpt>
      <trkpt lat="48.01086" lon="2.75009">
        <ele>87</ele>
        <time>2016-12-11T07:20:32.396Z</time>
      </trkpt>
      <trkpt lat="48.01089" lon="2.75013">
        <ele>87</ele>
        <time>2016-12-11T07:20:33.405Z</time>
      </trkpt>
      <trkpt lat="48.01089" lon="2.75013">
        <ele>87</ele>
        <time>2016-12-11T07:20:34.435Z</time>
      </trkpt>
      <trkpt lat="48.01095" lon="2.75021">
        <ele>88</ele>
        <time>2016-12-11T07:20:35.404Z</time>
      </trkpt>
      <trkpt lat="48.01097" lon="2.75026">
        <ele>88</ele>
        <time>2016-12-11T07:20:36.401Z</time>
      </trkpt>
      <trkpt lat="48.01097" lon="2.75026">
        <ele>88</ele>
        <time>2016-12-11T07:20:37.396Z</time>
      </trkpt>
      <trkpt lat="48.01098" lon="2.75035">
        <ele>89</ele>
        <time>2016-12-11T07:20:38.410Z</time>
      </trkpt>
      <trkpt lat="48.01098" lon="2.75035">
        <ele>89</ele>
        <time>2016-12-11T07:20:39.400Z</time>
      </trkpt>
      <trkpt lat="48.01098" lon="2.75042">
        <ele>90</ele>
        <time>2016-12-11T07:20:40.401Z</time>
      </trkpt>
      <trkpt lat="48.01098" lon="2.75042">
        <ele>90</ele>
        <time>2016-12-11T07:20:41.399Z</time>
      </trkpt>
      <trkpt lat="48.01097" lon="2.7505">
        <ele>89</ele>
        <time>2016-12-11T07:20:42.402Z</time>
      </trkpt>
      <trkpt lat="48.01097" lon="2.7505">
        <ele>89</ele>
        <time>2016-12-11T07:20:43.397Z</time>
      </trkpt>
      <trkpt lat="48.01095" lon="2.75057">
        <ele>89</ele>
        <time>2016-12-11T07:20:44.396Z</time>
      </trkpt>
      <trkpt lat="48.01095" lon="2.75057">
        <ele>89</ele>
        <time>2016-12-11T07:20:45.398Z</time>
      </trkpt>
      <trkpt lat="48.01095" lon="2.75066">
        <ele>89</ele>
        <time>2016-12-11T07:20:46.401Z</time>
      </trkpt>
      <trkpt lat="48.01096" lon="2.7507">
        <ele>91</ele>
        <time>2016-12-11T07:20:47.402Z</time>
      </trkpt>
      <trkpt lat="48.01096" lon="2.7507">
        <ele>91</ele>
        <time>2016-12-11T07:20:48.396Z</time>
      </trkpt>
      <trkpt lat="48.01098" lon="2.75076">
        <ele>91</ele>
        <time>2016-12-11T07:20:49.399Z</time>
      </trkpt>
      <trkpt lat="48.01099" lon="2.75078">
        <ele>91</ele>
        <time>2016-12-11T07:20:50.403Z</time>
      </trkpt>
      <trkpt lat="48.01099" lon="2.75078">
        <ele>91</ele>
        <time>2016-12-11T07:20:51.396Z</time>
      </trkpt>
      <trkpt lat="48.01104" lon="2.75084">
        <ele>91</ele>
        <time>2016-12-11T07:20:52.401Z</time>
      </trkpt>
      <trkpt lat="48.01104" lon="2.75084">
        <ele>91</ele>
        <time>2016-12-11T07:20:53.398Z</time>
      </trkpt>
      <trkpt lat="48.01109" lon="2.75088">
        <ele>91</ele>
        <time>2016-12-11T07:20:54.401Z</time>
      </trkpt>
      <trkpt lat="48.01112" lon="2.75089">
        <ele>92</ele>
        <time>2016-12-11T07:20:55.409Z</time>
      </trkpt>
      <trkpt lat="48.01115" lon="2.75087">
        <ele>92</ele>
        <time>2016-12-11T07:20:56.406Z</time>
      </trkpt>
      <trkpt lat="48.01115" lon="2.75087">
        <ele>92</ele>
        <time>2016-12-11T07:20:57.434Z</time>
      </trkpt>
      <trkpt lat="48.01122" lon="2.75083">
        <ele>93</ele>
        <time>2016-12-11T07:20:58.403Z</time>
      </trkpt>
      <trkpt lat="48.01122" lon="2.75083">
        <ele>93</ele>
        <time>2016-12-11T07:20:59.435Z</time>
      </trkpt>
      <trkpt lat="48.01129" lon="2.75078">
        <ele>94</ele>
        <time>2016-12-11T07:21:00.422Z</time>
      </trkpt>
      <trkpt lat="48.01129" lon="2.75078">
        <ele>94</ele>
        <time>2016-12-11T07:21:01.415Z</time>
      </trkpt>
      <trkpt lat="48.01136" lon="2.75075">
        <ele>96</ele>
        <time>2016-12-11T07:21:02.404Z</time>
      </trkpt>
      <trkpt lat="48.01136" lon="2.75075">
        <ele>96</ele>
        <time>2016-12-11T07:21:03.404Z</time>
      </trkpt>
      <trkpt lat="48.01144" lon="2.75071">
        <ele>96</ele>
        <time>2016-12-11T07:21:04.402Z</time>
      </trkpt>
      <trkpt lat="48.01144" lon="2.75071">
        <ele>96</ele>
        <time>2016-12-11T07:21:05.403Z</time>
      </trkpt>
      <trkpt lat="48.01152" lon="2.75067">
        <ele>98</ele>
        <time>2016-12-11T07:21:06.402Z</time>
      </trkpt>
      <trkpt lat="48.01152" lon="2.75067">
        <ele>98</ele>
        <time>2016-12-11T07:21:07.432Z</time>
      </trkpt>
      <trkpt lat="48.01161" lon="2.75063">
        <ele>100</ele>
        <time>2016-12-11T07:21:08.411Z</time>
      </trkpt>
      <trkpt lat="48.01161" lon="2.75063">
        <ele>100</ele>
        <time>2016-12-11T07:21:09.402Z</time>
      </trkpt>
      <trkpt lat="48.01169" lon="2.75058">
        <ele>100</ele>
        <time>2016-12-11T07:21:10.402Z</time>
      </trkpt>
      <trkpt lat="48.01169" lon="2.75058">
        <ele>100</ele>
        <time>2016-12-11T07:21:11.396Z</time>
      </trkpt>
      <trkpt lat="48.01177" lon="2.75053">
        <ele>100</ele>
        <time>2016-12-11T07:21:12.402Z</time>
      </trkpt>
      <trkpt lat="48.01177" lon="2.75053">
        <ele>100</ele>
        <time>2016-12-11T07:21:13.403Z</time>
      </trkpt>
      <trkpt lat="48.01184" lon="2.75048">
        <ele>101</ele>
        <time>2016-12-11T07:21:14.401Z</time>
      </trkpt>
      <trkpt lat="48.01184" lon="2.75048">
        <ele>101</ele>
        <time>2016-12-11T07:21:15.410Z</time>
      </trkpt>
      <trkpt lat="48.0119" lon="2.75044">
        <ele>101</ele>
        <time>2016-12-11T07:21:16.401Z</time>
      </trkpt>
      <trkpt lat="48.0119" lon="2.75044">
        <ele>101</ele>
        <time>2016-12-11T07:21:17.434Z</time>
      </trkpt>
      <trkpt lat="48.01197" lon="2.7504">
        <ele>102</ele>
        <time>2016-12-11T07:21:18.401Z</time>
      </trkpt>
      <trkpt lat="48.01197" lon="2.7504">
        <ele>102</ele>
        <time>2016-12-11T07:21:19.435Z</time>
      </trkpt>
      <trkpt lat="48.01202" lon="2.75038">
        <ele>103</ele>
        <time>2016-12-11T07:21:20.434Z</time>
      </trkpt>
      <trkpt lat="48.01202" lon="2.75038">
        <ele>103</ele>
        <time>2016-12-11T07:21:21.431Z</time>
      </trkpt>
      <trkpt lat="48.01207" lon="2.75036">
        <ele>104</ele>
        <time>2016-12-11T07:21:22.399Z</time>
      </trkpt>
      <trkpt lat="48.01207" lon="2.75036">
        <ele>104</ele>
        <time>2016-12-11T07:21:23.403Z</time>
      </trkpt>
      <trkpt lat="48.01212" lon="2.75035">
        <ele>103</ele>
        <time>2016-12-11T07:21:24.417Z</time>
      </trkpt>
      <trkpt lat="48.01212" lon="2.75035">
        <ele>103</ele>
        <time>2016-12-11T07:21:25.407Z</time>
      </trkpt>
      <trkpt lat="48.01218" lon="2.75034">
        <ele>102</ele>
        <time>2016-12-11T07:21:26.404Z</time>
      </trkpt>
      <trkpt lat="48.01218" lon="2.75034">
        <ele>102</ele>
        <time>2016-12-11T07:21:27.398Z</time>
      </trkpt>
      <trkpt lat="48.01223" lon="2.75035">
        <ele>102</ele>
        <time>2016-12-11T07:21:28.400Z</time>
      </trkpt>
      <trkpt lat="48.01223" lon="2.75035">
        <ele>102</ele>
        <time>2016-12-11T07:21:29.422Z</time>
      </trkpt>
      <trkpt lat="48.01229" lon="2.75038">
        <ele>100</ele>
        <time>2016-12-11T07:21:30.411Z</time>
      </trkpt>
      <trkpt lat="48.01233" lon="2.75039">
        <ele>98</ele>
        <time>2016-12-11T07:21:31.401Z</time>
      </trkpt>
      <trkpt lat="48.01233" lon="2.75039">
        <ele>98</ele>
        <time>2016-12-11T07:21:32.400Z</time>
      </trkpt>
      <trkpt lat="48.0124" lon="2.75041">
        <ele>97</ele>
        <time>2016-12-11T07:21:33.405Z</time>
      </trkpt>
      <trkpt lat="48.0124" lon="2.75041">
        <ele>97</ele>
        <time>2016-12-11T07:21:34.405Z</time>
      </trkpt>
      <trkpt lat="48.01248" lon="2.75041">
        <ele>96</ele>
        <time>2016-12-11T07:21:35.405Z</time>
      </trkpt>
      <trkpt lat="48.01248" lon="2.75041">
        <ele>96</ele>
        <time>2016-12-11T07:21:36.396Z</time>
      </trkpt>
      <trkpt lat="48.01256" lon="2.7504">
        <ele>96</ele>
        <time>2016-12-11T07:21:37.401Z</time>
      </trkpt>
      <trkpt lat="48.0126" lon="2.75042">
        <ele>95</ele>
        <time>2016-12-11T07:21:38.401Z</time>
      </trkpt>
      <trkpt lat="48.0126" lon="2.75042">
        <ele>95</ele>
        <time>2016-12-11T07:21:39.435Z</time>
      </trkpt>
      <trkpt lat="48.01268" lon="2.75046">
        <ele>95</ele>
        <time>2016-12-11T07:21:40.401Z</time>
      </trkpt>
      <trkpt lat="48.01268" lon="2.75046">
        <ele>95</ele>
        <time>2016-12-11T07:21:41.436Z</time>
      </trkpt>
      <trkpt lat="48.01277" lon="2.7505">
        <ele>95</ele>
        <time>2016-12-11T07:21:42.398Z</time>
      </trkpt>
      <trkpt lat="48.01281" lon="2.75053">
        <ele>95</ele>
        <time>2016-12-11T07:21:43.403Z</time>
      </trkpt>
      <trkpt lat="48.01281" lon="2.75053">
        <ele>95</ele>
        <time>2016-12-11T07:21:44.413Z</time>
      </trkpt>
      <trkpt lat="48.01288" lon="2.75058">
        <ele>94</ele>
        <time>2016-12-11T07:21:45.409Z</time>
      </trkpt>
      <trkpt lat="48.01291" lon="2.75062">
        <ele>93</ele>
        <time>2016-12-11T07:21:46.403Z</time>
      </trkpt>
      <trkpt lat="48.01291" lon="2.75062">
        <ele>93</ele>
        <time>2016-12-11T07:21:47.399Z</time>
      </trkpt>
      <trkpt lat="48.01298" lon="2.75067">
        <ele>91</ele>
        <time>2016-12-11T07:21:48.401Z</time>
      </trkpt>
      <trkpt lat="48.01298" lon="2.75067">
        <ele>91</ele>
        <time>2016-12-11T07:21:49.435Z</time>
      </trkpt>
      <trkpt lat="48.01306" lon="2.75073">
        <ele>90</ele>
        <time>2016-12-11T07:21:50.399Z</time>
      </trkpt>
      <trkpt lat="48.0131" lon="2.75077">
        <ele>90</ele>
        <time>2016-12-11T07:21:51.402Z</time>
      </trkpt>
      <trkpt lat="48.01314" lon="2.7508">
        <ele>90</ele>
        <time>2016-12-11T07:21:52.401Z</time>
      </trkpt>
      <trkpt lat="48.01314" lon="2.7508">
        <ele>90</ele>
        <time>2016-12-11T07:21:53.435Z</time>
      </trkpt>
      <trkpt lat="48.01322" lon="2.75088">
        <ele>89</ele>
        <time>2016-12-11T07:21:54.431Z</time>
      </trkpt>
      <trkpt lat="48.01326" lon="2.75092">
        <ele>89</ele>
        <time>2016-12-11T07:21:55.401Z</time>
      </trkpt>
      <trkpt lat="48.0133" lon="2.75097">
        <ele>89</ele>
        <time>2016-12-11T07:21:56.404Z</time>
      </trkpt>
      <trkpt lat="48.0133" lon="2.75097">
        <ele>89</ele>
        <time>2016-12-11T07:21:57.396Z</time>
      </trkpt>
      <trkpt lat="48.01338" lon="2.75105">
        <ele>89</ele>
        <time>2016-12-11T07:21:58.402Z</time>
      </trkpt>
      <trkpt lat="48.01338" lon="2.75105">
        <ele>89</ele>
        <time>2016-12-11T07:21:59.435Z</time>
      </trkpt>
      <trkpt lat="48.01345" lon="2.7511">
        <ele>89</ele>
        <time>2016-12-11T07:22:00.419Z</time>
      </trkpt>
      <trkpt lat="48.01345" lon="2.7511">
        <ele>89</ele>
        <time>2016-12-11T07:22:01.409Z</time>
      </trkpt>
      <trkpt lat="48.01352" lon="2.75115">
        <ele>88</ele>
        <time>2016-12-11T07:22:02.403Z</time>
      </trkpt>
      <trkpt lat="48.01352" lon="2.75115">
        <ele>88</ele>
        <time>2016-12-11T07:22:03.397Z</time>
      </trkpt>
      <trkpt lat="48.0136" lon="2.75119">
        <ele>88</ele>
        <time>2016-12-11T07:22:04.414Z</time>
      </trkpt>
      <trkpt lat="48.01363" lon="2.75121">
        <ele>88</ele>
        <time>2016-12-11T07:22:05.404Z</time>
      </trkpt>
      <trkpt lat="48.01367" lon="2.75122">
        <ele>87</ele>
        <time>2016-12-11T07:22:06.400Z</time>
      </trkpt>
      <trkpt lat="48.01367" lon="2.75122">
        <ele>87</ele>
        <time>2016-12-11T07:22:07.396Z</time>
      </trkpt>
      <trkpt lat="48.01373" lon="2.75126">
        <ele>86</ele>
        <time>2016-12-11T07:22:08.400Z</time>
      </trkpt>
      <trkpt lat="48.01373" lon="2.75126">
        <ele>86</ele>
        <time>2016-12-11T07:22:09.397Z</time>
      </trkpt>
      <trkpt lat="48.0138" lon="2.75127">
        <ele>86</ele>
        <time>2016-12-11T07:22:10.400Z</time>
      </trkpt>
      <trkpt lat="48.01383" lon="2.75129">
        <ele>86</ele>
        <time>2016-12-11T07:22:11.403Z</time>
      </trkpt>
      <trkpt lat="48.01385" lon="2.75133">
        <ele>85</ele>
        <time>2016-12-11T07:22:12.399Z</time>
      </trkpt>
      <trkpt lat="48.01385" lon="2.75133">
        <ele>85</ele>
        <time>2016-12-11T07:22:13.397Z</time>
      </trkpt>
      <trkpt lat="48.01387" lon="2.75139">
        <ele>84</ele>
        <time>2016-12-11T07:22:14.408Z</time>
      </trkpt>
      <trkpt lat="48.01387" lon="2.75139">
        <ele>84</ele>
        <time>2016-12-11T07:22:15.410Z</time>
      </trkpt>
      <trkpt lat="48.01386" lon="2.75147">
        <ele>84</ele>
        <time>2016-12-11T07:22:16.433Z</time>
      </trkpt>
      <trkpt lat="48.01386" lon="2.75152">
        <ele>84</ele>
        <time>2016-12-11T07:22:17.435Z</time>
      </trkpt>
      <trkpt lat="48.01386" lon="2.75152">
        <ele>84</ele>
        <time>2016-12-11T07:22:18.412Z</time>
      </trkpt>
      <trkpt lat="48.01385" lon="2.75162">
        <ele>83</ele>
        <time>2016-12-11T07:22:19.427Z</time>
      </trkpt>
      <trkpt lat="48.01384" lon="2.75167">
        <ele>83</ele>
        <time>2016-12-11T07:22:20.417Z</time>
      </trkpt>
      <trkpt lat="48.01384" lon="2.75172">
        <ele>82</ele>
        <time>2016-12-11T07:22:21.406Z</time>
      </trkpt>
      <trkpt lat="48.01384" lon="2.75172">
        <ele>82</ele>
        <time>2016-12-11T07:22:22.435Z</time>
      </trkpt>
      <trkpt lat="48.01383" lon="2.75182">
        <ele>80</ele>
        <time>2016-12-11T07:22:23.398Z</time>
      </trkpt>
      <trkpt lat="48.01382" lon="2.75188">
        <ele>80</ele>
        <time>2016-12-11T07:22:24.405Z</time>
      </trkpt>
      <trkpt lat="48.01382" lon="2.75188">
        <ele>80</ele>
        <time>2016-12-11T07:22:25.403Z</time>
      </trkpt>
      <trkpt lat="48.0138" lon="2.75199">
        <ele>79</ele>
        <time>2016-12-11T07:22:26.404Z</time>
      </trkpt>
      <trkpt lat="48.0138" lon="2.75199">
        <ele>79</ele>
        <time>2016-12-11T07:22:27.396Z</time>
      </trkpt>
      <trkpt lat="48.01379" lon="2.75211">
        <ele>79</ele>
        <time>2016-12-11T07:22:28.398Z</time>
      </trkpt>
      <trkpt lat="48.01379" lon="2.75211">
        <ele>79</ele>
        <time>2016-12-11T07:22:29.396Z</time>
      </trkpt>
      <trkpt lat="48.01379" lon="2.75223">
        <ele>79</ele>
        <time>2016-12-11T07:22:30.405Z</time>
      </trkpt>
      <trkpt lat="48.01379" lon="2.75223">
        <ele>79</ele>
        <time>2016-12-11T07:22:31.402Z</time>
      </trkpt>
      <trkpt lat="48.01378" lon="2.75235">
        <ele>79</ele>
        <time>2016-12-11T07:22:32.402Z</time>
      </trkpt>
      <trkpt lat="48.01376" lon="2.75241">
        <ele>78</ele>
        <time>2016-12-11T07:22:33.402Z</time>
      </trkpt>
      <trkpt lat="48.01376" lon="2.75241">
        <ele>78</ele>
        <time>2016-12-11T07:22:34.402Z</time>
      </trkpt>
      <trkpt lat="48.01373" lon="2.75255">
        <ele>79</ele>
        <time>2016-12-11T07:22:35.401Z</time>
      </trkpt>
      <trkpt lat="48.01372" lon="2.75262">
        <ele>79</ele>
        <time>2016-12-11T07:22:36.404Z</time>
      </trkpt>
      <trkpt lat="48.01372" lon="2.75262">
        <ele>79</ele>
        <time>2016-12-11T07:22:37.415Z</time>
      </trkpt>
      <trkpt lat="48.0137" lon="2.75274">
        <ele>79</ele>
        <time>2016-12-11T07:22:38.406Z</time>
      </trkpt>
      <trkpt lat="48.01369" lon="2.75281">
        <ele>78</ele>
        <time>2016-12-11T07:22:39.402Z</time>
      </trkpt>
      <trkpt lat="48.01369" lon="2.75281">
        <ele>78</ele>
        <time>2016-12-11T07:22:40.398Z</time>
      </trkpt>
      <trkpt lat="48.01367" lon="2.75294">
        <ele>77</ele>
        <time>2016-12-11T07:22:41.401Z</time>
      </trkpt>
      <trkpt lat="48.01367" lon="2.75294">
        <ele>77</ele>
        <time>2016-12-11T07:22:42.434Z</time>
      </trkpt>
      <trkpt lat="48.01364" lon="2.75307">
        <ele>77</ele>
        <time>2016-12-11T07:22:43.400Z</time>
      </trkpt>
      <trkpt lat="48.01363" lon="2.75313">
        <ele>77</ele>
        <time>2016-12-11T07:22:44.407Z</time>
      </trkpt>
      <trkpt lat="48.01363" lon="2.75313">
        <ele>77</ele>
        <time>2016-12-11T07:22:45.404Z</time>
      </trkpt>
      <trkpt lat="48.01361" lon="2.75325">
        <ele>77</ele>
        <time>2016-12-11T07:22:46.415Z</time>
      </trkpt>
      <trkpt lat="48.01359" lon="2.75331">
        <ele>76</ele>
        <time>2016-12-11T07:22:47.407Z</time>
      </trkpt>
      <trkpt lat="48.01359" lon="2.75331">
        <ele>76</ele>
        <time>2016-12-11T07:22:48.402Z</time>
      </trkpt>
      <trkpt lat="48.01356" lon="2.75344">
        <ele>76</ele>
        <time>2016-12-11T07:22:49.401Z</time>
      </trkpt>
      <trkpt lat="48.01356" lon="2.75344">
        <ele>76</ele>
        <time>2016-12-11T07:22:50.399Z</time>
      </trkpt>
      <trkpt lat="48.01353" lon="2.75356">
        <ele>75</ele>
        <time>2016-12-11T07:22:51.401Z</time>
      </trkpt>
      <trkpt lat="48.01353" lon="2.75356">
        <ele>75</ele>
        <time>2016-12-11T07:22:52.396Z</time>
      </trkpt>
      <trkpt lat="48.0135" lon="2.75366">
        <ele>74</ele>
        <time>2016-12-11T07:22:53.402Z</time>
      </trkpt>
      <trkpt lat="48.0135" lon="2.75366">
        <ele>74</ele>
        <time>2016-12-11T07:22:54.403Z</time>
      </trkpt>
      <trkpt lat="48.01347" lon="2.75379">
        <ele>74</ele>
        <time>2016-12-11T07:22:55.404Z</time>
      </trkpt>
      <trkpt lat="48.01345" lon="2.75384">
        <ele>73</ele>
        <time>2016-12-11T07:22:56.402Z</time>
      </trkpt>
      <trkpt lat="48.01345" lon="2.7539">
        <ele>73</ele>
        <time>2016-12-11T07:22:57.402Z</time>
      </trkpt>
      <trkpt lat="48.01343" lon="2.75397">
        <ele>73</ele>
        <time>2016-12-11T07:22:58.401Z</time>
      </trkpt>
      <trkpt lat="48.01343" lon="2.75397">
        <ele>73</ele>
        <time>2016-12-11T07:22:59.399Z</time>
      </trkpt>
      <trkpt lat="48.01341" lon="2.75408">
        <ele>73</ele>
        <time>2016-12-11T07:23:00.423Z</time>
      </trkpt>
      <trkpt lat="48.0134" lon="2.75413">
        <ele>72</ele>
        <time>2016-12-11T07:23:01.411Z</time>
      </trkpt>
      <trkpt lat="48.0134" lon="2.75413">
        <ele>72</ele>
        <time>2016-12-11T07:23:02.413Z</time>
      </trkpt>
      <trkpt lat="48.01339" lon="2.75426">
        <ele>72</ele>
        <time>2016-12-11T07:23:03.402Z</time>
      </trkpt>
      <trkpt lat="48.0134" lon="2.75433">
        <ele>73</ele>
        <time>2016-12-11T07:23:04.403Z</time>
      </trkpt>
      <trkpt lat="48.0134" lon="2.75433">
        <ele>73</ele>
        <time>2016-12-11T07:23:05.409Z</time>
      </trkpt>
      <trkpt lat="48.01343" lon="2.75441">
        <ele>74</ele>
        <time>2016-12-11T07:23:06.403Z</time>
      </trkpt>
      <trkpt lat="48.01343" lon="2.75441">
        <ele>74</ele>
        <time>2016-12-11T07:23:07.403Z</time>
      </trkpt>
      <trkpt lat="48.01348" lon="2.75443">
        <ele>76</ele>
        <time>2016-12-11T07:23:08.402Z</time>
      </trkpt>
      <trkpt lat="48.01348" lon="2.75443">
        <ele>76</ele>
        <time>2016-12-11T07:23:09.396Z</time>
      </trkpt>
      <trkpt lat="48.01354" lon="2.75443">
        <ele>78</ele>
        <time>2016-12-11T07:23:10.401Z</time>
      </trkpt>
      <trkpt lat="48.01354" lon="2.75443">
        <ele>78</ele>
        <time>2016-12-11T07:23:11.435Z</time>
      </trkpt>
      <trkpt lat="48.0136" lon="2.75444">
        <ele>79</ele>
        <time>2016-12-11T07:23:12.397Z</time>
      </trkpt>
      <trkpt lat="48.01363" lon="2.75444">
        <ele>80</ele>
        <time>2016-12-11T07:23:13.400Z</time>
      </trkpt>
      <trkpt lat="48.01367" lon="2.75445">
        <ele>80</ele>
        <time>2016-12-11T07:23:14.413Z</time>
      </trkpt>
      <trkpt lat="48.01371" lon="2.75444">
        <ele>82</ele>
        <time>2016-12-11T07:23:15.404Z</time>
      </trkpt>
      <trkpt lat="48.01371" lon="2.75444">
        <ele>82</ele>
        <time>2016-12-11T07:23:16.436Z</time>
      </trkpt>
      <trkpt lat="48.01378" lon="2.75443">
        <ele>83</ele>
        <time>2016-12-11T07:23:17.416Z</time>
      </trkpt>
      <trkpt lat="48.01381" lon="2.75442">
        <ele>83</ele>
        <time>2016-12-11T07:23:18.405Z</time>
      </trkpt>
      <trkpt lat="48.01381" lon="2.75442">
        <ele>83</ele>
        <time>2016-12-11T07:23:19.399Z</time>
      </trkpt>
      <trkpt lat="48.01388" lon="2.75442">
        <ele>84</ele>
        <time>2016-12-11T07:23:20.402Z</time>
      </trkpt>
      <trkpt lat="48.01391" lon="2.75441">
        <ele>85</ele>
        <time>2016-12-11T07:23:21.404Z</time>
      </trkpt>
      <trkpt lat="48.01391" lon="2.75441">
        <ele>85</ele>
        <time>2016-12-11T07:23:22.435Z</time>
      </trkpt>
      <trkpt lat="48.01399" lon="2.75439">
        <ele>86</ele>
        <time>2016-12-11T07:23:23.401Z</time>
      </trkpt>
      <trkpt lat="48.01402" lon="2.75439">
        <ele>87</ele>
        <time>2016-12-11T07:23:24.401Z</time>
      </trkpt>
      <trkpt lat="48.01402" lon="2.75439">
        <ele>87</ele>
        <time>2016-12-11T07:23:25.406Z</time>
      </trkpt>
      <trkpt lat="48.0141" lon="2.75437">
        <ele>87</ele>
        <time>2016-12-11T07:23:26.402Z</time>
      </trkpt>
      <trkpt lat="48.0141" lon="2.75437">
        <ele>87</ele>
        <time>2016-12-11T07:23:27.435Z</time>
      </trkpt>
      <trkpt lat="48.01418" lon="2.75435">
        <ele>88</ele>
        <time>2016-12-11T07:23:28.402Z</time>
      </trkpt>
      <trkpt lat="48.01418" lon="2.75435">
        <ele>88</ele>
        <time>2016-12-11T07:23:29.397Z</time>
      </trkpt>
      <trkpt lat="48.01426" lon="2.75435">
        <ele>88</ele>
        <time>2016-12-11T07:23:30.402Z</time>
      </trkpt>
      <trkpt lat="48.01426" lon="2.75435">
        <ele>88</ele>
        <time>2016-12-11T07:23:31.397Z</time>
      </trkpt>
      <trkpt lat="48.01435" lon="2.75433">
        <ele>89</ele>
        <time>2016-12-11T07:23:32.403Z</time>
      </trkpt>
      <trkpt lat="48.01439" lon="2.75433">
        <ele>89</ele>
        <time>2016-12-11T07:23:33.401Z</time>
      </trkpt>
      <trkpt lat="48.01439" lon="2.75433">
        <ele>89</ele>
        <time>2016-12-11T07:23:34.399Z</time>
      </trkpt>
      <trkpt lat="48.01447" lon="2.75432">
        <ele>90</ele>
        <time>2016-12-11T07:23:35.428Z</time>
      </trkpt>
      <trkpt lat="48.01452" lon="2.75431">
        <ele>90</ele>
        <time>2016-12-11T07:23:36.422Z</time>
      </trkpt>
      <trkpt lat="48.01452" lon="2.75431">
        <ele>90</ele>
        <time>2016-12-11T07:23:37.409Z</time>
      </trkpt>
      <trkpt lat="48.01461" lon="2.7543">
        <ele>90</ele>
        <time>2016-12-11T07:23:38.402Z</time>
      </trkpt>
      <trkpt lat="48.01467" lon="2.75429">
        <ele>90</ele>
        <time>2016-12-11T07:23:39.401Z</time>
      </trkpt>
      <trkpt lat="48.01467" lon="2.75429">
        <ele>90</ele>
        <time>2016-12-11T07:23:40.405Z</time>
      </trkpt>
      <trkpt lat="48.01478" lon="2.75427">
        <ele>90</ele>
        <time>2016-12-11T07:23:41.402Z</time>
      </trkpt>
      <trkpt lat="48.01478" lon="2.75427">
        <ele>90</ele>
        <time>2016-12-11T07:23:42.399Z</time>
      </trkpt>
      <trkpt lat="48.01487" lon="2.75426">
        <ele>91</ele>
        <time>2016-12-11T07:23:43.401Z</time>
      </trkpt>
      <trkpt lat="48.01487" lon="2.75426">
        <ele>91</ele>
        <time>2016-12-11T07:23:44.400Z</time>
      </trkpt>
      <trkpt lat="48.01493" lon="2.75425">
        <ele>91</ele>
        <time>2016-12-11T07:23:45.411Z</time>
      </trkpt>
      <trkpt lat="48.01493" lon="2.75425">
        <ele>91</ele>
        <time>2016-12-11T07:23:46.402Z</time>
      </trkpt>
      <trkpt lat="48.01499" lon="2.75426">
        <ele>91</ele>
        <time>2016-12-11T07:23:47.402Z</time>
      </trkpt>
      <trkpt lat="48.01499" lon="2.75426">
        <ele>91</ele>
        <time>2016-12-11T07:23:48.396Z</time>
      </trkpt>
      <trkpt lat="48.01505" lon="2.75425">
        <ele>92</ele>
        <time>2016-12-11T07:23:49.403Z</time>
      </trkpt>
      <trkpt lat="48.01505" lon="2.75425">
        <ele>92</ele>
        <time>2016-12-11T07:23:50.399Z</time>
      </trkpt>
      <trkpt lat="48.01512" lon="2.75424">
        <ele>92</ele>
        <time>2016-12-11T07:23:51.398Z</time>
      </trkpt>
      <trkpt lat="48.01515" lon="2.75423">
        <ele>92</ele>
        <time>2016-12-11T07:23:52.402Z</time>
      </trkpt>
      <trkpt lat="48.01515" lon="2.75423">
        <ele>92</ele>
        <time>2016-12-11T07:23:53.432Z</time>
      </trkpt>
      <trkpt lat="48.0152" lon="2.75422">
        <ele>93</ele>
        <time>2016-12-11T07:23:54.435Z</time>
      </trkpt>
      <trkpt lat="48.01523" lon="2.75422">
        <ele>94</ele>
        <time>2016-12-11T07:23:55.408Z</time>
      </trkpt>
      <trkpt lat="48.01523" lon="2.75422">
        <ele>94</ele>
        <time>2016-12-11T07:23:56.399Z</time>
      </trkpt>
      <trkpt lat="48.01529" lon="2.7542">
        <ele>95</ele>
        <time>2016-12-11T07:23:57.404Z</time>
      </trkpt>
      <trkpt lat="48.01529" lon="2.7542">
        <ele>95</ele>
        <time>2016-12-11T07:23:58.399Z</time>
      </trkpt>
      <trkpt lat="48.01535" lon="2.75418">
        <ele>95</ele>
        <time>2016-12-11T07:23:59.402Z</time>
      </trkpt>
      <trkpt lat="48.01535" lon="2.75418">
        <ele>95</ele>
        <time>2016-12-11T07:24:00.405Z</time>
      </trkpt>
      <trkpt lat="48.01542" lon="2.75418">
        <ele>95</ele>
        <time>2016-12-11T07:24:01.402Z</time>
      </trkpt>
      <trkpt lat="48.01542" lon="2.75418">
        <ele>95</ele>
        <time>2016-12-11T07:24:02.399Z</time>
      </trkpt>
      <trkpt lat="48.01548" lon="2.75417">
        <ele>96</ele>
        <time>2016-12-11T07:24:03.401Z</time>
      </trkpt>
      <trkpt lat="48.01548" lon="2.75417">
        <ele>96</ele>
        <time>2016-12-11T07:24:04.399Z</time>
      </trkpt>
      <trkpt lat="48.01554" lon="2.75416">
        <ele>97</ele>
        <time>2016-12-11T07:24:05.397Z</time>
      </trkpt>
      <trkpt lat="48.01554" lon="2.75416">
        <ele>97</ele>
        <time>2016-12-11T07:24:06.402Z</time>
      </trkpt>
      <trkpt lat="48.01562" lon="2.75416">
        <ele>97</ele>
        <time>2016-12-11T07:24:07.402Z</time>
      </trkpt>
      <trkpt lat="48.01562" lon="2.75416">
        <ele>97</ele>
        <time>2016-12-11T07:24:08.399Z</time>
      </trkpt>
      <trkpt lat="48.01568" lon="2.75415">
        <ele>96</ele>
        <time>2016-12-11T07:24:09.402Z</time>
      </trkpt>
      <trkpt lat="48.01568" lon="2.75415">
        <ele>96</ele>
        <time>2016-12-11T07:24:10.396Z</time>
      </trkpt>
      <trkpt lat="48.01574" lon="2.75414">
        <ele>95</ele>
        <time>2016-12-11T07:24:11.402Z</time>
      </trkpt>
      <trkpt lat="48.01574" lon="2.75414">
        <ele>95</ele>
        <time>2016-12-11T07:24:12.400Z</time>
      </trkpt>
      <trkpt lat="48.01581" lon="2.75413">
        <ele>95</ele>
        <time>2016-12-11T07:24:13.405Z</time>
      </trkpt>
      <trkpt lat="48.01581" lon="2.75413">
        <ele>95</ele>
        <time>2016-12-11T07:24:14.400Z</time>
      </trkpt>
      <trkpt lat="48.01585" lon="2.7541">
        <ele>96</ele>
        <time>2016-12-11T07:24:15.408Z</time>
      </trkpt>
      <trkpt lat="48.01585" lon="2.7541">
        <ele>96</ele>
        <time>2016-12-11T07:24:16.402Z</time>
      </trkpt>
      <trkpt lat="48.01585" lon="2.75406">
        <ele>96</ele>
        <time>2016-12-11T07:24:17.406Z</time>
      </trkpt>
      <trkpt lat="48.01585" lon="2.75404">
        <ele>96</ele>
        <time>2016-12-11T07:24:18.402Z</time>
      </trkpt>
      <trkpt lat="48.01585" lon="2.75404">
        <ele>96</ele>
        <time>2016-12-11T07:24:19.399Z</time>
      </trkpt>
      <trkpt lat="48.01584" lon="2.754">
        <ele>96</ele>
        <time>2016-12-11T07:24:20.402Z</time>
      </trkpt>
      <trkpt lat="48.01583" lon="2.75398">
        <ele>96</ele>
        <time>2016-12-11T07:24:21.402Z</time>
      </trkpt>
      <trkpt lat="48.01582" lon="2.75396">
        <ele>97</ele>
        <time>2016-12-11T07:24:22.419Z</time>
      </trkpt>
      <trkpt lat="48.01582" lon="2.75396">
        <ele>97</ele>
        <time>2016-12-11T07:24:23.406Z</time>
      </trkpt>
      <trkpt lat="48.0158" lon="2.75392">
        <ele>97</ele>
        <time>2016-12-11T07:24:24.401Z</time>
      </trkpt>
      <trkpt lat="48.0158" lon="2.75392">
        <ele>97</ele>
        <time>2016-12-11T07:24:25.398Z</time>
      </trkpt>
      <trkpt lat="48.01577" lon="2.75392">
        <ele>97</ele>
        <time>2016-12-11T07:24:26.403Z</time>
      </trkpt>
      <trkpt lat="48.01576" lon="2.75392">
        <ele>97</ele>
        <time>2016-12-11T07:24:27.401Z</time>
      </trkpt>
      <trkpt lat="48.01576" lon="2.75392">
        <ele>97</ele>
        <time>2016-12-11T07:24:28.435Z</time>
      </trkpt>
      <trkpt lat="48.01571" lon="2.75392">
        <ele>97</ele>
        <time>2016-12-11T07:24:29.401Z</time>
      </trkpt>
      <trkpt lat="48.0157" lon="2.75392">
        <ele>98</ele>
        <time>2016-12-11T07:24:30.401Z</time>
      </trkpt>
      <trkpt lat="48.0157" lon="2.75392">
        <ele>98</ele>
        <time>2016-12-11T07:24:31.396Z</time>
      </trkpt>
      <trkpt lat="48.01569" lon="2.7539">
        <ele>98</ele>
        <time>2016-12-11T07:24:32.402Z</time>
      </trkpt>
      <trkpt lat="48.01569" lon="2.7539">
        <ele>98</ele>
        <time>2016-12-11T07:24:33.399Z</time>
      </trkpt>
      <trkpt lat="48.01568" lon="2.75386">
        <ele>98</ele>
        <time>2016-12-11T07:24:34.432Z</time>
      </trkpt>
      <trkpt lat="48.01568" lon="2.75383">
        <ele>98</ele>
        <time>2016-12-11T07:24:35.410Z</time>
      </trkpt>
      <trkpt lat="48.01568" lon="2.75383">
        <ele>98</ele>
        <time>2016-12-11T07:24:36.401Z</time>
      </trkpt>
      <trkpt lat="48.01567" lon="2.75378">
        <ele>99</ele>
        <time>2016-12-11T07:24:37.402Z</time>
      </trkpt>
      <trkpt lat="48.01567" lon="2.75378">
        <ele>99</ele>
        <time>2016-12-11T07:24:38.400Z</time>
      </trkpt>
      <trkpt lat="48.01565" lon="2.75376">
        <ele>99</ele>
        <time>2016-12-11T07:24:39.400Z</time>
      </trkpt>
      <trkpt lat="48.01565" lon="2.75376">
        <ele>99</ele>
        <time>2016-12-11T07:24:40.396Z</time>
      </trkpt>
      <trkpt lat="48.01564" lon="2.75377">
        <ele>100</ele>
        <time>2016-12-11T07:24:41.402Z</time>
      </trkpt>
      <trkpt lat="48.01564" lon="2.75377">
        <ele>100</ele>
        <time>2016-12-11T07:24:42.400Z</time>
      </trkpt>
      <trkpt lat="48.01563" lon="2.75378">
        <ele>100</ele>
        <time>2016-12-11T07:24:43.401Z</time>
      </trkpt>
      <trkpt lat="48.01563" lon="2.75378">
        <ele>100</ele>
        <time>2016-12-11T07:24:44.402Z</time>
      </trkpt>
      <trkpt lat="48.01563" lon="2.75378">
        <ele>100</ele>
        <time>2016-12-11T07:24:45.430Z</time>
      </trkpt>
      <trkpt lat="48.01557" lon="2.75375">
        <ele>101</ele>
        <time>2016-12-11T07:24:46.433Z</time>
      </trkpt>
      <trkpt lat="48.01556" lon="2.75374">
        <ele>101</ele>
        <time>2016-12-11T07:24:47.432Z</time>
      </trkpt>
      <trkpt lat="48.01556" lon="2.75374">
        <ele>101</ele>
        <time>2016-12-11T07:24:48.433Z</time>
      </trkpt>
      <trkpt lat="48.01553" lon="2.7537">
        <ele>101</ele>
        <time>2016-12-11T07:24:49.433Z</time>
      </trkpt>
      <trkpt lat="48.01553" lon="2.7537">
        <ele>101</ele>
        <time>2016-12-11T07:24:50.436Z</time>
      </trkpt>
      <trkpt lat="48.01552" lon="2.75368">
        <ele>102</ele>
        <time>2016-12-11T07:24:51.400Z</time>
      </trkpt>
      <trkpt lat="48.01551" lon="2.75368">
        <ele>102</ele>
        <time>2016-12-11T07:24:52.408Z</time>
      </trkpt>
      <trkpt lat="48.01551" lon="2.75368">
        <ele>102</ele>
        <time>2016-12-11T07:24:53.399Z</time>
      </trkpt>
      <trkpt lat="48.0155" lon="2.75372">
        <ele>102</ele>
        <time>2016-12-11T07:24:54.430Z</time>
      </trkpt>
      <trkpt lat="48.0155" lon="2.75372">
        <ele>102</ele>
        <time>2016-12-11T07:24:55.431Z</time>
      </trkpt>
      <trkpt lat="48.0155" lon="2.75376">
        <ele>102</ele>
        <time>2016-12-11T07:24:56.433Z</time>
      </trkpt>
      <trkpt lat="48.0155" lon="2.75379">
        <ele>102</ele>
        <time>2016-12-11T07:24:57.396Z</time>
      </trkpt>
      <trkpt lat="48.0155" lon="2.75381">
        <ele>103</ele>
        <time>2016-12-11T07:24:58.434Z</time>
      </trkpt>
      <trkpt lat="48.0155" lon="2.75381">
        <ele>103</ele>
        <time>2016-12-11T07:24:59.431Z</time>
      </trkpt>
      <trkpt lat="48.01551" lon="2.75385">
        <ele>103</ele>
        <time>2016-12-11T07:25:00.435Z</time>
      </trkpt>
      <trkpt lat="48.01551" lon="2.75385">
        <ele>103</ele>
        <time>2016-12-11T07:25:01.400Z</time>
      </trkpt>
      <trkpt lat="48.01551" lon="2.75388">
        <ele>103</ele>
        <time>2016-12-11T07:25:02.432Z</time>
      </trkpt>
      <trkpt lat="48.01551" lon="2.75388">
        <ele>103</ele>
        <time>2016-12-11T07:25:03.431Z</time>
      </trkpt>
      <trkpt lat="48.01551" lon="2.75392">
        <ele>104</ele>
        <time>2016-12-11T07:25:04.430Z</time>
      </trkpt>
      <trkpt lat="48.01551" lon="2.75392">
        <ele>104</ele>
        <time>2016-12-11T07:25:05.428Z</time>
      </trkpt>
      <trkpt lat="48.01554" lon="2.75395">
        <ele>104</ele>
        <time>2016-12-11T07:25:06.433Z</time>
      </trkpt>
      <trkpt lat="48.01555" lon="2.75396">
        <ele>104</ele>
        <time>2016-12-11T07:25:07.434Z</time>
      </trkpt>
      <trkpt lat="48.01555" lon="2.75396">
        <ele>104</ele>
        <time>2016-12-11T07:25:08.428Z</time>
      </trkpt>
      <trkpt lat="48.01555" lon="2.754">
        <ele>104</ele>
        <time>2016-12-11T07:25:09.434Z</time>
      </trkpt>
      <trkpt lat="48.01555" lon="2.754">
        <ele>104</ele>
        <time>2016-12-11T07:25:10.433Z</time>
      </trkpt>
      <trkpt lat="48.01555" lon="2.75401">
        <ele>104</ele>
        <time>2016-12-11T07:25:11.397Z</time>
      </trkpt>
      <trkpt lat="48.01555" lon="2.75402">
        <ele>104</ele>
        <time>2016-12-11T07:25:12.433Z</time>
      </trkpt>
      <trkpt lat="48.01555" lon="2.75402">
        <ele>104</ele>
        <time>2016-12-11T07:25:13.428Z</time>
      </trkpt>
      <trkpt lat="48.01547" lon="2.75408">
        <ele>104</ele>
        <time>2016-12-11T07:25:14.397Z</time>
      </trkpt>
      <trkpt lat="48.01547" lon="2.7541">
        <ele>104</ele>
        <time>2016-12-11T07:25:15.432Z</time>
      </trkpt>
      <trkpt lat="48.01547" lon="2.7541">
        <ele>104</ele>
        <time>2016-12-11T07:25:16.421Z</time>
      </trkpt>
      <trkpt lat="48.01543" lon="2.75408">
        <ele>104</ele>
        <time>2016-12-11T07:25:17.401Z</time>
      </trkpt>
      <trkpt lat="48.01543" lon="2.75408">
        <ele>104</ele>
        <time>2016-12-11T07:25:18.455Z</time>
      </trkpt>
      <trkpt lat="48.0154" lon="2.75406">
        <ele>104</ele>
        <time>2016-12-11T07:25:19.432Z</time>
      </trkpt>
      <trkpt lat="48.01539" lon="2.75405">
        <ele>104</ele>
        <time>2016-12-11T07:25:20.423Z</time>
      </trkpt>
      <trkpt lat="48.01539" lon="2.75405">
        <ele>104</ele>
        <time>2016-12-11T07:25:21.421Z</time>
      </trkpt>
      <trkpt lat="48.01534" lon="2.75403">
        <ele>104</ele>
        <time>2016-12-11T07:25:22.423Z</time>
      </trkpt>
      <trkpt lat="48.01533" lon="2.75402">
        <ele>104</ele>
        <time>2016-12-11T07:25:23.423Z</time>
      </trkpt>
      <trkpt lat="48.01533" lon="2.75402">
        <ele>104</ele>
        <time>2016-12-11T07:25:24.421Z</time>
      </trkpt>
      <trkpt lat="48.0153" lon="2.75402">
        <ele>104</ele>
        <time>2016-12-11T07:25:25.423Z</time>
      </trkpt>
      <trkpt lat="48.01529" lon="2.75403">
        <ele>104</ele>
        <time>2016-12-11T07:25:26.423Z</time>
      </trkpt>
      <trkpt lat="48.01529" lon="2.75403">
        <ele>104</ele>
        <time>2016-12-11T07:25:27.418Z</time>
      </trkpt>
      <trkpt lat="48.01527" lon="2.75406">
        <ele>104</ele>
        <time>2016-12-11T07:25:28.425Z</time>
      </trkpt>
      <trkpt lat="48.01527" lon="2.75406">
        <ele>104</ele>
        <time>2016-12-11T07:25:29.423Z</time>
      </trkpt>
      <trkpt lat="48.01527" lon="2.7541">
        <ele>104</ele>
        <time>2016-12-11T07:25:30.404Z</time>
      </trkpt>
      <trkpt lat="48.01527" lon="2.7541">
        <ele>104</ele>
        <time>2016-12-11T07:25:31.435Z</time>
      </trkpt>
      <trkpt lat="48.01526" lon="2.75412">
        <ele>104</ele>
        <time>2016-12-11T07:25:32.425Z</time>
      </trkpt>
      <trkpt lat="48.01525" lon="2.75414">
        <ele>104</ele>
        <time>2016-12-11T07:25:33.426Z</time>
      </trkpt>
      <trkpt lat="48.01525" lon="2.75414">
        <ele>104</ele>
        <time>2016-12-11T07:25:34.428Z</time>
      </trkpt>
      <trkpt lat="48.01522" lon="2.75417">
        <ele>104</ele>
        <time>2016-12-11T07:25:35.424Z</time>
      </trkpt>
      <trkpt lat="48.0152" lon="2.75417">
        <ele>104</ele>
        <time>2016-12-11T07:25:36.424Z</time>
      </trkpt>
      <trkpt lat="48.0152" lon="2.75417">
        <ele>104</ele>
        <time>2016-12-11T07:25:37.421Z</time>
      </trkpt>
      <trkpt lat="48.01519" lon="2.75414">
        <ele>104</ele>
        <time>2016-12-11T07:25:38.425Z</time>
      </trkpt>
      <trkpt lat="48.01519" lon="2.75414">
        <ele>104</ele>
        <time>2016-12-11T07:25:39.427Z</time>
      </trkpt>
      <trkpt lat="48.01519" lon="2.7541">
        <ele>103</ele>
        <time>2016-12-11T07:25:40.424Z</time>
      </trkpt>
      <trkpt lat="48.01519" lon="2.75409">
        <ele>103</ele>
        <time>2016-12-11T07:25:41.426Z</time>
      </trkpt>
      <trkpt lat="48.01519" lon="2.75409">
        <ele>103</ele>
        <time>2016-12-11T07:25:42.421Z</time>
      </trkpt>
      <trkpt lat="48.0152" lon="2.75405">
        <ele>103</ele>
        <time>2016-12-11T07:25:43.423Z</time>
      </trkpt>
      <trkpt lat="48.0152" lon="2.75405">
        <ele>103</ele>
        <time>2016-12-11T07:25:44.417Z</time>
      </trkpt>
      <trkpt lat="48.01521" lon="2.75401">
        <ele>103</ele>
        <time>2016-12-11T07:25:45.423Z</time>
      </trkpt>
      <trkpt lat="48.01521" lon="2.75401">
        <ele>103</ele>
        <time>2016-12-11T07:25:46.420Z</time>
      </trkpt>
      <trkpt lat="48.0152" lon="2.75396">
        <ele>103</ele>
        <time>2016-12-11T07:25:47.423Z</time>
      </trkpt>
      <trkpt lat="48.0152" lon="2.75396">
        <ele>103</ele>
        <time>2016-12-11T07:25:48.426Z</time>
      </trkpt>
      <trkpt lat="48.01519" lon="2.75392">
        <ele>103</ele>
        <time>2016-12-11T07:25:49.423Z</time>
      </trkpt>
      <trkpt lat="48.01519" lon="2.75392">
        <ele>103</ele>
        <time>2016-12-11T07:25:50.421Z</time>
      </trkpt>
      <trkpt lat="48.01516" lon="2.75388">
        <ele>102</ele>
        <time>2016-12-11T07:25:51.424Z</time>
      </trkpt>
      <trkpt lat="48.01516" lon="2.75388">
        <ele>102</ele>
        <time>2016-12-11T07:25:52.420Z</time>
      </trkpt>
      <trkpt lat="48.01512" lon="2.75383">
        <ele>102</ele>
        <time>2016-12-11T07:25:53.420Z</time>
      </trkpt>
      <trkpt lat="48.01512" lon="2.75383">
        <ele>102</ele>
        <time>2016-12-11T07:25:54.420Z</time>
      </trkpt>
      <trkpt lat="48.01509" lon="2.75378">
        <ele>102</ele>
        <time>2016-12-11T07:25:55.422Z</time>
      </trkpt>
      <trkpt lat="48.01509" lon="2.75374">
        <ele>101</ele>
        <time>2016-12-11T07:25:56.424Z</time>
      </trkpt>
      <trkpt lat="48.01509" lon="2.75374">
        <ele>101</ele>
        <time>2016-12-11T07:25:57.422Z</time>
      </trkpt>
      <trkpt lat="48.01508" lon="2.75368">
        <ele>100</ele>
        <time>2016-12-11T07:25:58.426Z</time>
      </trkpt>
      <trkpt lat="48.01508" lon="2.75368">
        <ele>100</ele>
        <time>2016-12-11T07:25:59.423Z</time>
      </trkpt>
      <trkpt lat="48.01508" lon="2.75362">
        <ele>100</ele>
        <time>2016-12-11T07:26:00.423Z</time>
      </trkpt>
      <trkpt lat="48.01508" lon="2.7536">
        <ele>100</ele>
        <time>2016-12-11T07:26:01.423Z</time>
      </trkpt>
      <trkpt lat="48.01508" lon="2.7536">
        <ele>100</ele>
        <time>2016-12-11T07:26:02.421Z</time>
      </trkpt>
      <trkpt lat="48.01506" lon="2.75359">
        <ele>100</ele>
        <time>2016-12-11T07:26:03.424Z</time>
      </trkpt>
      <trkpt lat="48.01506" lon="2.75359">
        <ele>100</ele>
        <time>2016-12-11T07:26:04.418Z</time>
      </trkpt>
      <trkpt lat="48.01504" lon="2.7536">
        <ele>99</ele>
        <time>2016-12-11T07:26:05.425Z</time>
      </trkpt>
      <trkpt lat="48.01504" lon="2.7536">
        <ele>99</ele>
        <time>2016-12-11T07:26:06.421Z</time>
      </trkpt>
      <trkpt lat="48.01501" lon="2.75358">
        <ele>99</ele>
        <time>2016-12-11T07:26:07.423Z</time>
      </trkpt>
      <trkpt lat="48.01501" lon="2.75358">
        <ele>99</ele>
        <time>2016-12-11T07:26:08.426Z</time>
      </trkpt>
      <trkpt lat="48.01498" lon="2.75354">
        <ele>99</ele>
        <time>2016-12-11T07:26:09.427Z</time>
      </trkpt>
      <trkpt lat="48.01498" lon="2.75354">
        <ele>99</ele>
        <time>2016-12-11T07:26:10.417Z</time>
      </trkpt>
      <trkpt lat="48.01497" lon="2.75348">
        <ele>99</ele>
        <time>2016-12-11T07:26:11.423Z</time>
      </trkpt>
      <trkpt lat="48.01497" lon="2.75345">
        <ele>98</ele>
        <time>2016-12-11T07:26:12.424Z</time>
      </trkpt>
      <trkpt lat="48.01497" lon="2.75345">
        <ele>98</ele>
        <time>2016-12-11T07:26:13.421Z</time>
      </trkpt>
      <trkpt lat="48.01498" lon="2.75338">
        <ele>98</ele>
        <time>2016-12-11T07:26:14.423Z</time>
      </trkpt>
      <trkpt lat="48.01497" lon="2.75335">
        <ele>98</ele>
        <time>2016-12-11T07:26:15.424Z</time>
      </trkpt>
      <trkpt lat="48.01497" lon="2.75335">
        <ele>98</ele>
        <time>2016-12-11T07:26:16.418Z</time>
      </trkpt>
      <trkpt lat="48.01494" lon="2.75329">
        <ele>97</ele>
        <time>2016-12-11T07:26:17.424Z</time>
      </trkpt>
      <trkpt lat="48.01494" lon="2.75329">
        <ele>97</ele>
        <time>2016-12-11T07:26:18.426Z</time>
      </trkpt>
      <trkpt lat="48.01489" lon="2.75327">
        <ele>97</ele>
        <time>2016-12-11T07:26:19.423Z</time>
      </trkpt>
      <trkpt lat="48.01489" lon="2.75327">
        <ele>97</ele>
        <time>2016-12-11T07:26:20.419Z</time>
      </trkpt>
      <trkpt lat="48.01485" lon="2.75322">
        <ele>97</ele>
        <time>2016-12-11T07:26:21.424Z</time>
      </trkpt>
      <trkpt lat="48.01485" lon="2.75322">
        <ele>97</ele>
        <time>2016-12-11T07:26:22.421Z</time>
      </trkpt>
      <trkpt lat="48.01486" lon="2.75314">
        <ele>96</ele>
        <time>2016-12-11T07:26:23.421Z</time>
      </trkpt>
      <trkpt lat="48.01486" lon="2.75314">
        <ele>96</ele>
        <time>2016-12-11T07:26:24.418Z</time>
      </trkpt>
      <trkpt lat="48.01487" lon="2.75305">
        <ele>96</ele>
        <time>2016-12-11T07:26:25.423Z</time>
      </trkpt>
      <trkpt lat="48.01487" lon="2.75305">
        <ele>96</ele>
        <time>2016-12-11T07:26:26.421Z</time>
      </trkpt>
      <trkpt lat="48.01487" lon="2.75294">
        <ele>95</ele>
        <time>2016-12-11T07:26:27.424Z</time>
      </trkpt>
      <trkpt lat="48.01487" lon="2.75294">
        <ele>95</ele>
        <time>2016-12-11T07:26:28.426Z</time>
      </trkpt>
      <trkpt lat="48.01487" lon="2.75283">
        <ele>94</ele>
        <time>2016-12-11T07:26:29.424Z</time>
      </trkpt>
      <trkpt lat="48.01487" lon="2.75283">
        <ele>94</ele>
        <time>2016-12-11T07:26:30.419Z</time>
      </trkpt>
      <trkpt lat="48.01487" lon="2.75271">
        <ele>94</ele>
        <time>2016-12-11T07:26:31.423Z</time>
      </trkpt>
      <trkpt lat="48.01487" lon="2.75271">
        <ele>94</ele>
        <time>2016-12-11T07:26:32.420Z</time>
      </trkpt>
      <trkpt lat="48.01487" lon="2.75259">
        <ele>93</ele>
        <time>2016-12-11T07:26:33.424Z</time>
      </trkpt>
      <trkpt lat="48.01487" lon="2.75259">
        <ele>93</ele>
        <time>2016-12-11T07:26:34.419Z</time>
      </trkpt>
      <trkpt lat="48.01487" lon="2.75246">
        <ele>93</ele>
        <time>2016-12-11T07:26:35.420Z</time>
      </trkpt>
      <trkpt lat="48.01488" lon="2.7524">
        <ele>92</ele>
        <time>2016-12-11T07:26:36.423Z</time>
      </trkpt>
      <trkpt lat="48.01488" lon="2.75234">
        <ele>92</ele>
        <time>2016-12-11T07:26:37.422Z</time>
      </trkpt>
      <trkpt lat="48.01488" lon="2.75234">
        <ele>92</ele>
        <time>2016-12-11T07:26:38.425Z</time>
      </trkpt>
      <trkpt lat="48.01489" lon="2.75222">
        <ele>92</ele>
        <time>2016-12-11T07:26:39.424Z</time>
      </trkpt>
      <trkpt lat="48.01489" lon="2.75217">
        <ele>92</ele>
        <time>2016-12-11T07:26:40.425Z</time>
      </trkpt>
      <trkpt lat="48.01489" lon="2.75217">
        <ele>92</ele>
        <time>2016-12-11T07:26:41.427Z</time>
      </trkpt>
      <trkpt lat="48.01489" lon="2.75206">
        <ele>90</ele>
        <time>2016-12-11T07:26:42.423Z</time>
      </trkpt>
      <trkpt lat="48.01489" lon="2.75206">
        <ele>90</ele>
        <time>2016-12-11T07:26:43.421Z</time>
      </trkpt>
      <trkpt lat="48.01488" lon="2.75195">
        <ele>90</ele>
        <time>2016-12-11T07:26:44.424Z</time>
      </trkpt>
      <trkpt lat="48.01488" lon="2.75195">
        <ele>90</ele>
        <time>2016-12-11T07:26:45.421Z</time>
      </trkpt>
      <trkpt lat="48.01487" lon="2.75184">
        <ele>89</ele>
        <time>2016-12-11T07:26:46.428Z</time>
      </trkpt>
      <trkpt lat="48.01487" lon="2.75184">
        <ele>89</ele>
        <time>2016-12-11T07:26:47.421Z</time>
      </trkpt>
      <trkpt lat="48.01488" lon="2.75177">
        <ele>89</ele>
        <time>2016-12-11T07:26:48.426Z</time>
      </trkpt>
      <trkpt lat="48.01488" lon="2.75177">
        <ele>89</ele>
        <time>2016-12-11T07:26:49.431Z</time>
      </trkpt>
      <trkpt lat="48.01489" lon="2.75171">
        <ele>88</ele>
        <time>2016-12-11T07:26:50.427Z</time>
      </trkpt>
      <trkpt lat="48.01491" lon="2.75168">
        <ele>89</ele>
        <time>2016-12-11T07:26:51.424Z</time>
      </trkpt>
      <trkpt lat="48.01491" lon="2.75168">
        <ele>89</ele>
        <time>2016-12-11T07:26:52.418Z</time>
      </trkpt>
      <trkpt lat="48.01494" lon="2.75161">
        <ele>90</ele>
        <time>2016-12-11T07:26:53.423Z</time>
      </trkpt>
      <trkpt lat="48.01494" lon="2.75161">
        <ele>90</ele>
        <time>2016-12-11T07:26:54.396Z</time>
      </trkpt>
      <trkpt lat="48.01498" lon="2.75158">
        <ele>91</ele>
        <time>2016-12-11T07:26:55.426Z</time>
      </trkpt>
      <trkpt lat="48.015" lon="2.75157">
        <ele>92</ele>
        <time>2016-12-11T07:26:56.423Z</time>
      </trkpt>
      <trkpt lat="48.01502" lon="2.75156">
        <ele>92</ele>
        <time>2016-12-11T07:26:57.424Z</time>
      </trkpt>
      <trkpt lat="48.01504" lon="2.75155">
        <ele>93</ele>
        <time>2016-12-11T07:26:58.425Z</time>
      </trkpt>
      <trkpt lat="48.01504" lon="2.75155">
        <ele>93</ele>
        <time>2016-12-11T07:26:59.434Z</time>
      </trkpt>
      <trkpt lat="48.01508" lon="2.75155">
        <ele>94</ele>
        <time>2016-12-11T07:27:00.424Z</time>
      </trkpt>
      <trkpt lat="48.01508" lon="2.75155">
        <ele>94</ele>
        <time>2016-12-11T07:27:01.435Z</time>
      </trkpt>
      <trkpt lat="48.01514" lon="2.75154">
        <ele>94</ele>
        <time>2016-12-11T07:27:02.423Z</time>
      </trkpt>
      <trkpt lat="48.01514" lon="2.75154">
        <ele>94</ele>
        <time>2016-12-11T07:27:03.423Z</time>
      </trkpt>
      <trkpt lat="48.01519" lon="2.75149">
        <ele>95</ele>
        <time>2016-12-11T07:27:04.423Z</time>
      </trkpt>
      <trkpt lat="48.01521" lon="2.75146">
        <ele>95</ele>
        <time>2016-12-11T07:27:05.423Z</time>
      </trkpt>
      <trkpt lat="48.01521" lon="2.75146">
        <ele>95</ele>
        <time>2016-12-11T07:27:06.420Z</time>
      </trkpt>
      <trkpt lat="48.01525" lon="2.75138">
        <ele>95</ele>
        <time>2016-12-11T07:27:07.423Z</time>
      </trkpt>
      <trkpt lat="48.01525" lon="2.75138">
        <ele>95</ele>
        <time>2016-12-11T07:27:08.421Z</time>
      </trkpt>
      <trkpt lat="48.01528" lon="2.75131">
        <ele>95</ele>
        <time>2016-12-11T07:27:09.398Z</time>
      </trkpt>
      <trkpt lat="48.01528" lon="2.75131">
        <ele>95</ele>
        <time>2016-12-11T07:27:10.428Z</time>
      </trkpt>
      <trkpt lat="48.01529" lon="2.75124">
        <ele>96</ele>
        <time>2016-12-11T07:27:11.421Z</time>
      </trkpt>
      <trkpt lat="48.01529" lon="2.75124">
        <ele>96</ele>
        <time>2016-12-11T07:27:12.424Z</time>
      </trkpt>
      <trkpt lat="48.01527" lon="2.7512">
        <ele>96</ele>
        <time>2016-12-11T07:27:13.423Z</time>
      </trkpt>
      <trkpt lat="48.01525" lon="2.75118">
        <ele>96</ele>
        <time>2016-12-11T07:27:14.423Z</time>
      </trkpt>
      <trkpt lat="48.01525" lon="2.75118">
        <ele>96</ele>
        <time>2016-12-11T07:27:15.422Z</time>
      </trkpt>
      <trkpt lat="48.01522" lon="2.75117">
        <ele>95</ele>
        <time>2016-12-11T07:27:16.424Z</time>
      </trkpt>
      <trkpt lat="48.01522" lon="2.75117">
        <ele>95</ele>
        <time>2016-12-11T07:27:17.428Z</time>
      </trkpt>
      <trkpt lat="48.01522" lon="2.75119">
        <ele>96</ele>
        <time>2016-12-11T07:27:18.425Z</time>
      </trkpt>
      <trkpt lat="48.01521" lon="2.7512">
        <ele>96</ele>
        <time>2016-12-11T07:27:19.426Z</time>
      </trkpt>
      <trkpt lat="48.01521" lon="2.7512">
        <ele>96</ele>
        <time>2016-12-11T07:27:20.421Z</time>
      </trkpt>
      <trkpt lat="48.01519" lon="2.75121">
        <ele>96</ele>
        <time>2016-12-11T07:27:21.425Z</time>
      </trkpt>
      <trkpt lat="48.01519" lon="2.75121">
        <ele>96</ele>
        <time>2016-12-11T07:27:22.421Z</time>
      </trkpt>
      <trkpt lat="48.01518" lon="2.75117">
        <ele>95</ele>
        <time>2016-12-11T07:27:23.421Z</time>
      </trkpt>
      <trkpt lat="48.01518" lon="2.75117">
        <ele>95</ele>
        <time>2016-12-11T07:27:24.418Z</time>
      </trkpt>
      <trkpt lat="48.01517" lon="2.75112">
        <ele>95</ele>
        <time>2016-12-11T07:27:25.424Z</time>
      </trkpt>
      <trkpt lat="48.01516" lon="2.75109">
        <ele>95</ele>
        <time>2016-12-11T07:27:26.424Z</time>
      </trkpt>
      <trkpt lat="48.01516" lon="2.75109">
        <ele>95</ele>
        <time>2016-12-11T07:27:27.422Z</time>
      </trkpt>
      <trkpt lat="48.01514" lon="2.75105">
        <ele>95</ele>
        <time>2016-12-11T07:27:28.426Z</time>
      </trkpt>
      <trkpt lat="48.01512" lon="2.75105">
        <ele>95</ele>
        <time>2016-12-11T07:27:29.401Z</time>
      </trkpt>
      <trkpt lat="48.01512" lon="2.75105">
        <ele>95</ele>
        <time>2016-12-11T07:27:30.433Z</time>
      </trkpt>
      <trkpt lat="48.01509" lon="2.75104">
        <ele>94</ele>
        <time>2016-12-11T07:27:31.428Z</time>
      </trkpt>
      <trkpt lat="48.01508" lon="2.75102">
        <ele>94</ele>
        <time>2016-12-11T07:27:32.423Z</time>
      </trkpt>
      <trkpt lat="48.01507" lon="2.75101">
        <ele>94</ele>
        <time>2016-12-11T07:27:33.425Z</time>
      </trkpt>
      <trkpt lat="48.01507" lon="2.75101">
        <ele>94</ele>
        <time>2016-12-11T07:27:34.421Z</time>
      </trkpt>
      <trkpt lat="48.01508" lon="2.75098">
        <ele>94</ele>
        <time>2016-12-11T07:27:35.424Z</time>
      </trkpt>
      <trkpt lat="48.01508" lon="2.75098">
        <ele>94</ele>
        <time>2016-12-11T07:27:36.421Z</time>
      </trkpt>
      <trkpt lat="48.01511" lon="2.75095">
        <ele>94</ele>
        <time>2016-12-11T07:27:37.424Z</time>
      </trkpt>
      <trkpt lat="48.01511" lon="2.75095">
        <ele>94</ele>
        <time>2016-12-11T07:27:38.425Z</time>
      </trkpt>
      <trkpt lat="48.01514" lon="2.75093">
        <ele>93</ele>
        <time>2016-12-11T07:27:39.425Z</time>
      </trkpt>
      <trkpt lat="48.01514" lon="2.75093">
        <ele>93</ele>
        <time>2016-12-11T07:27:40.418Z</time>
      </trkpt>
      <trkpt lat="48.01513" lon="2.75088">
        <ele>94</ele>
        <time>2016-12-11T07:27:41.423Z</time>
      </trkpt>
      <trkpt lat="48.01514" lon="2.75086">
        <ele>94</ele>
        <time>2016-12-11T07:27:42.424Z</time>
      </trkpt>
      <trkpt lat="48.01514" lon="2.75086">
        <ele>94</ele>
        <time>2016-12-11T07:27:43.421Z</time>
      </trkpt>
      <trkpt lat="48.01515" lon="2.7508">
        <ele>94</ele>
        <time>2016-12-11T07:27:44.424Z</time>
      </trkpt>
      <trkpt lat="48.01515" lon="2.7508">
        <ele>94</ele>
        <time>2016-12-11T07:27:45.421Z</time>
      </trkpt>
      <trkpt lat="48.01515" lon="2.75073">
        <ele>94</ele>
        <time>2016-12-11T07:27:46.421Z</time>
      </trkpt>
      <trkpt lat="48.01514" lon="2.7507">
        <ele>94</ele>
        <time>2016-12-11T07:27:47.423Z</time>
      </trkpt>
      <trkpt lat="48.01514" lon="2.7507">
        <ele>94</ele>
        <time>2016-12-11T07:27:48.423Z</time>
      </trkpt>
      <trkpt lat="48.01513" lon="2.75065">
        <ele>93</ele>
        <time>2016-12-11T07:27:49.424Z</time>
      </trkpt>
      <trkpt lat="48.01513" lon="2.75065">
        <ele>93</ele>
        <time>2016-12-11T07:27:50.418Z</time>
      </trkpt>
      <trkpt lat="48.01512" lon="2.75061">
        <ele>93</ele>
        <time>2016-12-11T07:27:51.422Z</time>
      </trkpt>
      <trkpt lat="48.0151" lon="2.75059">
        <ele>93</ele>
        <time>2016-12-11T07:27:52.423Z</time>
      </trkpt>
      <trkpt lat="48.01508" lon="2.75057">
        <ele>93</ele>
        <time>2016-12-11T07:27:53.424Z</time>
      </trkpt>
      <trkpt lat="48.01508" lon="2.75057">
        <ele>93</ele>
        <time>2016-12-11T07:27:54.421Z</time>
      </trkpt>
      <trkpt lat="48.01506" lon="2.75051">
        <ele>93</ele>
        <time>2016-12-11T07:27:55.423Z</time>
      </trkpt>
      <trkpt lat="48.01506" lon="2.75051">
        <ele>93</ele>
        <time>2016-12-11T07:27:56.421Z</time>
      </trkpt>
      <trkpt lat="48.01505" lon="2.75044">
        <ele>93</ele>
        <time>2016-12-11T07:27:57.425Z</time>
      </trkpt>
      <trkpt lat="48.01505" lon="2.75044">
        <ele>93</ele>
        <time>2016-12-11T07:27:58.426Z</time>
      </trkpt>
      <trkpt lat="48.01503" lon="2.75038">
        <ele>93</ele>
        <time>2016-12-11T07:27:59.424Z</time>
      </trkpt>
      <trkpt lat="48.01503" lon="2.75038">
        <ele>93</ele>
        <time>2016-12-11T07:28:00.422Z</time>
      </trkpt>
      <trkpt lat="48.01501" lon="2.75032">
        <ele>93</ele>
        <time>2016-12-11T07:28:01.418Z</time>
      </trkpt>
      <trkpt lat="48.015" lon="2.75029">
        <ele>93</ele>
        <time>2016-12-11T07:28:02.396Z</time>
      </trkpt>
      <trkpt lat="48.015" lon="2.75026">
        <ele>94</ele>
        <time>2016-12-11T07:28:03.430Z</time>
      </trkpt>
      <trkpt lat="48.015" lon="2.75026">
        <ele>94</ele>
        <time>2016-12-11T07:28:04.421Z</time>
      </trkpt>
      <trkpt lat="48.015" lon="2.7502">
        <ele>94</ele>
        <time>2016-12-11T07:28:05.425Z</time>
      </trkpt>
      <trkpt lat="48.015" lon="2.7502">
        <ele>94</ele>
        <time>2016-12-11T07:28:06.421Z</time>
      </trkpt>
      <trkpt lat="48.01499" lon="2.75017">
        <ele>94</ele>
        <time>2016-12-11T07:28:07.425Z</time>
      </trkpt>
      <trkpt lat="48.01499" lon="2.75017">
        <ele>94</ele>
        <time>2016-12-11T07:28:08.426Z</time>
      </trkpt>
      <trkpt lat="48.01498" lon="2.75015">
        <ele>94</ele>
        <time>2016-12-11T07:28:09.425Z</time>
      </trkpt>
      <trkpt lat="48.01498" lon="2.75015">
        <ele>94</ele>
        <time>2016-12-11T07:28:10.421Z</time>
      </trkpt>
      <trkpt lat="48.01497" lon="2.75013">
        <ele>94</ele>
        <time>2016-12-11T07:28:11.432Z</time>
      </trkpt>
      <trkpt lat="48.01497" lon="2.75013">
        <ele>94</ele>
        <time>2016-12-11T07:28:12.421Z</time>
      </trkpt>
      <trkpt lat="48.01497" lon="2.75012">
        <ele>94</ele>
        <time>2016-12-11T07:28:13.424Z</time>
      </trkpt>
      <trkpt lat="48.01497" lon="2.75012">
        <ele>94</ele>
        <time>2016-12-11T07:28:14.419Z</time>
      </trkpt>
      <trkpt lat="48.01495" lon="2.75011">
        <ele>94</ele>
        <time>2016-12-11T07:28:15.426Z</time>
      </trkpt>
      <trkpt lat="48.01495" lon="2.7501">
        <ele>94</ele>
        <time>2016-12-11T07:28:16.424Z</time>
      </trkpt>
      <trkpt lat="48.01495" lon="2.7501">
        <ele>94</ele>
        <time>2016-12-11T07:28:17.429Z</time>
      </trkpt>
      <trkpt lat="48.01492" lon="2.75008">
        <ele>94</ele>
        <time>2016-12-11T07:28:18.424Z</time>
      </trkpt>
      <trkpt lat="48.01492" lon="2.75008">
        <ele>94</ele>
        <time>2016-12-11T07:28:19.423Z</time>
      </trkpt>
      <trkpt lat="48.0149" lon="2.75004">
        <ele>94</ele>
        <time>2016-12-11T07:28:20.424Z</time>
      </trkpt>
      <trkpt lat="48.0149" lon="2.75004">
        <ele>94</ele>
        <time>2016-12-11T07:28:21.430Z</time>
      </trkpt>
      <trkpt lat="48.01488" lon="2.75004">
        <ele>95</ele>
        <time>2016-12-11T07:28:22.425Z</time>
      </trkpt>
      <trkpt lat="48.01487" lon="2.75004">
        <ele>95</ele>
        <time>2016-12-11T07:28:23.425Z</time>
      </trkpt>
      <trkpt lat="48.01487" lon="2.75004">
        <ele>95</ele>
        <time>2016-12-11T07:28:24.422Z</time>
      </trkpt>
      <trkpt lat="48.01485" lon="2.75006">
        <ele>95</ele>
        <time>2016-12-11T07:28:25.424Z</time>
      </trkpt>
      <trkpt lat="48.01483" lon="2.75006">
        <ele>95</ele>
        <time>2016-12-11T07:28:26.423Z</time>
      </trkpt>
      <trkpt lat="48.01483" lon="2.75006">
        <ele>95</ele>
        <time>2016-12-11T07:28:27.420Z</time>
      </trkpt>
      <trkpt lat="48.0148" lon="2.75003">
        <ele>95</ele>
        <time>2016-12-11T07:28:28.425Z</time>
      </trkpt>
      <trkpt lat="48.01479" lon="2.75002">
        <ele>96</ele>
        <time>2016-12-11T07:28:29.425Z</time>
      </trkpt>
      <trkpt lat="48.01479" lon="2.75002">
        <ele>96</ele>
        <time>2016-12-11T07:28:30.419Z</time>
      </trkpt>
      <trkpt lat="48.01477" lon="2.75003">
        <ele>96</ele>
        <time>2016-12-11T07:28:31.431Z</time>
      </trkpt>
      <trkpt lat="48.01477" lon="2.75003">
        <ele>96</ele>
        <time>2016-12-11T07:28:32.421Z</time>
      </trkpt>
      <trkpt lat="48.01476" lon="2.75005">
        <ele>96</ele>
        <time>2016-12-11T07:28:33.425Z</time>
      </trkpt>
      <trkpt lat="48.01476" lon="2.75005">
        <ele>96</ele>
        <time>2016-12-11T07:28:34.419Z</time>
      </trkpt>
      <trkpt lat="48.01473" lon="2.75007">
        <ele>96</ele>
        <time>2016-12-11T07:28:35.424Z</time>
      </trkpt>
      <trkpt lat="48.01473" lon="2.75007">
        <ele>96</ele>
        <time>2016-12-11T07:28:36.424Z</time>
      </trkpt>
      <trkpt lat="48.0147" lon="2.75006">
        <ele>97</ele>
        <time>2016-12-11T07:28:37.423Z</time>
      </trkpt>
      <trkpt lat="48.0147" lon="2.75006">
        <ele>97</ele>
        <time>2016-12-11T07:28:38.426Z</time>
      </trkpt>
      <trkpt lat="48.01467" lon="2.75006">
        <ele>97</ele>
        <time>2016-12-11T07:28:39.423Z</time>
      </trkpt>
      <trkpt lat="48.01467" lon="2.75006">
        <ele>97</ele>
        <time>2016-12-11T07:28:40.421Z</time>
      </trkpt>
      <trkpt lat="48.01465" lon="2.75007">
        <ele>97</ele>
        <time>2016-12-11T07:28:41.424Z</time>
      </trkpt>
      <trkpt lat="48.01465" lon="2.75007">
        <ele>97</ele>
        <time>2016-12-11T07:28:42.421Z</time>
      </trkpt>
      <trkpt lat="48.01466" lon="2.75011">
        <ele>97</ele>
        <time>2016-12-11T07:28:43.424Z</time>
      </trkpt>
      <trkpt lat="48.01466" lon="2.75012">
        <ele>97</ele>
        <time>2016-12-11T07:28:44.424Z</time>
      </trkpt>
      <trkpt lat="48.01466" lon="2.75012">
        <ele>97</ele>
        <time>2016-12-11T07:28:45.426Z</time>
      </trkpt>
      <trkpt lat="48.01467" lon="2.75014">
        <ele>97</ele>
        <time>2016-12-11T07:28:46.424Z</time>
      </trkpt>
      <trkpt lat="48.01467" lon="2.75014">
        <ele>97</ele>
        <time>2016-12-11T07:28:47.422Z</time>
      </trkpt>
      <trkpt lat="48.01465" lon="2.75017">
        <ele>97</ele>
        <time>2016-12-11T07:28:48.426Z</time>
      </trkpt>
      <trkpt lat="48.01465" lon="2.75017">
        <ele>97</ele>
        <time>2016-12-11T07:28:49.425Z</time>
      </trkpt>
      <trkpt lat="48.01463" lon="2.75016">
        <ele>97</ele>
        <time>2016-12-11T07:28:50.426Z</time>
      </trkpt>
      <trkpt lat="48.01463" lon="2.75016">
        <ele>97</ele>
        <time>2016-12-11T07:28:51.425Z</time>
      </trkpt>
      <trkpt lat="48.01463" lon="2.75016">
        <ele>97</ele>
        <time>2016-12-11T07:28:52.420Z</time>
      </trkpt>
      <trkpt lat="48.01462" lon="2.75015">
        <ele>97</ele>
        <time>2016-12-11T07:28:53.423Z</time>
      </trkpt>
      <trkpt lat="48.01462" lon="2.75015">
        <ele>97</ele>
        <time>2016-12-11T07:28:54.425Z</time>
      </trkpt>
      <trkpt lat="48.01454" lon="2.74998">
        <ele>96</ele>
        <time>2016-12-11T07:28:55.435Z</time>
      </trkpt>
      <trkpt lat="48.01454" lon="2.74998">
        <ele>96</ele>
        <time>2016-12-11T07:28:56.434Z</time>
      </trkpt>
      <trkpt lat="48.01454" lon="2.74998">
        <ele>96</ele>
        <time>2016-12-11T07:28:57.429Z</time>
      </trkpt>
      <trkpt lat="48.01453" lon="2.74998">
        <ele>96</ele>
        <time>2016-12-11T07:28:58.399Z</time>
      </trkpt>
      <trkpt lat="48.01445" lon="2.74999">
        <ele>96</ele>
        <time>2016-12-11T07:28:59.402Z</time>
      </trkpt>
      <trkpt lat="48.01445" lon="2.74997">
        <ele>96</ele>
        <time>2016-12-11T07:29:00.431Z</time>
      </trkpt>
      <trkpt lat="48.01445" lon="2.74997">
        <ele>96</ele>
        <time>2016-12-11T07:29:01.429Z</time>
      </trkpt>
      <trkpt lat="48.01445" lon="2.74995">
        <ele>96</ele>
        <time>2016-12-11T07:29:02.425Z</time>
      </trkpt>
      <trkpt lat="48.01445" lon="2.74995">
        <ele>96</ele>
        <time>2016-12-11T07:29:03.424Z</time>
      </trkpt>
      <trkpt lat="48.01447" lon="2.74992">
        <ele>96</ele>
        <time>2016-12-11T07:29:04.427Z</time>
      </trkpt>
      <trkpt lat="48.01447" lon="2.74992">
        <ele>96</ele>
        <time>2016-12-11T07:29:05.424Z</time>
      </trkpt>
      <trkpt lat="48.01446" lon="2.74989">
        <ele>96</ele>
        <time>2016-12-11T07:29:06.422Z</time>
      </trkpt>
      <trkpt lat="48.01446" lon="2.74989">
        <ele>96</ele>
        <time>2016-12-11T07:29:07.428Z</time>
      </trkpt>
      <trkpt lat="48.01447" lon="2.74983">
        <ele>96</ele>
        <time>2016-12-11T07:29:08.426Z</time>
      </trkpt>
      <trkpt lat="48.01447" lon="2.74983">
        <ele>96</ele>
        <time>2016-12-11T07:29:09.422Z</time>
      </trkpt>
      <trkpt lat="48.01448" lon="2.74977">
        <ele>96</ele>
        <time>2016-12-11T07:29:10.424Z</time>
      </trkpt>
      <trkpt lat="48.01448" lon="2.74977">
        <ele>96</ele>
        <time>2016-12-11T07:29:11.434Z</time>
      </trkpt>
      <trkpt lat="48.01448" lon="2.74973">
        <ele>96</ele>
        <time>2016-12-11T07:29:12.400Z</time>
      </trkpt>
      <trkpt lat="48.01448" lon="2.74973">
        <ele>96</ele>
        <time>2016-12-11T07:29:13.429Z</time>
      </trkpt>
      <trkpt lat="48.01448" lon="2.74966">
        <ele>96</ele>
        <time>2016-12-11T07:29:14.427Z</time>
      </trkpt>
      <trkpt lat="48.01448" lon="2.74966">
        <ele>96</ele>
        <time>2016-12-11T07:29:15.421Z</time>
      </trkpt>
      <trkpt lat="48.01447" lon="2.7496">
        <ele>96</ele>
        <time>2016-12-11T07:29:16.422Z</time>
      </trkpt>
      <trkpt lat="48.01445" lon="2.74958">
        <ele>95</ele>
        <time>2016-12-11T07:29:17.418Z</time>
      </trkpt>
      <trkpt lat="48.01444" lon="2.74957">
        <ele>95</ele>
        <time>2016-12-11T07:29:18.422Z</time>
      </trkpt>
      <trkpt lat="48.01444" lon="2.74957">
        <ele>95</ele>
        <time>2016-12-11T07:29:19.419Z</time>
      </trkpt>
      <trkpt lat="48.0144" lon="2.74953">
        <ele>95</ele>
        <time>2016-12-11T07:29:20.426Z</time>
      </trkpt>
      <trkpt lat="48.0144" lon="2.74953">
        <ele>95</ele>
        <time>2016-12-11T07:29:21.429Z</time>
      </trkpt>
      <trkpt lat="48.01438" lon="2.74944">
        <ele>95</ele>
        <time>2016-12-11T07:29:22.427Z</time>
      </trkpt>
      <trkpt lat="48.01438" lon="2.74944">
        <ele>95</ele>
        <time>2016-12-11T07:29:23.419Z</time>
      </trkpt>
      <trkpt lat="48.01439" lon="2.74936">
        <ele>95</ele>
        <time>2016-12-11T07:29:24.427Z</time>
      </trkpt>
      <trkpt lat="48.01439" lon="2.74936">
        <ele>95</ele>
        <time>2016-12-11T07:29:25.423Z</time>
      </trkpt>
      <trkpt lat="48.0144" lon="2.74928">
        <ele>95</ele>
        <time>2016-12-11T07:29:26.427Z</time>
      </trkpt>
      <trkpt lat="48.0144" lon="2.74928">
        <ele>95</ele>
        <time>2016-12-11T07:29:27.418Z</time>
      </trkpt>
      <trkpt lat="48.01441" lon="2.74921">
        <ele>95</ele>
        <time>2016-12-11T07:29:28.423Z</time>
      </trkpt>
      <trkpt lat="48.01442" lon="2.74917">
        <ele>94</ele>
        <time>2016-12-11T07:29:29.427Z</time>
      </trkpt>
      <trkpt lat="48.01442" lon="2.74917">
        <ele>94</ele>
        <time>2016-12-11T07:29:30.424Z</time>
      </trkpt>
      <trkpt lat="48.01444" lon="2.74908">
        <ele>95</ele>
        <time>2016-12-11T07:29:31.428Z</time>
      </trkpt>
      <trkpt lat="48.01444" lon="2.74903">
        <ele>95</ele>
        <time>2016-12-11T07:29:32.426Z</time>
      </trkpt>
      <trkpt lat="48.01444" lon="2.74903">
        <ele>95</ele>
        <time>2016-12-11T07:29:33.425Z</time>
      </trkpt>
      <trkpt lat="48.01446" lon="2.74892">
        <ele>95</ele>
        <time>2016-12-11T07:29:34.427Z</time>
      </trkpt>
      <trkpt lat="48.01446" lon="2.74892">
        <ele>95</ele>
        <time>2016-12-11T07:29:35.419Z</time>
      </trkpt>
      <trkpt lat="48.01449" lon="2.74879">
        <ele>94</ele>
        <time>2016-12-11T07:29:36.427Z</time>
      </trkpt>
      <trkpt lat="48.01449" lon="2.74879">
        <ele>94</ele>
        <time>2016-12-11T07:29:37.427Z</time>
      </trkpt>
      <trkpt lat="48.01452" lon="2.74865">
        <ele>94</ele>
        <time>2016-12-11T07:29:38.429Z</time>
      </trkpt>
      <trkpt lat="48.01452" lon="2.74865">
        <ele>94</ele>
        <time>2016-12-11T07:29:39.419Z</time>
      </trkpt>
      <trkpt lat="48.01455" lon="2.74852">
        <ele>94</ele>
        <time>2016-12-11T07:29:40.427Z</time>
      </trkpt>
      <trkpt lat="48.01455" lon="2.74852">
        <ele>94</ele>
        <time>2016-12-11T07:29:41.428Z</time>
      </trkpt>
      <trkpt lat="48.01457" lon="2.7484">
        <ele>94</ele>
        <time>2016-12-11T07:29:42.423Z</time>
      </trkpt>
      <trkpt lat="48.01457" lon="2.7484">
        <ele>94</ele>
        <time>2016-12-11T07:29:43.424Z</time>
      </trkpt>
      <trkpt lat="48.01459" lon="2.74829">
        <ele>94</ele>
        <time>2016-12-11T07:29:44.424Z</time>
      </trkpt>
      <trkpt lat="48.01459" lon="2.74829">
        <ele>94</ele>
        <time>2016-12-11T07:29:45.422Z</time>
      </trkpt>
      <trkpt lat="48.01461" lon="2.74817">
        <ele>94</ele>
        <time>2016-12-11T07:29:46.428Z</time>
      </trkpt>
      <trkpt lat="48.01462" lon="2.74811">
        <ele>94</ele>
        <time>2016-12-11T07:29:47.424Z</time>
      </trkpt>
      <trkpt lat="48.01462" lon="2.74811">
        <ele>94</ele>
        <time>2016-12-11T07:29:48.424Z</time>
      </trkpt>
      <trkpt lat="48.01465" lon="2.74799">
        <ele>94</ele>
        <time>2016-12-11T07:29:49.427Z</time>
      </trkpt>
      <trkpt lat="48.01465" lon="2.74799">
        <ele>94</ele>
        <time>2016-12-11T07:29:50.424Z</time>
      </trkpt>
      <trkpt lat="48.01468" lon="2.74786">
        <ele>94</ele>
        <time>2016-12-11T07:29:51.396Z</time>
      </trkpt>
      <trkpt lat="48.01468" lon="2.74786">
        <ele>94</ele>
        <time>2016-12-11T07:29:52.424Z</time>
      </trkpt>
      <trkpt lat="48.01471" lon="2.74773">
        <ele>94</ele>
        <time>2016-12-11T07:29:53.427Z</time>
      </trkpt>
      <trkpt lat="48.01473" lon="2.74766">
        <ele>94</ele>
        <time>2016-12-11T07:29:54.426Z</time>
      </trkpt>
      <trkpt lat="48.01473" lon="2.74766">
        <ele>94</ele>
        <time>2016-12-11T07:29:55.421Z</time>
      </trkpt>
      <trkpt lat="48.01475" lon="2.74752">
        <ele>94</ele>
        <time>2016-12-11T07:29:56.427Z</time>
      </trkpt>
      <trkpt lat="48.01475" lon="2.74752">
        <ele>94</ele>
        <time>2016-12-11T07:29:57.418Z</time>
      </trkpt>
      <trkpt lat="48.01478" lon="2.74741">
        <ele>94</ele>
        <time>2016-12-11T07:29:58.399Z</time>
      </trkpt>
      <trkpt lat="48.01478" lon="2.74741">
        <ele>94</ele>
        <time>2016-12-11T07:29:59.426Z</time>
      </trkpt>
      <trkpt lat="48.0148" lon="2.7473">
        <ele>94</ele>
        <time>2016-12-11T07:30:00.424Z</time>
      </trkpt>
      <trkpt lat="48.0148" lon="2.7473">
        <ele>94</ele>
        <time>2016-12-11T07:30:01.420Z</time>
      </trkpt>
      <trkpt lat="48.01481" lon="2.74718">
        <ele>94</ele>
        <time>2016-12-11T07:30:02.426Z</time>
      </trkpt>
      <trkpt lat="48.01481" lon="2.74718">
        <ele>94</ele>
        <time>2016-12-11T07:30:03.426Z</time>
      </trkpt>
      <trkpt lat="48.01484" lon="2.74706">
        <ele>94</ele>
        <time>2016-12-11T07:30:04.420Z</time>
      </trkpt>
      <trkpt lat="48.01484" lon="2.74706">
        <ele>94</ele>
        <time>2016-12-11T07:30:05.414Z</time>
      </trkpt>
      <trkpt lat="48.01486" lon="2.74694">
        <ele>94</ele>
        <time>2016-12-11T07:30:06.427Z</time>
      </trkpt>
      <trkpt lat="48.01486" lon="2.74694">
        <ele>94</ele>
        <time>2016-12-11T07:30:07.424Z</time>
      </trkpt>
      <trkpt lat="48.01486" lon="2.74688">
        <ele>93</ele>
        <time>2016-12-11T07:30:08.426Z</time>
      </trkpt>
      <trkpt lat="48.01484" lon="2.74687">
        <ele>93</ele>
        <time>2016-12-11T07:30:09.427Z</time>
      </trkpt>
      <trkpt lat="48.01482" lon="2.74686">
        <ele>93</ele>
        <time>2016-12-11T07:30:10.426Z</time>
      </trkpt>
      <trkpt lat="48.01482" lon="2.74686">
        <ele>93</ele>
        <time>2016-12-11T07:30:11.427Z</time>
      </trkpt>
      <trkpt lat="48.01476" lon="2.74683">
        <ele>93</ele>
        <time>2016-12-11T07:30:12.406Z</time>
      </trkpt>
      <trkpt lat="48.01476" lon="2.74683">
        <ele>93</ele>
        <time>2016-12-11T07:30:13.435Z</time>
      </trkpt>
      <trkpt lat="48.01469" lon="2.74679">
        <ele>93</ele>
        <time>2016-12-11T07:30:14.429Z</time>
      </trkpt>
      <trkpt lat="48.01469" lon="2.74679">
        <ele>93</ele>
        <time>2016-12-11T07:30:15.424Z</time>
      </trkpt>
      <trkpt lat="48.01461" lon="2.74675">
        <ele>93</ele>
        <time>2016-12-11T07:30:16.424Z</time>
      </trkpt>
      <trkpt lat="48.01461" lon="2.74675">
        <ele>93</ele>
        <time>2016-12-11T07:30:17.432Z</time>
      </trkpt>
      <trkpt lat="48.01453" lon="2.7467">
        <ele>92</ele>
        <time>2016-12-11T07:30:18.424Z</time>
      </trkpt>
      <trkpt lat="48.01453" lon="2.7467">
        <ele>92</ele>
        <time>2016-12-11T07:30:19.424Z</time>
      </trkpt>
      <trkpt lat="48.01446" lon="2.74667">
        <ele>92</ele>
        <time>2016-12-11T07:30:20.427Z</time>
      </trkpt>
      <trkpt lat="48.01446" lon="2.74667">
        <ele>92</ele>
        <time>2016-12-11T07:30:21.427Z</time>
      </trkpt>
      <trkpt lat="48.01438" lon="2.74663">
        <ele>91</ele>
        <time>2016-12-11T07:30:22.428Z</time>
      </trkpt>
      <trkpt lat="48.01438" lon="2.74663">
        <ele>91</ele>
        <time>2016-12-11T07:30:23.420Z</time>
      </trkpt>
      <trkpt lat="48.0143" lon="2.74658">
        <ele>91</ele>
        <time>2016-12-11T07:30:24.424Z</time>
      </trkpt>
      <trkpt lat="48.0143" lon="2.74658">
        <ele>91</ele>
        <time>2016-12-11T07:30:25.422Z</time>
      </trkpt>
      <trkpt lat="48.0142" lon="2.74653">
        <ele>90</ele>
        <time>2016-12-11T07:30:26.422Z</time>
      </trkpt>
      <trkpt lat="48.01415" lon="2.7465">
        <ele>90</ele>
        <time>2016-12-11T07:30:27.429Z</time>
      </trkpt>
      <trkpt lat="48.01415" lon="2.7465">
        <ele>90</ele>
        <time>2016-12-11T07:30:28.429Z</time>
      </trkpt>
      <trkpt lat="48.01405" lon="2.74646">
        <ele>89</ele>
        <time>2016-12-11T07:30:29.427Z</time>
      </trkpt>
      <trkpt lat="48.01401" lon="2.74643">
        <ele>89</ele>
        <time>2016-12-11T07:30:30.427Z</time>
      </trkpt>
      <trkpt lat="48.01401" lon="2.74643">
        <ele>89</ele>
        <time>2016-12-11T07:30:31.427Z</time>
      </trkpt>
      <trkpt lat="48.01392" lon="2.74639">
        <ele>89</ele>
        <time>2016-12-11T07:30:32.435Z</time>
      </trkpt>
      <trkpt lat="48.01388" lon="2.74637">
        <ele>89</ele>
        <time>2016-12-11T07:30:33.427Z</time>
      </trkpt>
      <trkpt lat="48.01383" lon="2.74634">
        <ele>89</ele>
        <time>2016-12-11T07:30:34.427Z</time>
      </trkpt>
      <trkpt lat="48.01383" lon="2.74634">
        <ele>89</ele>
        <time>2016-12-11T07:30:35.424Z</time>
      </trkpt>
      <trkpt lat="48.01375" lon="2.7463">
        <ele>89</ele>
        <time>2016-12-11T07:30:36.427Z</time>
      </trkpt>
      <trkpt lat="48.01375" lon="2.7463">
        <ele>89</ele>
        <time>2016-12-11T07:30:37.428Z</time>
      </trkpt>
      <trkpt lat="48.01366" lon="2.74625">
        <ele>89</ele>
        <time>2016-12-11T07:30:38.428Z</time>
      </trkpt>
      <trkpt lat="48.01366" lon="2.74625">
        <ele>89</ele>
        <time>2016-12-11T07:30:39.424Z</time>
      </trkpt>
      <trkpt lat="48.01357" lon="2.7462">
        <ele>89</ele>
        <time>2016-12-11T07:30:40.428Z</time>
      </trkpt>
      <trkpt lat="48.01357" lon="2.7462">
        <ele>89</ele>
        <time>2016-12-11T07:30:41.425Z</time>
      </trkpt>
      <trkpt lat="48.01349" lon="2.74615">
        <ele>89</ele>
        <time>2016-12-11T07:30:42.432Z</time>
      </trkpt>
      <trkpt lat="48.01345" lon="2.74614">
        <ele>90</ele>
        <time>2016-12-11T07:30:43.427Z</time>
      </trkpt>
      <trkpt lat="48.01345" lon="2.74614">
        <ele>90</ele>
        <time>2016-12-11T07:30:44.423Z</time>
      </trkpt>
      <trkpt lat="48.01338" lon="2.74612">
        <ele>91</ele>
        <time>2016-12-11T07:30:45.426Z</time>
      </trkpt>
      <trkpt lat="48.01338" lon="2.74612">
        <ele>91</ele>
        <time>2016-12-11T07:30:46.419Z</time>
      </trkpt>
      <trkpt lat="48.0133" lon="2.7461">
        <ele>91</ele>
        <time>2016-12-11T07:30:47.428Z</time>
      </trkpt>
      <trkpt lat="48.0133" lon="2.7461">
        <ele>91</ele>
        <time>2016-12-11T07:30:48.425Z</time>
      </trkpt>
      <trkpt lat="48.01323" lon="2.74607">
        <ele>92</ele>
        <time>2016-12-11T07:30:49.426Z</time>
      </trkpt>
      <trkpt lat="48.01323" lon="2.74607">
        <ele>92</ele>
        <time>2016-12-11T07:30:50.416Z</time>
      </trkpt>
      <trkpt lat="48.01315" lon="2.74604">
        <ele>93</ele>
        <time>2016-12-11T07:30:51.427Z</time>
      </trkpt>
      <trkpt lat="48.01315" lon="2.74604">
        <ele>93</ele>
        <time>2016-12-11T07:30:52.431Z</time>
      </trkpt>
      <trkpt lat="48.01308" lon="2.746">
        <ele>93</ele>
        <time>2016-12-11T07:30:53.427Z</time>
      </trkpt>
      <trkpt lat="48.01304" lon="2.74599">
        <ele>93</ele>
        <time>2016-12-11T07:30:54.423Z</time>
      </trkpt>
      <trkpt lat="48.01304" lon="2.74599">
        <ele>93</ele>
        <time>2016-12-11T07:30:55.420Z</time>
      </trkpt>
      <trkpt lat="48.01296" lon="2.74597">
        <ele>93</ele>
        <time>2016-12-11T07:30:56.424Z</time>
      </trkpt>
      <trkpt lat="48.01296" lon="2.74597">
        <ele>93</ele>
        <time>2016-12-11T07:30:57.429Z</time>
      </trkpt>
      <trkpt lat="48.01289" lon="2.74594">
        <ele>93</ele>
        <time>2016-12-11T07:30:58.429Z</time>
      </trkpt>
      <trkpt lat="48.01289" lon="2.74594">
        <ele>93</ele>
        <time>2016-12-11T07:30:59.422Z</time>
      </trkpt>
      <trkpt lat="48.01283" lon="2.74588">
        <ele>93</ele>
        <time>2016-12-11T07:31:00.427Z</time>
      </trkpt>
      <trkpt lat="48.01283" lon="2.74588">
        <ele>93</ele>
        <time>2016-12-11T07:31:01.426Z</time>
      </trkpt>
      <trkpt lat="48.01277" lon="2.74585">
        <ele>93</ele>
        <time>2016-12-11T07:31:02.428Z</time>
      </trkpt>
      <trkpt lat="48.01277" lon="2.74585">
        <ele>93</ele>
        <time>2016-12-11T07:31:03.423Z</time>
      </trkpt>
      <trkpt lat="48.01269" lon="2.74582">
        <ele>92</ele>
        <time>2016-12-11T07:31:04.428Z</time>
      </trkpt>
      <trkpt lat="48.01269" lon="2.74582">
        <ele>92</ele>
        <time>2016-12-11T07:31:05.422Z</time>
      </trkpt>
      <trkpt lat="48.01261" lon="2.74578">
        <ele>92</ele>
        <time>2016-12-11T07:31:06.426Z</time>
      </trkpt>
      <trkpt lat="48.01258" lon="2.74577">
        <ele>92</ele>
        <time>2016-12-11T07:31:07.419Z</time>
      </trkpt>
      <trkpt lat="48.01258" lon="2.74577">
        <ele>92</ele>
        <time>2016-12-11T07:31:08.423Z</time>
      </trkpt>
      <trkpt lat="48.01253" lon="2.74571">
        <ele>92</ele>
        <time>2016-12-11T07:31:09.426Z</time>
      </trkpt>
      <trkpt lat="48.01253" lon="2.74571">
        <ele>92</ele>
        <time>2016-12-11T07:31:10.424Z</time>
      </trkpt>
      <trkpt lat="48.01252" lon="2.74563">
        <ele>92</ele>
        <time>2016-12-11T07:31:11.397Z</time>
      </trkpt>
      <trkpt lat="48.01252" lon="2.74563">
        <ele>92</ele>
        <time>2016-12-11T07:31:12.399Z</time>
      </trkpt>
      <trkpt lat="48.01252" lon="2.74553">
        <ele>92</ele>
        <time>2016-12-11T07:31:13.433Z</time>
      </trkpt>
      <trkpt lat="48.01252" lon="2.74548">
        <ele>92</ele>
        <time>2016-12-11T07:31:14.429Z</time>
      </trkpt>
      <trkpt lat="48.01252" lon="2.74548">
        <ele>92</ele>
        <time>2016-12-11T07:31:15.424Z</time>
      </trkpt>
      <trkpt lat="48.01251" lon="2.74537">
        <ele>90</ele>
        <time>2016-12-11T07:31:16.427Z</time>
      </trkpt>
      <trkpt lat="48.01251" lon="2.74537">
        <ele>90</ele>
        <time>2016-12-11T07:31:17.398Z</time>
      </trkpt>
      <trkpt lat="48.01251" lon="2.74525">
        <ele>90</ele>
        <time>2016-12-11T07:31:18.434Z</time>
      </trkpt>
      <trkpt lat="48.01251" lon="2.74525">
        <ele>90</ele>
        <time>2016-12-11T07:31:19.428Z</time>
      </trkpt>
      <trkpt lat="48.0125" lon="2.74511">
        <ele>90</ele>
        <time>2016-12-11T07:31:20.429Z</time>
      </trkpt>
      <trkpt lat="48.0125" lon="2.74511">
        <ele>90</ele>
        <time>2016-12-11T07:31:21.424Z</time>
      </trkpt>
      <trkpt lat="48.01251" lon="2.74496">
        <ele>89</ele>
        <time>2016-12-11T07:31:22.418Z</time>
      </trkpt>
      <trkpt lat="48.01251" lon="2.74496">
        <ele>89</ele>
        <time>2016-12-11T07:31:23.422Z</time>
      </trkpt>
      <trkpt lat="48.01251" lon="2.74483">
        <ele>89</ele>
        <time>2016-12-11T07:31:24.426Z</time>
      </trkpt>
      <trkpt lat="48.01251" lon="2.74483">
        <ele>89</ele>
        <time>2016-12-11T07:31:25.424Z</time>
      </trkpt>
      <trkpt lat="48.0125" lon="2.74469">
        <ele>90</ele>
        <time>2016-12-11T07:31:26.428Z</time>
      </trkpt>
      <trkpt lat="48.0125" lon="2.74469">
        <ele>90</ele>
        <time>2016-12-11T07:31:27.428Z</time>
      </trkpt>
      <trkpt lat="48.0125" lon="2.74456">
        <ele>89</ele>
        <time>2016-12-11T07:31:28.427Z</time>
      </trkpt>
      <trkpt lat="48.0125" lon="2.74456">
        <ele>89</ele>
        <time>2016-12-11T07:31:29.425Z</time>
      </trkpt>
      <trkpt lat="48.0125" lon="2.74443">
        <ele>89</ele>
        <time>2016-12-11T07:31:30.427Z</time>
      </trkpt>
      <trkpt lat="48.0125" lon="2.74443">
        <ele>89</ele>
        <time>2016-12-11T07:31:31.420Z</time>
      </trkpt>
      <trkpt lat="48.01249" lon="2.7443">
        <ele>88</ele>
        <time>2016-12-11T07:31:32.397Z</time>
      </trkpt>
      <trkpt lat="48.0125" lon="2.74424">
        <ele>88</ele>
        <time>2016-12-11T07:31:33.426Z</time>
      </trkpt>
      <trkpt lat="48.0125" lon="2.74424">
        <ele>88</ele>
        <time>2016-12-11T07:31:34.425Z</time>
      </trkpt>
      <trkpt lat="48.0125" lon="2.74409">
        <ele>88</ele>
        <time>2016-12-11T07:31:35.427Z</time>
      </trkpt>
      <trkpt lat="48.0125" lon="2.74409">
        <ele>88</ele>
        <time>2016-12-11T07:31:36.420Z</time>
      </trkpt>
      <trkpt lat="48.0125" lon="2.74395">
        <ele>88</ele>
        <time>2016-12-11T07:31:37.428Z</time>
      </trkpt>
      <trkpt lat="48.01251" lon="2.74388">
        <ele>87</ele>
        <time>2016-12-11T07:31:38.428Z</time>
      </trkpt>
      <trkpt lat="48.01251" lon="2.74388">
        <ele>87</ele>
        <time>2016-12-11T07:31:39.420Z</time>
      </trkpt>
      <trkpt lat="48.01252" lon="2.74373">
        <ele>86</ele>
        <time>2016-12-11T07:31:40.397Z</time>
      </trkpt>
      <trkpt lat="48.01251" lon="2.74365">
        <ele>87</ele>
        <time>2016-12-11T07:31:41.427Z</time>
      </trkpt>
      <trkpt lat="48.01251" lon="2.74365">
        <ele>87</ele>
        <time>2016-12-11T07:31:42.429Z</time>
      </trkpt>
      <trkpt lat="48.01251" lon="2.7435">
        <ele>87</ele>
        <time>2016-12-11T07:31:43.427Z</time>
      </trkpt>
      <trkpt lat="48.01251" lon="2.74344">
        <ele>86</ele>
        <time>2016-12-11T07:31:44.430Z</time>
      </trkpt>
      <trkpt lat="48.01251" lon="2.74344">
        <ele>86</ele>
        <time>2016-12-11T07:31:45.422Z</time>
      </trkpt>
      <trkpt lat="48.01252" lon="2.74329">
        <ele>85</ele>
        <time>2016-12-11T07:31:46.427Z</time>
      </trkpt>
      <trkpt lat="48.01252" lon="2.74329">
        <ele>85</ele>
        <time>2016-12-11T07:31:47.428Z</time>
      </trkpt>
      <trkpt lat="48.01253" lon="2.74314">
        <ele>83</ele>
        <time>2016-12-11T07:31:48.429Z</time>
      </trkpt>
      <trkpt lat="48.01253" lon="2.74314">
        <ele>83</ele>
        <time>2016-12-11T07:31:49.422Z</time>
      </trkpt>
      <trkpt lat="48.01252" lon="2.743">
        <ele>82</ele>
        <time>2016-12-11T07:31:50.428Z</time>
      </trkpt>
      <trkpt lat="48.01252" lon="2.743">
        <ele>82</ele>
        <time>2016-12-11T07:31:51.425Z</time>
      </trkpt>
      <trkpt lat="48.01251" lon="2.74287">
        <ele>83</ele>
        <time>2016-12-11T07:31:52.430Z</time>
      </trkpt>
      <trkpt lat="48.01249" lon="2.74281">
        <ele>84</ele>
        <time>2016-12-11T07:31:53.428Z</time>
      </trkpt>
      <trkpt lat="48.01249" lon="2.74281">
        <ele>84</ele>
        <time>2016-12-11T07:31:54.424Z</time>
      </trkpt>
      <trkpt lat="48.0125" lon="2.74272">
        <ele>84</ele>
        <time>2016-12-11T07:31:55.426Z</time>
      </trkpt>
      <trkpt lat="48.01251" lon="2.74268">
        <ele>83</ele>
        <time>2016-12-11T07:31:56.428Z</time>
      </trkpt>
      <trkpt lat="48.01251" lon="2.74268">
        <ele>83</ele>
        <time>2016-12-11T07:31:57.428Z</time>
      </trkpt>
      <trkpt lat="48.01255" lon="2.74263">
        <ele>83</ele>
        <time>2016-12-11T07:31:58.427Z</time>
      </trkpt>
      <trkpt lat="48.01255" lon="2.74263">
        <ele>83</ele>
        <time>2016-12-11T07:31:59.424Z</time>
      </trkpt>
      <trkpt lat="48.01258" lon="2.74261">
        <ele>85</ele>
        <time>2016-12-11T07:32:00.426Z</time>
      </trkpt>
      <trkpt lat="48.01258" lon="2.74261">
        <ele>85</ele>
        <time>2016-12-11T07:32:01.424Z</time>
      </trkpt>
      <trkpt lat="48.01263" lon="2.74259">
        <ele>85</ele>
        <time>2016-12-11T07:32:02.398Z</time>
      </trkpt>
      <trkpt lat="48.01263" lon="2.74259">
        <ele>85</ele>
        <time>2016-12-11T07:32:03.399Z</time>
      </trkpt>
      <trkpt lat="48.01268" lon="2.74257">
        <ele>85</ele>
        <time>2016-12-11T07:32:04.428Z</time>
      </trkpt>
      <trkpt lat="48.01268" lon="2.74257">
        <ele>85</ele>
        <time>2016-12-11T07:32:05.420Z</time>
      </trkpt>
      <trkpt lat="48.01272" lon="2.74255">
        <ele>86</ele>
        <time>2016-12-11T07:32:06.417Z</time>
      </trkpt>
      <trkpt lat="48.01275" lon="2.74254">
        <ele>86</ele>
        <time>2016-12-11T07:32:07.428Z</time>
      </trkpt>
      <trkpt lat="48.01277" lon="2.74253">
        <ele>86</ele>
        <time>2016-12-11T07:32:08.428Z</time>
      </trkpt>
      <trkpt lat="48.01277" lon="2.74253">
        <ele>86</ele>
        <time>2016-12-11T07:32:09.425Z</time>
      </trkpt>
      <trkpt lat="48.01281" lon="2.74252">
        <ele>86</ele>
        <time>2016-12-11T07:32:10.425Z</time>
      </trkpt>
      <trkpt lat="48.01283" lon="2.74252">
        <ele>86</ele>
        <time>2016-12-11T07:32:11.428Z</time>
      </trkpt>
      <trkpt lat="48.01283" lon="2.74252">
        <ele>86</ele>
        <time>2016-12-11T07:32:12.408Z</time>
      </trkpt>
      <trkpt lat="48.01287" lon="2.74252">
        <ele>86</ele>
        <time>2016-12-11T07:32:13.400Z</time>
      </trkpt>
      <trkpt lat="48.01291" lon="2.74253">
        <ele>86</ele>
        <time>2016-12-11T07:32:14.429Z</time>
      </trkpt>
      <trkpt lat="48.01291" lon="2.74253">
        <ele>86</ele>
        <time>2016-12-11T07:32:15.420Z</time>
      </trkpt>
      <trkpt lat="48.01297" lon="2.74252">
        <ele>89</ele>
        <time>2016-12-11T07:32:16.427Z</time>
      </trkpt>
      <trkpt lat="48.01297" lon="2.74252">
        <ele>89</ele>
        <time>2016-12-11T07:32:17.399Z</time>
      </trkpt>
      <trkpt lat="48.01302" lon="2.74251">
        <ele>90</ele>
        <time>2016-12-11T07:32:18.430Z</time>
      </trkpt>
      <trkpt lat="48.01302" lon="2.74251">
        <ele>90</ele>
        <time>2016-12-11T07:32:19.426Z</time>
      </trkpt>
      <trkpt lat="48.01308" lon="2.7425">
        <ele>91</ele>
        <time>2016-12-11T07:32:20.431Z</time>
      </trkpt>
      <trkpt lat="48.01308" lon="2.7425">
        <ele>91</ele>
        <time>2016-12-11T07:32:21.426Z</time>
      </trkpt>
      <trkpt lat="48.01313" lon="2.74249">
        <ele>90</ele>
        <time>2016-12-11T07:32:22.427Z</time>
      </trkpt>
      <trkpt lat="48.01313" lon="2.74249">
        <ele>90</ele>
        <time>2016-12-11T07:32:23.433Z</time>
      </trkpt>
      <trkpt lat="48.01318" lon="2.74247">
        <ele>89</ele>
        <time>2016-12-11T07:32:24.408Z</time>
      </trkpt>
      <trkpt lat="48.01321" lon="2.74246">
        <ele>89</ele>
        <time>2016-12-11T07:32:25.398Z</time>
      </trkpt>
      <trkpt lat="48.01324" lon="2.74245">
        <ele>88</ele>
        <time>2016-12-11T07:32:26.419Z</time>
      </trkpt>
      <trkpt lat="48.01324" lon="2.74245">
        <ele>88</ele>
        <time>2016-12-11T07:32:27.398Z</time>
      </trkpt>
      <trkpt lat="48.0133" lon="2.74245">
        <ele>88</ele>
        <time>2016-12-11T07:32:28.398Z</time>
      </trkpt>
      <trkpt lat="48.01333" lon="2.74246">
        <ele>89</ele>
        <time>2016-12-11T07:32:29.403Z</time>
      </trkpt>
      <trkpt lat="48.01337" lon="2.74245">
        <ele>89</ele>
        <time>2016-12-11T07:32:30.401Z</time>
      </trkpt>
      <trkpt lat="48.01337" lon="2.74245">
        <ele>89</ele>
        <time>2016-12-11T07:32:31.402Z</time>
      </trkpt>
      <trkpt lat="48.01343" lon="2.74243">
        <ele>90</ele>
        <time>2016-12-11T07:32:32.402Z</time>
      </trkpt>
      <trkpt lat="48.01343" lon="2.74243">
        <ele>90</ele>
        <time>2016-12-11T07:32:33.421Z</time>
      </trkpt>
      <trkpt lat="48.01349" lon="2.74241">
        <ele>91</ele>
        <time>2016-12-11T07:32:34.425Z</time>
      </trkpt>
      <trkpt lat="48.01352" lon="2.7424">
        <ele>91</ele>
        <time>2016-12-11T07:32:35.423Z</time>
      </trkpt>
      <trkpt lat="48.01352" lon="2.7424">
        <ele>91</ele>
        <time>2016-12-11T07:32:36.425Z</time>
      </trkpt>
      <trkpt lat="48.01357" lon="2.74238">
        <ele>91</ele>
        <time>2016-12-11T07:32:37.429Z</time>
      </trkpt>
      <trkpt lat="48.0136" lon="2.74238">
        <ele>91</ele>
        <time>2016-12-11T07:32:38.432Z</time>
      </trkpt>
      <trkpt lat="48.0136" lon="2.74238">
        <ele>91</ele>
        <time>2016-12-11T07:32:39.399Z</time>
      </trkpt>
      <trkpt lat="48.01364" lon="2.74237">
        <ele>91</ele>
        <time>2016-12-11T07:32:40.397Z</time>
      </trkpt>
      <trkpt lat="48.01365" lon="2.74236">
        <ele>91</ele>
        <time>2016-12-11T07:32:41.435Z</time>
      </trkpt>
      <trkpt lat="48.01365" lon="2.74236">
        <ele>91</ele>
        <time>2016-12-11T07:32:42.431Z</time>
      </trkpt>
      <trkpt lat="48.01366" lon="2.74231">
        <ele>91</ele>
        <time>2016-12-11T07:32:43.432Z</time>
      </trkpt>
      <trkpt lat="48.01367" lon="2.74229">
        <ele>91</ele>
        <time>2016-12-11T07:32:44.432Z</time>
      </trkpt>
      <trkpt lat="48.01367" lon="2.74229">
        <ele>91</ele>
        <time>2016-12-11T07:32:45.430Z</time>
      </trkpt>
      <trkpt lat="48.0137" lon="2.74224">
        <ele>92</ele>
        <time>2016-12-11T07:32:46.429Z</time>
      </trkpt>
      <trkpt lat="48.0137" lon="2.74224">
        <ele>92</ele>
        <time>2016-12-11T07:32:47.429Z</time>
      </trkpt>
      <trkpt lat="48.01374" lon="2.7422">
        <ele>92</ele>
        <time>2016-12-11T07:32:48.427Z</time>
      </trkpt>
      <trkpt lat="48.01374" lon="2.7422">
        <ele>92</ele>
        <time>2016-12-11T07:32:49.426Z</time>
      </trkpt>
      <trkpt lat="48.01377" lon="2.74221">
        <ele>93</ele>
        <time>2016-12-11T07:32:50.429Z</time>
      </trkpt>
      <trkpt lat="48.01377" lon="2.74221">
        <ele>93</ele>
        <time>2016-12-11T07:32:51.424Z</time>
      </trkpt>
      <trkpt lat="48.01379" lon="2.74224">
        <ele>93</ele>
        <time>2016-12-11T07:32:52.396Z</time>
      </trkpt>
      <trkpt lat="48.01381" lon="2.74223">
        <ele>93</ele>
        <time>2016-12-11T07:32:53.398Z</time>
      </trkpt>
      <trkpt lat="48.01381" lon="2.74223">
        <ele>93</ele>
        <time>2016-12-11T07:32:54.434Z</time>
      </trkpt>
      <trkpt lat="48.01385" lon="2.74219">
        <ele>92</ele>
        <time>2016-12-11T07:32:55.428Z</time>
      </trkpt>
      <trkpt lat="48.01385" lon="2.74219">
        <ele>92</ele>
        <time>2016-12-11T07:32:56.427Z</time>
      </trkpt>
      <trkpt lat="48.01391" lon="2.74216">
        <ele>92</ele>
        <time>2016-12-11T07:32:57.427Z</time>
      </trkpt>
      <trkpt lat="48.01391" lon="2.74216">
        <ele>92</ele>
        <time>2016-12-11T07:32:58.421Z</time>
      </trkpt>
      <trkpt lat="48.01396" lon="2.74212">
        <ele>93</ele>
        <time>2016-12-11T07:32:59.418Z</time>
      </trkpt>
      <trkpt lat="48.01396" lon="2.74212">
        <ele>93</ele>
        <time>2016-12-11T07:33:00.417Z</time>
      </trkpt>
      <trkpt lat="48.01401" lon="2.7421">
        <ele>93</ele>
        <time>2016-12-11T07:33:01.427Z</time>
      </trkpt>
      <trkpt lat="48.01403" lon="2.74209">
        <ele>93</ele>
        <time>2016-12-11T07:33:02.429Z</time>
      </trkpt>
      <trkpt lat="48.01403" lon="2.74209">
        <ele>93</ele>
        <time>2016-12-11T07:33:03.430Z</time>
      </trkpt>
      <trkpt lat="48.01405" lon="2.74205">
        <ele>94</ele>
        <time>2016-12-11T07:33:04.426Z</time>
      </trkpt>
      <trkpt lat="48.01405" lon="2.74205">
        <ele>94</ele>
        <time>2016-12-11T07:33:05.425Z</time>
      </trkpt>
      <trkpt lat="48.01405" lon="2.74201">
        <ele>94</ele>
        <time>2016-12-11T07:33:06.424Z</time>
      </trkpt>
      <trkpt lat="48.01405" lon="2.74201">
        <ele>94</ele>
        <time>2016-12-11T07:33:07.420Z</time>
      </trkpt>
      <trkpt lat="48.01407" lon="2.74196">
        <ele>95</ele>
        <time>2016-12-11T07:33:08.422Z</time>
      </trkpt>
      <trkpt lat="48.01409" lon="2.74195">
        <ele>95</ele>
        <time>2016-12-11T07:33:09.428Z</time>
      </trkpt>
      <trkpt lat="48.01409" lon="2.74195">
        <ele>95</ele>
        <time>2016-12-11T07:33:10.421Z</time>
      </trkpt>
      <trkpt lat="48.01414" lon="2.74195">
        <ele>95</ele>
        <time>2016-12-11T07:33:11.428Z</time>
      </trkpt>
      <trkpt lat="48.01414" lon="2.74195">
        <ele>95</ele>
        <time>2016-12-11T07:33:12.402Z</time>
      </trkpt>
      <trkpt lat="48.01416" lon="2.74193">
        <ele>95</ele>
        <time>2016-12-11T07:33:13.435Z</time>
      </trkpt>
      <trkpt lat="48.01416" lon="2.74193">
        <ele>95</ele>
        <time>2016-12-11T07:33:14.429Z</time>
      </trkpt>
      <trkpt lat="48.01417" lon="2.74189">
        <ele>95</ele>
        <time>2016-12-11T07:33:15.429Z</time>
      </trkpt>
      <trkpt lat="48.01418" lon="2.74188">
        <ele>95</ele>
        <time>2016-12-11T07:33:16.427Z</time>
      </trkpt>
      <trkpt lat="48.01418" lon="2.74188">
        <ele>95</ele>
        <time>2016-12-11T07:33:17.399Z</time>
      </trkpt>
      <trkpt lat="48.0142" lon="2.74185">
        <ele>96</ele>
        <time>2016-12-11T07:33:18.431Z</time>
      </trkpt>
      <trkpt lat="48.0142" lon="2.74185">
        <ele>96</ele>
        <time>2016-12-11T07:33:19.423Z</time>
      </trkpt>
      <trkpt lat="48.01422" lon="2.74182">
        <ele>96</ele>
        <time>2016-12-11T07:33:20.429Z</time>
      </trkpt>
      <trkpt lat="48.01422" lon="2.74182">
        <ele>96</ele>
        <time>2016-12-11T07:33:21.426Z</time>
      </trkpt>
      <trkpt lat="48.01423" lon="2.74182">
        <ele>96</ele>
        <time>2016-12-11T07:33:22.428Z</time>
      </trkpt>
      <trkpt lat="48.01423" lon="2.74182">
        <ele>96</ele>
        <time>2016-12-11T07:33:23.427Z</time>
      </trkpt>
      <trkpt lat="48.01426" lon="2.74184">
        <ele>95</ele>
        <time>2016-12-11T07:33:24.428Z</time>
      </trkpt>
      <trkpt lat="48.01426" lon="2.74184">
        <ele>95</ele>
        <time>2016-12-11T07:33:25.425Z</time>
      </trkpt>
      <trkpt lat="48.01429" lon="2.74184">
        <ele>95</ele>
        <time>2016-12-11T07:33:26.428Z</time>
      </trkpt>
      <trkpt lat="48.01429" lon="2.74184">
        <ele>95</ele>
        <time>2016-12-11T07:33:27.428Z</time>
      </trkpt>
      <trkpt lat="48.01432" lon="2.74181">
        <ele>95</ele>
        <time>2016-12-11T07:33:28.430Z</time>
      </trkpt>
      <trkpt lat="48.01432" lon="2.74181">
        <ele>95</ele>
        <time>2016-12-11T07:33:29.423Z</time>
      </trkpt>
      <trkpt lat="48.01433" lon="2.74177">
        <ele>95</ele>
        <time>2016-12-11T07:33:30.428Z</time>
      </trkpt>
      <trkpt lat="48.01433" lon="2.74177">
        <ele>95</ele>
        <time>2016-12-11T07:33:31.426Z</time>
      </trkpt>
      <trkpt lat="48.01434" lon="2.74173">
        <ele>94</ele>
        <time>2016-12-11T07:33:32.428Z</time>
      </trkpt>
      <trkpt lat="48.01434" lon="2.74173">
        <ele>94</ele>
        <time>2016-12-11T07:33:33.433Z</time>
      </trkpt>
      <trkpt lat="48.01433" lon="2.74172">
        <ele>94</ele>
        <time>2016-12-11T07:33:34.426Z</time>
      </trkpt>
      <trkpt lat="48.01433" lon="2.74172">
        <ele>94</ele>
        <time>2016-12-11T07:33:35.401Z</time>
      </trkpt>
      <trkpt lat="48.01423" lon="2.74161">
        <ele>94</ele>
        <time>2016-12-11T07:33:36.429Z</time>
      </trkpt>
      <trkpt lat="48.01423" lon="2.74161">
        <ele>94</ele>
        <time>2016-12-11T07:33:37.432Z</time>
      </trkpt>
      <trkpt lat="48.01421" lon="2.74158">
        <ele>94</ele>
        <time>2016-12-11T07:33:38.398Z</time>
      </trkpt>
      <trkpt lat="48.01421" lon="2.74158">
        <ele>94</ele>
        <time>2016-12-11T07:33:39.396Z</time>
      </trkpt>
      <trkpt lat="48.01419" lon="2.74156">
        <ele>94</ele>
        <time>2016-12-11T07:33:40.402Z</time>
      </trkpt>
      <trkpt lat="48.01419" lon="2.74156">
        <ele>94</ele>
        <time>2016-12-11T07:33:41.435Z</time>
      </trkpt>
      <trkpt lat="48.0142" lon="2.74152">
        <ele>94</ele>
        <time>2016-12-11T07:33:42.396Z</time>
      </trkpt>
      <trkpt lat="48.0142" lon="2.74152">
        <ele>94</ele>
        <time>2016-12-11T07:33:43.430Z</time>
      </trkpt>
      <trkpt lat="48.01423" lon="2.74149">
        <ele>93</ele>
        <time>2016-12-11T07:33:44.433Z</time>
      </trkpt>
      <trkpt lat="48.01423" lon="2.74149">
        <ele>93</ele>
        <time>2016-12-11T07:33:45.433Z</time>
      </trkpt>
      <trkpt lat="48.01426" lon="2.74148">
        <ele>93</ele>
        <time>2016-12-11T07:33:46.436Z</time>
      </trkpt>
      <trkpt lat="48.01427" lon="2.7415">
        <ele>93</ele>
        <time>2016-12-11T07:33:47.435Z</time>
      </trkpt>
      <trkpt lat="48.01428" lon="2.74152">
        <ele>93</ele>
        <time>2016-12-11T07:33:48.396Z</time>
      </trkpt>
      <trkpt lat="48.01428" lon="2.74152">
        <ele>93</ele>
        <time>2016-12-11T07:33:49.434Z</time>
      </trkpt>
      <trkpt lat="48.01431" lon="2.74156">
        <ele>93</ele>
        <time>2016-12-11T07:33:50.434Z</time>
      </trkpt>
      <trkpt lat="48.01431" lon="2.74156">
        <ele>93</ele>
        <time>2016-12-11T07:33:51.434Z</time>
      </trkpt>
      <trkpt lat="48.01435" lon="2.74157">
        <ele>93</ele>
        <time>2016-12-11T07:33:52.396Z</time>
      </trkpt>
      <trkpt lat="48.01435" lon="2.74157">
        <ele>93</ele>
        <time>2016-12-11T07:33:53.433Z</time>
      </trkpt>
      <trkpt lat="48.01437" lon="2.74156">
        <ele>93</ele>
        <time>2016-12-11T07:33:54.398Z</time>
      </trkpt>
      <trkpt lat="48.01437" lon="2.74156">
        <ele>93</ele>
        <time>2016-12-11T07:33:55.433Z</time>
      </trkpt>
      <trkpt lat="48.01439" lon="2.74157">
        <ele>93</ele>
        <time>2016-12-11T07:33:56.408Z</time>
      </trkpt>
      <trkpt lat="48.01441" lon="2.74157">
        <ele>92</ele>
        <time>2016-12-11T07:33:57.401Z</time>
      </trkpt>
      <trkpt lat="48.01441" lon="2.74157">
        <ele>92</ele>
        <time>2016-12-11T07:33:58.434Z</time>
      </trkpt>
      <trkpt lat="48.01444" lon="2.74155">
        <ele>93</ele>
        <time>2016-12-11T07:33:59.399Z</time>
      </trkpt>
      <trkpt lat="48.01445" lon="2.74154">
        <ele>92</ele>
        <time>2016-12-11T07:34:00.400Z</time>
      </trkpt>
      <trkpt lat="48.01445" lon="2.74154">
        <ele>92</ele>
        <time>2016-12-11T07:34:01.435Z</time>
      </trkpt>
      <trkpt lat="48.01448" lon="2.74153">
        <ele>92</ele>
        <time>2016-12-11T07:34:02.398Z</time>
      </trkpt>
      <trkpt lat="48.01448" lon="2.74153">
        <ele>92</ele>
        <time>2016-12-11T07:34:03.434Z</time>
      </trkpt>
      <trkpt lat="48.01449" lon="2.74155">
        <ele>92</ele>
        <time>2016-12-11T07:34:04.396Z</time>
      </trkpt>
      <trkpt lat="48.01448" lon="2.74156">
        <ele>92</ele>
        <time>2016-12-11T07:34:05.396Z</time>
      </trkpt>
      <trkpt lat="48.01448" lon="2.74156">
        <ele>92</ele>
        <time>2016-12-11T07:34:06.398Z</time>
      </trkpt>
      <trkpt lat="48.01448" lon="2.74156">
        <ele>92</ele>
        <time>2016-12-11T07:34:07.431Z</time>
      </trkpt>
      <trkpt lat="48.01447" lon="2.74158">
        <ele>91</ele>
        <time>2016-12-11T07:34:08.396Z</time>
      </trkpt>
      <trkpt lat="48.01447" lon="2.74158">
        <ele>91</ele>
        <time>2016-12-11T07:34:09.396Z</time>
      </trkpt>
      <trkpt lat="48.01447" lon="2.74163">
        <ele>91</ele>
        <time>2016-12-11T07:34:10.397Z</time>
      </trkpt>
      <trkpt lat="48.01447" lon="2.74163">
        <ele>91</ele>
        <time>2016-12-11T07:34:11.431Z</time>
      </trkpt>
      <trkpt lat="48.01449" lon="2.74167">
        <ele>91</ele>
        <time>2016-12-11T07:34:12.397Z</time>
      </trkpt>
      <trkpt lat="48.01449" lon="2.74167">
        <ele>91</ele>
        <time>2016-12-11T07:34:13.435Z</time>
      </trkpt>
      <trkpt lat="48.0145" lon="2.74168">
        <ele>91</ele>
        <time>2016-12-11T07:34:14.396Z</time>
      </trkpt>
      <trkpt lat="48.0145" lon="2.74168">
        <ele>91</ele>
        <time>2016-12-11T07:34:15.426Z</time>
      </trkpt>
      <trkpt lat="48.0145" lon="2.74168">
        <ele>91</ele>
        <time>2016-12-11T07:34:16.423Z</time>
      </trkpt>
      <trkpt lat="48.01459" lon="2.74172">
        <ele>92</ele>
        <time>2016-12-11T07:34:17.398Z</time>
      </trkpt>
      <trkpt lat="48.01459" lon="2.74171">
        <ele>92</ele>
        <time>2016-12-11T07:34:18.400Z</time>
      </trkpt>
      <trkpt lat="48.01459" lon="2.74171">
        <ele>92</ele>
        <time>2016-12-11T07:34:19.399Z</time>
      </trkpt>
      <trkpt lat="48.01461" lon="2.74169">
        <ele>92</ele>
        <time>2016-12-11T07:34:20.428Z</time>
      </trkpt>
      <trkpt lat="48.01461" lon="2.74167">
        <ele>92</ele>
        <time>2016-12-11T07:34:21.428Z</time>
      </trkpt>
      <trkpt lat="48.01461" lon="2.74167">
        <ele>92</ele>
        <time>2016-12-11T07:34:22.424Z</time>
      </trkpt>
      <trkpt lat="48.01461" lon="2.74162">
        <ele>92</ele>
        <time>2016-12-11T07:34:23.426Z</time>
      </trkpt>
      <trkpt lat="48.01461" lon="2.74159">
        <ele>92</ele>
        <time>2016-12-11T07:34:24.427Z</time>
      </trkpt>
      <trkpt lat="48.01461" lon="2.74159">
        <ele>92</ele>
        <time>2016-12-11T07:34:25.423Z</time>
      </trkpt>
      <trkpt lat="48.01463" lon="2.74156">
        <ele>92</ele>
        <time>2016-12-11T07:34:26.401Z</time>
      </trkpt>
      <trkpt lat="48.01463" lon="2.74156">
        <ele>92</ele>
        <time>2016-12-11T07:34:27.431Z</time>
      </trkpt>
      <trkpt lat="48.01466" lon="2.74153">
        <ele>92</ele>
        <time>2016-12-11T07:34:28.426Z</time>
      </trkpt>
      <trkpt lat="48.01468" lon="2.74151">
        <ele>92</ele>
        <time>2016-12-11T07:34:29.427Z</time>
      </trkpt>
      <trkpt lat="48.01469" lon="2.74148">
        <ele>92</ele>
        <time>2016-12-11T07:34:30.427Z</time>
      </trkpt>
      <trkpt lat="48.01469" lon="2.74148">
        <ele>92</ele>
        <time>2016-12-11T07:34:31.426Z</time>
      </trkpt>
      <trkpt lat="48.01472" lon="2.74143">
        <ele>92</ele>
        <time>2016-12-11T07:34:32.427Z</time>
      </trkpt>
      <trkpt lat="48.01472" lon="2.74143">
        <ele>92</ele>
        <time>2016-12-11T07:34:33.423Z</time>
      </trkpt>
      <trkpt lat="48.01475" lon="2.7414">
        <ele>92</ele>
        <time>2016-12-11T07:34:34.426Z</time>
      </trkpt>
      <trkpt lat="48.01475" lon="2.7414">
        <ele>92</ele>
        <time>2016-12-11T07:34:35.423Z</time>
      </trkpt>
      <trkpt lat="48.01479" lon="2.74136">
        <ele>92</ele>
        <time>2016-12-11T07:34:36.427Z</time>
      </trkpt>
      <trkpt lat="48.01479" lon="2.74136">
        <ele>92</ele>
        <time>2016-12-11T07:34:37.416Z</time>
      </trkpt>
      <trkpt lat="48.01481" lon="2.7413">
        <ele>92</ele>
        <time>2016-12-11T07:34:38.428Z</time>
      </trkpt>
      <trkpt lat="48.01481" lon="2.7413">
        <ele>92</ele>
        <time>2016-12-11T07:34:39.423Z</time>
      </trkpt>
      <trkpt lat="48.01485" lon="2.74127">
        <ele>92</ele>
        <time>2016-12-11T07:34:40.424Z</time>
      </trkpt>
      <trkpt lat="48.01485" lon="2.74127">
        <ele>92</ele>
        <time>2016-12-11T07:34:41.426Z</time>
      </trkpt>
      <trkpt lat="48.01488" lon="2.74127">
        <ele>92</ele>
        <time>2016-12-11T07:34:42.426Z</time>
      </trkpt>
      <trkpt lat="48.01488" lon="2.74127">
        <ele>92</ele>
        <time>2016-12-11T07:34:43.424Z</time>
      </trkpt>
      <trkpt lat="48.01491" lon="2.74127">
        <ele>91</ele>
        <time>2016-12-11T07:34:44.427Z</time>
      </trkpt>
      <trkpt lat="48.01491" lon="2.74127">
        <ele>91</ele>
        <time>2016-12-11T07:34:45.421Z</time>
      </trkpt>
      <trkpt lat="48.01495" lon="2.74124">
        <ele>91</ele>
        <time>2016-12-11T07:34:46.426Z</time>
      </trkpt>
      <trkpt lat="48.01496" lon="2.74121">
        <ele>90</ele>
        <time>2016-12-11T07:34:47.427Z</time>
      </trkpt>
      <trkpt lat="48.01498" lon="2.74118">
        <ele>91</ele>
        <time>2016-12-11T07:34:48.427Z</time>
      </trkpt>
      <trkpt lat="48.01498" lon="2.74118">
        <ele>91</ele>
        <time>2016-12-11T07:34:49.423Z</time>
      </trkpt>
      <trkpt lat="48.015" lon="2.74115">
        <ele>91</ele>
        <time>2016-12-11T07:34:50.426Z</time>
      </trkpt>
      <trkpt lat="48.015" lon="2.74115">
        <ele>91</ele>
        <time>2016-12-11T07:34:51.426Z</time>
      </trkpt>
      <trkpt lat="48.01502" lon="2.74119">
        <ele>91</ele>
        <time>2016-12-11T07:34:52.426Z</time>
      </trkpt>
      <trkpt lat="48.01502" lon="2.74119">
        <ele>91</ele>
        <time>2016-12-11T07:34:53.423Z</time>
      </trkpt>
      <trkpt lat="48.01503" lon="2.74123">
        <ele>92</ele>
        <time>2016-12-11T07:34:54.427Z</time>
      </trkpt>
      <trkpt lat="48.01503" lon="2.74123">
        <ele>92</ele>
        <time>2016-12-11T07:34:55.423Z</time>
      </trkpt>
      <trkpt lat="48.01503" lon="2.74129">
        <ele>92</ele>
        <time>2016-12-11T07:34:56.426Z</time>
      </trkpt>
      <trkpt lat="48.01503" lon="2.74129">
        <ele>92</ele>
        <time>2016-12-11T07:34:57.421Z</time>
      </trkpt>
      <trkpt lat="48.015" lon="2.74137">
        <ele>92</ele>
        <time>2016-12-11T07:34:58.426Z</time>
      </trkpt>
      <trkpt lat="48.015" lon="2.74137">
        <ele>92</ele>
        <time>2016-12-11T07:34:59.424Z</time>
      </trkpt>
      <trkpt lat="48.01501" lon="2.74141">
        <ele>93</ele>
        <time>2016-12-11T07:35:00.427Z</time>
      </trkpt>
      <trkpt lat="48.01503" lon="2.74142">
        <ele>93</ele>
        <time>2016-12-11T07:35:01.426Z</time>
      </trkpt>
      <trkpt lat="48.01503" lon="2.74142">
        <ele>93</ele>
        <time>2016-12-11T07:35:02.432Z</time>
      </trkpt>
      <trkpt lat="48.01505" lon="2.74139">
        <ele>93</ele>
        <time>2016-12-11T07:35:03.398Z</time>
      </trkpt>
      <trkpt lat="48.01505" lon="2.74139">
        <ele>93</ele>
        <time>2016-12-11T07:35:04.428Z</time>
      </trkpt>
      <trkpt lat="48.01509" lon="2.74134">
        <ele>93</ele>
        <time>2016-12-11T07:35:05.427Z</time>
      </trkpt>
      <trkpt lat="48.01511" lon="2.74131">
        <ele>93</ele>
        <time>2016-12-11T07:35:06.428Z</time>
      </trkpt>
      <trkpt lat="48.01511" lon="2.74131">
        <ele>93</ele>
        <time>2016-12-11T07:35:07.423Z</time>
      </trkpt>
      <trkpt lat="48.01514" lon="2.74126">
        <ele>93</ele>
        <time>2016-12-11T07:35:08.427Z</time>
      </trkpt>
      <trkpt lat="48.01514" lon="2.74126">
        <ele>93</ele>
        <time>2016-12-11T07:35:09.427Z</time>
      </trkpt>
      <trkpt lat="48.01518" lon="2.74126">
        <ele>93</ele>
        <time>2016-12-11T07:35:10.426Z</time>
      </trkpt>
      <trkpt lat="48.01518" lon="2.74126">
        <ele>93</ele>
        <time>2016-12-11T07:35:11.426Z</time>
      </trkpt>
      <trkpt lat="48.01522" lon="2.74127">
        <ele>94</ele>
        <time>2016-12-11T07:35:12.428Z</time>
      </trkpt>
      <trkpt lat="48.01522" lon="2.74127">
        <ele>94</ele>
        <time>2016-12-11T07:35:13.421Z</time>
      </trkpt>
      <trkpt lat="48.01526" lon="2.74126">
        <ele>94</ele>
        <time>2016-12-11T07:35:14.426Z</time>
      </trkpt>
      <trkpt lat="48.01526" lon="2.74126">
        <ele>94</ele>
        <time>2016-12-11T07:35:15.424Z</time>
      </trkpt>
      <trkpt lat="48.0153" lon="2.74125">
        <ele>94</ele>
        <time>2016-12-11T07:35:16.426Z</time>
      </trkpt>
      <trkpt lat="48.0153" lon="2.74125">
        <ele>94</ele>
        <time>2016-12-11T07:35:17.421Z</time>
      </trkpt>
      <trkpt lat="48.01534" lon="2.74127">
        <ele>94</ele>
        <time>2016-12-11T07:35:18.426Z</time>
      </trkpt>
      <trkpt lat="48.01536" lon="2.74128">
        <ele>94</ele>
        <time>2016-12-11T07:35:19.429Z</time>
      </trkpt>
      <trkpt lat="48.01536" lon="2.74128">
        <ele>94</ele>
        <time>2016-12-11T07:35:20.424Z</time>
      </trkpt>
      <trkpt lat="48.01539" lon="2.7413">
        <ele>94</ele>
        <time>2016-12-11T07:35:21.426Z</time>
      </trkpt>
      <trkpt lat="48.01539" lon="2.7413">
        <ele>94</ele>
        <time>2016-12-11T07:35:22.421Z</time>
      </trkpt>
      <trkpt lat="48.01542" lon="2.74132">
        <ele>94</ele>
        <time>2016-12-11T07:35:23.426Z</time>
      </trkpt>
      <trkpt lat="48.01545" lon="2.74132">
        <ele>94</ele>
        <time>2016-12-11T07:35:24.399Z</time>
      </trkpt>
      <trkpt lat="48.01545" lon="2.74132">
        <ele>94</ele>
        <time>2016-12-11T07:35:25.430Z</time>
      </trkpt>
      <trkpt lat="48.01551" lon="2.7413">
        <ele>94</ele>
        <time>2016-12-11T07:35:26.427Z</time>
      </trkpt>
      <trkpt lat="48.01551" lon="2.7413">
        <ele>94</ele>
        <time>2016-12-11T07:35:27.426Z</time>
      </trkpt>
      <trkpt lat="48.01556" lon="2.74128">
        <ele>95</ele>
        <time>2016-12-11T07:35:28.427Z</time>
      </trkpt>
      <trkpt lat="48.01556" lon="2.74128">
        <ele>95</ele>
        <time>2016-12-11T07:35:29.432Z</time>
      </trkpt>
      <trkpt lat="48.01562" lon="2.74125">
        <ele>95</ele>
        <time>2016-12-11T07:35:30.429Z</time>
      </trkpt>
      <trkpt lat="48.01562" lon="2.74125">
        <ele>95</ele>
        <time>2016-12-11T07:35:31.426Z</time>
      </trkpt>
      <trkpt lat="48.01568" lon="2.7412">
        <ele>95</ele>
        <time>2016-12-11T07:35:32.426Z</time>
      </trkpt>
      <trkpt lat="48.01568" lon="2.7412">
        <ele>95</ele>
        <time>2016-12-11T07:35:33.423Z</time>
      </trkpt>
      <trkpt lat="48.01572" lon="2.74117">
        <ele>96</ele>
        <time>2016-12-11T07:35:34.427Z</time>
      </trkpt>
      <trkpt lat="48.01575" lon="2.74115">
        <ele>96</ele>
        <time>2016-12-11T07:35:35.425Z</time>
      </trkpt>
      <trkpt lat="48.01577" lon="2.74114">
        <ele>96</ele>
        <time>2016-12-11T07:35:36.427Z</time>
      </trkpt>
      <trkpt lat="48.01577" lon="2.74114">
        <ele>96</ele>
        <time>2016-12-11T07:35:37.424Z</time>
      </trkpt>
      <trkpt lat="48.01582" lon="2.74111">
        <ele>97</ele>
        <time>2016-12-11T07:35:38.427Z</time>
      </trkpt>
      <trkpt lat="48.01582" lon="2.74111">
        <ele>97</ele>
        <time>2016-12-11T07:35:39.429Z</time>
      </trkpt>
      <trkpt lat="48.01588" lon="2.74108">
        <ele>96</ele>
        <time>2016-12-11T07:35:40.425Z</time>
      </trkpt>
      <trkpt lat="48.0159" lon="2.74107">
        <ele>97</ele>
        <time>2016-12-11T07:35:41.433Z</time>
      </trkpt>
      <trkpt lat="48.01593" lon="2.74105">
        <ele>97</ele>
        <time>2016-12-11T07:35:42.398Z</time>
      </trkpt>
      <trkpt lat="48.01593" lon="2.74105">
        <ele>97</ele>
        <time>2016-12-11T07:35:43.427Z</time>
      </trkpt>
      <trkpt lat="48.01599" lon="2.74101">
        <ele>97</ele>
        <time>2016-12-11T07:35:44.426Z</time>
      </trkpt>
      <trkpt lat="48.01599" lon="2.74101">
        <ele>97</ele>
        <time>2016-12-11T07:35:45.423Z</time>
      </trkpt>
      <trkpt lat="48.01605" lon="2.74098">
        <ele>97</ele>
        <time>2016-12-11T07:35:46.427Z</time>
      </trkpt>
      <trkpt lat="48.01605" lon="2.74098">
        <ele>97</ele>
        <time>2016-12-11T07:35:47.424Z</time>
      </trkpt>
      <trkpt lat="48.01612" lon="2.74098">
        <ele>96</ele>
        <time>2016-12-11T07:35:48.428Z</time>
      </trkpt>
      <trkpt lat="48.01612" lon="2.74098">
        <ele>96</ele>
        <time>2016-12-11T07:35:49.422Z</time>
      </trkpt>
      <trkpt lat="48.01619" lon="2.74101">
        <ele>95</ele>
        <time>2016-12-11T07:35:50.427Z</time>
      </trkpt>
      <trkpt lat="48.01619" lon="2.74101">
        <ele>95</ele>
        <time>2016-12-11T07:35:51.426Z</time>
      </trkpt>
      <trkpt lat="48.01627" lon="2.74103">
        <ele>94</ele>
        <time>2016-12-11T07:35:52.433Z</time>
      </trkpt>
      <trkpt lat="48.01627" lon="2.74103">
        <ele>94</ele>
        <time>2016-12-11T07:35:53.424Z</time>
      </trkpt>
      <trkpt lat="48.01635" lon="2.74107">
        <ele>93</ele>
        <time>2016-12-11T07:35:54.427Z</time>
      </trkpt>
      <trkpt lat="48.01635" lon="2.74107">
        <ele>93</ele>
        <time>2016-12-11T07:35:55.428Z</time>
      </trkpt>
      <trkpt lat="48.0164" lon="2.74115">
        <ele>92</ele>
        <time>2016-12-11T07:35:56.427Z</time>
      </trkpt>
      <trkpt lat="48.0164" lon="2.74115">
        <ele>92</ele>
        <time>2016-12-11T07:35:57.421Z</time>
      </trkpt>
      <trkpt lat="48.01646" lon="2.74121">
        <ele>91</ele>
        <time>2016-12-11T07:35:58.425Z</time>
      </trkpt>
      <trkpt lat="48.01646" lon="2.74121">
        <ele>91</ele>
        <time>2016-12-11T07:35:59.424Z</time>
      </trkpt>
      <trkpt lat="48.01652" lon="2.74127">
        <ele>90</ele>
        <time>2016-12-11T07:36:00.428Z</time>
      </trkpt>
      <trkpt lat="48.01652" lon="2.74127">
        <ele>90</ele>
        <time>2016-12-11T07:36:01.426Z</time>
      </trkpt>
      <trkpt lat="48.01658" lon="2.7413">
        <ele>90</ele>
        <time>2016-12-11T07:36:02.427Z</time>
      </trkpt>
      <trkpt lat="48.01658" lon="2.7413">
        <ele>90</ele>
        <time>2016-12-11T07:36:03.424Z</time>
      </trkpt>
      <trkpt lat="48.01665" lon="2.74134">
        <ele>89</ele>
        <time>2016-12-11T07:36:04.427Z</time>
      </trkpt>
      <trkpt lat="48.01665" lon="2.74134">
        <ele>89</ele>
        <time>2016-12-11T07:36:05.424Z</time>
      </trkpt>
      <trkpt lat="48.0167" lon="2.74136">
        <ele>89</ele>
        <time>2016-12-11T07:36:06.428Z</time>
      </trkpt>
      <trkpt lat="48.0167" lon="2.74136">
        <ele>89</ele>
        <time>2016-12-11T07:36:07.424Z</time>
      </trkpt>
      <trkpt lat="48.01676" lon="2.74136">
        <ele>88</ele>
        <time>2016-12-11T07:36:08.427Z</time>
      </trkpt>
      <trkpt lat="48.01679" lon="2.74137">
        <ele>88</ele>
        <time>2016-12-11T07:36:09.427Z</time>
      </trkpt>
      <trkpt lat="48.01679" lon="2.74137">
        <ele>88</ele>
        <time>2016-12-11T07:36:10.424Z</time>
      </trkpt>
      <trkpt lat="48.01687" lon="2.74139">
        <ele>89</ele>
        <time>2016-12-11T07:36:11.428Z</time>
      </trkpt>
      <trkpt lat="48.01687" lon="2.74139">
        <ele>89</ele>
        <time>2016-12-11T07:36:12.425Z</time>
      </trkpt>
      <trkpt lat="48.01692" lon="2.7414">
        <ele>89</ele>
        <time>2016-12-11T07:36:13.426Z</time>
      </trkpt>
      <trkpt lat="48.01692" lon="2.7414">
        <ele>89</ele>
        <time>2016-12-11T07:36:14.421Z</time>
      </trkpt>
      <trkpt lat="48.01698" lon="2.74141">
        <ele>89</ele>
        <time>2016-12-11T07:36:15.427Z</time>
      </trkpt>
      <trkpt lat="48.01698" lon="2.74141">
        <ele>89</ele>
        <time>2016-12-11T07:36:16.403Z</time>
      </trkpt>
      <trkpt lat="48.01704" lon="2.74145">
        <ele>89</ele>
        <time>2016-12-11T07:36:17.433Z</time>
      </trkpt>
      <trkpt lat="48.01706" lon="2.74149">
        <ele>89</ele>
        <time>2016-12-11T07:36:18.427Z</time>
      </trkpt>
      <trkpt lat="48.01706" lon="2.74149">
        <ele>89</ele>
        <time>2016-12-11T07:36:19.422Z</time>
      </trkpt>
      <trkpt lat="48.01711" lon="2.74155">
        <ele>88</ele>
        <time>2016-12-11T07:36:20.427Z</time>
      </trkpt>
      <trkpt lat="48.01711" lon="2.74155">
        <ele>88</ele>
        <time>2016-12-11T07:36:21.431Z</time>
      </trkpt>
      <trkpt lat="48.01715" lon="2.74161">
        <ele>87</ele>
        <time>2016-12-11T07:36:22.427Z</time>
      </trkpt>
      <trkpt lat="48.01716" lon="2.74163">
        <ele>87</ele>
        <time>2016-12-11T07:36:23.427Z</time>
      </trkpt>
      <trkpt lat="48.01719" lon="2.74164">
        <ele>88</ele>
        <time>2016-12-11T07:36:24.430Z</time>
      </trkpt>
      <trkpt lat="48.01719" lon="2.74164">
        <ele>88</ele>
        <time>2016-12-11T07:36:25.424Z</time>
      </trkpt>
      <trkpt lat="48.01724" lon="2.74168">
        <ele>88</ele>
        <time>2016-12-11T07:36:26.427Z</time>
      </trkpt>
      <trkpt lat="48.01724" lon="2.74168">
        <ele>88</ele>
        <time>2016-12-11T07:36:27.424Z</time>
      </trkpt>
      <trkpt lat="48.01728" lon="2.7417">
        <ele>86</ele>
        <time>2016-12-11T07:36:28.426Z</time>
      </trkpt>
      <trkpt lat="48.01728" lon="2.7417">
        <ele>86</ele>
        <time>2016-12-11T07:36:29.424Z</time>
      </trkpt>
      <trkpt lat="48.01732" lon="2.74173">
        <ele>85</ele>
        <time>2016-12-11T07:36:30.425Z</time>
      </trkpt>
      <trkpt lat="48.01734" lon="2.74176">
        <ele>85</ele>
        <time>2016-12-11T07:36:31.428Z</time>
      </trkpt>
      <trkpt lat="48.01734" lon="2.74176">
        <ele>85</ele>
        <time>2016-12-11T07:36:32.422Z</time>
      </trkpt>
      <trkpt lat="48.01737" lon="2.74184">
        <ele>84</ele>
        <time>2016-12-11T07:36:33.425Z</time>
      </trkpt>
      <trkpt lat="48.01737" lon="2.74184">
        <ele>84</ele>
        <time>2016-12-11T07:36:34.424Z</time>
      </trkpt>
      <trkpt lat="48.01739" lon="2.7419">
        <ele>85</ele>
        <time>2016-12-11T07:36:35.427Z</time>
      </trkpt>
      <trkpt lat="48.01741" lon="2.74192">
        <ele>84</ele>
        <time>2016-12-11T07:36:36.428Z</time>
      </trkpt>
      <trkpt lat="48.01741" lon="2.74192">
        <ele>84</ele>
        <time>2016-12-11T07:36:37.435Z</time>
      </trkpt>
      <trkpt lat="48.01744" lon="2.74197">
        <ele>84</ele>
        <time>2016-12-11T07:36:38.428Z</time>
      </trkpt>
      <trkpt lat="48.01747" lon="2.74198">
        <ele>84</ele>
        <time>2016-12-11T07:36:39.427Z</time>
      </trkpt>
      <trkpt lat="48.01747" lon="2.74198">
        <ele>84</ele>
        <time>2016-12-11T07:36:40.431Z</time>
      </trkpt>
      <trkpt lat="48.01754" lon="2.74199">
        <ele>84</ele>
        <time>2016-12-11T07:36:41.430Z</time>
      </trkpt>
      <trkpt lat="48.01754" lon="2.74199">
        <ele>84</ele>
        <time>2016-12-11T07:36:42.434Z</time>
      </trkpt>
      <trkpt lat="48.01762" lon="2.74199">
        <ele>84</ele>
        <time>2016-12-11T07:36:43.424Z</time>
      </trkpt>
      <trkpt lat="48.01762" lon="2.74199">
        <ele>84</ele>
        <time>2016-12-11T07:36:44.422Z</time>
      </trkpt>
      <trkpt lat="48.01769" lon="2.74196">
        <ele>85</ele>
        <time>2016-12-11T07:36:45.427Z</time>
      </trkpt>
      <trkpt lat="48.01769" lon="2.74196">
        <ele>85</ele>
        <time>2016-12-11T07:36:46.424Z</time>
      </trkpt>
      <trkpt lat="48.01773" lon="2.74191">
        <ele>86</ele>
        <time>2016-12-11T07:36:47.427Z</time>
      </trkpt>
      <trkpt lat="48.01774" lon="2.74187">
        <ele>86</ele>
        <time>2016-12-11T07:36:48.426Z</time>
      </trkpt>
      <trkpt lat="48.01774" lon="2.74187">
        <ele>86</ele>
        <time>2016-12-11T07:36:49.424Z</time>
      </trkpt>
      <trkpt lat="48.01777" lon="2.74182">
        <ele>86</ele>
        <time>2016-12-11T07:36:50.431Z</time>
      </trkpt>
      <trkpt lat="48.01778" lon="2.7418">
        <ele>86</ele>
        <time>2016-12-11T07:36:51.429Z</time>
      </trkpt>
      <trkpt lat="48.01778" lon="2.7418">
        <ele>86</ele>
        <time>2016-12-11T07:36:52.426Z</time>
      </trkpt>
      <trkpt lat="48.01782" lon="2.74177">
        <ele>87</ele>
        <time>2016-12-11T07:36:53.427Z</time>
      </trkpt>
      <trkpt lat="48.01784" lon="2.74177">
        <ele>88</ele>
        <time>2016-12-11T07:36:54.425Z</time>
      </trkpt>
      <trkpt lat="48.01784" lon="2.74177">
        <ele>88</ele>
        <time>2016-12-11T07:36:55.422Z</time>
      </trkpt>
      <trkpt lat="48.0179" lon="2.74178">
        <ele>88</ele>
        <time>2016-12-11T07:36:56.427Z</time>
      </trkpt>
      <trkpt lat="48.0179" lon="2.74178">
        <ele>88</ele>
        <time>2016-12-11T07:36:57.424Z</time>
      </trkpt>
      <trkpt lat="48.01795" lon="2.74179">
        <ele>90</ele>
        <time>2016-12-11T07:36:58.426Z</time>
      </trkpt>
      <trkpt lat="48.01798" lon="2.74179">
        <ele>90</ele>
        <time>2016-12-11T07:36:59.427Z</time>
      </trkpt>
      <trkpt lat="48.018" lon="2.74179">
        <ele>90</ele>
        <time>2016-12-11T07:37:00.428Z</time>
      </trkpt>
      <trkpt lat="48.018" lon="2.74179">
        <ele>90</ele>
        <time>2016-12-11T07:37:01.426Z</time>
      </trkpt>
      <trkpt lat="48.01805" lon="2.74183">
        <ele>90</ele>
        <time>2016-12-11T07:37:02.427Z</time>
      </trkpt>
      <trkpt lat="48.01805" lon="2.74183">
        <ele>90</ele>
        <time>2016-12-11T07:37:03.397Z</time>
      </trkpt>
      <trkpt lat="48.01808" lon="2.7419">
        <ele>91</ele>
        <time>2016-12-11T07:37:04.427Z</time>
      </trkpt>
      <trkpt lat="48.0181" lon="2.74193">
        <ele>91</ele>
        <time>2016-12-11T07:37:05.426Z</time>
      </trkpt>
      <trkpt lat="48.01813" lon="2.74196">
        <ele>91</ele>
        <time>2016-12-11T07:37:06.429Z</time>
      </trkpt>
      <trkpt lat="48.01813" lon="2.74196">
        <ele>91</ele>
        <time>2016-12-11T07:37:07.424Z</time>
      </trkpt>
      <trkpt lat="48.0182" lon="2.74197">
        <ele>90</ele>
        <time>2016-12-11T07:37:08.425Z</time>
      </trkpt>
      <trkpt lat="48.01824" lon="2.74196">
        <ele>90</ele>
        <time>2016-12-11T07:37:09.427Z</time>
      </trkpt>
      <trkpt lat="48.01824" lon="2.74196">
        <ele>90</ele>
        <time>2016-12-11T07:37:10.426Z</time>
      </trkpt>
      <trkpt lat="48.01831" lon="2.74193">
        <ele>90</ele>
        <time>2016-12-11T07:37:11.431Z</time>
      </trkpt>
      <trkpt lat="48.01833" lon="2.74192">
        <ele>90</ele>
        <time>2016-12-11T07:37:12.429Z</time>
      </trkpt>
      <trkpt lat="48.01836" lon="2.74192">
        <ele>90</ele>
        <time>2016-12-11T07:37:13.428Z</time>
      </trkpt>
      <trkpt lat="48.01836" lon="2.74192">
        <ele>90</ele>
        <time>2016-12-11T07:37:14.424Z</time>
      </trkpt>
      <trkpt lat="48.01839" lon="2.74192">
        <ele>90</ele>
        <time>2016-12-11T07:37:15.427Z</time>
      </trkpt>
      <trkpt lat="48.01839" lon="2.74192">
        <ele>90</ele>
        <time>2016-12-11T07:37:16.425Z</time>
      </trkpt>
      <trkpt lat="48.01846" lon="2.74195">
        <ele>90</ele>
        <time>2016-12-11T07:37:17.428Z</time>
      </trkpt>
      <trkpt lat="48.01846" lon="2.74195">
        <ele>90</ele>
        <time>2016-12-11T07:37:18.427Z</time>
      </trkpt>
      <trkpt lat="48.01855" lon="2.74193">
        <ele>91</ele>
        <time>2016-12-11T07:37:19.429Z</time>
      </trkpt>
      <trkpt lat="48.01855" lon="2.74193">
        <ele>91</ele>
        <time>2016-12-11T07:37:20.429Z</time>
      </trkpt>
      <trkpt lat="48.01863" lon="2.74191">
        <ele>91</ele>
        <time>2016-12-11T07:37:21.432Z</time>
      </trkpt>
      <trkpt lat="48.01863" lon="2.74191">
        <ele>91</ele>
        <time>2016-12-11T07:37:22.398Z</time>
      </trkpt>
      <trkpt lat="48.0187" lon="2.74193">
        <ele>92</ele>
        <time>2016-12-11T07:37:23.428Z</time>
      </trkpt>
      <trkpt lat="48.01874" lon="2.74194">
        <ele>92</ele>
        <time>2016-12-11T07:37:24.430Z</time>
      </trkpt>
      <trkpt lat="48.01874" lon="2.74194">
        <ele>92</ele>
        <time>2016-12-11T07:37:25.422Z</time>
      </trkpt>
      <trkpt lat="48.0188" lon="2.74194">
        <ele>91</ele>
        <time>2016-12-11T07:37:26.425Z</time>
      </trkpt>
      <trkpt lat="48.0188" lon="2.74194">
        <ele>91</ele>
        <time>2016-12-11T07:37:27.425Z</time>
      </trkpt>
      <trkpt lat="48.01886" lon="2.74196">
        <ele>91</ele>
        <time>2016-12-11T07:37:28.427Z</time>
      </trkpt>
      <trkpt lat="48.01889" lon="2.74197">
        <ele>91</ele>
        <time>2016-12-11T07:37:29.428Z</time>
      </trkpt>
      <trkpt lat="48.01889" lon="2.74197">
        <ele>91</ele>
        <time>2016-12-11T07:37:30.423Z</time>
      </trkpt>
      <trkpt lat="48.01896" lon="2.74199">
        <ele>91</ele>
        <time>2016-12-11T07:37:31.429Z</time>
      </trkpt>
      <trkpt lat="48.019" lon="2.742">
        <ele>90</ele>
        <time>2016-12-11T07:37:32.427Z</time>
      </trkpt>
      <trkpt lat="48.019" lon="2.742">
        <ele>90</ele>
        <time>2016-12-11T07:37:33.422Z</time>
      </trkpt>
      <trkpt lat="48.01906" lon="2.74201">
        <ele>90</ele>
        <time>2016-12-11T07:37:34.427Z</time>
      </trkpt>
      <trkpt lat="48.01906" lon="2.74201">
        <ele>90</ele>
        <time>2016-12-11T07:37:35.424Z</time>
      </trkpt>
      <trkpt lat="48.01914" lon="2.74205">
        <ele>90</ele>
        <time>2016-12-11T07:37:36.426Z</time>
      </trkpt>
      <trkpt lat="48.01914" lon="2.74205">
        <ele>90</ele>
        <time>2016-12-11T07:37:37.425Z</time>
      </trkpt>
      <trkpt lat="48.01922" lon="2.74208">
        <ele>91</ele>
        <time>2016-12-11T07:37:38.428Z</time>
      </trkpt>
      <trkpt lat="48.01922" lon="2.74208">
        <ele>91</ele>
        <time>2016-12-11T07:37:39.424Z</time>
      </trkpt>
      <trkpt lat="48.01929" lon="2.74211">
        <ele>91</ele>
        <time>2016-12-11T07:37:40.427Z</time>
      </trkpt>
      <trkpt lat="48.01929" lon="2.74211">
        <ele>91</ele>
        <time>2016-12-11T07:37:41.431Z</time>
      </trkpt>
      <trkpt lat="48.01936" lon="2.74213">
        <ele>91</ele>
        <time>2016-12-11T07:37:42.426Z</time>
      </trkpt>
      <trkpt lat="48.01936" lon="2.74213">
        <ele>91</ele>
        <time>2016-12-11T07:37:43.403Z</time>
      </trkpt>
      <trkpt lat="48.01944" lon="2.74211">
        <ele>91</ele>
        <time>2016-12-11T07:37:44.433Z</time>
      </trkpt>
      <trkpt lat="48.01944" lon="2.74211">
        <ele>91</ele>
        <time>2016-12-11T07:37:45.425Z</time>
      </trkpt>
      <trkpt lat="48.01952" lon="2.74205">
        <ele>92</ele>
        <time>2016-12-11T07:37:46.429Z</time>
      </trkpt>
      <trkpt lat="48.01952" lon="2.74205">
        <ele>92</ele>
        <time>2016-12-11T07:37:47.424Z</time>
      </trkpt>
      <trkpt lat="48.01959" lon="2.74203">
        <ele>92</ele>
        <time>2016-12-11T07:37:48.433Z</time>
      </trkpt>
      <trkpt lat="48.01959" lon="2.74203">
        <ele>92</ele>
        <time>2016-12-11T07:37:49.425Z</time>
      </trkpt>
      <trkpt lat="48.01967" lon="2.742">
        <ele>94</ele>
        <time>2016-12-11T07:37:50.428Z</time>
      </trkpt>
      <trkpt lat="48.01967" lon="2.742">
        <ele>94</ele>
        <time>2016-12-11T07:37:51.436Z</time>
      </trkpt>
      <trkpt lat="48.01973" lon="2.74202">
        <ele>94</ele>
        <time>2016-12-11T07:37:52.401Z</time>
      </trkpt>
      <trkpt lat="48.01973" lon="2.74202">
        <ele>94</ele>
        <time>2016-12-11T07:37:53.431Z</time>
      </trkpt>
      <trkpt lat="48.01979" lon="2.74202">
        <ele>94</ele>
        <time>2016-12-11T07:37:54.426Z</time>
      </trkpt>
      <trkpt lat="48.01979" lon="2.74202">
        <ele>94</ele>
        <time>2016-12-11T07:37:55.422Z</time>
      </trkpt>
      <trkpt lat="48.01986" lon="2.74204">
        <ele>93</ele>
        <time>2016-12-11T07:37:56.429Z</time>
      </trkpt>
      <trkpt lat="48.01986" lon="2.74204">
        <ele>93</ele>
        <time>2016-12-11T07:37:57.424Z</time>
      </trkpt>
      <trkpt lat="48.01993" lon="2.74205">
        <ele>92</ele>
        <time>2016-12-11T07:37:58.426Z</time>
      </trkpt>
      <trkpt lat="48.01997" lon="2.74206">
        <ele>92</ele>
        <time>2016-12-11T07:37:59.427Z</time>
      </trkpt>
      <trkpt lat="48.02" lon="2.74207">
        <ele>92</ele>
        <time>2016-12-11T07:38:00.425Z</time>
      </trkpt>
      <trkpt lat="48.02" lon="2.74207">
        <ele>92</ele>
        <time>2016-12-11T07:38:01.426Z</time>
      </trkpt>
      <trkpt lat="48.02009" lon="2.74212">
        <ele>92</ele>
        <time>2016-12-11T07:38:02.428Z</time>
      </trkpt>
      <trkpt lat="48.02013" lon="2.74214">
        <ele>93</ele>
        <time>2016-12-11T07:38:03.426Z</time>
      </trkpt>
      <trkpt lat="48.02013" lon="2.74214">
        <ele>93</ele>
        <time>2016-12-11T07:38:04.427Z</time>
      </trkpt>
      <trkpt lat="48.02021" lon="2.74217">
        <ele>93</ele>
        <time>2016-12-11T07:38:05.427Z</time>
      </trkpt>
      <trkpt lat="48.02024" lon="2.74217">
        <ele>92</ele>
        <time>2016-12-11T07:38:06.396Z</time>
      </trkpt>
      <trkpt lat="48.02024" lon="2.74217">
        <ele>92</ele>
        <time>2016-12-11T07:38:07.425Z</time>
      </trkpt>
      <trkpt lat="48.02032" lon="2.7422">
        <ele>93</ele>
        <time>2016-12-11T07:38:08.428Z</time>
      </trkpt>
      <trkpt lat="48.02032" lon="2.7422">
        <ele>93</ele>
        <time>2016-12-11T07:38:09.405Z</time>
      </trkpt>
      <trkpt lat="48.0204" lon="2.74223">
        <ele>94</ele>
        <time>2016-12-11T07:38:10.408Z</time>
      </trkpt>
      <trkpt lat="48.0204" lon="2.74223">
        <ele>94</ele>
        <time>2016-12-11T07:38:11.426Z</time>
      </trkpt>
      <trkpt lat="48.02046" lon="2.74225">
        <ele>93</ele>
        <time>2016-12-11T07:38:12.430Z</time>
      </trkpt>
      <trkpt lat="48.02046" lon="2.74225">
        <ele>93</ele>
        <time>2016-12-11T07:38:13.425Z</time>
      </trkpt>
      <trkpt lat="48.02054" lon="2.74227">
        <ele>94</ele>
        <time>2016-12-11T07:38:14.428Z</time>
      </trkpt>
      <trkpt lat="48.02054" lon="2.74227">
        <ele>94</ele>
        <time>2016-12-11T07:38:15.427Z</time>
      </trkpt>
      <trkpt lat="48.02063" lon="2.74232">
        <ele>95</ele>
        <time>2016-12-11T07:38:16.428Z</time>
      </trkpt>
      <trkpt lat="48.02063" lon="2.74232">
        <ele>95</ele>
        <time>2016-12-11T07:38:17.428Z</time>
      </trkpt>
      <trkpt lat="48.02071" lon="2.74236">
        <ele>95</ele>
        <time>2016-12-11T07:38:18.429Z</time>
      </trkpt>
      <trkpt lat="48.02071" lon="2.74236">
        <ele>95</ele>
        <time>2016-12-11T07:38:19.425Z</time>
      </trkpt>
      <trkpt lat="48.0208" lon="2.7424">
        <ele>94</ele>
        <time>2016-12-11T07:38:20.427Z</time>
      </trkpt>
      <trkpt lat="48.0208" lon="2.7424">
        <ele>94</ele>
        <time>2016-12-11T07:38:21.428Z</time>
      </trkpt>
      <trkpt lat="48.02087" lon="2.74245">
        <ele>95</ele>
        <time>2016-12-11T07:38:22.435Z</time>
      </trkpt>
      <trkpt lat="48.02087" lon="2.74245">
        <ele>95</ele>
        <time>2016-12-11T07:38:23.425Z</time>
      </trkpt>
      <trkpt lat="48.02093" lon="2.74247">
        <ele>94</ele>
        <time>2016-12-11T07:38:24.429Z</time>
      </trkpt>
      <trkpt lat="48.02093" lon="2.74247">
        <ele>94</ele>
        <time>2016-12-11T07:38:25.424Z</time>
      </trkpt>
      <trkpt lat="48.021" lon="2.74249">
        <ele>94</ele>
        <time>2016-12-11T07:38:26.427Z</time>
      </trkpt>
      <trkpt lat="48.021" lon="2.74249">
        <ele>94</ele>
        <time>2016-12-11T07:38:27.423Z</time>
      </trkpt>
      <trkpt lat="48.02107" lon="2.74252">
        <ele>93</ele>
        <time>2016-12-11T07:38:28.428Z</time>
      </trkpt>
      <trkpt lat="48.0211" lon="2.74253">
        <ele>93</ele>
        <time>2016-12-11T07:38:29.427Z</time>
      </trkpt>
      <trkpt lat="48.02112" lon="2.74253">
        <ele>92</ele>
        <time>2016-12-11T07:38:30.430Z</time>
      </trkpt>
      <trkpt lat="48.02112" lon="2.74253">
        <ele>92</ele>
        <time>2016-12-11T07:38:31.397Z</time>
      </trkpt>
      <trkpt lat="48.02119" lon="2.74255">
        <ele>91</ele>
        <time>2016-12-11T07:38:32.429Z</time>
      </trkpt>
      <trkpt lat="48.02119" lon="2.74255">
        <ele>91</ele>
        <time>2016-12-11T07:38:33.425Z</time>
      </trkpt>
      <trkpt lat="48.02125" lon="2.74255">
        <ele>91</ele>
        <time>2016-12-11T07:38:34.427Z</time>
      </trkpt>
      <trkpt lat="48.02125" lon="2.74255">
        <ele>91</ele>
        <time>2016-12-11T07:38:35.425Z</time>
      </trkpt>
      <trkpt lat="48.02129" lon="2.74249">
        <ele>90</ele>
        <time>2016-12-11T07:38:36.428Z</time>
      </trkpt>
      <trkpt lat="48.02129" lon="2.74249">
        <ele>90</ele>
        <time>2016-12-11T07:38:37.425Z</time>
      </trkpt>
      <trkpt lat="48.02133" lon="2.74243">
        <ele>91</ele>
        <time>2016-12-11T07:38:38.427Z</time>
      </trkpt>
      <trkpt lat="48.02135" lon="2.74238">
        <ele>91</ele>
        <time>2016-12-11T07:38:39.427Z</time>
      </trkpt>
      <trkpt lat="48.02135" lon="2.74238">
        <ele>91</ele>
        <time>2016-12-11T07:38:40.422Z</time>
      </trkpt>
      <trkpt lat="48.02139" lon="2.74231">
        <ele>91</ele>
        <time>2016-12-11T07:38:41.433Z</time>
      </trkpt>
      <trkpt lat="48.02141" lon="2.74226">
        <ele>90</ele>
        <time>2016-12-11T07:38:42.429Z</time>
      </trkpt>
      <trkpt lat="48.02141" lon="2.74226">
        <ele>90</ele>
        <time>2016-12-11T07:38:43.425Z</time>
      </trkpt>
      <trkpt lat="48.02144" lon="2.74216">
        <ele>89</ele>
        <time>2016-12-11T07:38:44.427Z</time>
      </trkpt>
      <trkpt lat="48.02146" lon="2.74211">
        <ele>89</ele>
        <time>2016-12-11T07:38:45.427Z</time>
      </trkpt>
      <trkpt lat="48.02147" lon="2.74206">
        <ele>88</ele>
        <time>2016-12-11T07:38:46.428Z</time>
      </trkpt>
      <trkpt lat="48.02147" lon="2.74206">
        <ele>88</ele>
        <time>2016-12-11T07:38:47.423Z</time>
      </trkpt>
      <trkpt lat="48.0215" lon="2.74197">
        <ele>89</ele>
        <time>2016-12-11T07:38:48.428Z</time>
      </trkpt>
      <trkpt lat="48.0215" lon="2.74197">
        <ele>89</ele>
        <time>2016-12-11T07:38:49.425Z</time>
      </trkpt>
      <trkpt lat="48.02152" lon="2.74189">
        <ele>88</ele>
        <time>2016-12-11T07:38:50.428Z</time>
      </trkpt>
      <trkpt lat="48.02152" lon="2.74189">
        <ele>88</ele>
        <time>2016-12-11T07:38:51.434Z</time>
      </trkpt>
      <trkpt lat="48.02157" lon="2.74185">
        <ele>87</ele>
        <time>2016-12-11T07:38:52.428Z</time>
      </trkpt>
      <trkpt lat="48.02157" lon="2.74185">
        <ele>87</ele>
        <time>2016-12-11T07:38:53.424Z</time>
      </trkpt>
      <trkpt lat="48.02164" lon="2.74185">
        <ele>87</ele>
        <time>2016-12-11T07:38:54.430Z</time>
      </trkpt>
      <trkpt lat="48.02164" lon="2.74185">
        <ele>87</ele>
        <time>2016-12-11T07:38:55.427Z</time>
      </trkpt>
      <trkpt lat="48.02171" lon="2.74186">
        <ele>87</ele>
        <time>2016-12-11T07:38:56.428Z</time>
      </trkpt>
      <trkpt lat="48.02171" lon="2.74186">
        <ele>87</ele>
        <time>2016-12-11T07:38:57.425Z</time>
      </trkpt>
      <trkpt lat="48.02177" lon="2.74188">
        <ele>86</ele>
        <time>2016-12-11T07:38:58.404Z</time>
      </trkpt>
      <trkpt lat="48.02177" lon="2.74188">
        <ele>86</ele>
        <time>2016-12-11T07:38:59.433Z</time>
      </trkpt>
      <trkpt lat="48.02183" lon="2.7419">
        <ele>85</ele>
        <time>2016-12-11T07:39:00.430Z</time>
      </trkpt>
      <trkpt lat="48.02183" lon="2.7419">
        <ele>85</ele>
        <time>2016-12-11T07:39:01.442Z</time>
      </trkpt>
      <trkpt lat="48.02188" lon="2.74193">
        <ele>85</ele>
        <time>2016-12-11T07:39:02.428Z</time>
      </trkpt>
      <trkpt lat="48.02188" lon="2.74193">
        <ele>85</ele>
        <time>2016-12-11T07:39:03.425Z</time>
      </trkpt>
      <trkpt lat="48.02192" lon="2.74195">
        <ele>84</ele>
        <time>2016-12-11T07:39:04.427Z</time>
      </trkpt>
      <trkpt lat="48.02192" lon="2.74195">
        <ele>84</ele>
        <time>2016-12-11T07:39:05.425Z</time>
      </trkpt>
      <trkpt lat="48.02198" lon="2.74198">
        <ele>83</ele>
        <time>2016-12-11T07:39:06.430Z</time>
      </trkpt>
      <trkpt lat="48.02198" lon="2.74198">
        <ele>83</ele>
        <time>2016-12-11T07:39:07.425Z</time>
      </trkpt>
      <trkpt lat="48.02205" lon="2.742">
        <ele>83</ele>
        <time>2016-12-11T07:39:08.426Z</time>
      </trkpt>
      <trkpt lat="48.02205" lon="2.742">
        <ele>83</ele>
        <time>2016-12-11T07:39:09.425Z</time>
      </trkpt>
      <trkpt lat="48.02213" lon="2.74204">
        <ele>82</ele>
        <time>2016-12-11T07:39:10.425Z</time>
      </trkpt>
      <trkpt lat="48.02213" lon="2.74204">
        <ele>82</ele>
        <time>2016-12-11T07:39:11.426Z</time>
      </trkpt>
      <trkpt lat="48.02221" lon="2.74207">
        <ele>81</ele>
        <time>2016-12-11T07:39:12.429Z</time>
      </trkpt>
      <trkpt lat="48.02221" lon="2.74207">
        <ele>81</ele>
        <time>2016-12-11T07:39:13.425Z</time>
      </trkpt>
      <trkpt lat="48.02228" lon="2.74209">
        <ele>80</ele>
        <time>2016-12-11T07:39:14.427Z</time>
      </trkpt>
      <trkpt lat="48.02228" lon="2.74209">
        <ele>80</ele>
        <time>2016-12-11T07:39:15.422Z</time>
      </trkpt>
      <trkpt lat="48.02236" lon="2.74212">
        <ele>79</ele>
        <time>2016-12-11T07:39:16.428Z</time>
      </trkpt>
      <trkpt lat="48.02236" lon="2.74212">
        <ele>79</ele>
        <time>2016-12-11T07:39:17.425Z</time>
      </trkpt>
      <trkpt lat="48.02242" lon="2.74215">
        <ele>80</ele>
        <time>2016-12-11T07:39:18.428Z</time>
      </trkpt>
      <trkpt lat="48.02245" lon="2.74216">
        <ele>79</ele>
        <time>2016-12-11T07:39:19.428Z</time>
      </trkpt>
      <trkpt lat="48.02245" lon="2.74216">
        <ele>79</ele>
        <time>2016-12-11T07:39:20.425Z</time>
      </trkpt>
      <trkpt lat="48.02251" lon="2.74219">
        <ele>78</ele>
        <time>2016-12-11T07:39:21.397Z</time>
      </trkpt>
      <trkpt lat="48.02251" lon="2.74219">
        <ele>78</ele>
        <time>2016-12-11T07:39:22.435Z</time>
      </trkpt>
      <trkpt lat="48.02259" lon="2.74223">
        <ele>79</ele>
        <time>2016-12-11T07:39:23.428Z</time>
      </trkpt>
      <trkpt lat="48.02263" lon="2.74225">
        <ele>79</ele>
        <time>2016-12-11T07:39:24.430Z</time>
      </trkpt>
      <trkpt lat="48.02263" lon="2.74225">
        <ele>79</ele>
        <time>2016-12-11T07:39:25.424Z</time>
      </trkpt>
      <trkpt lat="48.0227" lon="2.74228">
        <ele>79</ele>
        <time>2016-12-11T07:39:26.428Z</time>
      </trkpt>
      <trkpt lat="48.0227" lon="2.74228">
        <ele>79</ele>
        <time>2016-12-11T07:39:27.426Z</time>
      </trkpt>
      <trkpt lat="48.02275" lon="2.74231">
        <ele>78</ele>
        <time>2016-12-11T07:39:28.428Z</time>
      </trkpt>
      <trkpt lat="48.02275" lon="2.74231">
        <ele>78</ele>
        <time>2016-12-11T07:39:29.425Z</time>
      </trkpt>
      <trkpt lat="48.0228" lon="2.74235">
        <ele>78</ele>
        <time>2016-12-11T07:39:30.430Z</time>
      </trkpt>
      <trkpt lat="48.0228" lon="2.74235">
        <ele>78</ele>
        <time>2016-12-11T07:39:31.426Z</time>
      </trkpt>
      <trkpt lat="48.02286" lon="2.74238">
        <ele>77</ele>
        <time>2016-12-11T07:39:32.430Z</time>
      </trkpt>
      <trkpt lat="48.02289" lon="2.7424">
        <ele>77</ele>
        <time>2016-12-11T07:39:33.428Z</time>
      </trkpt>
      <trkpt lat="48.02289" lon="2.7424">
        <ele>77</ele>
        <time>2016-12-11T07:39:34.425Z</time>
      </trkpt>
      <trkpt lat="48.02295" lon="2.74243">
        <ele>76</ele>
        <time>2016-12-11T07:39:35.428Z</time>
      </trkpt>
      <trkpt lat="48.02298" lon="2.74245">
        <ele>76</ele>
        <time>2016-12-11T07:39:36.430Z</time>
      </trkpt>
      <trkpt lat="48.02298" lon="2.74245">
        <ele>76</ele>
        <time>2016-12-11T07:39:37.423Z</time>
      </trkpt>
      <trkpt lat="48.02304" lon="2.74249">
        <ele>76</ele>
        <time>2016-12-11T07:39:38.428Z</time>
      </trkpt>
      <trkpt lat="48.02304" lon="2.74249">
        <ele>76</ele>
        <time>2016-12-11T07:39:39.425Z</time>
      </trkpt>
      <trkpt lat="48.02313" lon="2.74256">
        <ele>77</ele>
        <time>2016-12-11T07:39:40.427Z</time>
      </trkpt>
      <trkpt lat="48.02313" lon="2.74256">
        <ele>77</ele>
        <time>2016-12-11T07:39:41.437Z</time>
      </trkpt>
      <trkpt lat="48.02319" lon="2.74259">
        <ele>77</ele>
        <time>2016-12-11T07:39:42.402Z</time>
      </trkpt>
      <trkpt lat="48.02322" lon="2.74262">
        <ele>77</ele>
        <time>2016-12-11T07:39:43.414Z</time>
      </trkpt>
      <trkpt lat="48.02322" lon="2.74262">
        <ele>77</ele>
        <time>2016-12-11T07:39:44.402Z</time>
      </trkpt>
      <trkpt lat="48.02329" lon="2.74265">
        <ele>76</ele>
        <time>2016-12-11T07:39:45.433Z</time>
      </trkpt>
      <trkpt lat="48.02329" lon="2.74265">
        <ele>76</ele>
        <time>2016-12-11T07:39:46.425Z</time>
      </trkpt>
      <trkpt lat="48.02335" lon="2.74269">
        <ele>76</ele>
        <time>2016-12-11T07:39:47.428Z</time>
      </trkpt>
      <trkpt lat="48.02335" lon="2.74269">
        <ele>76</ele>
        <time>2016-12-11T07:39:48.435Z</time>
      </trkpt>
      <trkpt lat="48.02342" lon="2.74275">
        <ele>76</ele>
        <time>2016-12-11T07:39:49.429Z</time>
      </trkpt>
      <trkpt lat="48.02342" lon="2.74275">
        <ele>76</ele>
        <time>2016-12-11T07:39:50.423Z</time>
      </trkpt>
      <trkpt lat="48.02349" lon="2.7428">
        <ele>77</ele>
        <time>2016-12-11T07:39:51.426Z</time>
      </trkpt>
      <trkpt lat="48.02349" lon="2.7428">
        <ele>77</ele>
        <time>2016-12-11T07:39:52.418Z</time>
      </trkpt>
      <trkpt lat="48.02354" lon="2.74282">
        <ele>77</ele>
        <time>2016-12-11T07:39:53.429Z</time>
      </trkpt>
      <trkpt lat="48.02356" lon="2.74283">
        <ele>77</ele>
        <time>2016-12-11T07:39:54.430Z</time>
      </trkpt>
      <trkpt lat="48.02359" lon="2.74285">
        <ele>78</ele>
        <time>2016-12-11T07:39:55.427Z</time>
      </trkpt>
      <trkpt lat="48.02363" lon="2.74287">
        <ele>79</ele>
        <time>2016-12-11T07:39:56.431Z</time>
      </trkpt>
      <trkpt lat="48.02363" lon="2.74287">
        <ele>79</ele>
        <time>2016-12-11T07:39:57.426Z</time>
      </trkpt>
      <trkpt lat="48.0237" lon="2.74289">
        <ele>79</ele>
        <time>2016-12-11T07:39:58.427Z</time>
      </trkpt>
      <trkpt lat="48.0237" lon="2.74289">
        <ele>79</ele>
        <time>2016-12-11T07:39:59.427Z</time>
      </trkpt>
      <trkpt lat="48.02376" lon="2.74291">
        <ele>78</ele>
        <time>2016-12-11T07:40:00.429Z</time>
      </trkpt>
      <trkpt lat="48.02376" lon="2.74291">
        <ele>78</ele>
        <time>2016-12-11T07:40:01.426Z</time>
      </trkpt>
      <trkpt lat="48.02381" lon="2.74293">
        <ele>77</ele>
        <time>2016-12-11T07:40:02.434Z</time>
      </trkpt>
      <trkpt lat="48.02385" lon="2.74295">
        <ele>76</ele>
        <time>2016-12-11T07:40:03.429Z</time>
      </trkpt>
      <trkpt lat="48.02385" lon="2.74295">
        <ele>76</ele>
        <time>2016-12-11T07:40:04.424Z</time>
      </trkpt>
      <trkpt lat="48.02392" lon="2.74298">
        <ele>76</ele>
        <time>2016-12-11T07:40:05.428Z</time>
      </trkpt>
      <trkpt lat="48.02395" lon="2.743">
        <ele>75</ele>
        <time>2016-12-11T07:40:06.430Z</time>
      </trkpt>
      <trkpt lat="48.02395" lon="2.743">
        <ele>75</ele>
        <time>2016-12-11T07:40:07.422Z</time>
      </trkpt>
      <trkpt lat="48.02401" lon="2.74305">
        <ele>75</ele>
        <time>2016-12-11T07:40:08.428Z</time>
      </trkpt>
      <trkpt lat="48.02401" lon="2.74305">
        <ele>75</ele>
        <time>2016-12-11T07:40:09.403Z</time>
      </trkpt>
      <trkpt lat="48.02407" lon="2.74308">
        <ele>76</ele>
        <time>2016-12-11T07:40:10.433Z</time>
      </trkpt>
      <trkpt lat="48.02407" lon="2.74308">
        <ele>76</ele>
        <time>2016-12-11T07:40:11.426Z</time>
      </trkpt>
      <trkpt lat="48.02413" lon="2.74312">
        <ele>77</ele>
        <time>2016-12-11T07:40:12.431Z</time>
      </trkpt>
      <trkpt lat="48.02413" lon="2.74312">
        <ele>77</ele>
        <time>2016-12-11T07:40:13.423Z</time>
      </trkpt>
      <trkpt lat="48.0242" lon="2.74317">
        <ele>77</ele>
        <time>2016-12-11T07:40:14.431Z</time>
      </trkpt>
      <trkpt lat="48.0242" lon="2.74317">
        <ele>77</ele>
        <time>2016-12-11T07:40:15.426Z</time>
      </trkpt>
      <trkpt lat="48.02426" lon="2.7432">
        <ele>76</ele>
        <time>2016-12-11T07:40:16.428Z</time>
      </trkpt>
      <trkpt lat="48.02426" lon="2.7432">
        <ele>76</ele>
        <time>2016-12-11T07:40:17.423Z</time>
      </trkpt>
      <trkpt lat="48.02432" lon="2.74323">
        <ele>77</ele>
        <time>2016-12-11T07:40:18.426Z</time>
      </trkpt>
      <trkpt lat="48.02432" lon="2.74323">
        <ele>77</ele>
        <time>2016-12-11T07:40:19.425Z</time>
      </trkpt>
      <trkpt lat="48.02438" lon="2.74325">
        <ele>76</ele>
        <time>2016-12-11T07:40:20.425Z</time>
      </trkpt>
      <trkpt lat="48.02442" lon="2.74328">
        <ele>76</ele>
        <time>2016-12-11T07:40:21.432Z</time>
      </trkpt>
      <trkpt lat="48.02442" lon="2.74328">
        <ele>76</ele>
        <time>2016-12-11T07:40:22.401Z</time>
      </trkpt>
      <trkpt lat="48.02449" lon="2.74334">
        <ele>76</ele>
        <time>2016-12-11T07:40:23.425Z</time>
      </trkpt>
      <trkpt lat="48.02452" lon="2.74336">
        <ele>75</ele>
        <time>2016-12-11T07:40:24.428Z</time>
      </trkpt>
      <trkpt lat="48.02452" lon="2.74336">
        <ele>75</ele>
        <time>2016-12-11T07:40:25.426Z</time>
      </trkpt>
      <trkpt lat="48.02458" lon="2.74339">
        <ele>75</ele>
        <time>2016-12-11T07:40:26.428Z</time>
      </trkpt>
      <trkpt lat="48.02458" lon="2.74339">
        <ele>75</ele>
        <time>2016-12-11T07:40:27.425Z</time>
      </trkpt>
      <trkpt lat="48.02464" lon="2.74342">
        <ele>75</ele>
        <time>2016-12-11T07:40:28.428Z</time>
      </trkpt>
      <trkpt lat="48.02464" lon="2.74342">
        <ele>75</ele>
        <time>2016-12-11T07:40:29.424Z</time>
      </trkpt>
      <trkpt lat="48.0247" lon="2.74345">
        <ele>75</ele>
        <time>2016-12-11T07:40:30.430Z</time>
      </trkpt>
      <trkpt lat="48.0247" lon="2.74345">
        <ele>75</ele>
        <time>2016-12-11T07:40:31.426Z</time>
      </trkpt>
      <trkpt lat="48.0248" lon="2.7435">
        <ele>76</ele>
        <time>2016-12-11T07:40:32.429Z</time>
      </trkpt>
      <trkpt lat="48.0248" lon="2.7435">
        <ele>76</ele>
        <time>2016-12-11T07:40:33.398Z</time>
      </trkpt>
      <trkpt lat="48.02486" lon="2.74353">
        <ele>76</ele>
        <time>2016-12-11T07:40:34.428Z</time>
      </trkpt>
      <trkpt lat="48.02486" lon="2.74353">
        <ele>76</ele>
        <time>2016-12-11T07:40:35.425Z</time>
      </trkpt>
      <trkpt lat="48.02494" lon="2.74356">
        <ele>76</ele>
        <time>2016-12-11T07:40:36.434Z</time>
      </trkpt>
      <trkpt lat="48.02494" lon="2.74356">
        <ele>76</ele>
        <time>2016-12-11T07:40:37.424Z</time>
      </trkpt>
      <trkpt lat="48.02499" lon="2.7436">
        <ele>76</ele>
        <time>2016-12-11T07:40:38.426Z</time>
      </trkpt>
      <trkpt lat="48.02499" lon="2.7436">
        <ele>76</ele>
        <time>2016-12-11T07:40:39.425Z</time>
      </trkpt>
      <trkpt lat="48.02506" lon="2.74364">
        <ele>76</ele>
        <time>2016-12-11T07:40:40.429Z</time>
      </trkpt>
      <trkpt lat="48.02506" lon="2.74364">
        <ele>76</ele>
        <time>2016-12-11T07:40:41.434Z</time>
      </trkpt>
      <trkpt lat="48.02513" lon="2.7437">
        <ele>75</ele>
        <time>2016-12-11T07:40:42.430Z</time>
      </trkpt>
      <trkpt lat="48.02513" lon="2.7437">
        <ele>75</ele>
        <time>2016-12-11T07:40:43.425Z</time>
      </trkpt>
      <trkpt lat="48.02518" lon="2.74373">
        <ele>75</ele>
        <time>2016-12-11T07:40:44.426Z</time>
      </trkpt>
      <trkpt lat="48.02518" lon="2.74373">
        <ele>75</ele>
        <time>2016-12-11T07:40:45.424Z</time>
      </trkpt>
      <trkpt lat="48.02524" lon="2.74378">
        <ele>74</ele>
        <time>2016-12-11T07:40:46.428Z</time>
      </trkpt>
      <trkpt lat="48.02524" lon="2.74378">
        <ele>74</ele>
        <time>2016-12-11T07:40:47.424Z</time>
      </trkpt>
      <trkpt lat="48.0253" lon="2.74383">
        <ele>74</ele>
        <time>2016-12-11T07:40:48.429Z</time>
      </trkpt>
      <trkpt lat="48.0253" lon="2.74383">
        <ele>74</ele>
        <time>2016-12-11T07:40:49.424Z</time>
      </trkpt>
      <trkpt lat="48.02535" lon="2.74388">
        <ele>74</ele>
        <time>2016-12-11T07:40:50.429Z</time>
      </trkpt>
      <trkpt lat="48.02535" lon="2.74388">
        <ele>74</ele>
        <time>2016-12-11T07:40:51.426Z</time>
      </trkpt>
      <trkpt lat="48.02541" lon="2.74392">
        <ele>74</ele>
        <time>2016-12-11T07:40:52.426Z</time>
      </trkpt>
      <trkpt lat="48.02541" lon="2.74392">
        <ele>74</ele>
        <time>2016-12-11T07:40:53.424Z</time>
      </trkpt>
      <trkpt lat="48.0255" lon="2.74394">
        <ele>74</ele>
        <time>2016-12-11T07:40:54.431Z</time>
      </trkpt>
      <trkpt lat="48.0255" lon="2.74394">
        <ele>74</ele>
        <time>2016-12-11T07:40:55.425Z</time>
      </trkpt>
      <trkpt lat="48.02558" lon="2.74399">
        <ele>75</ele>
        <time>2016-12-11T07:40:56.428Z</time>
      </trkpt>
      <trkpt lat="48.02558" lon="2.74399">
        <ele>75</ele>
        <time>2016-12-11T07:40:57.432Z</time>
      </trkpt>
      <trkpt lat="48.02563" lon="2.74403">
        <ele>74</ele>
        <time>2016-12-11T07:40:58.425Z</time>
      </trkpt>
      <trkpt lat="48.02563" lon="2.74403">
        <ele>74</ele>
        <time>2016-12-11T07:40:59.425Z</time>
      </trkpt>
      <trkpt lat="48.02569" lon="2.74413">
        <ele>76</ele>
        <time>2016-12-11T07:41:00.430Z</time>
      </trkpt>
      <trkpt lat="48.02569" lon="2.74413">
        <ele>76</ele>
        <time>2016-12-11T07:41:01.426Z</time>
      </trkpt>
      <trkpt lat="48.02568" lon="2.74421">
        <ele>75</ele>
        <time>2016-12-11T07:41:02.429Z</time>
      </trkpt>
      <trkpt lat="48.02568" lon="2.74421">
        <ele>75</ele>
        <time>2016-12-11T07:41:03.423Z</time>
      </trkpt>
      <trkpt lat="48.02568" lon="2.74431">
        <ele>75</ele>
        <time>2016-12-11T07:41:04.424Z</time>
      </trkpt>
      <trkpt lat="48.02568" lon="2.74431">
        <ele>75</ele>
        <time>2016-12-11T07:41:05.423Z</time>
      </trkpt>
      <trkpt lat="48.02568" lon="2.74442">
        <ele>75</ele>
        <time>2016-12-11T07:41:06.430Z</time>
      </trkpt>
      <trkpt lat="48.02568" lon="2.74447">
        <ele>75</ele>
        <time>2016-12-11T07:41:07.427Z</time>
      </trkpt>
      <trkpt lat="48.02568" lon="2.74447">
        <ele>75</ele>
        <time>2016-12-11T07:41:08.423Z</time>
      </trkpt>
      <trkpt lat="48.02567" lon="2.74457">
        <ele>76</ele>
        <time>2016-12-11T07:41:09.428Z</time>
      </trkpt>
      <trkpt lat="48.02567" lon="2.74457">
        <ele>76</ele>
        <time>2016-12-11T07:41:10.423Z</time>
      </trkpt>
      <trkpt lat="48.02566" lon="2.74467">
        <ele>76</ele>
        <time>2016-12-11T07:41:11.436Z</time>
      </trkpt>
      <trkpt lat="48.02565" lon="2.74472">
        <ele>76</ele>
        <time>2016-12-11T07:41:12.430Z</time>
      </trkpt>
      <trkpt lat="48.02565" lon="2.74472">
        <ele>76</ele>
        <time>2016-12-11T07:41:13.426Z</time>
      </trkpt>
      <trkpt lat="48.02564" lon="2.74482">
        <ele>76</ele>
        <time>2016-12-11T07:41:14.428Z</time>
      </trkpt>
      <trkpt lat="48.02564" lon="2.74482">
        <ele>76</ele>
        <time>2016-12-11T07:41:15.423Z</time>
      </trkpt>
      <trkpt lat="48.02563" lon="2.7449">
        <ele>76</ele>
        <time>2016-12-11T07:41:16.425Z</time>
      </trkpt>
      <trkpt lat="48.02563" lon="2.7449">
        <ele>76</ele>
        <time>2016-12-11T07:41:17.423Z</time>
      </trkpt>
      <trkpt lat="48.02561" lon="2.74498">
        <ele>77</ele>
        <time>2016-12-11T07:41:18.430Z</time>
      </trkpt>
      <trkpt lat="48.02561" lon="2.74498">
        <ele>77</ele>
        <time>2016-12-11T07:41:19.423Z</time>
      </trkpt>
      <trkpt lat="48.02561" lon="2.74507">
        <ele>78</ele>
        <time>2016-12-11T07:41:20.429Z</time>
      </trkpt>
      <trkpt lat="48.02561" lon="2.74507">
        <ele>78</ele>
        <time>2016-12-11T07:41:21.426Z</time>
      </trkpt>
      <trkpt lat="48.02561" lon="2.74516">
        <ele>79</ele>
        <time>2016-12-11T07:41:22.428Z</time>
      </trkpt>
      <trkpt lat="48.02561" lon="2.74516">
        <ele>79</ele>
        <time>2016-12-11T07:41:23.427Z</time>
      </trkpt>
      <trkpt lat="48.02561" lon="2.74525">
        <ele>80</ele>
        <time>2016-12-11T07:41:24.430Z</time>
      </trkpt>
      <trkpt lat="48.02561" lon="2.74525">
        <ele>80</ele>
        <time>2016-12-11T07:41:25.423Z</time>
      </trkpt>
      <trkpt lat="48.0256" lon="2.74534">
        <ele>82</ele>
        <time>2016-12-11T07:41:26.429Z</time>
      </trkpt>
      <trkpt lat="48.0256" lon="2.74534">
        <ele>82</ele>
        <time>2016-12-11T07:41:27.424Z</time>
      </trkpt>
      <trkpt lat="48.0256" lon="2.74543">
        <ele>84</ele>
        <time>2016-12-11T07:41:28.428Z</time>
      </trkpt>
      <trkpt lat="48.0256" lon="2.74548">
        <ele>86</ele>
        <time>2016-12-11T07:41:29.425Z</time>
      </trkpt>
      <trkpt lat="48.02559" lon="2.74551">
        <ele>87</ele>
        <time>2016-12-11T07:41:30.430Z</time>
      </trkpt>
      <trkpt lat="48.02559" lon="2.74551">
        <ele>87</ele>
        <time>2016-12-11T07:41:31.426Z</time>
      </trkpt>
      <trkpt lat="48.02558" lon="2.74559">
        <ele>88</ele>
        <time>2016-12-11T07:41:32.429Z</time>
      </trkpt>
      <trkpt lat="48.02558" lon="2.74559">
        <ele>88</ele>
        <time>2016-12-11T07:41:33.427Z</time>
      </trkpt>
      <trkpt lat="48.02557" lon="2.74567">
        <ele>89</ele>
        <time>2016-12-11T07:41:34.426Z</time>
      </trkpt>
      <trkpt lat="48.02557" lon="2.74567">
        <ele>89</ele>
        <time>2016-12-11T07:41:35.423Z</time>
      </trkpt>
      <trkpt lat="48.02556" lon="2.74576">
        <ele>91</ele>
        <time>2016-12-11T07:41:36.430Z</time>
      </trkpt>
      <trkpt lat="48.02556" lon="2.74576">
        <ele>91</ele>
        <time>2016-12-11T07:41:37.423Z</time>
      </trkpt>
      <trkpt lat="48.02556" lon="2.74585">
        <ele>92</ele>
        <time>2016-12-11T07:41:38.428Z</time>
      </trkpt>
      <trkpt lat="48.02556" lon="2.74589">
        <ele>93</ele>
        <time>2016-12-11T07:41:39.425Z</time>
      </trkpt>
      <trkpt lat="48.02556" lon="2.74589">
        <ele>93</ele>
        <time>2016-12-11T07:41:40.424Z</time>
      </trkpt>
      <trkpt lat="48.02554" lon="2.74596">
        <ele>94</ele>
        <time>2016-12-11T07:41:41.428Z</time>
      </trkpt>
      <trkpt lat="48.02552" lon="2.746">
        <ele>95</ele>
        <time>2016-12-11T07:41:42.430Z</time>
      </trkpt>
      <trkpt lat="48.02551" lon="2.74604">
        <ele>96</ele>
        <time>2016-12-11T07:41:43.407Z</time>
      </trkpt>
      <trkpt lat="48.02551" lon="2.74604">
        <ele>96</ele>
        <time>2016-12-11T07:41:44.396Z</time>
      </trkpt>
      <trkpt lat="48.0255" lon="2.74613">
        <ele>97</ele>
        <time>2016-12-11T07:41:45.426Z</time>
      </trkpt>
      <trkpt lat="48.0255" lon="2.74613">
        <ele>97</ele>
        <time>2016-12-11T07:41:46.423Z</time>
      </trkpt>
      <trkpt lat="48.02549" lon="2.74622">
        <ele>98</ele>
        <time>2016-12-11T07:41:47.431Z</time>
      </trkpt>
      <trkpt lat="48.02549" lon="2.74622">
        <ele>98</ele>
        <time>2016-12-11T07:41:48.425Z</time>
      </trkpt>
      <trkpt lat="48.02548" lon="2.7463">
        <ele>100</ele>
        <time>2016-12-11T07:41:49.426Z</time>
      </trkpt>
      <trkpt lat="48.02547" lon="2.74634">
        <ele>100</ele>
        <time>2016-12-11T07:41:50.397Z</time>
      </trkpt>
      <trkpt lat="48.02547" lon="2.74634">
        <ele>100</ele>
        <time>2016-12-11T07:41:51.433Z</time>
      </trkpt>
      <trkpt lat="48.02548" lon="2.74643">
        <ele>102</ele>
        <time>2016-12-11T07:41:52.426Z</time>
      </trkpt>
      <trkpt lat="48.02548" lon="2.74643">
        <ele>102</ele>
        <time>2016-12-11T07:41:53.426Z</time>
      </trkpt>
      <trkpt lat="48.02547" lon="2.74652">
        <ele>103</ele>
        <time>2016-12-11T07:41:54.430Z</time>
      </trkpt>
      <trkpt lat="48.02547" lon="2.74652">
        <ele>103</ele>
        <time>2016-12-11T07:41:55.425Z</time>
      </trkpt>
      <trkpt lat="48.02546" lon="2.7466">
        <ele>104</ele>
        <time>2016-12-11T07:41:56.429Z</time>
      </trkpt>
      <trkpt lat="48.02546" lon="2.7466">
        <ele>104</ele>
        <time>2016-12-11T07:41:57.423Z</time>
      </trkpt>
      <trkpt lat="48.02545" lon="2.74668">
        <ele>105</ele>
        <time>2016-12-11T07:41:58.426Z</time>
      </trkpt>
      <trkpt lat="48.02545" lon="2.74668">
        <ele>105</ele>
        <time>2016-12-11T07:41:59.426Z</time>
      </trkpt>
      <trkpt lat="48.02544" lon="2.74676">
        <ele>106</ele>
        <time>2016-12-11T07:42:00.430Z</time>
      </trkpt>
      <trkpt lat="48.02544" lon="2.74676">
        <ele>106</ele>
        <time>2016-12-11T07:42:01.427Z</time>
      </trkpt>
      <trkpt lat="48.02542" lon="2.74684">
        <ele>106</ele>
        <time>2016-12-11T07:42:02.433Z</time>
      </trkpt>
      <trkpt lat="48.02542" lon="2.74684">
        <ele>106</ele>
        <time>2016-12-11T07:42:03.426Z</time>
      </trkpt>
      <trkpt lat="48.02541" lon="2.74691">
        <ele>107</ele>
        <time>2016-12-11T07:42:04.433Z</time>
      </trkpt>
      <trkpt lat="48.02541" lon="2.74691">
        <ele>107</ele>
        <time>2016-12-11T07:42:05.425Z</time>
      </trkpt>
      <trkpt lat="48.0254" lon="2.747">
        <ele>108</ele>
        <time>2016-12-11T07:42:06.432Z</time>
      </trkpt>
      <trkpt lat="48.0254" lon="2.747">
        <ele>108</ele>
        <time>2016-12-11T07:42:07.423Z</time>
      </trkpt>
      <trkpt lat="48.02539" lon="2.74709">
        <ele>109</ele>
        <time>2016-12-11T07:42:08.430Z</time>
      </trkpt>
      <trkpt lat="48.02539" lon="2.74709">
        <ele>109</ele>
        <time>2016-12-11T07:42:09.425Z</time>
      </trkpt>
      <trkpt lat="48.0254" lon="2.74715">
        <ele>109</ele>
        <time>2016-12-11T07:42:10.428Z</time>
      </trkpt>
      <trkpt lat="48.0254" lon="2.74715">
        <ele>109</ele>
        <time>2016-12-11T07:42:11.426Z</time>
      </trkpt>
      <trkpt lat="48.02542" lon="2.7472">
        <ele>109</ele>
        <time>2016-12-11T07:42:12.431Z</time>
      </trkpt>
      <trkpt lat="48.02542" lon="2.7472">
        <ele>109</ele>
        <time>2016-12-11T07:42:13.425Z</time>
      </trkpt>
      <trkpt lat="48.02547" lon="2.7472">
        <ele>110</ele>
        <time>2016-12-11T07:42:14.429Z</time>
      </trkpt>
      <trkpt lat="48.02547" lon="2.7472">
        <ele>110</ele>
        <time>2016-12-11T07:42:15.423Z</time>
      </trkpt>
      <trkpt lat="48.02552" lon="2.74719">
        <ele>110</ele>
        <time>2016-12-11T07:42:16.428Z</time>
      </trkpt>
      <trkpt lat="48.02552" lon="2.74719">
        <ele>110</ele>
        <time>2016-12-11T07:42:17.416Z</time>
      </trkpt>
      <trkpt lat="48.02557" lon="2.7472">
        <ele>110</ele>
        <time>2016-12-11T07:42:18.398Z</time>
      </trkpt>
      <trkpt lat="48.02557" lon="2.7472">
        <ele>110</ele>
        <time>2016-12-11T07:42:19.427Z</time>
      </trkpt>
      <trkpt lat="48.02563" lon="2.7472">
        <ele>110</ele>
        <time>2016-12-11T07:42:20.430Z</time>
      </trkpt>
      <trkpt lat="48.02563" lon="2.7472">
        <ele>110</ele>
        <time>2016-12-11T07:42:21.426Z</time>
      </trkpt>
      <trkpt lat="48.0257" lon="2.74721">
        <ele>110</ele>
        <time>2016-12-11T07:42:22.428Z</time>
      </trkpt>
      <trkpt lat="48.02573" lon="2.74721">
        <ele>110</ele>
        <time>2016-12-11T07:42:23.426Z</time>
      </trkpt>
      <trkpt lat="48.02573" lon="2.74721">
        <ele>110</ele>
        <time>2016-12-11T07:42:24.425Z</time>
      </trkpt>
      <trkpt lat="48.0258" lon="2.74721">
        <ele>110</ele>
        <time>2016-12-11T07:42:25.426Z</time>
      </trkpt>
      <trkpt lat="48.02584" lon="2.74721">
        <ele>110</ele>
        <time>2016-12-11T07:42:26.429Z</time>
      </trkpt>
      <trkpt lat="48.02584" lon="2.74721">
        <ele>110</ele>
        <time>2016-12-11T07:42:27.425Z</time>
      </trkpt>
      <trkpt lat="48.02591" lon="2.74722">
        <ele>109</ele>
        <time>2016-12-11T07:42:28.428Z</time>
      </trkpt>
      <trkpt lat="48.02591" lon="2.74722">
        <ele>109</ele>
        <time>2016-12-11T07:42:29.423Z</time>
      </trkpt>
      <trkpt lat="48.02599" lon="2.74722">
        <ele>109</ele>
        <time>2016-12-11T07:42:30.427Z</time>
      </trkpt>
      <trkpt lat="48.02599" lon="2.74722">
        <ele>109</ele>
        <time>2016-12-11T07:42:31.426Z</time>
      </trkpt>
      <trkpt lat="48.02608" lon="2.74722">
        <ele>109</ele>
        <time>2016-12-11T07:42:32.429Z</time>
      </trkpt>
      <trkpt lat="48.02608" lon="2.74722">
        <ele>109</ele>
        <time>2016-12-11T07:42:33.423Z</time>
      </trkpt>
      <trkpt lat="48.02617" lon="2.74722">
        <ele>106</ele>
        <time>2016-12-11T07:42:34.428Z</time>
      </trkpt>
      <trkpt lat="48.02617" lon="2.74722">
        <ele>106</ele>
        <time>2016-12-11T07:42:35.425Z</time>
      </trkpt>
      <trkpt lat="48.02626" lon="2.74722">
        <ele>105</ele>
        <time>2016-12-11T07:42:36.430Z</time>
      </trkpt>
      <trkpt lat="48.02626" lon="2.74722">
        <ele>105</ele>
        <time>2016-12-11T07:42:37.424Z</time>
      </trkpt>
      <trkpt lat="48.02635" lon="2.74722">
        <ele>105</ele>
        <time>2016-12-11T07:42:38.429Z</time>
      </trkpt>
      <trkpt lat="48.02635" lon="2.74722">
        <ele>105</ele>
        <time>2016-12-11T07:42:39.425Z</time>
      </trkpt>
      <trkpt lat="48.02644" lon="2.74721">
        <ele>104</ele>
        <time>2016-12-11T07:42:40.427Z</time>
      </trkpt>
      <trkpt lat="48.02644" lon="2.74721">
        <ele>104</ele>
        <time>2016-12-11T07:42:41.423Z</time>
      </trkpt>
      <trkpt lat="48.02652" lon="2.74722">
        <ele>104</ele>
        <time>2016-12-11T07:42:42.432Z</time>
      </trkpt>
      <trkpt lat="48.02652" lon="2.74722">
        <ele>104</ele>
        <time>2016-12-11T07:42:43.401Z</time>
      </trkpt>
      <trkpt lat="48.02659" lon="2.74722">
        <ele>105</ele>
        <time>2016-12-11T07:42:44.402Z</time>
      </trkpt>
      <trkpt lat="48.02659" lon="2.74722">
        <ele>105</ele>
        <time>2016-12-11T07:42:45.431Z</time>
      </trkpt>
      <trkpt lat="48.02666" lon="2.74723">
        <ele>104</ele>
        <time>2016-12-11T07:42:46.426Z</time>
      </trkpt>
      <trkpt lat="48.02666" lon="2.74723">
        <ele>104</ele>
        <time>2016-12-11T07:42:47.426Z</time>
      </trkpt>
      <trkpt lat="48.02674" lon="2.74724">
        <ele>104</ele>
        <time>2016-12-11T07:42:48.430Z</time>
      </trkpt>
      <trkpt lat="48.02674" lon="2.74724">
        <ele>104</ele>
        <time>2016-12-11T07:42:49.423Z</time>
      </trkpt>
      <trkpt lat="48.02681" lon="2.74723">
        <ele>105</ele>
        <time>2016-12-11T07:42:50.429Z</time>
      </trkpt>
      <trkpt lat="48.02681" lon="2.74723">
        <ele>105</ele>
        <time>2016-12-11T07:42:51.426Z</time>
      </trkpt>
      <trkpt lat="48.02689" lon="2.74723">
        <ele>104</ele>
        <time>2016-12-11T07:42:52.429Z</time>
      </trkpt>
      <trkpt lat="48.02689" lon="2.74723">
        <ele>104</ele>
        <time>2016-12-11T07:42:53.426Z</time>
      </trkpt>
      <trkpt lat="48.02698" lon="2.74724">
        <ele>105</ele>
        <time>2016-12-11T07:42:54.425Z</time>
      </trkpt>
      <trkpt lat="48.02702" lon="2.74724">
        <ele>105</ele>
        <time>2016-12-11T07:42:55.428Z</time>
      </trkpt>
      <trkpt lat="48.02706" lon="2.74724">
        <ele>106</ele>
        <time>2016-12-11T07:42:56.429Z</time>
      </trkpt>
      <trkpt lat="48.02706" lon="2.74724">
        <ele>106</ele>
        <time>2016-12-11T07:42:57.426Z</time>
      </trkpt>
      <trkpt lat="48.02714" lon="2.74725">
        <ele>105</ele>
        <time>2016-12-11T07:42:58.428Z</time>
      </trkpt>
      <trkpt lat="48.02718" lon="2.74726">
        <ele>105</ele>
        <time>2016-12-11T07:42:59.428Z</time>
      </trkpt>
      <trkpt lat="48.02718" lon="2.74726">
        <ele>105</ele>
        <time>2016-12-11T07:43:00.424Z</time>
      </trkpt>
      <trkpt lat="48.02727" lon="2.74726">
        <ele>104</ele>
        <time>2016-12-11T07:43:01.436Z</time>
      </trkpt>
      <trkpt lat="48.02731" lon="2.74727">
        <ele>105</ele>
        <time>2016-12-11T07:43:02.402Z</time>
      </trkpt>
      <trkpt lat="48.02731" lon="2.74727">
        <ele>105</ele>
        <time>2016-12-11T07:43:03.430Z</time>
      </trkpt>
      <trkpt lat="48.02741" lon="2.74728">
        <ele>105</ele>
        <time>2016-12-11T07:43:04.432Z</time>
      </trkpt>
      <trkpt lat="48.02745" lon="2.74728">
        <ele>105</ele>
        <time>2016-12-11T07:43:05.425Z</time>
      </trkpt>
      <trkpt lat="48.02749" lon="2.74729">
        <ele>106</ele>
        <time>2016-12-11T07:43:06.400Z</time>
      </trkpt>
      <trkpt lat="48.02749" lon="2.74729">
        <ele>106</ele>
        <time>2016-12-11T07:43:07.430Z</time>
      </trkpt>
      <trkpt lat="48.02758" lon="2.7473">
        <ele>106</ele>
        <time>2016-12-11T07:43:08.429Z</time>
      </trkpt>
      <trkpt lat="48.02758" lon="2.7473">
        <ele>106</ele>
        <time>2016-12-11T07:43:09.428Z</time>
      </trkpt>
      <trkpt lat="48.02766" lon="2.7473">
        <ele>107</ele>
        <time>2016-12-11T07:43:10.429Z</time>
      </trkpt>
      <trkpt lat="48.02766" lon="2.7473">
        <ele>107</ele>
        <time>2016-12-11T07:43:11.433Z</time>
      </trkpt>
      <trkpt lat="48.02774" lon="2.74729">
        <ele>106</ele>
        <time>2016-12-11T07:43:12.429Z</time>
      </trkpt>
      <trkpt lat="48.02774" lon="2.74729">
        <ele>106</ele>
        <time>2016-12-11T07:43:13.426Z</time>
      </trkpt>
      <trkpt lat="48.02783" lon="2.7473">
        <ele>107</ele>
        <time>2016-12-11T07:43:14.432Z</time>
      </trkpt>
      <trkpt lat="48.02788" lon="2.7473">
        <ele>108</ele>
        <time>2016-12-11T07:43:15.430Z</time>
      </trkpt>
      <trkpt lat="48.02788" lon="2.7473">
        <ele>108</ele>
        <time>2016-12-11T07:43:16.426Z</time>
      </trkpt>
      <trkpt lat="48.02797" lon="2.7473">
        <ele>108</ele>
        <time>2016-12-11T07:43:17.429Z</time>
      </trkpt>
      <trkpt lat="48.02802" lon="2.7473">
        <ele>107</ele>
        <time>2016-12-11T07:43:18.406Z</time>
      </trkpt>
      <trkpt lat="48.02807" lon="2.74731">
        <ele>107</ele>
        <time>2016-12-11T07:43:19.398Z</time>
      </trkpt>
      <trkpt lat="48.02807" lon="2.74731">
        <ele>107</ele>
        <time>2016-12-11T07:43:20.427Z</time>
      </trkpt>
      <trkpt lat="48.02816" lon="2.74732">
        <ele>107</ele>
        <time>2016-12-11T07:43:21.429Z</time>
      </trkpt>
      <trkpt lat="48.02816" lon="2.74732">
        <ele>107</ele>
        <time>2016-12-11T07:43:22.426Z</time>
      </trkpt>
      <trkpt lat="48.02824" lon="2.74732">
        <ele>107</ele>
        <time>2016-12-11T07:43:23.429Z</time>
      </trkpt>
      <trkpt lat="48.02824" lon="2.74732">
        <ele>107</ele>
        <time>2016-12-11T07:43:24.396Z</time>
      </trkpt>
      <trkpt lat="48.02831" lon="2.74734">
        <ele>106</ele>
        <time>2016-12-11T07:43:25.425Z</time>
      </trkpt>
      <trkpt lat="48.02834" lon="2.74737">
        <ele>103</ele>
        <time>2016-12-11T07:43:26.430Z</time>
      </trkpt>
      <trkpt lat="48.02834" lon="2.74737">
        <ele>103</ele>
        <time>2016-12-11T07:43:27.424Z</time>
      </trkpt>
      <trkpt lat="48.02837" lon="2.74746">
        <ele>100</ele>
        <time>2016-12-11T07:43:28.425Z</time>
      </trkpt>
      <trkpt lat="48.02837" lon="2.74746">
        <ele>100</ele>
        <time>2016-12-11T07:43:29.425Z</time>
      </trkpt>
      <trkpt lat="48.02839" lon="2.74754">
        <ele>100</ele>
        <time>2016-12-11T07:43:30.430Z</time>
      </trkpt>
      <trkpt lat="48.02839" lon="2.74754">
        <ele>100</ele>
        <time>2016-12-11T07:43:31.426Z</time>
      </trkpt>
      <trkpt lat="48.02841" lon="2.74762">
        <ele>102</ele>
        <time>2016-12-11T07:43:32.429Z</time>
      </trkpt>
      <trkpt lat="48.02841" lon="2.74762">
        <ele>102</ele>
        <time>2016-12-11T07:43:33.428Z</time>
      </trkpt>
      <trkpt lat="48.02842" lon="2.7477">
        <ele>102</ele>
        <time>2016-12-11T07:43:34.434Z</time>
      </trkpt>
      <trkpt lat="48.02842" lon="2.7477">
        <ele>102</ele>
        <time>2016-12-11T07:43:35.425Z</time>
      </trkpt>
      <trkpt lat="48.02844" lon="2.74778">
        <ele>101</ele>
        <time>2016-12-11T07:43:36.431Z</time>
      </trkpt>
      <trkpt lat="48.02844" lon="2.74778">
        <ele>101</ele>
        <time>2016-12-11T07:43:37.425Z</time>
      </trkpt>
      <trkpt lat="48.02845" lon="2.74785">
        <ele>101</ele>
        <time>2016-12-11T07:43:38.430Z</time>
      </trkpt>
      <trkpt lat="48.02845" lon="2.74785">
        <ele>101</ele>
        <time>2016-12-11T07:43:39.426Z</time>
      </trkpt>
      <trkpt lat="48.02846" lon="2.74793">
        <ele>101</ele>
        <time>2016-12-11T07:43:40.428Z</time>
      </trkpt>
      <trkpt lat="48.02847" lon="2.74797">
        <ele>101</ele>
        <time>2016-12-11T07:43:41.430Z</time>
      </trkpt>
      <trkpt lat="48.02847" lon="2.74797">
        <ele>101</ele>
        <time>2016-12-11T07:43:42.434Z</time>
      </trkpt>
      <trkpt lat="48.02849" lon="2.74804">
        <ele>101</ele>
        <time>2016-12-11T07:43:43.398Z</time>
      </trkpt>
      <trkpt lat="48.0285" lon="2.74808">
        <ele>101</ele>
        <time>2016-12-11T07:43:44.433Z</time>
      </trkpt>
      <trkpt lat="48.0285" lon="2.74808">
        <ele>101</ele>
        <time>2016-12-11T07:43:45.424Z</time>
      </trkpt>
      <trkpt lat="48.02851" lon="2.74814">
        <ele>100</ele>
        <time>2016-12-11T07:43:46.430Z</time>
      </trkpt>
      <trkpt lat="48.02851" lon="2.74814">
        <ele>100</ele>
        <time>2016-12-11T07:43:47.426Z</time>
      </trkpt>
      <trkpt lat="48.02852" lon="2.74822">
        <ele>100</ele>
        <time>2016-12-11T07:43:48.427Z</time>
      </trkpt>
      <trkpt lat="48.02853" lon="2.74826">
        <ele>101</ele>
        <time>2016-12-11T07:43:49.430Z</time>
      </trkpt>
      <trkpt lat="48.02855" lon="2.74829">
        <ele>100</ele>
        <time>2016-12-11T07:43:50.429Z</time>
      </trkpt>
      <trkpt lat="48.02855" lon="2.74829">
        <ele>100</ele>
        <time>2016-12-11T07:43:51.426Z</time>
      </trkpt>
      <trkpt lat="48.02855" lon="2.74837">
        <ele>101</ele>
        <time>2016-12-11T07:43:52.426Z</time>
      </trkpt>
      <trkpt lat="48.02855" lon="2.74837">
        <ele>101</ele>
        <time>2016-12-11T07:43:53.426Z</time>
      </trkpt>
      <trkpt lat="48.02854" lon="2.74847">
        <ele>101</ele>
        <time>2016-12-11T07:43:54.431Z</time>
      </trkpt>
      <trkpt lat="48.02854" lon="2.74847">
        <ele>101</ele>
        <time>2016-12-11T07:43:55.425Z</time>
      </trkpt>
      <trkpt lat="48.02855" lon="2.74856">
        <ele>101</ele>
        <time>2016-12-11T07:43:56.429Z</time>
      </trkpt>
      <trkpt lat="48.02855" lon="2.74856">
        <ele>101</ele>
        <time>2016-12-11T07:43:57.424Z</time>
      </trkpt>
      <trkpt lat="48.02857" lon="2.74865">
        <ele>101</ele>
        <time>2016-12-11T07:43:58.429Z</time>
      </trkpt>
      <trkpt lat="48.02857" lon="2.74865">
        <ele>101</ele>
        <time>2016-12-11T07:43:59.425Z</time>
      </trkpt>
      <trkpt lat="48.02859" lon="2.74873">
        <ele>102</ele>
        <time>2016-12-11T07:44:00.430Z</time>
      </trkpt>
      <trkpt lat="48.02859" lon="2.74873">
        <ele>102</ele>
        <time>2016-12-11T07:44:01.426Z</time>
      </trkpt>
      <trkpt lat="48.0286" lon="2.74882">
        <ele>102</ele>
        <time>2016-12-11T07:44:02.402Z</time>
      </trkpt>
      <trkpt lat="48.0286" lon="2.74882">
        <ele>102</ele>
        <time>2016-12-11T07:44:03.398Z</time>
      </trkpt>
      <trkpt lat="48.02861" lon="2.74891">
        <ele>103</ele>
        <time>2016-12-11T07:44:04.430Z</time>
      </trkpt>
      <trkpt lat="48.02861" lon="2.74891">
        <ele>103</ele>
        <time>2016-12-11T07:44:05.424Z</time>
      </trkpt>
      <trkpt lat="48.02863" lon="2.749">
        <ele>103</ele>
        <time>2016-12-11T07:44:06.430Z</time>
      </trkpt>
      <trkpt lat="48.02863" lon="2.749">
        <ele>103</ele>
        <time>2016-12-11T07:44:07.425Z</time>
      </trkpt>
      <trkpt lat="48.02864" lon="2.74908">
        <ele>103</ele>
        <time>2016-12-11T07:44:08.427Z</time>
      </trkpt>
      <trkpt lat="48.02864" lon="2.74908">
        <ele>103</ele>
        <time>2016-12-11T07:44:09.396Z</time>
      </trkpt>
      <trkpt lat="48.02864" lon="2.74918">
        <ele>104</ele>
        <time>2016-12-11T07:44:10.428Z</time>
      </trkpt>
      <trkpt lat="48.02864" lon="2.74918">
        <ele>104</ele>
        <time>2016-12-11T07:44:11.426Z</time>
      </trkpt>
      <trkpt lat="48.02865" lon="2.74927">
        <ele>104</ele>
        <time>2016-12-11T07:44:12.430Z</time>
      </trkpt>
      <trkpt lat="48.02865" lon="2.74927">
        <ele>104</ele>
        <time>2016-12-11T07:44:13.426Z</time>
      </trkpt>
      <trkpt lat="48.02864" lon="2.74936">
        <ele>105</ele>
        <time>2016-12-11T07:44:14.429Z</time>
      </trkpt>
      <trkpt lat="48.02864" lon="2.74936">
        <ele>105</ele>
        <time>2016-12-11T07:44:15.411Z</time>
      </trkpt>
      <trkpt lat="48.02864" lon="2.74945">
        <ele>105</ele>
        <time>2016-12-11T07:44:16.400Z</time>
      </trkpt>
      <trkpt lat="48.02864" lon="2.74945">
        <ele>105</ele>
        <time>2016-12-11T07:44:17.428Z</time>
      </trkpt>
      <trkpt lat="48.02866" lon="2.74953">
        <ele>106</ele>
        <time>2016-12-11T07:44:18.406Z</time>
      </trkpt>
      <trkpt lat="48.02866" lon="2.74953">
        <ele>106</ele>
        <time>2016-12-11T07:44:19.396Z</time>
      </trkpt>
      <trkpt lat="48.02867" lon="2.74961">
        <ele>107</ele>
        <time>2016-12-11T07:44:20.430Z</time>
      </trkpt>
      <trkpt lat="48.02867" lon="2.74961">
        <ele>107</ele>
        <time>2016-12-11T07:44:21.426Z</time>
      </trkpt>
      <trkpt lat="48.02868" lon="2.74971">
        <ele>107</ele>
        <time>2016-12-11T07:44:22.407Z</time>
      </trkpt>
      <trkpt lat="48.02868" lon="2.74975">
        <ele>108</ele>
        <time>2016-12-11T07:44:23.398Z</time>
      </trkpt>
      <trkpt lat="48.02868" lon="2.74975">
        <ele>108</ele>
        <time>2016-12-11T07:44:24.427Z</time>
      </trkpt>
      <trkpt lat="48.02868" lon="2.74985">
        <ele>108</ele>
        <time>2016-12-11T07:44:25.429Z</time>
      </trkpt>
      <trkpt lat="48.02869" lon="2.7499">
        <ele>108</ele>
        <time>2016-12-11T07:44:26.429Z</time>
      </trkpt>
      <trkpt lat="48.02869" lon="2.7499">
        <ele>108</ele>
        <time>2016-12-11T07:44:27.427Z</time>
      </trkpt>
      <trkpt lat="48.02869" lon="2.74999">
        <ele>109</ele>
        <time>2016-12-11T07:44:28.429Z</time>
      </trkpt>
      <trkpt lat="48.02869" lon="2.74999">
        <ele>109</ele>
        <time>2016-12-11T07:44:29.425Z</time>
      </trkpt>
      <trkpt lat="48.02869" lon="2.75009">
        <ele>109</ele>
        <time>2016-12-11T07:44:30.430Z</time>
      </trkpt>
      <trkpt lat="48.02869" lon="2.75009">
        <ele>109</ele>
        <time>2016-12-11T07:44:31.426Z</time>
      </trkpt>
      <trkpt lat="48.02871" lon="2.75017">
        <ele>109</ele>
        <time>2016-12-11T07:44:32.430Z</time>
      </trkpt>
      <trkpt lat="48.02871" lon="2.75017">
        <ele>109</ele>
        <time>2016-12-11T07:44:33.423Z</time>
      </trkpt>
      <trkpt lat="48.0287" lon="2.75025">
        <ele>109</ele>
        <time>2016-12-11T07:44:34.430Z</time>
      </trkpt>
      <trkpt lat="48.0287" lon="2.75025">
        <ele>109</ele>
        <time>2016-12-11T07:44:35.427Z</time>
      </trkpt>
      <trkpt lat="48.02871" lon="2.75033">
        <ele>109</ele>
        <time>2016-12-11T07:44:36.431Z</time>
      </trkpt>
      <trkpt lat="48.02871" lon="2.75033">
        <ele>109</ele>
        <time>2016-12-11T07:44:37.425Z</time>
      </trkpt>
      <trkpt lat="48.02873" lon="2.75043">
        <ele>110</ele>
        <time>2016-12-11T07:44:38.430Z</time>
      </trkpt>
      <trkpt lat="48.02873" lon="2.75043">
        <ele>110</ele>
        <time>2016-12-11T07:44:39.426Z</time>
      </trkpt>
      <trkpt lat="48.02875" lon="2.75052">
        <ele>110</ele>
        <time>2016-12-11T07:44:40.429Z</time>
      </trkpt>
      <trkpt lat="48.02875" lon="2.75052">
        <ele>110</ele>
        <time>2016-12-11T07:44:41.426Z</time>
      </trkpt>
      <trkpt lat="48.02876" lon="2.75062">
        <ele>110</ele>
        <time>2016-12-11T07:44:42.430Z</time>
      </trkpt>
      <trkpt lat="48.02876" lon="2.75062">
        <ele>110</ele>
        <time>2016-12-11T07:44:43.429Z</time>
      </trkpt>
      <trkpt lat="48.02878" lon="2.75072">
        <ele>110</ele>
        <time>2016-12-11T07:44:44.430Z</time>
      </trkpt>
      <trkpt lat="48.02878" lon="2.75072">
        <ele>110</ele>
        <time>2016-12-11T07:44:45.429Z</time>
      </trkpt>
      <trkpt lat="48.02879" lon="2.75082">
        <ele>110</ele>
        <time>2016-12-11T07:44:46.426Z</time>
      </trkpt>
      <trkpt lat="48.02879" lon="2.75082">
        <ele>110</ele>
        <time>2016-12-11T07:44:47.425Z</time>
      </trkpt>
      <trkpt lat="48.02882" lon="2.75089">
        <ele>111</ele>
        <time>2016-12-11T07:44:48.431Z</time>
      </trkpt>
      <trkpt lat="48.02882" lon="2.75089">
        <ele>111</ele>
        <time>2016-12-11T07:44:49.424Z</time>
      </trkpt>
      <trkpt lat="48.02889" lon="2.75087">
        <ele>111</ele>
        <time>2016-12-11T07:44:50.430Z</time>
      </trkpt>
      <trkpt lat="48.02889" lon="2.75087">
        <ele>111</ele>
        <time>2016-12-11T07:44:51.436Z</time>
      </trkpt>
      <trkpt lat="48.02896" lon="2.75083">
        <ele>110</ele>
        <time>2016-12-11T07:44:52.401Z</time>
      </trkpt>
      <trkpt lat="48.02896" lon="2.75083">
        <ele>110</ele>
        <time>2016-12-11T07:44:53.432Z</time>
      </trkpt>
      <trkpt lat="48.02902" lon="2.75082">
        <ele>110</ele>
        <time>2016-12-11T07:44:54.431Z</time>
      </trkpt>
      <trkpt lat="48.02902" lon="2.75082">
        <ele>110</ele>
        <time>2016-12-11T07:44:55.431Z</time>
      </trkpt>
      <trkpt lat="48.02909" lon="2.75079">
        <ele>111</ele>
        <time>2016-12-11T07:44:56.430Z</time>
      </trkpt>
      <trkpt lat="48.02909" lon="2.75079">
        <ele>111</ele>
        <time>2016-12-11T07:44:57.425Z</time>
      </trkpt>
      <trkpt lat="48.02917" lon="2.75076">
        <ele>111</ele>
        <time>2016-12-11T07:44:58.429Z</time>
      </trkpt>
      <trkpt lat="48.02917" lon="2.75076">
        <ele>111</ele>
        <time>2016-12-11T07:44:59.423Z</time>
      </trkpt>
      <trkpt lat="48.02925" lon="2.75073">
        <ele>111</ele>
        <time>2016-12-11T07:45:00.431Z</time>
      </trkpt>
      <trkpt lat="48.02925" lon="2.75073">
        <ele>111</ele>
        <time>2016-12-11T07:45:01.426Z</time>
      </trkpt>
      <trkpt lat="48.02934" lon="2.75069">
        <ele>110</ele>
        <time>2016-12-11T07:45:02.430Z</time>
      </trkpt>
      <trkpt lat="48.02934" lon="2.75069">
        <ele>110</ele>
        <time>2016-12-11T07:45:03.424Z</time>
      </trkpt>
      <trkpt lat="48.02942" lon="2.75065">
        <ele>109</ele>
        <time>2016-12-11T07:45:04.429Z</time>
      </trkpt>
      <trkpt lat="48.02942" lon="2.75065">
        <ele>109</ele>
        <time>2016-12-11T07:45:05.427Z</time>
      </trkpt>
      <trkpt lat="48.02951" lon="2.7506">
        <ele>108</ele>
        <time>2016-12-11T07:45:06.431Z</time>
      </trkpt>
      <trkpt lat="48.02951" lon="2.7506">
        <ele>108</ele>
        <time>2016-12-11T07:45:07.425Z</time>
      </trkpt>
      <trkpt lat="48.02961" lon="2.75056">
        <ele>108</ele>
        <time>2016-12-11T07:45:08.431Z</time>
      </trkpt>
      <trkpt lat="48.02961" lon="2.75056">
        <ele>108</ele>
        <time>2016-12-11T07:45:09.423Z</time>
      </trkpt>
      <trkpt lat="48.02971" lon="2.75052">
        <ele>106</ele>
        <time>2016-12-11T07:45:10.426Z</time>
      </trkpt>
      <trkpt lat="48.02971" lon="2.75052">
        <ele>106</ele>
        <time>2016-12-11T07:45:11.426Z</time>
      </trkpt>
      <trkpt lat="48.0298" lon="2.75047">
        <ele>105</ele>
        <time>2016-12-11T07:45:12.427Z</time>
      </trkpt>
      <trkpt lat="48.0298" lon="2.75047">
        <ele>105</ele>
        <time>2016-12-11T07:45:13.428Z</time>
      </trkpt>
      <trkpt lat="48.0299" lon="2.75043">
        <ele>105</ele>
        <time>2016-12-11T07:45:14.430Z</time>
      </trkpt>
      <trkpt lat="48.0299" lon="2.75043">
        <ele>105</ele>
        <time>2016-12-11T07:45:15.430Z</time>
      </trkpt>
      <trkpt lat="48.03" lon="2.75039">
        <ele>105</ele>
        <time>2016-12-11T07:45:16.430Z</time>
      </trkpt>
      <trkpt lat="48.03" lon="2.75039">
        <ele>105</ele>
        <time>2016-12-11T07:45:17.427Z</time>
      </trkpt>
      <trkpt lat="48.03011" lon="2.75034">
        <ele>104</ele>
        <time>2016-12-11T07:45:18.407Z</time>
      </trkpt>
      <trkpt lat="48.03011" lon="2.75034">
        <ele>104</ele>
        <time>2016-12-11T07:45:19.399Z</time>
      </trkpt>
      <trkpt lat="48.0302" lon="2.75028">
        <ele>103</ele>
        <time>2016-12-11T07:45:20.430Z</time>
      </trkpt>
      <trkpt lat="48.0302" lon="2.75028">
        <ele>103</ele>
        <time>2016-12-11T07:45:21.426Z</time>
      </trkpt>
      <trkpt lat="48.03029" lon="2.75021">
        <ele>102</ele>
        <time>2016-12-11T07:45:22.426Z</time>
      </trkpt>
      <trkpt lat="48.03033" lon="2.75018">
        <ele>101</ele>
        <time>2016-12-11T07:45:23.430Z</time>
      </trkpt>
      <trkpt lat="48.03036" lon="2.75016">
        <ele>101</ele>
        <time>2016-12-11T07:45:24.429Z</time>
      </trkpt>
      <trkpt lat="48.03036" lon="2.75016">
        <ele>101</ele>
        <time>2016-12-11T07:45:25.423Z</time>
      </trkpt>
      <trkpt lat="48.0304" lon="2.75018">
        <ele>101</ele>
        <time>2016-12-11T07:45:26.430Z</time>
      </trkpt>
      <trkpt lat="48.0304" lon="2.75018">
        <ele>101</ele>
        <time>2016-12-11T07:45:27.424Z</time>
      </trkpt>
      <trkpt lat="48.03042" lon="2.75023">
        <ele>100</ele>
        <time>2016-12-11T07:45:28.430Z</time>
      </trkpt>
      <trkpt lat="48.03042" lon="2.75023">
        <ele>100</ele>
        <time>2016-12-11T07:45:29.423Z</time>
      </trkpt>
      <trkpt lat="48.03041" lon="2.75026">
        <ele>99</ele>
        <time>2016-12-11T07:45:30.431Z</time>
      </trkpt>
      <trkpt lat="48.03041" lon="2.75026">
        <ele>99</ele>
        <time>2016-12-11T07:45:31.426Z</time>
      </trkpt>
      <trkpt lat="48.0304" lon="2.75032">
        <ele>99</ele>
        <time>2016-12-11T07:45:32.429Z</time>
      </trkpt>
      <trkpt lat="48.0304" lon="2.75032">
        <ele>99</ele>
        <time>2016-12-11T07:45:33.424Z</time>
      </trkpt>
      <trkpt lat="48.0304" lon="2.7504">
        <ele>99</ele>
        <time>2016-12-11T07:45:34.426Z</time>
      </trkpt>
      <trkpt lat="48.0304" lon="2.7504">
        <ele>99</ele>
        <time>2016-12-11T07:45:35.423Z</time>
      </trkpt>
      <trkpt lat="48.0304" lon="2.75049">
        <ele>99</ele>
        <time>2016-12-11T07:45:36.430Z</time>
      </trkpt>
      <trkpt lat="48.0304" lon="2.75049">
        <ele>99</ele>
        <time>2016-12-11T07:45:37.425Z</time>
      </trkpt>
      <trkpt lat="48.03044" lon="2.75055">
        <ele>100</ele>
        <time>2016-12-11T07:45:38.432Z</time>
      </trkpt>
      <trkpt lat="48.03044" lon="2.75055">
        <ele>100</ele>
        <time>2016-12-11T07:45:39.426Z</time>
      </trkpt>
      <trkpt lat="48.03048" lon="2.75059">
        <ele>99</ele>
        <time>2016-12-11T07:45:40.429Z</time>
      </trkpt>
      <trkpt lat="48.03048" lon="2.75059">
        <ele>99</ele>
        <time>2016-12-11T07:45:41.428Z</time>
      </trkpt>
      <trkpt lat="48.03054" lon="2.75064">
        <ele>100</ele>
        <time>2016-12-11T07:45:42.403Z</time>
      </trkpt>
      <trkpt lat="48.03054" lon="2.75064">
        <ele>100</ele>
        <time>2016-12-11T07:45:43.434Z</time>
      </trkpt>
      <trkpt lat="48.03059" lon="2.75069">
        <ele>99</ele>
        <time>2016-12-11T07:45:44.430Z</time>
      </trkpt>
      <trkpt lat="48.03059" lon="2.75069">
        <ele>99</ele>
        <time>2016-12-11T07:45:45.423Z</time>
      </trkpt>
      <trkpt lat="48.03065" lon="2.75073">
        <ele>99</ele>
        <time>2016-12-11T07:45:46.430Z</time>
      </trkpt>
      <trkpt lat="48.03065" lon="2.75073">
        <ele>99</ele>
        <time>2016-12-11T07:45:47.425Z</time>
      </trkpt>
      <trkpt lat="48.03071" lon="2.75075">
        <ele>99</ele>
        <time>2016-12-11T07:45:48.434Z</time>
      </trkpt>
      <trkpt lat="48.03071" lon="2.75075">
        <ele>99</ele>
        <time>2016-12-11T07:45:49.423Z</time>
      </trkpt>
      <trkpt lat="48.03079" lon="2.75079">
        <ele>98</ele>
        <time>2016-12-11T07:45:50.427Z</time>
      </trkpt>
      <trkpt lat="48.03082" lon="2.75081">
        <ele>98</ele>
        <time>2016-12-11T07:45:51.432Z</time>
      </trkpt>
      <trkpt lat="48.03082" lon="2.75081">
        <ele>98</ele>
        <time>2016-12-11T07:45:52.423Z</time>
      </trkpt>
      <trkpt lat="48.0309" lon="2.75085">
        <ele>98</ele>
        <time>2016-12-11T07:45:53.426Z</time>
      </trkpt>
      <trkpt lat="48.03093" lon="2.75087">
        <ele>98</ele>
        <time>2016-12-11T07:45:54.431Z</time>
      </trkpt>
      <trkpt lat="48.03093" lon="2.75087">
        <ele>98</ele>
        <time>2016-12-11T07:45:55.424Z</time>
      </trkpt>
      <trkpt lat="48.03101" lon="2.75092">
        <ele>97</ele>
        <time>2016-12-11T07:45:56.431Z</time>
      </trkpt>
      <trkpt lat="48.03101" lon="2.75092">
        <ele>97</ele>
        <time>2016-12-11T07:45:57.425Z</time>
      </trkpt>
      <trkpt lat="48.03109" lon="2.751">
        <ele>97</ele>
        <time>2016-12-11T07:45:58.427Z</time>
      </trkpt>
      <trkpt lat="48.03109" lon="2.751">
        <ele>97</ele>
        <time>2016-12-11T07:45:59.424Z</time>
      </trkpt>
      <trkpt lat="48.03116" lon="2.75105">
        <ele>96</ele>
        <time>2016-12-11T07:46:00.431Z</time>
      </trkpt>
      <trkpt lat="48.03116" lon="2.75105">
        <ele>96</ele>
        <time>2016-12-11T07:46:01.426Z</time>
      </trkpt>
      <trkpt lat="48.03123" lon="2.75108">
        <ele>95</ele>
        <time>2016-12-11T07:46:02.430Z</time>
      </trkpt>
      <trkpt lat="48.03123" lon="2.75108">
        <ele>95</ele>
        <time>2016-12-11T07:46:03.424Z</time>
      </trkpt>
      <trkpt lat="48.03128" lon="2.75113">
        <ele>95</ele>
        <time>2016-12-11T07:46:04.430Z</time>
      </trkpt>
      <trkpt lat="48.03128" lon="2.75113">
        <ele>95</ele>
        <time>2016-12-11T07:46:05.423Z</time>
      </trkpt>
      <trkpt lat="48.03133" lon="2.75117">
        <ele>94</ele>
        <time>2016-12-11T07:46:06.423Z</time>
      </trkpt>
      <trkpt lat="48.03137" lon="2.7512">
        <ele>94</ele>
        <time>2016-12-11T07:46:07.429Z</time>
      </trkpt>
      <trkpt lat="48.03141" lon="2.75123">
        <ele>94</ele>
        <time>2016-12-11T07:46:08.429Z</time>
      </trkpt>
      <trkpt lat="48.03141" lon="2.75123">
        <ele>94</ele>
        <time>2016-12-11T07:46:09.424Z</time>
      </trkpt>
      <trkpt lat="48.03149" lon="2.75129">
        <ele>93</ele>
        <time>2016-12-11T07:46:10.430Z</time>
      </trkpt>
      <trkpt lat="48.03154" lon="2.75132">
        <ele>93</ele>
        <time>2016-12-11T07:46:11.431Z</time>
      </trkpt>
      <trkpt lat="48.03157" lon="2.75135">
        <ele>92</ele>
        <time>2016-12-11T07:46:12.432Z</time>
      </trkpt>
      <trkpt lat="48.03157" lon="2.75135">
        <ele>92</ele>
        <time>2016-12-11T07:46:13.424Z</time>
      </trkpt>
      <trkpt lat="48.03163" lon="2.75138">
        <ele>92</ele>
        <time>2016-12-11T07:46:14.430Z</time>
      </trkpt>
      <trkpt lat="48.03163" lon="2.75138">
        <ele>92</ele>
        <time>2016-12-11T07:46:15.424Z</time>
      </trkpt>
      <trkpt lat="48.0317" lon="2.75142">
        <ele>91</ele>
        <time>2016-12-11T07:46:16.423Z</time>
      </trkpt>
      <trkpt lat="48.03173" lon="2.75144">
        <ele>91</ele>
        <time>2016-12-11T07:46:17.402Z</time>
      </trkpt>
      <trkpt lat="48.03177" lon="2.75146">
        <ele>90</ele>
        <time>2016-12-11T07:46:18.431Z</time>
      </trkpt>
      <trkpt lat="48.03177" lon="2.75146">
        <ele>90</ele>
        <time>2016-12-11T07:46:19.425Z</time>
      </trkpt>
      <trkpt lat="48.03185" lon="2.75152">
        <ele>90</ele>
        <time>2016-12-11T07:46:20.430Z</time>
      </trkpt>
      <trkpt lat="48.03185" lon="2.75152">
        <ele>90</ele>
        <time>2016-12-11T07:46:21.426Z</time>
      </trkpt>
      <trkpt lat="48.03191" lon="2.75158">
        <ele>90</ele>
        <time>2016-12-11T07:46:22.429Z</time>
      </trkpt>
      <trkpt lat="48.03195" lon="2.75161">
        <ele>90</ele>
        <time>2016-12-11T07:46:23.430Z</time>
      </trkpt>
      <trkpt lat="48.03198" lon="2.75164">
        <ele>89</ele>
        <time>2016-12-11T07:46:24.431Z</time>
      </trkpt>
      <trkpt lat="48.03198" lon="2.75164">
        <ele>89</ele>
        <time>2016-12-11T07:46:25.424Z</time>
      </trkpt>
      <trkpt lat="48.03206" lon="2.75168">
        <ele>89</ele>
        <time>2016-12-11T07:46:26.430Z</time>
      </trkpt>
      <trkpt lat="48.0321" lon="2.75171">
        <ele>89</ele>
        <time>2016-12-11T07:46:27.426Z</time>
      </trkpt>
      <trkpt lat="48.0321" lon="2.75171">
        <ele>89</ele>
        <time>2016-12-11T07:46:28.426Z</time>
      </trkpt>
      <trkpt lat="48.03217" lon="2.75177">
        <ele>88</ele>
        <time>2016-12-11T07:46:29.429Z</time>
      </trkpt>
      <trkpt lat="48.0322" lon="2.75181">
        <ele>87</ele>
        <time>2016-12-11T07:46:30.430Z</time>
      </trkpt>
      <trkpt lat="48.0322" lon="2.75181">
        <ele>87</ele>
        <time>2016-12-11T07:46:31.426Z</time>
      </trkpt>
      <trkpt lat="48.0323" lon="2.75187">
        <ele>86</ele>
        <time>2016-12-11T07:46:32.428Z</time>
      </trkpt>
      <trkpt lat="48.03236" lon="2.7519">
        <ele>86</ele>
        <time>2016-12-11T07:46:33.430Z</time>
      </trkpt>
      <trkpt lat="48.03236" lon="2.7519">
        <ele>86</ele>
        <time>2016-12-11T07:46:34.424Z</time>
      </trkpt>
      <trkpt lat="48.03246" lon="2.75196">
        <ele>85</ele>
        <time>2016-12-11T07:46:35.429Z</time>
      </trkpt>
      <trkpt lat="48.03252" lon="2.75198">
        <ele>85</ele>
        <time>2016-12-11T07:46:36.433Z</time>
      </trkpt>
      <trkpt lat="48.03252" lon="2.75198">
        <ele>85</ele>
        <time>2016-12-11T07:46:37.424Z</time>
      </trkpt>
      <trkpt lat="48.03262" lon="2.75204">
        <ele>85</ele>
        <time>2016-12-11T07:46:38.430Z</time>
      </trkpt>
      <trkpt lat="48.03262" lon="2.75204">
        <ele>85</ele>
        <time>2016-12-11T07:46:39.424Z</time>
      </trkpt>
      <trkpt lat="48.03269" lon="2.75208">
        <ele>84</ele>
        <time>2016-12-11T07:46:40.429Z</time>
      </trkpt>
      <trkpt lat="48.03269" lon="2.75208">
        <ele>84</ele>
        <time>2016-12-11T07:46:41.426Z</time>
      </trkpt>
      <trkpt lat="48.03276" lon="2.75206">
        <ele>84</ele>
        <time>2016-12-11T07:46:42.432Z</time>
      </trkpt>
      <trkpt lat="48.03276" lon="2.75206">
        <ele>84</ele>
        <time>2016-12-11T07:46:43.427Z</time>
      </trkpt>
      <trkpt lat="48.03283" lon="2.75205">
        <ele>84</ele>
        <time>2016-12-11T07:46:44.429Z</time>
      </trkpt>
      <trkpt lat="48.03283" lon="2.75205">
        <ele>84</ele>
        <time>2016-12-11T07:46:45.424Z</time>
      </trkpt>
      <trkpt lat="48.03291" lon="2.75203">
        <ele>84</ele>
        <time>2016-12-11T07:46:46.396Z</time>
      </trkpt>
      <trkpt lat="48.03291" lon="2.75203">
        <ele>84</ele>
        <time>2016-12-11T07:46:47.425Z</time>
      </trkpt>
      <trkpt lat="48.03297" lon="2.75196">
        <ele>84</ele>
        <time>2016-12-11T07:46:48.432Z</time>
      </trkpt>
      <trkpt lat="48.03297" lon="2.75196">
        <ele>84</ele>
        <time>2016-12-11T07:46:49.425Z</time>
      </trkpt>
      <trkpt lat="48.033" lon="2.75187">
        <ele>84</ele>
        <time>2016-12-11T07:46:50.427Z</time>
      </trkpt>
      <trkpt lat="48.03302" lon="2.75183">
        <ele>84</ele>
        <time>2016-12-11T07:46:51.431Z</time>
      </trkpt>
      <trkpt lat="48.03302" lon="2.75183">
        <ele>84</ele>
        <time>2016-12-11T07:46:52.424Z</time>
      </trkpt>
      <trkpt lat="48.03303" lon="2.75176">
        <ele>83</ele>
        <time>2016-12-11T07:46:53.430Z</time>
      </trkpt>
      <trkpt lat="48.03303" lon="2.75176">
        <ele>83</ele>
        <time>2016-12-11T07:46:54.426Z</time>
      </trkpt>
      <trkpt lat="48.03304" lon="2.7517">
        <ele>83</ele>
        <time>2016-12-11T07:46:55.430Z</time>
      </trkpt>
      <trkpt lat="48.03306" lon="2.75167">
        <ele>83</ele>
        <time>2016-12-11T07:46:56.431Z</time>
      </trkpt>
      <trkpt lat="48.03306" lon="2.75167">
        <ele>83</ele>
        <time>2016-12-11T07:46:57.428Z</time>
      </trkpt>
      <trkpt lat="48.03309" lon="2.7516">
        <ele>83</ele>
        <time>2016-12-11T07:46:58.430Z</time>
      </trkpt>
      <trkpt lat="48.03311" lon="2.75156">
        <ele>83</ele>
        <time>2016-12-11T07:46:59.429Z</time>
      </trkpt>
      <trkpt lat="48.03314" lon="2.75152">
        <ele>83</ele>
        <time>2016-12-11T07:47:00.430Z</time>
      </trkpt>
      <trkpt lat="48.03314" lon="2.75152">
        <ele>83</ele>
        <time>2016-12-11T07:47:01.426Z</time>
      </trkpt>
      <trkpt lat="48.03315" lon="2.75144">
        <ele>82</ele>
        <time>2016-12-11T07:47:02.431Z</time>
      </trkpt>
      <trkpt lat="48.03315" lon="2.75144">
        <ele>82</ele>
        <time>2016-12-11T07:47:03.424Z</time>
      </trkpt>
      <trkpt lat="48.03313" lon="2.75135">
        <ele>82</ele>
        <time>2016-12-11T07:47:04.429Z</time>
      </trkpt>
      <trkpt lat="48.03309" lon="2.75132">
        <ele>82</ele>
        <time>2016-12-11T07:47:05.430Z</time>
      </trkpt>
      <trkpt lat="48.03305" lon="2.75131">
        <ele>82</ele>
        <time>2016-12-11T07:47:06.429Z</time>
      </trkpt>
      <trkpt lat="48.03305" lon="2.75131">
        <ele>82</ele>
        <time>2016-12-11T07:47:07.424Z</time>
      </trkpt>
      <trkpt lat="48.03298" lon="2.75131">
        <ele>83</ele>
        <time>2016-12-11T07:47:08.430Z</time>
      </trkpt>
      <trkpt lat="48.03298" lon="2.75131">
        <ele>83</ele>
        <time>2016-12-11T07:47:09.435Z</time>
      </trkpt>
      <trkpt lat="48.03293" lon="2.75132">
        <ele>84</ele>
        <time>2016-12-11T07:47:10.430Z</time>
      </trkpt>
      <trkpt lat="48.03291" lon="2.75131">
        <ele>84</ele>
        <time>2016-12-11T07:47:11.431Z</time>
      </trkpt>
      <trkpt lat="48.03291" lon="2.75131">
        <ele>84</ele>
        <time>2016-12-11T07:47:12.426Z</time>
      </trkpt>
      <trkpt lat="48.03286" lon="2.7513">
        <ele>85</ele>
        <time>2016-12-11T07:47:13.430Z</time>
      </trkpt>
      <trkpt lat="48.03286" lon="2.7513">
        <ele>85</ele>
        <time>2016-12-11T07:47:14.425Z</time>
      </trkpt>
      <trkpt lat="48.03284" lon="2.75125">
        <ele>85</ele>
        <time>2016-12-11T07:47:15.430Z</time>
      </trkpt>
      <trkpt lat="48.03284" lon="2.75125">
        <ele>85</ele>
        <time>2016-12-11T07:47:16.424Z</time>
      </trkpt>
      <trkpt lat="48.03284" lon="2.75121">
        <ele>85</ele>
        <time>2016-12-11T07:47:17.400Z</time>
      </trkpt>
      <trkpt lat="48.03285" lon="2.75118">
        <ele>85</ele>
        <time>2016-12-11T07:47:18.431Z</time>
      </trkpt>
      <trkpt lat="48.03285" lon="2.75118">
        <ele>85</ele>
        <time>2016-12-11T07:47:19.426Z</time>
      </trkpt>
      <trkpt lat="48.03287" lon="2.7511">
        <ele>85</ele>
        <time>2016-12-11T07:47:20.430Z</time>
      </trkpt>
      <trkpt lat="48.03288" lon="2.75104">
        <ele>85</ele>
        <time>2016-12-11T07:47:21.435Z</time>
      </trkpt>
      <trkpt lat="48.03288" lon="2.75104">
        <ele>85</ele>
        <time>2016-12-11T07:47:22.425Z</time>
      </trkpt>
      <trkpt lat="48.03292" lon="2.75092">
        <ele>86</ele>
        <time>2016-12-11T07:47:23.427Z</time>
      </trkpt>
      <trkpt lat="48.03293" lon="2.75084">
        <ele>86</ele>
        <time>2016-12-11T07:47:24.431Z</time>
      </trkpt>
      <trkpt lat="48.03293" lon="2.75084">
        <ele>86</ele>
        <time>2016-12-11T07:47:25.424Z</time>
      </trkpt>
      <trkpt lat="48.03296" lon="2.75069">
        <ele>86</ele>
        <time>2016-12-11T07:47:26.430Z</time>
      </trkpt>
      <trkpt lat="48.03296" lon="2.75069">
        <ele>86</ele>
        <time>2016-12-11T07:47:27.427Z</time>
      </trkpt>
      <trkpt lat="48.03298" lon="2.75056">
        <ele>85</ele>
        <time>2016-12-11T07:47:28.430Z</time>
      </trkpt>
      <trkpt lat="48.03299" lon="2.7505">
        <ele>85</ele>
        <time>2016-12-11T07:47:29.430Z</time>
      </trkpt>
      <trkpt lat="48.033" lon="2.75044">
        <ele>86</ele>
        <time>2016-12-11T07:47:30.432Z</time>
      </trkpt>
      <trkpt lat="48.033" lon="2.75044">
        <ele>86</ele>
        <time>2016-12-11T07:47:31.426Z</time>
      </trkpt>
      <trkpt lat="48.03299" lon="2.75035">
        <ele>86</ele>
        <time>2016-12-11T07:47:32.405Z</time>
      </trkpt>
      <trkpt lat="48.03299" lon="2.75035">
        <ele>86</ele>
        <time>2016-12-11T07:47:33.434Z</time>
      </trkpt>
      <trkpt lat="48.03296" lon="2.75029">
        <ele>86</ele>
        <time>2016-12-11T07:47:34.429Z</time>
      </trkpt>
      <trkpt lat="48.03294" lon="2.75028">
        <ele>86</ele>
        <time>2016-12-11T07:47:35.430Z</time>
      </trkpt>
      <trkpt lat="48.03294" lon="2.75028">
        <ele>86</ele>
        <time>2016-12-11T07:47:36.426Z</time>
      </trkpt>
      <trkpt lat="48.03291" lon="2.75022">
        <ele>86</ele>
        <time>2016-12-11T07:47:37.430Z</time>
      </trkpt>
      <trkpt lat="48.03288" lon="2.7502">
        <ele>86</ele>
        <time>2016-12-11T07:47:38.431Z</time>
      </trkpt>
      <trkpt lat="48.03288" lon="2.7502">
        <ele>86</ele>
        <time>2016-12-11T07:47:39.425Z</time>
      </trkpt>
      <trkpt lat="48.03283" lon="2.75014">
        <ele>86</ele>
        <time>2016-12-11T07:47:40.429Z</time>
      </trkpt>
      <trkpt lat="48.03283" lon="2.75014">
        <ele>86</ele>
        <time>2016-12-11T07:47:41.426Z</time>
      </trkpt>
      <trkpt lat="48.03275" lon="2.75007">
        <ele>86</ele>
        <time>2016-12-11T07:47:42.431Z</time>
      </trkpt>
      <trkpt lat="48.03275" lon="2.75007">
        <ele>86</ele>
        <time>2016-12-11T07:47:43.435Z</time>
      </trkpt>
      <trkpt lat="48.03268" lon="2.75001">
        <ele>86</ele>
        <time>2016-12-11T07:47:44.430Z</time>
      </trkpt>
      <trkpt lat="48.03268" lon="2.75001">
        <ele>86</ele>
        <time>2016-12-11T07:47:45.425Z</time>
      </trkpt>
      <trkpt lat="48.03265" lon="2.74996">
        <ele>86</ele>
        <time>2016-12-11T07:47:46.430Z</time>
      </trkpt>
      <trkpt lat="48.03265" lon="2.74996">
        <ele>86</ele>
        <time>2016-12-11T07:47:47.428Z</time>
      </trkpt>
      <trkpt lat="48.03264" lon="2.74992">
        <ele>87</ele>
        <time>2016-12-11T07:47:48.433Z</time>
      </trkpt>
      <trkpt lat="48.03264" lon="2.74992">
        <ele>87</ele>
        <time>2016-12-11T07:47:49.425Z</time>
      </trkpt>
      <trkpt lat="48.03265" lon="2.7499">
        <ele>87</ele>
        <time>2016-12-11T07:47:50.430Z</time>
      </trkpt>
      <trkpt lat="48.03267" lon="2.74989">
        <ele>87</ele>
        <time>2016-12-11T07:47:51.430Z</time>
      </trkpt>
      <trkpt lat="48.03267" lon="2.74989">
        <ele>87</ele>
        <time>2016-12-11T07:47:52.425Z</time>
      </trkpt>
      <trkpt lat="48.03271" lon="2.74986">
        <ele>87</ele>
        <time>2016-12-11T07:47:53.430Z</time>
      </trkpt>
      <trkpt lat="48.03274" lon="2.74985">
        <ele>87</ele>
        <time>2016-12-11T07:47:54.431Z</time>
      </trkpt>
      <trkpt lat="48.03274" lon="2.74985">
        <ele>87</ele>
        <time>2016-12-11T07:47:55.426Z</time>
      </trkpt>
      <trkpt lat="48.03278" lon="2.74984">
        <ele>87</ele>
        <time>2016-12-11T07:47:56.405Z</time>
      </trkpt>
      <trkpt lat="48.03278" lon="2.74984">
        <ele>87</ele>
        <time>2016-12-11T07:47:57.424Z</time>
      </trkpt>
      <trkpt lat="48.03281" lon="2.74988">
        <ele>88</ele>
        <time>2016-12-11T07:47:58.430Z</time>
      </trkpt>
      <trkpt lat="48.03283" lon="2.7499">
        <ele>88</ele>
        <time>2016-12-11T07:47:59.430Z</time>
      </trkpt>
      <trkpt lat="48.03283" lon="2.7499">
        <ele>88</ele>
        <time>2016-12-11T07:48:00.428Z</time>
      </trkpt>
      <trkpt lat="48.03288" lon="2.74993">
        <ele>88</ele>
        <time>2016-12-11T07:48:01.432Z</time>
      </trkpt>
      <trkpt lat="48.03291" lon="2.74991">
        <ele>88</ele>
        <time>2016-12-11T07:48:02.431Z</time>
      </trkpt>
      <trkpt lat="48.03291" lon="2.74991">
        <ele>88</ele>
        <time>2016-12-11T07:48:03.425Z</time>
      </trkpt>
      <trkpt lat="48.03299" lon="2.74989">
        <ele>88</ele>
        <time>2016-12-11T07:48:04.430Z</time>
      </trkpt>
      <trkpt lat="48.03304" lon="2.7499">
        <ele>88</ele>
        <time>2016-12-11T07:48:05.430Z</time>
      </trkpt>
      <trkpt lat="48.03307" lon="2.74989">
        <ele>88</ele>
        <time>2016-12-11T07:48:06.431Z</time>
      </trkpt>
      <trkpt lat="48.03307" lon="2.74989">
        <ele>88</ele>
        <time>2016-12-11T07:48:07.426Z</time>
      </trkpt>
      <trkpt lat="48.03313" lon="2.74987">
        <ele>88</ele>
        <time>2016-12-11T07:48:08.430Z</time>
      </trkpt>
      <trkpt lat="48.03313" lon="2.74987">
        <ele>88</ele>
        <time>2016-12-11T07:48:09.428Z</time>
      </trkpt>
      <trkpt lat="48.03319" lon="2.74986">
        <ele>88</ele>
        <time>2016-12-11T07:48:10.431Z</time>
      </trkpt>
      <trkpt lat="48.03319" lon="2.74986">
        <ele>88</ele>
        <time>2016-12-11T07:48:11.434Z</time>
      </trkpt>
      <trkpt lat="48.03324" lon="2.74985">
        <ele>88</ele>
        <time>2016-12-11T07:48:12.431Z</time>
      </trkpt>
      <trkpt lat="48.03324" lon="2.74985">
        <ele>88</ele>
        <time>2016-12-11T07:48:13.424Z</time>
      </trkpt>
      <trkpt lat="48.03327" lon="2.74986">
        <ele>89</ele>
        <time>2016-12-11T07:48:14.430Z</time>
      </trkpt>
      <trkpt lat="48.03327" lon="2.74988">
        <ele>89</ele>
        <time>2016-12-11T07:48:15.430Z</time>
      </trkpt>
      <trkpt lat="48.03327" lon="2.74988">
        <ele>89</ele>
        <time>2016-12-11T07:48:16.426Z</time>
      </trkpt>
      <trkpt lat="48.03328" lon="2.74992">
        <ele>90</ele>
        <time>2016-12-11T07:48:17.434Z</time>
      </trkpt>
      <trkpt lat="48.03329" lon="2.74994">
        <ele>90</ele>
        <time>2016-12-11T07:48:18.430Z</time>
      </trkpt>
      <trkpt lat="48.03329" lon="2.74994">
        <ele>90</ele>
        <time>2016-12-11T07:48:19.426Z</time>
      </trkpt>
      <trkpt lat="48.03328" lon="2.74997">
        <ele>90</ele>
        <time>2016-12-11T07:48:20.431Z</time>
      </trkpt>
      <trkpt lat="48.03326" lon="2.75">
        <ele>90</ele>
        <time>2016-12-11T07:48:21.431Z</time>
      </trkpt>
      <trkpt lat="48.03326" lon="2.75">
        <ele>90</ele>
        <time>2016-12-11T07:48:22.425Z</time>
      </trkpt>
      <trkpt lat="48.03324" lon="2.75005">
        <ele>90</ele>
        <time>2016-12-11T07:48:23.429Z</time>
      </trkpt>
      <trkpt lat="48.03324" lon="2.75008">
        <ele>90</ele>
        <time>2016-12-11T07:48:24.432Z</time>
      </trkpt>
      <trkpt lat="48.03324" lon="2.75008">
        <ele>90</ele>
        <time>2016-12-11T07:48:25.428Z</time>
      </trkpt>
      <trkpt lat="48.03324" lon="2.75018">
        <ele>92</ele>
        <time>2016-12-11T07:48:26.431Z</time>
      </trkpt>
      <trkpt lat="48.03324" lon="2.75018">
        <ele>92</ele>
        <time>2016-12-11T07:48:27.401Z</time>
      </trkpt>
      <trkpt lat="48.03325" lon="2.75024">
        <ele>93</ele>
        <time>2016-12-11T07:48:28.431Z</time>
      </trkpt>
      <trkpt lat="48.03325" lon="2.75024">
        <ele>93</ele>
        <time>2016-12-11T07:48:29.425Z</time>
      </trkpt>
      <trkpt lat="48.03326" lon="2.75028">
        <ele>94</ele>
        <time>2016-12-11T07:48:30.431Z</time>
      </trkpt>
      <trkpt lat="48.03326" lon="2.75028">
        <ele>94</ele>
        <time>2016-12-11T07:48:31.441Z</time>
      </trkpt>
      <trkpt lat="48.03328" lon="2.75033">
        <ele>96</ele>
        <time>2016-12-11T07:48:32.407Z</time>
      </trkpt>
      <trkpt lat="48.03328" lon="2.75033">
        <ele>96</ele>
        <time>2016-12-11T07:48:33.435Z</time>
      </trkpt>
      <trkpt lat="48.03331" lon="2.75038">
        <ele>98</ele>
        <time>2016-12-11T07:48:34.429Z</time>
      </trkpt>
      <trkpt lat="48.03332" lon="2.7504">
        <ele>98</ele>
        <time>2016-12-11T07:48:35.432Z</time>
      </trkpt>
      <trkpt lat="48.03333" lon="2.75043">
        <ele>99</ele>
        <time>2016-12-11T07:48:36.432Z</time>
      </trkpt>
      <trkpt lat="48.03333" lon="2.75043">
        <ele>99</ele>
        <time>2016-12-11T07:48:37.396Z</time>
      </trkpt>
      <trkpt lat="48.03334" lon="2.75049">
        <ele>99</ele>
        <time>2016-12-11T07:48:38.431Z</time>
      </trkpt>
      <trkpt lat="48.03334" lon="2.75049">
        <ele>99</ele>
        <time>2016-12-11T07:48:39.424Z</time>
      </trkpt>
      <trkpt lat="48.03333" lon="2.75054">
        <ele>99</ele>
        <time>2016-12-11T07:48:40.429Z</time>
      </trkpt>
      <trkpt lat="48.03333" lon="2.75054">
        <ele>99</ele>
        <time>2016-12-11T07:48:41.432Z</time>
      </trkpt>
      <trkpt lat="48.03332" lon="2.75061">
        <ele>100</ele>
        <time>2016-12-11T07:48:42.428Z</time>
      </trkpt>
      <trkpt lat="48.03332" lon="2.75061">
        <ele>100</ele>
        <time>2016-12-11T07:48:43.434Z</time>
      </trkpt>
      <trkpt lat="48.03332" lon="2.75068">
        <ele>102</ele>
        <time>2016-12-11T07:48:44.431Z</time>
      </trkpt>
      <trkpt lat="48.03332" lon="2.75068">
        <ele>102</ele>
        <time>2016-12-11T07:48:45.425Z</time>
      </trkpt>
      <trkpt lat="48.03332" lon="2.75071">
        <ele>102</ele>
        <time>2016-12-11T07:48:46.430Z</time>
      </trkpt>
      <trkpt lat="48.03332" lon="2.75071">
        <ele>102</ele>
        <time>2016-12-11T07:48:47.432Z</time>
      </trkpt>
      <trkpt lat="48.03335" lon="2.75072">
        <ele>103</ele>
        <time>2016-12-11T07:48:48.433Z</time>
      </trkpt>
      <trkpt lat="48.03335" lon="2.75072">
        <ele>103</ele>
        <time>2016-12-11T07:48:49.428Z</time>
      </trkpt>
      <trkpt lat="48.03338" lon="2.75074">
        <ele>104</ele>
        <time>2016-12-11T07:48:50.431Z</time>
      </trkpt>
      <trkpt lat="48.03338" lon="2.75074">
        <ele>104</ele>
        <time>2016-12-11T07:48:51.426Z</time>
      </trkpt>
      <trkpt lat="48.03343" lon="2.75075">
        <ele>105</ele>
        <time>2016-12-11T07:48:52.431Z</time>
      </trkpt>
      <trkpt lat="48.03345" lon="2.75076">
        <ele>105</ele>
        <time>2016-12-11T07:48:53.431Z</time>
      </trkpt>
      <trkpt lat="48.03345" lon="2.75076">
        <ele>105</ele>
        <time>2016-12-11T07:48:54.427Z</time>
      </trkpt>
      <trkpt lat="48.03348" lon="2.75078">
        <ele>105</ele>
        <time>2016-12-11T07:48:55.431Z</time>
      </trkpt>
      <trkpt lat="48.03349" lon="2.7508">
        <ele>106</ele>
        <time>2016-12-11T07:48:56.430Z</time>
      </trkpt>
      <trkpt lat="48.0335" lon="2.75081">
        <ele>106</ele>
        <time>2016-12-11T07:48:57.431Z</time>
      </trkpt>
      <trkpt lat="48.0335" lon="2.75081">
        <ele>106</ele>
        <time>2016-12-11T07:48:58.429Z</time>
      </trkpt>
      <trkpt lat="48.03354" lon="2.75084">
        <ele>106</ele>
        <time>2016-12-11T07:48:59.431Z</time>
      </trkpt>
      <trkpt lat="48.03356" lon="2.75086">
        <ele>107</ele>
        <time>2016-12-11T07:49:00.432Z</time>
      </trkpt>
      <trkpt lat="48.03356" lon="2.75086">
        <ele>107</ele>
        <time>2016-12-11T07:49:01.426Z</time>
      </trkpt>
      <trkpt lat="48.03359" lon="2.75087">
        <ele>107</ele>
        <time>2016-12-11T07:49:02.431Z</time>
      </trkpt>
      <trkpt lat="48.03359" lon="2.75087">
        <ele>107</ele>
        <time>2016-12-11T07:49:03.427Z</time>
      </trkpt>
      <trkpt lat="48.03362" lon="2.75089">
        <ele>108</ele>
        <time>2016-12-11T07:49:04.431Z</time>
      </trkpt>
      <trkpt lat="48.03362" lon="2.75089">
        <ele>108</ele>
        <time>2016-12-11T07:49:05.425Z</time>
      </trkpt>
      <trkpt lat="48.03365" lon="2.75092">
        <ele>108</ele>
        <time>2016-12-11T07:49:06.431Z</time>
      </trkpt>
      <trkpt lat="48.03365" lon="2.75092">
        <ele>108</ele>
        <time>2016-12-11T07:49:07.425Z</time>
      </trkpt>
      <trkpt lat="48.03369" lon="2.75094">
        <ele>108</ele>
        <time>2016-12-11T07:49:08.430Z</time>
      </trkpt>
      <trkpt lat="48.03369" lon="2.75094">
        <ele>108</ele>
        <time>2016-12-11T07:49:09.424Z</time>
      </trkpt>
      <trkpt lat="48.03372" lon="2.75097">
        <ele>108</ele>
        <time>2016-12-11T07:49:10.429Z</time>
      </trkpt>
      <trkpt lat="48.03372" lon="2.75097">
        <ele>108</ele>
        <time>2016-12-11T07:49:11.434Z</time>
      </trkpt>
      <trkpt lat="48.03375" lon="2.751">
        <ele>108</ele>
        <time>2016-12-11T07:49:12.433Z</time>
      </trkpt>
      <trkpt lat="48.03375" lon="2.751">
        <ele>108</ele>
        <time>2016-12-11T07:49:13.427Z</time>
      </trkpt>
      <trkpt lat="48.03379" lon="2.75104">
        <ele>109</ele>
        <time>2016-12-11T07:49:14.430Z</time>
      </trkpt>
      <trkpt lat="48.03379" lon="2.75104">
        <ele>109</ele>
        <time>2016-12-11T07:49:15.428Z</time>
      </trkpt>
      <trkpt lat="48.03384" lon="2.75106">
        <ele>109</ele>
        <time>2016-12-11T07:49:16.430Z</time>
      </trkpt>
      <trkpt lat="48.03384" lon="2.75106">
        <ele>109</ele>
        <time>2016-12-11T07:49:17.400Z</time>
      </trkpt>
      <trkpt lat="48.03388" lon="2.75109">
        <ele>108</ele>
        <time>2016-12-11T07:49:18.431Z</time>
      </trkpt>
      <trkpt lat="48.03388" lon="2.75109">
        <ele>108</ele>
        <time>2016-12-11T07:49:19.425Z</time>
      </trkpt>
      <trkpt lat="48.03392" lon="2.75113">
        <ele>108</ele>
        <time>2016-12-11T07:49:20.432Z</time>
      </trkpt>
      <trkpt lat="48.03392" lon="2.75113">
        <ele>108</ele>
        <time>2016-12-11T07:49:21.434Z</time>
      </trkpt>
      <trkpt lat="48.03393" lon="2.75118">
        <ele>107</ele>
        <time>2016-12-11T07:49:22.433Z</time>
      </trkpt>
      <trkpt lat="48.03393" lon="2.75118">
        <ele>107</ele>
        <time>2016-12-11T07:49:23.425Z</time>
      </trkpt>
      <trkpt lat="48.03394" lon="2.75123">
        <ele>107</ele>
        <time>2016-12-11T07:49:24.433Z</time>
      </trkpt>
      <trkpt lat="48.03394" lon="2.75123">
        <ele>107</ele>
        <time>2016-12-11T07:49:25.425Z</time>
      </trkpt>
      <trkpt lat="48.03397" lon="2.75126">
        <ele>107</ele>
        <time>2016-12-11T07:49:26.430Z</time>
      </trkpt>
      <trkpt lat="48.03397" lon="2.75126">
        <ele>107</ele>
        <time>2016-12-11T07:49:27.426Z</time>
      </trkpt>
      <trkpt lat="48.03401" lon="2.75128">
        <ele>108</ele>
        <time>2016-12-11T07:49:28.427Z</time>
      </trkpt>
      <trkpt lat="48.03402" lon="2.75128">
        <ele>108</ele>
        <time>2016-12-11T07:49:29.431Z</time>
      </trkpt>
      <trkpt lat="48.03403" lon="2.75127">
        <ele>108</ele>
        <time>2016-12-11T07:49:30.433Z</time>
      </trkpt>
      <trkpt lat="48.03403" lon="2.75127">
        <ele>108</ele>
        <time>2016-12-11T07:49:31.431Z</time>
      </trkpt>
      <trkpt lat="48.03403" lon="2.75122">
        <ele>108</ele>
        <time>2016-12-11T07:49:32.432Z</time>
      </trkpt>
      <trkpt lat="48.03403" lon="2.75122">
        <ele>108</ele>
        <time>2016-12-11T07:49:33.425Z</time>
      </trkpt>
      <trkpt lat="48.03403" lon="2.75118">
        <ele>108</ele>
        <time>2016-12-11T07:49:34.430Z</time>
      </trkpt>
      <trkpt lat="48.03404" lon="2.75117">
        <ele>108</ele>
        <time>2016-12-11T07:49:35.431Z</time>
      </trkpt>
      <trkpt lat="48.03405" lon="2.75117">
        <ele>108</ele>
        <time>2016-12-11T07:49:36.433Z</time>
      </trkpt>
      <trkpt lat="48.03405" lon="2.75117">
        <ele>108</ele>
        <time>2016-12-11T07:49:37.428Z</time>
      </trkpt>
      <trkpt lat="48.03406" lon="2.75119">
        <ele>108</ele>
        <time>2016-12-11T07:49:38.430Z</time>
      </trkpt>
      <trkpt lat="48.03406" lon="2.75122">
        <ele>108</ele>
        <time>2016-12-11T07:49:39.430Z</time>
      </trkpt>
      <trkpt lat="48.03406" lon="2.75122">
        <ele>108</ele>
        <time>2016-12-11T07:49:40.425Z</time>
      </trkpt>
      <trkpt lat="48.03407" lon="2.75127">
        <ele>108</ele>
        <time>2016-12-11T07:49:41.438Z</time>
      </trkpt>
      <trkpt lat="48.03407" lon="2.75128">
        <ele>108</ele>
        <time>2016-12-11T07:49:42.399Z</time>
      </trkpt>
      <trkpt lat="48.03407" lon="2.75128">
        <ele>108</ele>
        <time>2016-12-11T07:49:43.428Z</time>
      </trkpt>
      <trkpt lat="48.03409" lon="2.75129">
        <ele>108</ele>
        <time>2016-12-11T07:49:44.431Z</time>
      </trkpt>
      <trkpt lat="48.03409" lon="2.75129">
        <ele>108</ele>
        <time>2016-12-11T07:49:45.426Z</time>
      </trkpt>
      <trkpt lat="48.03411" lon="2.75129">
        <ele>109</ele>
        <time>2016-12-11T07:49:46.431Z</time>
      </trkpt>
      <trkpt lat="48.03411" lon="2.75129">
        <ele>109</ele>
        <time>2016-12-11T07:49:47.427Z</time>
      </trkpt>
      <trkpt lat="48.03413" lon="2.75127">
        <ele>109</ele>
        <time>2016-12-11T07:49:48.428Z</time>
      </trkpt>
      <trkpt lat="48.03414" lon="2.75126">
        <ele>109</ele>
        <time>2016-12-11T07:49:49.431Z</time>
      </trkpt>
      <trkpt lat="48.03415" lon="2.75125">
        <ele>109</ele>
        <time>2016-12-11T07:49:50.431Z</time>
      </trkpt>
      <trkpt lat="48.03415" lon="2.75125">
        <ele>109</ele>
        <time>2016-12-11T07:49:51.429Z</time>
      </trkpt>
      <trkpt lat="48.03414" lon="2.75126">
        <ele>109</ele>
        <time>2016-12-11T07:49:52.429Z</time>
      </trkpt>
      <trkpt lat="48.03417" lon="2.75117">
        <ele>108</ele>
        <time>2016-12-11T07:49:53.432Z</time>
      </trkpt>
      <trkpt lat="48.03417" lon="2.75116">
        <ele>108</ele>
        <time>2016-12-11T07:49:54.432Z</time>
      </trkpt>
      <trkpt lat="48.03417" lon="2.75116">
        <ele>108</ele>
        <time>2016-12-11T07:49:55.420Z</time>
      </trkpt>
      <trkpt lat="48.03417" lon="2.75116">
        <ele>109</ele>
        <time>2016-12-11T07:49:56.421Z</time>
      </trkpt>
      <trkpt lat="48.03417" lon="2.75116">
        <ele>109</ele>
        <time>2016-12-11T07:49:57.418Z</time>
      </trkpt>
      <trkpt lat="48.03417" lon="2.75116">
        <ele>109</ele>
        <time>2016-12-11T07:49:58.411Z</time>
      </trkpt>
      <trkpt lat="48.03415" lon="2.75112">
        <ele>109</ele>
        <time>2016-12-11T07:49:59.418Z</time>
      </trkpt>
      <trkpt lat="48.03415" lon="2.75112">
        <ele>109</ele>
        <time>2016-12-11T07:50:00.428Z</time>
      </trkpt>
      <trkpt lat="48.03413" lon="2.75111">
        <ele>109</ele>
        <time>2016-12-11T07:50:01.419Z</time>
      </trkpt>
      <trkpt lat="48.03413" lon="2.75111">
        <ele>109</ele>
        <time>2016-12-11T07:50:02.429Z</time>
      </trkpt>
      <trkpt lat="48.03412" lon="2.7511">
        <ele>109</ele>
        <time>2016-12-11T07:50:03.399Z</time>
      </trkpt>
      <trkpt lat="48.03411" lon="2.7511">
        <ele>110</ele>
        <time>2016-12-11T07:50:04.397Z</time>
      </trkpt>
      <trkpt lat="48.03411" lon="2.7511">
        <ele>110</ele>
        <time>2016-12-11T07:50:05.397Z</time>
      </trkpt>
      <trkpt lat="48.0341" lon="2.75109">
        <ele>110</ele>
        <time>2016-12-11T07:50:06.433Z</time>
      </trkpt>
      <trkpt lat="48.0341" lon="2.75109">
        <ele>110</ele>
        <time>2016-12-11T07:50:07.435Z</time>
      </trkpt>
      <trkpt lat="48.0341" lon="2.75104">
        <ele>110</ele>
        <time>2016-12-11T07:50:08.428Z</time>
      </trkpt>
      <trkpt lat="48.0341" lon="2.75104">
        <ele>110</ele>
        <time>2016-12-11T07:50:09.424Z</time>
      </trkpt>
      <trkpt lat="48.0341" lon="2.75101">
        <ele>109</ele>
        <time>2016-12-11T07:50:10.419Z</time>
      </trkpt>
      <trkpt lat="48.0341" lon="2.75101">
        <ele>109</ele>
        <time>2016-12-11T07:50:11.404Z</time>
      </trkpt>
      <trkpt lat="48.03409" lon="2.75098">
        <ele>109</ele>
        <time>2016-12-11T07:50:12.408Z</time>
      </trkpt>
      <trkpt lat="48.03409" lon="2.75098">
        <ele>109</ele>
        <time>2016-12-11T07:50:13.405Z</time>
      </trkpt>
      <trkpt lat="48.03405" lon="2.75095">
        <ele>109</ele>
        <time>2016-12-11T07:50:14.401Z</time>
      </trkpt>
      <trkpt lat="48.03405" lon="2.75095">
        <ele>109</ele>
        <time>2016-12-11T07:50:15.399Z</time>
      </trkpt>
      <trkpt lat="48.03403" lon="2.75096">
        <ele>109</ele>
        <time>2016-12-11T07:50:16.397Z</time>
      </trkpt>
      <trkpt lat="48.03402" lon="2.75096">
        <ele>109</ele>
        <time>2016-12-11T07:50:17.400Z</time>
      </trkpt>
      <trkpt lat="48.03402" lon="2.75096">
        <ele>109</ele>
        <time>2016-12-11T07:50:18.411Z</time>
      </trkpt>
      <trkpt lat="48.034" lon="2.75099">
        <ele>109</ele>
        <time>2016-12-11T07:50:19.418Z</time>
      </trkpt>
      <trkpt lat="48.03399" lon="2.751">
        <ele>109</ele>
        <time>2016-12-11T07:50:20.428Z</time>
      </trkpt>
      <trkpt lat="48.03398" lon="2.75101">
        <ele>109</ele>
        <time>2016-12-11T07:50:21.399Z</time>
      </trkpt>
      <trkpt lat="48.03398" lon="2.75101">
        <ele>109</ele>
        <time>2016-12-11T07:50:22.397Z</time>
      </trkpt>
      <trkpt lat="48.03397" lon="2.75101">
        <ele>109</ele>
        <time>2016-12-11T07:50:23.397Z</time>
      </trkpt>
      <trkpt lat="48.03397" lon="2.75102">
        <ele>109</ele>
        <time>2016-12-11T07:50:24.420Z</time>
      </trkpt>
      <trkpt lat="48.03397" lon="2.75102">
        <ele>109</ele>
        <time>2016-12-11T07:50:25.418Z</time>
      </trkpt>
      <trkpt lat="48.03391" lon="2.75094">
        <ele>108</ele>
        <time>2016-12-11T07:50:26.432Z</time>
      </trkpt>
      <trkpt lat="48.03392" lon="2.75092">
        <ele>108</ele>
        <time>2016-12-11T07:50:27.430Z</time>
      </trkpt>
      <trkpt lat="48.03392" lon="2.75092">
        <ele>108</ele>
        <time>2016-12-11T07:50:28.396Z</time>
      </trkpt>
      <trkpt lat="48.03392" lon="2.75087">
        <ele>108</ele>
        <time>2016-12-11T07:50:29.433Z</time>
      </trkpt>
      <trkpt lat="48.03392" lon="2.75087">
        <ele>108</ele>
        <time>2016-12-11T07:50:30.432Z</time>
      </trkpt>
      <trkpt lat="48.03394" lon="2.75083">
        <ele>108</ele>
        <time>2016-12-11T07:50:31.432Z</time>
      </trkpt>
      <trkpt lat="48.03394" lon="2.7508">
        <ele>108</ele>
        <time>2016-12-11T07:50:32.432Z</time>
      </trkpt>
      <trkpt lat="48.03394" lon="2.75078">
        <ele>108</ele>
        <time>2016-12-11T07:50:33.419Z</time>
      </trkpt>
      <trkpt lat="48.03394" lon="2.75078">
        <ele>108</ele>
        <time>2016-12-11T07:50:34.424Z</time>
      </trkpt>
      <trkpt lat="48.03394" lon="2.75074">
        <ele>108</ele>
        <time>2016-12-11T07:50:35.422Z</time>
      </trkpt>
      <trkpt lat="48.03394" lon="2.75074">
        <ele>108</ele>
        <time>2016-12-11T07:50:36.423Z</time>
      </trkpt>
      <trkpt lat="48.03391" lon="2.75074">
        <ele>108</ele>
        <time>2016-12-11T07:50:37.420Z</time>
      </trkpt>
      <trkpt lat="48.03391" lon="2.75074">
        <ele>108</ele>
        <time>2016-12-11T07:50:38.421Z</time>
      </trkpt>
      <trkpt lat="48.03391" lon="2.75078">
        <ele>108</ele>
        <time>2016-12-11T07:50:39.413Z</time>
      </trkpt>
      <trkpt lat="48.03391" lon="2.75078">
        <ele>108</ele>
        <time>2016-12-11T07:50:40.413Z</time>
      </trkpt>
      <trkpt lat="48.0339" lon="2.75081">
        <ele>108</ele>
        <time>2016-12-11T07:50:41.410Z</time>
      </trkpt>
      <trkpt lat="48.0339" lon="2.75081">
        <ele>108</ele>
        <time>2016-12-11T07:50:42.411Z</time>
      </trkpt>
      <trkpt lat="48.03389" lon="2.75083">
        <ele>109</ele>
        <time>2016-12-11T07:50:43.410Z</time>
      </trkpt>
      <trkpt lat="48.03389" lon="2.75083">
        <ele>109</ele>
        <time>2016-12-11T07:50:44.412Z</time>
      </trkpt>
      <trkpt lat="48.03388" lon="2.75083">
        <ele>109</ele>
        <time>2016-12-11T07:50:45.422Z</time>
      </trkpt>
      <trkpt lat="48.03387" lon="2.75083">
        <ele>109</ele>
        <time>2016-12-11T07:50:46.428Z</time>
      </trkpt>
      <trkpt lat="48.03387" lon="2.75083">
        <ele>109</ele>
        <time>2016-12-11T07:50:47.421Z</time>
      </trkpt>
      <trkpt lat="48.03387" lon="2.75081">
        <ele>109</ele>
        <time>2016-12-11T07:50:48.420Z</time>
      </trkpt>
      <trkpt lat="48.03387" lon="2.75081">
        <ele>109</ele>
        <time>2016-12-11T07:50:49.406Z</time>
      </trkpt>
      <trkpt lat="48.03387" lon="2.75077">
        <ele>109</ele>
        <time>2016-12-11T07:50:50.403Z</time>
      </trkpt>
      <trkpt lat="48.03386" lon="2.75075">
        <ele>109</ele>
        <time>2016-12-11T07:50:51.416Z</time>
      </trkpt>
      <trkpt lat="48.03386" lon="2.75075">
        <ele>109</ele>
        <time>2016-12-11T07:50:52.425Z</time>
      </trkpt>
      <trkpt lat="48.03384" lon="2.75072">
        <ele>109</ele>
        <time>2016-12-11T07:50:53.420Z</time>
      </trkpt>
      <trkpt lat="48.03384" lon="2.75072">
        <ele>109</ele>
        <time>2016-12-11T07:50:54.419Z</time>
      </trkpt>
      <trkpt lat="48.0338" lon="2.75068">
        <ele>109</ele>
        <time>2016-12-11T07:50:55.423Z</time>
      </trkpt>
      <trkpt lat="48.03379" lon="2.75066">
        <ele>109</ele>
        <time>2016-12-11T07:50:56.423Z</time>
      </trkpt>
      <trkpt lat="48.03377" lon="2.75067">
        <ele>109</ele>
        <time>2016-12-11T07:50:57.420Z</time>
      </trkpt>
      <trkpt lat="48.03377" lon="2.75067">
        <ele>109</ele>
        <time>2016-12-11T07:50:58.421Z</time>
      </trkpt>
      <trkpt lat="48.03376" lon="2.7507">
        <ele>109</ele>
        <time>2016-12-11T07:50:59.406Z</time>
      </trkpt>
      <trkpt lat="48.03376" lon="2.7507">
        <ele>109</ele>
        <time>2016-12-11T07:51:00.408Z</time>
      </trkpt>
      <trkpt lat="48.03377" lon="2.75072">
        <ele>109</ele>
        <time>2016-12-11T07:51:01.421Z</time>
      </trkpt>
      <trkpt lat="48.03377" lon="2.75072">
        <ele>109</ele>
        <time>2016-12-11T07:51:02.434Z</time>
      </trkpt>
      <trkpt lat="48.03376" lon="2.75075">
        <ele>109</ele>
        <time>2016-12-11T07:51:03.405Z</time>
      </trkpt>
      <trkpt lat="48.03376" lon="2.75075">
        <ele>109</ele>
        <time>2016-12-11T07:51:04.402Z</time>
      </trkpt>
      <trkpt lat="48.03376" lon="2.75078">
        <ele>109</ele>
        <time>2016-12-11T07:51:05.416Z</time>
      </trkpt>
      <trkpt lat="48.03376" lon="2.75078">
        <ele>109</ele>
        <time>2016-12-11T07:51:06.414Z</time>
      </trkpt>
      <trkpt lat="48.03374" lon="2.75081">
        <ele>109</ele>
        <time>2016-12-11T07:51:07.412Z</time>
      </trkpt>
      <trkpt lat="48.03374" lon="2.75081">
        <ele>109</ele>
        <time>2016-12-11T07:51:08.410Z</time>
      </trkpt>
      <trkpt lat="48.03372" lon="2.75078">
        <ele>108</ele>
        <time>2016-12-11T07:51:09.435Z</time>
      </trkpt>
      <trkpt lat="48.03371" lon="2.75075">
        <ele>108</ele>
        <time>2016-12-11T07:51:10.408Z</time>
      </trkpt>
      <trkpt lat="48.03371" lon="2.75075">
        <ele>108</ele>
        <time>2016-12-11T07:51:11.403Z</time>
      </trkpt>
      <trkpt lat="48.0337" lon="2.75068">
        <ele>108</ele>
        <time>2016-12-11T07:51:12.404Z</time>
      </trkpt>
      <trkpt lat="48.0337" lon="2.75068">
        <ele>108</ele>
        <time>2016-12-11T07:51:13.398Z</time>
      </trkpt>
      <trkpt lat="48.03365" lon="2.75063">
        <ele>108</ele>
        <time>2016-12-11T07:51:14.414Z</time>
      </trkpt>
      <trkpt lat="48.03364" lon="2.7506">
        <ele>107</ele>
        <time>2016-12-11T07:51:15.426Z</time>
      </trkpt>
      <trkpt lat="48.03364" lon="2.7506">
        <ele>107</ele>
        <time>2016-12-11T07:51:16.422Z</time>
      </trkpt>
      <trkpt lat="48.03364" lon="2.75053">
        <ele>107</ele>
        <time>2016-12-11T07:51:17.420Z</time>
      </trkpt>
      <trkpt lat="48.03364" lon="2.75053">
        <ele>107</ele>
        <time>2016-12-11T07:51:18.400Z</time>
      </trkpt>
      <trkpt lat="48.03362" lon="2.75049">
        <ele>106</ele>
        <time>2016-12-11T07:51:19.413Z</time>
      </trkpt>
      <trkpt lat="48.03361" lon="2.75047">
        <ele>106</ele>
        <time>2016-12-11T07:51:20.416Z</time>
      </trkpt>
      <trkpt lat="48.03361" lon="2.75046">
        <ele>106</ele>
        <time>2016-12-11T07:51:21.411Z</time>
      </trkpt>
      <trkpt lat="48.03361" lon="2.75046">
        <ele>106</ele>
        <time>2016-12-11T07:51:22.428Z</time>
      </trkpt>
      <trkpt lat="48.03358" lon="2.7504">
        <ele>105</ele>
        <time>2016-12-11T07:51:23.423Z</time>
      </trkpt>
      <trkpt lat="48.03358" lon="2.7504">
        <ele>105</ele>
        <time>2016-12-11T07:51:24.418Z</time>
      </trkpt>
      <trkpt lat="48.03359" lon="2.75037">
        <ele>105</ele>
        <time>2016-12-11T07:51:25.422Z</time>
      </trkpt>
      <trkpt lat="48.03359" lon="2.75037">
        <ele>105</ele>
        <time>2016-12-11T07:51:26.418Z</time>
      </trkpt>
      <trkpt lat="48.0336" lon="2.75034">
        <ele>105</ele>
        <time>2016-12-11T07:51:27.434Z</time>
      </trkpt>
      <trkpt lat="48.0336" lon="2.75034">
        <ele>105</ele>
        <time>2016-12-11T07:51:28.408Z</time>
      </trkpt>
      <trkpt lat="48.03362" lon="2.75031">
        <ele>104</ele>
        <time>2016-12-11T07:51:29.397Z</time>
      </trkpt>
      <trkpt lat="48.03362" lon="2.75031">
        <ele>104</ele>
        <time>2016-12-11T07:51:30.406Z</time>
      </trkpt>
      <trkpt lat="48.03366" lon="2.7503">
        <ele>104</ele>
        <time>2016-12-11T07:51:31.420Z</time>
      </trkpt>
      <trkpt lat="48.03366" lon="2.7503">
        <ele>104</ele>
        <time>2016-12-11T07:51:32.416Z</time>
      </trkpt>
      <trkpt lat="48.03367" lon="2.75031">
        <ele>104</ele>
        <time>2016-12-11T07:51:33.423Z</time>
      </trkpt>
      <trkpt lat="48.03367" lon="2.75031">
        <ele>104</ele>
        <time>2016-12-11T07:51:34.418Z</time>
      </trkpt>
      <trkpt lat="48.03371" lon="2.7503">
        <ele>103</ele>
        <time>2016-12-11T07:51:35.396Z</time>
      </trkpt>
      <trkpt lat="48.03371" lon="2.7503">
        <ele>103</ele>
        <time>2016-12-11T07:51:36.403Z</time>
      </trkpt>
      <trkpt lat="48.03374" lon="2.75027">
        <ele>103</ele>
        <time>2016-12-11T07:51:37.415Z</time>
      </trkpt>
      <trkpt lat="48.03374" lon="2.75027">
        <ele>103</ele>
        <time>2016-12-11T07:51:38.419Z</time>
      </trkpt>
      <trkpt lat="48.03375" lon="2.75022">
        <ele>102</ele>
        <time>2016-12-11T07:51:39.434Z</time>
      </trkpt>
      <trkpt lat="48.03375" lon="2.75022">
        <ele>102</ele>
        <time>2016-12-11T07:51:40.433Z</time>
      </trkpt>
      <trkpt lat="48.03379" lon="2.7502">
        <ele>102</ele>
        <time>2016-12-11T07:51:41.430Z</time>
      </trkpt>
      <trkpt lat="48.03379" lon="2.7502">
        <ele>102</ele>
        <time>2016-12-11T07:51:42.407Z</time>
      </trkpt>
      <trkpt lat="48.03381" lon="2.75018">
        <ele>102</ele>
        <time>2016-12-11T07:51:43.434Z</time>
      </trkpt>
      <trkpt lat="48.03381" lon="2.75014">
        <ele>102</ele>
        <time>2016-12-11T07:51:44.433Z</time>
      </trkpt>
      <trkpt lat="48.03381" lon="2.75014">
        <ele>102</ele>
        <time>2016-12-11T07:51:45.422Z</time>
      </trkpt>
      <trkpt lat="48.03382" lon="2.75009">
        <ele>101</ele>
        <time>2016-12-11T07:51:46.420Z</time>
      </trkpt>
      <trkpt lat="48.03382" lon="2.75009">
        <ele>101</ele>
        <time>2016-12-11T07:51:47.421Z</time>
      </trkpt>
      <trkpt lat="48.03382" lon="2.75001">
        <ele>101</ele>
        <time>2016-12-11T07:51:48.419Z</time>
      </trkpt>
      <trkpt lat="48.03382" lon="2.75001">
        <ele>101</ele>
        <time>2016-12-11T07:51:49.412Z</time>
      </trkpt>
      <trkpt lat="48.03379" lon="2.74992">
        <ele>101</ele>
        <time>2016-12-11T07:51:50.423Z</time>
      </trkpt>
      <trkpt lat="48.03378" lon="2.74988">
        <ele>101</ele>
        <time>2016-12-11T07:51:51.423Z</time>
      </trkpt>
      <trkpt lat="48.03378" lon="2.74988">
        <ele>101</ele>
        <time>2016-12-11T07:51:52.422Z</time>
      </trkpt>
      <trkpt lat="48.03374" lon="2.74985">
        <ele>101</ele>
        <time>2016-12-11T07:51:53.422Z</time>
      </trkpt>
      <trkpt lat="48.03374" lon="2.74985">
        <ele>101</ele>
        <time>2016-12-11T07:51:54.416Z</time>
      </trkpt>
      <trkpt lat="48.03368" lon="2.7498">
        <ele>100</ele>
        <time>2016-12-11T07:51:55.415Z</time>
      </trkpt>
      <trkpt lat="48.03368" lon="2.7498">
        <ele>100</ele>
        <time>2016-12-11T07:51:56.412Z</time>
      </trkpt>
      <trkpt lat="48.03365" lon="2.74972">
        <ele>100</ele>
        <time>2016-12-11T07:51:57.420Z</time>
      </trkpt>
      <trkpt lat="48.03365" lon="2.74972">
        <ele>100</ele>
        <time>2016-12-11T07:51:58.420Z</time>
      </trkpt>
      <trkpt lat="48.03365" lon="2.74964">
        <ele>99</ele>
        <time>2016-12-11T07:51:59.433Z</time>
      </trkpt>
      <trkpt lat="48.03365" lon="2.74964">
        <ele>99</ele>
        <time>2016-12-11T07:52:00.396Z</time>
      </trkpt>
      <trkpt lat="48.03369" lon="2.74961">
        <ele>99</ele>
        <time>2016-12-11T07:52:01.412Z</time>
      </trkpt>
      <trkpt lat="48.03369" lon="2.74961">
        <ele>99</ele>
        <time>2016-12-11T07:52:02.409Z</time>
      </trkpt>
      <trkpt lat="48.03371" lon="2.74959">
        <ele>98</ele>
        <time>2016-12-11T07:52:03.420Z</time>
      </trkpt>
      <trkpt lat="48.03371" lon="2.74959">
        <ele>98</ele>
        <time>2016-12-11T07:52:04.415Z</time>
      </trkpt>
      <trkpt lat="48.03375" lon="2.74958">
        <ele>98</ele>
        <time>2016-12-11T07:52:05.422Z</time>
      </trkpt>
      <trkpt lat="48.03375" lon="2.74958">
        <ele>98</ele>
        <time>2016-12-11T07:52:06.433Z</time>
      </trkpt>
      <trkpt lat="48.03379" lon="2.74959">
        <ele>98</ele>
        <time>2016-12-11T07:52:07.435Z</time>
      </trkpt>
      <trkpt lat="48.03379" lon="2.74959">
        <ele>98</ele>
        <time>2016-12-11T07:52:08.405Z</time>
      </trkpt>
      <trkpt lat="48.03382" lon="2.74958">
        <ele>97</ele>
        <time>2016-12-11T07:52:09.430Z</time>
      </trkpt>
      <trkpt lat="48.03382" lon="2.74958">
        <ele>97</ele>
        <time>2016-12-11T07:52:10.403Z</time>
      </trkpt>
      <trkpt lat="48.03385" lon="2.74956">
        <ele>97</ele>
        <time>2016-12-11T07:52:11.407Z</time>
      </trkpt>
      <trkpt lat="48.03385" lon="2.74956">
        <ele>97</ele>
        <time>2016-12-11T07:52:12.419Z</time>
      </trkpt>
      <trkpt lat="48.03389" lon="2.74952">
        <ele>97</ele>
        <time>2016-12-11T07:52:13.434Z</time>
      </trkpt>
      <trkpt lat="48.03389" lon="2.74952">
        <ele>97</ele>
        <time>2016-12-11T07:52:14.421Z</time>
      </trkpt>
      <trkpt lat="48.03391" lon="2.74947">
        <ele>96</ele>
        <time>2016-12-11T07:52:15.422Z</time>
      </trkpt>
      <trkpt lat="48.03391" lon="2.74947">
        <ele>96</ele>
        <time>2016-12-11T07:52:16.399Z</time>
      </trkpt>
      <trkpt lat="48.03387" lon="2.74939">
        <ele>96</ele>
        <time>2016-12-11T07:52:17.421Z</time>
      </trkpt>
      <trkpt lat="48.03387" lon="2.74939">
        <ele>96</ele>
        <time>2016-12-11T07:52:18.419Z</time>
      </trkpt>
      <trkpt lat="48.03386" lon="2.74932">
        <ele>95</ele>
        <time>2016-12-11T07:52:19.423Z</time>
      </trkpt>
      <trkpt lat="48.03386" lon="2.74931">
        <ele>95</ele>
        <time>2016-12-11T07:52:20.423Z</time>
      </trkpt>
      <trkpt lat="48.03387" lon="2.74931">
        <ele>95</ele>
        <time>2016-12-11T07:52:21.424Z</time>
      </trkpt>
      <trkpt lat="48.03387" lon="2.74931">
        <ele>95</ele>
        <time>2016-12-11T07:52:22.423Z</time>
      </trkpt>
      <trkpt lat="48.03392" lon="2.74927">
        <ele>94</ele>
        <time>2016-12-11T07:52:23.420Z</time>
      </trkpt>
      <trkpt lat="48.03392" lon="2.74927">
        <ele>94</ele>
        <time>2016-12-11T07:52:24.434Z</time>
      </trkpt>
      <trkpt lat="48.03397" lon="2.74924">
        <ele>94</ele>
        <time>2016-12-11T07:52:25.433Z</time>
      </trkpt>
      <trkpt lat="48.03397" lon="2.74924">
        <ele>94</ele>
        <time>2016-12-11T07:52:26.396Z</time>
      </trkpt>
      <trkpt lat="48.034" lon="2.74924">
        <ele>94</ele>
        <time>2016-12-11T07:52:27.435Z</time>
      </trkpt>
      <trkpt lat="48.034" lon="2.74924">
        <ele>94</ele>
        <time>2016-12-11T07:52:28.398Z</time>
      </trkpt>
      <trkpt lat="48.034" lon="2.74924">
        <ele>94</ele>
        <time>2016-12-11T07:52:29.419Z</time>
      </trkpt>
      <trkpt lat="48.034" lon="2.74924">
        <ele>94</ele>
        <time>2016-12-11T07:52:30.434Z</time>
      </trkpt>
      <trkpt lat="48.034" lon="2.74924">
        <ele>94</ele>
        <time>2016-12-11T07:52:31.431Z</time>
      </trkpt>
      <trkpt lat="48.03406" lon="2.74931">
        <ele>96</ele>
        <time>2016-12-11T07:52:32.403Z</time>
      </trkpt>
      <trkpt lat="48.03406" lon="2.74931">
        <ele>96</ele>
        <time>2016-12-11T07:52:33.406Z</time>
      </trkpt>
      <trkpt lat="48.03409" lon="2.74932">
        <ele>96</ele>
        <time>2016-12-11T07:52:34.410Z</time>
      </trkpt>
      <trkpt lat="48.0341" lon="2.74933">
        <ele>96</ele>
        <time>2016-12-11T07:52:35.419Z</time>
      </trkpt>
      <trkpt lat="48.03411" lon="2.74933">
        <ele>96</ele>
        <time>2016-12-11T07:52:36.421Z</time>
      </trkpt>
      <trkpt lat="48.03411" lon="2.74933">
        <ele>96</ele>
        <time>2016-12-11T07:52:37.411Z</time>
      </trkpt>
      <trkpt lat="48.03414" lon="2.74937">
        <ele>96</ele>
        <time>2016-12-11T07:52:38.420Z</time>
      </trkpt>
      <trkpt lat="48.03414" lon="2.74937">
        <ele>96</ele>
        <time>2016-12-11T07:52:39.417Z</time>
      </trkpt>
      <trkpt lat="48.03413" lon="2.74941">
        <ele>96</ele>
        <time>2016-12-11T07:52:40.413Z</time>
      </trkpt>
      <trkpt lat="48.03413" lon="2.74941">
        <ele>96</ele>
        <time>2016-12-11T07:52:41.420Z</time>
      </trkpt>
      <trkpt lat="48.03413" lon="2.74946">
        <ele>96</ele>
        <time>2016-12-11T07:52:42.432Z</time>
      </trkpt>
      <trkpt lat="48.03413" lon="2.74946">
        <ele>96</ele>
        <time>2016-12-11T07:52:43.400Z</time>
      </trkpt>
      <trkpt lat="48.03415" lon="2.7495">
        <ele>96</ele>
        <time>2016-12-11T07:52:44.430Z</time>
      </trkpt>
      <trkpt lat="48.03415" lon="2.7495">
        <ele>96</ele>
        <time>2016-12-11T07:52:45.430Z</time>
      </trkpt>
      <trkpt lat="48.03416" lon="2.74955">
        <ele>96</ele>
        <time>2016-12-11T07:52:46.430Z</time>
      </trkpt>
      <trkpt lat="48.03416" lon="2.74955">
        <ele>96</ele>
        <time>2016-12-11T07:52:47.401Z</time>
      </trkpt>
      <trkpt lat="48.03418" lon="2.7496">
        <ele>97</ele>
        <time>2016-12-11T07:52:48.403Z</time>
      </trkpt>
      <trkpt lat="48.03418" lon="2.7496">
        <ele>97</ele>
        <time>2016-12-11T07:52:49.401Z</time>
      </trkpt>
      <trkpt lat="48.0342" lon="2.74964">
        <ele>97</ele>
        <time>2016-12-11T07:52:50.407Z</time>
      </trkpt>
      <trkpt lat="48.0342" lon="2.74964">
        <ele>97</ele>
        <time>2016-12-11T07:52:51.416Z</time>
      </trkpt>
      <trkpt lat="48.03422" lon="2.74968">
        <ele>97</ele>
        <time>2016-12-11T07:52:52.420Z</time>
      </trkpt>
      <trkpt lat="48.03422" lon="2.74968">
        <ele>97</ele>
        <time>2016-12-11T07:52:53.404Z</time>
      </trkpt>
      <trkpt lat="48.03425" lon="2.74971">
        <ele>97</ele>
        <time>2016-12-11T07:52:54.429Z</time>
      </trkpt>
      <trkpt lat="48.03425" lon="2.74971">
        <ele>97</ele>
        <time>2016-12-11T07:52:55.399Z</time>
      </trkpt>
      <trkpt lat="48.03428" lon="2.74975">
        <ele>98</ele>
        <time>2016-12-11T07:52:56.434Z</time>
      </trkpt>
      <trkpt lat="48.03428" lon="2.74975">
        <ele>98</ele>
        <time>2016-12-11T07:52:57.432Z</time>
      </trkpt>
      <trkpt lat="48.03431" lon="2.74977">
        <ele>98</ele>
        <time>2016-12-11T07:52:58.429Z</time>
      </trkpt>
      <trkpt lat="48.03432" lon="2.74977">
        <ele>99</ele>
        <time>2016-12-11T07:52:59.402Z</time>
      </trkpt>
      <trkpt lat="48.03432" lon="2.74977">
        <ele>99</ele>
        <time>2016-12-11T07:53:00.403Z</time>
      </trkpt>
      <trkpt lat="48.03434" lon="2.74979">
        <ele>99</ele>
        <time>2016-12-11T07:53:01.413Z</time>
      </trkpt>
      <trkpt lat="48.03435" lon="2.74981">
        <ele>98</ele>
        <time>2016-12-11T07:53:02.411Z</time>
      </trkpt>
      <trkpt lat="48.03435" lon="2.74981">
        <ele>98</ele>
        <time>2016-12-11T07:53:03.434Z</time>
      </trkpt>
      <trkpt lat="48.03436" lon="2.74986">
        <ele>98</ele>
        <time>2016-12-11T07:53:04.431Z</time>
      </trkpt>
      <trkpt lat="48.03436" lon="2.74986">
        <ele>98</ele>
        <time>2016-12-11T07:53:05.406Z</time>
      </trkpt>
      <trkpt lat="48.03436" lon="2.74989">
        <ele>99</ele>
        <time>2016-12-11T07:53:06.412Z</time>
      </trkpt>
      <trkpt lat="48.03436" lon="2.74989">
        <ele>99</ele>
        <time>2016-12-11T07:53:07.423Z</time>
      </trkpt>
      <trkpt lat="48.03438" lon="2.74993">
        <ele>99</ele>
        <time>2016-12-11T07:53:08.419Z</time>
      </trkpt>
      <trkpt lat="48.03438" lon="2.74993">
        <ele>99</ele>
        <time>2016-12-11T07:53:09.416Z</time>
      </trkpt>
      <trkpt lat="48.0344" lon="2.74995">
        <ele>100</ele>
        <time>2016-12-11T07:53:10.417Z</time>
      </trkpt>
      <trkpt lat="48.0344" lon="2.74995">
        <ele>100</ele>
        <time>2016-12-11T07:53:11.417Z</time>
      </trkpt>
      <trkpt lat="48.03442" lon="2.74997">
        <ele>100</ele>
        <time>2016-12-11T07:53:12.418Z</time>
      </trkpt>
      <trkpt lat="48.03442" lon="2.74997">
        <ele>100</ele>
        <time>2016-12-11T07:53:13.404Z</time>
      </trkpt>
      <trkpt lat="48.03444" lon="2.75">
        <ele>100</ele>
        <time>2016-12-11T07:53:14.427Z</time>
      </trkpt>
      <trkpt lat="48.03444" lon="2.75">
        <ele>100</ele>
        <time>2016-12-11T07:53:15.429Z</time>
      </trkpt>
      <trkpt lat="48.03448" lon="2.75001">
        <ele>101</ele>
        <time>2016-12-11T07:53:16.433Z</time>
      </trkpt>
      <trkpt lat="48.03448" lon="2.75001">
        <ele>101</ele>
        <time>2016-12-11T07:53:17.431Z</time>
      </trkpt>
      <trkpt lat="48.03451" lon="2.75002">
        <ele>101</ele>
        <time>2016-12-11T07:53:18.433Z</time>
      </trkpt>
      <trkpt lat="48.03451" lon="2.75002">
        <ele>101</ele>
        <time>2016-12-11T07:53:19.410Z</time>
      </trkpt>
      <trkpt lat="48.03454" lon="2.75005">
        <ele>101</ele>
        <time>2016-12-11T07:53:20.409Z</time>
      </trkpt>
      <trkpt lat="48.03454" lon="2.75005">
        <ele>101</ele>
        <time>2016-12-11T07:53:21.407Z</time>
      </trkpt>
      <trkpt lat="48.03458" lon="2.75007">
        <ele>101</ele>
        <time>2016-12-11T07:53:22.410Z</time>
      </trkpt>
      <trkpt lat="48.03458" lon="2.75007">
        <ele>101</ele>
        <time>2016-12-11T07:53:23.412Z</time>
      </trkpt>
      <trkpt lat="48.03462" lon="2.75011">
        <ele>101</ele>
        <time>2016-12-11T07:53:24.409Z</time>
      </trkpt>
      <trkpt lat="48.03462" lon="2.75011">
        <ele>101</ele>
        <time>2016-12-11T07:53:25.408Z</time>
      </trkpt>
      <trkpt lat="48.03466" lon="2.75014">
        <ele>101</ele>
        <time>2016-12-11T07:53:26.413Z</time>
      </trkpt>
      <trkpt lat="48.03466" lon="2.75014">
        <ele>101</ele>
        <time>2016-12-11T07:53:27.409Z</time>
      </trkpt>
      <trkpt lat="48.03469" lon="2.75018">
        <ele>101</ele>
        <time>2016-12-11T07:53:28.418Z</time>
      </trkpt>
      <trkpt lat="48.03469" lon="2.75018">
        <ele>101</ele>
        <time>2016-12-11T07:53:29.415Z</time>
      </trkpt>
      <trkpt lat="48.03473" lon="2.75022">
        <ele>101</ele>
        <time>2016-12-11T07:53:30.412Z</time>
      </trkpt>
      <trkpt lat="48.03475" lon="2.75023">
        <ele>101</ele>
        <time>2016-12-11T07:53:31.430Z</time>
      </trkpt>
      <trkpt lat="48.03476" lon="2.75024">
        <ele>101</ele>
        <time>2016-12-11T07:53:32.431Z</time>
      </trkpt>
      <trkpt lat="48.03476" lon="2.75024">
        <ele>101</ele>
        <time>2016-12-11T07:53:33.401Z</time>
      </trkpt>
      <trkpt lat="48.0348" lon="2.75026">
        <ele>101</ele>
        <time>2016-12-11T07:53:34.417Z</time>
      </trkpt>
      <trkpt lat="48.0348" lon="2.75026">
        <ele>101</ele>
        <time>2016-12-11T07:53:35.414Z</time>
      </trkpt>
      <trkpt lat="48.03484" lon="2.7503">
        <ele>101</ele>
        <time>2016-12-11T07:53:36.413Z</time>
      </trkpt>
      <trkpt lat="48.03485" lon="2.75032">
        <ele>101</ele>
        <time>2016-12-11T07:53:37.413Z</time>
      </trkpt>
      <trkpt lat="48.03485" lon="2.75032">
        <ele>101</ele>
        <time>2016-12-11T07:53:38.410Z</time>
      </trkpt>
      <trkpt lat="48.03488" lon="2.75036">
        <ele>101</ele>
        <time>2016-12-11T07:53:39.411Z</time>
      </trkpt>
      <trkpt lat="48.03488" lon="2.75036">
        <ele>101</ele>
        <time>2016-12-11T07:53:40.422Z</time>
      </trkpt>
      <trkpt lat="48.03491" lon="2.75041">
        <ele>101</ele>
        <time>2016-12-11T07:53:41.419Z</time>
      </trkpt>
      <trkpt lat="48.03492" lon="2.75044">
        <ele>101</ele>
        <time>2016-12-11T07:53:42.427Z</time>
      </trkpt>
      <trkpt lat="48.03492" lon="2.75044">
        <ele>101</ele>
        <time>2016-12-11T07:53:43.432Z</time>
      </trkpt>
      <trkpt lat="48.03493" lon="2.7505">
        <ele>102</ele>
        <time>2016-12-11T07:53:44.413Z</time>
      </trkpt>
      <trkpt lat="48.03493" lon="2.75054">
        <ele>102</ele>
        <time>2016-12-11T07:53:45.413Z</time>
      </trkpt>
      <trkpt lat="48.03493" lon="2.75054">
        <ele>102</ele>
        <time>2016-12-11T07:53:46.423Z</time>
      </trkpt>
      <trkpt lat="48.03493" lon="2.7506">
        <ele>101</ele>
        <time>2016-12-11T07:53:47.425Z</time>
      </trkpt>
      <trkpt lat="48.03492" lon="2.75064">
        <ele>101</ele>
        <time>2016-12-11T07:53:48.424Z</time>
      </trkpt>
      <trkpt lat="48.03492" lon="2.75064">
        <ele>101</ele>
        <time>2016-12-11T07:53:49.398Z</time>
      </trkpt>
      <trkpt lat="48.03491" lon="2.75071">
        <ele>101</ele>
        <time>2016-12-11T07:53:50.417Z</time>
      </trkpt>
      <trkpt lat="48.03489" lon="2.75076">
        <ele>101</ele>
        <time>2016-12-11T07:53:51.420Z</time>
      </trkpt>
      <trkpt lat="48.03489" lon="2.75079">
        <ele>101</ele>
        <time>2016-12-11T07:53:52.419Z</time>
      </trkpt>
      <trkpt lat="48.03489" lon="2.75079">
        <ele>101</ele>
        <time>2016-12-11T07:53:53.420Z</time>
      </trkpt>
      <trkpt lat="48.0349" lon="2.75085">
        <ele>101</ele>
        <time>2016-12-11T07:53:54.420Z</time>
      </trkpt>
      <trkpt lat="48.0349" lon="2.75085">
        <ele>101</ele>
        <time>2016-12-11T07:53:55.419Z</time>
      </trkpt>
      <trkpt lat="48.03494" lon="2.75088">
        <ele>102</ele>
        <time>2016-12-11T07:53:56.417Z</time>
      </trkpt>
      <trkpt lat="48.03494" lon="2.75088">
        <ele>102</ele>
        <time>2016-12-11T07:53:57.415Z</time>
      </trkpt>
      <trkpt lat="48.03497" lon="2.75089">
        <ele>102</ele>
        <time>2016-12-11T07:53:58.418Z</time>
      </trkpt>
      <trkpt lat="48.03498" lon="2.75091">
        <ele>102</ele>
        <time>2016-12-11T07:53:59.425Z</time>
      </trkpt>
      <trkpt lat="48.03498" lon="2.75091">
        <ele>102</ele>
        <time>2016-12-11T07:54:00.421Z</time>
      </trkpt>
      <trkpt lat="48.03499" lon="2.75095">
        <ele>102</ele>
        <time>2016-12-11T07:54:01.417Z</time>
      </trkpt>
      <trkpt lat="48.035" lon="2.75098">
        <ele>102</ele>
        <time>2016-12-11T07:54:02.425Z</time>
      </trkpt>
      <trkpt lat="48.035" lon="2.75098">
        <ele>102</ele>
        <time>2016-12-11T07:54:03.412Z</time>
      </trkpt>
      <trkpt lat="48.03502" lon="2.75106">
        <ele>101</ele>
        <time>2016-12-11T07:54:04.424Z</time>
      </trkpt>
      <trkpt lat="48.03502" lon="2.75106">
        <ele>101</ele>
        <time>2016-12-11T07:54:05.422Z</time>
      </trkpt>
      <trkpt lat="48.03507" lon="2.75111">
        <ele>101</ele>
        <time>2016-12-11T07:54:06.426Z</time>
      </trkpt>
      <trkpt lat="48.03507" lon="2.75111">
        <ele>101</ele>
        <time>2016-12-11T07:54:07.422Z</time>
      </trkpt>
      <trkpt lat="48.03508" lon="2.75112">
        <ele>101</ele>
        <time>2016-12-11T07:54:08.432Z</time>
      </trkpt>
      <trkpt lat="48.03508" lon="2.75112">
        <ele>101</ele>
        <time>2016-12-11T07:54:09.402Z</time>
      </trkpt>
      <trkpt lat="48.03507" lon="2.75114">
        <ele>101</ele>
        <time>2016-12-11T07:54:10.417Z</time>
      </trkpt>
      <trkpt lat="48.03506" lon="2.75115">
        <ele>101</ele>
        <time>2016-12-11T07:54:11.420Z</time>
      </trkpt>
      <trkpt lat="48.03506" lon="2.75115">
        <ele>101</ele>
        <time>2016-12-11T07:54:12.419Z</time>
      </trkpt>
      <trkpt lat="48.03506" lon="2.75115">
        <ele>101</ele>
        <time>2016-12-11T07:54:13.416Z</time>
      </trkpt>
      <trkpt lat="48.03503" lon="2.75114">
        <ele>101</ele>
        <time>2016-12-11T07:54:14.410Z</time>
      </trkpt>
      <trkpt lat="48.03503" lon="2.75114">
        <ele>101</ele>
        <time>2016-12-11T07:54:15.431Z</time>
      </trkpt>
      <trkpt lat="48.03501" lon="2.75114">
        <ele>102</ele>
        <time>2016-12-11T07:54:16.425Z</time>
      </trkpt>
      <trkpt lat="48.03501" lon="2.75114">
        <ele>102</ele>
        <time>2016-12-11T07:54:17.419Z</time>
      </trkpt>
      <trkpt lat="48.03499" lon="2.75113">
        <ele>101</ele>
        <time>2016-12-11T07:54:18.418Z</time>
      </trkpt>
      <trkpt lat="48.03498" lon="2.75112">
        <ele>102</ele>
        <time>2016-12-11T07:54:19.409Z</time>
      </trkpt>
      <trkpt lat="48.03498" lon="2.75112">
        <ele>102</ele>
        <time>2016-12-11T07:54:20.407Z</time>
      </trkpt>
      <trkpt lat="48.03497" lon="2.7511">
        <ele>102</ele>
        <time>2016-12-11T07:54:21.411Z</time>
      </trkpt>
      <trkpt lat="48.03497" lon="2.7511">
        <ele>102</ele>
        <time>2016-12-11T07:54:22.409Z</time>
      </trkpt>
      <trkpt lat="48.03495" lon="2.75111">
        <ele>102</ele>
        <time>2016-12-11T07:54:23.421Z</time>
      </trkpt>
      <trkpt lat="48.03495" lon="2.75111">
        <ele>102</ele>
        <time>2016-12-11T07:54:24.413Z</time>
      </trkpt>
      <trkpt lat="48.03493" lon="2.75116">
        <ele>102</ele>
        <time>2016-12-11T07:54:25.414Z</time>
      </trkpt>
      <trkpt lat="48.03493" lon="2.75118">
        <ele>102</ele>
        <time>2016-12-11T07:54:26.413Z</time>
      </trkpt>
      <trkpt lat="48.03493" lon="2.75118">
        <ele>102</ele>
        <time>2016-12-11T07:54:27.411Z</time>
      </trkpt>
      <trkpt lat="48.03492" lon="2.75122">
        <ele>101</ele>
        <time>2016-12-11T07:54:28.420Z</time>
      </trkpt>
      <trkpt lat="48.03492" lon="2.75122">
        <ele>101</ele>
        <time>2016-12-11T07:54:29.416Z</time>
      </trkpt>
      <trkpt lat="48.03491" lon="2.75127">
        <ele>102</ele>
        <time>2016-12-11T07:54:30.417Z</time>
      </trkpt>
      <trkpt lat="48.03491" lon="2.7513">
        <ele>102</ele>
        <time>2016-12-11T07:54:31.417Z</time>
      </trkpt>
      <trkpt lat="48.03491" lon="2.7513">
        <ele>102</ele>
        <time>2016-12-11T07:54:32.414Z</time>
      </trkpt>
      <trkpt lat="48.0349" lon="2.75136">
        <ele>102</ele>
        <time>2016-12-11T07:54:33.411Z</time>
      </trkpt>
      <trkpt lat="48.0349" lon="2.75139">
        <ele>102</ele>
        <time>2016-12-11T07:54:34.417Z</time>
      </trkpt>
      <trkpt lat="48.0349" lon="2.75139">
        <ele>102</ele>
        <time>2016-12-11T07:54:35.412Z</time>
      </trkpt>
      <trkpt lat="48.03489" lon="2.75143">
        <ele>102</ele>
        <time>2016-12-11T07:54:36.416Z</time>
      </trkpt>
      <trkpt lat="48.03488" lon="2.75146">
        <ele>102</ele>
        <time>2016-12-11T07:54:37.413Z</time>
      </trkpt>
      <trkpt lat="48.03488" lon="2.75146">
        <ele>102</ele>
        <time>2016-12-11T07:54:38.410Z</time>
      </trkpt>
      <trkpt lat="48.03486" lon="2.75151">
        <ele>102</ele>
        <time>2016-12-11T07:54:39.420Z</time>
      </trkpt>
      <trkpt lat="48.03486" lon="2.75151">
        <ele>102</ele>
        <time>2016-12-11T07:54:40.415Z</time>
      </trkpt>
      <trkpt lat="48.03485" lon="2.75156">
        <ele>103</ele>
        <time>2016-12-11T07:54:41.420Z</time>
      </trkpt>
      <trkpt lat="48.03485" lon="2.7516">
        <ele>103</ele>
        <time>2016-12-11T07:54:42.420Z</time>
      </trkpt>
      <trkpt lat="48.03485" lon="2.7516">
        <ele>103</ele>
        <time>2016-12-11T07:54:43.416Z</time>
      </trkpt>
      <trkpt lat="48.03485" lon="2.75166">
        <ele>103</ele>
        <time>2016-12-11T07:54:44.417Z</time>
      </trkpt>
      <trkpt lat="48.03485" lon="2.75169">
        <ele>103</ele>
        <time>2016-12-11T07:54:45.419Z</time>
      </trkpt>
      <trkpt lat="48.03485" lon="2.75169">
        <ele>103</ele>
        <time>2016-12-11T07:54:46.416Z</time>
      </trkpt>
      <trkpt lat="48.03483" lon="2.75178">
        <ele>103</ele>
        <time>2016-12-11T07:54:47.419Z</time>
      </trkpt>
      <trkpt lat="48.03483" lon="2.75178">
        <ele>103</ele>
        <time>2016-12-11T07:54:48.418Z</time>
      </trkpt>
      <trkpt lat="48.03482" lon="2.75187">
        <ele>104</ele>
        <time>2016-12-11T07:54:49.417Z</time>
      </trkpt>
      <trkpt lat="48.03481" lon="2.75192">
        <ele>104</ele>
        <time>2016-12-11T07:54:50.418Z</time>
      </trkpt>
      <trkpt lat="48.03481" lon="2.75192">
        <ele>104</ele>
        <time>2016-12-11T07:54:51.416Z</time>
      </trkpt>
      <trkpt lat="48.03479" lon="2.75202">
        <ele>104</ele>
        <time>2016-12-11T07:54:52.412Z</time>
      </trkpt>
      <trkpt lat="48.03479" lon="2.75202">
        <ele>104</ele>
        <time>2016-12-11T07:54:53.411Z</time>
      </trkpt>
      <trkpt lat="48.03477" lon="2.75211">
        <ele>104</ele>
        <time>2016-12-11T07:54:54.417Z</time>
      </trkpt>
      <trkpt lat="48.03477" lon="2.75211">
        <ele>104</ele>
        <time>2016-12-11T07:54:55.414Z</time>
      </trkpt>
      <trkpt lat="48.03476" lon="2.75221">
        <ele>104</ele>
        <time>2016-12-11T07:54:56.411Z</time>
      </trkpt>
      <trkpt lat="48.03476" lon="2.75221">
        <ele>104</ele>
        <time>2016-12-11T07:54:57.412Z</time>
      </trkpt>
      <trkpt lat="48.03474" lon="2.75232">
        <ele>105</ele>
        <time>2016-12-11T07:54:58.409Z</time>
      </trkpt>
      <trkpt lat="48.03474" lon="2.75232">
        <ele>105</ele>
        <time>2016-12-11T07:54:59.424Z</time>
      </trkpt>
      <trkpt lat="48.03472" lon="2.75242">
        <ele>105</ele>
        <time>2016-12-11T07:55:00.406Z</time>
      </trkpt>
      <trkpt lat="48.03472" lon="2.75242">
        <ele>105</ele>
        <time>2016-12-11T07:55:01.402Z</time>
      </trkpt>
      <trkpt lat="48.0347" lon="2.75252">
        <ele>105</ele>
        <time>2016-12-11T07:55:02.413Z</time>
      </trkpt>
      <trkpt lat="48.03469" lon="2.75258">
        <ele>106</ele>
        <time>2016-12-11T07:55:03.412Z</time>
      </trkpt>
      <trkpt lat="48.03469" lon="2.75258">
        <ele>106</ele>
        <time>2016-12-11T07:55:04.403Z</time>
      </trkpt>
      <trkpt lat="48.03467" lon="2.75268">
        <ele>105</ele>
        <time>2016-12-11T07:55:05.412Z</time>
      </trkpt>
      <trkpt lat="48.03466" lon="2.75273">
        <ele>105</ele>
        <time>2016-12-11T07:55:06.413Z</time>
      </trkpt>
      <trkpt lat="48.03466" lon="2.75273">
        <ele>105</ele>
        <time>2016-12-11T07:55:07.412Z</time>
      </trkpt>
      <trkpt lat="48.03465" lon="2.75283">
        <ele>105</ele>
        <time>2016-12-11T07:55:08.400Z</time>
      </trkpt>
      <trkpt lat="48.03465" lon="2.75283">
        <ele>105</ele>
        <time>2016-12-11T07:55:09.400Z</time>
      </trkpt>
      <trkpt lat="48.03462" lon="2.75294">
        <ele>105</ele>
        <time>2016-12-11T07:55:10.409Z</time>
      </trkpt>
      <trkpt lat="48.03462" lon="2.75299">
        <ele>105</ele>
        <time>2016-12-11T07:55:11.412Z</time>
      </trkpt>
      <trkpt lat="48.03462" lon="2.75305">
        <ele>105</ele>
        <time>2016-12-11T07:55:12.419Z</time>
      </trkpt>
      <trkpt lat="48.03462" lon="2.75305">
        <ele>105</ele>
        <time>2016-12-11T07:55:13.416Z</time>
      </trkpt>
      <trkpt lat="48.03461" lon="2.75316">
        <ele>105</ele>
        <time>2016-12-11T07:55:14.411Z</time>
      </trkpt>
      <trkpt lat="48.03461" lon="2.75321">
        <ele>105</ele>
        <time>2016-12-11T07:55:15.413Z</time>
      </trkpt>
      <trkpt lat="48.03461" lon="2.75321">
        <ele>105</ele>
        <time>2016-12-11T07:55:16.411Z</time>
      </trkpt>
      <trkpt lat="48.0346" lon="2.75333">
        <ele>105</ele>
        <time>2016-12-11T07:55:17.398Z</time>
      </trkpt>
      <trkpt lat="48.0346" lon="2.75333">
        <ele>105</ele>
        <time>2016-12-11T07:55:18.411Z</time>
      </trkpt>
      <trkpt lat="48.03459" lon="2.75344">
        <ele>106</ele>
        <time>2016-12-11T07:55:19.427Z</time>
      </trkpt>
      <trkpt lat="48.03458" lon="2.7535">
        <ele>106</ele>
        <time>2016-12-11T07:55:20.424Z</time>
      </trkpt>
      <trkpt lat="48.03458" lon="2.7535">
        <ele>106</ele>
        <time>2016-12-11T07:55:21.420Z</time>
      </trkpt>
      <trkpt lat="48.03456" lon="2.75361">
        <ele>106</ele>
        <time>2016-12-11T07:55:22.420Z</time>
      </trkpt>
      <trkpt lat="48.03456" lon="2.75361">
        <ele>106</ele>
        <time>2016-12-11T07:55:23.418Z</time>
      </trkpt>
      <trkpt lat="48.03454" lon="2.75372">
        <ele>105</ele>
        <time>2016-12-11T07:55:24.408Z</time>
      </trkpt>
      <trkpt lat="48.03454" lon="2.75372">
        <ele>105</ele>
        <time>2016-12-11T07:55:25.405Z</time>
      </trkpt>
      <trkpt lat="48.03453" lon="2.75383">
        <ele>105</ele>
        <time>2016-12-11T07:55:26.417Z</time>
      </trkpt>
      <trkpt lat="48.03453" lon="2.75383">
        <ele>105</ele>
        <time>2016-12-11T07:55:27.415Z</time>
      </trkpt>
      <trkpt lat="48.0345" lon="2.75394">
        <ele>105</ele>
        <time>2016-12-11T07:55:28.411Z</time>
      </trkpt>
      <trkpt lat="48.0345" lon="2.75394">
        <ele>105</ele>
        <time>2016-12-11T07:55:29.409Z</time>
      </trkpt>
      <trkpt lat="48.03448" lon="2.75408">
        <ele>105</ele>
        <time>2016-12-11T07:55:30.407Z</time>
      </trkpt>
      <trkpt lat="48.03448" lon="2.75408">
        <ele>105</ele>
        <time>2016-12-11T07:55:31.404Z</time>
      </trkpt>
      <trkpt lat="48.03447" lon="2.75421">
        <ele>105</ele>
        <time>2016-12-11T07:55:32.410Z</time>
      </trkpt>
      <trkpt lat="48.03446" lon="2.75427">
        <ele>104</ele>
        <time>2016-12-11T07:55:33.413Z</time>
      </trkpt>
      <trkpt lat="48.03446" lon="2.75427">
        <ele>104</ele>
        <time>2016-12-11T07:55:34.414Z</time>
      </trkpt>
      <trkpt lat="48.03443" lon="2.75439">
        <ele>104</ele>
        <time>2016-12-11T07:55:35.410Z</time>
      </trkpt>
      <trkpt lat="48.03442" lon="2.75445">
        <ele>104</ele>
        <time>2016-12-11T07:55:36.423Z</time>
      </trkpt>
      <trkpt lat="48.03442" lon="2.75445">
        <ele>104</ele>
        <time>2016-12-11T07:55:37.418Z</time>
      </trkpt>
      <trkpt lat="48.03441" lon="2.75458">
        <ele>104</ele>
        <time>2016-12-11T07:55:38.430Z</time>
      </trkpt>
      <trkpt lat="48.03441" lon="2.75458">
        <ele>104</ele>
        <time>2016-12-11T07:55:39.430Z</time>
      </trkpt>
      <trkpt lat="48.0344" lon="2.75471">
        <ele>104</ele>
        <time>2016-12-11T07:55:40.431Z</time>
      </trkpt>
      <trkpt lat="48.0344" lon="2.75471">
        <ele>104</ele>
        <time>2016-12-11T07:55:41.425Z</time>
      </trkpt>
      <trkpt lat="48.03438" lon="2.75482">
        <ele>104</ele>
        <time>2016-12-11T07:55:42.422Z</time>
      </trkpt>
      <trkpt lat="48.03438" lon="2.75482">
        <ele>104</ele>
        <time>2016-12-11T07:55:43.403Z</time>
      </trkpt>
      <trkpt lat="48.03436" lon="2.75494">
        <ele>104</ele>
        <time>2016-12-11T07:55:44.411Z</time>
      </trkpt>
      <trkpt lat="48.03436" lon="2.75494">
        <ele>104</ele>
        <time>2016-12-11T07:55:45.408Z</time>
      </trkpt>
      <trkpt lat="48.03433" lon="2.75507">
        <ele>103</ele>
        <time>2016-12-11T07:55:46.412Z</time>
      </trkpt>
      <trkpt lat="48.03433" lon="2.75507">
        <ele>103</ele>
        <time>2016-12-11T07:55:47.407Z</time>
      </trkpt>
      <trkpt lat="48.0343" lon="2.75519">
        <ele>103</ele>
        <time>2016-12-11T07:55:48.413Z</time>
      </trkpt>
      <trkpt lat="48.0343" lon="2.75519">
        <ele>103</ele>
        <time>2016-12-11T07:55:49.411Z</time>
      </trkpt>
      <trkpt lat="48.03429" lon="2.75533">
        <ele>104</ele>
        <time>2016-12-11T07:55:50.408Z</time>
      </trkpt>
      <trkpt lat="48.03429" lon="2.75533">
        <ele>104</ele>
        <time>2016-12-11T07:55:51.404Z</time>
      </trkpt>
      <trkpt lat="48.03428" lon="2.75546">
        <ele>104</ele>
        <time>2016-12-11T07:55:52.417Z</time>
      </trkpt>
      <trkpt lat="48.03428" lon="2.75546">
        <ele>104</ele>
        <time>2016-12-11T07:55:53.414Z</time>
      </trkpt>
      <trkpt lat="48.03426" lon="2.75558">
        <ele>105</ele>
        <time>2016-12-11T07:55:54.402Z</time>
      </trkpt>
      <trkpt lat="48.03426" lon="2.75558">
        <ele>105</ele>
        <time>2016-12-11T07:55:55.409Z</time>
      </trkpt>
      <trkpt lat="48.03423" lon="2.75571">
        <ele>106</ele>
        <time>2016-12-11T07:55:56.405Z</time>
      </trkpt>
      <trkpt lat="48.03423" lon="2.75571">
        <ele>106</ele>
        <time>2016-12-11T07:55:57.403Z</time>
      </trkpt>
      <trkpt lat="48.03421" lon="2.75584">
        <ele>106</ele>
        <time>2016-12-11T07:55:58.402Z</time>
      </trkpt>
      <trkpt lat="48.0342" lon="2.7559">
        <ele>106</ele>
        <time>2016-12-11T07:55:59.408Z</time>
      </trkpt>
      <trkpt lat="48.0342" lon="2.7559">
        <ele>106</ele>
        <time>2016-12-11T07:56:00.404Z</time>
      </trkpt>
      <trkpt lat="48.03418" lon="2.75603">
        <ele>106</ele>
        <time>2016-12-11T07:56:01.407Z</time>
      </trkpt>
      <trkpt lat="48.03418" lon="2.75603">
        <ele>106</ele>
        <time>2016-12-11T07:56:02.405Z</time>
      </trkpt>
      <trkpt lat="48.03417" lon="2.75615">
        <ele>107</ele>
        <time>2016-12-11T07:56:03.402Z</time>
      </trkpt>
      <trkpt lat="48.03416" lon="2.75621">
        <ele>108</ele>
        <time>2016-12-11T07:56:04.431Z</time>
      </trkpt>
      <trkpt lat="48.03416" lon="2.75621">
        <ele>108</ele>
        <time>2016-12-11T07:56:05.425Z</time>
      </trkpt>
      <trkpt lat="48.03415" lon="2.75634">
        <ele>108</ele>
        <time>2016-12-11T07:56:06.418Z</time>
      </trkpt>
      <trkpt lat="48.03415" lon="2.75634">
        <ele>108</ele>
        <time>2016-12-11T07:56:07.413Z</time>
      </trkpt>
      <trkpt lat="48.03413" lon="2.75647">
        <ele>108</ele>
        <time>2016-12-11T07:56:08.423Z</time>
      </trkpt>
      <trkpt lat="48.03413" lon="2.75647">
        <ele>108</ele>
        <time>2016-12-11T07:56:09.423Z</time>
      </trkpt>
      <trkpt lat="48.03411" lon="2.75658">
        <ele>109</ele>
        <time>2016-12-11T07:56:10.413Z</time>
      </trkpt>
      <trkpt lat="48.03411" lon="2.75658">
        <ele>109</ele>
        <time>2016-12-11T07:56:11.409Z</time>
      </trkpt>
      <trkpt lat="48.0341" lon="2.75669">
        <ele>109</ele>
        <time>2016-12-11T07:56:12.418Z</time>
      </trkpt>
      <trkpt lat="48.0341" lon="2.75669">
        <ele>109</ele>
        <time>2016-12-11T07:56:13.415Z</time>
      </trkpt>
      <trkpt lat="48.03409" lon="2.75682">
        <ele>110</ele>
        <time>2016-12-11T07:56:14.415Z</time>
      </trkpt>
      <trkpt lat="48.03409" lon="2.75682">
        <ele>110</ele>
        <time>2016-12-11T07:56:15.418Z</time>
      </trkpt>
      <trkpt lat="48.03407" lon="2.75693">
        <ele>111</ele>
        <time>2016-12-11T07:56:16.418Z</time>
      </trkpt>
      <trkpt lat="48.03406" lon="2.75698">
        <ele>111</ele>
        <time>2016-12-11T07:56:17.420Z</time>
      </trkpt>
      <trkpt lat="48.03405" lon="2.75704">
        <ele>112</ele>
        <time>2016-12-11T07:56:18.421Z</time>
      </trkpt>
      <trkpt lat="48.03403" lon="2.7571">
        <ele>112</ele>
        <time>2016-12-11T07:56:19.422Z</time>
      </trkpt>
      <trkpt lat="48.03403" lon="2.7571">
        <ele>112</ele>
        <time>2016-12-11T07:56:20.418Z</time>
      </trkpt>
      <trkpt lat="48.03402" lon="2.75723">
        <ele>112</ele>
        <time>2016-12-11T07:56:21.417Z</time>
      </trkpt>
      <trkpt lat="48.03402" lon="2.75723">
        <ele>112</ele>
        <time>2016-12-11T07:56:22.417Z</time>
      </trkpt>
      <trkpt lat="48.034" lon="2.75736">
        <ele>112</ele>
        <time>2016-12-11T07:56:23.416Z</time>
      </trkpt>
      <trkpt lat="48.03399" lon="2.75743">
        <ele>112</ele>
        <time>2016-12-11T07:56:24.414Z</time>
      </trkpt>
      <trkpt lat="48.03399" lon="2.75743">
        <ele>112</ele>
        <time>2016-12-11T07:56:25.412Z</time>
      </trkpt>
      <trkpt lat="48.03396" lon="2.75754">
        <ele>112</ele>
        <time>2016-12-11T07:56:26.420Z</time>
      </trkpt>
      <trkpt lat="48.03395" lon="2.7576">
        <ele>112</ele>
        <time>2016-12-11T07:56:27.418Z</time>
      </trkpt>
      <trkpt lat="48.03395" lon="2.7576">
        <ele>112</ele>
        <time>2016-12-11T07:56:28.413Z</time>
      </trkpt>
      <trkpt lat="48.03392" lon="2.75775">
        <ele>112</ele>
        <time>2016-12-11T07:56:29.419Z</time>
      </trkpt>
      <trkpt lat="48.03391" lon="2.75782">
        <ele>112</ele>
        <time>2016-12-11T07:56:30.418Z</time>
      </trkpt>
      <trkpt lat="48.03391" lon="2.75782">
        <ele>112</ele>
        <time>2016-12-11T07:56:31.414Z</time>
      </trkpt>
      <trkpt lat="48.0339" lon="2.75797">
        <ele>111</ele>
        <time>2016-12-11T07:56:32.412Z</time>
      </trkpt>
      <trkpt lat="48.03388" lon="2.75804">
        <ele>112</ele>
        <time>2016-12-11T07:56:33.418Z</time>
      </trkpt>
      <trkpt lat="48.03388" lon="2.75804">
        <ele>112</ele>
        <time>2016-12-11T07:56:34.410Z</time>
      </trkpt>
      <trkpt lat="48.03386" lon="2.75815">
        <ele>112</ele>
        <time>2016-12-11T07:56:35.411Z</time>
      </trkpt>
      <trkpt lat="48.03386" lon="2.75815">
        <ele>112</ele>
        <time>2016-12-11T07:56:36.417Z</time>
      </trkpt>
      <trkpt lat="48.03385" lon="2.75825">
        <ele>112</ele>
        <time>2016-12-11T07:56:37.413Z</time>
      </trkpt>
      <trkpt lat="48.03384" lon="2.75831">
        <ele>112</ele>
        <time>2016-12-11T07:56:38.414Z</time>
      </trkpt>
      <trkpt lat="48.03384" lon="2.75831">
        <ele>112</ele>
        <time>2016-12-11T07:56:39.410Z</time>
      </trkpt>
      <trkpt lat="48.03382" lon="2.75842">
        <ele>112</ele>
        <time>2016-12-11T07:56:40.412Z</time>
      </trkpt>
      <trkpt lat="48.03382" lon="2.75842">
        <ele>112</ele>
        <time>2016-12-11T07:56:41.407Z</time>
      </trkpt>
      <trkpt lat="48.03379" lon="2.75855">
        <ele>112</ele>
        <time>2016-12-11T07:56:42.427Z</time>
      </trkpt>
      <trkpt lat="48.03379" lon="2.75855">
        <ele>112</ele>
        <time>2016-12-11T07:56:43.425Z</time>
      </trkpt>
      <trkpt lat="48.03378" lon="2.75867">
        <ele>111</ele>
        <time>2016-12-11T07:56:44.418Z</time>
      </trkpt>
      <trkpt lat="48.03377" lon="2.75873">
        <ele>111</ele>
        <time>2016-12-11T07:56:45.420Z</time>
      </trkpt>
      <trkpt lat="48.03377" lon="2.75873">
        <ele>111</ele>
        <time>2016-12-11T07:56:46.417Z</time>
      </trkpt>
      <trkpt lat="48.03374" lon="2.75884">
        <ele>111</ele>
        <time>2016-12-11T07:56:47.420Z</time>
      </trkpt>
      <trkpt lat="48.03374" lon="2.7589">
        <ele>111</ele>
        <time>2016-12-11T07:56:48.417Z</time>
      </trkpt>
      <trkpt lat="48.03374" lon="2.7589">
        <ele>111</ele>
        <time>2016-12-11T07:56:49.413Z</time>
      </trkpt>
      <trkpt lat="48.03372" lon="2.75902">
        <ele>111</ele>
        <time>2016-12-11T07:56:50.413Z</time>
      </trkpt>
      <trkpt lat="48.03372" lon="2.75902">
        <ele>111</ele>
        <time>2016-12-11T07:56:51.409Z</time>
      </trkpt>
      <trkpt lat="48.03371" lon="2.75913">
        <ele>111</ele>
        <time>2016-12-11T07:56:52.419Z</time>
      </trkpt>
      <trkpt lat="48.03371" lon="2.75913">
        <ele>111</ele>
        <time>2016-12-11T07:56:53.418Z</time>
      </trkpt>
      <trkpt lat="48.03368" lon="2.75924">
        <ele>111</ele>
        <time>2016-12-11T07:56:54.414Z</time>
      </trkpt>
      <trkpt lat="48.03368" lon="2.75924">
        <ele>111</ele>
        <time>2016-12-11T07:56:55.410Z</time>
      </trkpt>
      <trkpt lat="48.03367" lon="2.75934">
        <ele>111</ele>
        <time>2016-12-11T07:56:56.412Z</time>
      </trkpt>
      <trkpt lat="48.03367" lon="2.75934">
        <ele>111</ele>
        <time>2016-12-11T07:56:57.409Z</time>
      </trkpt>
      <trkpt lat="48.03366" lon="2.75946">
        <ele>111</ele>
        <time>2016-12-11T07:56:58.407Z</time>
      </trkpt>
      <trkpt lat="48.03366" lon="2.75946">
        <ele>111</ele>
        <time>2016-12-11T07:56:59.419Z</time>
      </trkpt>
      <trkpt lat="48.03364" lon="2.75957">
        <ele>112</ele>
        <time>2016-12-11T07:57:00.413Z</time>
      </trkpt>
      <trkpt lat="48.03364" lon="2.75957">
        <ele>112</ele>
        <time>2016-12-11T07:57:01.410Z</time>
      </trkpt>
      <trkpt lat="48.03363" lon="2.75968">
        <ele>113</ele>
        <time>2016-12-11T07:57:02.419Z</time>
      </trkpt>
      <trkpt lat="48.03363" lon="2.75968">
        <ele>113</ele>
        <time>2016-12-11T07:57:03.415Z</time>
      </trkpt>
      <trkpt lat="48.03359" lon="2.75976">
        <ele>113</ele>
        <time>2016-12-11T07:57:04.424Z</time>
      </trkpt>
      <trkpt lat="48.03357" lon="2.75977">
        <ele>113</ele>
        <time>2016-12-11T07:57:05.429Z</time>
      </trkpt>
      <trkpt lat="48.03354" lon="2.75977">
        <ele>114</ele>
        <time>2016-12-11T07:57:06.427Z</time>
      </trkpt>
      <trkpt lat="48.03354" lon="2.75977">
        <ele>114</ele>
        <time>2016-12-11T07:57:07.419Z</time>
      </trkpt>
      <trkpt lat="48.03348" lon="2.75974">
        <ele>114</ele>
        <time>2016-12-11T07:57:08.433Z</time>
      </trkpt>
      <trkpt lat="48.03348" lon="2.75974">
        <ele>114</ele>
        <time>2016-12-11T07:57:09.431Z</time>
      </trkpt>
      <trkpt lat="48.03343" lon="2.7597">
        <ele>114</ele>
        <time>2016-12-11T07:57:10.430Z</time>
      </trkpt>
      <trkpt lat="48.0334" lon="2.75968">
        <ele>114</ele>
        <time>2016-12-11T07:57:11.433Z</time>
      </trkpt>
      <trkpt lat="48.03337" lon="2.75967">
        <ele>114</ele>
        <time>2016-12-11T07:57:12.433Z</time>
      </trkpt>
      <trkpt lat="48.03337" lon="2.75967">
        <ele>114</ele>
        <time>2016-12-11T07:57:13.409Z</time>
      </trkpt>
      <trkpt lat="48.0333" lon="2.75963">
        <ele>114</ele>
        <time>2016-12-11T07:57:14.411Z</time>
      </trkpt>
      <trkpt lat="48.0333" lon="2.75963">
        <ele>114</ele>
        <time>2016-12-11T07:57:15.422Z</time>
      </trkpt>
      <trkpt lat="48.03324" lon="2.75959">
        <ele>113</ele>
        <time>2016-12-11T07:57:16.420Z</time>
      </trkpt>
      <trkpt lat="48.03324" lon="2.75959">
        <ele>113</ele>
        <time>2016-12-11T07:57:17.405Z</time>
      </trkpt>
      <trkpt lat="48.03318" lon="2.75953">
        <ele>113</ele>
        <time>2016-12-11T07:57:18.419Z</time>
      </trkpt>
      <trkpt lat="48.03318" lon="2.75953">
        <ele>113</ele>
        <time>2016-12-11T07:57:19.416Z</time>
      </trkpt>
      <trkpt lat="48.03311" lon="2.75948">
        <ele>112</ele>
        <time>2016-12-11T07:57:20.412Z</time>
      </trkpt>
      <trkpt lat="48.03311" lon="2.75948">
        <ele>112</ele>
        <time>2016-12-11T07:57:21.410Z</time>
      </trkpt>
      <trkpt lat="48.03304" lon="2.75944">
        <ele>112</ele>
        <time>2016-12-11T07:57:22.413Z</time>
      </trkpt>
      <trkpt lat="48.03304" lon="2.75944">
        <ele>112</ele>
        <time>2016-12-11T07:57:23.424Z</time>
      </trkpt>
      <trkpt lat="48.03296" lon="2.75939">
        <ele>111</ele>
        <time>2016-12-11T07:57:24.434Z</time>
      </trkpt>
      <trkpt lat="48.03296" lon="2.75939">
        <ele>111</ele>
        <time>2016-12-11T07:57:25.435Z</time>
      </trkpt>
      <trkpt lat="48.03289" lon="2.75934">
        <ele>111</ele>
        <time>2016-12-11T07:57:26.422Z</time>
      </trkpt>
      <trkpt lat="48.03289" lon="2.75934">
        <ele>111</ele>
        <time>2016-12-11T07:57:27.416Z</time>
      </trkpt>
      <trkpt lat="48.03282" lon="2.75928">
        <ele>110</ele>
        <time>2016-12-11T07:57:28.412Z</time>
      </trkpt>
      <trkpt lat="48.03282" lon="2.75928">
        <ele>110</ele>
        <time>2016-12-11T07:57:29.410Z</time>
      </trkpt>
      <trkpt lat="48.03275" lon="2.75922">
        <ele>110</ele>
        <time>2016-12-11T07:57:30.413Z</time>
      </trkpt>
      <trkpt lat="48.03275" lon="2.75922">
        <ele>110</ele>
        <time>2016-12-11T07:57:31.398Z</time>
      </trkpt>
      <trkpt lat="48.03268" lon="2.75918">
        <ele>110</ele>
        <time>2016-12-11T07:57:32.412Z</time>
      </trkpt>
      <trkpt lat="48.03268" lon="2.75918">
        <ele>110</ele>
        <time>2016-12-11T07:57:33.410Z</time>
      </trkpt>
      <trkpt lat="48.0326" lon="2.75913">
        <ele>109</ele>
        <time>2016-12-11T07:57:34.420Z</time>
      </trkpt>
      <trkpt lat="48.0326" lon="2.75913">
        <ele>109</ele>
        <time>2016-12-11T07:57:35.414Z</time>
      </trkpt>
      <trkpt lat="48.03253" lon="2.75909">
        <ele>109</ele>
        <time>2016-12-11T07:57:36.414Z</time>
      </trkpt>
      <trkpt lat="48.03253" lon="2.75909">
        <ele>109</ele>
        <time>2016-12-11T07:57:37.409Z</time>
      </trkpt>
      <trkpt lat="48.03247" lon="2.75905">
        <ele>109</ele>
        <time>2016-12-11T07:57:38.412Z</time>
      </trkpt>
      <trkpt lat="48.03247" lon="2.75905">
        <ele>109</ele>
        <time>2016-12-11T07:57:39.424Z</time>
      </trkpt>
      <trkpt lat="48.03241" lon="2.75901">
        <ele>109</ele>
        <time>2016-12-11T07:57:40.420Z</time>
      </trkpt>
      <trkpt lat="48.03238" lon="2.75898">
        <ele>109</ele>
        <time>2016-12-11T07:57:41.420Z</time>
      </trkpt>
      <trkpt lat="48.03235" lon="2.75896">
        <ele>109</ele>
        <time>2016-12-11T07:57:42.425Z</time>
      </trkpt>
      <trkpt lat="48.03235" lon="2.75896">
        <ele>109</ele>
        <time>2016-12-11T07:57:43.419Z</time>
      </trkpt>
      <trkpt lat="48.03228" lon="2.75891">
        <ele>109</ele>
        <time>2016-12-11T07:57:44.417Z</time>
      </trkpt>
      <trkpt lat="48.03228" lon="2.75891">
        <ele>109</ele>
        <time>2016-12-11T07:57:45.415Z</time>
      </trkpt>
      <trkpt lat="48.03222" lon="2.75891">
        <ele>109</ele>
        <time>2016-12-11T07:57:46.419Z</time>
      </trkpt>
      <trkpt lat="48.03222" lon="2.75891">
        <ele>109</ele>
        <time>2016-12-11T07:57:47.419Z</time>
      </trkpt>
      <trkpt lat="48.03217" lon="2.75898">
        <ele>109</ele>
        <time>2016-12-11T07:57:48.418Z</time>
      </trkpt>
      <trkpt lat="48.03217" lon="2.75898">
        <ele>109</ele>
        <time>2016-12-11T07:57:49.414Z</time>
      </trkpt>
      <trkpt lat="48.03215" lon="2.75908">
        <ele>109</ele>
        <time>2016-12-11T07:57:50.425Z</time>
      </trkpt>
      <trkpt lat="48.03214" lon="2.75914">
        <ele>109</ele>
        <time>2016-12-11T07:57:51.425Z</time>
      </trkpt>
      <trkpt lat="48.03214" lon="2.75914">
        <ele>109</ele>
        <time>2016-12-11T07:57:52.399Z</time>
      </trkpt>
      <trkpt lat="48.03213" lon="2.75925">
        <ele>110</ele>
        <time>2016-12-11T07:57:53.419Z</time>
      </trkpt>
      <trkpt lat="48.03212" lon="2.7593">
        <ele>110</ele>
        <time>2016-12-11T07:57:54.413Z</time>
      </trkpt>
      <trkpt lat="48.03212" lon="2.7593">
        <ele>110</ele>
        <time>2016-12-11T07:57:55.433Z</time>
      </trkpt>
      <trkpt lat="48.0321" lon="2.75941">
        <ele>110</ele>
        <time>2016-12-11T07:57:56.396Z</time>
      </trkpt>
      <trkpt lat="48.0321" lon="2.75941">
        <ele>110</ele>
        <time>2016-12-11T07:57:57.410Z</time>
      </trkpt>
      <trkpt lat="48.03208" lon="2.75952">
        <ele>110</ele>
        <time>2016-12-11T07:57:58.413Z</time>
      </trkpt>
      <trkpt lat="48.03208" lon="2.75952">
        <ele>110</ele>
        <time>2016-12-11T07:57:59.398Z</time>
      </trkpt>
      <trkpt lat="48.03207" lon="2.75963">
        <ele>111</ele>
        <time>2016-12-11T07:58:00.433Z</time>
      </trkpt>
      <trkpt lat="48.03207" lon="2.75963">
        <ele>111</ele>
        <time>2016-12-11T07:58:01.432Z</time>
      </trkpt>
      <trkpt lat="48.03205" lon="2.75974">
        <ele>111</ele>
        <time>2016-12-11T07:58:02.431Z</time>
      </trkpt>
      <trkpt lat="48.03205" lon="2.75974">
        <ele>111</ele>
        <time>2016-12-11T07:58:03.433Z</time>
      </trkpt>
      <trkpt lat="48.03203" lon="2.75985">
        <ele>111</ele>
        <time>2016-12-11T07:58:04.418Z</time>
      </trkpt>
      <trkpt lat="48.03203" lon="2.75985">
        <ele>111</ele>
        <time>2016-12-11T07:58:05.413Z</time>
      </trkpt>
      <trkpt lat="48.03201" lon="2.75995">
        <ele>111</ele>
        <time>2016-12-11T07:58:06.426Z</time>
      </trkpt>
      <trkpt lat="48.03201" lon="2.75995">
        <ele>111</ele>
        <time>2016-12-11T07:58:07.402Z</time>
      </trkpt>
      <trkpt lat="48.032" lon="2.76006">
        <ele>112</ele>
        <time>2016-12-11T07:58:08.414Z</time>
      </trkpt>
      <trkpt lat="48.032" lon="2.76006">
        <ele>112</ele>
        <time>2016-12-11T07:58:09.418Z</time>
      </trkpt>
      <trkpt lat="48.03199" lon="2.76017">
        <ele>112</ele>
        <time>2016-12-11T07:58:10.418Z</time>
      </trkpt>
      <trkpt lat="48.03199" lon="2.76017">
        <ele>112</ele>
        <time>2016-12-11T07:58:11.412Z</time>
      </trkpt>
      <trkpt lat="48.03197" lon="2.76029">
        <ele>112</ele>
        <time>2016-12-11T07:58:12.419Z</time>
      </trkpt>
      <trkpt lat="48.03197" lon="2.76029">
        <ele>112</ele>
        <time>2016-12-11T07:58:13.418Z</time>
      </trkpt>
      <trkpt lat="48.03196" lon="2.76039">
        <ele>113</ele>
        <time>2016-12-11T07:58:14.414Z</time>
      </trkpt>
      <trkpt lat="48.03196" lon="2.76039">
        <ele>113</ele>
        <time>2016-12-11T07:58:15.411Z</time>
      </trkpt>
      <trkpt lat="48.03194" lon="2.7605">
        <ele>113</ele>
        <time>2016-12-11T07:58:16.419Z</time>
      </trkpt>
      <trkpt lat="48.03193" lon="2.76056">
        <ele>113</ele>
        <time>2016-12-11T07:58:17.411Z</time>
      </trkpt>
      <trkpt lat="48.03193" lon="2.76056">
        <ele>113</ele>
        <time>2016-12-11T07:58:18.407Z</time>
      </trkpt>
      <trkpt lat="48.03192" lon="2.76066">
        <ele>113</ele>
        <time>2016-12-11T07:58:19.419Z</time>
      </trkpt>
      <trkpt lat="48.03192" lon="2.76066">
        <ele>113</ele>
        <time>2016-12-11T07:58:20.417Z</time>
      </trkpt>
      <trkpt lat="48.0319" lon="2.76076">
        <ele>113</ele>
        <time>2016-12-11T07:58:21.412Z</time>
      </trkpt>
      <trkpt lat="48.0319" lon="2.76082">
        <ele>113</ele>
        <time>2016-12-11T07:58:22.413Z</time>
      </trkpt>
      <trkpt lat="48.0319" lon="2.76082">
        <ele>113</ele>
        <time>2016-12-11T07:58:23.411Z</time>
      </trkpt>
      <trkpt lat="48.03188" lon="2.76092">
        <ele>113</ele>
        <time>2016-12-11T07:58:24.418Z</time>
      </trkpt>
      <trkpt lat="48.03188" lon="2.76092">
        <ele>113</ele>
        <time>2016-12-11T07:58:25.412Z</time>
      </trkpt>
      <trkpt lat="48.03187" lon="2.76103">
        <ele>114</ele>
        <time>2016-12-11T07:58:26.413Z</time>
      </trkpt>
      <trkpt lat="48.03186" lon="2.76107">
        <ele>113</ele>
        <time>2016-12-11T07:58:27.413Z</time>
      </trkpt>
      <trkpt lat="48.03186" lon="2.76107">
        <ele>113</ele>
        <time>2016-12-11T07:58:28.409Z</time>
      </trkpt>
      <trkpt lat="48.03184" lon="2.76118">
        <ele>113</ele>
        <time>2016-12-11T07:58:29.419Z</time>
      </trkpt>
      <trkpt lat="48.03184" lon="2.76118">
        <ele>113</ele>
        <time>2016-12-11T07:58:30.416Z</time>
      </trkpt>
      <trkpt lat="48.03182" lon="2.76129">
        <ele>113</ele>
        <time>2016-12-11T07:58:31.430Z</time>
      </trkpt>
      <trkpt lat="48.03182" lon="2.76135">
        <ele>113</ele>
        <time>2016-12-11T07:58:32.425Z</time>
      </trkpt>
      <trkpt lat="48.03182" lon="2.76135">
        <ele>113</ele>
        <time>2016-12-11T07:58:33.423Z</time>
      </trkpt>
      <trkpt lat="48.03182" lon="2.76145">
        <ele>113</ele>
        <time>2016-12-11T07:58:34.432Z</time>
      </trkpt>
      <trkpt lat="48.03182" lon="2.76145">
        <ele>113</ele>
        <time>2016-12-11T07:58:35.432Z</time>
      </trkpt>
      <trkpt lat="48.0318" lon="2.76156">
        <ele>113</ele>
        <time>2016-12-11T07:58:36.397Z</time>
      </trkpt>
      <trkpt lat="48.0318" lon="2.76162">
        <ele>113</ele>
        <time>2016-12-11T07:58:37.432Z</time>
      </trkpt>
      <trkpt lat="48.0318" lon="2.76162">
        <ele>113</ele>
        <time>2016-12-11T07:58:38.430Z</time>
      </trkpt>
      <trkpt lat="48.03179" lon="2.76173">
        <ele>113</ele>
        <time>2016-12-11T07:58:39.433Z</time>
      </trkpt>
      <trkpt lat="48.03177" lon="2.76178">
        <ele>113</ele>
        <time>2016-12-11T07:58:40.432Z</time>
      </trkpt>
      <trkpt lat="48.03177" lon="2.76178">
        <ele>113</ele>
        <time>2016-12-11T07:58:41.397Z</time>
      </trkpt>
      <trkpt lat="48.03175" lon="2.7619">
        <ele>113</ele>
        <time>2016-12-11T07:58:42.425Z</time>
      </trkpt>
      <trkpt lat="48.03175" lon="2.7619">
        <ele>113</ele>
        <time>2016-12-11T07:58:43.430Z</time>
      </trkpt>
      <trkpt lat="48.03173" lon="2.76202">
        <ele>113</ele>
        <time>2016-12-11T07:58:44.420Z</time>
      </trkpt>
      <trkpt lat="48.03173" lon="2.76202">
        <ele>113</ele>
        <time>2016-12-11T07:58:45.422Z</time>
      </trkpt>
      <trkpt lat="48.03171" lon="2.76214">
        <ele>113</ele>
        <time>2016-12-11T07:58:46.402Z</time>
      </trkpt>
      <trkpt lat="48.0317" lon="2.7622">
        <ele>113</ele>
        <time>2016-12-11T07:58:47.409Z</time>
      </trkpt>
      <trkpt lat="48.03168" lon="2.76226">
        <ele>113</ele>
        <time>2016-12-11T07:58:48.418Z</time>
      </trkpt>
      <trkpt lat="48.03167" lon="2.76232">
        <ele>113</ele>
        <time>2016-12-11T07:58:49.434Z</time>
      </trkpt>
      <trkpt lat="48.03167" lon="2.76232">
        <ele>113</ele>
        <time>2016-12-11T07:58:50.399Z</time>
      </trkpt>
      <trkpt lat="48.03164" lon="2.76243">
        <ele>112</ele>
        <time>2016-12-11T07:58:51.433Z</time>
      </trkpt>
      <trkpt lat="48.03162" lon="2.76249">
        <ele>112</ele>
        <time>2016-12-11T07:58:52.430Z</time>
      </trkpt>
      <trkpt lat="48.03162" lon="2.76249">
        <ele>112</ele>
        <time>2016-12-11T07:58:53.410Z</time>
      </trkpt>
      <trkpt lat="48.03159" lon="2.76262">
        <ele>112</ele>
        <time>2016-12-11T07:58:54.419Z</time>
      </trkpt>
      <trkpt lat="48.03159" lon="2.76262">
        <ele>112</ele>
        <time>2016-12-11T07:58:55.416Z</time>
      </trkpt>
      <trkpt lat="48.03158" lon="2.76276">
        <ele>112</ele>
        <time>2016-12-11T07:58:56.413Z</time>
      </trkpt>
      <trkpt lat="48.03158" lon="2.76276">
        <ele>112</ele>
        <time>2016-12-11T07:58:57.402Z</time>
      </trkpt>
      <trkpt lat="48.03155" lon="2.7629">
        <ele>113</ele>
        <time>2016-12-11T07:58:58.409Z</time>
      </trkpt>
      <trkpt lat="48.03155" lon="2.7629">
        <ele>113</ele>
        <time>2016-12-11T07:58:59.417Z</time>
      </trkpt>
      <trkpt lat="48.03149" lon="2.76304">
        <ele>113</ele>
        <time>2016-12-11T07:59:00.418Z</time>
      </trkpt>
      <trkpt lat="48.03148" lon="2.7631">
        <ele>113</ele>
        <time>2016-12-11T07:59:01.411Z</time>
      </trkpt>
      <trkpt lat="48.03148" lon="2.7631">
        <ele>113</ele>
        <time>2016-12-11T07:59:02.421Z</time>
      </trkpt>
      <trkpt lat="48.03147" lon="2.76321">
        <ele>113</ele>
        <time>2016-12-11T07:59:03.420Z</time>
      </trkpt>
      <trkpt lat="48.03147" lon="2.76321">
        <ele>113</ele>
        <time>2016-12-11T07:59:04.408Z</time>
      </trkpt>
      <trkpt lat="48.03152" lon="2.76327">
        <ele>114</ele>
        <time>2016-12-11T07:59:05.413Z</time>
      </trkpt>
      <trkpt lat="48.03155" lon="2.76329">
        <ele>114</ele>
        <time>2016-12-11T07:59:06.415Z</time>
      </trkpt>
      <trkpt lat="48.03155" lon="2.76329">
        <ele>114</ele>
        <time>2016-12-11T07:59:07.421Z</time>
      </trkpt>
      <trkpt lat="48.03162" lon="2.76329">
        <ele>115</ele>
        <time>2016-12-11T07:59:08.398Z</time>
      </trkpt>
      <trkpt lat="48.03162" lon="2.76329">
        <ele>115</ele>
        <time>2016-12-11T07:59:09.398Z</time>
      </trkpt>
      <trkpt lat="48.03169" lon="2.7633">
        <ele>114</ele>
        <time>2016-12-11T07:59:10.408Z</time>
      </trkpt>
      <trkpt lat="48.03171" lon="2.76331">
        <ele>114</ele>
        <time>2016-12-11T07:59:11.414Z</time>
      </trkpt>
      <trkpt lat="48.03171" lon="2.76331">
        <ele>114</ele>
        <time>2016-12-11T07:59:12.411Z</time>
      </trkpt>
      <trkpt lat="48.03178" lon="2.76333">
        <ele>114</ele>
        <time>2016-12-11T07:59:13.413Z</time>
      </trkpt>
      <trkpt lat="48.03181" lon="2.76334">
        <ele>114</ele>
        <time>2016-12-11T07:59:14.423Z</time>
      </trkpt>
      <trkpt lat="48.03181" lon="2.76334">
        <ele>114</ele>
        <time>2016-12-11T07:59:15.419Z</time>
      </trkpt>
      <trkpt lat="48.03187" lon="2.76334">
        <ele>114</ele>
        <time>2016-12-11T07:59:16.420Z</time>
      </trkpt>
      <trkpt lat="48.03187" lon="2.76334">
        <ele>114</ele>
        <time>2016-12-11T07:59:17.413Z</time>
      </trkpt>
      <trkpt lat="48.03193" lon="2.76335">
        <ele>114</ele>
        <time>2016-12-11T07:59:18.419Z</time>
      </trkpt>
      <trkpt lat="48.03193" lon="2.76335">
        <ele>114</ele>
        <time>2016-12-11T07:59:19.416Z</time>
      </trkpt>
      <trkpt lat="48.032" lon="2.76339">
        <ele>114</ele>
        <time>2016-12-11T07:59:20.419Z</time>
      </trkpt>
      <trkpt lat="48.03203" lon="2.7634">
        <ele>114</ele>
        <time>2016-12-11T07:59:21.420Z</time>
      </trkpt>
      <trkpt lat="48.03203" lon="2.7634">
        <ele>114</ele>
        <time>2016-12-11T07:59:22.416Z</time>
      </trkpt>
      <trkpt lat="48.03211" lon="2.76342">
        <ele>113</ele>
        <time>2016-12-11T07:59:23.420Z</time>
      </trkpt>
      <trkpt lat="48.03214" lon="2.76343">
        <ele>113</ele>
        <time>2016-12-11T07:59:24.411Z</time>
      </trkpt>
      <trkpt lat="48.03214" lon="2.76343">
        <ele>113</ele>
        <time>2016-12-11T07:59:25.409Z</time>
      </trkpt>
      <trkpt lat="48.03221" lon="2.76345">
        <ele>113</ele>
        <time>2016-12-11T07:59:26.412Z</time>
      </trkpt>
      <trkpt lat="48.03221" lon="2.76345">
        <ele>113</ele>
        <time>2016-12-11T07:59:27.411Z</time>
      </trkpt>
      <trkpt lat="48.0323" lon="2.76349">
        <ele>112</ele>
        <time>2016-12-11T07:59:28.415Z</time>
      </trkpt>
      <trkpt lat="48.03234" lon="2.76351">
        <ele>112</ele>
        <time>2016-12-11T07:59:29.432Z</time>
      </trkpt>
      <trkpt lat="48.03238" lon="2.76352">
        <ele>111</ele>
        <time>2016-12-11T07:59:30.428Z</time>
      </trkpt>
      <trkpt lat="48.03238" lon="2.76352">
        <ele>111</ele>
        <time>2016-12-11T07:59:31.419Z</time>
      </trkpt>
      <trkpt lat="48.03247" lon="2.76356">
        <ele>111</ele>
        <time>2016-12-11T07:59:32.420Z</time>
      </trkpt>
      <trkpt lat="48.03247" lon="2.76356">
        <ele>111</ele>
        <time>2016-12-11T07:59:33.419Z</time>
      </trkpt>
      <trkpt lat="48.03255" lon="2.7636">
        <ele>111</ele>
        <time>2016-12-11T07:59:34.415Z</time>
      </trkpt>
      <trkpt lat="48.03255" lon="2.7636">
        <ele>111</ele>
        <time>2016-12-11T07:59:35.409Z</time>
      </trkpt>
      <trkpt lat="48.03263" lon="2.76364">
        <ele>110</ele>
        <time>2016-12-11T07:59:36.410Z</time>
      </trkpt>
      <trkpt lat="48.03263" lon="2.76364">
        <ele>110</ele>
        <time>2016-12-11T07:59:37.411Z</time>
      </trkpt>
      <trkpt lat="48.03275" lon="2.76369">
        <ele>110</ele>
        <time>2016-12-11T07:59:38.407Z</time>
      </trkpt>
      <trkpt lat="48.03275" lon="2.76369">
        <ele>110</ele>
        <time>2016-12-11T07:59:39.404Z</time>
      </trkpt>
      <trkpt lat="48.03284" lon="2.76372">
        <ele>110</ele>
        <time>2016-12-11T07:59:40.428Z</time>
      </trkpt>
      <trkpt lat="48.03288" lon="2.76373">
        <ele>109</ele>
        <time>2016-12-11T07:59:41.435Z</time>
      </trkpt>
      <trkpt lat="48.03292" lon="2.76375">
        <ele>109</ele>
        <time>2016-12-11T07:59:42.419Z</time>
      </trkpt>
      <trkpt lat="48.03292" lon="2.76375">
        <ele>109</ele>
        <time>2016-12-11T07:59:43.418Z</time>
      </trkpt>
      <trkpt lat="48.03302" lon="2.76377">
        <ele>109</ele>
        <time>2016-12-11T07:59:44.402Z</time>
      </trkpt>
      <trkpt lat="48.03302" lon="2.76377">
        <ele>109</ele>
        <time>2016-12-11T07:59:45.397Z</time>
      </trkpt>
      <trkpt lat="48.0331" lon="2.7638">
        <ele>108</ele>
        <time>2016-12-11T07:59:46.416Z</time>
      </trkpt>
      <trkpt lat="48.0331" lon="2.7638">
        <ele>108</ele>
        <time>2016-12-11T07:59:47.414Z</time>
      </trkpt>
      <trkpt lat="48.03319" lon="2.76382">
        <ele>107</ele>
        <time>2016-12-11T07:59:48.412Z</time>
      </trkpt>
      <trkpt lat="48.03319" lon="2.76382">
        <ele>107</ele>
        <time>2016-12-11T07:59:49.411Z</time>
      </trkpt>
      <trkpt lat="48.03328" lon="2.76386">
        <ele>108</ele>
        <time>2016-12-11T07:59:50.420Z</time>
      </trkpt>
      <trkpt lat="48.03328" lon="2.76386">
        <ele>108</ele>
        <time>2016-12-11T07:59:51.418Z</time>
      </trkpt>
      <trkpt lat="48.03337" lon="2.76391">
        <ele>108</ele>
        <time>2016-12-11T07:59:52.413Z</time>
      </trkpt>
      <trkpt lat="48.03341" lon="2.76392">
        <ele>107</ele>
        <time>2016-12-11T07:59:53.419Z</time>
      </trkpt>
      <trkpt lat="48.03346" lon="2.76393">
        <ele>108</ele>
        <time>2016-12-11T07:59:54.419Z</time>
      </trkpt>
      <trkpt lat="48.03346" lon="2.76393">
        <ele>108</ele>
        <time>2016-12-11T07:59:55.413Z</time>
      </trkpt>
      <trkpt lat="48.03355" lon="2.76397">
        <ele>107</ele>
        <time>2016-12-11T07:59:56.412Z</time>
      </trkpt>
      <trkpt lat="48.03355" lon="2.76397">
        <ele>107</ele>
        <time>2016-12-11T07:59:57.407Z</time>
      </trkpt>
      <trkpt lat="48.03364" lon="2.76401">
        <ele>108</ele>
        <time>2016-12-11T07:59:58.419Z</time>
      </trkpt>
      <trkpt lat="48.03364" lon="2.76401">
        <ele>108</ele>
        <time>2016-12-11T07:59:59.398Z</time>
      </trkpt>
      <trkpt lat="48.03374" lon="2.76405">
        <ele>108</ele>
        <time>2016-12-11T08:00:00.420Z</time>
      </trkpt>
      <trkpt lat="48.03374" lon="2.76405">
        <ele>108</ele>
        <time>2016-12-11T08:00:01.413Z</time>
      </trkpt>
      <trkpt lat="48.03383" lon="2.76409">
        <ele>108</ele>
        <time>2016-12-11T08:00:02.420Z</time>
      </trkpt>
      <trkpt lat="48.03383" lon="2.76409">
        <ele>108</ele>
        <time>2016-12-11T08:00:03.418Z</time>
      </trkpt>
      <trkpt lat="48.03391" lon="2.76413">
        <ele>107</ele>
        <time>2016-12-11T08:00:04.415Z</time>
      </trkpt>
      <trkpt lat="48.03395" lon="2.76415">
        <ele>107</ele>
        <time>2016-12-11T08:00:05.424Z</time>
      </trkpt>
      <trkpt lat="48.03395" lon="2.76415">
        <ele>107</ele>
        <time>2016-12-11T08:00:06.420Z</time>
      </trkpt>
      <trkpt lat="48.03405" lon="2.76419">
        <ele>108</ele>
        <time>2016-12-11T08:00:07.414Z</time>
      </trkpt>
      <trkpt lat="48.03408" lon="2.76421">
        <ele>108</ele>
        <time>2016-12-11T08:00:08.412Z</time>
      </trkpt>
      <trkpt lat="48.03408" lon="2.76421">
        <ele>108</ele>
        <time>2016-12-11T08:00:09.410Z</time>
      </trkpt>
      <trkpt lat="48.03417" lon="2.76424">
        <ele>108</ele>
        <time>2016-12-11T08:00:10.414Z</time>
      </trkpt>
      <trkpt lat="48.03417" lon="2.76424">
        <ele>108</ele>
        <time>2016-12-11T08:00:11.411Z</time>
      </trkpt>
      <trkpt lat="48.03424" lon="2.76426">
        <ele>108</ele>
        <time>2016-12-11T08:00:12.419Z</time>
      </trkpt>
      <trkpt lat="48.03424" lon="2.76426">
        <ele>108</ele>
        <time>2016-12-11T08:00:13.417Z</time>
      </trkpt>
      <trkpt lat="48.03433" lon="2.76428">
        <ele>107</ele>
        <time>2016-12-11T08:00:14.402Z</time>
      </trkpt>
      <trkpt lat="48.03436" lon="2.76428">
        <ele>107</ele>
        <time>2016-12-11T08:00:15.403Z</time>
      </trkpt>
      <trkpt lat="48.03436" lon="2.76428">
        <ele>107</ele>
        <time>2016-12-11T08:00:16.401Z</time>
      </trkpt>
      <trkpt lat="48.03444" lon="2.76432">
        <ele>107</ele>
        <time>2016-12-11T08:00:17.415Z</time>
      </trkpt>
      <trkpt lat="48.03447" lon="2.76434">
        <ele>108</ele>
        <time>2016-12-11T08:00:18.420Z</time>
      </trkpt>
      <trkpt lat="48.03447" lon="2.76434">
        <ele>108</ele>
        <time>2016-12-11T08:00:19.414Z</time>
      </trkpt>
      <trkpt lat="48.03454" lon="2.76437">
        <ele>107</ele>
        <time>2016-12-11T08:00:20.412Z</time>
      </trkpt>
      <trkpt lat="48.03454" lon="2.76437">
        <ele>107</ele>
        <time>2016-12-11T08:00:21.410Z</time>
      </trkpt>
      <trkpt lat="48.03462" lon="2.76442">
        <ele>107</ele>
        <time>2016-12-11T08:00:22.408Z</time>
      </trkpt>
      <trkpt lat="48.03462" lon="2.76442">
        <ele>107</ele>
        <time>2016-12-11T08:00:23.404Z</time>
      </trkpt>
      <trkpt lat="48.0347" lon="2.76444">
        <ele>106</ele>
        <time>2016-12-11T08:00:24.434Z</time>
      </trkpt>
      <trkpt lat="48.0347" lon="2.76444">
        <ele>106</ele>
        <time>2016-12-11T08:00:25.432Z</time>
      </trkpt>
      <trkpt lat="48.03477" lon="2.76447">
        <ele>105</ele>
        <time>2016-12-11T08:00:26.435Z</time>
      </trkpt>
      <trkpt lat="48.03477" lon="2.76447">
        <ele>105</ele>
        <time>2016-12-11T08:00:27.409Z</time>
      </trkpt>
      <trkpt lat="48.03484" lon="2.76449">
        <ele>105</ele>
        <time>2016-12-11T08:00:28.419Z</time>
      </trkpt>
      <trkpt lat="48.03484" lon="2.76449">
        <ele>105</ele>
        <time>2016-12-11T08:00:29.413Z</time>
      </trkpt>
      <trkpt lat="48.03492" lon="2.76452">
        <ele>105</ele>
        <time>2016-12-11T08:00:30.410Z</time>
      </trkpt>
      <trkpt lat="48.03492" lon="2.76452">
        <ele>105</ele>
        <time>2016-12-11T08:00:31.406Z</time>
      </trkpt>
      <trkpt lat="48.03499" lon="2.76455">
        <ele>104</ele>
        <time>2016-12-11T08:00:32.407Z</time>
      </trkpt>
      <trkpt lat="48.03499" lon="2.76455">
        <ele>104</ele>
        <time>2016-12-11T08:00:33.406Z</time>
      </trkpt>
      <trkpt lat="48.03507" lon="2.7646">
        <ele>104</ele>
        <time>2016-12-11T08:00:34.432Z</time>
      </trkpt>
      <trkpt lat="48.03507" lon="2.7646">
        <ele>104</ele>
        <time>2016-12-11T08:00:35.402Z</time>
      </trkpt>
      <trkpt lat="48.03514" lon="2.76463">
        <ele>103</ele>
        <time>2016-12-11T08:00:36.419Z</time>
      </trkpt>
      <trkpt lat="48.03514" lon="2.76463">
        <ele>103</ele>
        <time>2016-12-11T08:00:37.419Z</time>
      </trkpt>
      <trkpt lat="48.0352" lon="2.76466">
        <ele>102</ele>
        <time>2016-12-11T08:00:38.403Z</time>
      </trkpt>
      <trkpt lat="48.0352" lon="2.76466">
        <ele>102</ele>
        <time>2016-12-11T08:00:39.403Z</time>
      </trkpt>
      <trkpt lat="48.03529" lon="2.76467">
        <ele>102</ele>
        <time>2016-12-11T08:00:40.408Z</time>
      </trkpt>
      <trkpt lat="48.03529" lon="2.76467">
        <ele>102</ele>
        <time>2016-12-11T08:00:41.410Z</time>
      </trkpt>
      <trkpt lat="48.03539" lon="2.76471">
        <ele>102</ele>
        <time>2016-12-11T08:00:42.423Z</time>
      </trkpt>
      <trkpt lat="48.03539" lon="2.76471">
        <ele>102</ele>
        <time>2016-12-11T08:00:43.418Z</time>
      </trkpt>
      <trkpt lat="48.03549" lon="2.76476">
        <ele>101</ele>
        <time>2016-12-11T08:00:44.407Z</time>
      </trkpt>
      <trkpt lat="48.03554" lon="2.76479">
        <ele>101</ele>
        <time>2016-12-11T08:00:45.415Z</time>
      </trkpt>
      <trkpt lat="48.03554" lon="2.76479">
        <ele>101</ele>
        <time>2016-12-11T08:00:46.433Z</time>
      </trkpt>
      <trkpt lat="48.03562" lon="2.76482">
        <ele>100</ele>
        <time>2016-12-11T08:00:47.415Z</time>
      </trkpt>
      <trkpt lat="48.03565" lon="2.76484">
        <ele>101</ele>
        <time>2016-12-11T08:00:48.420Z</time>
      </trkpt>
      <trkpt lat="48.03565" lon="2.76484">
        <ele>101</ele>
        <time>2016-12-11T08:00:49.419Z</time>
      </trkpt>
      <trkpt lat="48.03572" lon="2.76488">
        <ele>100</ele>
        <time>2016-12-11T08:00:50.420Z</time>
      </trkpt>
      <trkpt lat="48.03572" lon="2.76488">
        <ele>100</ele>
        <time>2016-12-11T08:00:51.416Z</time>
      </trkpt>
      <trkpt lat="48.03577" lon="2.76496">
        <ele>99</ele>
        <time>2016-12-11T08:00:52.419Z</time>
      </trkpt>
      <trkpt lat="48.03578" lon="2.76502">
        <ele>99</ele>
        <time>2016-12-11T08:00:53.415Z</time>
      </trkpt>
      <trkpt lat="48.03578" lon="2.76502">
        <ele>99</ele>
        <time>2016-12-11T08:00:54.429Z</time>
      </trkpt>
      <trkpt lat="48.03578" lon="2.76515">
        <ele>98</ele>
        <time>2016-12-11T08:00:55.427Z</time>
      </trkpt>
      <trkpt lat="48.03577" lon="2.76522">
        <ele>98</ele>
        <time>2016-12-11T08:00:56.407Z</time>
      </trkpt>
      <trkpt lat="48.03577" lon="2.76522">
        <ele>98</ele>
        <time>2016-12-11T08:00:57.402Z</time>
      </trkpt>
      <trkpt lat="48.03576" lon="2.76537">
        <ele>99</ele>
        <time>2016-12-11T08:00:58.411Z</time>
      </trkpt>
      <trkpt lat="48.03575" lon="2.76544">
        <ele>98</ele>
        <time>2016-12-11T08:00:59.422Z</time>
      </trkpt>
      <trkpt lat="48.03574" lon="2.76552">
        <ele>98</ele>
        <time>2016-12-11T08:01:00.420Z</time>
      </trkpt>
      <trkpt lat="48.03574" lon="2.76552">
        <ele>98</ele>
        <time>2016-12-11T08:01:01.415Z</time>
      </trkpt>
      <trkpt lat="48.03572" lon="2.76568">
        <ele>99</ele>
        <time>2016-12-11T08:01:02.419Z</time>
      </trkpt>
      <trkpt lat="48.03571" lon="2.76575">
        <ele>98</ele>
        <time>2016-12-11T08:01:03.425Z</time>
      </trkpt>
      <trkpt lat="48.03571" lon="2.76575">
        <ele>98</ele>
        <time>2016-12-11T08:01:04.412Z</time>
      </trkpt>
      <trkpt lat="48.03568" lon="2.7659">
        <ele>98</ele>
        <time>2016-12-11T08:01:05.409Z</time>
      </trkpt>
      <trkpt lat="48.03566" lon="2.76597">
        <ele>98</ele>
        <time>2016-12-11T08:01:06.409Z</time>
      </trkpt>
      <trkpt lat="48.03566" lon="2.76597">
        <ele>98</ele>
        <time>2016-12-11T08:01:07.407Z</time>
      </trkpt>
      <trkpt lat="48.03565" lon="2.76611">
        <ele>98</ele>
        <time>2016-12-11T08:01:08.411Z</time>
      </trkpt>
      <trkpt lat="48.03564" lon="2.76618">
        <ele>98</ele>
        <time>2016-12-11T08:01:09.413Z</time>
      </trkpt>
      <trkpt lat="48.03564" lon="2.76618">
        <ele>98</ele>
        <time>2016-12-11T08:01:10.414Z</time>
      </trkpt>
      <trkpt lat="48.03562" lon="2.76631">
        <ele>98</ele>
        <time>2016-12-11T08:01:11.415Z</time>
      </trkpt>
      <trkpt lat="48.03561" lon="2.76637">
        <ele>98</ele>
        <time>2016-12-11T08:01:12.414Z</time>
      </trkpt>
      <trkpt lat="48.03561" lon="2.76637">
        <ele>98</ele>
        <time>2016-12-11T08:01:13.421Z</time>
      </trkpt>
      <trkpt lat="48.03559" lon="2.7665">
        <ele>98</ele>
        <time>2016-12-11T08:01:14.412Z</time>
      </trkpt>
      <trkpt lat="48.03559" lon="2.7665">
        <ele>98</ele>
        <time>2016-12-11T08:01:15.405Z</time>
      </trkpt>
      <trkpt lat="48.03556" lon="2.76663">
        <ele>98</ele>
        <time>2016-12-11T08:01:16.409Z</time>
      </trkpt>
      <trkpt lat="48.03556" lon="2.76663">
        <ele>98</ele>
        <time>2016-12-11T08:01:17.403Z</time>
      </trkpt>
      <trkpt lat="48.03553" lon="2.76676">
        <ele>98</ele>
        <time>2016-12-11T08:01:18.428Z</time>
      </trkpt>
      <trkpt lat="48.03553" lon="2.76676">
        <ele>98</ele>
        <time>2016-12-11T08:01:19.427Z</time>
      </trkpt>
      <trkpt lat="48.0355" lon="2.76689">
        <ele>98</ele>
        <time>2016-12-11T08:01:20.424Z</time>
      </trkpt>
      <trkpt lat="48.0355" lon="2.76689">
        <ele>98</ele>
        <time>2016-12-11T08:01:21.420Z</time>
      </trkpt>
      <trkpt lat="48.03547" lon="2.76704">
        <ele>97</ele>
        <time>2016-12-11T08:01:22.420Z</time>
      </trkpt>
      <trkpt lat="48.03545" lon="2.76711">
        <ele>98</ele>
        <time>2016-12-11T08:01:23.421Z</time>
      </trkpt>
      <trkpt lat="48.03545" lon="2.76711">
        <ele>98</ele>
        <time>2016-12-11T08:01:24.412Z</time>
      </trkpt>
      <trkpt lat="48.03543" lon="2.76723">
        <ele>98</ele>
        <time>2016-12-11T08:01:25.408Z</time>
      </trkpt>
      <trkpt lat="48.03543" lon="2.76723">
        <ele>98</ele>
        <time>2016-12-11T08:01:26.425Z</time>
      </trkpt>
      <trkpt lat="48.03541" lon="2.76733">
        <ele>99</ele>
        <time>2016-12-11T08:01:27.421Z</time>
      </trkpt>
      <trkpt lat="48.03542" lon="2.76739">
        <ele>100</ele>
        <time>2016-12-11T08:01:28.424Z</time>
      </trkpt>
      <trkpt lat="48.03542" lon="2.76739">
        <ele>100</ele>
        <time>2016-12-11T08:01:29.413Z</time>
      </trkpt>
      <trkpt lat="48.03546" lon="2.76747">
        <ele>100</ele>
        <time>2016-12-11T08:01:30.413Z</time>
      </trkpt>
      <trkpt lat="48.03546" lon="2.76747">
        <ele>100</ele>
        <time>2016-12-11T08:01:31.406Z</time>
      </trkpt>
      <trkpt lat="48.03552" lon="2.76751">
        <ele>100</ele>
        <time>2016-12-11T08:01:32.415Z</time>
      </trkpt>
      <trkpt lat="48.03552" lon="2.76751">
        <ele>100</ele>
        <time>2016-12-11T08:01:33.413Z</time>
      </trkpt>
      <trkpt lat="48.03559" lon="2.76756">
        <ele>100</ele>
        <time>2016-12-11T08:01:34.412Z</time>
      </trkpt>
      <trkpt lat="48.03559" lon="2.76756">
        <ele>100</ele>
        <time>2016-12-11T08:01:35.414Z</time>
      </trkpt>
      <trkpt lat="48.03568" lon="2.7676">
        <ele>101</ele>
        <time>2016-12-11T08:01:36.414Z</time>
      </trkpt>
      <trkpt lat="48.03568" lon="2.7676">
        <ele>101</ele>
        <time>2016-12-11T08:01:37.410Z</time>
      </trkpt>
      <trkpt lat="48.03576" lon="2.76763">
        <ele>101</ele>
        <time>2016-12-11T08:01:38.406Z</time>
      </trkpt>
      <trkpt lat="48.03581" lon="2.76765">
        <ele>100</ele>
        <time>2016-12-11T08:01:39.422Z</time>
      </trkpt>
      <trkpt lat="48.03581" lon="2.76765">
        <ele>100</ele>
        <time>2016-12-11T08:01:40.418Z</time>
      </trkpt>
      <trkpt lat="48.03588" lon="2.7677">
        <ele>100</ele>
        <time>2016-12-11T08:01:41.413Z</time>
      </trkpt>
      <trkpt lat="48.03592" lon="2.76771">
        <ele>100</ele>
        <time>2016-12-11T08:01:42.426Z</time>
      </trkpt>
      <trkpt lat="48.03592" lon="2.76771">
        <ele>100</ele>
        <time>2016-12-11T08:01:43.423Z</time>
      </trkpt>
      <trkpt lat="48.03601" lon="2.76775">
        <ele>100</ele>
        <time>2016-12-11T08:01:44.407Z</time>
      </trkpt>
      <trkpt lat="48.03601" lon="2.76775">
        <ele>100</ele>
        <time>2016-12-11T08:01:45.403Z</time>
      </trkpt>
      <trkpt lat="48.0361" lon="2.76779">
        <ele>99</ele>
        <time>2016-12-11T08:01:46.403Z</time>
      </trkpt>
      <trkpt lat="48.03614" lon="2.76781">
        <ele>98</ele>
        <time>2016-12-11T08:01:47.421Z</time>
      </trkpt>
      <trkpt lat="48.03618" lon="2.76783">
        <ele>98</ele>
        <time>2016-12-11T08:01:48.420Z</time>
      </trkpt>
      <trkpt lat="48.03618" lon="2.76783">
        <ele>98</ele>
        <time>2016-12-11T08:01:49.419Z</time>
      </trkpt>
      <trkpt lat="48.03626" lon="2.76785">
        <ele>98</ele>
        <time>2016-12-11T08:01:50.415Z</time>
      </trkpt>
      <trkpt lat="48.03626" lon="2.76785">
        <ele>98</ele>
        <time>2016-12-11T08:01:51.412Z</time>
      </trkpt>
      <trkpt lat="48.03635" lon="2.76788">
        <ele>97</ele>
        <time>2016-12-11T08:01:52.411Z</time>
      </trkpt>
      <trkpt lat="48.03635" lon="2.76788">
        <ele>97</ele>
        <time>2016-12-11T08:01:53.421Z</time>
      </trkpt>
      <trkpt lat="48.03643" lon="2.76792">
        <ele>97</ele>
        <time>2016-12-11T08:01:54.428Z</time>
      </trkpt>
      <trkpt lat="48.03643" lon="2.76792">
        <ele>97</ele>
        <time>2016-12-11T08:01:55.425Z</time>
      </trkpt>
      <trkpt lat="48.03652" lon="2.76797">
        <ele>97</ele>
        <time>2016-12-11T08:01:56.421Z</time>
      </trkpt>
      <trkpt lat="48.03656" lon="2.76799">
        <ele>97</ele>
        <time>2016-12-11T08:01:57.420Z</time>
      </trkpt>
      <trkpt lat="48.03656" lon="2.76799">
        <ele>97</ele>
        <time>2016-12-11T08:01:58.419Z</time>
      </trkpt>
      <trkpt lat="48.03665" lon="2.76804">
        <ele>97</ele>
        <time>2016-12-11T08:01:59.435Z</time>
      </trkpt>
      <trkpt lat="48.03665" lon="2.76804">
        <ele>97</ele>
        <time>2016-12-11T08:02:00.434Z</time>
      </trkpt>
      <trkpt lat="48.03674" lon="2.76808">
        <ele>97</ele>
        <time>2016-12-11T08:02:01.409Z</time>
      </trkpt>
      <trkpt lat="48.03674" lon="2.76808">
        <ele>97</ele>
        <time>2016-12-11T08:02:02.407Z</time>
      </trkpt>
      <trkpt lat="48.03682" lon="2.76812">
        <ele>96</ele>
        <time>2016-12-11T08:02:03.413Z</time>
      </trkpt>
      <trkpt lat="48.03686" lon="2.76813">
        <ele>96</ele>
        <time>2016-12-11T08:02:04.420Z</time>
      </trkpt>
      <trkpt lat="48.0369" lon="2.76815">
        <ele>96</ele>
        <time>2016-12-11T08:02:05.420Z</time>
      </trkpt>
      <trkpt lat="48.03695" lon="2.76815">
        <ele>96</ele>
        <time>2016-12-11T08:02:06.399Z</time>
      </trkpt>
      <trkpt lat="48.03695" lon="2.76815">
        <ele>96</ele>
        <time>2016-12-11T08:02:07.400Z</time>
      </trkpt>
      <trkpt lat="48.03704" lon="2.76816">
        <ele>95</ele>
        <time>2016-12-11T08:02:08.410Z</time>
      </trkpt>
      <trkpt lat="48.03704" lon="2.76816">
        <ele>95</ele>
        <time>2016-12-11T08:02:09.425Z</time>
      </trkpt>
      <trkpt lat="48.0371" lon="2.76816">
        <ele>95</ele>
        <time>2016-12-11T08:02:10.427Z</time>
      </trkpt>
      <trkpt lat="48.0371" lon="2.76816">
        <ele>95</ele>
        <time>2016-12-11T08:02:11.424Z</time>
      </trkpt>
      <trkpt lat="48.03713" lon="2.7681">
        <ele>95</ele>
        <time>2016-12-11T08:02:12.423Z</time>
      </trkpt>
      <trkpt lat="48.03713" lon="2.7681">
        <ele>95</ele>
        <time>2016-12-11T08:02:13.399Z</time>
      </trkpt>
      <trkpt lat="48.03715" lon="2.768">
        <ele>95</ele>
        <time>2016-12-11T08:02:14.408Z</time>
      </trkpt>
      <trkpt lat="48.03715" lon="2.768">
        <ele>95</ele>
        <time>2016-12-11T08:02:15.425Z</time>
      </trkpt>
      <trkpt lat="48.03719" lon="2.76789">
        <ele>94</ele>
        <time>2016-12-11T08:02:16.420Z</time>
      </trkpt>
      <trkpt lat="48.0372" lon="2.76783">
        <ele>93</ele>
        <time>2016-12-11T08:02:17.410Z</time>
      </trkpt>
      <trkpt lat="48.0372" lon="2.76783">
        <ele>93</ele>
        <time>2016-12-11T08:02:18.402Z</time>
      </trkpt>
      <trkpt lat="48.03722" lon="2.76771">
        <ele>93</ele>
        <time>2016-12-11T08:02:19.409Z</time>
      </trkpt>
      <trkpt lat="48.03722" lon="2.76771">
        <ele>93</ele>
        <time>2016-12-11T08:02:20.409Z</time>
      </trkpt>
      <trkpt lat="48.03725" lon="2.76759">
        <ele>94</ele>
        <time>2016-12-11T08:02:21.414Z</time>
      </trkpt>
      <trkpt lat="48.03726" lon="2.76753">
        <ele>93</ele>
        <time>2016-12-11T08:02:22.421Z</time>
      </trkpt>
      <trkpt lat="48.03726" lon="2.76753">
        <ele>93</ele>
        <time>2016-12-11T08:02:23.419Z</time>
      </trkpt>
      <trkpt lat="48.03729" lon="2.76742">
        <ele>94</ele>
        <time>2016-12-11T08:02:24.407Z</time>
      </trkpt>
      <trkpt lat="48.0373" lon="2.76737">
        <ele>94</ele>
        <time>2016-12-11T08:02:25.397Z</time>
      </trkpt>
      <trkpt lat="48.0373" lon="2.76737">
        <ele>94</ele>
        <time>2016-12-11T08:02:26.396Z</time>
      </trkpt>
      <trkpt lat="48.03732" lon="2.76727">
        <ele>95</ele>
        <time>2016-12-11T08:02:27.433Z</time>
      </trkpt>
      <trkpt lat="48.03732" lon="2.76727">
        <ele>95</ele>
        <time>2016-12-11T08:02:28.400Z</time>
      </trkpt>
      <trkpt lat="48.03737" lon="2.76725">
        <ele>96</ele>
        <time>2016-12-11T08:02:29.424Z</time>
      </trkpt>
      <trkpt lat="48.03739" lon="2.76727">
        <ele>96</ele>
        <time>2016-12-11T08:02:30.420Z</time>
      </trkpt>
      <trkpt lat="48.03739" lon="2.76727">
        <ele>96</ele>
        <time>2016-12-11T08:02:31.432Z</time>
      </trkpt>
      <trkpt lat="48.03745" lon="2.76734">
        <ele>96</ele>
        <time>2016-12-11T08:02:32.413Z</time>
      </trkpt>
      <trkpt lat="48.03745" lon="2.76734">
        <ele>96</ele>
        <time>2016-12-11T08:02:33.411Z</time>
      </trkpt>
      <trkpt lat="48.03751" lon="2.76742">
        <ele>96</ele>
        <time>2016-12-11T08:02:34.417Z</time>
      </trkpt>
      <trkpt lat="48.03751" lon="2.76742">
        <ele>96</ele>
        <time>2016-12-11T08:02:35.428Z</time>
      </trkpt>
      <trkpt lat="48.03758" lon="2.7675">
        <ele>96</ele>
        <time>2016-12-11T08:02:36.423Z</time>
      </trkpt>
      <trkpt lat="48.03758" lon="2.7675">
        <ele>96</ele>
        <time>2016-12-11T08:02:37.418Z</time>
      </trkpt>
      <trkpt lat="48.03765" lon="2.76759">
        <ele>96</ele>
        <time>2016-12-11T08:02:38.421Z</time>
      </trkpt>
      <trkpt lat="48.03765" lon="2.76759">
        <ele>96</ele>
        <time>2016-12-11T08:02:39.419Z</time>
      </trkpt>
      <trkpt lat="48.03772" lon="2.76769">
        <ele>95</ele>
        <time>2016-12-11T08:02:40.423Z</time>
      </trkpt>
      <trkpt lat="48.03775" lon="2.76773">
        <ele>95</ele>
        <time>2016-12-11T08:02:41.421Z</time>
      </trkpt>
      <trkpt lat="48.03775" lon="2.76773">
        <ele>95</ele>
        <time>2016-12-11T08:02:42.412Z</time>
      </trkpt>
      <trkpt lat="48.03782" lon="2.76782">
        <ele>95</ele>
        <time>2016-12-11T08:02:43.423Z</time>
      </trkpt>
      <trkpt lat="48.03782" lon="2.76782">
        <ele>95</ele>
        <time>2016-12-11T08:02:44.403Z</time>
      </trkpt>
      <trkpt lat="48.03791" lon="2.7679">
        <ele>95</ele>
        <time>2016-12-11T08:02:45.420Z</time>
      </trkpt>
      <trkpt lat="48.03795" lon="2.76795">
        <ele>94</ele>
        <time>2016-12-11T08:02:46.421Z</time>
      </trkpt>
      <trkpt lat="48.03795" lon="2.76795">
        <ele>94</ele>
        <time>2016-12-11T08:02:47.424Z</time>
      </trkpt>
      <trkpt lat="48.03802" lon="2.76804">
        <ele>94</ele>
        <time>2016-12-11T08:02:48.396Z</time>
      </trkpt>
      <trkpt lat="48.03802" lon="2.76804">
        <ele>94</ele>
        <time>2016-12-11T08:02:49.397Z</time>
      </trkpt>
      <trkpt lat="48.0381" lon="2.76812">
        <ele>94</ele>
        <time>2016-12-11T08:02:50.397Z</time>
      </trkpt>
      <trkpt lat="48.0381" lon="2.76812">
        <ele>94</ele>
        <time>2016-12-11T08:02:51.432Z</time>
      </trkpt>
      <trkpt lat="48.03817" lon="2.76821">
        <ele>94</ele>
        <time>2016-12-11T08:02:52.426Z</time>
      </trkpt>
      <trkpt lat="48.03817" lon="2.76821">
        <ele>94</ele>
        <time>2016-12-11T08:02:53.424Z</time>
      </trkpt>
      <trkpt lat="48.03825" lon="2.76829">
        <ele>93</ele>
        <time>2016-12-11T08:02:54.422Z</time>
      </trkpt>
      <trkpt lat="48.0383" lon="2.76833">
        <ele>93</ele>
        <time>2016-12-11T08:02:55.396Z</time>
      </trkpt>
      <trkpt lat="48.0383" lon="2.76833">
        <ele>93</ele>
        <time>2016-12-11T08:02:56.403Z</time>
      </trkpt>
      <trkpt lat="48.03837" lon="2.76841">
        <ele>93</ele>
        <time>2016-12-11T08:02:57.414Z</time>
      </trkpt>
      <trkpt lat="48.03837" lon="2.76841">
        <ele>93</ele>
        <time>2016-12-11T08:02:58.410Z</time>
      </trkpt>
      <trkpt lat="48.03844" lon="2.7685">
        <ele>93</ele>
        <time>2016-12-11T08:02:59.435Z</time>
      </trkpt>
      <trkpt lat="48.03848" lon="2.76854">
        <ele>92</ele>
        <time>2016-12-11T08:03:00.421Z</time>
      </trkpt>
      <trkpt lat="48.03848" lon="2.76854">
        <ele>92</ele>
        <time>2016-12-11T08:03:01.418Z</time>
      </trkpt>
      <trkpt lat="48.03856" lon="2.76863">
        <ele>92</ele>
        <time>2016-12-11T08:03:02.427Z</time>
      </trkpt>
      <trkpt lat="48.03856" lon="2.76863">
        <ele>92</ele>
        <time>2016-12-11T08:03:03.423Z</time>
      </trkpt>
      <trkpt lat="48.03863" lon="2.76872">
        <ele>93</ele>
        <time>2016-12-11T08:03:04.414Z</time>
      </trkpt>
      <trkpt lat="48.03867" lon="2.76877">
        <ele>93</ele>
        <time>2016-12-11T08:03:05.413Z</time>
      </trkpt>
      <trkpt lat="48.0387" lon="2.76881">
        <ele>92</ele>
        <time>2016-12-11T08:03:06.409Z</time>
      </trkpt>
      <trkpt lat="48.0387" lon="2.76881">
        <ele>92</ele>
        <time>2016-12-11T08:03:07.399Z</time>
      </trkpt>
      <trkpt lat="48.03877" lon="2.76889">
        <ele>91</ele>
        <time>2016-12-11T08:03:08.403Z</time>
      </trkpt>
      <trkpt lat="48.03877" lon="2.76889">
        <ele>91</ele>
        <time>2016-12-11T08:03:09.400Z</time>
      </trkpt>
      <trkpt lat="48.03883" lon="2.76899">
        <ele>91</ele>
        <time>2016-12-11T08:03:10.409Z</time>
      </trkpt>
      <trkpt lat="48.03883" lon="2.76899">
        <ele>91</ele>
        <time>2016-12-11T08:03:11.406Z</time>
      </trkpt>
      <trkpt lat="48.03891" lon="2.76909">
        <ele>91</ele>
        <time>2016-12-11T08:03:12.420Z</time>
      </trkpt>
      <trkpt lat="48.03891" lon="2.76909">
        <ele>91</ele>
        <time>2016-12-11T08:03:13.420Z</time>
      </trkpt>
      <trkpt lat="48.03898" lon="2.76918">
        <ele>91</ele>
        <time>2016-12-11T08:03:14.410Z</time>
      </trkpt>
      <trkpt lat="48.03898" lon="2.76918">
        <ele>91</ele>
        <time>2016-12-11T08:03:15.412Z</time>
      </trkpt>
      <trkpt lat="48.03906" lon="2.76927">
        <ele>91</ele>
        <time>2016-12-11T08:03:16.410Z</time>
      </trkpt>
      <trkpt lat="48.03906" lon="2.76927">
        <ele>91</ele>
        <time>2016-12-11T08:03:17.407Z</time>
      </trkpt>
      <trkpt lat="48.03914" lon="2.76936">
        <ele>90</ele>
        <time>2016-12-11T08:03:18.421Z</time>
      </trkpt>
      <trkpt lat="48.03914" lon="2.76936">
        <ele>90</ele>
        <time>2016-12-11T08:03:19.404Z</time>
      </trkpt>
      <trkpt lat="48.03922" lon="2.76943">
        <ele>90</ele>
        <time>2016-12-11T08:03:20.407Z</time>
      </trkpt>
      <trkpt lat="48.03922" lon="2.76943">
        <ele>90</ele>
        <time>2016-12-11T08:03:21.397Z</time>
      </trkpt>
      <trkpt lat="48.03929" lon="2.76952">
        <ele>90</ele>
        <time>2016-12-11T08:03:22.402Z</time>
      </trkpt>
      <trkpt lat="48.03929" lon="2.76952">
        <ele>90</ele>
        <time>2016-12-11T08:03:23.411Z</time>
      </trkpt>
      <trkpt lat="48.03936" lon="2.7696">
        <ele>89</ele>
        <time>2016-12-11T08:03:24.400Z</time>
      </trkpt>
      <trkpt lat="48.03936" lon="2.7696">
        <ele>89</ele>
        <time>2016-12-11T08:03:25.425Z</time>
      </trkpt>
      <trkpt lat="48.03943" lon="2.76969">
        <ele>89</ele>
        <time>2016-12-11T08:03:26.410Z</time>
      </trkpt>
      <trkpt lat="48.03943" lon="2.76969">
        <ele>89</ele>
        <time>2016-12-11T08:03:27.396Z</time>
      </trkpt>
      <trkpt lat="48.03949" lon="2.76978">
        <ele>89</ele>
        <time>2016-12-11T08:03:28.422Z</time>
      </trkpt>
      <trkpt lat="48.03949" lon="2.76978">
        <ele>89</ele>
        <time>2016-12-11T08:03:29.411Z</time>
      </trkpt>
      <trkpt lat="48.03957" lon="2.76986">
        <ele>88</ele>
        <time>2016-12-11T08:03:30.434Z</time>
      </trkpt>
      <trkpt lat="48.03957" lon="2.76986">
        <ele>88</ele>
        <time>2016-12-11T08:03:31.400Z</time>
      </trkpt>
      <trkpt lat="48.03965" lon="2.76994">
        <ele>88</ele>
        <time>2016-12-11T08:03:32.408Z</time>
      </trkpt>
      <trkpt lat="48.03968" lon="2.76998">
        <ele>88</ele>
        <time>2016-12-11T08:03:33.414Z</time>
      </trkpt>
      <trkpt lat="48.03968" lon="2.76998">
        <ele>88</ele>
        <time>2016-12-11T08:03:34.422Z</time>
      </trkpt>
      <trkpt lat="48.03975" lon="2.77007">
        <ele>88</ele>
        <time>2016-12-11T08:03:35.423Z</time>
      </trkpt>
      <trkpt lat="48.03979" lon="2.77011">
        <ele>89</ele>
        <time>2016-12-11T08:03:36.423Z</time>
      </trkpt>
      <trkpt lat="48.03979" lon="2.77011">
        <ele>89</ele>
        <time>2016-12-11T08:03:37.424Z</time>
      </trkpt>
      <trkpt lat="48.03986" lon="2.7702">
        <ele>89</ele>
        <time>2016-12-11T08:03:38.427Z</time>
      </trkpt>
      <trkpt lat="48.03986" lon="2.7702">
        <ele>89</ele>
        <time>2016-12-11T08:03:39.431Z</time>
      </trkpt>
      <trkpt lat="48.03993" lon="2.77028">
        <ele>89</ele>
        <time>2016-12-11T08:03:40.416Z</time>
      </trkpt>
      <trkpt lat="48.03993" lon="2.77028">
        <ele>89</ele>
        <time>2016-12-11T08:03:41.420Z</time>
      </trkpt>
      <trkpt lat="48.04" lon="2.77033">
        <ele>90</ele>
        <time>2016-12-11T08:03:42.420Z</time>
      </trkpt>
      <trkpt lat="48.04" lon="2.77033">
        <ele>90</ele>
        <time>2016-12-11T08:03:43.425Z</time>
      </trkpt>
      <trkpt lat="48.04007" lon="2.77031">
        <ele>91</ele>
        <time>2016-12-11T08:03:44.424Z</time>
      </trkpt>
      <trkpt lat="48.04007" lon="2.77031">
        <ele>91</ele>
        <time>2016-12-11T08:03:45.430Z</time>
      </trkpt>
      <trkpt lat="48.04011" lon="2.77023">
        <ele>92</ele>
        <time>2016-12-11T08:03:46.421Z</time>
      </trkpt>
      <trkpt lat="48.04011" lon="2.77023">
        <ele>92</ele>
        <time>2016-12-11T08:03:47.422Z</time>
      </trkpt>
      <trkpt lat="48.04014" lon="2.77013">
        <ele>92</ele>
        <time>2016-12-11T08:03:48.421Z</time>
      </trkpt>
      <trkpt lat="48.04014" lon="2.77013">
        <ele>92</ele>
        <time>2016-12-11T08:03:49.423Z</time>
      </trkpt>
      <trkpt lat="48.04015" lon="2.77004">
        <ele>92</ele>
        <time>2016-12-11T08:03:50.421Z</time>
      </trkpt>
      <trkpt lat="48.04015" lon="2.77004">
        <ele>92</ele>
        <time>2016-12-11T08:03:51.424Z</time>
      </trkpt>
      <trkpt lat="48.04017" lon="2.76995">
        <ele>93</ele>
        <time>2016-12-11T08:03:52.421Z</time>
      </trkpt>
      <trkpt lat="48.04018" lon="2.76991">
        <ele>93</ele>
        <time>2016-12-11T08:03:53.423Z</time>
      </trkpt>
      <trkpt lat="48.04017" lon="2.76988">
        <ele>93</ele>
        <time>2016-12-11T08:03:54.421Z</time>
      </trkpt>
      <trkpt lat="48.04017" lon="2.76988">
        <ele>93</ele>
        <time>2016-12-11T08:03:55.425Z</time>
      </trkpt>
      <trkpt lat="48.04019" lon="2.76979">
        <ele>94</ele>
        <time>2016-12-11T08:03:56.427Z</time>
      </trkpt>
      <trkpt lat="48.0402" lon="2.76975">
        <ele>95</ele>
        <time>2016-12-11T08:03:57.396Z</time>
      </trkpt>
      <trkpt lat="48.0402" lon="2.76975">
        <ele>95</ele>
        <time>2016-12-11T08:03:58.410Z</time>
      </trkpt>
      <trkpt lat="48.04022" lon="2.76968">
        <ele>95</ele>
        <time>2016-12-11T08:03:59.424Z</time>
      </trkpt>
      <trkpt lat="48.04023" lon="2.76965">
        <ele>95</ele>
        <time>2016-12-11T08:04:00.423Z</time>
      </trkpt>
      <trkpt lat="48.04023" lon="2.76965">
        <ele>95</ele>
        <time>2016-12-11T08:04:01.421Z</time>
      </trkpt>
      <trkpt lat="48.04025" lon="2.76957">
        <ele>96</ele>
        <time>2016-12-11T08:04:02.420Z</time>
      </trkpt>
      <trkpt lat="48.04025" lon="2.76957">
        <ele>96</ele>
        <time>2016-12-11T08:04:03.420Z</time>
      </trkpt>
      <trkpt lat="48.04026" lon="2.76949">
        <ele>96</ele>
        <time>2016-12-11T08:04:04.422Z</time>
      </trkpt>
      <trkpt lat="48.04027" lon="2.76943">
        <ele>96</ele>
        <time>2016-12-11T08:04:05.422Z</time>
      </trkpt>
      <trkpt lat="48.04027" lon="2.76943">
        <ele>96</ele>
        <time>2016-12-11T08:04:06.421Z</time>
      </trkpt>
      <trkpt lat="48.04029" lon="2.76934">
        <ele>97</ele>
        <time>2016-12-11T08:04:07.420Z</time>
      </trkpt>
      <trkpt lat="48.04032" lon="2.76929">
        <ele>98</ele>
        <time>2016-12-11T08:04:08.423Z</time>
      </trkpt>
      <trkpt lat="48.04032" lon="2.76929">
        <ele>98</ele>
        <time>2016-12-11T08:04:09.424Z</time>
      </trkpt>
      <trkpt lat="48.04035" lon="2.7692">
        <ele>98</ele>
        <time>2016-12-11T08:04:10.415Z</time>
      </trkpt>
      <trkpt lat="48.04035" lon="2.7692">
        <ele>98</ele>
        <time>2016-12-11T08:04:11.424Z</time>
      </trkpt>
      <trkpt lat="48.04037" lon="2.76912">
        <ele>99</ele>
        <time>2016-12-11T08:04:12.422Z</time>
      </trkpt>
      <trkpt lat="48.04037" lon="2.76912">
        <ele>99</ele>
        <time>2016-12-11T08:04:13.421Z</time>
      </trkpt>
      <trkpt lat="48.04038" lon="2.76902">
        <ele>100</ele>
        <time>2016-12-11T08:04:14.423Z</time>
      </trkpt>
      <trkpt lat="48.04038" lon="2.76902">
        <ele>100</ele>
        <time>2016-12-11T08:04:15.427Z</time>
      </trkpt>
      <trkpt lat="48.04041" lon="2.76894">
        <ele>100</ele>
        <time>2016-12-11T08:04:16.425Z</time>
      </trkpt>
      <trkpt lat="48.04041" lon="2.76894">
        <ele>100</ele>
        <time>2016-12-11T08:04:17.414Z</time>
      </trkpt>
      <trkpt lat="48.04043" lon="2.76885">
        <ele>101</ele>
        <time>2016-12-11T08:04:18.412Z</time>
      </trkpt>
      <trkpt lat="48.04043" lon="2.76882">
        <ele>101</ele>
        <time>2016-12-11T08:04:19.416Z</time>
      </trkpt>
      <trkpt lat="48.04043" lon="2.76882">
        <ele>101</ele>
        <time>2016-12-11T08:04:20.417Z</time>
      </trkpt>
      <trkpt lat="48.04045" lon="2.76873">
        <ele>101</ele>
        <time>2016-12-11T08:04:21.417Z</time>
      </trkpt>
      <trkpt lat="48.04047" lon="2.76867">
        <ele>101</ele>
        <time>2016-12-11T08:04:22.424Z</time>
      </trkpt>
      <trkpt lat="48.04047" lon="2.76867">
        <ele>101</ele>
        <time>2016-12-11T08:04:23.423Z</time>
      </trkpt>
      <trkpt lat="48.04049" lon="2.76856">
        <ele>101</ele>
        <time>2016-12-11T08:04:24.421Z</time>
      </trkpt>
      <trkpt lat="48.04049" lon="2.76856">
        <ele>101</ele>
        <time>2016-12-11T08:04:25.423Z</time>
      </trkpt>
      <trkpt lat="48.0405" lon="2.76846">
        <ele>101</ele>
        <time>2016-12-11T08:04:26.423Z</time>
      </trkpt>
      <trkpt lat="48.0405" lon="2.76846">
        <ele>101</ele>
        <time>2016-12-11T08:04:27.421Z</time>
      </trkpt>
      <trkpt lat="48.04052" lon="2.76834">
        <ele>101</ele>
        <time>2016-12-11T08:04:28.421Z</time>
      </trkpt>
      <trkpt lat="48.04052" lon="2.76834">
        <ele>101</ele>
        <time>2016-12-11T08:04:29.425Z</time>
      </trkpt>
      <trkpt lat="48.04054" lon="2.76824">
        <ele>101</ele>
        <time>2016-12-11T08:04:30.427Z</time>
      </trkpt>
      <trkpt lat="48.04054" lon="2.76824">
        <ele>101</ele>
        <time>2016-12-11T08:04:31.424Z</time>
      </trkpt>
      <trkpt lat="48.04056" lon="2.76813">
        <ele>101</ele>
        <time>2016-12-11T08:04:32.423Z</time>
      </trkpt>
      <trkpt lat="48.04056" lon="2.76813">
        <ele>101</ele>
        <time>2016-12-11T08:04:33.421Z</time>
      </trkpt>
      <trkpt lat="48.04057" lon="2.76801">
        <ele>101</ele>
        <time>2016-12-11T08:04:34.415Z</time>
      </trkpt>
      <trkpt lat="48.04057" lon="2.76801">
        <ele>101</ele>
        <time>2016-12-11T08:04:35.413Z</time>
      </trkpt>
      <trkpt lat="48.04059" lon="2.76791">
        <ele>102</ele>
        <time>2016-12-11T08:04:36.423Z</time>
      </trkpt>
      <trkpt lat="48.04059" lon="2.76791">
        <ele>102</ele>
        <time>2016-12-11T08:04:37.420Z</time>
      </trkpt>
      <trkpt lat="48.04061" lon="2.76779">
        <ele>102</ele>
        <time>2016-12-11T08:04:38.422Z</time>
      </trkpt>
      <trkpt lat="48.04061" lon="2.76779">
        <ele>102</ele>
        <time>2016-12-11T08:04:39.421Z</time>
      </trkpt>
      <trkpt lat="48.04062" lon="2.76769">
        <ele>102</ele>
        <time>2016-12-11T08:04:40.423Z</time>
      </trkpt>
      <trkpt lat="48.04062" lon="2.76769">
        <ele>102</ele>
        <time>2016-12-11T08:04:41.425Z</time>
      </trkpt>
      <trkpt lat="48.04065" lon="2.76758">
        <ele>103</ele>
        <time>2016-12-11T08:04:42.422Z</time>
      </trkpt>
      <trkpt lat="48.04065" lon="2.76758">
        <ele>103</ele>
        <time>2016-12-11T08:04:43.408Z</time>
      </trkpt>
      <trkpt lat="48.04068" lon="2.76746">
        <ele>103</ele>
        <time>2016-12-11T08:04:44.424Z</time>
      </trkpt>
      <trkpt lat="48.04068" lon="2.76746">
        <ele>103</ele>
        <time>2016-12-11T08:04:45.432Z</time>
      </trkpt>
      <trkpt lat="48.04071" lon="2.76734">
        <ele>102</ele>
        <time>2016-12-11T08:04:46.430Z</time>
      </trkpt>
      <trkpt lat="48.04071" lon="2.76734">
        <ele>102</ele>
        <time>2016-12-11T08:04:47.427Z</time>
      </trkpt>
      <trkpt lat="48.04074" lon="2.76724">
        <ele>102</ele>
        <time>2016-12-11T08:04:48.425Z</time>
      </trkpt>
      <trkpt lat="48.04074" lon="2.76724">
        <ele>102</ele>
        <time>2016-12-11T08:04:49.423Z</time>
      </trkpt>
      <trkpt lat="48.04077" lon="2.76713">
        <ele>102</ele>
        <time>2016-12-11T08:04:50.405Z</time>
      </trkpt>
      <trkpt lat="48.04077" lon="2.76713">
        <ele>102</ele>
        <time>2016-12-11T08:04:51.412Z</time>
      </trkpt>
      <trkpt lat="48.04079" lon="2.76701">
        <ele>102</ele>
        <time>2016-12-11T08:04:52.415Z</time>
      </trkpt>
      <trkpt lat="48.0408" lon="2.76695">
        <ele>102</ele>
        <time>2016-12-11T08:04:53.424Z</time>
      </trkpt>
      <trkpt lat="48.0408" lon="2.76695">
        <ele>102</ele>
        <time>2016-12-11T08:04:54.416Z</time>
      </trkpt>
      <trkpt lat="48.04083" lon="2.76682">
        <ele>102</ele>
        <time>2016-12-11T08:04:55.418Z</time>
      </trkpt>
      <trkpt lat="48.04083" lon="2.76682">
        <ele>102</ele>
        <time>2016-12-11T08:04:56.416Z</time>
      </trkpt>
      <trkpt lat="48.04086" lon="2.76669">
        <ele>102</ele>
        <time>2016-12-11T08:04:57.421Z</time>
      </trkpt>
      <trkpt lat="48.04087" lon="2.76663">
        <ele>102</ele>
        <time>2016-12-11T08:04:58.429Z</time>
      </trkpt>
      <trkpt lat="48.04087" lon="2.76663">
        <ele>102</ele>
        <time>2016-12-11T08:04:59.417Z</time>
      </trkpt>
      <trkpt lat="48.04089" lon="2.76651">
        <ele>103</ele>
        <time>2016-12-11T08:05:00.432Z</time>
      </trkpt>
      <trkpt lat="48.04089" lon="2.76651">
        <ele>103</ele>
        <time>2016-12-11T08:05:01.411Z</time>
      </trkpt>
      <trkpt lat="48.04091" lon="2.76639">
        <ele>102</ele>
        <time>2016-12-11T08:05:02.421Z</time>
      </trkpt>
      <trkpt lat="48.04091" lon="2.76639">
        <ele>102</ele>
        <time>2016-12-11T08:05:03.417Z</time>
      </trkpt>
      <trkpt lat="48.04093" lon="2.76628">
        <ele>103</ele>
        <time>2016-12-11T08:05:04.415Z</time>
      </trkpt>
      <trkpt lat="48.04093" lon="2.76628">
        <ele>103</ele>
        <time>2016-12-11T08:05:05.413Z</time>
      </trkpt>
      <trkpt lat="48.04096" lon="2.76618">
        <ele>103</ele>
        <time>2016-12-11T08:05:06.423Z</time>
      </trkpt>
      <trkpt lat="48.04096" lon="2.76618">
        <ele>103</ele>
        <time>2016-12-11T08:05:07.426Z</time>
      </trkpt>
      <trkpt lat="48.04098" lon="2.76607">
        <ele>102</ele>
        <time>2016-12-11T08:05:08.428Z</time>
      </trkpt>
      <trkpt lat="48.04098" lon="2.76607">
        <ele>102</ele>
        <time>2016-12-11T08:05:09.434Z</time>
      </trkpt>
      <trkpt lat="48.041" lon="2.76597">
        <ele>102</ele>
        <time>2016-12-11T08:05:10.421Z</time>
      </trkpt>
      <trkpt lat="48.041" lon="2.76597">
        <ele>102</ele>
        <time>2016-12-11T08:05:11.414Z</time>
      </trkpt>
      <trkpt lat="48.04103" lon="2.76587">
        <ele>102</ele>
        <time>2016-12-11T08:05:12.422Z</time>
      </trkpt>
      <trkpt lat="48.04103" lon="2.76587">
        <ele>102</ele>
        <time>2016-12-11T08:05:13.428Z</time>
      </trkpt>
      <trkpt lat="48.04105" lon="2.76577">
        <ele>102</ele>
        <time>2016-12-11T08:05:14.416Z</time>
      </trkpt>
      <trkpt lat="48.04105" lon="2.76577">
        <ele>102</ele>
        <time>2016-12-11T08:05:15.396Z</time>
      </trkpt>
      <trkpt lat="48.04106" lon="2.76566">
        <ele>102</ele>
        <time>2016-12-11T08:05:16.423Z</time>
      </trkpt>
      <trkpt lat="48.04106" lon="2.76566">
        <ele>102</ele>
        <time>2016-12-11T08:05:17.424Z</time>
      </trkpt>
      <trkpt lat="48.04108" lon="2.76554">
        <ele>102</ele>
        <time>2016-12-11T08:05:18.422Z</time>
      </trkpt>
      <trkpt lat="48.04108" lon="2.76554">
        <ele>102</ele>
        <time>2016-12-11T08:05:19.426Z</time>
      </trkpt>
      <trkpt lat="48.04111" lon="2.76544">
        <ele>102</ele>
        <time>2016-12-11T08:05:20.422Z</time>
      </trkpt>
      <trkpt lat="48.04111" lon="2.76544">
        <ele>102</ele>
        <time>2016-12-11T08:05:21.422Z</time>
      </trkpt>
      <trkpt lat="48.04113" lon="2.76535">
        <ele>102</ele>
        <time>2016-12-11T08:05:22.422Z</time>
      </trkpt>
      <trkpt lat="48.04113" lon="2.76535">
        <ele>102</ele>
        <time>2016-12-11T08:05:23.428Z</time>
      </trkpt>
      <trkpt lat="48.04113" lon="2.76523">
        <ele>102</ele>
        <time>2016-12-11T08:05:24.423Z</time>
      </trkpt>
      <trkpt lat="48.04113" lon="2.76523">
        <ele>102</ele>
        <time>2016-12-11T08:05:25.423Z</time>
      </trkpt>
      <trkpt lat="48.04111" lon="2.76517">
        <ele>103</ele>
        <time>2016-12-11T08:05:26.423Z</time>
      </trkpt>
      <trkpt lat="48.04111" lon="2.76517">
        <ele>103</ele>
        <time>2016-12-11T08:05:27.419Z</time>
      </trkpt>
      <trkpt lat="48.04106" lon="2.76512">
        <ele>102</ele>
        <time>2016-12-11T08:05:28.422Z</time>
      </trkpt>
      <trkpt lat="48.04106" lon="2.76512">
        <ele>102</ele>
        <time>2016-12-11T08:05:29.424Z</time>
      </trkpt>
      <trkpt lat="48.041" lon="2.76507">
        <ele>102</ele>
        <time>2016-12-11T08:05:30.421Z</time>
      </trkpt>
      <trkpt lat="48.041" lon="2.76507">
        <ele>102</ele>
        <time>2016-12-11T08:05:31.423Z</time>
      </trkpt>
      <trkpt lat="48.04095" lon="2.76501">
        <ele>102</ele>
        <time>2016-12-11T08:05:32.423Z</time>
      </trkpt>
      <trkpt lat="48.04095" lon="2.76501">
        <ele>102</ele>
        <time>2016-12-11T08:05:33.423Z</time>
      </trkpt>
      <trkpt lat="48.0409" lon="2.76497">
        <ele>102</ele>
        <time>2016-12-11T08:05:34.415Z</time>
      </trkpt>
      <trkpt lat="48.0409" lon="2.76497">
        <ele>102</ele>
        <time>2016-12-11T08:05:35.413Z</time>
      </trkpt>
      <trkpt lat="48.04083" lon="2.76491">
        <ele>103</ele>
        <time>2016-12-11T08:05:36.421Z</time>
      </trkpt>
      <trkpt lat="48.04083" lon="2.76491">
        <ele>103</ele>
        <time>2016-12-11T08:05:37.420Z</time>
      </trkpt>
      <trkpt lat="48.04075" lon="2.76485">
        <ele>103</ele>
        <time>2016-12-11T08:05:38.422Z</time>
      </trkpt>
      <trkpt lat="48.04075" lon="2.76485">
        <ele>103</ele>
        <time>2016-12-11T08:05:39.422Z</time>
      </trkpt>
      <trkpt lat="48.04069" lon="2.76479">
        <ele>103</ele>
        <time>2016-12-11T08:05:40.424Z</time>
      </trkpt>
      <trkpt lat="48.04069" lon="2.76479">
        <ele>103</ele>
        <time>2016-12-11T08:05:41.422Z</time>
      </trkpt>
      <trkpt lat="48.04062" lon="2.76475">
        <ele>103</ele>
        <time>2016-12-11T08:05:42.422Z</time>
      </trkpt>
      <trkpt lat="48.04062" lon="2.76475">
        <ele>103</ele>
        <time>2016-12-11T08:05:43.425Z</time>
      </trkpt>
      <trkpt lat="48.04055" lon="2.76472">
        <ele>103</ele>
        <time>2016-12-11T08:05:44.422Z</time>
      </trkpt>
      <trkpt lat="48.04055" lon="2.76472">
        <ele>103</ele>
        <time>2016-12-11T08:05:45.433Z</time>
      </trkpt>
      <trkpt lat="48.04048" lon="2.76466">
        <ele>103</ele>
        <time>2016-12-11T08:05:46.415Z</time>
      </trkpt>
      <trkpt lat="48.04048" lon="2.76466">
        <ele>103</ele>
        <time>2016-12-11T08:05:47.426Z</time>
      </trkpt>
      <trkpt lat="48.04043" lon="2.76459">
        <ele>103</ele>
        <time>2016-12-11T08:05:48.431Z</time>
      </trkpt>
      <trkpt lat="48.04043" lon="2.76459">
        <ele>103</ele>
        <time>2016-12-11T08:05:49.428Z</time>
      </trkpt>
      <trkpt lat="48.04042" lon="2.76449">
        <ele>103</ele>
        <time>2016-12-11T08:05:50.427Z</time>
      </trkpt>
      <trkpt lat="48.04042" lon="2.76449">
        <ele>103</ele>
        <time>2016-12-11T08:05:51.433Z</time>
      </trkpt>
      <trkpt lat="48.04044" lon="2.76438">
        <ele>102</ele>
        <time>2016-12-11T08:05:52.417Z</time>
      </trkpt>
      <trkpt lat="48.04044" lon="2.76438">
        <ele>102</ele>
        <time>2016-12-11T08:05:53.419Z</time>
      </trkpt>
      <trkpt lat="48.04045" lon="2.76427">
        <ele>103</ele>
        <time>2016-12-11T08:05:54.417Z</time>
      </trkpt>
      <trkpt lat="48.04045" lon="2.76427">
        <ele>103</ele>
        <time>2016-12-11T08:05:55.427Z</time>
      </trkpt>
      <trkpt lat="48.04047" lon="2.76416">
        <ele>102</ele>
        <time>2016-12-11T08:05:56.422Z</time>
      </trkpt>
      <trkpt lat="48.04047" lon="2.76416">
        <ele>102</ele>
        <time>2016-12-11T08:05:57.420Z</time>
      </trkpt>
      <trkpt lat="48.04049" lon="2.76405">
        <ele>102</ele>
        <time>2016-12-11T08:05:58.416Z</time>
      </trkpt>
      <trkpt lat="48.04049" lon="2.764">
        <ele>102</ele>
        <time>2016-12-11T08:05:59.427Z</time>
      </trkpt>
      <trkpt lat="48.04049" lon="2.764">
        <ele>102</ele>
        <time>2016-12-11T08:06:00.426Z</time>
      </trkpt>
      <trkpt lat="48.04051" lon="2.7639">
        <ele>102</ele>
        <time>2016-12-11T08:06:01.426Z</time>
      </trkpt>
      <trkpt lat="48.04052" lon="2.76385">
        <ele>102</ele>
        <time>2016-12-11T08:06:02.427Z</time>
      </trkpt>
      <trkpt lat="48.04052" lon="2.76385">
        <ele>102</ele>
        <time>2016-12-11T08:06:03.399Z</time>
      </trkpt>
      <trkpt lat="48.04052" lon="2.76376">
        <ele>102</ele>
        <time>2016-12-11T08:06:04.427Z</time>
      </trkpt>
      <trkpt lat="48.04052" lon="2.76376">
        <ele>102</ele>
        <time>2016-12-11T08:06:05.425Z</time>
      </trkpt>
      <trkpt lat="48.04054" lon="2.76365">
        <ele>102</ele>
        <time>2016-12-11T08:06:06.425Z</time>
      </trkpt>
      <trkpt lat="48.04054" lon="2.76365">
        <ele>102</ele>
        <time>2016-12-11T08:06:07.422Z</time>
      </trkpt>
      <trkpt lat="48.04057" lon="2.76353">
        <ele>102</ele>
        <time>2016-12-11T08:06:08.418Z</time>
      </trkpt>
      <trkpt lat="48.04057" lon="2.76353">
        <ele>102</ele>
        <time>2016-12-11T08:06:09.415Z</time>
      </trkpt>
      <trkpt lat="48.0406" lon="2.76341">
        <ele>102</ele>
        <time>2016-12-11T08:06:10.413Z</time>
      </trkpt>
      <trkpt lat="48.04061" lon="2.76336">
        <ele>102</ele>
        <time>2016-12-11T08:06:11.422Z</time>
      </trkpt>
      <trkpt lat="48.04061" lon="2.76331">
        <ele>102</ele>
        <time>2016-12-11T08:06:12.424Z</time>
      </trkpt>
      <trkpt lat="48.04061" lon="2.76331">
        <ele>102</ele>
        <time>2016-12-11T08:06:13.427Z</time>
      </trkpt>
      <trkpt lat="48.04062" lon="2.76321">
        <ele>103</ele>
        <time>2016-12-11T08:06:14.415Z</time>
      </trkpt>
      <trkpt lat="48.04062" lon="2.76321">
        <ele>103</ele>
        <time>2016-12-11T08:06:15.413Z</time>
      </trkpt>
      <trkpt lat="48.04063" lon="2.7631">
        <ele>105</ele>
        <time>2016-12-11T08:06:16.417Z</time>
      </trkpt>
      <trkpt lat="48.04063" lon="2.76304">
        <ele>105</ele>
        <time>2016-12-11T08:06:17.405Z</time>
      </trkpt>
      <trkpt lat="48.04063" lon="2.76298">
        <ele>106</ele>
        <time>2016-12-11T08:06:18.428Z</time>
      </trkpt>
      <trkpt lat="48.04063" lon="2.76298">
        <ele>106</ele>
        <time>2016-12-11T08:06:19.426Z</time>
      </trkpt>
      <trkpt lat="48.04066" lon="2.76286">
        <ele>107</ele>
        <time>2016-12-11T08:06:20.425Z</time>
      </trkpt>
      <trkpt lat="48.04066" lon="2.76286">
        <ele>107</ele>
        <time>2016-12-11T08:06:21.434Z</time>
      </trkpt>
      <trkpt lat="48.04069" lon="2.76275">
        <ele>107</ele>
        <time>2016-12-11T08:06:22.423Z</time>
      </trkpt>
      <trkpt lat="48.04069" lon="2.76275">
        <ele>107</ele>
        <time>2016-12-11T08:06:23.419Z</time>
      </trkpt>
      <trkpt lat="48.0407" lon="2.76264">
        <ele>108</ele>
        <time>2016-12-11T08:06:24.427Z</time>
      </trkpt>
      <trkpt lat="48.0407" lon="2.76264">
        <ele>108</ele>
        <time>2016-12-11T08:06:25.425Z</time>
      </trkpt>
      <trkpt lat="48.04071" lon="2.76252">
        <ele>110</ele>
        <time>2016-12-11T08:06:26.427Z</time>
      </trkpt>
      <trkpt lat="48.04071" lon="2.76252">
        <ele>110</ele>
        <time>2016-12-11T08:06:27.429Z</time>
      </trkpt>
      <trkpt lat="48.04073" lon="2.7624">
        <ele>109</ele>
        <time>2016-12-11T08:06:28.427Z</time>
      </trkpt>
      <trkpt lat="48.04073" lon="2.7624">
        <ele>109</ele>
        <time>2016-12-11T08:06:29.427Z</time>
      </trkpt>
      <trkpt lat="48.04075" lon="2.76228">
        <ele>109</ele>
        <time>2016-12-11T08:06:30.423Z</time>
      </trkpt>
      <trkpt lat="48.04075" lon="2.76228">
        <ele>109</ele>
        <time>2016-12-11T08:06:31.396Z</time>
      </trkpt>
      <trkpt lat="48.04077" lon="2.76217">
        <ele>109</ele>
        <time>2016-12-11T08:06:32.422Z</time>
      </trkpt>
      <trkpt lat="48.04077" lon="2.76217">
        <ele>109</ele>
        <time>2016-12-11T08:06:33.428Z</time>
      </trkpt>
      <trkpt lat="48.0408" lon="2.76204">
        <ele>110</ele>
        <time>2016-12-11T08:06:34.418Z</time>
      </trkpt>
      <trkpt lat="48.04081" lon="2.76198">
        <ele>110</ele>
        <time>2016-12-11T08:06:35.425Z</time>
      </trkpt>
      <trkpt lat="48.04082" lon="2.76192">
        <ele>111</ele>
        <time>2016-12-11T08:06:36.427Z</time>
      </trkpt>
      <trkpt lat="48.04083" lon="2.76186">
        <ele>111</ele>
        <time>2016-12-11T08:06:37.435Z</time>
      </trkpt>
      <trkpt lat="48.04083" lon="2.76186">
        <ele>111</ele>
        <time>2016-12-11T08:06:38.412Z</time>
      </trkpt>
      <trkpt lat="48.04085" lon="2.76174">
        <ele>111</ele>
        <time>2016-12-11T08:06:39.417Z</time>
      </trkpt>
      <trkpt lat="48.04085" lon="2.76174">
        <ele>111</ele>
        <time>2016-12-11T08:06:40.415Z</time>
      </trkpt>
      <trkpt lat="48.04088" lon="2.76164">
        <ele>112</ele>
        <time>2016-12-11T08:06:41.419Z</time>
      </trkpt>
      <trkpt lat="48.04089" lon="2.76158">
        <ele>112</ele>
        <time>2016-12-11T08:06:42.423Z</time>
      </trkpt>
      <trkpt lat="48.04089" lon="2.76158">
        <ele>112</ele>
        <time>2016-12-11T08:06:43.423Z</time>
      </trkpt>
      <trkpt lat="48.04091" lon="2.76148">
        <ele>112</ele>
        <time>2016-12-11T08:06:44.419Z</time>
      </trkpt>
      <trkpt lat="48.04091" lon="2.76148">
        <ele>112</ele>
        <time>2016-12-11T08:06:45.423Z</time>
      </trkpt>
      <trkpt lat="48.04092" lon="2.76137">
        <ele>112</ele>
        <time>2016-12-11T08:06:46.425Z</time>
      </trkpt>
      <trkpt lat="48.04092" lon="2.76137">
        <ele>112</ele>
        <time>2016-12-11T08:06:47.428Z</time>
      </trkpt>
      <trkpt lat="48.04094" lon="2.76125">
        <ele>112</ele>
        <time>2016-12-11T08:06:48.430Z</time>
      </trkpt>
      <trkpt lat="48.04094" lon="2.76125">
        <ele>112</ele>
        <time>2016-12-11T08:06:49.428Z</time>
      </trkpt>
      <trkpt lat="48.04097" lon="2.76112">
        <ele>112</ele>
        <time>2016-12-11T08:06:50.429Z</time>
      </trkpt>
      <trkpt lat="48.04097" lon="2.76112">
        <ele>112</ele>
        <time>2016-12-11T08:06:51.434Z</time>
      </trkpt>
      <trkpt lat="48.04098" lon="2.76099">
        <ele>112</ele>
        <time>2016-12-11T08:06:52.425Z</time>
      </trkpt>
      <trkpt lat="48.04098" lon="2.76099">
        <ele>112</ele>
        <time>2016-12-11T08:06:53.424Z</time>
      </trkpt>
      <trkpt lat="48.041" lon="2.76086">
        <ele>112</ele>
        <time>2016-12-11T08:06:54.432Z</time>
      </trkpt>
      <trkpt lat="48.041" lon="2.76086">
        <ele>112</ele>
        <time>2016-12-11T08:06:55.429Z</time>
      </trkpt>
      <trkpt lat="48.04103" lon="2.76073">
        <ele>112</ele>
        <time>2016-12-11T08:06:56.423Z</time>
      </trkpt>
      <trkpt lat="48.04103" lon="2.76073">
        <ele>112</ele>
        <time>2016-12-11T08:06:57.422Z</time>
      </trkpt>
      <trkpt lat="48.04106" lon="2.76058">
        <ele>111</ele>
        <time>2016-12-11T08:06:58.422Z</time>
      </trkpt>
      <trkpt lat="48.04106" lon="2.76058">
        <ele>111</ele>
        <time>2016-12-11T08:06:59.429Z</time>
      </trkpt>
      <trkpt lat="48.04109" lon="2.76045">
        <ele>111</ele>
        <time>2016-12-11T08:07:00.428Z</time>
      </trkpt>
      <trkpt lat="48.04109" lon="2.76045">
        <ele>111</ele>
        <time>2016-12-11T08:07:01.431Z</time>
      </trkpt>
      <trkpt lat="48.04111" lon="2.7603">
        <ele>111</ele>
        <time>2016-12-11T08:07:02.418Z</time>
      </trkpt>
      <trkpt lat="48.04111" lon="2.7603">
        <ele>111</ele>
        <time>2016-12-11T08:07:03.420Z</time>
      </trkpt>
      <trkpt lat="48.04114" lon="2.76017">
        <ele>110</ele>
        <time>2016-12-11T08:07:04.419Z</time>
      </trkpt>
      <trkpt lat="48.04115" lon="2.7601">
        <ele>110</ele>
        <time>2016-12-11T08:07:05.424Z</time>
      </trkpt>
      <trkpt lat="48.04117" lon="2.76003">
        <ele>110</ele>
        <time>2016-12-11T08:07:06.423Z</time>
      </trkpt>
      <trkpt lat="48.04117" lon="2.76003">
        <ele>110</ele>
        <time>2016-12-11T08:07:07.422Z</time>
      </trkpt>
      <trkpt lat="48.04119" lon="2.75988">
        <ele>109</ele>
        <time>2016-12-11T08:07:08.423Z</time>
      </trkpt>
      <trkpt lat="48.04119" lon="2.75988">
        <ele>109</ele>
        <time>2016-12-11T08:07:09.419Z</time>
      </trkpt>
      <trkpt lat="48.04121" lon="2.75976">
        <ele>109</ele>
        <time>2016-12-11T08:07:10.432Z</time>
      </trkpt>
      <trkpt lat="48.04121" lon="2.75976">
        <ele>109</ele>
        <time>2016-12-11T08:07:11.409Z</time>
      </trkpt>
      <trkpt lat="48.04124" lon="2.75967">
        <ele>108</ele>
        <time>2016-12-11T08:07:12.422Z</time>
      </trkpt>
      <trkpt lat="48.04124" lon="2.75967">
        <ele>108</ele>
        <time>2016-12-11T08:07:13.427Z</time>
      </trkpt>
      <trkpt lat="48.04127" lon="2.75966">
        <ele>108</ele>
        <time>2016-12-11T08:07:14.419Z</time>
      </trkpt>
      <trkpt lat="48.04127" lon="2.75966">
        <ele>108</ele>
        <time>2016-12-11T08:07:15.401Z</time>
      </trkpt>
      <trkpt lat="48.04132" lon="2.75967">
        <ele>108</ele>
        <time>2016-12-11T08:07:16.417Z</time>
      </trkpt>
      <trkpt lat="48.04132" lon="2.75967">
        <ele>108</ele>
        <time>2016-12-11T08:07:17.424Z</time>
      </trkpt>
      <trkpt lat="48.04139" lon="2.7597">
        <ele>109</ele>
        <time>2016-12-11T08:07:18.433Z</time>
      </trkpt>
      <trkpt lat="48.04139" lon="2.7597">
        <ele>109</ele>
        <time>2016-12-11T08:07:19.400Z</time>
      </trkpt>
      <trkpt lat="48.04144" lon="2.75975">
        <ele>108</ele>
        <time>2016-12-11T08:07:20.396Z</time>
      </trkpt>
      <trkpt lat="48.04144" lon="2.75975">
        <ele>108</ele>
        <time>2016-12-11T08:07:21.435Z</time>
      </trkpt>
      <trkpt lat="48.0415" lon="2.75982">
        <ele>108</ele>
        <time>2016-12-11T08:07:22.435Z</time>
      </trkpt>
      <trkpt lat="48.0415" lon="2.75982">
        <ele>108</ele>
        <time>2016-12-11T08:07:23.435Z</time>
      </trkpt>
      <trkpt lat="48.04156" lon="2.75989">
        <ele>108</ele>
        <time>2016-12-11T08:07:24.421Z</time>
      </trkpt>
      <trkpt lat="48.04156" lon="2.75989">
        <ele>108</ele>
        <time>2016-12-11T08:07:25.423Z</time>
      </trkpt>
      <trkpt lat="48.04162" lon="2.75992">
        <ele>108</ele>
        <time>2016-12-11T08:07:26.423Z</time>
      </trkpt>
      <trkpt lat="48.04162" lon="2.75992">
        <ele>108</ele>
        <time>2016-12-11T08:07:27.419Z</time>
      </trkpt>
      <trkpt lat="48.0417" lon="2.75993">
        <ele>109</ele>
        <time>2016-12-11T08:07:28.416Z</time>
      </trkpt>
      <trkpt lat="48.04173" lon="2.75995">
        <ele>109</ele>
        <time>2016-12-11T08:07:29.417Z</time>
      </trkpt>
      <trkpt lat="48.04177" lon="2.75999">
        <ele>108</ele>
        <time>2016-12-11T08:07:30.422Z</time>
      </trkpt>
      <trkpt lat="48.04177" lon="2.75999">
        <ele>108</ele>
        <time>2016-12-11T08:07:31.418Z</time>
      </trkpt>
      <trkpt lat="48.04183" lon="2.76006">
        <ele>108</ele>
        <time>2016-12-11T08:07:32.416Z</time>
      </trkpt>
      <trkpt lat="48.04183" lon="2.76006">
        <ele>108</ele>
        <time>2016-12-11T08:07:33.420Z</time>
      </trkpt>
      <trkpt lat="48.04188" lon="2.76011">
        <ele>109</ele>
        <time>2016-12-11T08:07:34.424Z</time>
      </trkpt>
      <trkpt lat="48.04188" lon="2.76011">
        <ele>109</ele>
        <time>2016-12-11T08:07:35.423Z</time>
      </trkpt>
      <trkpt lat="48.04193" lon="2.76017">
        <ele>108</ele>
        <time>2016-12-11T08:07:36.421Z</time>
      </trkpt>
      <trkpt lat="48.04193" lon="2.76017">
        <ele>108</ele>
        <time>2016-12-11T08:07:37.416Z</time>
      </trkpt>
      <trkpt lat="48.04201" lon="2.76024">
        <ele>108</ele>
        <time>2016-12-11T08:07:38.422Z</time>
      </trkpt>
      <trkpt lat="48.04205" lon="2.76026">
        <ele>108</ele>
        <time>2016-12-11T08:07:39.422Z</time>
      </trkpt>
      <trkpt lat="48.04205" lon="2.76026">
        <ele>108</ele>
        <time>2016-12-11T08:07:40.418Z</time>
      </trkpt>
      <trkpt lat="48.04212" lon="2.76031">
        <ele>109</ele>
        <time>2016-12-11T08:07:41.396Z</time>
      </trkpt>
      <trkpt lat="48.04215" lon="2.76034">
        <ele>109</ele>
        <time>2016-12-11T08:07:42.396Z</time>
      </trkpt>
      <trkpt lat="48.04215" lon="2.76034">
        <ele>109</ele>
        <time>2016-12-11T08:07:43.398Z</time>
      </trkpt>
      <trkpt lat="48.0422" lon="2.76039">
        <ele>109</ele>
        <time>2016-12-11T08:07:44.423Z</time>
      </trkpt>
      <trkpt lat="48.0422" lon="2.76039">
        <ele>109</ele>
        <time>2016-12-11T08:07:45.419Z</time>
      </trkpt>
      <trkpt lat="48.04227" lon="2.76045">
        <ele>108</ele>
        <time>2016-12-11T08:07:46.416Z</time>
      </trkpt>
      <trkpt lat="48.04227" lon="2.76045">
        <ele>108</ele>
        <time>2016-12-11T08:07:47.426Z</time>
      </trkpt>
      <trkpt lat="48.04233" lon="2.7605">
        <ele>109</ele>
        <time>2016-12-11T08:07:48.422Z</time>
      </trkpt>
      <trkpt lat="48.04233" lon="2.7605">
        <ele>109</ele>
        <time>2016-12-11T08:07:49.422Z</time>
      </trkpt>
      <trkpt lat="48.04239" lon="2.76055">
        <ele>109</ele>
        <time>2016-12-11T08:07:50.422Z</time>
      </trkpt>
      <trkpt lat="48.04239" lon="2.76055">
        <ele>109</ele>
        <time>2016-12-11T08:07:51.419Z</time>
      </trkpt>
      <trkpt lat="48.04246" lon="2.76061">
        <ele>109</ele>
        <time>2016-12-11T08:07:52.422Z</time>
      </trkpt>
      <trkpt lat="48.04249" lon="2.76063">
        <ele>109</ele>
        <time>2016-12-11T08:07:53.419Z</time>
      </trkpt>
      <trkpt lat="48.04252" lon="2.76067">
        <ele>108</ele>
        <time>2016-12-11T08:07:54.431Z</time>
      </trkpt>
      <trkpt lat="48.04252" lon="2.76067">
        <ele>108</ele>
        <time>2016-12-11T08:07:55.429Z</time>
      </trkpt>
      <trkpt lat="48.0426" lon="2.76071">
        <ele>109</ele>
        <time>2016-12-11T08:07:56.427Z</time>
      </trkpt>
      <trkpt lat="48.0426" lon="2.76071">
        <ele>109</ele>
        <time>2016-12-11T08:07:57.424Z</time>
      </trkpt>
      <trkpt lat="48.04266" lon="2.76076">
        <ele>109</ele>
        <time>2016-12-11T08:07:58.424Z</time>
      </trkpt>
      <trkpt lat="48.0427" lon="2.76079">
        <ele>109</ele>
        <time>2016-12-11T08:07:59.432Z</time>
      </trkpt>
      <trkpt lat="48.04272" lon="2.76082">
        <ele>109</ele>
        <time>2016-12-11T08:08:00.415Z</time>
      </trkpt>
      <trkpt lat="48.04272" lon="2.76082">
        <ele>109</ele>
        <time>2016-12-11T08:08:01.412Z</time>
      </trkpt>
      <trkpt lat="48.04278" lon="2.76089">
        <ele>109</ele>
        <time>2016-12-11T08:08:02.416Z</time>
      </trkpt>
      <trkpt lat="48.04282" lon="2.76092">
        <ele>109</ele>
        <time>2016-12-11T08:08:03.419Z</time>
      </trkpt>
      <trkpt lat="48.04285" lon="2.76094">
        <ele>109</ele>
        <time>2016-12-11T08:08:04.428Z</time>
      </trkpt>
      <trkpt lat="48.04285" lon="2.76094">
        <ele>109</ele>
        <time>2016-12-11T08:08:05.425Z</time>
      </trkpt>
      <trkpt lat="48.04291" lon="2.761">
        <ele>109</ele>
        <time>2016-12-11T08:08:06.423Z</time>
      </trkpt>
      <trkpt lat="48.04291" lon="2.761">
        <ele>109</ele>
        <time>2016-12-11T08:08:07.421Z</time>
      </trkpt>
      <trkpt lat="48.04299" lon="2.76109">
        <ele>109</ele>
        <time>2016-12-11T08:08:08.418Z</time>
      </trkpt>
      <trkpt lat="48.04299" lon="2.76109">
        <ele>109</ele>
        <time>2016-12-11T08:08:09.414Z</time>
      </trkpt>
      <trkpt lat="48.04308" lon="2.76115">
        <ele>109</ele>
        <time>2016-12-11T08:08:10.412Z</time>
      </trkpt>
      <trkpt lat="48.04308" lon="2.76115">
        <ele>109</ele>
        <time>2016-12-11T08:08:11.407Z</time>
      </trkpt>
      <trkpt lat="48.04315" lon="2.7612">
        <ele>109</ele>
        <time>2016-12-11T08:08:12.409Z</time>
      </trkpt>
      <trkpt lat="48.04315" lon="2.7612">
        <ele>109</ele>
        <time>2016-12-11T08:08:13.407Z</time>
      </trkpt>
      <trkpt lat="48.04321" lon="2.76127">
        <ele>108</ele>
        <time>2016-12-11T08:08:14.396Z</time>
      </trkpt>
      <trkpt lat="48.04321" lon="2.76127">
        <ele>108</ele>
        <time>2016-12-11T08:08:15.396Z</time>
      </trkpt>
      <trkpt lat="48.04328" lon="2.76132">
        <ele>108</ele>
        <time>2016-12-11T08:08:16.436Z</time>
      </trkpt>
      <trkpt lat="48.04328" lon="2.76132">
        <ele>108</ele>
        <time>2016-12-11T08:08:17.422Z</time>
      </trkpt>
      <trkpt lat="48.04336" lon="2.7614">
        <ele>107</ele>
        <time>2016-12-11T08:08:18.398Z</time>
      </trkpt>
      <trkpt lat="48.04336" lon="2.7614">
        <ele>107</ele>
        <time>2016-12-11T08:08:19.434Z</time>
      </trkpt>
      <trkpt lat="48.04343" lon="2.76147">
        <ele>107</ele>
        <time>2016-12-11T08:08:20.435Z</time>
      </trkpt>
      <trkpt lat="48.04343" lon="2.76147">
        <ele>107</ele>
        <time>2016-12-11T08:08:21.401Z</time>
      </trkpt>
      <trkpt lat="48.0435" lon="2.76154">
        <ele>107</ele>
        <time>2016-12-11T08:08:22.402Z</time>
      </trkpt>
      <trkpt lat="48.0435" lon="2.76154">
        <ele>107</ele>
        <time>2016-12-11T08:08:23.399Z</time>
      </trkpt>
      <trkpt lat="48.04356" lon="2.76161">
        <ele>106</ele>
        <time>2016-12-11T08:08:24.423Z</time>
      </trkpt>
      <trkpt lat="48.04356" lon="2.76161">
        <ele>106</ele>
        <time>2016-12-11T08:08:25.419Z</time>
      </trkpt>
      <trkpt lat="48.04365" lon="2.76165">
        <ele>106</ele>
        <time>2016-12-11T08:08:26.417Z</time>
      </trkpt>
      <trkpt lat="48.04365" lon="2.76165">
        <ele>106</ele>
        <time>2016-12-11T08:08:27.413Z</time>
      </trkpt>
      <trkpt lat="48.04373" lon="2.76173">
        <ele>106</ele>
        <time>2016-12-11T08:08:28.413Z</time>
      </trkpt>
      <trkpt lat="48.04376" lon="2.76177">
        <ele>106</ele>
        <time>2016-12-11T08:08:29.424Z</time>
      </trkpt>
      <trkpt lat="48.04379" lon="2.76181">
        <ele>106</ele>
        <time>2016-12-11T08:08:30.424Z</time>
      </trkpt>
      <trkpt lat="48.04379" lon="2.76181">
        <ele>106</ele>
        <time>2016-12-11T08:08:31.420Z</time>
      </trkpt>
      <trkpt lat="48.04385" lon="2.76188">
        <ele>106</ele>
        <time>2016-12-11T08:08:32.424Z</time>
      </trkpt>
      <trkpt lat="48.04385" lon="2.76188">
        <ele>106</ele>
        <time>2016-12-11T08:08:33.409Z</time>
      </trkpt>
      <trkpt lat="48.04393" lon="2.76194">
        <ele>106</ele>
        <time>2016-12-11T08:08:34.416Z</time>
      </trkpt>
      <trkpt lat="48.04393" lon="2.76194">
        <ele>106</ele>
        <time>2016-12-11T08:08:35.413Z</time>
      </trkpt>
      <trkpt lat="48.04402" lon="2.762">
        <ele>106</ele>
        <time>2016-12-11T08:08:36.411Z</time>
      </trkpt>
      <trkpt lat="48.04402" lon="2.762">
        <ele>106</ele>
        <time>2016-12-11T08:08:37.396Z</time>
      </trkpt>
      <trkpt lat="48.04409" lon="2.76207">
        <ele>105</ele>
        <time>2016-12-11T08:08:38.435Z</time>
      </trkpt>
      <trkpt lat="48.04409" lon="2.76207">
        <ele>105</ele>
        <time>2016-12-11T08:08:39.397Z</time>
      </trkpt>
      <trkpt lat="48.04417" lon="2.76214">
        <ele>105</ele>
        <time>2016-12-11T08:08:40.435Z</time>
      </trkpt>
      <trkpt lat="48.04421" lon="2.76216">
        <ele>105</ele>
        <time>2016-12-11T08:08:41.435Z</time>
      </trkpt>
      <trkpt lat="48.04425" lon="2.76218">
        <ele>104</ele>
        <time>2016-12-11T08:08:42.407Z</time>
      </trkpt>
      <trkpt lat="48.04425" lon="2.76218">
        <ele>104</ele>
        <time>2016-12-11T08:08:43.399Z</time>
      </trkpt>
      <trkpt lat="48.04434" lon="2.76225">
        <ele>104</ele>
        <time>2016-12-11T08:08:44.426Z</time>
      </trkpt>
      <trkpt lat="48.04434" lon="2.76225">
        <ele>104</ele>
        <time>2016-12-11T08:08:45.425Z</time>
      </trkpt>
      <trkpt lat="48.04441" lon="2.76233">
        <ele>104</ele>
        <time>2016-12-11T08:08:46.423Z</time>
      </trkpt>
      <trkpt lat="48.04445" lon="2.76236">
        <ele>105</ele>
        <time>2016-12-11T08:08:47.427Z</time>
      </trkpt>
      <trkpt lat="48.04451" lon="2.76239">
        <ele>105</ele>
        <time>2016-12-11T08:08:48.429Z</time>
      </trkpt>
      <trkpt lat="48.04451" lon="2.76239">
        <ele>105</ele>
        <time>2016-12-11T08:08:49.425Z</time>
      </trkpt>
      <trkpt lat="48.04458" lon="2.76243">
        <ele>105</ele>
        <time>2016-12-11T08:08:50.423Z</time>
      </trkpt>
      <trkpt lat="48.04458" lon="2.76243">
        <ele>105</ele>
        <time>2016-12-11T08:08:51.419Z</time>
      </trkpt>
      <trkpt lat="48.04464" lon="2.76249">
        <ele>105</ele>
        <time>2016-12-11T08:08:52.417Z</time>
      </trkpt>
      <trkpt lat="48.04467" lon="2.76253">
        <ele>105</ele>
        <time>2016-12-11T08:08:53.416Z</time>
      </trkpt>
      <trkpt lat="48.0447" lon="2.76255">
        <ele>105</ele>
        <time>2016-12-11T08:08:54.403Z</time>
      </trkpt>
      <trkpt lat="48.0447" lon="2.76255">
        <ele>105</ele>
        <time>2016-12-11T08:08:55.400Z</time>
      </trkpt>
      <trkpt lat="48.04476" lon="2.7626">
        <ele>105</ele>
        <time>2016-12-11T08:08:56.410Z</time>
      </trkpt>
      <trkpt lat="48.04476" lon="2.7626">
        <ele>105</ele>
        <time>2016-12-11T08:08:57.408Z</time>
      </trkpt>
      <trkpt lat="48.04484" lon="2.76263">
        <ele>106</ele>
        <time>2016-12-11T08:08:58.405Z</time>
      </trkpt>
      <trkpt lat="48.04484" lon="2.76263">
        <ele>106</ele>
        <time>2016-12-11T08:08:59.417Z</time>
      </trkpt>
      <trkpt lat="48.04492" lon="2.76269">
        <ele>106</ele>
        <time>2016-12-11T08:09:00.432Z</time>
      </trkpt>
      <trkpt lat="48.04492" lon="2.76269">
        <ele>106</ele>
        <time>2016-12-11T08:09:01.428Z</time>
      </trkpt>
      <trkpt lat="48.04497" lon="2.76273">
        <ele>106</ele>
        <time>2016-12-11T08:09:02.424Z</time>
      </trkpt>
      <trkpt lat="48.04497" lon="2.76273">
        <ele>106</ele>
        <time>2016-12-11T08:09:03.410Z</time>
      </trkpt>
      <trkpt lat="48.04504" lon="2.76278">
        <ele>106</ele>
        <time>2016-12-11T08:09:04.435Z</time>
      </trkpt>
      <trkpt lat="48.04507" lon="2.76282">
        <ele>106</ele>
        <time>2016-12-11T08:09:05.430Z</time>
      </trkpt>
      <trkpt lat="48.0451" lon="2.76285">
        <ele>106</ele>
        <time>2016-12-11T08:09:06.429Z</time>
      </trkpt>
      <trkpt lat="48.0451" lon="2.76285">
        <ele>106</ele>
        <time>2016-12-11T08:09:07.422Z</time>
      </trkpt>
      <trkpt lat="48.04517" lon="2.7629">
        <ele>106</ele>
        <time>2016-12-11T08:09:08.426Z</time>
      </trkpt>
      <trkpt lat="48.04517" lon="2.7629">
        <ele>106</ele>
        <time>2016-12-11T08:09:09.422Z</time>
      </trkpt>
      <trkpt lat="48.04523" lon="2.76295">
        <ele>106</ele>
        <time>2016-12-11T08:09:10.435Z</time>
      </trkpt>
      <trkpt lat="48.04523" lon="2.76295">
        <ele>106</ele>
        <time>2016-12-11T08:09:11.417Z</time>
      </trkpt>
      <trkpt lat="48.04531" lon="2.76298">
        <ele>106</ele>
        <time>2016-12-11T08:09:12.416Z</time>
      </trkpt>
      <trkpt lat="48.04531" lon="2.76298">
        <ele>106</ele>
        <time>2016-12-11T08:09:13.421Z</time>
      </trkpt>
      <trkpt lat="48.04538" lon="2.76302">
        <ele>107</ele>
        <time>2016-12-11T08:09:14.426Z</time>
      </trkpt>
      <trkpt lat="48.04538" lon="2.76302">
        <ele>107</ele>
        <time>2016-12-11T08:09:15.427Z</time>
      </trkpt>
      <trkpt lat="48.04544" lon="2.763">
        <ele>107</ele>
        <time>2016-12-11T08:09:16.427Z</time>
      </trkpt>
      <trkpt lat="48.04544" lon="2.763">
        <ele>107</ele>
        <time>2016-12-11T08:09:17.416Z</time>
      </trkpt>
      <trkpt lat="48.04546" lon="2.76294">
        <ele>107</ele>
        <time>2016-12-11T08:09:18.416Z</time>
      </trkpt>
      <trkpt lat="48.04546" lon="2.76294">
        <ele>107</ele>
        <time>2016-12-11T08:09:19.412Z</time>
      </trkpt>
      <trkpt lat="48.04547" lon="2.76285">
        <ele>107</ele>
        <time>2016-12-11T08:09:20.416Z</time>
      </trkpt>
      <trkpt lat="48.04547" lon="2.76285">
        <ele>107</ele>
        <time>2016-12-11T08:09:21.414Z</time>
      </trkpt>
      <trkpt lat="48.04548" lon="2.76276">
        <ele>107</ele>
        <time>2016-12-11T08:09:22.410Z</time>
      </trkpt>
      <trkpt lat="48.04548" lon="2.76276">
        <ele>107</ele>
        <time>2016-12-11T08:09:23.410Z</time>
      </trkpt>
      <trkpt lat="48.04548" lon="2.76268">
        <ele>107</ele>
        <time>2016-12-11T08:09:24.407Z</time>
      </trkpt>
      <trkpt lat="48.04548" lon="2.76268">
        <ele>107</ele>
        <time>2016-12-11T08:09:25.405Z</time>
      </trkpt>
      <trkpt lat="48.04548" lon="2.76259">
        <ele>108</ele>
        <time>2016-12-11T08:09:26.424Z</time>
      </trkpt>
      <trkpt lat="48.04548" lon="2.76259">
        <ele>108</ele>
        <time>2016-12-11T08:09:27.421Z</time>
      </trkpt>
      <trkpt lat="48.04548" lon="2.7625">
        <ele>108</ele>
        <time>2016-12-11T08:09:28.430Z</time>
      </trkpt>
      <trkpt lat="48.04547" lon="2.76245">
        <ele>108</ele>
        <time>2016-12-11T08:09:29.428Z</time>
      </trkpt>
      <trkpt lat="48.04547" lon="2.76245">
        <ele>108</ele>
        <time>2016-12-11T08:09:30.425Z</time>
      </trkpt>
      <trkpt lat="48.04548" lon="2.76236">
        <ele>108</ele>
        <time>2016-12-11T08:09:31.421Z</time>
      </trkpt>
      <trkpt lat="48.04548" lon="2.76232">
        <ele>108</ele>
        <time>2016-12-11T08:09:32.423Z</time>
      </trkpt>
      <trkpt lat="48.04548" lon="2.76232">
        <ele>108</ele>
        <time>2016-12-11T08:09:33.424Z</time>
      </trkpt>
      <trkpt lat="48.04548" lon="2.76221">
        <ele>108</ele>
        <time>2016-12-11T08:09:34.418Z</time>
      </trkpt>
      <trkpt lat="48.04547" lon="2.76215">
        <ele>108</ele>
        <time>2016-12-11T08:09:35.425Z</time>
      </trkpt>
      <trkpt lat="48.04546" lon="2.7621">
        <ele>107</ele>
        <time>2016-12-11T08:09:36.424Z</time>
      </trkpt>
      <trkpt lat="48.04546" lon="2.7621">
        <ele>107</ele>
        <time>2016-12-11T08:09:37.420Z</time>
      </trkpt>
      <trkpt lat="48.04544" lon="2.76198">
        <ele>107</ele>
        <time>2016-12-11T08:09:38.423Z</time>
      </trkpt>
      <trkpt lat="48.04544" lon="2.76192">
        <ele>107</ele>
        <time>2016-12-11T08:09:39.434Z</time>
      </trkpt>
      <trkpt lat="48.04544" lon="2.76192">
        <ele>107</ele>
        <time>2016-12-11T08:09:40.396Z</time>
      </trkpt>
      <trkpt lat="48.04542" lon="2.76177">
        <ele>108</ele>
        <time>2016-12-11T08:09:41.396Z</time>
      </trkpt>
      <trkpt lat="48.04544" lon="2.76171">
        <ele>107</ele>
        <time>2016-12-11T08:09:42.417Z</time>
      </trkpt>
      <trkpt lat="48.04544" lon="2.76171">
        <ele>107</ele>
        <time>2016-12-11T08:09:43.421Z</time>
      </trkpt>
      <trkpt lat="48.04549" lon="2.76166">
        <ele>107</ele>
        <time>2016-12-11T08:09:44.408Z</time>
      </trkpt>
      <trkpt lat="48.04549" lon="2.76166">
        <ele>107</ele>
        <time>2016-12-11T08:09:45.406Z</time>
      </trkpt>
      <trkpt lat="48.04556" lon="2.76167">
        <ele>107</ele>
        <time>2016-12-11T08:09:46.411Z</time>
      </trkpt>
      <trkpt lat="48.04556" lon="2.76167">
        <ele>107</ele>
        <time>2016-12-11T08:09:47.426Z</time>
      </trkpt>
      <trkpt lat="48.0456" lon="2.7617">
        <ele>107</ele>
        <time>2016-12-11T08:09:48.426Z</time>
      </trkpt>
      <trkpt lat="48.0456" lon="2.7617">
        <ele>107</ele>
        <time>2016-12-11T08:09:49.423Z</time>
      </trkpt>
      <trkpt lat="48.04566" lon="2.76174">
        <ele>108</ele>
        <time>2016-12-11T08:09:50.418Z</time>
      </trkpt>
      <trkpt lat="48.04566" lon="2.76174">
        <ele>108</ele>
        <time>2016-12-11T08:09:51.426Z</time>
      </trkpt>
      <trkpt lat="48.04571" lon="2.76179">
        <ele>108</ele>
        <time>2016-12-11T08:09:52.410Z</time>
      </trkpt>
      <trkpt lat="48.04571" lon="2.76179">
        <ele>108</ele>
        <time>2016-12-11T08:09:53.417Z</time>
      </trkpt>
      <trkpt lat="48.04577" lon="2.76183">
        <ele>108</ele>
        <time>2016-12-11T08:09:54.407Z</time>
      </trkpt>
      <trkpt lat="48.04577" lon="2.76183">
        <ele>108</ele>
        <time>2016-12-11T08:09:55.406Z</time>
      </trkpt>
      <trkpt lat="48.04583" lon="2.76186">
        <ele>108</ele>
        <time>2016-12-11T08:09:56.422Z</time>
      </trkpt>
      <trkpt lat="48.04583" lon="2.76186">
        <ele>108</ele>
        <time>2016-12-11T08:09:57.417Z</time>
      </trkpt>
      <trkpt lat="48.0459" lon="2.76191">
        <ele>108</ele>
        <time>2016-12-11T08:09:58.429Z</time>
      </trkpt>
      <trkpt lat="48.04594" lon="2.76193">
        <ele>108</ele>
        <time>2016-12-11T08:09:59.416Z</time>
      </trkpt>
      <trkpt lat="48.04597" lon="2.76196">
        <ele>108</ele>
        <time>2016-12-11T08:10:00.414Z</time>
      </trkpt>
      <trkpt lat="48.04597" lon="2.76196">
        <ele>108</ele>
        <time>2016-12-11T08:10:01.409Z</time>
      </trkpt>
      <trkpt lat="48.04603" lon="2.76201">
        <ele>108</ele>
        <time>2016-12-11T08:10:02.407Z</time>
      </trkpt>
      <trkpt lat="48.04603" lon="2.76201">
        <ele>108</ele>
        <time>2016-12-11T08:10:03.406Z</time>
      </trkpt>
      <trkpt lat="48.04612" lon="2.76205">
        <ele>108</ele>
        <time>2016-12-11T08:10:04.396Z</time>
      </trkpt>
      <trkpt lat="48.04612" lon="2.76205">
        <ele>108</ele>
        <time>2016-12-11T08:10:05.429Z</time>
      </trkpt>
      <trkpt lat="48.04619" lon="2.7621">
        <ele>109</ele>
        <time>2016-12-11T08:10:06.424Z</time>
      </trkpt>
      <trkpt lat="48.04619" lon="2.7621">
        <ele>109</ele>
        <time>2016-12-11T08:10:07.421Z</time>
      </trkpt>
      <trkpt lat="48.04627" lon="2.76214">
        <ele>109</ele>
        <time>2016-12-11T08:10:08.429Z</time>
      </trkpt>
      <trkpt lat="48.04627" lon="2.76214">
        <ele>109</ele>
        <time>2016-12-11T08:10:09.429Z</time>
      </trkpt>
      <trkpt lat="48.04634" lon="2.76219">
        <ele>109</ele>
        <time>2016-12-11T08:10:10.426Z</time>
      </trkpt>
      <trkpt lat="48.04634" lon="2.76219">
        <ele>109</ele>
        <time>2016-12-11T08:10:11.423Z</time>
      </trkpt>
      <trkpt lat="48.04641" lon="2.76225">
        <ele>109</ele>
        <time>2016-12-11T08:10:12.424Z</time>
      </trkpt>
      <trkpt lat="48.04641" lon="2.76225">
        <ele>109</ele>
        <time>2016-12-11T08:10:13.427Z</time>
      </trkpt>
      <trkpt lat="48.04647" lon="2.7623">
        <ele>110</ele>
        <time>2016-12-11T08:10:14.425Z</time>
      </trkpt>
      <trkpt lat="48.04647" lon="2.7623">
        <ele>110</ele>
        <time>2016-12-11T08:10:15.423Z</time>
      </trkpt>
      <trkpt lat="48.04655" lon="2.76237">
        <ele>110</ele>
        <time>2016-12-11T08:10:16.417Z</time>
      </trkpt>
      <trkpt lat="48.04655" lon="2.76237">
        <ele>110</ele>
        <time>2016-12-11T08:10:17.410Z</time>
      </trkpt>
      <trkpt lat="48.04664" lon="2.76244">
        <ele>111</ele>
        <time>2016-12-11T08:10:18.415Z</time>
      </trkpt>
      <trkpt lat="48.04664" lon="2.76244">
        <ele>111</ele>
        <time>2016-12-11T08:10:19.415Z</time>
      </trkpt>
      <trkpt lat="48.04673" lon="2.76252">
        <ele>111</ele>
        <time>2016-12-11T08:10:20.417Z</time>
      </trkpt>
      <trkpt lat="48.04673" lon="2.76252">
        <ele>111</ele>
        <time>2016-12-11T08:10:21.430Z</time>
      </trkpt>
      <trkpt lat="48.04683" lon="2.7626">
        <ele>111</ele>
        <time>2016-12-11T08:10:22.429Z</time>
      </trkpt>
      <trkpt lat="48.04683" lon="2.7626">
        <ele>111</ele>
        <time>2016-12-11T08:10:23.425Z</time>
      </trkpt>
      <trkpt lat="48.04693" lon="2.76266">
        <ele>112</ele>
        <time>2016-12-11T08:10:24.417Z</time>
      </trkpt>
      <trkpt lat="48.04693" lon="2.76266">
        <ele>112</ele>
        <time>2016-12-11T08:10:25.415Z</time>
      </trkpt>
      <trkpt lat="48.04702" lon="2.76273">
        <ele>112</ele>
        <time>2016-12-11T08:10:26.418Z</time>
      </trkpt>
      <trkpt lat="48.04702" lon="2.76273">
        <ele>112</ele>
        <time>2016-12-11T08:10:27.416Z</time>
      </trkpt>
      <trkpt lat="48.04711" lon="2.7628">
        <ele>112</ele>
        <time>2016-12-11T08:10:28.428Z</time>
      </trkpt>
      <trkpt lat="48.04715" lon="2.76284">
        <ele>113</ele>
        <time>2016-12-11T08:10:29.425Z</time>
      </trkpt>
      <trkpt lat="48.04715" lon="2.76284">
        <ele>113</ele>
        <time>2016-12-11T08:10:30.424Z</time>
      </trkpt>
      <trkpt lat="48.04726" lon="2.76289">
        <ele>113</ele>
        <time>2016-12-11T08:10:31.423Z</time>
      </trkpt>
      <trkpt lat="48.0473" lon="2.76293">
        <ele>113</ele>
        <time>2016-12-11T08:10:32.424Z</time>
      </trkpt>
      <trkpt lat="48.04735" lon="2.76298">
        <ele>113</ele>
        <time>2016-12-11T08:10:33.396Z</time>
      </trkpt>
      <trkpt lat="48.04735" lon="2.76298">
        <ele>113</ele>
        <time>2016-12-11T08:10:34.424Z</time>
      </trkpt>
      <trkpt lat="48.04745" lon="2.76306">
        <ele>113</ele>
        <time>2016-12-11T08:10:35.423Z</time>
      </trkpt>
      <trkpt lat="48.0475" lon="2.7631">
        <ele>113</ele>
        <time>2016-12-11T08:10:36.424Z</time>
      </trkpt>
      <trkpt lat="48.0475" lon="2.7631">
        <ele>113</ele>
        <time>2016-12-11T08:10:37.420Z</time>
      </trkpt>
      <trkpt lat="48.0476" lon="2.76318">
        <ele>113</ele>
        <time>2016-12-11T08:10:38.416Z</time>
      </trkpt>
      <trkpt lat="48.04763" lon="2.76322">
        <ele>113</ele>
        <time>2016-12-11T08:10:39.417Z</time>
      </trkpt>
      <trkpt lat="48.04763" lon="2.76322">
        <ele>113</ele>
        <time>2016-12-11T08:10:40.415Z</time>
      </trkpt>
      <trkpt lat="48.04773" lon="2.76332">
        <ele>114</ele>
        <time>2016-12-11T08:10:41.411Z</time>
      </trkpt>
      <trkpt lat="48.04773" lon="2.76332">
        <ele>114</ele>
        <time>2016-12-11T08:10:42.407Z</time>
      </trkpt>
      <trkpt lat="48.04782" lon="2.76343">
        <ele>114</ele>
        <time>2016-12-11T08:10:43.408Z</time>
      </trkpt>
      <trkpt lat="48.04788" lon="2.76348">
        <ele>114</ele>
        <time>2016-12-11T08:10:44.426Z</time>
      </trkpt>
      <trkpt lat="48.04788" lon="2.76348">
        <ele>114</ele>
        <time>2016-12-11T08:10:45.396Z</time>
      </trkpt>
      <trkpt lat="48.04799" lon="2.76355">
        <ele>114</ele>
        <time>2016-12-11T08:10:46.396Z</time>
      </trkpt>
      <trkpt lat="48.04799" lon="2.76355">
        <ele>114</ele>
        <time>2016-12-11T08:10:47.396Z</time>
      </trkpt>
      <trkpt lat="48.04809" lon="2.76361">
        <ele>114</ele>
        <time>2016-12-11T08:10:48.417Z</time>
      </trkpt>
      <trkpt lat="48.04813" lon="2.76365">
        <ele>114</ele>
        <time>2016-12-11T08:10:49.416Z</time>
      </trkpt>
      <trkpt lat="48.04813" lon="2.76365">
        <ele>114</ele>
        <time>2016-12-11T08:10:50.412Z</time>
      </trkpt>
      <trkpt lat="48.04823" lon="2.76374">
        <ele>114</ele>
        <time>2016-12-11T08:10:51.411Z</time>
      </trkpt>
      <trkpt lat="48.04823" lon="2.76374">
        <ele>114</ele>
        <time>2016-12-11T08:10:52.422Z</time>
      </trkpt>
      <trkpt lat="48.04832" lon="2.76382">
        <ele>114</ele>
        <time>2016-12-11T08:10:53.420Z</time>
      </trkpt>
      <trkpt lat="48.04836" lon="2.76387">
        <ele>114</ele>
        <time>2016-12-11T08:10:54.430Z</time>
      </trkpt>
      <trkpt lat="48.04836" lon="2.76387">
        <ele>114</ele>
        <time>2016-12-11T08:10:55.404Z</time>
      </trkpt>
      <trkpt lat="48.04845" lon="2.76396">
        <ele>114</ele>
        <time>2016-12-11T08:10:56.399Z</time>
      </trkpt>
      <trkpt lat="48.04845" lon="2.76396">
        <ele>114</ele>
        <time>2016-12-11T08:10:57.396Z</time>
      </trkpt>
      <trkpt lat="48.04852" lon="2.76403">
        <ele>115</ele>
        <time>2016-12-11T08:10:58.435Z</time>
      </trkpt>
      <trkpt lat="48.04858" lon="2.76407">
        <ele>115</ele>
        <time>2016-12-11T08:10:59.424Z</time>
      </trkpt>
      <trkpt lat="48.04858" lon="2.76407">
        <ele>115</ele>
        <time>2016-12-11T08:11:00.418Z</time>
      </trkpt>
      <trkpt lat="48.04868" lon="2.76414">
        <ele>115</ele>
        <time>2016-12-11T08:11:01.424Z</time>
      </trkpt>
      <trkpt lat="48.04873" lon="2.76417">
        <ele>115</ele>
        <time>2016-12-11T08:11:02.427Z</time>
      </trkpt>
      <trkpt lat="48.04873" lon="2.76417">
        <ele>115</ele>
        <time>2016-12-11T08:11:03.427Z</time>
      </trkpt>
      <trkpt lat="48.04883" lon="2.76422">
        <ele>115</ele>
        <time>2016-12-11T08:11:04.417Z</time>
      </trkpt>
      <trkpt lat="48.04883" lon="2.76422">
        <ele>115</ele>
        <time>2016-12-11T08:11:05.415Z</time>
      </trkpt>
      <trkpt lat="48.04891" lon="2.76429">
        <ele>116</ele>
        <time>2016-12-11T08:11:06.422Z</time>
      </trkpt>
      <trkpt lat="48.04891" lon="2.76429">
        <ele>116</ele>
        <time>2016-12-11T08:11:07.418Z</time>
      </trkpt>
      <trkpt lat="48.049" lon="2.76435">
        <ele>116</ele>
        <time>2016-12-11T08:11:08.416Z</time>
      </trkpt>
      <trkpt lat="48.04905" lon="2.76438">
        <ele>115</ele>
        <time>2016-12-11T08:11:09.417Z</time>
      </trkpt>
      <trkpt lat="48.04905" lon="2.76438">
        <ele>115</ele>
        <time>2016-12-11T08:11:10.427Z</time>
      </trkpt>
      <trkpt lat="48.04911" lon="2.7645">
        <ele>116</ele>
        <time>2016-12-11T08:11:11.419Z</time>
      </trkpt>
      <trkpt lat="48.04911" lon="2.76457">
        <ele>116</ele>
        <time>2016-12-11T08:11:12.423Z</time>
      </trkpt>
      <trkpt lat="48.04911" lon="2.76457">
        <ele>116</ele>
        <time>2016-12-11T08:11:13.420Z</time>
      </trkpt>
      <trkpt lat="48.04909" lon="2.7647">
        <ele>116</ele>
        <time>2016-12-11T08:11:14.423Z</time>
      </trkpt>
      <trkpt lat="48.04908" lon="2.76476">
        <ele>116</ele>
        <time>2016-12-11T08:11:15.424Z</time>
      </trkpt>
      <trkpt lat="48.04908" lon="2.76476">
        <ele>116</ele>
        <time>2016-12-11T08:11:16.423Z</time>
      </trkpt>
      <trkpt lat="48.04903" lon="2.76489">
        <ele>116</ele>
        <time>2016-12-11T08:11:17.414Z</time>
      </trkpt>
      <trkpt lat="48.04902" lon="2.76495">
        <ele>117</ele>
        <time>2016-12-11T08:11:18.425Z</time>
      </trkpt>
      <trkpt lat="48.04902" lon="2.76495">
        <ele>117</ele>
        <time>2016-12-11T08:11:19.422Z</time>
      </trkpt>
      <trkpt lat="48.04898" lon="2.76506">
        <ele>117</ele>
        <time>2016-12-11T08:11:20.418Z</time>
      </trkpt>
      <trkpt lat="48.04898" lon="2.76506">
        <ele>117</ele>
        <time>2016-12-11T08:11:21.408Z</time>
      </trkpt>
      <trkpt lat="48.04894" lon="2.76518">
        <ele>117</ele>
        <time>2016-12-11T08:11:22.412Z</time>
      </trkpt>
      <trkpt lat="48.04894" lon="2.76518">
        <ele>117</ele>
        <time>2016-12-11T08:11:23.410Z</time>
      </trkpt>
      <trkpt lat="48.04892" lon="2.76527">
        <ele>118</ele>
        <time>2016-12-11T08:11:24.411Z</time>
      </trkpt>
      <trkpt lat="48.04892" lon="2.76527">
        <ele>118</ele>
        <time>2016-12-11T08:11:25.410Z</time>
      </trkpt>
      <trkpt lat="48.04894" lon="2.76535">
        <ele>118</ele>
        <time>2016-12-11T08:11:26.424Z</time>
      </trkpt>
      <trkpt lat="48.04895" lon="2.76537">
        <ele>119</ele>
        <time>2016-12-11T08:11:27.425Z</time>
      </trkpt>
      <trkpt lat="48.04895" lon="2.76537">
        <ele>119</ele>
        <time>2016-12-11T08:11:28.421Z</time>
      </trkpt>
      <trkpt lat="48.04898" lon="2.7654">
        <ele>119</ele>
        <time>2016-12-11T08:11:29.416Z</time>
      </trkpt>
      <trkpt lat="48.04899" lon="2.76543">
        <ele>120</ele>
        <time>2016-12-11T08:11:30.417Z</time>
      </trkpt>
      <trkpt lat="48.04899" lon="2.76543">
        <ele>120</ele>
        <time>2016-12-11T08:11:31.412Z</time>
      </trkpt>
      <trkpt lat="48.04906" lon="2.76548">
        <ele>120</ele>
        <time>2016-12-11T08:11:32.411Z</time>
      </trkpt>
      <trkpt lat="48.04906" lon="2.76548">
        <ele>120</ele>
        <time>2016-12-11T08:11:33.409Z</time>
      </trkpt>
      <trkpt lat="48.04914" lon="2.76553">
        <ele>121</ele>
        <time>2016-12-11T08:11:34.399Z</time>
      </trkpt>
      <trkpt lat="48.04918" lon="2.76556">
        <ele>121</ele>
        <time>2016-12-11T08:11:35.425Z</time>
      </trkpt>
      <trkpt lat="48.04918" lon="2.76556">
        <ele>121</ele>
        <time>2016-12-11T08:11:36.422Z</time>
      </trkpt>
      <trkpt lat="48.04926" lon="2.76563">
        <ele>122</ele>
        <time>2016-12-11T08:11:37.417Z</time>
      </trkpt>
      <trkpt lat="48.0493" lon="2.76566">
        <ele>122</ele>
        <time>2016-12-11T08:11:38.419Z</time>
      </trkpt>
      <trkpt lat="48.0493" lon="2.76566">
        <ele>122</ele>
        <time>2016-12-11T08:11:39.416Z</time>
      </trkpt>
      <trkpt lat="48.04938" lon="2.76571">
        <ele>122</ele>
        <time>2016-12-11T08:11:40.399Z</time>
      </trkpt>
      <trkpt lat="48.04938" lon="2.76571">
        <ele>122</ele>
        <time>2016-12-11T08:11:41.413Z</time>
      </trkpt>
      <trkpt lat="48.04943" lon="2.76577">
        <ele>123</ele>
        <time>2016-12-11T08:11:42.425Z</time>
      </trkpt>
      <trkpt lat="48.04943" lon="2.76577">
        <ele>123</ele>
        <time>2016-12-11T08:11:43.400Z</time>
      </trkpt>
      <trkpt lat="48.0495" lon="2.76583">
        <ele>123</ele>
        <time>2016-12-11T08:11:44.427Z</time>
      </trkpt>
      <trkpt lat="48.0495" lon="2.76583">
        <ele>123</ele>
        <time>2016-12-11T08:11:45.418Z</time>
      </trkpt>
      <trkpt lat="48.04959" lon="2.76589">
        <ele>123</ele>
        <time>2016-12-11T08:11:46.416Z</time>
      </trkpt>
      <trkpt lat="48.04959" lon="2.76589">
        <ele>123</ele>
        <time>2016-12-11T08:11:47.417Z</time>
      </trkpt>
      <trkpt lat="48.04969" lon="2.76598">
        <ele>123</ele>
        <time>2016-12-11T08:11:48.417Z</time>
      </trkpt>
      <trkpt lat="48.04969" lon="2.76598">
        <ele>123</ele>
        <time>2016-12-11T08:11:49.419Z</time>
      </trkpt>
      <trkpt lat="48.04978" lon="2.76605">
        <ele>124</ele>
        <time>2016-12-11T08:11:50.418Z</time>
      </trkpt>
      <trkpt lat="48.04978" lon="2.76605">
        <ele>124</ele>
        <time>2016-12-11T08:11:51.416Z</time>
      </trkpt>
      <trkpt lat="48.04988" lon="2.7661">
        <ele>124</ele>
        <time>2016-12-11T08:11:52.426Z</time>
      </trkpt>
      <trkpt lat="48.04992" lon="2.76614">
        <ele>124</ele>
        <time>2016-12-11T08:11:53.427Z</time>
      </trkpt>
      <trkpt lat="48.04992" lon="2.76614">
        <ele>124</ele>
        <time>2016-12-11T08:11:54.412Z</time>
      </trkpt>
      <trkpt lat="48.05" lon="2.76621">
        <ele>124</ele>
        <time>2016-12-11T08:11:55.400Z</time>
      </trkpt>
      <trkpt lat="48.05" lon="2.76621">
        <ele>124</ele>
        <time>2016-12-11T08:11:56.398Z</time>
      </trkpt>
      <trkpt lat="48.05008" lon="2.76626">
        <ele>124</ele>
        <time>2016-12-11T08:11:57.396Z</time>
      </trkpt>
      <trkpt lat="48.05012" lon="2.76628">
        <ele>124</ele>
        <time>2016-12-11T08:11:58.396Z</time>
      </trkpt>
      <trkpt lat="48.05012" lon="2.76628">
        <ele>124</ele>
        <time>2016-12-11T08:11:59.428Z</time>
      </trkpt>
      <trkpt lat="48.0502" lon="2.76633">
        <ele>125</ele>
        <time>2016-12-11T08:12:00.398Z</time>
      </trkpt>
      <trkpt lat="48.0502" lon="2.76633">
        <ele>125</ele>
        <time>2016-12-11T08:12:01.396Z</time>
      </trkpt>
      <trkpt lat="48.05028" lon="2.76638">
        <ele>125</ele>
        <time>2016-12-11T08:12:02.396Z</time>
      </trkpt>
      <trkpt lat="48.05032" lon="2.76641">
        <ele>125</ele>
        <time>2016-12-11T08:12:03.429Z</time>
      </trkpt>
      <trkpt lat="48.05032" lon="2.76641">
        <ele>125</ele>
        <time>2016-12-11T08:12:04.425Z</time>
      </trkpt>
      <trkpt lat="48.05038" lon="2.76645">
        <ele>125</ele>
        <time>2016-12-11T08:12:05.428Z</time>
      </trkpt>
      <trkpt lat="48.05041" lon="2.76647">
        <ele>125</ele>
        <time>2016-12-11T08:12:06.425Z</time>
      </trkpt>
      <trkpt lat="48.05041" lon="2.76647">
        <ele>125</ele>
        <time>2016-12-11T08:12:07.433Z</time>
      </trkpt>
      <trkpt lat="48.05046" lon="2.76656">
        <ele>125</ele>
        <time>2016-12-11T08:12:08.414Z</time>
      </trkpt>
      <trkpt lat="48.05046" lon="2.76656">
        <ele>125</ele>
        <time>2016-12-11T08:12:09.411Z</time>
      </trkpt>
      <trkpt lat="48.05047" lon="2.76665">
        <ele>124</ele>
        <time>2016-12-11T08:12:10.424Z</time>
      </trkpt>
      <trkpt lat="48.05047" lon="2.76665">
        <ele>124</ele>
        <time>2016-12-11T08:12:11.421Z</time>
      </trkpt>
      <trkpt lat="48.05045" lon="2.76673">
        <ele>124</ele>
        <time>2016-12-11T08:12:12.425Z</time>
      </trkpt>
      <trkpt lat="48.05045" lon="2.76673">
        <ele>124</ele>
        <time>2016-12-11T08:12:13.429Z</time>
      </trkpt>
      <trkpt lat="48.05043" lon="2.76682">
        <ele>124</ele>
        <time>2016-12-11T08:12:14.410Z</time>
      </trkpt>
      <trkpt lat="48.05043" lon="2.76682">
        <ele>124</ele>
        <time>2016-12-11T08:12:15.411Z</time>
      </trkpt>
      <trkpt lat="48.05039" lon="2.76692">
        <ele>124</ele>
        <time>2016-12-11T08:12:16.417Z</time>
      </trkpt>
      <trkpt lat="48.05039" lon="2.76692">
        <ele>124</ele>
        <time>2016-12-11T08:12:17.425Z</time>
      </trkpt>
      <trkpt lat="48.05036" lon="2.76703">
        <ele>124</ele>
        <time>2016-12-11T08:12:18.424Z</time>
      </trkpt>
      <trkpt lat="48.05036" lon="2.76703">
        <ele>124</ele>
        <time>2016-12-11T08:12:19.430Z</time>
      </trkpt>
      <trkpt lat="48.05033" lon="2.76713">
        <ele>124</ele>
        <time>2016-12-11T08:12:20.432Z</time>
      </trkpt>
      <trkpt lat="48.05033" lon="2.76713">
        <ele>124</ele>
        <time>2016-12-11T08:12:21.429Z</time>
      </trkpt>
      <trkpt lat="48.0503" lon="2.76721">
        <ele>125</ele>
        <time>2016-12-11T08:12:22.429Z</time>
      </trkpt>
      <trkpt lat="48.0503" lon="2.76721">
        <ele>125</ele>
        <time>2016-12-11T08:12:23.427Z</time>
      </trkpt>
      <trkpt lat="48.05028" lon="2.7673">
        <ele>125</ele>
        <time>2016-12-11T08:12:24.423Z</time>
      </trkpt>
      <trkpt lat="48.05028" lon="2.7673">
        <ele>125</ele>
        <time>2016-12-11T08:12:25.425Z</time>
      </trkpt>
      <trkpt lat="48.05025" lon="2.76739">
        <ele>125</ele>
        <time>2016-12-11T08:12:26.426Z</time>
      </trkpt>
      <trkpt lat="48.05025" lon="2.76739">
        <ele>125</ele>
        <time>2016-12-11T08:12:27.424Z</time>
      </trkpt>
      <trkpt lat="48.05022" lon="2.7675">
        <ele>125</ele>
        <time>2016-12-11T08:12:28.425Z</time>
      </trkpt>
      <trkpt lat="48.05022" lon="2.7675">
        <ele>125</ele>
        <time>2016-12-11T08:12:29.421Z</time>
      </trkpt>
      <trkpt lat="48.0502" lon="2.7676">
        <ele>125</ele>
        <time>2016-12-11T08:12:30.424Z</time>
      </trkpt>
      <trkpt lat="48.0502" lon="2.7676">
        <ele>125</ele>
        <time>2016-12-11T08:12:31.422Z</time>
      </trkpt>
      <trkpt lat="48.05016" lon="2.76772">
        <ele>125</ele>
        <time>2016-12-11T08:12:32.426Z</time>
      </trkpt>
      <trkpt lat="48.05016" lon="2.76772">
        <ele>125</ele>
        <time>2016-12-11T08:12:33.424Z</time>
      </trkpt>
      <trkpt lat="48.05012" lon="2.76782">
        <ele>125</ele>
        <time>2016-12-11T08:12:34.424Z</time>
      </trkpt>
      <trkpt lat="48.05012" lon="2.76782">
        <ele>125</ele>
        <time>2016-12-11T08:12:35.428Z</time>
      </trkpt>
      <trkpt lat="48.05008" lon="2.76792">
        <ele>126</ele>
        <time>2016-12-11T08:12:36.429Z</time>
      </trkpt>
      <trkpt lat="48.05008" lon="2.76792">
        <ele>126</ele>
        <time>2016-12-11T08:12:37.430Z</time>
      </trkpt>
      <trkpt lat="48.05004" lon="2.76805">
        <ele>126</ele>
        <time>2016-12-11T08:12:38.430Z</time>
      </trkpt>
      <trkpt lat="48.05004" lon="2.76805">
        <ele>126</ele>
        <time>2016-12-11T08:12:39.427Z</time>
      </trkpt>
      <trkpt lat="48.04999" lon="2.76818">
        <ele>126</ele>
        <time>2016-12-11T08:12:40.425Z</time>
      </trkpt>
      <trkpt lat="48.04999" lon="2.76818">
        <ele>126</ele>
        <time>2016-12-11T08:12:41.422Z</time>
      </trkpt>
      <trkpt lat="48.04994" lon="2.76831">
        <ele>126</ele>
        <time>2016-12-11T08:12:42.425Z</time>
      </trkpt>
      <trkpt lat="48.04994" lon="2.76831">
        <ele>126</ele>
        <time>2016-12-11T08:12:43.424Z</time>
      </trkpt>
      <trkpt lat="48.04989" lon="2.76843">
        <ele>127</ele>
        <time>2016-12-11T08:12:44.396Z</time>
      </trkpt>
      <trkpt lat="48.04989" lon="2.76843">
        <ele>127</ele>
        <time>2016-12-11T08:12:45.410Z</time>
      </trkpt>
      <trkpt lat="48.04985" lon="2.76857">
        <ele>127</ele>
        <time>2016-12-11T08:12:46.422Z</time>
      </trkpt>
      <trkpt lat="48.04983" lon="2.76863">
        <ele>127</ele>
        <time>2016-12-11T08:12:47.425Z</time>
      </trkpt>
      <trkpt lat="48.04983" lon="2.76863">
        <ele>127</ele>
        <time>2016-12-11T08:12:48.424Z</time>
      </trkpt>
      <trkpt lat="48.04979" lon="2.76874">
        <ele>127</ele>
        <time>2016-12-11T08:12:49.425Z</time>
      </trkpt>
      <trkpt lat="48.04977" lon="2.7688">
        <ele>128</ele>
        <time>2016-12-11T08:12:50.426Z</time>
      </trkpt>
      <trkpt lat="48.04977" lon="2.7688">
        <ele>128</ele>
        <time>2016-12-11T08:12:51.404Z</time>
      </trkpt>
      <trkpt lat="48.04972" lon="2.76892">
        <ele>128</ele>
        <time>2016-12-11T08:12:52.417Z</time>
      </trkpt>
      <trkpt lat="48.04972" lon="2.76892">
        <ele>128</ele>
        <time>2016-12-11T08:12:53.416Z</time>
      </trkpt>
      <trkpt lat="48.04967" lon="2.76903">
        <ele>128</ele>
        <time>2016-12-11T08:12:54.424Z</time>
      </trkpt>
      <trkpt lat="48.04967" lon="2.76903">
        <ele>128</ele>
        <time>2016-12-11T08:12:55.426Z</time>
      </trkpt>
      <trkpt lat="48.04963" lon="2.76914">
        <ele>128</ele>
        <time>2016-12-11T08:12:56.427Z</time>
      </trkpt>
      <trkpt lat="48.04961" lon="2.76919">
        <ele>128</ele>
        <time>2016-12-11T08:12:57.425Z</time>
      </trkpt>
      <trkpt lat="48.04961" lon="2.76919">
        <ele>128</ele>
        <time>2016-12-11T08:12:58.422Z</time>
      </trkpt>
      <trkpt lat="48.04958" lon="2.76931">
        <ele>129</ele>
        <time>2016-12-11T08:12:59.424Z</time>
      </trkpt>
      <trkpt lat="48.04958" lon="2.76931">
        <ele>129</ele>
        <time>2016-12-11T08:13:00.422Z</time>
      </trkpt>
      <trkpt lat="48.04954" lon="2.76942">
        <ele>129</ele>
        <time>2016-12-11T08:13:01.419Z</time>
      </trkpt>
      <trkpt lat="48.04952" lon="2.76947">
        <ele>129</ele>
        <time>2016-12-11T08:13:02.426Z</time>
      </trkpt>
      <trkpt lat="48.04952" lon="2.76947">
        <ele>129</ele>
        <time>2016-12-11T08:13:03.404Z</time>
      </trkpt>
      <trkpt lat="48.04949" lon="2.76957">
        <ele>129</ele>
        <time>2016-12-11T08:13:04.425Z</time>
      </trkpt>
      <trkpt lat="48.04949" lon="2.76957">
        <ele>129</ele>
        <time>2016-12-11T08:13:05.421Z</time>
      </trkpt>
      <trkpt lat="48.04945" lon="2.76968">
        <ele>129</ele>
        <time>2016-12-11T08:13:06.426Z</time>
      </trkpt>
      <trkpt lat="48.04945" lon="2.76968">
        <ele>129</ele>
        <time>2016-12-11T08:13:07.423Z</time>
      </trkpt>
      <trkpt lat="48.04941" lon="2.76979">
        <ele>130</ele>
        <time>2016-12-11T08:13:08.418Z</time>
      </trkpt>
      <trkpt lat="48.04941" lon="2.76979">
        <ele>130</ele>
        <time>2016-12-11T08:13:09.415Z</time>
      </trkpt>
      <trkpt lat="48.04937" lon="2.76989">
        <ele>130</ele>
        <time>2016-12-11T08:13:10.419Z</time>
      </trkpt>
      <trkpt lat="48.04937" lon="2.76989">
        <ele>130</ele>
        <time>2016-12-11T08:13:11.416Z</time>
      </trkpt>
      <trkpt lat="48.04934" lon="2.76999">
        <ele>130</ele>
        <time>2016-12-11T08:13:12.425Z</time>
      </trkpt>
      <trkpt lat="48.04934" lon="2.76999">
        <ele>130</ele>
        <time>2016-12-11T08:13:13.424Z</time>
      </trkpt>
      <trkpt lat="48.0493" lon="2.77009">
        <ele>130</ele>
        <time>2016-12-11T08:13:14.424Z</time>
      </trkpt>
      <trkpt lat="48.0493" lon="2.77009">
        <ele>130</ele>
        <time>2016-12-11T08:13:15.421Z</time>
      </trkpt>
      <trkpt lat="48.04926" lon="2.77018">
        <ele>131</ele>
        <time>2016-12-11T08:13:16.424Z</time>
      </trkpt>
      <trkpt lat="48.04925" lon="2.77022">
        <ele>131</ele>
        <time>2016-12-11T08:13:17.408Z</time>
      </trkpt>
      <trkpt lat="48.04922" lon="2.77027">
        <ele>131</ele>
        <time>2016-12-11T08:13:18.399Z</time>
      </trkpt>
      <trkpt lat="48.04922" lon="2.77027">
        <ele>131</ele>
        <time>2016-12-11T08:13:19.402Z</time>
      </trkpt>
      <trkpt lat="48.04919" lon="2.77037">
        <ele>131</ele>
        <time>2016-12-11T08:13:20.400Z</time>
      </trkpt>
      <trkpt lat="48.04918" lon="2.77041">
        <ele>131</ele>
        <time>2016-12-11T08:13:21.398Z</time>
      </trkpt>
      <trkpt lat="48.04918" lon="2.77041">
        <ele>131</ele>
        <time>2016-12-11T08:13:22.403Z</time>
      </trkpt>
      <trkpt lat="48.04915" lon="2.77051">
        <ele>131</ele>
        <time>2016-12-11T08:13:23.429Z</time>
      </trkpt>
      <trkpt lat="48.04914" lon="2.77055">
        <ele>131</ele>
        <time>2016-12-11T08:13:24.424Z</time>
      </trkpt>
      <trkpt lat="48.04914" lon="2.77055">
        <ele>131</ele>
        <time>2016-12-11T08:13:25.423Z</time>
      </trkpt>
      <trkpt lat="48.04911" lon="2.77063">
        <ele>132</ele>
        <time>2016-12-11T08:13:26.425Z</time>
      </trkpt>
      <trkpt lat="48.04911" lon="2.77063">
        <ele>132</ele>
        <time>2016-12-11T08:13:27.422Z</time>
      </trkpt>
      <trkpt lat="48.04909" lon="2.7707">
        <ele>132</ele>
        <time>2016-12-11T08:13:28.426Z</time>
      </trkpt>
      <trkpt lat="48.04909" lon="2.7707">
        <ele>132</ele>
        <time>2016-12-11T08:13:29.425Z</time>
      </trkpt>
      <trkpt lat="48.0491" lon="2.77076">
        <ele>132</ele>
        <time>2016-12-11T08:13:30.423Z</time>
      </trkpt>
      <trkpt lat="48.0491" lon="2.77076">
        <ele>132</ele>
        <time>2016-12-11T08:13:31.412Z</time>
      </trkpt>
      <trkpt lat="48.04914" lon="2.77081">
        <ele>132</ele>
        <time>2016-12-11T08:13:32.426Z</time>
      </trkpt>
      <trkpt lat="48.04914" lon="2.77081">
        <ele>132</ele>
        <time>2016-12-11T08:13:33.424Z</time>
      </trkpt>
      <trkpt lat="48.04921" lon="2.77087">
        <ele>132</ele>
        <time>2016-12-11T08:13:34.425Z</time>
      </trkpt>
      <trkpt lat="48.04921" lon="2.77087">
        <ele>132</ele>
        <time>2016-12-11T08:13:35.424Z</time>
      </trkpt>
      <trkpt lat="48.04929" lon="2.77093">
        <ele>132</ele>
        <time>2016-12-11T08:13:36.425Z</time>
      </trkpt>
      <trkpt lat="48.04929" lon="2.77093">
        <ele>132</ele>
        <time>2016-12-11T08:13:37.423Z</time>
      </trkpt>
      <trkpt lat="48.04936" lon="2.77098">
        <ele>132</ele>
        <time>2016-12-11T08:13:38.425Z</time>
      </trkpt>
      <trkpt lat="48.04936" lon="2.77098">
        <ele>132</ele>
        <time>2016-12-11T08:13:39.422Z</time>
      </trkpt>
      <trkpt lat="48.04942" lon="2.77103">
        <ele>132</ele>
        <time>2016-12-11T08:13:40.427Z</time>
      </trkpt>
      <trkpt lat="48.04945" lon="2.77106">
        <ele>132</ele>
        <time>2016-12-11T08:13:41.425Z</time>
      </trkpt>
      <trkpt lat="48.04945" lon="2.77106">
        <ele>132</ele>
        <time>2016-12-11T08:13:42.428Z</time>
      </trkpt>
      <trkpt lat="48.04953" lon="2.7711">
        <ele>131</ele>
        <time>2016-12-11T08:13:43.420Z</time>
      </trkpt>
      <trkpt lat="48.04955" lon="2.77113">
        <ele>132</ele>
        <time>2016-12-11T08:13:44.421Z</time>
      </trkpt>
      <trkpt lat="48.04955" lon="2.77113">
        <ele>132</ele>
        <time>2016-12-11T08:13:45.427Z</time>
      </trkpt>
      <trkpt lat="48.0496" lon="2.77118">
        <ele>132</ele>
        <time>2016-12-11T08:13:46.427Z</time>
      </trkpt>
      <trkpt lat="48.0496" lon="2.77118">
        <ele>132</ele>
        <time>2016-12-11T08:13:47.424Z</time>
      </trkpt>
      <trkpt lat="48.04965" lon="2.77123">
        <ele>131</ele>
        <time>2016-12-11T08:13:48.425Z</time>
      </trkpt>
      <trkpt lat="48.04965" lon="2.77123">
        <ele>131</ele>
        <time>2016-12-11T08:13:49.425Z</time>
      </trkpt>
      <trkpt lat="48.04973" lon="2.77129">
        <ele>130</ele>
        <time>2016-12-11T08:13:50.428Z</time>
      </trkpt>
      <trkpt lat="48.04973" lon="2.77129">
        <ele>130</ele>
        <time>2016-12-11T08:13:51.425Z</time>
      </trkpt>
      <trkpt lat="48.04979" lon="2.77137">
        <ele>128</ele>
        <time>2016-12-11T08:13:52.426Z</time>
      </trkpt>
      <trkpt lat="48.04979" lon="2.77137">
        <ele>128</ele>
        <time>2016-12-11T08:13:53.425Z</time>
      </trkpt>
      <trkpt lat="48.04986" lon="2.77145">
        <ele>127</ele>
        <time>2016-12-11T08:13:54.424Z</time>
      </trkpt>
      <trkpt lat="48.04986" lon="2.77145">
        <ele>127</ele>
        <time>2016-12-11T08:13:55.422Z</time>
      </trkpt>
      <trkpt lat="48.0499" lon="2.77156">
        <ele>127</ele>
        <time>2016-12-11T08:13:56.423Z</time>
      </trkpt>
      <trkpt lat="48.0499" lon="2.77156">
        <ele>127</ele>
        <time>2016-12-11T08:13:57.406Z</time>
      </trkpt>
      <trkpt lat="48.04995" lon="2.77166">
        <ele>126</ele>
        <time>2016-12-11T08:13:58.424Z</time>
      </trkpt>
      <trkpt lat="48.04999" lon="2.77171">
        <ele>125</ele>
        <time>2016-12-11T08:13:59.426Z</time>
      </trkpt>
      <trkpt lat="48.05002" lon="2.77176">
        <ele>125</ele>
        <time>2016-12-11T08:14:00.424Z</time>
      </trkpt>
      <trkpt lat="48.05002" lon="2.77176">
        <ele>125</ele>
        <time>2016-12-11T08:14:01.417Z</time>
      </trkpt>
      <trkpt lat="48.05009" lon="2.77188">
        <ele>124</ele>
        <time>2016-12-11T08:14:02.415Z</time>
      </trkpt>
      <trkpt lat="48.05009" lon="2.77188">
        <ele>124</ele>
        <time>2016-12-11T08:14:03.414Z</time>
      </trkpt>
      <trkpt lat="48.05016" lon="2.772">
        <ele>124</ele>
        <time>2016-12-11T08:14:04.418Z</time>
      </trkpt>
      <trkpt lat="48.05019" lon="2.77207">
        <ele>123</ele>
        <time>2016-12-11T08:14:05.419Z</time>
      </trkpt>
      <trkpt lat="48.05019" lon="2.77207">
        <ele>123</ele>
        <time>2016-12-11T08:14:06.425Z</time>
      </trkpt>
      <trkpt lat="48.05025" lon="2.77221">
        <ele>123</ele>
        <time>2016-12-11T08:14:07.416Z</time>
      </trkpt>
      <trkpt lat="48.05028" lon="2.77227">
        <ele>123</ele>
        <time>2016-12-11T08:14:08.424Z</time>
      </trkpt>
      <trkpt lat="48.05028" lon="2.77227">
        <ele>123</ele>
        <time>2016-12-11T08:14:09.421Z</time>
      </trkpt>
      <trkpt lat="48.05035" lon="2.77241">
        <ele>122</ele>
        <time>2016-12-11T08:14:10.416Z</time>
      </trkpt>
      <trkpt lat="48.05035" lon="2.77241">
        <ele>122</ele>
        <time>2016-12-11T08:14:11.403Z</time>
      </trkpt>
      <trkpt lat="48.05042" lon="2.77254">
        <ele>122</ele>
        <time>2016-12-11T08:14:12.425Z</time>
      </trkpt>
      <trkpt lat="48.05042" lon="2.77254">
        <ele>122</ele>
        <time>2016-12-11T08:14:13.424Z</time>
      </trkpt>
      <trkpt lat="48.05049" lon="2.77269">
        <ele>122</ele>
        <time>2016-12-11T08:14:14.412Z</time>
      </trkpt>
      <trkpt lat="48.05049" lon="2.77269">
        <ele>122</ele>
        <time>2016-12-11T08:14:15.409Z</time>
      </trkpt>
      <trkpt lat="48.05057" lon="2.77282">
        <ele>121</ele>
        <time>2016-12-11T08:14:16.417Z</time>
      </trkpt>
      <trkpt lat="48.0506" lon="2.77289">
        <ele>121</ele>
        <time>2016-12-11T08:14:17.424Z</time>
      </trkpt>
      <trkpt lat="48.05063" lon="2.77296">
        <ele>121</ele>
        <time>2016-12-11T08:14:18.399Z</time>
      </trkpt>
      <trkpt lat="48.05063" lon="2.77296">
        <ele>121</ele>
        <time>2016-12-11T08:14:19.407Z</time>
      </trkpt>
      <trkpt lat="48.05071" lon="2.7731">
        <ele>120</ele>
        <time>2016-12-11T08:14:20.419Z</time>
      </trkpt>
      <trkpt lat="48.05071" lon="2.7731">
        <ele>120</ele>
        <time>2016-12-11T08:14:21.417Z</time>
      </trkpt>
      <trkpt lat="48.05077" lon="2.77325">
        <ele>120</ele>
        <time>2016-12-11T08:14:22.426Z</time>
      </trkpt>
      <trkpt lat="48.05077" lon="2.77325">
        <ele>120</ele>
        <time>2016-12-11T08:14:23.423Z</time>
      </trkpt>
      <trkpt lat="48.05084" lon="2.77339">
        <ele>119</ele>
        <time>2016-12-11T08:14:24.418Z</time>
      </trkpt>
      <trkpt lat="48.05084" lon="2.77339">
        <ele>119</ele>
        <time>2016-12-11T08:14:25.398Z</time>
      </trkpt>
      <trkpt lat="48.05092" lon="2.77352">
        <ele>119</ele>
        <time>2016-12-11T08:14:26.408Z</time>
      </trkpt>
      <trkpt lat="48.05095" lon="2.77359">
        <ele>118</ele>
        <time>2016-12-11T08:14:27.425Z</time>
      </trkpt>
      <trkpt lat="48.05095" lon="2.77359">
        <ele>118</ele>
        <time>2016-12-11T08:14:28.423Z</time>
      </trkpt>
      <trkpt lat="48.05103" lon="2.77373">
        <ele>118</ele>
        <time>2016-12-11T08:14:29.430Z</time>
      </trkpt>
      <trkpt lat="48.05107" lon="2.7738">
        <ele>117</ele>
        <time>2016-12-11T08:14:30.429Z</time>
      </trkpt>
      <trkpt lat="48.05107" lon="2.7738">
        <ele>117</ele>
        <time>2016-12-11T08:14:31.429Z</time>
      </trkpt>
      <trkpt lat="48.05114" lon="2.77394">
        <ele>117</ele>
        <time>2016-12-11T08:14:32.429Z</time>
      </trkpt>
      <trkpt lat="48.05114" lon="2.77394">
        <ele>117</ele>
        <time>2016-12-11T08:14:33.426Z</time>
      </trkpt>
      <trkpt lat="48.0512" lon="2.77407">
        <ele>116</ele>
        <time>2016-12-11T08:14:34.418Z</time>
      </trkpt>
      <trkpt lat="48.05123" lon="2.77414">
        <ele>116</ele>
        <time>2016-12-11T08:14:35.421Z</time>
      </trkpt>
      <trkpt lat="48.05123" lon="2.77414">
        <ele>116</ele>
        <time>2016-12-11T08:14:36.396Z</time>
      </trkpt>
      <trkpt lat="48.0513" lon="2.77426">
        <ele>115</ele>
        <time>2016-12-11T08:14:37.421Z</time>
      </trkpt>
      <trkpt lat="48.05133" lon="2.77432">
        <ele>115</ele>
        <time>2016-12-11T08:14:38.425Z</time>
      </trkpt>
      <trkpt lat="48.05133" lon="2.77432">
        <ele>115</ele>
        <time>2016-12-11T08:14:39.423Z</time>
      </trkpt>
      <trkpt lat="48.05139" lon="2.77441">
        <ele>114</ele>
        <time>2016-12-11T08:14:40.417Z</time>
      </trkpt>
      <trkpt lat="48.05139" lon="2.77441">
        <ele>114</ele>
        <time>2016-12-11T08:14:41.416Z</time>
      </trkpt>
      <trkpt lat="48.05146" lon="2.77443">
        <ele>114</ele>
        <time>2016-12-11T08:14:42.400Z</time>
      </trkpt>
      <trkpt lat="48.05146" lon="2.77443">
        <ele>114</ele>
        <time>2016-12-11T08:14:43.410Z</time>
      </trkpt>
      <trkpt lat="48.05154" lon="2.77441">
        <ele>113</ele>
        <time>2016-12-11T08:14:44.432Z</time>
      </trkpt>
      <trkpt lat="48.05154" lon="2.77441">
        <ele>113</ele>
        <time>2016-12-11T08:14:45.429Z</time>
      </trkpt>
      <trkpt lat="48.05161" lon="2.77442">
        <ele>113</ele>
        <time>2016-12-11T08:14:46.431Z</time>
      </trkpt>
      <trkpt lat="48.05165" lon="2.77443">
        <ele>113</ele>
        <time>2016-12-11T08:14:47.426Z</time>
      </trkpt>
      <trkpt lat="48.0517" lon="2.77444">
        <ele>113</ele>
        <time>2016-12-11T08:14:48.424Z</time>
      </trkpt>
      <trkpt lat="48.05175" lon="2.77445">
        <ele>113</ele>
        <time>2016-12-11T08:14:49.420Z</time>
      </trkpt>
      <trkpt lat="48.05175" lon="2.77445">
        <ele>113</ele>
        <time>2016-12-11T08:14:50.419Z</time>
      </trkpt>
      <trkpt lat="48.05185" lon="2.77445">
        <ele>113</ele>
        <time>2016-12-11T08:14:51.423Z</time>
      </trkpt>
      <trkpt lat="48.05185" lon="2.77445">
        <ele>113</ele>
        <time>2016-12-11T08:14:52.423Z</time>
      </trkpt>
      <trkpt lat="48.05196" lon="2.77445">
        <ele>113</ele>
        <time>2016-12-11T08:14:53.422Z</time>
      </trkpt>
      <trkpt lat="48.05201" lon="2.77446">
        <ele>113</ele>
        <time>2016-12-11T08:14:54.429Z</time>
      </trkpt>
      <trkpt lat="48.05201" lon="2.77446">
        <ele>113</ele>
        <time>2016-12-11T08:14:55.425Z</time>
      </trkpt>
      <trkpt lat="48.0521" lon="2.77448">
        <ele>114</ele>
        <time>2016-12-11T08:14:56.424Z</time>
      </trkpt>
      <trkpt lat="48.0521" lon="2.77448">
        <ele>114</ele>
        <time>2016-12-11T08:14:57.426Z</time>
      </trkpt>
      <trkpt lat="48.05219" lon="2.7745">
        <ele>114</ele>
        <time>2016-12-11T08:14:58.424Z</time>
      </trkpt>
      <trkpt lat="48.05224" lon="2.7745">
        <ele>114</ele>
        <time>2016-12-11T08:14:59.418Z</time>
      </trkpt>
      <trkpt lat="48.05224" lon="2.7745">
        <ele>114</ele>
        <time>2016-12-11T08:15:00.417Z</time>
      </trkpt>
      <trkpt lat="48.05232" lon="2.7745">
        <ele>113</ele>
        <time>2016-12-11T08:15:01.416Z</time>
      </trkpt>
      <trkpt lat="48.05237" lon="2.77451">
        <ele>113</ele>
        <time>2016-12-11T08:15:02.424Z</time>
      </trkpt>
      <trkpt lat="48.05237" lon="2.77451">
        <ele>113</ele>
        <time>2016-12-11T08:15:03.421Z</time>
      </trkpt>
      <trkpt lat="48.05248" lon="2.77452">
        <ele>113</ele>
        <time>2016-12-11T08:15:04.416Z</time>
      </trkpt>
      <trkpt lat="48.05248" lon="2.77452">
        <ele>113</ele>
        <time>2016-12-11T08:15:05.425Z</time>
      </trkpt>
      <trkpt lat="48.05258" lon="2.77453">
        <ele>112</ele>
        <time>2016-12-11T08:15:06.424Z</time>
      </trkpt>
      <trkpt lat="48.05258" lon="2.77453">
        <ele>112</ele>
        <time>2016-12-11T08:15:07.425Z</time>
      </trkpt>
      <trkpt lat="48.05268" lon="2.77454">
        <ele>112</ele>
        <time>2016-12-11T08:15:08.427Z</time>
      </trkpt>
      <trkpt lat="48.05273" lon="2.77453">
        <ele>111</ele>
        <time>2016-12-11T08:15:09.397Z</time>
      </trkpt>
      <trkpt lat="48.05273" lon="2.77453">
        <ele>111</ele>
        <time>2016-12-11T08:15:10.404Z</time>
      </trkpt>
      <trkpt lat="48.05283" lon="2.77453">
        <ele>110</ele>
        <time>2016-12-11T08:15:11.399Z</time>
      </trkpt>
      <trkpt lat="48.05287" lon="2.77454">
        <ele>110</ele>
        <time>2016-12-11T08:15:12.410Z</time>
      </trkpt>
      <trkpt lat="48.05287" lon="2.77454">
        <ele>110</ele>
        <time>2016-12-11T08:15:13.411Z</time>
      </trkpt>
      <trkpt lat="48.05295" lon="2.77455">
        <ele>111</ele>
        <time>2016-12-11T08:15:14.417Z</time>
      </trkpt>
      <trkpt lat="48.05295" lon="2.77455">
        <ele>111</ele>
        <time>2016-12-11T08:15:15.416Z</time>
      </trkpt>
      <trkpt lat="48.05303" lon="2.77454">
        <ele>110</ele>
        <time>2016-12-11T08:15:16.420Z</time>
      </trkpt>
      <trkpt lat="48.05303" lon="2.77454">
        <ele>110</ele>
        <time>2016-12-11T08:15:17.414Z</time>
      </trkpt>
      <trkpt lat="48.05308" lon="2.77456">
        <ele>111</ele>
        <time>2016-12-11T08:15:18.418Z</time>
      </trkpt>
      <trkpt lat="48.05308" lon="2.77456">
        <ele>111</ele>
        <time>2016-12-11T08:15:19.425Z</time>
      </trkpt>
      <trkpt lat="48.05312" lon="2.77465">
        <ele>110</ele>
        <time>2016-12-11T08:15:20.426Z</time>
      </trkpt>
      <trkpt lat="48.05312" lon="2.77465">
        <ele>110</ele>
        <time>2016-12-11T08:15:21.421Z</time>
      </trkpt>
      <trkpt lat="48.05314" lon="2.77477">
        <ele>110</ele>
        <time>2016-12-11T08:15:22.424Z</time>
      </trkpt>
      <trkpt lat="48.05314" lon="2.77477">
        <ele>110</ele>
        <time>2016-12-11T08:15:23.423Z</time>
      </trkpt>
      <trkpt lat="48.05315" lon="2.77492">
        <ele>110</ele>
        <time>2016-12-11T08:15:24.418Z</time>
      </trkpt>
      <trkpt lat="48.05315" lon="2.77492">
        <ele>110</ele>
        <time>2016-12-11T08:15:25.432Z</time>
      </trkpt>
      <trkpt lat="48.05316" lon="2.77508">
        <ele>111</ele>
        <time>2016-12-11T08:15:26.429Z</time>
      </trkpt>
      <trkpt lat="48.05316" lon="2.77508">
        <ele>111</ele>
        <time>2016-12-11T08:15:27.427Z</time>
      </trkpt>
      <trkpt lat="48.05317" lon="2.77523">
        <ele>112</ele>
        <time>2016-12-11T08:15:28.427Z</time>
      </trkpt>
      <trkpt lat="48.05318" lon="2.77531">
        <ele>112</ele>
        <time>2016-12-11T08:15:29.426Z</time>
      </trkpt>
      <trkpt lat="48.05318" lon="2.77531">
        <ele>112</ele>
        <time>2016-12-11T08:15:30.429Z</time>
      </trkpt>
      <trkpt lat="48.05323" lon="2.7754">
        <ele>113</ele>
        <time>2016-12-11T08:15:31.415Z</time>
      </trkpt>
      <trkpt lat="48.05323" lon="2.7754">
        <ele>113</ele>
        <time>2016-12-11T08:15:32.411Z</time>
      </trkpt>
      <trkpt lat="48.0533" lon="2.77535">
        <ele>113</ele>
        <time>2016-12-11T08:15:33.418Z</time>
      </trkpt>
      <trkpt lat="48.05333" lon="2.77531">
        <ele>114</ele>
        <time>2016-12-11T08:15:34.411Z</time>
      </trkpt>
      <trkpt lat="48.05333" lon="2.77531">
        <ele>114</ele>
        <time>2016-12-11T08:15:35.406Z</time>
      </trkpt>
      <trkpt lat="48.0534" lon="2.77521">
        <ele>114</ele>
        <time>2016-12-11T08:15:36.399Z</time>
      </trkpt>
      <trkpt lat="48.0534" lon="2.77521">
        <ele>114</ele>
        <time>2016-12-11T08:15:37.404Z</time>
      </trkpt>
      <trkpt lat="48.05347" lon="2.77513">
        <ele>114</ele>
        <time>2016-12-11T08:15:38.400Z</time>
      </trkpt>
      <trkpt lat="48.0535" lon="2.77508">
        <ele>114</ele>
        <time>2016-12-11T08:15:39.402Z</time>
      </trkpt>
      <trkpt lat="48.0535" lon="2.77508">
        <ele>114</ele>
        <time>2016-12-11T08:15:40.416Z</time>
      </trkpt>
      <trkpt lat="48.05357" lon="2.775">
        <ele>114</ele>
        <time>2016-12-11T08:15:41.419Z</time>
      </trkpt>
      <trkpt lat="48.05359" lon="2.77496">
        <ele>114</ele>
        <time>2016-12-11T08:15:42.416Z</time>
      </trkpt>
      <trkpt lat="48.05359" lon="2.77496">
        <ele>114</ele>
        <time>2016-12-11T08:15:43.429Z</time>
      </trkpt>
      <trkpt lat="48.05365" lon="2.77487">
        <ele>114</ele>
        <time>2016-12-11T08:15:44.409Z</time>
      </trkpt>
      <trkpt lat="48.05365" lon="2.77487">
        <ele>114</ele>
        <time>2016-12-11T08:15:45.412Z</time>
      </trkpt>
      <trkpt lat="48.05371" lon="2.77477">
        <ele>114</ele>
        <time>2016-12-11T08:15:46.422Z</time>
      </trkpt>
      <trkpt lat="48.05371" lon="2.77477">
        <ele>114</ele>
        <time>2016-12-11T08:15:47.419Z</time>
      </trkpt>
      <trkpt lat="48.05377" lon="2.77467">
        <ele>114</ele>
        <time>2016-12-11T08:15:48.428Z</time>
      </trkpt>
      <trkpt lat="48.05377" lon="2.77467">
        <ele>114</ele>
        <time>2016-12-11T08:15:49.425Z</time>
      </trkpt>
      <trkpt lat="48.05383" lon="2.77458">
        <ele>114</ele>
        <time>2016-12-11T08:15:50.426Z</time>
      </trkpt>
      <trkpt lat="48.05383" lon="2.77458">
        <ele>114</ele>
        <time>2016-12-11T08:15:51.425Z</time>
      </trkpt>
      <trkpt lat="48.05389" lon="2.77449">
        <ele>113</ele>
        <time>2016-12-11T08:15:52.425Z</time>
      </trkpt>
      <trkpt lat="48.05389" lon="2.77449">
        <ele>113</ele>
        <time>2016-12-11T08:15:53.424Z</time>
      </trkpt>
      <trkpt lat="48.05396" lon="2.77438">
        <ele>113</ele>
        <time>2016-12-11T08:15:54.418Z</time>
      </trkpt>
      <trkpt lat="48.05396" lon="2.77438">
        <ele>113</ele>
        <time>2016-12-11T08:15:55.428Z</time>
      </trkpt>
      <trkpt lat="48.05403" lon="2.77428">
        <ele>113</ele>
        <time>2016-12-11T08:15:56.425Z</time>
      </trkpt>
      <trkpt lat="48.05403" lon="2.77428">
        <ele>113</ele>
        <time>2016-12-11T08:15:57.422Z</time>
      </trkpt>
      <trkpt lat="48.05408" lon="2.77419">
        <ele>113</ele>
        <time>2016-12-11T08:15:58.420Z</time>
      </trkpt>
      <trkpt lat="48.05412" lon="2.77414">
        <ele>112</ele>
        <time>2016-12-11T08:15:59.430Z</time>
      </trkpt>
      <trkpt lat="48.05412" lon="2.77414">
        <ele>112</ele>
        <time>2016-12-11T08:16:00.404Z</time>
      </trkpt>
      <trkpt lat="48.05419" lon="2.77405">
        <ele>113</ele>
        <time>2016-12-11T08:16:01.414Z</time>
      </trkpt>
      <trkpt lat="48.05419" lon="2.77405">
        <ele>113</ele>
        <time>2016-12-11T08:16:02.412Z</time>
      </trkpt>
      <trkpt lat="48.05425" lon="2.77395">
        <ele>113</ele>
        <time>2016-12-11T08:16:03.409Z</time>
      </trkpt>
      <trkpt lat="48.05425" lon="2.77395">
        <ele>113</ele>
        <time>2016-12-11T08:16:04.397Z</time>
      </trkpt>
      <trkpt lat="48.05432" lon="2.77386">
        <ele>113</ele>
        <time>2016-12-11T08:16:05.398Z</time>
      </trkpt>
      <trkpt lat="48.05436" lon="2.77381">
        <ele>113</ele>
        <time>2016-12-11T08:16:06.400Z</time>
      </trkpt>
      <trkpt lat="48.05436" lon="2.77381">
        <ele>113</ele>
        <time>2016-12-11T08:16:07.403Z</time>
      </trkpt>
      <trkpt lat="48.05444" lon="2.7737">
        <ele>112</ele>
        <time>2016-12-11T08:16:08.399Z</time>
      </trkpt>
      <trkpt lat="48.05444" lon="2.7737">
        <ele>112</ele>
        <time>2016-12-11T08:16:09.404Z</time>
      </trkpt>
      <trkpt lat="48.0545" lon="2.7736">
        <ele>113</ele>
        <time>2016-12-11T08:16:10.427Z</time>
      </trkpt>
      <trkpt lat="48.0545" lon="2.7736">
        <ele>113</ele>
        <time>2016-12-11T08:16:11.423Z</time>
      </trkpt>
      <trkpt lat="48.05456" lon="2.7735">
        <ele>112</ele>
        <time>2016-12-11T08:16:12.426Z</time>
      </trkpt>
      <trkpt lat="48.05456" lon="2.7735">
        <ele>112</ele>
        <time>2016-12-11T08:16:13.423Z</time>
      </trkpt>
      <trkpt lat="48.05461" lon="2.77344">
        <ele>113</ele>
        <time>2016-12-11T08:16:14.416Z</time>
      </trkpt>
      <trkpt lat="48.05461" lon="2.77344">
        <ele>113</ele>
        <time>2016-12-11T08:16:15.419Z</time>
      </trkpt>
      <trkpt lat="48.05465" lon="2.77344">
        <ele>113</ele>
        <time>2016-12-11T08:16:16.419Z</time>
      </trkpt>
      <trkpt lat="48.05465" lon="2.77344">
        <ele>113</ele>
        <time>2016-12-11T08:16:17.419Z</time>
      </trkpt>
      <trkpt lat="48.0547" lon="2.77349">
        <ele>112</ele>
        <time>2016-12-11T08:16:18.414Z</time>
      </trkpt>
      <trkpt lat="48.0547" lon="2.77349">
        <ele>112</ele>
        <time>2016-12-11T08:16:19.413Z</time>
      </trkpt>
      <trkpt lat="48.05473" lon="2.77358">
        <ele>112</ele>
        <time>2016-12-11T08:16:20.419Z</time>
      </trkpt>
      <trkpt lat="48.05473" lon="2.77358">
        <ele>112</ele>
        <time>2016-12-11T08:16:21.418Z</time>
      </trkpt>
      <trkpt lat="48.05479" lon="2.77369">
        <ele>112</ele>
        <time>2016-12-11T08:16:22.420Z</time>
      </trkpt>
      <trkpt lat="48.05479" lon="2.77369">
        <ele>112</ele>
        <time>2016-12-11T08:16:23.418Z</time>
      </trkpt>
      <trkpt lat="48.05484" lon="2.77382">
        <ele>112</ele>
        <time>2016-12-11T08:16:24.433Z</time>
      </trkpt>
      <trkpt lat="48.05484" lon="2.77382">
        <ele>112</ele>
        <time>2016-12-11T08:16:25.433Z</time>
      </trkpt>
      <trkpt lat="48.05487" lon="2.77395">
        <ele>111</ele>
        <time>2016-12-11T08:16:26.431Z</time>
      </trkpt>
      <trkpt lat="48.05487" lon="2.77395">
        <ele>111</ele>
        <time>2016-12-11T08:16:27.430Z</time>
      </trkpt>
      <trkpt lat="48.05492" lon="2.77409">
        <ele>111</ele>
        <time>2016-12-11T08:16:28.419Z</time>
      </trkpt>
      <trkpt lat="48.05494" lon="2.77415">
        <ele>111</ele>
        <time>2016-12-11T08:16:29.426Z</time>
      </trkpt>
      <trkpt lat="48.05494" lon="2.77415">
        <ele>111</ele>
        <time>2016-12-11T08:16:30.424Z</time>
      </trkpt>
      <trkpt lat="48.05497" lon="2.77429">
        <ele>111</ele>
        <time>2016-12-11T08:16:31.419Z</time>
      </trkpt>
      <trkpt lat="48.05499" lon="2.77437">
        <ele>111</ele>
        <time>2016-12-11T08:16:32.416Z</time>
      </trkpt>
      <trkpt lat="48.05499" lon="2.77437">
        <ele>111</ele>
        <time>2016-12-11T08:16:33.430Z</time>
      </trkpt>
      <trkpt lat="48.05502" lon="2.77452">
        <ele>111</ele>
        <time>2016-12-11T08:16:34.427Z</time>
      </trkpt>
      <trkpt lat="48.05504" lon="2.7746">
        <ele>111</ele>
        <time>2016-12-11T08:16:35.424Z</time>
      </trkpt>
      <trkpt lat="48.05507" lon="2.77468">
        <ele>111</ele>
        <time>2016-12-11T08:16:36.431Z</time>
      </trkpt>
      <trkpt lat="48.05507" lon="2.77468">
        <ele>111</ele>
        <time>2016-12-11T08:16:37.428Z</time>
      </trkpt>
      <trkpt lat="48.05511" lon="2.77484">
        <ele>111</ele>
        <time>2016-12-11T08:16:38.398Z</time>
      </trkpt>
      <trkpt lat="48.05511" lon="2.77484">
        <ele>111</ele>
        <time>2016-12-11T08:16:39.398Z</time>
      </trkpt>
      <trkpt lat="48.05518" lon="2.77501">
        <ele>111</ele>
        <time>2016-12-11T08:16:40.398Z</time>
      </trkpt>
      <trkpt lat="48.0552" lon="2.77509">
        <ele>111</ele>
        <time>2016-12-11T08:16:41.397Z</time>
      </trkpt>
      <trkpt lat="48.0552" lon="2.77509">
        <ele>111</ele>
        <time>2016-12-11T08:16:42.434Z</time>
      </trkpt>
      <trkpt lat="48.05526" lon="2.77527">
        <ele>110</ele>
        <time>2016-12-11T08:16:43.403Z</time>
      </trkpt>
      <trkpt lat="48.05529" lon="2.77536">
        <ele>110</ele>
        <time>2016-12-11T08:16:44.430Z</time>
      </trkpt>
      <trkpt lat="48.05529" lon="2.77536">
        <ele>110</ele>
        <time>2016-12-11T08:16:45.428Z</time>
      </trkpt>
      <trkpt lat="48.05534" lon="2.77553">
        <ele>110</ele>
        <time>2016-12-11T08:16:46.426Z</time>
      </trkpt>
      <trkpt lat="48.05534" lon="2.77553">
        <ele>110</ele>
        <time>2016-12-11T08:16:47.424Z</time>
      </trkpt>
      <trkpt lat="48.0554" lon="2.77567">
        <ele>109</ele>
        <time>2016-12-11T08:16:48.425Z</time>
      </trkpt>
      <trkpt lat="48.0554" lon="2.77567">
        <ele>109</ele>
        <time>2016-12-11T08:16:49.422Z</time>
      </trkpt>
      <trkpt lat="48.05546" lon="2.77581">
        <ele>109</ele>
        <time>2016-12-11T08:16:50.418Z</time>
      </trkpt>
      <trkpt lat="48.05549" lon="2.77586">
        <ele>109</ele>
        <time>2016-12-11T08:16:51.415Z</time>
      </trkpt>
      <trkpt lat="48.05549" lon="2.77586">
        <ele>109</ele>
        <time>2016-12-11T08:16:52.412Z</time>
      </trkpt>
      <trkpt lat="48.05557" lon="2.77587">
        <ele>109</ele>
        <time>2016-12-11T08:16:53.410Z</time>
      </trkpt>
      <trkpt lat="48.05557" lon="2.77587">
        <ele>109</ele>
        <time>2016-12-11T08:16:54.399Z</time>
      </trkpt>
      <trkpt lat="48.05563" lon="2.77579">
        <ele>109</ele>
        <time>2016-12-11T08:16:55.400Z</time>
      </trkpt>
      <trkpt lat="48.05563" lon="2.77579">
        <ele>109</ele>
        <time>2016-12-11T08:16:56.398Z</time>
      </trkpt>
      <trkpt lat="48.05569" lon="2.77568">
        <ele>109</ele>
        <time>2016-12-11T08:16:57.401Z</time>
      </trkpt>
      <trkpt lat="48.05569" lon="2.77568">
        <ele>109</ele>
        <time>2016-12-11T08:16:58.411Z</time>
      </trkpt>
      <trkpt lat="48.05576" lon="2.77558">
        <ele>109</ele>
        <time>2016-12-11T08:16:59.428Z</time>
      </trkpt>
      <trkpt lat="48.0558" lon="2.77552">
        <ele>109</ele>
        <time>2016-12-11T08:17:00.428Z</time>
      </trkpt>
      <trkpt lat="48.0558" lon="2.77552">
        <ele>109</ele>
        <time>2016-12-11T08:17:01.425Z</time>
      </trkpt>
      <trkpt lat="48.05587" lon="2.7754">
        <ele>109</ele>
        <time>2016-12-11T08:17:02.399Z</time>
      </trkpt>
      <trkpt lat="48.05587" lon="2.7754">
        <ele>109</ele>
        <time>2016-12-11T08:17:03.398Z</time>
      </trkpt>
      <trkpt lat="48.05595" lon="2.77534">
        <ele>108</ele>
        <time>2016-12-11T08:17:04.427Z</time>
      </trkpt>
      <trkpt lat="48.056" lon="2.77534">
        <ele>108</ele>
        <time>2016-12-11T08:17:05.398Z</time>
      </trkpt>
      <trkpt lat="48.05605" lon="2.77537">
        <ele>108</ele>
        <time>2016-12-11T08:17:06.400Z</time>
      </trkpt>
      <trkpt lat="48.05605" lon="2.77537">
        <ele>108</ele>
        <time>2016-12-11T08:17:07.402Z</time>
      </trkpt>
      <trkpt lat="48.05615" lon="2.77544">
        <ele>107</ele>
        <time>2016-12-11T08:17:08.410Z</time>
      </trkpt>
      <trkpt lat="48.05615" lon="2.77544">
        <ele>107</ele>
        <time>2016-12-11T08:17:09.408Z</time>
      </trkpt>
      <trkpt lat="48.05624" lon="2.77552">
        <ele>107</ele>
        <time>2016-12-11T08:17:10.419Z</time>
      </trkpt>
      <trkpt lat="48.05624" lon="2.77552">
        <ele>107</ele>
        <time>2016-12-11T08:17:11.416Z</time>
      </trkpt>
      <trkpt lat="48.05633" lon="2.77562">
        <ele>107</ele>
        <time>2016-12-11T08:17:12.426Z</time>
      </trkpt>
      <trkpt lat="48.05633" lon="2.77562">
        <ele>107</ele>
        <time>2016-12-11T08:17:13.425Z</time>
      </trkpt>
      <trkpt lat="48.05645" lon="2.77571">
        <ele>106</ele>
        <time>2016-12-11T08:17:14.418Z</time>
      </trkpt>
      <trkpt lat="48.05645" lon="2.77571">
        <ele>106</ele>
        <time>2016-12-11T08:17:15.415Z</time>
      </trkpt>
      <trkpt lat="48.05658" lon="2.77578">
        <ele>106</ele>
        <time>2016-12-11T08:17:16.426Z</time>
      </trkpt>
      <trkpt lat="48.05658" lon="2.77578">
        <ele>106</ele>
        <time>2016-12-11T08:17:17.411Z</time>
      </trkpt>
      <trkpt lat="48.05669" lon="2.77587">
        <ele>105</ele>
        <time>2016-12-11T08:17:18.430Z</time>
      </trkpt>
      <trkpt lat="48.05669" lon="2.77587">
        <ele>105</ele>
        <time>2016-12-11T08:17:19.427Z</time>
      </trkpt>
      <trkpt lat="48.05682" lon="2.77598">
        <ele>104</ele>
        <time>2016-12-11T08:17:20.429Z</time>
      </trkpt>
      <trkpt lat="48.05682" lon="2.77598">
        <ele>104</ele>
        <time>2016-12-11T08:17:21.427Z</time>
      </trkpt>
      <trkpt lat="48.05701" lon="2.77605">
        <ele>103</ele>
        <time>2016-12-11T08:17:22.429Z</time>
      </trkpt>
      <trkpt lat="48.05701" lon="2.77605">
        <ele>103</ele>
        <time>2016-12-11T08:17:23.428Z</time>
      </trkpt>
      <trkpt lat="48.05714" lon="2.77616">
        <ele>103</ele>
        <time>2016-12-11T08:17:24.418Z</time>
      </trkpt>
      <trkpt lat="48.05714" lon="2.77616">
        <ele>103</ele>
        <time>2016-12-11T08:17:25.415Z</time>
      </trkpt>
      <trkpt lat="48.05728" lon="2.77623">
        <ele>103</ele>
        <time>2016-12-11T08:17:26.417Z</time>
      </trkpt>
      <trkpt lat="48.05735" lon="2.77627">
        <ele>103</ele>
        <time>2016-12-11T08:17:27.397Z</time>
      </trkpt>
      <trkpt lat="48.05735" lon="2.77627">
        <ele>103</ele>
        <time>2016-12-11T08:17:28.413Z</time>
      </trkpt>
      <trkpt lat="48.05745" lon="2.77635">
        <ele>103</ele>
        <time>2016-12-11T08:17:29.422Z</time>
      </trkpt>
      <trkpt lat="48.05748" lon="2.77638">
        <ele>102</ele>
        <time>2016-12-11T08:17:30.425Z</time>
      </trkpt>
      <trkpt lat="48.05748" lon="2.77638">
        <ele>102</ele>
        <time>2016-12-11T08:17:31.420Z</time>
      </trkpt>
      <trkpt lat="48.05757" lon="2.77652">
        <ele>102</ele>
        <time>2016-12-11T08:17:32.431Z</time>
      </trkpt>
      <trkpt lat="48.05757" lon="2.77652">
        <ele>102</ele>
        <time>2016-12-11T08:17:33.427Z</time>
      </trkpt>
      <trkpt lat="48.05756" lon="2.77663">
        <ele>102</ele>
        <time>2016-12-11T08:17:34.427Z</time>
      </trkpt>
      <trkpt lat="48.05756" lon="2.77663">
        <ele>102</ele>
        <time>2016-12-11T08:17:35.425Z</time>
      </trkpt>
      <trkpt lat="48.05754" lon="2.77676">
        <ele>101</ele>
        <time>2016-12-11T08:17:36.426Z</time>
      </trkpt>
      <trkpt lat="48.05754" lon="2.77676">
        <ele>101</ele>
        <time>2016-12-11T08:17:37.426Z</time>
      </trkpt>
      <trkpt lat="48.0575" lon="2.77689">
        <ele>101</ele>
        <time>2016-12-11T08:17:38.435Z</time>
      </trkpt>
      <trkpt lat="48.0575" lon="2.77689">
        <ele>101</ele>
        <time>2016-12-11T08:17:39.430Z</time>
      </trkpt>
      <trkpt lat="48.05747" lon="2.77702">
        <ele>101</ele>
        <time>2016-12-11T08:17:40.428Z</time>
      </trkpt>
      <trkpt lat="48.05747" lon="2.77702">
        <ele>101</ele>
        <time>2016-12-11T08:17:41.425Z</time>
      </trkpt>
      <trkpt lat="48.05745" lon="2.77716">
        <ele>101</ele>
        <time>2016-12-11T08:17:42.425Z</time>
      </trkpt>
      <trkpt lat="48.05745" lon="2.77716">
        <ele>101</ele>
        <time>2016-12-11T08:17:43.423Z</time>
      </trkpt>
      <trkpt lat="48.05745" lon="2.7773">
        <ele>101</ele>
        <time>2016-12-11T08:17:44.403Z</time>
      </trkpt>
      <trkpt lat="48.05745" lon="2.7773">
        <ele>101</ele>
        <time>2016-12-11T08:17:45.402Z</time>
      </trkpt>
      <trkpt lat="48.05746" lon="2.77744">
        <ele>101</ele>
        <time>2016-12-11T08:17:46.399Z</time>
      </trkpt>
      <trkpt lat="48.05746" lon="2.77744">
        <ele>101</ele>
        <time>2016-12-11T08:17:47.433Z</time>
      </trkpt>
      <trkpt lat="48.05748" lon="2.77757">
        <ele>101</ele>
        <time>2016-12-11T08:17:48.431Z</time>
      </trkpt>
      <trkpt lat="48.05748" lon="2.77763">
        <ele>101</ele>
        <time>2016-12-11T08:17:49.432Z</time>
      </trkpt>
      <trkpt lat="48.05748" lon="2.77763">
        <ele>101</ele>
        <time>2016-12-11T08:17:50.397Z</time>
      </trkpt>
      <trkpt lat="48.05748" lon="2.77777">
        <ele>101</ele>
        <time>2016-12-11T08:17:51.398Z</time>
      </trkpt>
      <trkpt lat="48.05748" lon="2.77777">
        <ele>101</ele>
        <time>2016-12-11T08:17:52.399Z</time>
      </trkpt>
      <trkpt lat="48.05748" lon="2.7779">
        <ele>101</ele>
        <time>2016-12-11T08:17:53.430Z</time>
      </trkpt>
      <trkpt lat="48.05748" lon="2.77797">
        <ele>101</ele>
        <time>2016-12-11T08:17:54.433Z</time>
      </trkpt>
      <trkpt lat="48.05748" lon="2.77797">
        <ele>101</ele>
        <time>2016-12-11T08:17:55.430Z</time>
      </trkpt>
      <trkpt lat="48.0575" lon="2.77809">
        <ele>101</ele>
        <time>2016-12-11T08:17:56.428Z</time>
      </trkpt>
      <trkpt lat="48.0575" lon="2.77809">
        <ele>101</ele>
        <time>2016-12-11T08:17:57.425Z</time>
      </trkpt>
      <trkpt lat="48.05753" lon="2.7782">
        <ele>100</ele>
        <time>2016-12-11T08:17:58.423Z</time>
      </trkpt>
      <trkpt lat="48.05752" lon="2.77826">
        <ele>100</ele>
        <time>2016-12-11T08:17:59.434Z</time>
      </trkpt>
      <trkpt lat="48.05752" lon="2.77826">
        <ele>100</ele>
        <time>2016-12-11T08:18:00.431Z</time>
      </trkpt>
      <trkpt lat="48.05749" lon="2.77837">
        <ele>100</ele>
        <time>2016-12-11T08:18:01.435Z</time>
      </trkpt>
      <trkpt lat="48.05748" lon="2.77841">
        <ele>100</ele>
        <time>2016-12-11T08:18:02.421Z</time>
      </trkpt>
      <trkpt lat="48.05748" lon="2.77841">
        <ele>100</ele>
        <time>2016-12-11T08:18:03.421Z</time>
      </trkpt>
      <trkpt lat="48.05745" lon="2.77852">
        <ele>100</ele>
        <time>2016-12-11T08:18:04.418Z</time>
      </trkpt>
      <trkpt lat="48.05744" lon="2.77858">
        <ele>100</ele>
        <time>2016-12-11T08:18:05.428Z</time>
      </trkpt>
      <trkpt lat="48.05743" lon="2.77865">
        <ele>100</ele>
        <time>2016-12-11T08:18:06.404Z</time>
      </trkpt>
      <trkpt lat="48.05743" lon="2.77865">
        <ele>100</ele>
        <time>2016-12-11T08:18:07.403Z</time>
      </trkpt>
      <trkpt lat="48.05739" lon="2.77879">
        <ele>100</ele>
        <time>2016-12-11T08:18:08.400Z</time>
      </trkpt>
      <trkpt lat="48.05739" lon="2.77879">
        <ele>100</ele>
        <time>2016-12-11T08:18:09.398Z</time>
      </trkpt>
      <trkpt lat="48.05736" lon="2.77892">
        <ele>101</ele>
        <time>2016-12-11T08:18:10.398Z</time>
      </trkpt>
      <trkpt lat="48.05736" lon="2.77892">
        <ele>101</ele>
        <time>2016-12-11T08:18:11.399Z</time>
      </trkpt>
      <trkpt lat="48.05733" lon="2.77905">
        <ele>101</ele>
        <time>2016-12-11T08:18:12.400Z</time>
      </trkpt>
      <trkpt lat="48.05733" lon="2.77905">
        <ele>101</ele>
        <time>2016-12-11T08:18:13.402Z</time>
      </trkpt>
      <trkpt lat="48.0573" lon="2.77919">
        <ele>101</ele>
        <time>2016-12-11T08:18:14.420Z</time>
      </trkpt>
      <trkpt lat="48.0573" lon="2.77919">
        <ele>101</ele>
        <time>2016-12-11T08:18:15.418Z</time>
      </trkpt>
      <trkpt lat="48.05727" lon="2.77932">
        <ele>101</ele>
        <time>2016-12-11T08:18:16.419Z</time>
      </trkpt>
      <trkpt lat="48.05727" lon="2.77932">
        <ele>101</ele>
        <time>2016-12-11T08:18:17.433Z</time>
      </trkpt>
      <trkpt lat="48.05725" lon="2.77943">
        <ele>101</ele>
        <time>2016-12-11T08:18:18.409Z</time>
      </trkpt>
      <trkpt lat="48.05725" lon="2.77943">
        <ele>101</ele>
        <time>2016-12-11T08:18:19.417Z</time>
      </trkpt>
      <trkpt lat="48.05726" lon="2.77953">
        <ele>101</ele>
        <time>2016-12-11T08:18:20.427Z</time>
      </trkpt>
      <trkpt lat="48.05726" lon="2.77957">
        <ele>101</ele>
        <time>2016-12-11T08:18:21.427Z</time>
      </trkpt>
      <trkpt lat="48.05726" lon="2.77957">
        <ele>101</ele>
        <time>2016-12-11T08:18:22.424Z</time>
      </trkpt>
      <trkpt lat="48.05727" lon="2.77964">
        <ele>101</ele>
        <time>2016-12-11T08:18:23.403Z</time>
      </trkpt>
      <trkpt lat="48.05727" lon="2.77965">
        <ele>101</ele>
        <time>2016-12-11T08:18:24.396Z</time>
      </trkpt>
      <trkpt lat="48.05727" lon="2.77965">
        <ele>101</ele>
        <time>2016-12-11T08:18:25.398Z</time>
      </trkpt>
      <trkpt lat="48.05724" lon="2.77965">
        <ele>101</ele>
        <time>2016-12-11T08:18:26.400Z</time>
      </trkpt>
      <trkpt lat="48.05724" lon="2.77965">
        <ele>101</ele>
        <time>2016-12-11T08:18:27.399Z</time>
      </trkpt>
      <trkpt lat="48.05721" lon="2.77963">
        <ele>101</ele>
        <time>2016-12-11T08:18:28.419Z</time>
      </trkpt>
      <trkpt lat="48.05719" lon="2.77962">
        <ele>101</ele>
        <time>2016-12-11T08:18:29.418Z</time>
      </trkpt>
      <trkpt lat="48.05718" lon="2.77962">
        <ele>101</ele>
        <time>2016-12-11T08:18:30.418Z</time>
      </trkpt>
      <trkpt lat="48.05718" lon="2.77962">
        <ele>101</ele>
        <time>2016-12-11T08:18:31.414Z</time>
      </trkpt>
      <trkpt lat="48.05714" lon="2.7796">
        <ele>101</ele>
        <time>2016-12-11T08:18:32.420Z</time>
      </trkpt>
      <trkpt lat="48.05714" lon="2.7796">
        <ele>101</ele>
        <time>2016-12-11T08:18:33.421Z</time>
      </trkpt>
      <trkpt lat="48.0571" lon="2.77958">
        <ele>101</ele>
        <time>2016-12-11T08:18:34.422Z</time>
      </trkpt>
      <trkpt lat="48.0571" lon="2.77958">
        <ele>101</ele>
        <time>2016-12-11T08:18:35.420Z</time>
      </trkpt>
      <trkpt lat="48.05708" lon="2.7796">
        <ele>101</ele>
        <time>2016-12-11T08:18:36.426Z</time>
      </trkpt>
      <trkpt lat="48.05708" lon="2.7796">
        <ele>101</ele>
        <time>2016-12-11T08:18:37.423Z</time>
      </trkpt>
      <trkpt lat="48.05705" lon="2.77965">
        <ele>101</ele>
        <time>2016-12-11T08:18:38.420Z</time>
      </trkpt>
      <trkpt lat="48.05705" lon="2.77965">
        <ele>101</ele>
        <time>2016-12-11T08:18:39.421Z</time>
      </trkpt>
      <trkpt lat="48.05702" lon="2.77969">
        <ele>101</ele>
        <time>2016-12-11T08:18:40.418Z</time>
      </trkpt>
      <trkpt lat="48.05702" lon="2.77969">
        <ele>101</ele>
        <time>2016-12-11T08:18:41.416Z</time>
      </trkpt>
      <trkpt lat="48.057" lon="2.77974">
        <ele>101</ele>
        <time>2016-12-11T08:18:42.421Z</time>
      </trkpt>
      <trkpt lat="48.057" lon="2.77974">
        <ele>101</ele>
        <time>2016-12-11T08:18:43.421Z</time>
      </trkpt>
      <trkpt lat="48.05697" lon="2.77981">
        <ele>101</ele>
        <time>2016-12-11T08:18:44.402Z</time>
      </trkpt>
      <trkpt lat="48.05697" lon="2.77981">
        <ele>101</ele>
        <time>2016-12-11T08:18:45.403Z</time>
      </trkpt>
      <trkpt lat="48.05693" lon="2.77985">
        <ele>101</ele>
        <time>2016-12-11T08:18:46.399Z</time>
      </trkpt>
      <trkpt lat="48.05693" lon="2.77985">
        <ele>101</ele>
        <time>2016-12-11T08:18:47.400Z</time>
      </trkpt>
      <trkpt lat="48.05691" lon="2.77989">
        <ele>101</ele>
        <time>2016-12-11T08:18:48.400Z</time>
      </trkpt>
      <trkpt lat="48.05691" lon="2.77989">
        <ele>101</ele>
        <time>2016-12-11T08:18:49.407Z</time>
      </trkpt>
      <trkpt lat="48.05689" lon="2.77993">
        <ele>101</ele>
        <time>2016-12-11T08:18:50.425Z</time>
      </trkpt>
      <trkpt lat="48.05689" lon="2.77993">
        <ele>101</ele>
        <time>2016-12-11T08:18:51.423Z</time>
      </trkpt>
      <trkpt lat="48.05687" lon="2.78">
        <ele>101</ele>
        <time>2016-12-11T08:18:52.420Z</time>
      </trkpt>
      <trkpt lat="48.05687" lon="2.78">
        <ele>101</ele>
        <time>2016-12-11T08:18:53.421Z</time>
      </trkpt>
      <trkpt lat="48.05684" lon="2.78004">
        <ele>102</ele>
        <time>2016-12-11T08:18:54.419Z</time>
      </trkpt>
      <trkpt lat="48.05684" lon="2.78004">
        <ele>102</ele>
        <time>2016-12-11T08:18:55.416Z</time>
      </trkpt>
      <trkpt lat="48.05679" lon="2.78008">
        <ele>102</ele>
        <time>2016-12-11T08:18:56.420Z</time>
      </trkpt>
      <trkpt lat="48.05679" lon="2.78008">
        <ele>102</ele>
        <time>2016-12-11T08:18:57.419Z</time>
      </trkpt>
      <trkpt lat="48.05675" lon="2.7801">
        <ele>102</ele>
        <time>2016-12-11T08:18:58.417Z</time>
      </trkpt>
      <trkpt lat="48.05675" lon="2.7801">
        <ele>102</ele>
        <time>2016-12-11T08:18:59.412Z</time>
      </trkpt>
      <trkpt lat="48.05671" lon="2.78009">
        <ele>102</ele>
        <time>2016-12-11T08:19:00.426Z</time>
      </trkpt>
      <trkpt lat="48.05671" lon="2.78009">
        <ele>102</ele>
        <time>2016-12-11T08:19:01.423Z</time>
      </trkpt>
      <trkpt lat="48.05669" lon="2.78004">
        <ele>102</ele>
        <time>2016-12-11T08:19:02.428Z</time>
      </trkpt>
      <trkpt lat="48.05669" lon="2.78004">
        <ele>102</ele>
        <time>2016-12-11T08:19:03.426Z</time>
      </trkpt>
      <trkpt lat="48.05667" lon="2.77999">
        <ele>101</ele>
        <time>2016-12-11T08:19:04.419Z</time>
      </trkpt>
      <trkpt lat="48.05667" lon="2.77999">
        <ele>101</ele>
        <time>2016-12-11T08:19:05.416Z</time>
      </trkpt>
      <trkpt lat="48.05665" lon="2.77995">
        <ele>101</ele>
        <time>2016-12-11T08:19:06.415Z</time>
      </trkpt>
      <trkpt lat="48.05665" lon="2.77995">
        <ele>101</ele>
        <time>2016-12-11T08:19:07.412Z</time>
      </trkpt>
      <trkpt lat="48.05664" lon="2.7799">
        <ele>100</ele>
        <time>2016-12-11T08:19:08.417Z</time>
      </trkpt>
      <trkpt lat="48.05664" lon="2.7799">
        <ele>100</ele>
        <time>2016-12-11T08:19:09.421Z</time>
      </trkpt>
      <trkpt lat="48.05661" lon="2.77986">
        <ele>100</ele>
        <time>2016-12-11T08:19:10.434Z</time>
      </trkpt>
      <trkpt lat="48.05661" lon="2.77986">
        <ele>100</ele>
        <time>2016-12-11T08:19:11.399Z</time>
      </trkpt>
      <trkpt lat="48.05658" lon="2.77982">
        <ele>100</ele>
        <time>2016-12-11T08:19:12.414Z</time>
      </trkpt>
      <trkpt lat="48.05658" lon="2.77982">
        <ele>100</ele>
        <time>2016-12-11T08:19:13.421Z</time>
      </trkpt>
      <trkpt lat="48.05655" lon="2.77975">
        <ele>99</ele>
        <time>2016-12-11T08:19:14.426Z</time>
      </trkpt>
      <trkpt lat="48.05655" lon="2.77975">
        <ele>99</ele>
        <time>2016-12-11T08:19:15.421Z</time>
      </trkpt>
      <trkpt lat="48.0565" lon="2.77972">
        <ele>98</ele>
        <time>2016-12-11T08:19:16.405Z</time>
      </trkpt>
      <trkpt lat="48.05648" lon="2.77971">
        <ele>98</ele>
        <time>2016-12-11T08:19:17.425Z</time>
      </trkpt>
      <trkpt lat="48.05648" lon="2.77971">
        <ele>98</ele>
        <time>2016-12-11T08:19:18.411Z</time>
      </trkpt>
      <trkpt lat="48.05644" lon="2.7797">
        <ele>97</ele>
        <time>2016-12-11T08:19:19.430Z</time>
      </trkpt>
      <trkpt lat="48.05643" lon="2.77968">
        <ele>97</ele>
        <time>2016-12-11T08:19:20.431Z</time>
      </trkpt>
      <trkpt lat="48.05643" lon="2.77968">
        <ele>97</ele>
        <time>2016-12-11T08:19:21.397Z</time>
      </trkpt>
      <trkpt lat="48.05639" lon="2.77966">
        <ele>97</ele>
        <time>2016-12-11T08:19:22.398Z</time>
      </trkpt>
      <trkpt lat="48.05639" lon="2.77966">
        <ele>97</ele>
        <time>2016-12-11T08:19:23.400Z</time>
      </trkpt>
      <trkpt lat="48.05636" lon="2.77964">
        <ele>97</ele>
        <time>2016-12-11T08:19:24.422Z</time>
      </trkpt>
      <trkpt lat="48.05636" lon="2.77964">
        <ele>97</ele>
        <time>2016-12-11T08:19:25.433Z</time>
      </trkpt>
      <trkpt lat="48.05632" lon="2.77961">
        <ele>97</ele>
        <time>2016-12-11T08:19:26.435Z</time>
      </trkpt>
      <trkpt lat="48.05632" lon="2.77961">
        <ele>97</ele>
        <time>2016-12-11T08:19:27.432Z</time>
      </trkpt>
      <trkpt lat="48.05629" lon="2.7796">
        <ele>97</ele>
        <time>2016-12-11T08:19:28.428Z</time>
      </trkpt>
      <trkpt lat="48.05629" lon="2.7796">
        <ele>97</ele>
        <time>2016-12-11T08:19:29.426Z</time>
      </trkpt>
      <trkpt lat="48.05626" lon="2.77961">
        <ele>97</ele>
        <time>2016-12-11T08:19:30.427Z</time>
      </trkpt>
      <trkpt lat="48.05626" lon="2.77961">
        <ele>97</ele>
        <time>2016-12-11T08:19:31.423Z</time>
      </trkpt>
      <trkpt lat="48.05623" lon="2.7796">
        <ele>97</ele>
        <time>2016-12-11T08:19:32.421Z</time>
      </trkpt>
      <trkpt lat="48.05623" lon="2.7796">
        <ele>97</ele>
        <time>2016-12-11T08:19:33.418Z</time>
      </trkpt>
      <trkpt lat="48.0562" lon="2.77961">
        <ele>97</ele>
        <time>2016-12-11T08:19:34.427Z</time>
      </trkpt>
      <trkpt lat="48.0562" lon="2.77961">
        <ele>97</ele>
        <time>2016-12-11T08:19:35.425Z</time>
      </trkpt>
      <trkpt lat="48.05616" lon="2.7796">
        <ele>97</ele>
        <time>2016-12-11T08:19:36.427Z</time>
      </trkpt>
      <trkpt lat="48.05616" lon="2.7796">
        <ele>97</ele>
        <time>2016-12-11T08:19:37.424Z</time>
      </trkpt>
      <trkpt lat="48.05613" lon="2.77958">
        <ele>97</ele>
        <time>2016-12-11T08:19:38.427Z</time>
      </trkpt>
      <trkpt lat="48.05613" lon="2.77958">
        <ele>97</ele>
        <time>2016-12-11T08:19:39.425Z</time>
      </trkpt>
      <trkpt lat="48.05611" lon="2.77955">
        <ele>98</ele>
        <time>2016-12-11T08:19:40.427Z</time>
      </trkpt>
      <trkpt lat="48.0561" lon="2.77953">
        <ele>98</ele>
        <time>2016-12-11T08:19:41.399Z</time>
      </trkpt>
      <trkpt lat="48.0561" lon="2.77953">
        <ele>98</ele>
        <time>2016-12-11T08:19:42.402Z</time>
      </trkpt>
      <trkpt lat="48.05609" lon="2.77948">
        <ele>98</ele>
        <time>2016-12-11T08:19:43.402Z</time>
      </trkpt>
      <trkpt lat="48.05609" lon="2.77946">
        <ele>98</ele>
        <time>2016-12-11T08:19:44.399Z</time>
      </trkpt>
      <trkpt lat="48.05609" lon="2.77946">
        <ele>98</ele>
        <time>2016-12-11T08:19:45.403Z</time>
      </trkpt>
      <trkpt lat="48.05608" lon="2.77942">
        <ele>98</ele>
        <time>2016-12-11T08:19:46.400Z</time>
      </trkpt>
      <trkpt lat="48.05608" lon="2.77942">
        <ele>98</ele>
        <time>2016-12-11T08:19:47.398Z</time>
      </trkpt>
      <trkpt lat="48.05607" lon="2.77938">
        <ele>97</ele>
        <time>2016-12-11T08:19:48.397Z</time>
      </trkpt>
      <trkpt lat="48.05607" lon="2.77938">
        <ele>97</ele>
        <time>2016-12-11T08:19:49.400Z</time>
      </trkpt>
      <trkpt lat="48.05605" lon="2.77934">
        <ele>97</ele>
        <time>2016-12-11T08:19:50.402Z</time>
      </trkpt>
      <trkpt lat="48.05605" lon="2.77934">
        <ele>97</ele>
        <time>2016-12-11T08:19:51.402Z</time>
      </trkpt>
      <trkpt lat="48.05601" lon="2.77932">
        <ele>97</ele>
        <time>2016-12-11T08:19:52.434Z</time>
      </trkpt>
      <trkpt lat="48.05601" lon="2.77932">
        <ele>97</ele>
        <time>2016-12-11T08:19:53.430Z</time>
      </trkpt>
      <trkpt lat="48.05596" lon="2.77931">
        <ele>98</ele>
        <time>2016-12-11T08:19:54.400Z</time>
      </trkpt>
      <trkpt lat="48.05596" lon="2.77931">
        <ele>98</ele>
        <time>2016-12-11T08:19:55.400Z</time>
      </trkpt>
      <trkpt lat="48.05592" lon="2.77929">
        <ele>99</ele>
        <time>2016-12-11T08:19:56.398Z</time>
      </trkpt>
      <trkpt lat="48.05592" lon="2.77929">
        <ele>99</ele>
        <time>2016-12-11T08:19:57.399Z</time>
      </trkpt>
      <trkpt lat="48.05588" lon="2.77926">
        <ele>99</ele>
        <time>2016-12-11T08:19:58.404Z</time>
      </trkpt>
      <trkpt lat="48.05588" lon="2.77926">
        <ele>99</ele>
        <time>2016-12-11T08:19:59.403Z</time>
      </trkpt>
      <trkpt lat="48.05585" lon="2.77926">
        <ele>99</ele>
        <time>2016-12-11T08:20:00.402Z</time>
      </trkpt>
      <trkpt lat="48.05585" lon="2.77926">
        <ele>99</ele>
        <time>2016-12-11T08:20:01.402Z</time>
      </trkpt>
      <trkpt lat="48.05583" lon="2.7793">
        <ele>100</ele>
        <time>2016-12-11T08:20:02.400Z</time>
      </trkpt>
      <trkpt lat="48.05583" lon="2.7793">
        <ele>100</ele>
        <time>2016-12-11T08:20:03.402Z</time>
      </trkpt>
      <trkpt lat="48.05581" lon="2.77934">
        <ele>100</ele>
        <time>2016-12-11T08:20:04.431Z</time>
      </trkpt>
      <trkpt lat="48.05581" lon="2.77934">
        <ele>100</ele>
        <time>2016-12-11T08:20:05.429Z</time>
      </trkpt>
      <trkpt lat="48.05579" lon="2.77938">
        <ele>100</ele>
        <time>2016-12-11T08:20:06.426Z</time>
      </trkpt>
      <trkpt lat="48.05579" lon="2.77938">
        <ele>100</ele>
        <time>2016-12-11T08:20:07.423Z</time>
      </trkpt>
      <trkpt lat="48.05577" lon="2.77941">
        <ele>100</ele>
        <time>2016-12-11T08:20:08.426Z</time>
      </trkpt>
      <trkpt lat="48.05577" lon="2.77941">
        <ele>100</ele>
        <time>2016-12-11T08:20:09.424Z</time>
      </trkpt>
      <trkpt lat="48.05574" lon="2.77943">
        <ele>101</ele>
        <time>2016-12-11T08:20:10.427Z</time>
      </trkpt>
      <trkpt lat="48.05574" lon="2.77943">
        <ele>101</ele>
        <time>2016-12-11T08:20:11.423Z</time>
      </trkpt>
      <trkpt lat="48.05571" lon="2.77943">
        <ele>101</ele>
        <time>2016-12-11T08:20:12.426Z</time>
      </trkpt>
      <trkpt lat="48.05571" lon="2.77943">
        <ele>101</ele>
        <time>2016-12-11T08:20:13.426Z</time>
      </trkpt>
      <trkpt lat="48.05567" lon="2.77948">
        <ele>101</ele>
        <time>2016-12-11T08:20:14.406Z</time>
      </trkpt>
      <trkpt lat="48.05567" lon="2.77948">
        <ele>101</ele>
        <time>2016-12-11T08:20:15.425Z</time>
      </trkpt>
      <trkpt lat="48.05564" lon="2.77951">
        <ele>102</ele>
        <time>2016-12-11T08:20:16.435Z</time>
      </trkpt>
      <trkpt lat="48.05563" lon="2.77953">
        <ele>102</ele>
        <time>2016-12-11T08:20:17.410Z</time>
      </trkpt>
      <trkpt lat="48.05561" lon="2.77956">
        <ele>102</ele>
        <time>2016-12-11T08:20:18.400Z</time>
      </trkpt>
      <trkpt lat="48.05561" lon="2.77956">
        <ele>102</ele>
        <time>2016-12-11T08:20:19.414Z</time>
      </trkpt>
      <trkpt lat="48.05557" lon="2.77957">
        <ele>102</ele>
        <time>2016-12-11T08:20:20.416Z</time>
      </trkpt>
      <trkpt lat="48.05557" lon="2.77957">
        <ele>102</ele>
        <time>2016-12-11T08:20:21.414Z</time>
      </trkpt>
      <trkpt lat="48.05554" lon="2.77955">
        <ele>102</ele>
        <time>2016-12-11T08:20:22.428Z</time>
      </trkpt>
      <trkpt lat="48.05554" lon="2.77955">
        <ele>102</ele>
        <time>2016-12-11T08:20:23.421Z</time>
      </trkpt>
      <trkpt lat="48.0555" lon="2.77954">
        <ele>103</ele>
        <time>2016-12-11T08:20:24.412Z</time>
      </trkpt>
      <trkpt lat="48.0555" lon="2.77954">
        <ele>103</ele>
        <time>2016-12-11T08:20:25.413Z</time>
      </trkpt>
      <trkpt lat="48.05547" lon="2.77953">
        <ele>103</ele>
        <time>2016-12-11T08:20:26.416Z</time>
      </trkpt>
      <trkpt lat="48.05545" lon="2.77951">
        <ele>103</ele>
        <time>2016-12-11T08:20:27.426Z</time>
      </trkpt>
      <trkpt lat="48.05545" lon="2.77951">
        <ele>103</ele>
        <time>2016-12-11T08:20:28.424Z</time>
      </trkpt>
      <trkpt lat="48.05543" lon="2.77946">
        <ele>103</ele>
        <time>2016-12-11T08:20:29.420Z</time>
      </trkpt>
      <trkpt lat="48.05543" lon="2.77946">
        <ele>103</ele>
        <time>2016-12-11T08:20:30.416Z</time>
      </trkpt>
      <trkpt lat="48.05539" lon="2.77945">
        <ele>103</ele>
        <time>2016-12-11T08:20:31.417Z</time>
      </trkpt>
      <trkpt lat="48.05539" lon="2.77945">
        <ele>103</ele>
        <time>2016-12-11T08:20:32.416Z</time>
      </trkpt>
      <trkpt lat="48.05538" lon="2.77941">
        <ele>103</ele>
        <time>2016-12-11T08:20:33.423Z</time>
      </trkpt>
      <trkpt lat="48.05536" lon="2.7794">
        <ele>103</ele>
        <time>2016-12-11T08:20:34.423Z</time>
      </trkpt>
      <trkpt lat="48.05536" lon="2.7794">
        <ele>103</ele>
        <time>2016-12-11T08:20:35.419Z</time>
      </trkpt>
      <trkpt lat="48.05533" lon="2.77939">
        <ele>103</ele>
        <time>2016-12-11T08:20:36.426Z</time>
      </trkpt>
      <trkpt lat="48.05533" lon="2.77939">
        <ele>103</ele>
        <time>2016-12-11T08:20:37.422Z</time>
      </trkpt>
      <trkpt lat="48.0553" lon="2.77935">
        <ele>103</ele>
        <time>2016-12-11T08:20:38.420Z</time>
      </trkpt>
      <trkpt lat="48.0553" lon="2.77935">
        <ele>103</ele>
        <time>2016-12-11T08:20:39.418Z</time>
      </trkpt>
      <trkpt lat="48.0553" lon="2.7793">
        <ele>103</ele>
        <time>2016-12-11T08:20:40.431Z</time>
      </trkpt>
      <trkpt lat="48.0553" lon="2.7793">
        <ele>103</ele>
        <time>2016-12-11T08:20:41.421Z</time>
      </trkpt>
      <trkpt lat="48.05529" lon="2.77927">
        <ele>103</ele>
        <time>2016-12-11T08:20:42.418Z</time>
      </trkpt>
      <trkpt lat="48.05529" lon="2.77927">
        <ele>103</ele>
        <time>2016-12-11T08:20:43.423Z</time>
      </trkpt>
      <trkpt lat="48.05526" lon="2.77927">
        <ele>103</ele>
        <time>2016-12-11T08:20:44.411Z</time>
      </trkpt>
      <trkpt lat="48.05526" lon="2.77927">
        <ele>103</ele>
        <time>2016-12-11T08:20:45.411Z</time>
      </trkpt>
      <trkpt lat="48.05524" lon="2.77929">
        <ele>103</ele>
        <time>2016-12-11T08:20:46.428Z</time>
      </trkpt>
      <trkpt lat="48.05522" lon="2.77931">
        <ele>104</ele>
        <time>2016-12-11T08:20:47.398Z</time>
      </trkpt>
      <trkpt lat="48.05522" lon="2.77931">
        <ele>104</ele>
        <time>2016-12-11T08:20:48.400Z</time>
      </trkpt>
      <trkpt lat="48.05519" lon="2.77935">
        <ele>104</ele>
        <time>2016-12-11T08:20:49.417Z</time>
      </trkpt>
      <trkpt lat="48.05517" lon="2.77936">
        <ele>104</ele>
        <time>2016-12-11T08:20:50.429Z</time>
      </trkpt>
      <trkpt lat="48.05517" lon="2.77936">
        <ele>104</ele>
        <time>2016-12-11T08:20:51.424Z</time>
      </trkpt>
      <trkpt lat="48.05512" lon="2.77935">
        <ele>104</ele>
        <time>2016-12-11T08:20:52.428Z</time>
      </trkpt>
      <trkpt lat="48.05512" lon="2.77935">
        <ele>104</ele>
        <time>2016-12-11T08:20:53.426Z</time>
      </trkpt>
      <trkpt lat="48.05508" lon="2.77935">
        <ele>104</ele>
        <time>2016-12-11T08:20:54.429Z</time>
      </trkpt>
      <trkpt lat="48.05508" lon="2.77935">
        <ele>104</ele>
        <time>2016-12-11T08:20:55.426Z</time>
      </trkpt>
      <trkpt lat="48.05505" lon="2.77935">
        <ele>105</ele>
        <time>2016-12-11T08:20:56.421Z</time>
      </trkpt>
      <trkpt lat="48.05505" lon="2.77935">
        <ele>105</ele>
        <time>2016-12-11T08:20:57.407Z</time>
      </trkpt>
      <trkpt lat="48.05501" lon="2.77933">
        <ele>105</ele>
        <time>2016-12-11T08:20:58.417Z</time>
      </trkpt>
      <trkpt lat="48.05501" lon="2.77933">
        <ele>105</ele>
        <time>2016-12-11T08:20:59.399Z</time>
      </trkpt>
      <trkpt lat="48.05496" lon="2.77931">
        <ele>105</ele>
        <time>2016-12-11T08:21:00.398Z</time>
      </trkpt>
      <trkpt lat="48.05494" lon="2.7793">
        <ele>106</ele>
        <time>2016-12-11T08:21:01.399Z</time>
      </trkpt>
      <trkpt lat="48.05494" lon="2.7793">
        <ele>106</ele>
        <time>2016-12-11T08:21:02.399Z</time>
      </trkpt>
      <trkpt lat="48.0549" lon="2.77926">
        <ele>106</ele>
        <time>2016-12-11T08:21:03.408Z</time>
      </trkpt>
      <trkpt lat="48.05489" lon="2.77924">
        <ele>106</ele>
        <time>2016-12-11T08:21:04.432Z</time>
      </trkpt>
      <trkpt lat="48.05489" lon="2.77924">
        <ele>106</ele>
        <time>2016-12-11T08:21:05.429Z</time>
      </trkpt>
      <trkpt lat="48.05487" lon="2.77921">
        <ele>106</ele>
        <time>2016-12-11T08:21:06.427Z</time>
      </trkpt>
      <trkpt lat="48.05487" lon="2.77921">
        <ele>106</ele>
        <time>2016-12-11T08:21:07.424Z</time>
      </trkpt>
      <trkpt lat="48.05484" lon="2.77917">
        <ele>106</ele>
        <time>2016-12-11T08:21:08.424Z</time>
      </trkpt>
      <trkpt lat="48.05483" lon="2.77915">
        <ele>106</ele>
        <time>2016-12-11T08:21:09.408Z</time>
      </trkpt>
      <trkpt lat="48.05483" lon="2.77915">
        <ele>106</ele>
        <time>2016-12-11T08:21:10.424Z</time>
      </trkpt>
      <trkpt lat="48.05479" lon="2.77912">
        <ele>105</ele>
        <time>2016-12-11T08:21:11.428Z</time>
      </trkpt>
      <trkpt lat="48.05479" lon="2.77912">
        <ele>105</ele>
        <time>2016-12-11T08:21:12.425Z</time>
      </trkpt>
      <trkpt lat="48.05477" lon="2.77908">
        <ele>105</ele>
        <time>2016-12-11T08:21:13.423Z</time>
      </trkpt>
      <trkpt lat="48.05477" lon="2.77908">
        <ele>105</ele>
        <time>2016-12-11T08:21:14.428Z</time>
      </trkpt>
      <trkpt lat="48.05475" lon="2.77903">
        <ele>105</ele>
        <time>2016-12-11T08:21:15.431Z</time>
      </trkpt>
      <trkpt lat="48.05474" lon="2.77901">
        <ele>105</ele>
        <time>2016-12-11T08:21:16.434Z</time>
      </trkpt>
      <trkpt lat="48.05474" lon="2.77901">
        <ele>105</ele>
        <time>2016-12-11T08:21:17.410Z</time>
      </trkpt>
      <trkpt lat="48.05472" lon="2.77896">
        <ele>105</ele>
        <time>2016-12-11T08:21:18.402Z</time>
      </trkpt>
      <trkpt lat="48.05472" lon="2.77896">
        <ele>105</ele>
        <time>2016-12-11T08:21:19.404Z</time>
      </trkpt>
      <trkpt lat="48.05468" lon="2.77892">
        <ele>105</ele>
        <time>2016-12-11T08:21:20.403Z</time>
      </trkpt>
      <trkpt lat="48.05468" lon="2.77892">
        <ele>105</ele>
        <time>2016-12-11T08:21:21.407Z</time>
      </trkpt>
      <trkpt lat="48.05463" lon="2.77889">
        <ele>105</ele>
        <time>2016-12-11T08:21:22.428Z</time>
      </trkpt>
      <trkpt lat="48.05463" lon="2.77889">
        <ele>105</ele>
        <time>2016-12-11T08:21:23.428Z</time>
      </trkpt>
      <trkpt lat="48.05459" lon="2.77886">
        <ele>104</ele>
        <time>2016-12-11T08:21:24.422Z</time>
      </trkpt>
      <trkpt lat="48.05459" lon="2.77886">
        <ele>104</ele>
        <time>2016-12-11T08:21:25.419Z</time>
      </trkpt>
      <trkpt lat="48.05456" lon="2.77883">
        <ele>104</ele>
        <time>2016-12-11T08:21:26.417Z</time>
      </trkpt>
      <trkpt lat="48.05456" lon="2.77883">
        <ele>104</ele>
        <time>2016-12-11T08:21:27.414Z</time>
      </trkpt>
      <trkpt lat="48.05452" lon="2.7788">
        <ele>104</ele>
        <time>2016-12-11T08:21:28.411Z</time>
      </trkpt>
      <trkpt lat="48.05452" lon="2.7788">
        <ele>104</ele>
        <time>2016-12-11T08:21:29.410Z</time>
      </trkpt>
      <trkpt lat="48.05449" lon="2.77879">
        <ele>104</ele>
        <time>2016-12-11T08:21:30.419Z</time>
      </trkpt>
      <trkpt lat="48.05449" lon="2.77879">
        <ele>104</ele>
        <time>2016-12-11T08:21:31.418Z</time>
      </trkpt>
      <trkpt lat="48.05445" lon="2.7788">
        <ele>103</ele>
        <time>2016-12-11T08:21:32.426Z</time>
      </trkpt>
      <trkpt lat="48.05443" lon="2.77879">
        <ele>103</ele>
        <time>2016-12-11T08:21:33.427Z</time>
      </trkpt>
      <trkpt lat="48.05443" lon="2.77879">
        <ele>103</ele>
        <time>2016-12-11T08:21:34.413Z</time>
      </trkpt>
      <trkpt lat="48.05439" lon="2.77876">
        <ele>103</ele>
        <time>2016-12-11T08:21:35.411Z</time>
      </trkpt>
      <trkpt lat="48.05437" lon="2.77875">
        <ele>103</ele>
        <time>2016-12-11T08:21:36.417Z</time>
      </trkpt>
      <trkpt lat="48.05437" lon="2.77875">
        <ele>103</ele>
        <time>2016-12-11T08:21:37.414Z</time>
      </trkpt>
      <trkpt lat="48.05434" lon="2.77874">
        <ele>103</ele>
        <time>2016-12-11T08:21:38.412Z</time>
      </trkpt>
      <trkpt lat="48.05433" lon="2.77874">
        <ele>103</ele>
        <time>2016-12-11T08:21:39.421Z</time>
      </trkpt>
      <trkpt lat="48.05433" lon="2.77874">
        <ele>103</ele>
        <time>2016-12-11T08:21:40.419Z</time>
      </trkpt>
      <trkpt lat="48.05428" lon="2.77873">
        <ele>103</ele>
        <time>2016-12-11T08:21:41.419Z</time>
      </trkpt>
      <trkpt lat="48.05427" lon="2.77872">
        <ele>103</ele>
        <time>2016-12-11T08:21:42.428Z</time>
      </trkpt>
      <trkpt lat="48.05427" lon="2.77872">
        <ele>103</ele>
        <time>2016-12-11T08:21:43.424Z</time>
      </trkpt>
      <trkpt lat="48.05424" lon="2.77874">
        <ele>103</ele>
        <time>2016-12-11T08:21:44.415Z</time>
      </trkpt>
      <trkpt lat="48.05424" lon="2.77874">
        <ele>103</ele>
        <time>2016-12-11T08:21:45.414Z</time>
      </trkpt>
      <trkpt lat="48.0542" lon="2.77878">
        <ele>103</ele>
        <time>2016-12-11T08:21:46.417Z</time>
      </trkpt>
      <trkpt lat="48.05418" lon="2.77881">
        <ele>103</ele>
        <time>2016-12-11T08:21:47.419Z</time>
      </trkpt>
      <trkpt lat="48.05417" lon="2.77884">
        <ele>103</ele>
        <time>2016-12-11T08:21:48.421Z</time>
      </trkpt>
      <trkpt lat="48.05417" lon="2.77884">
        <ele>103</ele>
        <time>2016-12-11T08:21:49.419Z</time>
      </trkpt>
      <trkpt lat="48.05413" lon="2.77883">
        <ele>104</ele>
        <time>2016-12-11T08:21:50.418Z</time>
      </trkpt>
      <trkpt lat="48.05413" lon="2.77883">
        <ele>104</ele>
        <time>2016-12-11T08:21:51.418Z</time>
      </trkpt>
      <trkpt lat="48.05409" lon="2.77882">
        <ele>103</ele>
        <time>2016-12-11T08:21:52.418Z</time>
      </trkpt>
      <trkpt lat="48.05407" lon="2.77883">
        <ele>104</ele>
        <time>2016-12-11T08:21:53.422Z</time>
      </trkpt>
      <trkpt lat="48.05407" lon="2.77883">
        <ele>104</ele>
        <time>2016-12-11T08:21:54.411Z</time>
      </trkpt>
      <trkpt lat="48.05403" lon="2.77885">
        <ele>104</ele>
        <time>2016-12-11T08:21:55.423Z</time>
      </trkpt>
      <trkpt lat="48.05401" lon="2.77888">
        <ele>104</ele>
        <time>2016-12-11T08:21:56.421Z</time>
      </trkpt>
      <trkpt lat="48.05401" lon="2.77888">
        <ele>104</ele>
        <time>2016-12-11T08:21:57.419Z</time>
      </trkpt>
      <trkpt lat="48.05396" lon="2.77893">
        <ele>105</ele>
        <time>2016-12-11T08:21:58.418Z</time>
      </trkpt>
      <trkpt lat="48.05396" lon="2.77893">
        <ele>105</ele>
        <time>2016-12-11T08:21:59.410Z</time>
      </trkpt>
      <trkpt lat="48.05391" lon="2.77893">
        <ele>105</ele>
        <time>2016-12-11T08:22:00.426Z</time>
      </trkpt>
      <trkpt lat="48.05391" lon="2.77893">
        <ele>105</ele>
        <time>2016-12-11T08:22:01.434Z</time>
      </trkpt>
      <trkpt lat="48.05386" lon="2.7789">
        <ele>105</ele>
        <time>2016-12-11T08:22:02.431Z</time>
      </trkpt>
      <trkpt lat="48.05386" lon="2.7789">
        <ele>105</ele>
        <time>2016-12-11T08:22:03.427Z</time>
      </trkpt>
      <trkpt lat="48.0538" lon="2.77889">
        <ele>105</ele>
        <time>2016-12-11T08:22:04.427Z</time>
      </trkpt>
      <trkpt lat="48.05377" lon="2.7789">
        <ele>104</ele>
        <time>2016-12-11T08:22:05.428Z</time>
      </trkpt>
      <trkpt lat="48.05375" lon="2.77892">
        <ele>104</ele>
        <time>2016-12-11T08:22:06.431Z</time>
      </trkpt>
      <trkpt lat="48.05375" lon="2.77892">
        <ele>104</ele>
        <time>2016-12-11T08:22:07.428Z</time>
      </trkpt>
      <trkpt lat="48.05372" lon="2.77901">
        <ele>105</ele>
        <time>2016-12-11T08:22:08.427Z</time>
      </trkpt>
      <trkpt lat="48.05372" lon="2.77901">
        <ele>105</ele>
        <time>2016-12-11T08:22:09.430Z</time>
      </trkpt>
      <trkpt lat="48.05371" lon="2.77912">
        <ele>105</ele>
        <time>2016-12-11T08:22:10.411Z</time>
      </trkpt>
      <trkpt lat="48.05371" lon="2.77912">
        <ele>105</ele>
        <time>2016-12-11T08:22:11.412Z</time>
      </trkpt>
      <trkpt lat="48.05372" lon="2.77923">
        <ele>105</ele>
        <time>2016-12-11T08:22:12.435Z</time>
      </trkpt>
      <trkpt lat="48.05372" lon="2.77923">
        <ele>105</ele>
        <time>2016-12-11T08:22:13.417Z</time>
      </trkpt>
      <trkpt lat="48.05373" lon="2.77936">
        <ele>105</ele>
        <time>2016-12-11T08:22:14.430Z</time>
      </trkpt>
      <trkpt lat="48.05373" lon="2.77936">
        <ele>105</ele>
        <time>2016-12-11T08:22:15.428Z</time>
      </trkpt>
      <trkpt lat="48.05373" lon="2.77952">
        <ele>106</ele>
        <time>2016-12-11T08:22:16.428Z</time>
      </trkpt>
      <trkpt lat="48.05373" lon="2.77952">
        <ele>106</ele>
        <time>2016-12-11T08:22:17.422Z</time>
      </trkpt>
      <trkpt lat="48.05374" lon="2.7797">
        <ele>106</ele>
        <time>2016-12-11T08:22:18.427Z</time>
      </trkpt>
      <trkpt lat="48.05374" lon="2.7797">
        <ele>106</ele>
        <time>2016-12-11T08:22:19.425Z</time>
      </trkpt>
      <trkpt lat="48.05376" lon="2.7799">
        <ele>106</ele>
        <time>2016-12-11T08:22:20.428Z</time>
      </trkpt>
      <trkpt lat="48.05376" lon="2.7799">
        <ele>106</ele>
        <time>2016-12-11T08:22:21.427Z</time>
      </trkpt>
      <trkpt lat="48.05379" lon="2.78011">
        <ele>106</ele>
        <time>2016-12-11T08:22:22.428Z</time>
      </trkpt>
      <trkpt lat="48.05379" lon="2.78011">
        <ele>106</ele>
        <time>2016-12-11T08:22:23.425Z</time>
      </trkpt>
      <trkpt lat="48.0538" lon="2.78034">
        <ele>106</ele>
        <time>2016-12-11T08:22:24.412Z</time>
      </trkpt>
      <trkpt lat="48.0538" lon="2.78034">
        <ele>106</ele>
        <time>2016-12-11T08:22:25.423Z</time>
      </trkpt>
      <trkpt lat="48.05382" lon="2.78058">
        <ele>107</ele>
        <time>2016-12-11T08:22:26.428Z</time>
      </trkpt>
      <trkpt lat="48.05382" lon="2.78058">
        <ele>107</ele>
        <time>2016-12-11T08:22:27.425Z</time>
      </trkpt>
      <trkpt lat="48.05383" lon="2.78081">
        <ele>107</ele>
        <time>2016-12-11T08:22:28.429Z</time>
      </trkpt>
      <trkpt lat="48.05383" lon="2.78081">
        <ele>107</ele>
        <time>2016-12-11T08:22:29.425Z</time>
      </trkpt>
      <trkpt lat="48.05385" lon="2.78103">
        <ele>107</ele>
        <time>2016-12-11T08:22:30.423Z</time>
      </trkpt>
      <trkpt lat="48.05385" lon="2.78103">
        <ele>107</ele>
        <time>2016-12-11T08:22:31.426Z</time>
      </trkpt>
      <trkpt lat="48.05387" lon="2.78123">
        <ele>108</ele>
        <time>2016-12-11T08:22:32.427Z</time>
      </trkpt>
      <trkpt lat="48.05387" lon="2.78123">
        <ele>108</ele>
        <time>2016-12-11T08:22:33.425Z</time>
      </trkpt>
      <trkpt lat="48.0539" lon="2.78142">
        <ele>108</ele>
        <time>2016-12-11T08:22:34.421Z</time>
      </trkpt>
      <trkpt lat="48.0539" lon="2.7815">
        <ele>108</ele>
        <time>2016-12-11T08:22:35.422Z</time>
      </trkpt>
      <trkpt lat="48.05391" lon="2.78159">
        <ele>108</ele>
        <time>2016-12-11T08:22:36.428Z</time>
      </trkpt>
      <trkpt lat="48.05391" lon="2.78159">
        <ele>108</ele>
        <time>2016-12-11T08:22:37.425Z</time>
      </trkpt>
      <trkpt lat="48.05392" lon="2.78174">
        <ele>109</ele>
        <time>2016-12-11T08:22:38.413Z</time>
      </trkpt>
      <trkpt lat="48.05392" lon="2.78181">
        <ele>109</ele>
        <time>2016-12-11T08:22:39.416Z</time>
      </trkpt>
      <trkpt lat="48.05392" lon="2.78181">
        <ele>109</ele>
        <time>2016-12-11T08:22:40.414Z</time>
      </trkpt>
      <trkpt lat="48.05393" lon="2.78193">
        <ele>109</ele>
        <time>2016-12-11T08:22:41.427Z</time>
      </trkpt>
      <trkpt lat="48.05394" lon="2.78199">
        <ele>109</ele>
        <time>2016-12-11T08:22:42.427Z</time>
      </trkpt>
      <trkpt lat="48.05394" lon="2.78199">
        <ele>109</ele>
        <time>2016-12-11T08:22:43.426Z</time>
      </trkpt>
      <trkpt lat="48.05395" lon="2.78209">
        <ele>109</ele>
        <time>2016-12-11T08:22:44.407Z</time>
      </trkpt>
      <trkpt lat="48.05395" lon="2.78209">
        <ele>109</ele>
        <time>2016-12-11T08:22:45.410Z</time>
      </trkpt>
      <trkpt lat="48.05397" lon="2.78218">
        <ele>109</ele>
        <time>2016-12-11T08:22:46.418Z</time>
      </trkpt>
      <trkpt lat="48.05397" lon="2.78218">
        <ele>109</ele>
        <time>2016-12-11T08:22:47.415Z</time>
      </trkpt>
      <trkpt lat="48.05398" lon="2.78227">
        <ele>110</ele>
        <time>2016-12-11T08:22:48.428Z</time>
      </trkpt>
      <trkpt lat="48.05398" lon="2.78227">
        <ele>110</ele>
        <time>2016-12-11T08:22:49.425Z</time>
      </trkpt>
      <trkpt lat="48.05398" lon="2.78236">
        <ele>110</ele>
        <time>2016-12-11T08:22:50.400Z</time>
      </trkpt>
      <trkpt lat="48.05398" lon="2.78236">
        <ele>110</ele>
        <time>2016-12-11T08:22:51.400Z</time>
      </trkpt>
      <trkpt lat="48.05399" lon="2.78245">
        <ele>110</ele>
        <time>2016-12-11T08:22:52.403Z</time>
      </trkpt>
      <trkpt lat="48.05399" lon="2.7825">
        <ele>110</ele>
        <time>2016-12-11T08:22:53.402Z</time>
      </trkpt>
      <trkpt lat="48.05399" lon="2.7825">
        <ele>110</ele>
        <time>2016-12-11T08:22:54.428Z</time>
      </trkpt>
      <trkpt lat="48.054" lon="2.7826">
        <ele>110</ele>
        <time>2016-12-11T08:22:55.400Z</time>
      </trkpt>
      <trkpt lat="48.05401" lon="2.78264">
        <ele>110</ele>
        <time>2016-12-11T08:22:56.402Z</time>
      </trkpt>
      <trkpt lat="48.05401" lon="2.78264">
        <ele>110</ele>
        <time>2016-12-11T08:22:57.400Z</time>
      </trkpt>
      <trkpt lat="48.05402" lon="2.78273">
        <ele>111</ele>
        <time>2016-12-11T08:22:58.420Z</time>
      </trkpt>
      <trkpt lat="48.05403" lon="2.78278">
        <ele>111</ele>
        <time>2016-12-11T08:22:59.422Z</time>
      </trkpt>
      <trkpt lat="48.05403" lon="2.78278">
        <ele>111</ele>
        <time>2016-12-11T08:23:00.426Z</time>
      </trkpt>
      <trkpt lat="48.05403" lon="2.78287">
        <ele>111</ele>
        <time>2016-12-11T08:23:01.422Z</time>
      </trkpt>
      <trkpt lat="48.05404" lon="2.78291">
        <ele>111</ele>
        <time>2016-12-11T08:23:02.421Z</time>
      </trkpt>
      <trkpt lat="48.05404" lon="2.78296">
        <ele>112</ele>
        <time>2016-12-11T08:23:03.422Z</time>
      </trkpt>
      <trkpt lat="48.05404" lon="2.78296">
        <ele>112</ele>
        <time>2016-12-11T08:23:04.411Z</time>
      </trkpt>
      <trkpt lat="48.05406" lon="2.78305">
        <ele>112</ele>
        <time>2016-12-11T08:23:05.427Z</time>
      </trkpt>
      <trkpt lat="48.05406" lon="2.78309">
        <ele>113</ele>
        <time>2016-12-11T08:23:06.427Z</time>
      </trkpt>
      <trkpt lat="48.05406" lon="2.78309">
        <ele>113</ele>
        <time>2016-12-11T08:23:07.422Z</time>
      </trkpt>
      <trkpt lat="48.05407" lon="2.78319">
        <ele>114</ele>
        <time>2016-12-11T08:23:08.419Z</time>
      </trkpt>
      <trkpt lat="48.05407" lon="2.78319">
        <ele>114</ele>
        <time>2016-12-11T08:23:09.412Z</time>
      </trkpt>
      <trkpt lat="48.05409" lon="2.78328">
        <ele>114</ele>
        <time>2016-12-11T08:23:10.417Z</time>
      </trkpt>
      <trkpt lat="48.05409" lon="2.78328">
        <ele>114</ele>
        <time>2016-12-11T08:23:11.419Z</time>
      </trkpt>
      <trkpt lat="48.05409" lon="2.78336">
        <ele>115</ele>
        <time>2016-12-11T08:23:12.396Z</time>
      </trkpt>
      <trkpt lat="48.05409" lon="2.78341">
        <ele>115</ele>
        <time>2016-12-11T08:23:13.423Z</time>
      </trkpt>
      <trkpt lat="48.05409" lon="2.78341">
        <ele>115</ele>
        <time>2016-12-11T08:23:14.411Z</time>
      </trkpt>
      <trkpt lat="48.0541" lon="2.7835">
        <ele>116</ele>
        <time>2016-12-11T08:23:15.424Z</time>
      </trkpt>
      <trkpt lat="48.0541" lon="2.7835">
        <ele>116</ele>
        <time>2016-12-11T08:23:16.421Z</time>
      </trkpt>
      <trkpt lat="48.05411" lon="2.78358">
        <ele>117</ele>
        <time>2016-12-11T08:23:17.401Z</time>
      </trkpt>
      <trkpt lat="48.05411" lon="2.78363">
        <ele>118</ele>
        <time>2016-12-11T08:23:18.404Z</time>
      </trkpt>
      <trkpt lat="48.05411" lon="2.78363">
        <ele>118</ele>
        <time>2016-12-11T08:23:19.409Z</time>
      </trkpt>
      <trkpt lat="48.05411" lon="2.78371">
        <ele>118</ele>
        <time>2016-12-11T08:23:20.412Z</time>
      </trkpt>
      <trkpt lat="48.05412" lon="2.78376">
        <ele>118</ele>
        <time>2016-12-11T08:23:21.427Z</time>
      </trkpt>
      <trkpt lat="48.05412" lon="2.78376">
        <ele>118</ele>
        <time>2016-12-11T08:23:22.427Z</time>
      </trkpt>
      <trkpt lat="48.05413" lon="2.78385">
        <ele>118</ele>
        <time>2016-12-11T08:23:23.423Z</time>
      </trkpt>
      <trkpt lat="48.05413" lon="2.78385">
        <ele>118</ele>
        <time>2016-12-11T08:23:24.412Z</time>
      </trkpt>
      <trkpt lat="48.05414" lon="2.78394">
        <ele>119</ele>
        <time>2016-12-11T08:23:25.417Z</time>
      </trkpt>
      <trkpt lat="48.05414" lon="2.78398">
        <ele>118</ele>
        <time>2016-12-11T08:23:26.424Z</time>
      </trkpt>
      <trkpt lat="48.05414" lon="2.78398">
        <ele>118</ele>
        <time>2016-12-11T08:23:27.420Z</time>
      </trkpt>
      <trkpt lat="48.05415" lon="2.78407">
        <ele>119</ele>
        <time>2016-12-11T08:23:28.421Z</time>
      </trkpt>
      <trkpt lat="48.05415" lon="2.78407">
        <ele>119</ele>
        <time>2016-12-11T08:23:29.417Z</time>
      </trkpt>
      <trkpt lat="48.05416" lon="2.78418">
        <ele>121</ele>
        <time>2016-12-11T08:23:30.426Z</time>
      </trkpt>
      <trkpt lat="48.05416" lon="2.78418">
        <ele>121</ele>
        <time>2016-12-11T08:23:31.423Z</time>
      </trkpt>
      <trkpt lat="48.05417" lon="2.78427">
        <ele>121</ele>
        <time>2016-12-11T08:23:32.427Z</time>
      </trkpt>
      <trkpt lat="48.05417" lon="2.78432">
        <ele>121</ele>
        <time>2016-12-11T08:23:33.431Z</time>
      </trkpt>
      <trkpt lat="48.05417" lon="2.78432">
        <ele>121</ele>
        <time>2016-12-11T08:23:34.419Z</time>
      </trkpt>
      <trkpt lat="48.05419" lon="2.78442">
        <ele>121</ele>
        <time>2016-12-11T08:23:35.428Z</time>
      </trkpt>
      <trkpt lat="48.05419" lon="2.78446">
        <ele>121</ele>
        <time>2016-12-11T08:23:36.430Z</time>
      </trkpt>
      <trkpt lat="48.05419" lon="2.78446">
        <ele>121</ele>
        <time>2016-12-11T08:23:37.424Z</time>
      </trkpt>
      <trkpt lat="48.0542" lon="2.78455">
        <ele>122</ele>
        <time>2016-12-11T08:23:38.422Z</time>
      </trkpt>
      <trkpt lat="48.0542" lon="2.78455">
        <ele>122</ele>
        <time>2016-12-11T08:23:39.419Z</time>
      </trkpt>
      <trkpt lat="48.0542" lon="2.78464">
        <ele>122</ele>
        <time>2016-12-11T08:23:40.430Z</time>
      </trkpt>
      <trkpt lat="48.0542" lon="2.78464">
        <ele>122</ele>
        <time>2016-12-11T08:23:41.429Z</time>
      </trkpt>
      <trkpt lat="48.05421" lon="2.78474">
        <ele>122</ele>
        <time>2016-12-11T08:23:42.435Z</time>
      </trkpt>
      <trkpt lat="48.05421" lon="2.7848">
        <ele>122</ele>
        <time>2016-12-11T08:23:43.402Z</time>
      </trkpt>
      <trkpt lat="48.05421" lon="2.7848">
        <ele>122</ele>
        <time>2016-12-11T08:23:44.430Z</time>
      </trkpt>
      <trkpt lat="48.05423" lon="2.7849">
        <ele>122</ele>
        <time>2016-12-11T08:23:45.430Z</time>
      </trkpt>
      <trkpt lat="48.05423" lon="2.7849">
        <ele>122</ele>
        <time>2016-12-11T08:23:46.405Z</time>
      </trkpt>
      <trkpt lat="48.05426" lon="2.78495">
        <ele>123</ele>
        <time>2016-12-11T08:23:47.411Z</time>
      </trkpt>
      <trkpt lat="48.05432" lon="2.78494">
        <ele>124</ele>
        <time>2016-12-11T08:23:48.420Z</time>
      </trkpt>
      <trkpt lat="48.05432" lon="2.78494">
        <ele>124</ele>
        <time>2016-12-11T08:23:49.413Z</time>
      </trkpt>
      <trkpt lat="48.05438" lon="2.78493">
        <ele>124</ele>
        <time>2016-12-11T08:23:50.427Z</time>
      </trkpt>
      <trkpt lat="48.05438" lon="2.78493">
        <ele>124</ele>
        <time>2016-12-11T08:23:51.425Z</time>
      </trkpt>
      <trkpt lat="48.05446" lon="2.78491">
        <ele>126</ele>
        <time>2016-12-11T08:23:52.403Z</time>
      </trkpt>
      <trkpt lat="48.05446" lon="2.78491">
        <ele>126</ele>
        <time>2016-12-11T08:23:53.411Z</time>
      </trkpt>
      <trkpt lat="48.05452" lon="2.78487">
        <ele>126</ele>
        <time>2016-12-11T08:23:54.396Z</time>
      </trkpt>
      <trkpt lat="48.05452" lon="2.78487">
        <ele>126</ele>
        <time>2016-12-11T08:23:55.431Z</time>
      </trkpt>
      <trkpt lat="48.05459" lon="2.78484">
        <ele>126</ele>
        <time>2016-12-11T08:23:56.396Z</time>
      </trkpt>
      <trkpt lat="48.05463" lon="2.78482">
        <ele>127</ele>
        <time>2016-12-11T08:23:57.396Z</time>
      </trkpt>
      <trkpt lat="48.05463" lon="2.78482">
        <ele>127</ele>
        <time>2016-12-11T08:23:58.431Z</time>
      </trkpt>
      <trkpt lat="48.05469" lon="2.78477">
        <ele>127</ele>
        <time>2016-12-11T08:23:59.399Z</time>
      </trkpt>
      <trkpt lat="48.05469" lon="2.78477">
        <ele>127</ele>
        <time>2016-12-11T08:24:00.396Z</time>
      </trkpt>
      <trkpt lat="48.05474" lon="2.78472">
        <ele>127</ele>
        <time>2016-12-11T08:24:01.432Z</time>
      </trkpt>
      <trkpt lat="48.05477" lon="2.7847">
        <ele>128</ele>
        <time>2016-12-11T08:24:02.408Z</time>
      </trkpt>
      <trkpt lat="48.05477" lon="2.7847">
        <ele>128</ele>
        <time>2016-12-11T08:24:03.408Z</time>
      </trkpt>
      <trkpt lat="48.05485" lon="2.78467">
        <ele>128</ele>
        <time>2016-12-11T08:24:04.404Z</time>
      </trkpt>
      <trkpt lat="48.05485" lon="2.78467">
        <ele>128</ele>
        <time>2016-12-11T08:24:05.402Z</time>
      </trkpt>
      <trkpt lat="48.05494" lon="2.78465">
        <ele>128</ele>
        <time>2016-12-11T08:24:06.402Z</time>
      </trkpt>
      <trkpt lat="48.05494" lon="2.78465">
        <ele>128</ele>
        <time>2016-12-11T08:24:07.412Z</time>
      </trkpt>
      <trkpt lat="48.05502" lon="2.78462">
        <ele>128</ele>
        <time>2016-12-11T08:24:08.418Z</time>
      </trkpt>
      <trkpt lat="48.05502" lon="2.78462">
        <ele>128</ele>
        <time>2016-12-11T08:24:09.419Z</time>
      </trkpt>
      <trkpt lat="48.0551" lon="2.78462">
        <ele>128</ele>
        <time>2016-12-11T08:24:10.433Z</time>
      </trkpt>
      <trkpt lat="48.05514" lon="2.78462">
        <ele>128</ele>
        <time>2016-12-11T08:24:11.431Z</time>
      </trkpt>
      <trkpt lat="48.05514" lon="2.78462">
        <ele>128</ele>
        <time>2016-12-11T08:24:12.433Z</time>
      </trkpt>
      <trkpt lat="48.05523" lon="2.7846">
        <ele>127</ele>
        <time>2016-12-11T08:24:13.421Z</time>
      </trkpt>
      <trkpt lat="48.05527" lon="2.7846">
        <ele>128</ele>
        <time>2016-12-11T08:24:14.431Z</time>
      </trkpt>
      <trkpt lat="48.05527" lon="2.7846">
        <ele>128</ele>
        <time>2016-12-11T08:24:15.432Z</time>
      </trkpt>
      <trkpt lat="48.05535" lon="2.7846">
        <ele>128</ele>
        <time>2016-12-11T08:24:16.411Z</time>
      </trkpt>
      <trkpt lat="48.05535" lon="2.7846">
        <ele>128</ele>
        <time>2016-12-11T08:24:17.416Z</time>
      </trkpt>
      <trkpt lat="48.05545" lon="2.78457">
        <ele>128</ele>
        <time>2016-12-11T08:24:18.417Z</time>
      </trkpt>
      <trkpt lat="48.05545" lon="2.78457">
        <ele>128</ele>
        <time>2016-12-11T08:24:19.415Z</time>
      </trkpt>
      <trkpt lat="48.05554" lon="2.78456">
        <ele>127</ele>
        <time>2016-12-11T08:24:20.415Z</time>
      </trkpt>
      <trkpt lat="48.05554" lon="2.78456">
        <ele>127</ele>
        <time>2016-12-11T08:24:21.415Z</time>
      </trkpt>
      <trkpt lat="48.05564" lon="2.78453">
        <ele>127</ele>
        <time>2016-12-11T08:24:22.418Z</time>
      </trkpt>
      <trkpt lat="48.05564" lon="2.78453">
        <ele>127</ele>
        <time>2016-12-11T08:24:23.419Z</time>
      </trkpt>
      <trkpt lat="48.05573" lon="2.78451">
        <ele>127</ele>
        <time>2016-12-11T08:24:24.414Z</time>
      </trkpt>
      <trkpt lat="48.05573" lon="2.78451">
        <ele>127</ele>
        <time>2016-12-11T08:24:25.412Z</time>
      </trkpt>
      <trkpt lat="48.05584" lon="2.7845">
        <ele>128</ele>
        <time>2016-12-11T08:24:26.413Z</time>
      </trkpt>
      <trkpt lat="48.05584" lon="2.7845">
        <ele>128</ele>
        <time>2016-12-11T08:24:27.410Z</time>
      </trkpt>
      <trkpt lat="48.05595" lon="2.78446">
        <ele>128</ele>
        <time>2016-12-11T08:24:28.422Z</time>
      </trkpt>
      <trkpt lat="48.05595" lon="2.78446">
        <ele>128</ele>
        <time>2016-12-11T08:24:29.421Z</time>
      </trkpt>
      <trkpt lat="48.05607" lon="2.78443">
        <ele>127</ele>
        <time>2016-12-11T08:24:30.435Z</time>
      </trkpt>
      <trkpt lat="48.05607" lon="2.78443">
        <ele>127</ele>
        <time>2016-12-11T08:24:31.432Z</time>
      </trkpt>
      <trkpt lat="48.05619" lon="2.7844">
        <ele>125</ele>
        <time>2016-12-11T08:24:32.434Z</time>
      </trkpt>
      <trkpt lat="48.05619" lon="2.7844">
        <ele>125</ele>
        <time>2016-12-11T08:24:33.408Z</time>
      </trkpt>
      <trkpt lat="48.05631" lon="2.78437">
        <ele>124</ele>
        <time>2016-12-11T08:24:34.428Z</time>
      </trkpt>
      <trkpt lat="48.05637" lon="2.78435">
        <ele>124</ele>
        <time>2016-12-11T08:24:35.430Z</time>
      </trkpt>
      <trkpt lat="48.05637" lon="2.78435">
        <ele>124</ele>
        <time>2016-12-11T08:24:36.428Z</time>
      </trkpt>
      <trkpt lat="48.05648" lon="2.78434">
        <ele>125</ele>
        <time>2016-12-11T08:24:37.428Z</time>
      </trkpt>
      <trkpt lat="48.05654" lon="2.78434">
        <ele>126</ele>
        <time>2016-12-11T08:24:38.429Z</time>
      </trkpt>
      <trkpt lat="48.05654" lon="2.78434">
        <ele>126</ele>
        <time>2016-12-11T08:24:39.427Z</time>
      </trkpt>
      <trkpt lat="48.05666" lon="2.78431">
        <ele>125</ele>
        <time>2016-12-11T08:24:40.430Z</time>
      </trkpt>
      <trkpt lat="48.05673" lon="2.78429">
        <ele>124</ele>
        <time>2016-12-11T08:24:41.432Z</time>
      </trkpt>
      <trkpt lat="48.0568" lon="2.78428">
        <ele>123</ele>
        <time>2016-12-11T08:24:42.430Z</time>
      </trkpt>
      <trkpt lat="48.0568" lon="2.78428">
        <ele>123</ele>
        <time>2016-12-11T08:24:43.428Z</time>
      </trkpt>
      <trkpt lat="48.05696" lon="2.78426">
        <ele>120</ele>
        <time>2016-12-11T08:24:44.420Z</time>
      </trkpt>
      <trkpt lat="48.05696" lon="2.78426">
        <ele>120</ele>
        <time>2016-12-11T08:24:45.417Z</time>
      </trkpt>
      <trkpt lat="48.05713" lon="2.78424">
        <ele>118</ele>
        <time>2016-12-11T08:24:46.418Z</time>
      </trkpt>
      <trkpt lat="48.05713" lon="2.78424">
        <ele>118</ele>
        <time>2016-12-11T08:24:47.416Z</time>
      </trkpt>
      <trkpt lat="48.0573" lon="2.7842">
        <ele>115</ele>
        <time>2016-12-11T08:24:48.413Z</time>
      </trkpt>
      <trkpt lat="48.0573" lon="2.7842">
        <ele>115</ele>
        <time>2016-12-11T08:24:49.412Z</time>
      </trkpt>
      <trkpt lat="48.05746" lon="2.78415">
        <ele>113</ele>
        <time>2016-12-11T08:24:50.418Z</time>
      </trkpt>
      <trkpt lat="48.05746" lon="2.78415">
        <ele>113</ele>
        <time>2016-12-11T08:24:51.415Z</time>
      </trkpt>
      <trkpt lat="48.05761" lon="2.78413">
        <ele>112</ele>
        <time>2016-12-11T08:24:52.423Z</time>
      </trkpt>
      <trkpt lat="48.05761" lon="2.78413">
        <ele>112</ele>
        <time>2016-12-11T08:24:53.426Z</time>
      </trkpt>
      <trkpt lat="48.05775" lon="2.7841">
        <ele>111</ele>
        <time>2016-12-11T08:24:54.423Z</time>
      </trkpt>
      <trkpt lat="48.05775" lon="2.7841">
        <ele>111</ele>
        <time>2016-12-11T08:24:55.420Z</time>
      </trkpt>
      <trkpt lat="48.0579" lon="2.78409">
        <ele>110</ele>
        <time>2016-12-11T08:24:56.418Z</time>
      </trkpt>
      <trkpt lat="48.0579" lon="2.78409">
        <ele>110</ele>
        <time>2016-12-11T08:24:57.415Z</time>
      </trkpt>
      <trkpt lat="48.05807" lon="2.78404">
        <ele>107</ele>
        <time>2016-12-11T08:24:58.431Z</time>
      </trkpt>
      <trkpt lat="48.05815" lon="2.78402">
        <ele>106</ele>
        <time>2016-12-11T08:24:59.428Z</time>
      </trkpt>
      <trkpt lat="48.05815" lon="2.78402">
        <ele>106</ele>
        <time>2016-12-11T08:25:00.427Z</time>
      </trkpt>
      <trkpt lat="48.05827" lon="2.78398">
        <ele>104</ele>
        <time>2016-12-11T08:25:01.428Z</time>
      </trkpt>
      <trkpt lat="48.05833" lon="2.78396">
        <ele>103</ele>
        <time>2016-12-11T08:25:02.416Z</time>
      </trkpt>
      <trkpt lat="48.05833" lon="2.78396">
        <ele>103</ele>
        <time>2016-12-11T08:25:03.426Z</time>
      </trkpt>
      <trkpt lat="48.05843" lon="2.78394">
        <ele>105</ele>
        <time>2016-12-11T08:25:04.423Z</time>
      </trkpt>
      <trkpt lat="48.05843" lon="2.78394">
        <ele>105</ele>
        <time>2016-12-11T08:25:05.420Z</time>
      </trkpt>
      <trkpt lat="48.0585" lon="2.7839">
        <ele>103</ele>
        <time>2016-12-11T08:25:06.417Z</time>
      </trkpt>
      <trkpt lat="48.0585" lon="2.7839">
        <ele>103</ele>
        <time>2016-12-11T08:25:07.427Z</time>
      </trkpt>
      <trkpt lat="48.05854" lon="2.7838">
        <ele>101</ele>
        <time>2016-12-11T08:25:08.423Z</time>
      </trkpt>
      <trkpt lat="48.05856" lon="2.78376">
        <ele>100</ele>
        <time>2016-12-11T08:25:09.423Z</time>
      </trkpt>
      <trkpt lat="48.05856" lon="2.78376">
        <ele>100</ele>
        <time>2016-12-11T08:25:10.422Z</time>
      </trkpt>
      <trkpt lat="48.05861" lon="2.78371">
        <ele>100</ele>
        <time>2016-12-11T08:25:11.428Z</time>
      </trkpt>
      <trkpt lat="48.05862" lon="2.78371">
        <ele>100</ele>
        <time>2016-12-11T08:25:12.427Z</time>
      </trkpt>
      <trkpt lat="48.05862" lon="2.78371">
        <ele>100</ele>
        <time>2016-12-11T08:25:13.426Z</time>
      </trkpt>
      <trkpt lat="48.05866" lon="2.78375">
        <ele>99</ele>
        <time>2016-12-11T08:25:14.423Z</time>
      </trkpt>
      <trkpt lat="48.05866" lon="2.78375">
        <ele>99</ele>
        <time>2016-12-11T08:25:15.421Z</time>
      </trkpt>
      <trkpt lat="48.05871" lon="2.78381">
        <ele>98</ele>
        <time>2016-12-11T08:25:16.417Z</time>
      </trkpt>
      <trkpt lat="48.05871" lon="2.78381">
        <ele>98</ele>
        <time>2016-12-11T08:25:17.430Z</time>
      </trkpt>
      <trkpt lat="48.05874" lon="2.78388">
        <ele>98</ele>
        <time>2016-12-11T08:25:18.402Z</time>
      </trkpt>
      <trkpt lat="48.05876" lon="2.78392">
        <ele>98</ele>
        <time>2016-12-11T08:25:19.419Z</time>
      </trkpt>
      <trkpt lat="48.05876" lon="2.78392">
        <ele>98</ele>
        <time>2016-12-11T08:25:20.416Z</time>
      </trkpt>
      <trkpt lat="48.05879" lon="2.784">
        <ele>98</ele>
        <time>2016-12-11T08:25:21.428Z</time>
      </trkpt>
      <trkpt lat="48.05879" lon="2.784">
        <ele>98</ele>
        <time>2016-12-11T08:25:22.425Z</time>
      </trkpt>
      <trkpt lat="48.05881" lon="2.78406">
        <ele>99</ele>
        <time>2016-12-11T08:25:23.411Z</time>
      </trkpt>
      <trkpt lat="48.05884" lon="2.78408">
        <ele>98</ele>
        <time>2016-12-11T08:25:24.403Z</time>
      </trkpt>
      <trkpt lat="48.05884" lon="2.78408">
        <ele>98</ele>
        <time>2016-12-11T08:25:25.407Z</time>
      </trkpt>
      <trkpt lat="48.05889" lon="2.78412">
        <ele>98</ele>
        <time>2016-12-11T08:25:26.404Z</time>
      </trkpt>
      <trkpt lat="48.05889" lon="2.78412">
        <ele>98</ele>
        <time>2016-12-11T08:25:27.418Z</time>
      </trkpt>
      <trkpt lat="48.05893" lon="2.78416">
        <ele>98</ele>
        <time>2016-12-11T08:25:28.417Z</time>
      </trkpt>
      <trkpt lat="48.05896" lon="2.78418">
        <ele>98</ele>
        <time>2016-12-11T08:25:29.419Z</time>
      </trkpt>
      <trkpt lat="48.05896" lon="2.78418">
        <ele>98</ele>
        <time>2016-12-11T08:25:30.416Z</time>
      </trkpt>
      <trkpt lat="48.05899" lon="2.78421">
        <ele>98</ele>
        <time>2016-12-11T08:25:31.428Z</time>
      </trkpt>
      <trkpt lat="48.05901" lon="2.78421">
        <ele>98</ele>
        <time>2016-12-11T08:25:32.428Z</time>
      </trkpt>
      <trkpt lat="48.05901" lon="2.78421">
        <ele>98</ele>
        <time>2016-12-11T08:25:33.429Z</time>
      </trkpt>
      <trkpt lat="48.05906" lon="2.78423">
        <ele>99</ele>
        <time>2016-12-11T08:25:34.418Z</time>
      </trkpt>
      <trkpt lat="48.05906" lon="2.78423">
        <ele>99</ele>
        <time>2016-12-11T08:25:35.420Z</time>
      </trkpt>
      <trkpt lat="48.0591" lon="2.78426">
        <ele>99</ele>
        <time>2016-12-11T08:25:36.421Z</time>
      </trkpt>
      <trkpt lat="48.0591" lon="2.78426">
        <ele>99</ele>
        <time>2016-12-11T08:25:37.418Z</time>
      </trkpt>
      <trkpt lat="48.05914" lon="2.78428">
        <ele>100</ele>
        <time>2016-12-11T08:25:38.419Z</time>
      </trkpt>
      <trkpt lat="48.05914" lon="2.78428">
        <ele>100</ele>
        <time>2016-12-11T08:25:39.413Z</time>
      </trkpt>
      <trkpt lat="48.05918" lon="2.7843">
        <ele>100</ele>
        <time>2016-12-11T08:25:40.429Z</time>
      </trkpt>
      <trkpt lat="48.05918" lon="2.7843">
        <ele>100</ele>
        <time>2016-12-11T08:25:41.426Z</time>
      </trkpt>
      <trkpt lat="48.05921" lon="2.78431">
        <ele>100</ele>
        <time>2016-12-11T08:25:42.429Z</time>
      </trkpt>
      <trkpt lat="48.05921" lon="2.78431">
        <ele>100</ele>
        <time>2016-12-11T08:25:43.412Z</time>
      </trkpt>
      <trkpt lat="48.05924" lon="2.78432">
        <ele>100</ele>
        <time>2016-12-11T08:25:44.424Z</time>
      </trkpt>
      <trkpt lat="48.05924" lon="2.78432">
        <ele>100</ele>
        <time>2016-12-11T08:25:45.402Z</time>
      </trkpt>
      <trkpt lat="48.05927" lon="2.78433">
        <ele>100</ele>
        <time>2016-12-11T08:25:46.403Z</time>
      </trkpt>
      <trkpt lat="48.05927" lon="2.78433">
        <ele>100</ele>
        <time>2016-12-11T08:25:47.407Z</time>
      </trkpt>
      <trkpt lat="48.05931" lon="2.78435">
        <ele>101</ele>
        <time>2016-12-11T08:25:48.423Z</time>
      </trkpt>
      <trkpt lat="48.05931" lon="2.78435">
        <ele>101</ele>
        <time>2016-12-11T08:25:49.422Z</time>
      </trkpt>
      <trkpt lat="48.05935" lon="2.78436">
        <ele>100</ele>
        <time>2016-12-11T08:25:50.424Z</time>
      </trkpt>
      <trkpt lat="48.05935" lon="2.78436">
        <ele>100</ele>
        <time>2016-12-11T08:25:51.419Z</time>
      </trkpt>
      <trkpt lat="48.05937" lon="2.78439">
        <ele>100</ele>
        <time>2016-12-11T08:25:52.423Z</time>
      </trkpt>
      <trkpt lat="48.05937" lon="2.78439">
        <ele>100</ele>
        <time>2016-12-11T08:25:53.422Z</time>
      </trkpt>
      <trkpt lat="48.05939" lon="2.78441">
        <ele>101</ele>
        <time>2016-12-11T08:25:54.420Z</time>
      </trkpt>
      <trkpt lat="48.05939" lon="2.78441">
        <ele>101</ele>
        <time>2016-12-11T08:25:55.416Z</time>
      </trkpt>
      <trkpt lat="48.05942" lon="2.78443">
        <ele>101</ele>
        <time>2016-12-11T08:25:56.423Z</time>
      </trkpt>
      <trkpt lat="48.05942" lon="2.78443">
        <ele>101</ele>
        <time>2016-12-11T08:25:57.421Z</time>
      </trkpt>
      <trkpt lat="48.05944" lon="2.78446">
        <ele>101</ele>
        <time>2016-12-11T08:25:58.419Z</time>
      </trkpt>
      <trkpt lat="48.05944" lon="2.78446">
        <ele>101</ele>
        <time>2016-12-11T08:25:59.409Z</time>
      </trkpt>
      <trkpt lat="48.05946" lon="2.78448">
        <ele>101</ele>
        <time>2016-12-11T08:26:00.428Z</time>
      </trkpt>
      <trkpt lat="48.05946" lon="2.78448">
        <ele>101</ele>
        <time>2016-12-11T08:26:01.425Z</time>
      </trkpt>
      <trkpt lat="48.0595" lon="2.78451">
        <ele>102</ele>
        <time>2016-12-11T08:26:02.422Z</time>
      </trkpt>
      <trkpt lat="48.0595" lon="2.78451">
        <ele>102</ele>
        <time>2016-12-11T08:26:03.416Z</time>
      </trkpt>
      <trkpt lat="48.05953" lon="2.78454">
        <ele>102</ele>
        <time>2016-12-11T08:26:04.423Z</time>
      </trkpt>
      <trkpt lat="48.05953" lon="2.78454">
        <ele>102</ele>
        <time>2016-12-11T08:26:05.421Z</time>
      </trkpt>
      <trkpt lat="48.05956" lon="2.78456">
        <ele>101</ele>
        <time>2016-12-11T08:26:06.421Z</time>
      </trkpt>
      <trkpt lat="48.05956" lon="2.78456">
        <ele>101</ele>
        <time>2016-12-11T08:26:07.417Z</time>
      </trkpt>
      <trkpt lat="48.05959" lon="2.7846">
        <ele>101</ele>
        <time>2016-12-11T08:26:08.428Z</time>
      </trkpt>
      <trkpt lat="48.05959" lon="2.7846">
        <ele>101</ele>
        <time>2016-12-11T08:26:09.425Z</time>
      </trkpt>
      <trkpt lat="48.05961" lon="2.78464">
        <ele>102</ele>
        <time>2016-12-11T08:26:10.431Z</time>
      </trkpt>
      <trkpt lat="48.05963" lon="2.78465">
        <ele>102</ele>
        <time>2016-12-11T08:26:11.430Z</time>
      </trkpt>
      <trkpt lat="48.05963" lon="2.78465">
        <ele>102</ele>
        <time>2016-12-11T08:26:12.427Z</time>
      </trkpt>
      <trkpt lat="48.05967" lon="2.78469">
        <ele>102</ele>
        <time>2016-12-11T08:26:13.429Z</time>
      </trkpt>
      <trkpt lat="48.05968" lon="2.78472">
        <ele>102</ele>
        <time>2016-12-11T08:26:14.424Z</time>
      </trkpt>
      <trkpt lat="48.05968" lon="2.78472">
        <ele>102</ele>
        <time>2016-12-11T08:26:15.421Z</time>
      </trkpt>
      <trkpt lat="48.0597" lon="2.78477">
        <ele>103</ele>
        <time>2016-12-11T08:26:16.422Z</time>
      </trkpt>
      <trkpt lat="48.0597" lon="2.78477">
        <ele>103</ele>
        <time>2016-12-11T08:26:17.429Z</time>
      </trkpt>
      <trkpt lat="48.05972" lon="2.7848">
        <ele>104</ele>
        <time>2016-12-11T08:26:18.408Z</time>
      </trkpt>
      <trkpt lat="48.05972" lon="2.7848">
        <ele>104</ele>
        <time>2016-12-11T08:26:19.418Z</time>
      </trkpt>
      <trkpt lat="48.05976" lon="2.78486">
        <ele>105</ele>
        <time>2016-12-11T08:26:20.429Z</time>
      </trkpt>
      <trkpt lat="48.05976" lon="2.78486">
        <ele>105</ele>
        <time>2016-12-11T08:26:21.426Z</time>
      </trkpt>
      <trkpt lat="48.05978" lon="2.78489">
        <ele>105</ele>
        <time>2016-12-11T08:26:22.423Z</time>
      </trkpt>
      <trkpt lat="48.05978" lon="2.78489">
        <ele>105</ele>
        <time>2016-12-11T08:26:23.419Z</time>
      </trkpt>
      <trkpt lat="48.05979" lon="2.78493">
        <ele>105</ele>
        <time>2016-12-11T08:26:24.412Z</time>
      </trkpt>
      <trkpt lat="48.05979" lon="2.78493">
        <ele>105</ele>
        <time>2016-12-11T08:26:25.409Z</time>
      </trkpt>
      <trkpt lat="48.05981" lon="2.78496">
        <ele>105</ele>
        <time>2016-12-11T08:26:26.423Z</time>
      </trkpt>
      <trkpt lat="48.05981" lon="2.78496">
        <ele>105</ele>
        <time>2016-12-11T08:26:27.420Z</time>
      </trkpt>
      <trkpt lat="48.05983" lon="2.78501">
        <ele>106</ele>
        <time>2016-12-11T08:26:28.429Z</time>
      </trkpt>
      <trkpt lat="48.05983" lon="2.78501">
        <ele>106</ele>
        <time>2016-12-11T08:26:29.428Z</time>
      </trkpt>
      <trkpt lat="48.05986" lon="2.78506">
        <ele>107</ele>
        <time>2016-12-11T08:26:30.423Z</time>
      </trkpt>
      <trkpt lat="48.05986" lon="2.78506">
        <ele>107</ele>
        <time>2016-12-11T08:26:31.420Z</time>
      </trkpt>
      <trkpt lat="48.05988" lon="2.7851">
        <ele>108</ele>
        <time>2016-12-11T08:26:32.416Z</time>
      </trkpt>
      <trkpt lat="48.05988" lon="2.7851">
        <ele>108</ele>
        <time>2016-12-11T08:26:33.418Z</time>
      </trkpt>
      <trkpt lat="48.05991" lon="2.78514">
        <ele>108</ele>
        <time>2016-12-11T08:26:34.431Z</time>
      </trkpt>
      <trkpt lat="48.05992" lon="2.78515">
        <ele>108</ele>
        <time>2016-12-11T08:26:35.431Z</time>
      </trkpt>
      <trkpt lat="48.05993" lon="2.78518">
        <ele>108</ele>
        <time>2016-12-11T08:26:36.431Z</time>
      </trkpt>
      <trkpt lat="48.05993" lon="2.78518">
        <ele>108</ele>
        <time>2016-12-11T08:26:37.430Z</time>
      </trkpt>
      <trkpt lat="48.05997" lon="2.78522">
        <ele>108</ele>
        <time>2016-12-11T08:26:38.428Z</time>
      </trkpt>
      <trkpt lat="48.05998" lon="2.78525">
        <ele>108</ele>
        <time>2016-12-11T08:26:39.400Z</time>
      </trkpt>
      <trkpt lat="48.05998" lon="2.78525">
        <ele>108</ele>
        <time>2016-12-11T08:26:40.396Z</time>
      </trkpt>
      <trkpt lat="48.06" lon="2.7853">
        <ele>108</ele>
        <time>2016-12-11T08:26:41.434Z</time>
      </trkpt>
      <trkpt lat="48.06001" lon="2.78533">
        <ele>108</ele>
        <time>2016-12-11T08:26:42.434Z</time>
      </trkpt>
      <trkpt lat="48.06001" lon="2.78533">
        <ele>108</ele>
        <time>2016-12-11T08:26:43.429Z</time>
      </trkpt>
      <trkpt lat="48.06003" lon="2.78539">
        <ele>109</ele>
        <time>2016-12-11T08:26:44.420Z</time>
      </trkpt>
      <trkpt lat="48.06004" lon="2.78541">
        <ele>109</ele>
        <time>2016-12-11T08:26:45.422Z</time>
      </trkpt>
      <trkpt lat="48.06004" lon="2.78541">
        <ele>109</ele>
        <time>2016-12-11T08:26:46.422Z</time>
      </trkpt>
      <trkpt lat="48.06005" lon="2.78546">
        <ele>108</ele>
        <time>2016-12-11T08:26:47.421Z</time>
      </trkpt>
      <trkpt lat="48.06004" lon="2.78549">
        <ele>108</ele>
        <time>2016-12-11T08:26:48.430Z</time>
      </trkpt>
      <trkpt lat="48.06004" lon="2.78549">
        <ele>108</ele>
        <time>2016-12-11T08:26:49.428Z</time>
      </trkpt>
      <trkpt lat="48.06002" lon="2.78551">
        <ele>108</ele>
        <time>2016-12-11T08:26:50.428Z</time>
      </trkpt>
      <trkpt lat="48.06002" lon="2.78551">
        <ele>108</ele>
        <time>2016-12-11T08:26:51.425Z</time>
      </trkpt>
      <trkpt lat="48.06" lon="2.78554">
        <ele>109</ele>
        <time>2016-12-11T08:26:52.429Z</time>
      </trkpt>
      <trkpt lat="48.06" lon="2.78554">
        <ele>109</ele>
        <time>2016-12-11T08:26:53.428Z</time>
      </trkpt>
      <trkpt lat="48.05997" lon="2.78558">
        <ele>108</ele>
        <time>2016-12-11T08:26:54.404Z</time>
      </trkpt>
      <trkpt lat="48.05997" lon="2.78558">
        <ele>108</ele>
        <time>2016-12-11T08:26:55.411Z</time>
      </trkpt>
      <trkpt lat="48.05994" lon="2.78561">
        <ele>108</ele>
        <time>2016-12-11T08:26:56.429Z</time>
      </trkpt>
      <trkpt lat="48.05994" lon="2.78561">
        <ele>108</ele>
        <time>2016-12-11T08:26:57.426Z</time>
      </trkpt>
      <trkpt lat="48.05991" lon="2.78564">
        <ele>109</ele>
        <time>2016-12-11T08:26:58.424Z</time>
      </trkpt>
      <trkpt lat="48.05991" lon="2.78564">
        <ele>109</ele>
        <time>2016-12-11T08:26:59.422Z</time>
      </trkpt>
      <trkpt lat="48.05988" lon="2.78569">
        <ele>109</ele>
        <time>2016-12-11T08:27:00.418Z</time>
      </trkpt>
      <trkpt lat="48.05988" lon="2.78569">
        <ele>109</ele>
        <time>2016-12-11T08:27:01.415Z</time>
      </trkpt>
      <trkpt lat="48.05985" lon="2.78573">
        <ele>110</ele>
        <time>2016-12-11T08:27:02.414Z</time>
      </trkpt>
      <trkpt lat="48.05984" lon="2.78575">
        <ele>110</ele>
        <time>2016-12-11T08:27:03.424Z</time>
      </trkpt>
      <trkpt lat="48.05984" lon="2.78575">
        <ele>110</ele>
        <time>2016-12-11T08:27:04.415Z</time>
      </trkpt>
      <trkpt lat="48.05981" lon="2.78579">
        <ele>110</ele>
        <time>2016-12-11T08:27:05.419Z</time>
      </trkpt>
      <trkpt lat="48.05979" lon="2.78582">
        <ele>110</ele>
        <time>2016-12-11T08:27:06.417Z</time>
      </trkpt>
      <trkpt lat="48.05979" lon="2.78582">
        <ele>110</ele>
        <time>2016-12-11T08:27:07.407Z</time>
      </trkpt>
      <trkpt lat="48.05974" lon="2.78588">
        <ele>111</ele>
        <time>2016-12-11T08:27:08.404Z</time>
      </trkpt>
      <trkpt lat="48.05974" lon="2.78588">
        <ele>111</ele>
        <time>2016-12-11T08:27:09.412Z</time>
      </trkpt>
      <trkpt lat="48.0597" lon="2.78594">
        <ele>112</ele>
        <time>2016-12-11T08:27:10.423Z</time>
      </trkpt>
      <trkpt lat="48.0597" lon="2.78594">
        <ele>112</ele>
        <time>2016-12-11T08:27:11.423Z</time>
      </trkpt>
      <trkpt lat="48.05964" lon="2.78601">
        <ele>112</ele>
        <time>2016-12-11T08:27:12.409Z</time>
      </trkpt>
      <trkpt lat="48.05962" lon="2.78604">
        <ele>113</ele>
        <time>2016-12-11T08:27:13.419Z</time>
      </trkpt>
      <trkpt lat="48.05962" lon="2.78604">
        <ele>113</ele>
        <time>2016-12-11T08:27:14.431Z</time>
      </trkpt>
      <trkpt lat="48.0596" lon="2.78611">
        <ele>114</ele>
        <time>2016-12-11T08:27:15.420Z</time>
      </trkpt>
      <trkpt lat="48.0596" lon="2.78611">
        <ele>114</ele>
        <time>2016-12-11T08:27:16.418Z</time>
      </trkpt>
      <trkpt lat="48.05957" lon="2.78621">
        <ele>115</ele>
        <time>2016-12-11T08:27:17.431Z</time>
      </trkpt>
      <trkpt lat="48.05956" lon="2.78626">
        <ele>115</ele>
        <time>2016-12-11T08:27:18.401Z</time>
      </trkpt>
      <trkpt lat="48.05955" lon="2.78631">
        <ele>115</ele>
        <time>2016-12-11T08:27:19.420Z</time>
      </trkpt>
      <trkpt lat="48.05954" lon="2.78636">
        <ele>116</ele>
        <time>2016-12-11T08:27:20.419Z</time>
      </trkpt>
      <trkpt lat="48.05954" lon="2.78636">
        <ele>116</ele>
        <time>2016-12-11T08:27:21.416Z</time>
      </trkpt>
      <trkpt lat="48.05951" lon="2.78647">
        <ele>117</ele>
        <time>2016-12-11T08:27:22.416Z</time>
      </trkpt>
      <trkpt lat="48.05949" lon="2.78652">
        <ele>117</ele>
        <time>2016-12-11T08:27:23.431Z</time>
      </trkpt>
      <trkpt lat="48.05947" lon="2.78656">
        <ele>117</ele>
        <time>2016-12-11T08:27:24.421Z</time>
      </trkpt>
      <trkpt lat="48.05947" lon="2.78656">
        <ele>117</ele>
        <time>2016-12-11T08:27:25.411Z</time>
      </trkpt>
      <trkpt lat="48.05944" lon="2.78665">
        <ele>118</ele>
        <time>2016-12-11T08:27:26.430Z</time>
      </trkpt>
      <trkpt lat="48.05944" lon="2.78665">
        <ele>118</ele>
        <time>2016-12-11T08:27:27.402Z</time>
      </trkpt>
      <trkpt lat="48.05941" lon="2.78676">
        <ele>118</ele>
        <time>2016-12-11T08:27:28.402Z</time>
      </trkpt>
      <trkpt lat="48.0594" lon="2.78681">
        <ele>119</ele>
        <time>2016-12-11T08:27:29.402Z</time>
      </trkpt>
      <trkpt lat="48.0594" lon="2.78681">
        <ele>119</ele>
        <time>2016-12-11T08:27:30.403Z</time>
      </trkpt>
      <trkpt lat="48.05938" lon="2.78691">
        <ele>119</ele>
        <time>2016-12-11T08:27:31.424Z</time>
      </trkpt>
      <trkpt lat="48.05938" lon="2.78691">
        <ele>119</ele>
        <time>2016-12-11T08:27:32.419Z</time>
      </trkpt>
      <trkpt lat="48.05934" lon="2.78702">
        <ele>120</ele>
        <time>2016-12-11T08:27:33.423Z</time>
      </trkpt>
      <trkpt lat="48.05934" lon="2.78702">
        <ele>120</ele>
        <time>2016-12-11T08:27:34.416Z</time>
      </trkpt>
      <trkpt lat="48.0593" lon="2.78713">
        <ele>120</ele>
        <time>2016-12-11T08:27:35.417Z</time>
      </trkpt>
      <trkpt lat="48.05928" lon="2.78719">
        <ele>120</ele>
        <time>2016-12-11T08:27:36.421Z</time>
      </trkpt>
      <trkpt lat="48.05928" lon="2.78719">
        <ele>120</ele>
        <time>2016-12-11T08:27:37.421Z</time>
      </trkpt>
      <trkpt lat="48.05924" lon="2.7873">
        <ele>121</ele>
        <time>2016-12-11T08:27:38.396Z</time>
      </trkpt>
      <trkpt lat="48.05924" lon="2.7873">
        <ele>121</ele>
        <time>2016-12-11T08:27:39.430Z</time>
      </trkpt>
      <trkpt lat="48.0592" lon="2.78739">
        <ele>121</ele>
        <time>2016-12-11T08:27:40.404Z</time>
      </trkpt>
      <trkpt lat="48.0592" lon="2.78739">
        <ele>121</ele>
        <time>2016-12-11T08:27:41.402Z</time>
      </trkpt>
      <trkpt lat="48.05916" lon="2.78749">
        <ele>122</ele>
        <time>2016-12-11T08:27:42.398Z</time>
      </trkpt>
      <trkpt lat="48.05916" lon="2.78749">
        <ele>122</ele>
        <time>2016-12-11T08:27:43.412Z</time>
      </trkpt>
      <trkpt lat="48.05911" lon="2.78761">
        <ele>122</ele>
        <time>2016-12-11T08:27:44.402Z</time>
      </trkpt>
      <trkpt lat="48.05911" lon="2.78761">
        <ele>122</ele>
        <time>2016-12-11T08:27:45.407Z</time>
      </trkpt>
      <trkpt lat="48.05909" lon="2.78774">
        <ele>123</ele>
        <time>2016-12-11T08:27:46.404Z</time>
      </trkpt>
      <trkpt lat="48.05908" lon="2.78781">
        <ele>123</ele>
        <time>2016-12-11T08:27:47.408Z</time>
      </trkpt>
      <trkpt lat="48.05908" lon="2.78781">
        <ele>123</ele>
        <time>2016-12-11T08:27:48.411Z</time>
      </trkpt>
      <trkpt lat="48.05907" lon="2.78792">
        <ele>123</ele>
        <time>2016-12-11T08:27:49.429Z</time>
      </trkpt>
      <trkpt lat="48.05907" lon="2.78792">
        <ele>123</ele>
        <time>2016-12-11T08:27:50.430Z</time>
      </trkpt>
      <trkpt lat="48.05905" lon="2.78803">
        <ele>124</ele>
        <time>2016-12-11T08:27:51.430Z</time>
      </trkpt>
      <trkpt lat="48.05905" lon="2.78803">
        <ele>124</ele>
        <time>2016-12-11T08:27:52.430Z</time>
      </trkpt>
      <trkpt lat="48.05903" lon="2.78813">
        <ele>124</ele>
        <time>2016-12-11T08:27:53.430Z</time>
      </trkpt>
      <trkpt lat="48.05902" lon="2.78818">
        <ele>124</ele>
        <time>2016-12-11T08:27:54.419Z</time>
      </trkpt>
      <trkpt lat="48.05902" lon="2.78818">
        <ele>124</ele>
        <time>2016-12-11T08:27:55.418Z</time>
      </trkpt>
      <trkpt lat="48.05897" lon="2.78829">
        <ele>125</ele>
        <time>2016-12-11T08:27:56.421Z</time>
      </trkpt>
      <trkpt lat="48.05897" lon="2.78829">
        <ele>125</ele>
        <time>2016-12-11T08:27:57.418Z</time>
      </trkpt>
      <trkpt lat="48.05894" lon="2.7884">
        <ele>125</ele>
        <time>2016-12-11T08:27:58.423Z</time>
      </trkpt>
      <trkpt lat="48.05891" lon="2.78846">
        <ele>125</ele>
        <time>2016-12-11T08:27:59.429Z</time>
      </trkpt>
      <trkpt lat="48.05889" lon="2.78851">
        <ele>126</ele>
        <time>2016-12-11T08:28:00.430Z</time>
      </trkpt>
      <trkpt lat="48.05889" lon="2.78851">
        <ele>126</ele>
        <time>2016-12-11T08:28:01.427Z</time>
      </trkpt>
      <trkpt lat="48.05885" lon="2.78864">
        <ele>126</ele>
        <time>2016-12-11T08:28:02.435Z</time>
      </trkpt>
      <trkpt lat="48.05884" lon="2.78869">
        <ele>126</ele>
        <time>2016-12-11T08:28:03.403Z</time>
      </trkpt>
      <trkpt lat="48.05884" lon="2.78869">
        <ele>126</ele>
        <time>2016-12-11T08:28:04.429Z</time>
      </trkpt>
      <trkpt lat="48.05881" lon="2.78881">
        <ele>127</ele>
        <time>2016-12-11T08:28:05.431Z</time>
      </trkpt>
      <trkpt lat="48.05879" lon="2.78887">
        <ele>127</ele>
        <time>2016-12-11T08:28:06.397Z</time>
      </trkpt>
      <trkpt lat="48.05879" lon="2.78887">
        <ele>127</ele>
        <time>2016-12-11T08:28:07.430Z</time>
      </trkpt>
      <trkpt lat="48.05877" lon="2.789">
        <ele>127</ele>
        <time>2016-12-11T08:28:08.428Z</time>
      </trkpt>
      <trkpt lat="48.05877" lon="2.789">
        <ele>127</ele>
        <time>2016-12-11T08:28:09.424Z</time>
      </trkpt>
      <trkpt lat="48.05873" lon="2.78912">
        <ele>128</ele>
        <time>2016-12-11T08:28:10.422Z</time>
      </trkpt>
      <trkpt lat="48.05872" lon="2.78917">
        <ele>128</ele>
        <time>2016-12-11T08:28:11.434Z</time>
      </trkpt>
      <trkpt lat="48.05872" lon="2.78917">
        <ele>128</ele>
        <time>2016-12-11T08:28:12.430Z</time>
      </trkpt>
      <trkpt lat="48.0587" lon="2.7893">
        <ele>128</ele>
        <time>2016-12-11T08:28:13.431Z</time>
      </trkpt>
      <trkpt lat="48.05868" lon="2.78936">
        <ele>128</ele>
        <time>2016-12-11T08:28:14.429Z</time>
      </trkpt>
      <trkpt lat="48.05868" lon="2.78936">
        <ele>128</ele>
        <time>2016-12-11T08:28:15.423Z</time>
      </trkpt>
      <trkpt lat="48.05866" lon="2.78947">
        <ele>129</ele>
        <time>2016-12-11T08:28:16.423Z</time>
      </trkpt>
      <trkpt lat="48.05866" lon="2.78947">
        <ele>129</ele>
        <time>2016-12-11T08:28:17.418Z</time>
      </trkpt>
      <trkpt lat="48.05863" lon="2.78957">
        <ele>130</ele>
        <time>2016-12-11T08:28:18.410Z</time>
      </trkpt>
      <trkpt lat="48.05863" lon="2.78957">
        <ele>130</ele>
        <time>2016-12-11T08:28:19.417Z</time>
      </trkpt>
      <trkpt lat="48.05859" lon="2.78964">
        <ele>131</ele>
        <time>2016-12-11T08:28:20.430Z</time>
      </trkpt>
      <trkpt lat="48.05859" lon="2.78964">
        <ele>131</ele>
        <time>2016-12-11T08:28:21.432Z</time>
      </trkpt>
      <trkpt lat="48.05854" lon="2.78967">
        <ele>132</ele>
        <time>2016-12-11T08:28:22.433Z</time>
      </trkpt>
      <trkpt lat="48.05852" lon="2.78967">
        <ele>132</ele>
        <time>2016-12-11T08:28:23.405Z</time>
      </trkpt>
      <trkpt lat="48.0585" lon="2.78966">
        <ele>132</ele>
        <time>2016-12-11T08:28:24.430Z</time>
      </trkpt>
      <trkpt lat="48.0585" lon="2.78966">
        <ele>132</ele>
        <time>2016-12-11T08:28:25.435Z</time>
      </trkpt>
      <trkpt lat="48.05843" lon="2.78967">
        <ele>132</ele>
        <time>2016-12-11T08:28:26.413Z</time>
      </trkpt>
      <trkpt lat="48.05843" lon="2.78967">
        <ele>132</ele>
        <time>2016-12-11T08:28:27.410Z</time>
      </trkpt>
      <trkpt lat="48.05839" lon="2.78972">
        <ele>132</ele>
        <time>2016-12-11T08:28:28.424Z</time>
      </trkpt>
      <trkpt lat="48.05836" lon="2.78975">
        <ele>132</ele>
        <time>2016-12-11T08:28:29.432Z</time>
      </trkpt>
      <trkpt lat="48.05836" lon="2.78975">
        <ele>132</ele>
        <time>2016-12-11T08:28:30.431Z</time>
      </trkpt>
      <trkpt lat="48.05834" lon="2.78982">
        <ele>133</ele>
        <time>2016-12-11T08:28:31.431Z</time>
      </trkpt>
      <trkpt lat="48.05833" lon="2.78986">
        <ele>133</ele>
        <time>2016-12-11T08:28:32.429Z</time>
      </trkpt>
      <trkpt lat="48.05833" lon="2.78986">
        <ele>133</ele>
        <time>2016-12-11T08:28:33.426Z</time>
      </trkpt>
      <trkpt lat="48.0583" lon="2.78993">
        <ele>134</ele>
        <time>2016-12-11T08:28:34.431Z</time>
      </trkpt>
      <trkpt lat="48.0583" lon="2.78993">
        <ele>134</ele>
        <time>2016-12-11T08:28:35.396Z</time>
      </trkpt>
      <trkpt lat="48.05825" lon="2.79">
        <ele>135</ele>
        <time>2016-12-11T08:28:36.435Z</time>
      </trkpt>
      <trkpt lat="48.05825" lon="2.79">
        <ele>135</ele>
        <time>2016-12-11T08:28:37.430Z</time>
      </trkpt>
      <trkpt lat="48.05822" lon="2.7901">
        <ele>135</ele>
        <time>2016-12-11T08:28:38.431Z</time>
      </trkpt>
      <trkpt lat="48.05822" lon="2.7901">
        <ele>135</ele>
        <time>2016-12-11T08:28:39.427Z</time>
      </trkpt>
      <trkpt lat="48.05819" lon="2.79016">
        <ele>136</ele>
        <time>2016-12-11T08:28:40.403Z</time>
      </trkpt>
      <trkpt lat="48.05818" lon="2.79018">
        <ele>136</ele>
        <time>2016-12-11T08:28:41.428Z</time>
      </trkpt>
      <trkpt lat="48.05816" lon="2.7902">
        <ele>136</ele>
        <time>2016-12-11T08:28:42.429Z</time>
      </trkpt>
      <trkpt lat="48.05816" lon="2.7902">
        <ele>136</ele>
        <time>2016-12-11T08:28:43.425Z</time>
      </trkpt>
      <trkpt lat="48.05812" lon="2.79019">
        <ele>136</ele>
        <time>2016-12-11T08:28:44.422Z</time>
      </trkpt>
      <trkpt lat="48.05812" lon="2.79019">
        <ele>136</ele>
        <time>2016-12-11T08:28:45.421Z</time>
      </trkpt>
      <trkpt lat="48.05807" lon="2.79017">
        <ele>136</ele>
        <time>2016-12-11T08:28:46.424Z</time>
      </trkpt>
      <trkpt lat="48.05805" lon="2.79016">
        <ele>136</ele>
        <time>2016-12-11T08:28:47.430Z</time>
      </trkpt>
      <trkpt lat="48.05803" lon="2.79017">
        <ele>136</ele>
        <time>2016-12-11T08:28:48.430Z</time>
      </trkpt>
      <trkpt lat="48.05803" lon="2.79017">
        <ele>136</ele>
        <time>2016-12-11T08:28:49.428Z</time>
      </trkpt>
      <trkpt lat="48.05798" lon="2.7902">
        <ele>136</ele>
        <time>2016-12-11T08:28:50.429Z</time>
      </trkpt>
      <trkpt lat="48.05798" lon="2.7902">
        <ele>136</ele>
        <time>2016-12-11T08:28:51.426Z</time>
      </trkpt>
      <trkpt lat="48.05795" lon="2.79025">
        <ele>137</ele>
        <time>2016-12-11T08:28:52.431Z</time>
      </trkpt>
      <trkpt lat="48.05793" lon="2.79028">
        <ele>137</ele>
        <time>2016-12-11T08:28:53.432Z</time>
      </trkpt>
      <trkpt lat="48.05793" lon="2.79028">
        <ele>137</ele>
        <time>2016-12-11T08:28:54.420Z</time>
      </trkpt>
      <trkpt lat="48.0579" lon="2.79032">
        <ele>137</ele>
        <time>2016-12-11T08:28:55.421Z</time>
      </trkpt>
      <trkpt lat="48.05788" lon="2.79033">
        <ele>137</ele>
        <time>2016-12-11T08:28:56.405Z</time>
      </trkpt>
      <trkpt lat="48.05788" lon="2.79033">
        <ele>137</ele>
        <time>2016-12-11T08:28:57.409Z</time>
      </trkpt>
      <trkpt lat="48.05786" lon="2.79034">
        <ele>137</ele>
        <time>2016-12-11T08:28:58.405Z</time>
      </trkpt>
      <trkpt lat="48.05786" lon="2.79034">
        <ele>137</ele>
        <time>2016-12-11T08:28:59.422Z</time>
      </trkpt>
      <trkpt lat="48.05784" lon="2.79032">
        <ele>137</ele>
        <time>2016-12-11T08:29:00.418Z</time>
      </trkpt>
      <trkpt lat="48.05784" lon="2.79032">
        <ele>137</ele>
        <time>2016-12-11T08:29:01.416Z</time>
      </trkpt>
      <trkpt lat="48.05785" lon="2.79026">
        <ele>136</ele>
        <time>2016-12-11T08:29:02.420Z</time>
      </trkpt>
      <trkpt lat="48.05785" lon="2.79023">
        <ele>136</ele>
        <time>2016-12-11T08:29:03.421Z</time>
      </trkpt>
      <trkpt lat="48.05785" lon="2.79023">
        <ele>136</ele>
        <time>2016-12-11T08:29:04.411Z</time>
      </trkpt>
      <trkpt lat="48.05788" lon="2.79014">
        <ele>135</ele>
        <time>2016-12-11T08:29:05.417Z</time>
      </trkpt>
      <trkpt lat="48.05789" lon="2.79011">
        <ele>135</ele>
        <time>2016-12-11T08:29:06.433Z</time>
      </trkpt>
      <trkpt lat="48.05789" lon="2.79011">
        <ele>135</ele>
        <time>2016-12-11T08:29:07.427Z</time>
      </trkpt>
      <trkpt lat="48.0579" lon="2.79006">
        <ele>134</ele>
        <time>2016-12-11T08:29:08.429Z</time>
      </trkpt>
      <trkpt lat="48.0579" lon="2.79006">
        <ele>134</ele>
        <time>2016-12-11T08:29:09.428Z</time>
      </trkpt>
      <trkpt lat="48.05789" lon="2.79002">
        <ele>133</ele>
        <time>2016-12-11T08:29:10.431Z</time>
      </trkpt>
      <trkpt lat="48.05789" lon="2.79002">
        <ele>133</ele>
        <time>2016-12-11T08:29:11.429Z</time>
      </trkpt>
      <trkpt lat="48.05787" lon="2.78998">
        <ele>133</ele>
        <time>2016-12-11T08:29:12.425Z</time>
      </trkpt>
      <trkpt lat="48.05787" lon="2.78998">
        <ele>133</ele>
        <time>2016-12-11T08:29:13.415Z</time>
      </trkpt>
      <trkpt lat="48.05783" lon="2.78999">
        <ele>133</ele>
        <time>2016-12-11T08:29:14.430Z</time>
      </trkpt>
      <trkpt lat="48.05783" lon="2.78999">
        <ele>133</ele>
        <time>2016-12-11T08:29:15.428Z</time>
      </trkpt>
      <trkpt lat="48.05778" lon="2.79003">
        <ele>132</ele>
        <time>2016-12-11T08:29:16.432Z</time>
      </trkpt>
      <trkpt lat="48.05778" lon="2.79003">
        <ele>132</ele>
        <time>2016-12-11T08:29:17.428Z</time>
      </trkpt>
      <trkpt lat="48.05774" lon="2.79008">
        <ele>132</ele>
        <time>2016-12-11T08:29:18.421Z</time>
      </trkpt>
      <trkpt lat="48.05774" lon="2.79008">
        <ele>132</ele>
        <time>2016-12-11T08:29:19.420Z</time>
      </trkpt>
      <trkpt lat="48.05769" lon="2.79013">
        <ele>132</ele>
        <time>2016-12-11T08:29:20.429Z</time>
      </trkpt>
      <trkpt lat="48.05769" lon="2.79013">
        <ele>132</ele>
        <time>2016-12-11T08:29:21.430Z</time>
      </trkpt>
      <trkpt lat="48.05766" lon="2.79016">
        <ele>132</ele>
        <time>2016-12-11T08:29:22.434Z</time>
      </trkpt>
      <trkpt lat="48.05766" lon="2.79016">
        <ele>132</ele>
        <time>2016-12-11T08:29:23.432Z</time>
      </trkpt>
      <trkpt lat="48.05762" lon="2.79022">
        <ele>132</ele>
        <time>2016-12-11T08:29:24.429Z</time>
      </trkpt>
      <trkpt lat="48.05762" lon="2.79022">
        <ele>132</ele>
        <time>2016-12-11T08:29:25.427Z</time>
      </trkpt>
      <trkpt lat="48.05761" lon="2.79027">
        <ele>132</ele>
        <time>2016-12-11T08:29:26.431Z</time>
      </trkpt>
      <trkpt lat="48.05761" lon="2.79027">
        <ele>132</ele>
        <time>2016-12-11T08:29:27.429Z</time>
      </trkpt>
      <trkpt lat="48.05759" lon="2.79031">
        <ele>132</ele>
        <time>2016-12-11T08:29:28.432Z</time>
      </trkpt>
      <trkpt lat="48.05759" lon="2.79031">
        <ele>132</ele>
        <time>2016-12-11T08:29:29.429Z</time>
      </trkpt>
      <trkpt lat="48.05758" lon="2.79033">
        <ele>132</ele>
        <time>2016-12-11T08:29:30.429Z</time>
      </trkpt>
      <trkpt lat="48.05758" lon="2.79034">
        <ele>132</ele>
        <time>2016-12-11T08:29:31.433Z</time>
      </trkpt>
      <trkpt lat="48.05758" lon="2.79034">
        <ele>132</ele>
        <time>2016-12-11T08:29:32.431Z</time>
      </trkpt>
      <trkpt lat="48.05757" lon="2.79035">
        <ele>132</ele>
        <time>2016-12-11T08:29:33.408Z</time>
      </trkpt>
      <trkpt lat="48.05757" lon="2.79035">
        <ele>132</ele>
        <time>2016-12-11T08:29:34.434Z</time>
      </trkpt>
      <trkpt lat="48.05757" lon="2.79039">
        <ele>132</ele>
        <time>2016-12-11T08:29:35.431Z</time>
      </trkpt>
      <trkpt lat="48.05756" lon="2.7904">
        <ele>132</ele>
        <time>2016-12-11T08:29:36.434Z</time>
      </trkpt>
      <trkpt lat="48.05756" lon="2.7904">
        <ele>132</ele>
        <time>2016-12-11T08:29:37.431Z</time>
      </trkpt>
      <trkpt lat="48.05753" lon="2.79044">
        <ele>132</ele>
        <time>2016-12-11T08:29:38.429Z</time>
      </trkpt>
      <trkpt lat="48.05753" lon="2.79044">
        <ele>132</ele>
        <time>2016-12-11T08:29:39.425Z</time>
      </trkpt>
      <trkpt lat="48.0575" lon="2.79048">
        <ele>132</ele>
        <time>2016-12-11T08:29:40.403Z</time>
      </trkpt>
      <trkpt lat="48.05748" lon="2.79049">
        <ele>132</ele>
        <time>2016-12-11T08:29:41.403Z</time>
      </trkpt>
      <trkpt lat="48.05748" lon="2.79049">
        <ele>132</ele>
        <time>2016-12-11T08:29:42.403Z</time>
      </trkpt>
      <trkpt lat="48.05744" lon="2.79051">
        <ele>132</ele>
        <time>2016-12-11T08:29:43.430Z</time>
      </trkpt>
      <trkpt lat="48.05742" lon="2.79052">
        <ele>132</ele>
        <time>2016-12-11T08:29:44.429Z</time>
      </trkpt>
      <trkpt lat="48.05742" lon="2.79052">
        <ele>132</ele>
        <time>2016-12-11T08:29:45.410Z</time>
      </trkpt>
      <trkpt lat="48.05739" lon="2.79056">
        <ele>132</ele>
        <time>2016-12-11T08:29:46.421Z</time>
      </trkpt>
      <trkpt lat="48.05738" lon="2.79059">
        <ele>132</ele>
        <time>2016-12-11T08:29:47.421Z</time>
      </trkpt>
      <trkpt lat="48.05738" lon="2.79059">
        <ele>132</ele>
        <time>2016-12-11T08:29:48.419Z</time>
      </trkpt>
      <trkpt lat="48.05738" lon="2.79063">
        <ele>132</ele>
        <time>2016-12-11T08:29:49.432Z</time>
      </trkpt>
      <trkpt lat="48.05739" lon="2.79064">
        <ele>132</ele>
        <time>2016-12-11T08:29:50.431Z</time>
      </trkpt>
      <trkpt lat="48.05739" lon="2.79064">
        <ele>132</ele>
        <time>2016-12-11T08:29:51.430Z</time>
      </trkpt>
      <trkpt lat="48.0574" lon="2.79066">
        <ele>132</ele>
        <time>2016-12-11T08:29:52.431Z</time>
      </trkpt>
      <trkpt lat="48.0574" lon="2.79066">
        <ele>132</ele>
        <time>2016-12-11T08:29:53.426Z</time>
      </trkpt>
      <trkpt lat="48.0574" lon="2.79067">
        <ele>132</ele>
        <time>2016-12-11T08:29:54.430Z</time>
      </trkpt>
      <trkpt lat="48.0574" lon="2.79067">
        <ele>132</ele>
        <time>2016-12-11T08:29:55.428Z</time>
      </trkpt>
      <trkpt lat="48.05741" lon="2.79069">
        <ele>132</ele>
        <time>2016-12-11T08:29:56.432Z</time>
      </trkpt>
      <trkpt lat="48.05741" lon="2.79069">
        <ele>132</ele>
        <time>2016-12-11T08:29:57.430Z</time>
      </trkpt>
      <trkpt lat="48.05741" lon="2.79069">
        <ele>132</ele>
        <time>2016-12-11T08:29:58.427Z</time>
      </trkpt>
      <trkpt lat="48.05741" lon="2.79071">
        <ele>132</ele>
        <time>2016-12-11T08:29:59.429Z</time>
      </trkpt>
      <trkpt lat="48.05741" lon="2.79072">
        <ele>132</ele>
        <time>2016-12-11T08:30:00.430Z</time>
      </trkpt>
      <trkpt lat="48.05741" lon="2.79072">
        <ele>132</ele>
        <time>2016-12-11T08:30:01.428Z</time>
      </trkpt>
      <trkpt lat="48.05737" lon="2.79076">
        <ele>132</ele>
        <time>2016-12-11T08:30:02.429Z</time>
      </trkpt>
      <trkpt lat="48.05737" lon="2.79076">
        <ele>132</ele>
        <time>2016-12-11T08:30:03.428Z</time>
      </trkpt>
      <trkpt lat="48.05735" lon="2.79079">
        <ele>132</ele>
        <time>2016-12-11T08:30:04.423Z</time>
      </trkpt>
      <trkpt lat="48.05734" lon="2.7908">
        <ele>132</ele>
        <time>2016-12-11T08:30:05.432Z</time>
      </trkpt>
      <trkpt lat="48.05734" lon="2.7908">
        <ele>132</ele>
        <time>2016-12-11T08:30:06.429Z</time>
      </trkpt>
      <trkpt lat="48.05732" lon="2.79084">
        <ele>132</ele>
        <time>2016-12-11T08:30:07.429Z</time>
      </trkpt>
      <trkpt lat="48.05731" lon="2.79086">
        <ele>132</ele>
        <time>2016-12-11T08:30:08.430Z</time>
      </trkpt>
      <trkpt lat="48.0573" lon="2.79087">
        <ele>132</ele>
        <time>2016-12-11T08:30:09.409Z</time>
      </trkpt>
      <trkpt lat="48.0573" lon="2.79087">
        <ele>132</ele>
        <time>2016-12-11T08:30:10.403Z</time>
      </trkpt>
      <trkpt lat="48.05727" lon="2.79089">
        <ele>132</ele>
        <time>2016-12-11T08:30:11.402Z</time>
      </trkpt>
      <trkpt lat="48.05725" lon="2.7909">
        <ele>132</ele>
        <time>2016-12-11T08:30:12.404Z</time>
      </trkpt>
      <trkpt lat="48.05725" lon="2.7909">
        <ele>132</ele>
        <time>2016-12-11T08:30:13.408Z</time>
      </trkpt>
      <trkpt lat="48.05723" lon="2.79091">
        <ele>132</ele>
        <time>2016-12-11T08:30:14.406Z</time>
      </trkpt>
      <trkpt lat="48.05723" lon="2.79091">
        <ele>132</ele>
        <time>2016-12-11T08:30:15.412Z</time>
      </trkpt>
      <trkpt lat="48.0572" lon="2.79093">
        <ele>132</ele>
        <time>2016-12-11T08:30:16.431Z</time>
      </trkpt>
      <trkpt lat="48.0572" lon="2.79093">
        <ele>132</ele>
        <time>2016-12-11T08:30:17.428Z</time>
      </trkpt>
      <trkpt lat="48.0572" lon="2.79095">
        <ele>132</ele>
        <time>2016-12-11T08:30:18.435Z</time>
      </trkpt>
      <trkpt lat="48.0572" lon="2.79095">
        <ele>132</ele>
        <time>2016-12-11T08:30:19.401Z</time>
      </trkpt>
      <trkpt lat="48.05721" lon="2.79099">
        <ele>132</ele>
        <time>2016-12-11T08:30:20.396Z</time>
      </trkpt>
      <trkpt lat="48.05721" lon="2.79099">
        <ele>132</ele>
        <time>2016-12-11T08:30:21.435Z</time>
      </trkpt>
      <trkpt lat="48.05722" lon="2.791">
        <ele>132</ele>
        <time>2016-12-11T08:30:22.430Z</time>
      </trkpt>
      <trkpt lat="48.05722" lon="2.791">
        <ele>132</ele>
        <time>2016-12-11T08:30:23.432Z</time>
      </trkpt>
      <trkpt lat="48.05724" lon="2.79099">
        <ele>132</ele>
        <time>2016-12-11T08:30:24.432Z</time>
      </trkpt>
      <trkpt lat="48.05724" lon="2.79099">
        <ele>132</ele>
        <time>2016-12-11T08:30:25.416Z</time>
      </trkpt>
      <trkpt lat="48.05726" lon="2.79097">
        <ele>132</ele>
        <time>2016-12-11T08:30:26.433Z</time>
      </trkpt>
      <trkpt lat="48.05726" lon="2.79097">
        <ele>132</ele>
        <time>2016-12-11T08:30:27.431Z</time>
      </trkpt>
      <trkpt lat="48.05728" lon="2.79096">
        <ele>131</ele>
        <time>2016-12-11T08:30:28.432Z</time>
      </trkpt>
      <trkpt lat="48.05729" lon="2.79095">
        <ele>131</ele>
        <time>2016-12-11T08:30:29.434Z</time>
      </trkpt>
      <trkpt lat="48.05729" lon="2.79095">
        <ele>131</ele>
        <time>2016-12-11T08:30:30.431Z</time>
      </trkpt>
      <trkpt lat="48.05732" lon="2.79094">
        <ele>130</ele>
        <time>2016-12-11T08:30:31.435Z</time>
      </trkpt>
      <trkpt lat="48.05733" lon="2.79095">
        <ele>130</ele>
        <time>2016-12-11T08:30:32.419Z</time>
      </trkpt>
      <trkpt lat="48.05733" lon="2.79095">
        <ele>130</ele>
        <time>2016-12-11T08:30:33.418Z</time>
      </trkpt>
      <trkpt lat="48.05736" lon="2.79094">
        <ele>129</ele>
        <time>2016-12-11T08:30:34.420Z</time>
      </trkpt>
      <trkpt lat="48.05736" lon="2.79094">
        <ele>129</ele>
        <time>2016-12-11T08:30:35.419Z</time>
      </trkpt>
      <trkpt lat="48.05738" lon="2.79095">
        <ele>129</ele>
        <time>2016-12-11T08:30:36.430Z</time>
      </trkpt>
      <trkpt lat="48.05738" lon="2.79095">
        <ele>129</ele>
        <time>2016-12-11T08:30:37.430Z</time>
      </trkpt>
      <trkpt lat="48.05741" lon="2.79095">
        <ele>128</ele>
        <time>2016-12-11T08:30:38.429Z</time>
      </trkpt>
      <trkpt lat="48.05741" lon="2.79095">
        <ele>128</ele>
        <time>2016-12-11T08:30:39.436Z</time>
      </trkpt>
      <trkpt lat="48.05742" lon="2.79098">
        <ele>128</ele>
        <time>2016-12-11T08:30:40.435Z</time>
      </trkpt>
      <trkpt lat="48.05742" lon="2.79098">
        <ele>128</ele>
        <time>2016-12-11T08:30:41.404Z</time>
      </trkpt>
      <trkpt lat="48.05741" lon="2.79102">
        <ele>127</ele>
        <time>2016-12-11T08:30:42.431Z</time>
      </trkpt>
      <trkpt lat="48.0574" lon="2.79103">
        <ele>127</ele>
        <time>2016-12-11T08:30:43.431Z</time>
      </trkpt>
      <trkpt lat="48.0574" lon="2.79103">
        <ele>127</ele>
        <time>2016-12-11T08:30:44.418Z</time>
      </trkpt>
      <trkpt lat="48.05739" lon="2.79106">
        <ele>126</ele>
        <time>2016-12-11T08:30:45.427Z</time>
      </trkpt>
      <trkpt lat="48.05739" lon="2.79106">
        <ele>126</ele>
        <time>2016-12-11T08:30:46.421Z</time>
      </trkpt>
      <trkpt lat="48.05736" lon="2.79106">
        <ele>126</ele>
        <time>2016-12-11T08:30:47.431Z</time>
      </trkpt>
      <trkpt lat="48.05735" lon="2.79106">
        <ele>126</ele>
        <time>2016-12-11T08:30:48.433Z</time>
      </trkpt>
      <trkpt lat="48.05735" lon="2.79106">
        <ele>126</ele>
        <time>2016-12-11T08:30:49.433Z</time>
      </trkpt>
      <trkpt lat="48.05732" lon="2.79105">
        <ele>126</ele>
        <time>2016-12-11T08:30:50.396Z</time>
      </trkpt>
      <trkpt lat="48.05732" lon="2.79105">
        <ele>126</ele>
        <time>2016-12-11T08:30:51.435Z</time>
      </trkpt>
      <trkpt lat="48.05727" lon="2.79107">
        <ele>125</ele>
        <time>2016-12-11T08:30:52.433Z</time>
      </trkpt>
      <trkpt lat="48.05727" lon="2.79107">
        <ele>125</ele>
        <time>2016-12-11T08:30:53.432Z</time>
      </trkpt>
      <trkpt lat="48.05723" lon="2.79108">
        <ele>125</ele>
        <time>2016-12-11T08:30:54.430Z</time>
      </trkpt>
      <trkpt lat="48.05723" lon="2.79108">
        <ele>125</ele>
        <time>2016-12-11T08:30:55.427Z</time>
      </trkpt>
      <trkpt lat="48.05721" lon="2.79108">
        <ele>125</ele>
        <time>2016-12-11T08:30:56.429Z</time>
      </trkpt>
      <trkpt lat="48.05721" lon="2.79108">
        <ele>125</ele>
        <time>2016-12-11T08:30:57.429Z</time>
      </trkpt>
      <trkpt lat="48.0572" lon="2.79108">
        <ele>125</ele>
        <time>2016-12-11T08:30:58.428Z</time>
      </trkpt>
      <trkpt lat="48.05708" lon="2.79098">
        <ele>123</ele>
        <time>2016-12-11T08:30:59.425Z</time>
      </trkpt>
      <trkpt lat="48.05708" lon="2.79098">
        <ele>123</ele>
        <time>2016-12-11T08:31:00.412Z</time>
      </trkpt>
      <trkpt lat="48.05704" lon="2.79095">
        <ele>122</ele>
        <time>2016-12-11T08:31:01.415Z</time>
      </trkpt>
      <trkpt lat="48.05704" lon="2.79095">
        <ele>122</ele>
        <time>2016-12-11T08:31:02.398Z</time>
      </trkpt>
      <trkpt lat="48.05701" lon="2.79092">
        <ele>121</ele>
        <time>2016-12-11T08:31:03.422Z</time>
      </trkpt>
      <trkpt lat="48.05701" lon="2.79092">
        <ele>121</ele>
        <time>2016-12-11T08:31:04.420Z</time>
      </trkpt>
      <trkpt lat="48.05699" lon="2.79086">
        <ele>121</ele>
        <time>2016-12-11T08:31:05.418Z</time>
      </trkpt>
      <trkpt lat="48.05699" lon="2.79086">
        <ele>121</ele>
        <time>2016-12-11T08:31:06.418Z</time>
      </trkpt>
      <trkpt lat="48.05697" lon="2.79081">
        <ele>120</ele>
        <time>2016-12-11T08:31:07.421Z</time>
      </trkpt>
      <trkpt lat="48.05697" lon="2.79081">
        <ele>120</ele>
        <time>2016-12-11T08:31:08.419Z</time>
      </trkpt>
      <trkpt lat="48.05695" lon="2.79074">
        <ele>119</ele>
        <time>2016-12-11T08:31:09.420Z</time>
      </trkpt>
      <trkpt lat="48.05695" lon="2.79074">
        <ele>119</ele>
        <time>2016-12-11T08:31:10.420Z</time>
      </trkpt>
      <trkpt lat="48.05692" lon="2.79071">
        <ele>119</ele>
        <time>2016-12-11T08:31:11.420Z</time>
      </trkpt>
      <trkpt lat="48.05692" lon="2.79071">
        <ele>119</ele>
        <time>2016-12-11T08:31:12.417Z</time>
      </trkpt>
      <trkpt lat="48.05688" lon="2.79068">
        <ele>118</ele>
        <time>2016-12-11T08:31:13.420Z</time>
      </trkpt>
      <trkpt lat="48.05688" lon="2.79068">
        <ele>118</ele>
        <time>2016-12-11T08:31:14.417Z</time>
      </trkpt>
      <trkpt lat="48.05684" lon="2.79067">
        <ele>118</ele>
        <time>2016-12-11T08:31:15.419Z</time>
      </trkpt>
      <trkpt lat="48.05684" lon="2.79067">
        <ele>118</ele>
        <time>2016-12-11T08:31:16.418Z</time>
      </trkpt>
      <trkpt lat="48.0568" lon="2.79072">
        <ele>118</ele>
        <time>2016-12-11T08:31:17.409Z</time>
      </trkpt>
      <trkpt lat="48.0568" lon="2.79072">
        <ele>118</ele>
        <time>2016-12-11T08:31:18.422Z</time>
      </trkpt>
      <trkpt lat="48.05677" lon="2.79075">
        <ele>117</ele>
        <time>2016-12-11T08:31:19.429Z</time>
      </trkpt>
      <trkpt lat="48.05676" lon="2.79076">
        <ele>117</ele>
        <time>2016-12-11T08:31:20.407Z</time>
      </trkpt>
      <trkpt lat="48.05676" lon="2.79076">
        <ele>117</ele>
        <time>2016-12-11T08:31:21.404Z</time>
      </trkpt>
      <trkpt lat="48.05674" lon="2.79078">
        <ele>117</ele>
        <time>2016-12-11T08:31:22.403Z</time>
      </trkpt>
      <trkpt lat="48.05673" lon="2.79079">
        <ele>117</ele>
        <time>2016-12-11T08:31:23.410Z</time>
      </trkpt>
      <trkpt lat="48.05673" lon="2.79079">
        <ele>117</ele>
        <time>2016-12-11T08:31:24.411Z</time>
      </trkpt>
      <trkpt lat="48.0567" lon="2.79082">
        <ele>116</ele>
        <time>2016-12-11T08:31:25.411Z</time>
      </trkpt>
      <trkpt lat="48.0567" lon="2.79082">
        <ele>116</ele>
        <time>2016-12-11T08:31:26.410Z</time>
      </trkpt>
      <trkpt lat="48.05667" lon="2.79085">
        <ele>116</ele>
        <time>2016-12-11T08:31:27.412Z</time>
      </trkpt>
      <trkpt lat="48.05666" lon="2.79086">
        <ele>116</ele>
        <time>2016-12-11T08:31:28.420Z</time>
      </trkpt>
      <trkpt lat="48.05666" lon="2.79086">
        <ele>116</ele>
        <time>2016-12-11T08:31:29.434Z</time>
      </trkpt>
      <trkpt lat="48.05663" lon="2.79089">
        <ele>116</ele>
        <time>2016-12-11T08:31:30.396Z</time>
      </trkpt>
      <trkpt lat="48.05663" lon="2.79089">
        <ele>116</ele>
        <time>2016-12-11T08:31:31.403Z</time>
      </trkpt>
      <trkpt lat="48.0566" lon="2.79093">
        <ele>115</ele>
        <time>2016-12-11T08:31:32.406Z</time>
      </trkpt>
      <trkpt lat="48.05658" lon="2.79095">
        <ele>115</ele>
        <time>2016-12-11T08:31:33.435Z</time>
      </trkpt>
      <trkpt lat="48.05658" lon="2.79095">
        <ele>115</ele>
        <time>2016-12-11T08:31:34.433Z</time>
      </trkpt>
      <trkpt lat="48.05654" lon="2.79098">
        <ele>115</ele>
        <time>2016-12-11T08:31:35.433Z</time>
      </trkpt>
      <trkpt lat="48.05654" lon="2.79098">
        <ele>115</ele>
        <time>2016-12-11T08:31:36.398Z</time>
      </trkpt>
      <trkpt lat="48.0565" lon="2.79098">
        <ele>115</ele>
        <time>2016-12-11T08:31:37.420Z</time>
      </trkpt>
      <trkpt lat="48.05647" lon="2.79099">
        <ele>115</ele>
        <time>2016-12-11T08:31:38.434Z</time>
      </trkpt>
      <trkpt lat="48.05647" lon="2.79099">
        <ele>115</ele>
        <time>2016-12-11T08:31:39.434Z</time>
      </trkpt>
      <trkpt lat="48.05642" lon="2.79101">
        <ele>115</ele>
        <time>2016-12-11T08:31:40.432Z</time>
      </trkpt>
      <trkpt lat="48.05639" lon="2.79103">
        <ele>114</ele>
        <time>2016-12-11T08:31:41.397Z</time>
      </trkpt>
      <trkpt lat="48.05639" lon="2.79103">
        <ele>114</ele>
        <time>2016-12-11T08:31:42.408Z</time>
      </trkpt>
      <trkpt lat="48.05635" lon="2.79105">
        <ele>114</ele>
        <time>2016-12-11T08:31:43.423Z</time>
      </trkpt>
      <trkpt lat="48.05635" lon="2.79105">
        <ele>114</ele>
        <time>2016-12-11T08:31:44.407Z</time>
      </trkpt>
      <trkpt lat="48.05631" lon="2.79107">
        <ele>114</ele>
        <time>2016-12-11T08:31:45.422Z</time>
      </trkpt>
      <trkpt lat="48.05631" lon="2.79107">
        <ele>114</ele>
        <time>2016-12-11T08:31:46.417Z</time>
      </trkpt>
      <trkpt lat="48.05627" lon="2.79109">
        <ele>114</ele>
        <time>2016-12-11T08:31:47.419Z</time>
      </trkpt>
      <trkpt lat="48.05625" lon="2.79111">
        <ele>114</ele>
        <time>2016-12-11T08:31:48.431Z</time>
      </trkpt>
      <trkpt lat="48.05625" lon="2.79111">
        <ele>114</ele>
        <time>2016-12-11T08:31:49.433Z</time>
      </trkpt>
      <trkpt lat="48.05621" lon="2.79113">
        <ele>114</ele>
        <time>2016-12-11T08:31:50.435Z</time>
      </trkpt>
      <trkpt lat="48.0562" lon="2.79115">
        <ele>114</ele>
        <time>2016-12-11T08:31:51.419Z</time>
      </trkpt>
      <trkpt lat="48.0562" lon="2.79115">
        <ele>114</ele>
        <time>2016-12-11T08:31:52.418Z</time>
      </trkpt>
      <trkpt lat="48.05616" lon="2.79119">
        <ele>114</ele>
        <time>2016-12-11T08:31:53.408Z</time>
      </trkpt>
      <trkpt lat="48.05616" lon="2.79119">
        <ele>114</ele>
        <time>2016-12-11T08:31:54.418Z</time>
      </trkpt>
      <trkpt lat="48.05613" lon="2.79124">
        <ele>114</ele>
        <time>2016-12-11T08:31:55.419Z</time>
      </trkpt>
      <trkpt lat="48.05613" lon="2.79124">
        <ele>114</ele>
        <time>2016-12-11T08:31:56.417Z</time>
      </trkpt>
      <trkpt lat="48.05612" lon="2.7913">
        <ele>114</ele>
        <time>2016-12-11T08:31:57.423Z</time>
      </trkpt>
      <trkpt lat="48.05612" lon="2.7913">
        <ele>114</ele>
        <time>2016-12-11T08:31:58.419Z</time>
      </trkpt>
      <trkpt lat="48.05613" lon="2.79136">
        <ele>114</ele>
        <time>2016-12-11T08:31:59.427Z</time>
      </trkpt>
      <trkpt lat="48.05613" lon="2.79136">
        <ele>114</ele>
        <time>2016-12-11T08:32:00.423Z</time>
      </trkpt>
      <trkpt lat="48.05615" lon="2.79139">
        <ele>114</ele>
        <time>2016-12-11T08:32:01.421Z</time>
      </trkpt>
      <trkpt lat="48.05615" lon="2.79139">
        <ele>114</ele>
        <time>2016-12-11T08:32:02.418Z</time>
      </trkpt>
      <trkpt lat="48.05616" lon="2.79142">
        <ele>114</ele>
        <time>2016-12-11T08:32:03.414Z</time>
      </trkpt>
      <trkpt lat="48.05616" lon="2.79142">
        <ele>114</ele>
        <time>2016-12-11T08:32:04.413Z</time>
      </trkpt>
      <trkpt lat="48.05618" lon="2.79145">
        <ele>114</ele>
        <time>2016-12-11T08:32:05.411Z</time>
      </trkpt>
      <trkpt lat="48.05618" lon="2.79145">
        <ele>114</ele>
        <time>2016-12-11T08:32:06.407Z</time>
      </trkpt>
      <trkpt lat="48.05619" lon="2.79147">
        <ele>114</ele>
        <time>2016-12-11T08:32:07.408Z</time>
      </trkpt>
      <trkpt lat="48.05619" lon="2.79147">
        <ele>114</ele>
        <time>2016-12-11T08:32:08.405Z</time>
      </trkpt>
      <trkpt lat="48.05621" lon="2.79149">
        <ele>114</ele>
        <time>2016-12-11T08:32:09.420Z</time>
      </trkpt>
      <trkpt lat="48.05621" lon="2.79149">
        <ele>114</ele>
        <time>2016-12-11T08:32:10.417Z</time>
      </trkpt>
      <trkpt lat="48.05622" lon="2.7915">
        <ele>114</ele>
        <time>2016-12-11T08:32:11.420Z</time>
      </trkpt>
      <trkpt lat="48.05622" lon="2.7915">
        <ele>114</ele>
        <time>2016-12-11T08:32:12.409Z</time>
      </trkpt>
      <trkpt lat="48.05623" lon="2.79152">
        <ele>114</ele>
        <time>2016-12-11T08:32:13.418Z</time>
      </trkpt>
      <trkpt lat="48.05623" lon="2.79152">
        <ele>114</ele>
        <time>2016-12-11T08:32:14.415Z</time>
      </trkpt>
      <trkpt lat="48.05623" lon="2.79155">
        <ele>114</ele>
        <time>2016-12-11T08:32:15.420Z</time>
      </trkpt>
      <trkpt lat="48.05623" lon="2.79155">
        <ele>114</ele>
        <time>2016-12-11T08:32:16.417Z</time>
      </trkpt>
      <trkpt lat="48.05623" lon="2.79157">
        <ele>114</ele>
        <time>2016-12-11T08:32:17.405Z</time>
      </trkpt>
      <trkpt lat="48.05623" lon="2.79157">
        <ele>114</ele>
        <time>2016-12-11T08:32:18.400Z</time>
      </trkpt>
      <trkpt lat="48.05621" lon="2.7916">
        <ele>114</ele>
        <time>2016-12-11T08:32:19.426Z</time>
      </trkpt>
      <trkpt lat="48.0562" lon="2.79161">
        <ele>114</ele>
        <time>2016-12-11T08:32:20.424Z</time>
      </trkpt>
      <trkpt lat="48.0562" lon="2.79161">
        <ele>114</ele>
        <time>2016-12-11T08:32:21.420Z</time>
      </trkpt>
      <trkpt lat="48.05616" lon="2.79164">
        <ele>115</ele>
        <time>2016-12-11T08:32:22.420Z</time>
      </trkpt>
      <trkpt lat="48.05614" lon="2.79166">
        <ele>115</ele>
        <time>2016-12-11T08:32:23.419Z</time>
      </trkpt>
      <trkpt lat="48.05614" lon="2.79166">
        <ele>115</ele>
        <time>2016-12-11T08:32:24.416Z</time>
      </trkpt>
      <trkpt lat="48.0561" lon="2.79168">
        <ele>115</ele>
        <time>2016-12-11T08:32:25.415Z</time>
      </trkpt>
      <trkpt lat="48.0561" lon="2.79168">
        <ele>115</ele>
        <time>2016-12-11T08:32:26.412Z</time>
      </trkpt>
      <trkpt lat="48.05608" lon="2.79173">
        <ele>115</ele>
        <time>2016-12-11T08:32:27.420Z</time>
      </trkpt>
      <trkpt lat="48.05608" lon="2.79173">
        <ele>115</ele>
        <time>2016-12-11T08:32:28.418Z</time>
      </trkpt>
      <trkpt lat="48.05607" lon="2.79176">
        <ele>116</ele>
        <time>2016-12-11T08:32:29.415Z</time>
      </trkpt>
      <trkpt lat="48.05607" lon="2.79178">
        <ele>116</ele>
        <time>2016-12-11T08:32:30.420Z</time>
      </trkpt>
      <trkpt lat="48.05607" lon="2.79178">
        <ele>116</ele>
        <time>2016-12-11T08:32:31.418Z</time>
      </trkpt>
      <trkpt lat="48.05608" lon="2.7918">
        <ele>117</ele>
        <time>2016-12-11T08:32:32.420Z</time>
      </trkpt>
      <trkpt lat="48.05608" lon="2.79181">
        <ele>117</ele>
        <time>2016-12-11T08:32:33.409Z</time>
      </trkpt>
      <trkpt lat="48.05608" lon="2.79181">
        <ele>117</ele>
        <time>2016-12-11T08:32:34.407Z</time>
      </trkpt>
      <trkpt lat="48.0561" lon="2.79178">
        <ele>117</ele>
        <time>2016-12-11T08:32:35.421Z</time>
      </trkpt>
      <trkpt lat="48.0561" lon="2.79178">
        <ele>117</ele>
        <time>2016-12-11T08:32:36.418Z</time>
      </trkpt>
      <trkpt lat="48.05612" lon="2.79178">
        <ele>117</ele>
        <time>2016-12-11T08:32:37.422Z</time>
      </trkpt>
      <trkpt lat="48.05613" lon="2.79178">
        <ele>117</ele>
        <time>2016-12-11T08:32:38.408Z</time>
      </trkpt>
      <trkpt lat="48.05613" lon="2.79178">
        <ele>117</ele>
        <time>2016-12-11T08:32:39.407Z</time>
      </trkpt>
      <trkpt lat="48.05614" lon="2.7918">
        <ele>116</ele>
        <time>2016-12-11T08:32:40.414Z</time>
      </trkpt>
      <trkpt lat="48.05614" lon="2.79181">
        <ele>117</ele>
        <time>2016-12-11T08:32:41.414Z</time>
      </trkpt>
      <trkpt lat="48.05614" lon="2.79181">
        <ele>117</ele>
        <time>2016-12-11T08:32:42.413Z</time>
      </trkpt>
      <trkpt lat="48.05616" lon="2.79182">
        <ele>116</ele>
        <time>2016-12-11T08:32:43.430Z</time>
      </trkpt>
      <trkpt lat="48.05616" lon="2.79182">
        <ele>116</ele>
        <time>2016-12-11T08:32:44.424Z</time>
      </trkpt>
      <trkpt lat="48.05618" lon="2.79182">
        <ele>116</ele>
        <time>2016-12-11T08:32:45.421Z</time>
      </trkpt>
      <trkpt lat="48.05618" lon="2.79182">
        <ele>116</ele>
        <time>2016-12-11T08:32:46.419Z</time>
      </trkpt>
      <trkpt lat="48.05618" lon="2.79182">
        <ele>116</ele>
        <time>2016-12-11T08:32:47.402Z</time>
      </trkpt>
      <trkpt lat="48.05618" lon="2.79182">
        <ele>116</ele>
        <time>2016-12-11T08:32:48.435Z</time>
      </trkpt>
      <trkpt lat="48.05618" lon="2.79182">
        <ele>116</ele>
        <time>2016-12-11T08:32:49.430Z</time>
      </trkpt>
      <trkpt lat="48.0563" lon="2.79174">
        <ele>115</ele>
        <time>2016-12-11T08:32:50.426Z</time>
      </trkpt>
      <trkpt lat="48.0563" lon="2.79174">
        <ele>115</ele>
        <time>2016-12-11T08:32:51.429Z</time>
      </trkpt>
      <trkpt lat="48.05633" lon="2.79173">
        <ele>115</ele>
        <time>2016-12-11T08:32:52.406Z</time>
      </trkpt>
      <trkpt lat="48.05633" lon="2.79173">
        <ele>115</ele>
        <time>2016-12-11T08:32:53.416Z</time>
      </trkpt>
      <trkpt lat="48.05634" lon="2.79173">
        <ele>115</ele>
        <time>2016-12-11T08:32:54.418Z</time>
      </trkpt>
      <trkpt lat="48.05634" lon="2.79173">
        <ele>115</ele>
        <time>2016-12-11T08:32:55.432Z</time>
      </trkpt>
      <trkpt lat="48.05635" lon="2.79173">
        <ele>115</ele>
        <time>2016-12-11T08:32:56.399Z</time>
      </trkpt>
      <trkpt lat="48.05636" lon="2.79174">
        <ele>115</ele>
        <time>2016-12-11T08:32:57.430Z</time>
      </trkpt>
      <trkpt lat="48.05636" lon="2.79174">
        <ele>115</ele>
        <time>2016-12-11T08:32:58.430Z</time>
      </trkpt>
      <trkpt lat="48.05636" lon="2.79174">
        <ele>115</ele>
        <time>2016-12-11T08:32:59.426Z</time>
      </trkpt>
      <trkpt lat="48.05635" lon="2.79176">
        <ele>115</ele>
        <time>2016-12-11T08:33:00.423Z</time>
      </trkpt>
      <trkpt lat="48.05632" lon="2.79181">
        <ele>115</ele>
        <time>2016-12-11T08:33:01.401Z</time>
      </trkpt>
      <trkpt lat="48.05632" lon="2.79181">
        <ele>115</ele>
        <time>2016-12-11T08:33:02.397Z</time>
      </trkpt>
      <trkpt lat="48.05631" lon="2.79184">
        <ele>115</ele>
        <time>2016-12-11T08:33:03.413Z</time>
      </trkpt>
      <trkpt lat="48.05631" lon="2.79184">
        <ele>115</ele>
        <time>2016-12-11T08:33:04.411Z</time>
      </trkpt>
      <trkpt lat="48.05631" lon="2.79186">
        <ele>115</ele>
        <time>2016-12-11T08:33:05.400Z</time>
      </trkpt>
      <trkpt lat="48.05631" lon="2.79186">
        <ele>115</ele>
        <time>2016-12-11T08:33:06.398Z</time>
      </trkpt>
      <trkpt lat="48.0563" lon="2.79189">
        <ele>115</ele>
        <time>2016-12-11T08:33:07.422Z</time>
      </trkpt>
      <trkpt lat="48.05625" lon="2.79202">
        <ele>115</ele>
        <time>2016-12-11T08:33:08.421Z</time>
      </trkpt>
      <trkpt lat="48.05625" lon="2.79202">
        <ele>115</ele>
        <time>2016-12-11T08:33:09.431Z</time>
      </trkpt>
      <trkpt lat="48.05622" lon="2.79206">
        <ele>115</ele>
        <time>2016-12-11T08:33:10.403Z</time>
      </trkpt>
      <trkpt lat="48.05622" lon="2.79206">
        <ele>115</ele>
        <time>2016-12-11T08:33:11.428Z</time>
      </trkpt>
      <trkpt lat="48.05619" lon="2.79209">
        <ele>115</ele>
        <time>2016-12-11T08:33:12.398Z</time>
      </trkpt>
      <trkpt lat="48.05619" lon="2.79209">
        <ele>115</ele>
        <time>2016-12-11T08:33:13.397Z</time>
      </trkpt>
      <trkpt lat="48.05616" lon="2.79213">
        <ele>115</ele>
        <time>2016-12-11T08:33:14.409Z</time>
      </trkpt>
      <trkpt lat="48.05616" lon="2.79213">
        <ele>115</ele>
        <time>2016-12-11T08:33:15.414Z</time>
      </trkpt>
      <trkpt lat="48.05614" lon="2.79218">
        <ele>116</ele>
        <time>2016-12-11T08:33:16.431Z</time>
      </trkpt>
      <trkpt lat="48.05613" lon="2.79221">
        <ele>116</ele>
        <time>2016-12-11T08:33:17.401Z</time>
      </trkpt>
      <trkpt lat="48.05613" lon="2.79221">
        <ele>116</ele>
        <time>2016-12-11T08:33:18.409Z</time>
      </trkpt>
      <trkpt lat="48.05612" lon="2.79226">
        <ele>116</ele>
        <time>2016-12-11T08:33:19.409Z</time>
      </trkpt>
      <trkpt lat="48.05611" lon="2.79229">
        <ele>116</ele>
        <time>2016-12-11T08:33:20.408Z</time>
      </trkpt>
      <trkpt lat="48.05611" lon="2.79229">
        <ele>116</ele>
        <time>2016-12-11T08:33:21.415Z</time>
      </trkpt>
      <trkpt lat="48.05609" lon="2.79233">
        <ele>116</ele>
        <time>2016-12-11T08:33:22.413Z</time>
      </trkpt>
      <trkpt lat="48.05609" lon="2.79233">
        <ele>116</ele>
        <time>2016-12-11T08:33:23.409Z</time>
      </trkpt>
      <trkpt lat="48.05606" lon="2.79235">
        <ele>116</ele>
        <time>2016-12-11T08:33:24.408Z</time>
      </trkpt>
      <trkpt lat="48.05606" lon="2.79235">
        <ele>116</ele>
        <time>2016-12-11T08:33:25.407Z</time>
      </trkpt>
      <trkpt lat="48.05602" lon="2.79238">
        <ele>116</ele>
        <time>2016-12-11T08:33:26.420Z</time>
      </trkpt>
      <trkpt lat="48.05602" lon="2.79238">
        <ele>116</ele>
        <time>2016-12-11T08:33:27.435Z</time>
      </trkpt>
      <trkpt lat="48.05598" lon="2.7924">
        <ele>116</ele>
        <time>2016-12-11T08:33:28.401Z</time>
      </trkpt>
      <trkpt lat="48.05598" lon="2.7924">
        <ele>116</ele>
        <time>2016-12-11T08:33:29.398Z</time>
      </trkpt>
      <trkpt lat="48.05596" lon="2.79242">
        <ele>117</ele>
        <time>2016-12-11T08:33:30.397Z</time>
      </trkpt>
      <trkpt lat="48.05596" lon="2.79242">
        <ele>117</ele>
        <time>2016-12-11T08:33:31.403Z</time>
      </trkpt>
      <trkpt lat="48.05595" lon="2.79243">
        <ele>117</ele>
        <time>2016-12-11T08:33:32.409Z</time>
      </trkpt>
      <trkpt lat="48.05595" lon="2.79243">
        <ele>117</ele>
        <time>2016-12-11T08:33:33.407Z</time>
      </trkpt>
      <trkpt lat="48.05595" lon="2.79243">
        <ele>116</ele>
        <time>2016-12-11T08:33:34.410Z</time>
      </trkpt>
      <trkpt lat="48.05594" lon="2.79243">
        <ele>114</ele>
        <time>2016-12-11T08:33:35.410Z</time>
      </trkpt>
      <trkpt lat="48.05594" lon="2.79243">
        <ele>114</ele>
        <time>2016-12-11T08:33:36.408Z</time>
      </trkpt>
      <trkpt lat="48.05593" lon="2.79244">
        <ele>114</ele>
        <time>2016-12-11T08:33:37.414Z</time>
      </trkpt>
      <trkpt lat="48.05591" lon="2.79245">
        <ele>114</ele>
        <time>2016-12-11T08:33:38.408Z</time>
      </trkpt>
      <trkpt lat="48.05591" lon="2.79245">
        <ele>114</ele>
        <time>2016-12-11T08:33:39.417Z</time>
      </trkpt>
      <trkpt lat="48.05588" lon="2.79246">
        <ele>114</ele>
        <time>2016-12-11T08:33:40.429Z</time>
      </trkpt>
      <trkpt lat="48.05588" lon="2.79246">
        <ele>114</ele>
        <time>2016-12-11T08:33:41.427Z</time>
      </trkpt>
      <trkpt lat="48.05586" lon="2.79246">
        <ele>115</ele>
        <time>2016-12-11T08:33:42.397Z</time>
      </trkpt>
      <trkpt lat="48.05586" lon="2.79246">
        <ele>115</ele>
        <time>2016-12-11T08:33:43.435Z</time>
      </trkpt>
      <trkpt lat="48.05584" lon="2.79245">
        <ele>115</ele>
        <time>2016-12-11T08:33:44.434Z</time>
      </trkpt>
      <trkpt lat="48.05584" lon="2.79245">
        <ele>115</ele>
        <time>2016-12-11T08:33:45.432Z</time>
      </trkpt>
      <trkpt lat="48.05581" lon="2.79244">
        <ele>114</ele>
        <time>2016-12-11T08:33:46.433Z</time>
      </trkpt>
      <trkpt lat="48.05581" lon="2.79244">
        <ele>114</ele>
        <time>2016-12-11T08:33:47.429Z</time>
      </trkpt>
      <trkpt lat="48.05579" lon="2.79245">
        <ele>115</ele>
        <time>2016-12-11T08:33:48.401Z</time>
      </trkpt>
      <trkpt lat="48.05579" lon="2.79245">
        <ele>115</ele>
        <time>2016-12-11T08:33:49.419Z</time>
      </trkpt>
      <trkpt lat="48.05577" lon="2.79247">
        <ele>115</ele>
        <time>2016-12-11T08:33:50.402Z</time>
      </trkpt>
      <trkpt lat="48.05576" lon="2.79248">
        <ele>115</ele>
        <time>2016-12-11T08:33:51.401Z</time>
      </trkpt>
      <trkpt lat="48.05576" lon="2.79248">
        <ele>115</ele>
        <time>2016-12-11T08:33:52.409Z</time>
      </trkpt>
      <trkpt lat="48.05574" lon="2.79249">
        <ele>115</ele>
        <time>2016-12-11T08:33:53.406Z</time>
      </trkpt>
      <trkpt lat="48.05574" lon="2.7925">
        <ele>115</ele>
        <time>2016-12-11T08:33:54.419Z</time>
      </trkpt>
      <trkpt lat="48.05574" lon="2.7925">
        <ele>115</ele>
        <time>2016-12-11T08:33:55.415Z</time>
      </trkpt>
      <trkpt lat="48.05571" lon="2.79252">
        <ele>115</ele>
        <time>2016-12-11T08:33:56.432Z</time>
      </trkpt>
      <trkpt lat="48.05571" lon="2.79252">
        <ele>115</ele>
        <time>2016-12-11T08:33:57.402Z</time>
      </trkpt>
      <trkpt lat="48.05567" lon="2.79255">
        <ele>115</ele>
        <time>2016-12-11T08:33:58.405Z</time>
      </trkpt>
      <trkpt lat="48.05567" lon="2.79255">
        <ele>115</ele>
        <time>2016-12-11T08:33:59.424Z</time>
      </trkpt>
      <trkpt lat="48.05564" lon="2.79257">
        <ele>115</ele>
        <time>2016-12-11T08:34:00.403Z</time>
      </trkpt>
      <trkpt lat="48.05564" lon="2.79257">
        <ele>115</ele>
        <time>2016-12-11T08:34:01.399Z</time>
      </trkpt>
      <trkpt lat="48.0556" lon="2.79261">
        <ele>115</ele>
        <time>2016-12-11T08:34:02.400Z</time>
      </trkpt>
      <trkpt lat="48.0556" lon="2.79261">
        <ele>115</ele>
        <time>2016-12-11T08:34:03.400Z</time>
      </trkpt>
      <trkpt lat="48.05563" lon="2.79264">
        <ele>115</ele>
        <time>2016-12-11T08:34:04.402Z</time>
      </trkpt>
      <trkpt lat="48.05564" lon="2.79265">
        <ele>115</ele>
        <time>2016-12-11T08:34:05.403Z</time>
      </trkpt>
      <trkpt lat="48.05564" lon="2.79265">
        <ele>115</ele>
        <time>2016-12-11T08:34:06.433Z</time>
      </trkpt>
      <trkpt lat="48.05567" lon="2.79266">
        <ele>115</ele>
        <time>2016-12-11T08:34:07.397Z</time>
      </trkpt>
      <trkpt lat="48.05569" lon="2.79267">
        <ele>115</ele>
        <time>2016-12-11T08:34:08.435Z</time>
      </trkpt>
      <trkpt lat="48.05569" lon="2.79267">
        <ele>115</ele>
        <time>2016-12-11T08:34:09.431Z</time>
      </trkpt>
      <trkpt lat="48.0557" lon="2.79269">
        <ele>115</ele>
        <time>2016-12-11T08:34:10.419Z</time>
      </trkpt>
      <trkpt lat="48.05569" lon="2.79269">
        <ele>115</ele>
        <time>2016-12-11T08:34:11.416Z</time>
      </trkpt>
      <trkpt lat="48.05569" lon="2.79269">
        <ele>115</ele>
        <time>2016-12-11T08:34:12.423Z</time>
      </trkpt>
      <trkpt lat="48.05566" lon="2.7927">
        <ele>115</ele>
        <time>2016-12-11T08:34:13.401Z</time>
      </trkpt>
      <trkpt lat="48.05566" lon="2.7927">
        <ele>115</ele>
        <time>2016-12-11T08:34:14.427Z</time>
      </trkpt>
      <trkpt lat="48.05563" lon="2.79269">
        <ele>115</ele>
        <time>2016-12-11T08:34:15.400Z</time>
      </trkpt>
      <trkpt lat="48.05562" lon="2.79267">
        <ele>115</ele>
        <time>2016-12-11T08:34:16.404Z</time>
      </trkpt>
      <trkpt lat="48.05562" lon="2.79267">
        <ele>115</ele>
        <time>2016-12-11T08:34:17.404Z</time>
      </trkpt>
      <trkpt lat="48.0556" lon="2.79264">
        <ele>115</ele>
        <time>2016-12-11T08:34:18.431Z</time>
      </trkpt>
      <trkpt lat="48.0556" lon="2.79264">
        <ele>115</ele>
        <time>2016-12-11T08:34:19.428Z</time>
      </trkpt>
      <trkpt lat="48.05557" lon="2.79262">
        <ele>115</ele>
        <time>2016-12-11T08:34:20.409Z</time>
      </trkpt>
      <trkpt lat="48.05557" lon="2.79262">
        <ele>115</ele>
        <time>2016-12-11T08:34:21.407Z</time>
      </trkpt>
      <trkpt lat="48.05556" lon="2.79263">
        <ele>115</ele>
        <time>2016-12-11T08:34:22.406Z</time>
      </trkpt>
      <trkpt lat="48.05556" lon="2.79263">
        <ele>115</ele>
        <time>2016-12-11T08:34:23.404Z</time>
      </trkpt>
      <trkpt lat="48.05556" lon="2.79263">
        <ele>115</ele>
        <time>2016-12-11T08:34:24.432Z</time>
      </trkpt>
      <trkpt lat="48.05556" lon="2.79263">
        <ele>115</ele>
        <time>2016-12-11T08:34:25.430Z</time>
      </trkpt>
      <trkpt lat="48.05551" lon="2.79256">
        <ele>115</ele>
        <time>2016-12-11T08:34:26.435Z</time>
      </trkpt>
      <trkpt lat="48.05551" lon="2.79256">
        <ele>115</ele>
        <time>2016-12-11T08:34:27.429Z</time>
      </trkpt>
      <trkpt lat="48.0555" lon="2.79255">
        <ele>115</ele>
        <time>2016-12-11T08:34:28.428Z</time>
      </trkpt>
      <trkpt lat="48.0555" lon="2.79255">
        <ele>115</ele>
        <time>2016-12-11T08:34:29.423Z</time>
      </trkpt>
      <trkpt lat="48.05536" lon="2.79253">
        <ele>114</ele>
        <time>2016-12-11T08:34:30.407Z</time>
      </trkpt>
      <trkpt lat="48.05536" lon="2.79253">
        <ele>114</ele>
        <time>2016-12-11T08:34:31.418Z</time>
      </trkpt>
      <trkpt lat="48.05533" lon="2.79255">
        <ele>114</ele>
        <time>2016-12-11T08:34:32.431Z</time>
      </trkpt>
      <trkpt lat="48.05532" lon="2.79253">
        <ele>114</ele>
        <time>2016-12-11T08:34:33.404Z</time>
      </trkpt>
      <trkpt lat="48.05532" lon="2.79253">
        <ele>114</ele>
        <time>2016-12-11T08:34:34.419Z</time>
      </trkpt>
      <trkpt lat="48.0553" lon="2.79249">
        <ele>113</ele>
        <time>2016-12-11T08:34:35.405Z</time>
      </trkpt>
      <trkpt lat="48.0553" lon="2.79249">
        <ele>113</ele>
        <time>2016-12-11T08:34:36.407Z</time>
      </trkpt>
      <trkpt lat="48.05531" lon="2.79243">
        <ele>113</ele>
        <time>2016-12-11T08:34:37.396Z</time>
      </trkpt>
      <trkpt lat="48.05531" lon="2.79243">
        <ele>113</ele>
        <time>2016-12-11T08:34:38.423Z</time>
      </trkpt>
      <trkpt lat="48.0553" lon="2.79239">
        <ele>113</ele>
        <time>2016-12-11T08:34:39.429Z</time>
      </trkpt>
      <trkpt lat="48.0553" lon="2.79239">
        <ele>113</ele>
        <time>2016-12-11T08:34:40.428Z</time>
      </trkpt>
      <trkpt lat="48.05527" lon="2.79238">
        <ele>113</ele>
        <time>2016-12-11T08:34:41.435Z</time>
      </trkpt>
      <trkpt lat="48.05527" lon="2.79238">
        <ele>113</ele>
        <time>2016-12-11T08:34:42.413Z</time>
      </trkpt>
      <trkpt lat="48.05526" lon="2.79241">
        <ele>113</ele>
        <time>2016-12-11T08:34:43.401Z</time>
      </trkpt>
      <trkpt lat="48.05525" lon="2.79242">
        <ele>113</ele>
        <time>2016-12-11T08:34:44.400Z</time>
      </trkpt>
      <trkpt lat="48.05525" lon="2.79242">
        <ele>113</ele>
        <time>2016-12-11T08:34:45.398Z</time>
      </trkpt>
      <trkpt lat="48.05522" lon="2.79243">
        <ele>113</ele>
        <time>2016-12-11T08:34:46.435Z</time>
      </trkpt>
      <trkpt lat="48.05522" lon="2.79243">
        <ele>113</ele>
        <time>2016-12-11T08:34:47.433Z</time>
      </trkpt>
      <trkpt lat="48.05519" lon="2.79245">
        <ele>113</ele>
        <time>2016-12-11T08:34:48.433Z</time>
      </trkpt>
      <trkpt lat="48.05519" lon="2.79245">
        <ele>113</ele>
        <time>2016-12-11T08:34:49.400Z</time>
      </trkpt>
      <trkpt lat="48.05516" lon="2.79245">
        <ele>113</ele>
        <time>2016-12-11T08:34:50.397Z</time>
      </trkpt>
      <trkpt lat="48.05516" lon="2.79245">
        <ele>113</ele>
        <time>2016-12-11T08:34:51.432Z</time>
      </trkpt>
      <trkpt lat="48.05514" lon="2.79242">
        <ele>112</ele>
        <time>2016-12-11T08:34:52.397Z</time>
      </trkpt>
      <trkpt lat="48.05514" lon="2.7924">
        <ele>112</ele>
        <time>2016-12-11T08:34:53.406Z</time>
      </trkpt>
      <trkpt lat="48.05514" lon="2.7924">
        <ele>112</ele>
        <time>2016-12-11T08:34:54.407Z</time>
      </trkpt>
      <trkpt lat="48.05513" lon="2.79232">
        <ele>112</ele>
        <time>2016-12-11T08:34:55.397Z</time>
      </trkpt>
      <trkpt lat="48.05513" lon="2.79227">
        <ele>112</ele>
        <time>2016-12-11T08:34:56.435Z</time>
      </trkpt>
      <trkpt lat="48.05513" lon="2.79227">
        <ele>112</ele>
        <time>2016-12-11T08:34:57.433Z</time>
      </trkpt>
      <trkpt lat="48.05511" lon="2.79217">
        <ele>111</ele>
        <time>2016-12-11T08:34:58.433Z</time>
      </trkpt>
      <trkpt lat="48.05509" lon="2.79212">
        <ele>110</ele>
        <time>2016-12-11T08:34:59.398Z</time>
      </trkpt>
      <trkpt lat="48.05509" lon="2.79212">
        <ele>110</ele>
        <time>2016-12-11T08:35:00.435Z</time>
      </trkpt>
      <trkpt lat="48.05503" lon="2.79207">
        <ele>110</ele>
        <time>2016-12-11T08:35:01.424Z</time>
      </trkpt>
      <trkpt lat="48.055" lon="2.79207">
        <ele>109</ele>
        <time>2016-12-11T08:35:02.428Z</time>
      </trkpt>
      <trkpt lat="48.055" lon="2.79207">
        <ele>109</ele>
        <time>2016-12-11T08:35:03.415Z</time>
      </trkpt>
      <trkpt lat="48.05496" lon="2.79207">
        <ele>109</ele>
        <time>2016-12-11T08:35:04.413Z</time>
      </trkpt>
      <trkpt lat="48.05496" lon="2.79207">
        <ele>109</ele>
        <time>2016-12-11T08:35:05.418Z</time>
      </trkpt>
      <trkpt lat="48.05492" lon="2.79208">
        <ele>108</ele>
        <time>2016-12-11T08:35:06.434Z</time>
      </trkpt>
      <trkpt lat="48.0549" lon="2.79207">
        <ele>108</ele>
        <time>2016-12-11T08:35:07.396Z</time>
      </trkpt>
      <trkpt lat="48.0549" lon="2.79207">
        <ele>108</ele>
        <time>2016-12-11T08:35:08.434Z</time>
      </trkpt>
      <trkpt lat="48.05487" lon="2.79208">
        <ele>107</ele>
        <time>2016-12-11T08:35:09.433Z</time>
      </trkpt>
      <trkpt lat="48.05487" lon="2.79208">
        <ele>107</ele>
        <time>2016-12-11T08:35:10.429Z</time>
      </trkpt>
      <trkpt lat="48.05483" lon="2.79208">
        <ele>106</ele>
        <time>2016-12-11T08:35:11.400Z</time>
      </trkpt>
      <trkpt lat="48.05483" lon="2.79208">
        <ele>106</ele>
        <time>2016-12-11T08:35:12.397Z</time>
      </trkpt>
      <trkpt lat="48.05479" lon="2.79208">
        <ele>106</ele>
        <time>2016-12-11T08:35:13.428Z</time>
      </trkpt>
      <trkpt lat="48.05479" lon="2.79208">
        <ele>106</ele>
        <time>2016-12-11T08:35:14.424Z</time>
      </trkpt>
      <trkpt lat="48.05476" lon="2.79207">
        <ele>106</ele>
        <time>2016-12-11T08:35:15.434Z</time>
      </trkpt>
      <trkpt lat="48.05476" lon="2.79207">
        <ele>106</ele>
        <time>2016-12-11T08:35:16.405Z</time>
      </trkpt>
      <trkpt lat="48.05473" lon="2.79206">
        <ele>106</ele>
        <time>2016-12-11T08:35:17.399Z</time>
      </trkpt>
      <trkpt lat="48.05473" lon="2.79206">
        <ele>106</ele>
        <time>2016-12-11T08:35:18.403Z</time>
      </trkpt>
      <trkpt lat="48.0547" lon="2.79202">
        <ele>106</ele>
        <time>2016-12-11T08:35:19.417Z</time>
      </trkpt>
      <trkpt lat="48.05471" lon="2.792">
        <ele>106</ele>
        <time>2016-12-11T08:35:20.408Z</time>
      </trkpt>
      <trkpt lat="48.05471" lon="2.792">
        <ele>106</ele>
        <time>2016-12-11T08:35:21.419Z</time>
      </trkpt>
      <trkpt lat="48.05471" lon="2.79194">
        <ele>105</ele>
        <time>2016-12-11T08:35:22.418Z</time>
      </trkpt>
      <trkpt lat="48.05469" lon="2.79192">
        <ele>105</ele>
        <time>2016-12-11T08:35:23.430Z</time>
      </trkpt>
      <trkpt lat="48.05469" lon="2.79192">
        <ele>105</ele>
        <time>2016-12-11T08:35:24.429Z</time>
      </trkpt>
      <trkpt lat="48.05466" lon="2.79188">
        <ele>104</ele>
        <time>2016-12-11T08:35:25.434Z</time>
      </trkpt>
      <trkpt lat="48.05466" lon="2.79188">
        <ele>104</ele>
        <time>2016-12-11T08:35:26.431Z</time>
      </trkpt>
      <trkpt lat="48.05462" lon="2.79184">
        <ele>104</ele>
        <time>2016-12-11T08:35:27.429Z</time>
      </trkpt>
      <trkpt lat="48.05462" lon="2.79184">
        <ele>104</ele>
        <time>2016-12-11T08:35:28.425Z</time>
      </trkpt>
      <trkpt lat="48.0546" lon="2.79183">
        <ele>103</ele>
        <time>2016-12-11T08:35:29.397Z</time>
      </trkpt>
      <trkpt lat="48.0546" lon="2.79183">
        <ele>103</ele>
        <time>2016-12-11T08:35:30.417Z</time>
      </trkpt>
      <trkpt lat="48.05456" lon="2.7918">
        <ele>103</ele>
        <time>2016-12-11T08:35:31.406Z</time>
      </trkpt>
      <trkpt lat="48.05455" lon="2.79178">
        <ele>103</ele>
        <time>2016-12-11T08:35:32.408Z</time>
      </trkpt>
      <trkpt lat="48.05455" lon="2.79178">
        <ele>103</ele>
        <time>2016-12-11T08:35:33.415Z</time>
      </trkpt>
      <trkpt lat="48.05454" lon="2.79174">
        <ele>102</ele>
        <time>2016-12-11T08:35:34.396Z</time>
      </trkpt>
      <trkpt lat="48.05454" lon="2.79174">
        <ele>102</ele>
        <time>2016-12-11T08:35:35.434Z</time>
      </trkpt>
      <trkpt lat="48.05457" lon="2.79171">
        <ele>102</ele>
        <time>2016-12-11T08:35:36.434Z</time>
      </trkpt>
      <trkpt lat="48.0546" lon="2.7917">
        <ele>101</ele>
        <time>2016-12-11T08:35:37.396Z</time>
      </trkpt>
      <trkpt lat="48.0546" lon="2.7917">
        <ele>101</ele>
        <time>2016-12-11T08:35:38.397Z</time>
      </trkpt>
      <trkpt lat="48.05464" lon="2.79168">
        <ele>100</ele>
        <time>2016-12-11T08:35:39.435Z</time>
      </trkpt>
      <trkpt lat="48.05464" lon="2.79168">
        <ele>100</ele>
        <time>2016-12-11T08:35:40.434Z</time>
      </trkpt>
      <trkpt lat="48.05467" lon="2.79167">
        <ele>99</ele>
        <time>2016-12-11T08:35:41.396Z</time>
      </trkpt>
      <trkpt lat="48.05467" lon="2.79167">
        <ele>99</ele>
        <time>2016-12-11T08:35:42.433Z</time>
      </trkpt>
      <trkpt lat="48.05469" lon="2.79162">
        <ele>98</ele>
        <time>2016-12-11T08:35:43.422Z</time>
      </trkpt>
      <trkpt lat="48.05469" lon="2.79162">
        <ele>98</ele>
        <time>2016-12-11T08:35:44.427Z</time>
      </trkpt>
      <trkpt lat="48.05466" lon="2.79156">
        <ele>99</ele>
        <time>2016-12-11T08:35:45.430Z</time>
      </trkpt>
      <trkpt lat="48.05466" lon="2.79156">
        <ele>99</ele>
        <time>2016-12-11T08:35:46.428Z</time>
      </trkpt>
      <trkpt lat="48.05464" lon="2.79152">
        <ele>98</ele>
        <time>2016-12-11T08:35:47.430Z</time>
      </trkpt>
      <trkpt lat="48.05464" lon="2.79152">
        <ele>98</ele>
        <time>2016-12-11T08:35:48.426Z</time>
      </trkpt>
      <trkpt lat="48.05461" lon="2.79147">
        <ele>98</ele>
        <time>2016-12-11T08:35:49.399Z</time>
      </trkpt>
      <trkpt lat="48.05461" lon="2.79147">
        <ele>98</ele>
        <time>2016-12-11T08:35:50.400Z</time>
      </trkpt>
      <trkpt lat="48.05459" lon="2.79141">
        <ele>98</ele>
        <time>2016-12-11T08:35:51.397Z</time>
      </trkpt>
      <trkpt lat="48.05459" lon="2.79141">
        <ele>98</ele>
        <time>2016-12-11T08:35:52.433Z</time>
      </trkpt>
      <trkpt lat="48.05457" lon="2.79133">
        <ele>98</ele>
        <time>2016-12-11T08:35:53.435Z</time>
      </trkpt>
      <trkpt lat="48.05457" lon="2.79133">
        <ele>98</ele>
        <time>2016-12-11T08:35:54.408Z</time>
      </trkpt>
      <trkpt lat="48.05454" lon="2.79126">
        <ele>97</ele>
        <time>2016-12-11T08:35:55.419Z</time>
      </trkpt>
      <trkpt lat="48.05451" lon="2.79123">
        <ele>97</ele>
        <time>2016-12-11T08:35:56.396Z</time>
      </trkpt>
      <trkpt lat="48.05451" lon="2.79123">
        <ele>97</ele>
        <time>2016-12-11T08:35:57.434Z</time>
      </trkpt>
      <trkpt lat="48.05446" lon="2.79121">
        <ele>97</ele>
        <time>2016-12-11T08:35:58.435Z</time>
      </trkpt>
      <trkpt lat="48.05444" lon="2.79119">
        <ele>97</ele>
        <time>2016-12-11T08:35:59.420Z</time>
      </trkpt>
      <trkpt lat="48.05444" lon="2.79119">
        <ele>97</ele>
        <time>2016-12-11T08:36:00.424Z</time>
      </trkpt>
      <trkpt lat="48.05438" lon="2.79118">
        <ele>97</ele>
        <time>2016-12-11T08:36:01.396Z</time>
      </trkpt>
      <trkpt lat="48.05438" lon="2.79118">
        <ele>97</ele>
        <time>2016-12-11T08:36:02.433Z</time>
      </trkpt>
      <trkpt lat="48.05432" lon="2.79118">
        <ele>97</ele>
        <time>2016-12-11T08:36:03.434Z</time>
      </trkpt>
      <trkpt lat="48.05432" lon="2.79118">
        <ele>97</ele>
        <time>2016-12-11T08:36:04.429Z</time>
      </trkpt>
      <trkpt lat="48.05426" lon="2.79117">
        <ele>96</ele>
        <time>2016-12-11T08:36:05.435Z</time>
      </trkpt>
      <trkpt lat="48.05426" lon="2.79117">
        <ele>96</ele>
        <time>2016-12-11T08:36:06.431Z</time>
      </trkpt>
      <trkpt lat="48.0542" lon="2.79119">
        <ele>96</ele>
        <time>2016-12-11T08:36:07.397Z</time>
      </trkpt>
      <trkpt lat="48.0542" lon="2.79119">
        <ele>96</ele>
        <time>2016-12-11T08:36:08.433Z</time>
      </trkpt>
      <trkpt lat="48.05414" lon="2.79119">
        <ele>96</ele>
        <time>2016-12-11T08:36:09.398Z</time>
      </trkpt>
      <trkpt lat="48.05414" lon="2.79119">
        <ele>96</ele>
        <time>2016-12-11T08:36:10.415Z</time>
      </trkpt>
      <trkpt lat="48.05407" lon="2.79118">
        <ele>95</ele>
        <time>2016-12-11T08:36:11.429Z</time>
      </trkpt>
      <trkpt lat="48.05407" lon="2.79118">
        <ele>95</ele>
        <time>2016-12-11T08:36:12.430Z</time>
      </trkpt>
      <trkpt lat="48.054" lon="2.79117">
        <ele>95</ele>
        <time>2016-12-11T08:36:13.396Z</time>
      </trkpt>
      <trkpt lat="48.05396" lon="2.79117">
        <ele>95</ele>
        <time>2016-12-11T08:36:14.407Z</time>
      </trkpt>
      <trkpt lat="48.05396" lon="2.79117">
        <ele>95</ele>
        <time>2016-12-11T08:36:15.418Z</time>
      </trkpt>
      <trkpt lat="48.05388" lon="2.79117">
        <ele>95</ele>
        <time>2016-12-11T08:36:16.427Z</time>
      </trkpt>
      <trkpt lat="48.05384" lon="2.79117">
        <ele>95</ele>
        <time>2016-12-11T08:36:17.423Z</time>
      </trkpt>
      <trkpt lat="48.05384" lon="2.79117">
        <ele>95</ele>
        <time>2016-12-11T08:36:18.422Z</time>
      </trkpt>
      <trkpt lat="48.05375" lon="2.79114">
        <ele>95</ele>
        <time>2016-12-11T08:36:19.429Z</time>
      </trkpt>
      <trkpt lat="48.05375" lon="2.79114">
        <ele>95</ele>
        <time>2016-12-11T08:36:20.406Z</time>
      </trkpt>
      <trkpt lat="48.05367" lon="2.79112">
        <ele>94</ele>
        <time>2016-12-11T08:36:21.419Z</time>
      </trkpt>
      <trkpt lat="48.05367" lon="2.79112">
        <ele>94</ele>
        <time>2016-12-11T08:36:22.416Z</time>
      </trkpt>
      <trkpt lat="48.05358" lon="2.79112">
        <ele>94</ele>
        <time>2016-12-11T08:36:23.418Z</time>
      </trkpt>
      <trkpt lat="48.05358" lon="2.79112">
        <ele>94</ele>
        <time>2016-12-11T08:36:24.417Z</time>
      </trkpt>
      <trkpt lat="48.05351" lon="2.79113">
        <ele>94</ele>
        <time>2016-12-11T08:36:25.423Z</time>
      </trkpt>
      <trkpt lat="48.05351" lon="2.79113">
        <ele>94</ele>
        <time>2016-12-11T08:36:26.421Z</time>
      </trkpt>
      <trkpt lat="48.05342" lon="2.79115">
        <ele>93</ele>
        <time>2016-12-11T08:36:27.434Z</time>
      </trkpt>
      <trkpt lat="48.05338" lon="2.79115">
        <ele>93</ele>
        <time>2016-12-11T08:36:28.396Z</time>
      </trkpt>
      <trkpt lat="48.05338" lon="2.79115">
        <ele>93</ele>
        <time>2016-12-11T08:36:29.414Z</time>
      </trkpt>
      <trkpt lat="48.0533" lon="2.79117">
        <ele>94</ele>
        <time>2016-12-11T08:36:30.426Z</time>
      </trkpt>
      <trkpt lat="48.05326" lon="2.79118">
        <ele>93</ele>
        <time>2016-12-11T08:36:31.396Z</time>
      </trkpt>
      <trkpt lat="48.05326" lon="2.79118">
        <ele>93</ele>
        <time>2016-12-11T08:36:32.396Z</time>
      </trkpt>
      <trkpt lat="48.05319" lon="2.7912">
        <ele>93</ele>
        <time>2016-12-11T08:36:33.430Z</time>
      </trkpt>
      <trkpt lat="48.05319" lon="2.7912">
        <ele>93</ele>
        <time>2016-12-11T08:36:34.427Z</time>
      </trkpt>
      <trkpt lat="48.0531" lon="2.79121">
        <ele>94</ele>
        <time>2016-12-11T08:36:35.434Z</time>
      </trkpt>
      <trkpt lat="48.0531" lon="2.79121">
        <ele>94</ele>
        <time>2016-12-11T08:36:36.429Z</time>
      </trkpt>
      <trkpt lat="48.05302" lon="2.79121">
        <ele>95</ele>
        <time>2016-12-11T08:36:37.405Z</time>
      </trkpt>
      <trkpt lat="48.05302" lon="2.79121">
        <ele>95</ele>
        <time>2016-12-11T08:36:38.419Z</time>
      </trkpt>
      <trkpt lat="48.05295" lon="2.79122">
        <ele>95</ele>
        <time>2016-12-11T08:36:39.419Z</time>
      </trkpt>
      <trkpt lat="48.05295" lon="2.79122">
        <ele>95</ele>
        <time>2016-12-11T08:36:40.422Z</time>
      </trkpt>
      <trkpt lat="48.05288" lon="2.79122">
        <ele>96</ele>
        <time>2016-12-11T08:36:41.435Z</time>
      </trkpt>
      <trkpt lat="48.05288" lon="2.79122">
        <ele>96</ele>
        <time>2016-12-11T08:36:42.433Z</time>
      </trkpt>
      <trkpt lat="48.05283" lon="2.79122">
        <ele>97</ele>
        <time>2016-12-11T08:36:43.430Z</time>
      </trkpt>
      <trkpt lat="48.05279" lon="2.79122">
        <ele>97</ele>
        <time>2016-12-11T08:36:44.430Z</time>
      </trkpt>
      <trkpt lat="48.05279" lon="2.79122">
        <ele>97</ele>
        <time>2016-12-11T08:36:45.434Z</time>
      </trkpt>
      <trkpt lat="48.05273" lon="2.79122">
        <ele>97</ele>
        <time>2016-12-11T08:36:46.434Z</time>
      </trkpt>
      <trkpt lat="48.0527" lon="2.79122">
        <ele>98</ele>
        <time>2016-12-11T08:36:47.397Z</time>
      </trkpt>
      <trkpt lat="48.0527" lon="2.79122">
        <ele>98</ele>
        <time>2016-12-11T08:36:48.397Z</time>
      </trkpt>
      <trkpt lat="48.05263" lon="2.79121">
        <ele>98</ele>
        <time>2016-12-11T08:36:49.429Z</time>
      </trkpt>
      <trkpt lat="48.05263" lon="2.79121">
        <ele>98</ele>
        <time>2016-12-11T08:36:50.428Z</time>
      </trkpt>
      <trkpt lat="48.05257" lon="2.79121">
        <ele>98</ele>
        <time>2016-12-11T08:36:51.435Z</time>
      </trkpt>
      <trkpt lat="48.05257" lon="2.79121">
        <ele>98</ele>
        <time>2016-12-11T08:36:52.435Z</time>
      </trkpt>
      <trkpt lat="48.05251" lon="2.7912">
        <ele>99</ele>
        <time>2016-12-11T08:36:53.430Z</time>
      </trkpt>
      <trkpt lat="48.05251" lon="2.7912">
        <ele>99</ele>
        <time>2016-12-11T08:36:54.430Z</time>
      </trkpt>
      <trkpt lat="48.05243" lon="2.79119">
        <ele>98</ele>
        <time>2016-12-11T08:36:55.396Z</time>
      </trkpt>
      <trkpt lat="48.05243" lon="2.79119">
        <ele>98</ele>
        <time>2016-12-11T08:36:56.434Z</time>
      </trkpt>
      <trkpt lat="48.05237" lon="2.79117">
        <ele>99</ele>
        <time>2016-12-11T08:36:57.435Z</time>
      </trkpt>
      <trkpt lat="48.05237" lon="2.79117">
        <ele>99</ele>
        <time>2016-12-11T08:36:58.433Z</time>
      </trkpt>
      <trkpt lat="48.0523" lon="2.79115">
        <ele>99</ele>
        <time>2016-12-11T08:36:59.435Z</time>
      </trkpt>
      <trkpt lat="48.0523" lon="2.79115">
        <ele>99</ele>
        <time>2016-12-11T08:37:00.399Z</time>
      </trkpt>
      <trkpt lat="48.05223" lon="2.79112">
        <ele>99</ele>
        <time>2016-12-11T08:37:01.436Z</time>
      </trkpt>
      <trkpt lat="48.05223" lon="2.79112">
        <ele>99</ele>
        <time>2016-12-11T08:37:02.396Z</time>
      </trkpt>
      <trkpt lat="48.05217" lon="2.79109">
        <ele>100</ele>
        <time>2016-12-11T08:37:03.435Z</time>
      </trkpt>
      <trkpt lat="48.05217" lon="2.79109">
        <ele>100</ele>
        <time>2016-12-11T08:37:04.435Z</time>
      </trkpt>
      <trkpt lat="48.0521" lon="2.79108">
        <ele>100</ele>
        <time>2016-12-11T08:37:05.398Z</time>
      </trkpt>
      <trkpt lat="48.0521" lon="2.79108">
        <ele>100</ele>
        <time>2016-12-11T08:37:06.435Z</time>
      </trkpt>
      <trkpt lat="48.05203" lon="2.79107">
        <ele>100</ele>
        <time>2016-12-11T08:37:07.396Z</time>
      </trkpt>
      <trkpt lat="48.05203" lon="2.79107">
        <ele>100</ele>
        <time>2016-12-11T08:37:08.435Z</time>
      </trkpt>
      <trkpt lat="48.05196" lon="2.79106">
        <ele>100</ele>
        <time>2016-12-11T08:37:09.435Z</time>
      </trkpt>
      <trkpt lat="48.05196" lon="2.79106">
        <ele>100</ele>
        <time>2016-12-11T08:37:10.407Z</time>
      </trkpt>
      <trkpt lat="48.0519" lon="2.79105">
        <ele>100</ele>
        <time>2016-12-11T08:37:11.401Z</time>
      </trkpt>
      <trkpt lat="48.0519" lon="2.79105">
        <ele>100</ele>
        <time>2016-12-11T08:37:12.435Z</time>
      </trkpt>
      <trkpt lat="48.05185" lon="2.79105">
        <ele>100</ele>
        <time>2016-12-11T08:37:13.427Z</time>
      </trkpt>
      <trkpt lat="48.05182" lon="2.79105">
        <ele>100</ele>
        <time>2016-12-11T08:37:14.399Z</time>
      </trkpt>
      <trkpt lat="48.05182" lon="2.79105">
        <ele>100</ele>
        <time>2016-12-11T08:37:15.398Z</time>
      </trkpt>
      <trkpt lat="48.05176" lon="2.79106">
        <ele>100</ele>
        <time>2016-12-11T08:37:16.397Z</time>
      </trkpt>
      <trkpt lat="48.05176" lon="2.79106">
        <ele>100</ele>
        <time>2016-12-11T08:37:17.434Z</time>
      </trkpt>
      <trkpt lat="48.0517" lon="2.79105">
        <ele>100</ele>
        <time>2016-12-11T08:37:18.420Z</time>
      </trkpt>
      <trkpt lat="48.05167" lon="2.79105">
        <ele>101</ele>
        <time>2016-12-11T08:37:19.401Z</time>
      </trkpt>
      <trkpt lat="48.05164" lon="2.79105">
        <ele>101</ele>
        <time>2016-12-11T08:37:20.400Z</time>
      </trkpt>
      <trkpt lat="48.05164" lon="2.79105">
        <ele>101</ele>
        <time>2016-12-11T08:37:21.400Z</time>
      </trkpt>
      <trkpt lat="48.05159" lon="2.79104">
        <ele>102</ele>
        <time>2016-12-11T08:37:22.400Z</time>
      </trkpt>
      <trkpt lat="48.05156" lon="2.79104">
        <ele>103</ele>
        <time>2016-12-11T08:37:23.397Z</time>
      </trkpt>
      <trkpt lat="48.05156" lon="2.79104">
        <ele>103</ele>
        <time>2016-12-11T08:37:24.415Z</time>
      </trkpt>
      <trkpt lat="48.05151" lon="2.79104">
        <ele>103</ele>
        <time>2016-12-11T08:37:25.419Z</time>
      </trkpt>
      <trkpt lat="48.05151" lon="2.79104">
        <ele>103</ele>
        <time>2016-12-11T08:37:26.418Z</time>
      </trkpt>
      <trkpt lat="48.05146" lon="2.79103">
        <ele>104</ele>
        <time>2016-12-11T08:37:27.430Z</time>
      </trkpt>
      <trkpt lat="48.05146" lon="2.79103">
        <ele>104</ele>
        <time>2016-12-11T08:37:28.426Z</time>
      </trkpt>
      <trkpt lat="48.05141" lon="2.79103">
        <ele>104</ele>
        <time>2016-12-11T08:37:29.429Z</time>
      </trkpt>
      <trkpt lat="48.05141" lon="2.79103">
        <ele>104</ele>
        <time>2016-12-11T08:37:30.429Z</time>
      </trkpt>
      <trkpt lat="48.05136" lon="2.79102">
        <ele>104</ele>
        <time>2016-12-11T08:37:31.398Z</time>
      </trkpt>
      <trkpt lat="48.05136" lon="2.79102">
        <ele>104</ele>
        <time>2016-12-11T08:37:32.396Z</time>
      </trkpt>
      <trkpt lat="48.0513" lon="2.79102">
        <ele>105</ele>
        <time>2016-12-11T08:37:33.421Z</time>
      </trkpt>
      <trkpt lat="48.0513" lon="2.79102">
        <ele>105</ele>
        <time>2016-12-11T08:37:34.419Z</time>
      </trkpt>
      <trkpt lat="48.05126" lon="2.79103">
        <ele>105</ele>
        <time>2016-12-11T08:37:35.428Z</time>
      </trkpt>
      <trkpt lat="48.05126" lon="2.79103">
        <ele>105</ele>
        <time>2016-12-11T08:37:36.425Z</time>
      </trkpt>
      <trkpt lat="48.05121" lon="2.79103">
        <ele>106</ele>
        <time>2016-12-11T08:37:37.425Z</time>
      </trkpt>
      <trkpt lat="48.05121" lon="2.79103">
        <ele>106</ele>
        <time>2016-12-11T08:37:38.431Z</time>
      </trkpt>
      <trkpt lat="48.05115" lon="2.79103">
        <ele>106</ele>
        <time>2016-12-11T08:37:39.426Z</time>
      </trkpt>
      <trkpt lat="48.05113" lon="2.79103">
        <ele>107</ele>
        <time>2016-12-11T08:37:40.396Z</time>
      </trkpt>
      <trkpt lat="48.05113" lon="2.79103">
        <ele>107</ele>
        <time>2016-12-11T08:37:41.433Z</time>
      </trkpt>
      <trkpt lat="48.05108" lon="2.79104">
        <ele>107</ele>
        <time>2016-12-11T08:37:42.396Z</time>
      </trkpt>
      <trkpt lat="48.05106" lon="2.79104">
        <ele>107</ele>
        <time>2016-12-11T08:37:43.435Z</time>
      </trkpt>
      <trkpt lat="48.05106" lon="2.79104">
        <ele>107</ele>
        <time>2016-12-11T08:37:44.432Z</time>
      </trkpt>
      <trkpt lat="48.05102" lon="2.79104">
        <ele>108</ele>
        <time>2016-12-11T08:37:45.404Z</time>
      </trkpt>
      <trkpt lat="48.051" lon="2.79104">
        <ele>108</ele>
        <time>2016-12-11T08:37:46.426Z</time>
      </trkpt>
      <trkpt lat="48.051" lon="2.79104">
        <ele>108</ele>
        <time>2016-12-11T08:37:47.403Z</time>
      </trkpt>
      <trkpt lat="48.05096" lon="2.79104">
        <ele>109</ele>
        <time>2016-12-11T08:37:48.400Z</time>
      </trkpt>
      <trkpt lat="48.05095" lon="2.79104">
        <ele>109</ele>
        <time>2016-12-11T08:37:49.401Z</time>
      </trkpt>
      <trkpt lat="48.05095" lon="2.79104">
        <ele>109</ele>
        <time>2016-12-11T08:37:50.399Z</time>
      </trkpt>
      <trkpt lat="48.05091" lon="2.79107">
        <ele>109</ele>
        <time>2016-12-11T08:37:51.401Z</time>
      </trkpt>
      <trkpt lat="48.05091" lon="2.79107">
        <ele>109</ele>
        <time>2016-12-11T08:37:52.399Z</time>
      </trkpt>
      <trkpt lat="48.05088" lon="2.7911">
        <ele>109</ele>
        <time>2016-12-11T08:37:53.406Z</time>
      </trkpt>
      <trkpt lat="48.05088" lon="2.7911">
        <ele>109</ele>
        <time>2016-12-11T08:37:54.408Z</time>
      </trkpt>
      <trkpt lat="48.05084" lon="2.79113">
        <ele>108</ele>
        <time>2016-12-11T08:37:55.426Z</time>
      </trkpt>
      <trkpt lat="48.05084" lon="2.79113">
        <ele>108</ele>
        <time>2016-12-11T08:37:56.425Z</time>
      </trkpt>
      <trkpt lat="48.0508" lon="2.79114">
        <ele>108</ele>
        <time>2016-12-11T08:37:57.398Z</time>
      </trkpt>
      <trkpt lat="48.0508" lon="2.79114">
        <ele>108</ele>
        <time>2016-12-11T08:37:58.434Z</time>
      </trkpt>
      <trkpt lat="48.05077" lon="2.79114">
        <ele>109</ele>
        <time>2016-12-11T08:37:59.435Z</time>
      </trkpt>
      <trkpt lat="48.05077" lon="2.79114">
        <ele>109</ele>
        <time>2016-12-11T08:38:00.434Z</time>
      </trkpt>
      <trkpt lat="48.05073" lon="2.79114">
        <ele>109</ele>
        <time>2016-12-11T08:38:01.403Z</time>
      </trkpt>
      <trkpt lat="48.05072" lon="2.79114">
        <ele>109</ele>
        <time>2016-12-11T08:38:02.409Z</time>
      </trkpt>
      <trkpt lat="48.05072" lon="2.79114">
        <ele>109</ele>
        <time>2016-12-11T08:38:03.434Z</time>
      </trkpt>
      <trkpt lat="48.05068" lon="2.79114">
        <ele>109</ele>
        <time>2016-12-11T08:38:04.435Z</time>
      </trkpt>
      <trkpt lat="48.05066" lon="2.79116">
        <ele>109</ele>
        <time>2016-12-11T08:38:05.435Z</time>
      </trkpt>
      <trkpt lat="48.05066" lon="2.79116">
        <ele>109</ele>
        <time>2016-12-11T08:38:06.433Z</time>
      </trkpt>
      <trkpt lat="48.05066" lon="2.7912">
        <ele>109</ele>
        <time>2016-12-11T08:38:07.430Z</time>
      </trkpt>
      <trkpt lat="48.05066" lon="2.7912">
        <ele>109</ele>
        <time>2016-12-11T08:38:08.427Z</time>
      </trkpt>
      <trkpt lat="48.05066" lon="2.79121">
        <ele>109</ele>
        <time>2016-12-11T08:38:09.436Z</time>
      </trkpt>
      <trkpt lat="48.05066" lon="2.79121">
        <ele>109</ele>
        <time>2016-12-11T08:38:10.413Z</time>
      </trkpt>
      <trkpt lat="48.0506" lon="2.79128">
        <ele>111</ele>
        <time>2016-12-11T08:38:11.414Z</time>
      </trkpt>
      <trkpt lat="48.05059" lon="2.79129">
        <ele>110</ele>
        <time>2016-12-11T08:38:12.427Z</time>
      </trkpt>
      <trkpt lat="48.05059" lon="2.79129">
        <ele>110</ele>
        <time>2016-12-11T08:38:13.426Z</time>
      </trkpt>
      <trkpt lat="48.05057" lon="2.79133">
        <ele>110</ele>
        <time>2016-12-11T08:38:14.425Z</time>
      </trkpt>
      <trkpt lat="48.05057" lon="2.79133">
        <ele>110</ele>
        <time>2016-12-11T08:38:15.425Z</time>
      </trkpt>
      <trkpt lat="48.05056" lon="2.79135">
        <ele>110</ele>
        <time>2016-12-11T08:38:16.429Z</time>
      </trkpt>
      <trkpt lat="48.05056" lon="2.79135">
        <ele>110</ele>
        <time>2016-12-11T08:38:17.411Z</time>
      </trkpt>
      <trkpt lat="48.05056" lon="2.79135">
        <ele>110</ele>
        <time>2016-12-11T08:38:18.402Z</time>
      </trkpt>
      <trkpt lat="48.05057" lon="2.79135">
        <ele>110</ele>
        <time>2016-12-11T08:38:19.413Z</time>
      </trkpt>
      <trkpt lat="48.05055" lon="2.79141">
        <ele>110</ele>
        <time>2016-12-11T08:38:20.411Z</time>
      </trkpt>
      <trkpt lat="48.05055" lon="2.79141">
        <ele>110</ele>
        <time>2016-12-11T08:38:21.421Z</time>
      </trkpt>
      <trkpt lat="48.05053" lon="2.79139">
        <ele>110</ele>
        <time>2016-12-11T08:38:22.428Z</time>
      </trkpt>
      <trkpt lat="48.05053" lon="2.79138">
        <ele>109</ele>
        <time>2016-12-11T08:38:23.426Z</time>
      </trkpt>
      <trkpt lat="48.05053" lon="2.79138">
        <ele>109</ele>
        <time>2016-12-11T08:38:24.423Z</time>
      </trkpt>
      <trkpt lat="48.05051" lon="2.79136">
        <ele>109</ele>
        <time>2016-12-11T08:38:25.431Z</time>
      </trkpt>
      <trkpt lat="48.05052" lon="2.79134">
        <ele>109</ele>
        <time>2016-12-11T08:38:26.428Z</time>
      </trkpt>
      <trkpt lat="48.05052" lon="2.79134">
        <ele>109</ele>
        <time>2016-12-11T08:38:27.424Z</time>
      </trkpt>
      <trkpt lat="48.05051" lon="2.79131">
        <ele>109</ele>
        <time>2016-12-11T08:38:28.425Z</time>
      </trkpt>
      <trkpt lat="48.0505" lon="2.7913">
        <ele>109</ele>
        <time>2016-12-11T08:38:29.423Z</time>
      </trkpt>
      <trkpt lat="48.0505" lon="2.7913">
        <ele>109</ele>
        <time>2016-12-11T08:38:30.422Z</time>
      </trkpt>
      <trkpt lat="48.05049" lon="2.79127">
        <ele>109</ele>
        <time>2016-12-11T08:38:31.420Z</time>
      </trkpt>
      <trkpt lat="48.05049" lon="2.79127">
        <ele>109</ele>
        <time>2016-12-11T08:38:32.422Z</time>
      </trkpt>
      <trkpt lat="48.05047" lon="2.79124">
        <ele>109</ele>
        <time>2016-12-11T08:38:33.401Z</time>
      </trkpt>
      <trkpt lat="48.05047" lon="2.79123">
        <ele>109</ele>
        <time>2016-12-11T08:38:34.400Z</time>
      </trkpt>
      <trkpt lat="48.05047" lon="2.79123">
        <ele>109</ele>
        <time>2016-12-11T08:38:35.399Z</time>
      </trkpt>
      <trkpt lat="48.05046" lon="2.79119">
        <ele>110</ele>
        <time>2016-12-11T08:38:36.400Z</time>
      </trkpt>
      <trkpt lat="48.05045" lon="2.79117">
        <ele>109</ele>
        <time>2016-12-11T08:38:37.400Z</time>
      </trkpt>
      <trkpt lat="48.05045" lon="2.79117">
        <ele>109</ele>
        <time>2016-12-11T08:38:38.400Z</time>
      </trkpt>
      <trkpt lat="48.05046" lon="2.79111">
        <ele>109</ele>
        <time>2016-12-11T08:38:39.435Z</time>
      </trkpt>
      <trkpt lat="48.05046" lon="2.79111">
        <ele>109</ele>
        <time>2016-12-11T08:38:40.430Z</time>
      </trkpt>
      <trkpt lat="48.05046" lon="2.79105">
        <ele>109</ele>
        <time>2016-12-11T08:38:41.427Z</time>
      </trkpt>
      <trkpt lat="48.05047" lon="2.79102">
        <ele>109</ele>
        <time>2016-12-11T08:38:42.428Z</time>
      </trkpt>
      <trkpt lat="48.05047" lon="2.79102">
        <ele>109</ele>
        <time>2016-12-11T08:38:43.429Z</time>
      </trkpt>
      <trkpt lat="48.05046" lon="2.79097">
        <ele>109</ele>
        <time>2016-12-11T08:38:44.427Z</time>
      </trkpt>
      <trkpt lat="48.05046" lon="2.79097">
        <ele>109</ele>
        <time>2016-12-11T08:38:45.427Z</time>
      </trkpt>
      <trkpt lat="48.05044" lon="2.79094">
        <ele>108</ele>
        <time>2016-12-11T08:38:46.427Z</time>
      </trkpt>
      <trkpt lat="48.05043" lon="2.79092">
        <ele>108</ele>
        <time>2016-12-11T08:38:47.434Z</time>
      </trkpt>
      <trkpt lat="48.05043" lon="2.79092">
        <ele>108</ele>
        <time>2016-12-11T08:38:48.430Z</time>
      </trkpt>
      <trkpt lat="48.05039" lon="2.7909">
        <ele>108</ele>
        <time>2016-12-11T08:38:49.407Z</time>
      </trkpt>
      <trkpt lat="48.05038" lon="2.79089">
        <ele>108</ele>
        <time>2016-12-11T08:38:50.427Z</time>
      </trkpt>
      <trkpt lat="48.05038" lon="2.79089">
        <ele>108</ele>
        <time>2016-12-11T08:38:51.422Z</time>
      </trkpt>
      <trkpt lat="48.05035" lon="2.79086">
        <ele>108</ele>
        <time>2016-12-11T08:38:52.403Z</time>
      </trkpt>
      <trkpt lat="48.05035" lon="2.79086">
        <ele>108</ele>
        <time>2016-12-11T08:38:53.401Z</time>
      </trkpt>
      <trkpt lat="48.05032" lon="2.79084">
        <ele>107</ele>
        <time>2016-12-11T08:38:54.400Z</time>
      </trkpt>
      <trkpt lat="48.05032" lon="2.79084">
        <ele>107</ele>
        <time>2016-12-11T08:38:55.400Z</time>
      </trkpt>
      <trkpt lat="48.05029" lon="2.79081">
        <ele>107</ele>
        <time>2016-12-11T08:38:56.399Z</time>
      </trkpt>
      <trkpt lat="48.05029" lon="2.79081">
        <ele>107</ele>
        <time>2016-12-11T08:38:57.435Z</time>
      </trkpt>
      <trkpt lat="48.05024" lon="2.79079">
        <ele>107</ele>
        <time>2016-12-11T08:38:58.430Z</time>
      </trkpt>
      <trkpt lat="48.05024" lon="2.79079">
        <ele>107</ele>
        <time>2016-12-11T08:38:59.426Z</time>
      </trkpt>
      <trkpt lat="48.05018" lon="2.79077">
        <ele>107</ele>
        <time>2016-12-11T08:39:00.425Z</time>
      </trkpt>
      <trkpt lat="48.05018" lon="2.79077">
        <ele>107</ele>
        <time>2016-12-11T08:39:01.422Z</time>
      </trkpt>
      <trkpt lat="48.05013" lon="2.79075">
        <ele>107</ele>
        <time>2016-12-11T08:39:02.428Z</time>
      </trkpt>
      <trkpt lat="48.05013" lon="2.79075">
        <ele>107</ele>
        <time>2016-12-11T08:39:03.419Z</time>
      </trkpt>
      <trkpt lat="48.05008" lon="2.7907">
        <ele>107</ele>
        <time>2016-12-11T08:39:04.432Z</time>
      </trkpt>
      <trkpt lat="48.05008" lon="2.7907">
        <ele>107</ele>
        <time>2016-12-11T08:39:05.429Z</time>
      </trkpt>
      <trkpt lat="48.05004" lon="2.79067">
        <ele>107</ele>
        <time>2016-12-11T08:39:06.428Z</time>
      </trkpt>
      <trkpt lat="48.05004" lon="2.79067">
        <ele>107</ele>
        <time>2016-12-11T08:39:07.423Z</time>
      </trkpt>
      <trkpt lat="48.05" lon="2.79063">
        <ele>107</ele>
        <time>2016-12-11T08:39:08.426Z</time>
      </trkpt>
      <trkpt lat="48.05" lon="2.79063">
        <ele>107</ele>
        <time>2016-12-11T08:39:09.423Z</time>
      </trkpt>
      <trkpt lat="48.04996" lon="2.79061">
        <ele>107</ele>
        <time>2016-12-11T08:39:10.420Z</time>
      </trkpt>
      <trkpt lat="48.04994" lon="2.79059">
        <ele>107</ele>
        <time>2016-12-11T08:39:11.427Z</time>
      </trkpt>
      <trkpt lat="48.04992" lon="2.79058">
        <ele>107</ele>
        <time>2016-12-11T08:39:12.400Z</time>
      </trkpt>
      <trkpt lat="48.0499" lon="2.79057">
        <ele>107</ele>
        <time>2016-12-11T08:39:13.412Z</time>
      </trkpt>
      <trkpt lat="48.0499" lon="2.79057">
        <ele>107</ele>
        <time>2016-12-11T08:39:14.408Z</time>
      </trkpt>
      <trkpt lat="48.04986" lon="2.79055">
        <ele>107</ele>
        <time>2016-12-11T08:39:15.408Z</time>
      </trkpt>
      <trkpt lat="48.04984" lon="2.79054">
        <ele>107</ele>
        <time>2016-12-11T08:39:16.408Z</time>
      </trkpt>
      <trkpt lat="48.04984" lon="2.79054">
        <ele>107</ele>
        <time>2016-12-11T08:39:17.435Z</time>
      </trkpt>
      <trkpt lat="48.04981" lon="2.79052">
        <ele>108</ele>
        <time>2016-12-11T08:39:18.402Z</time>
      </trkpt>
      <trkpt lat="48.04979" lon="2.79052">
        <ele>108</ele>
        <time>2016-12-11T08:39:19.401Z</time>
      </trkpt>
      <trkpt lat="48.04977" lon="2.7905">
        <ele>108</ele>
        <time>2016-12-11T08:39:20.399Z</time>
      </trkpt>
      <trkpt lat="48.04977" lon="2.7905">
        <ele>108</ele>
        <time>2016-12-11T08:39:21.432Z</time>
      </trkpt>
      <trkpt lat="48.04973" lon="2.79048">
        <ele>108</ele>
        <time>2016-12-11T08:39:22.432Z</time>
      </trkpt>
      <trkpt lat="48.04971" lon="2.79047">
        <ele>108</ele>
        <time>2016-12-11T08:39:23.435Z</time>
      </trkpt>
      <trkpt lat="48.04969" lon="2.79046">
        <ele>108</ele>
        <time>2016-12-11T08:39:24.435Z</time>
      </trkpt>
      <trkpt lat="48.04969" lon="2.79046">
        <ele>108</ele>
        <time>2016-12-11T08:39:25.432Z</time>
      </trkpt>
      <trkpt lat="48.04965" lon="2.79043">
        <ele>108</ele>
        <time>2016-12-11T08:39:26.431Z</time>
      </trkpt>
      <trkpt lat="48.04965" lon="2.79043">
        <ele>108</ele>
        <time>2016-12-11T08:39:27.429Z</time>
      </trkpt>
      <trkpt lat="48.0496" lon="2.7904">
        <ele>109</ele>
        <time>2016-12-11T08:39:28.426Z</time>
      </trkpt>
      <trkpt lat="48.04958" lon="2.79039">
        <ele>109</ele>
        <time>2016-12-11T08:39:29.401Z</time>
      </trkpt>
      <trkpt lat="48.04956" lon="2.79038">
        <ele>109</ele>
        <time>2016-12-11T08:39:30.400Z</time>
      </trkpt>
      <trkpt lat="48.04956" lon="2.79038">
        <ele>109</ele>
        <time>2016-12-11T08:39:31.401Z</time>
      </trkpt>
      <trkpt lat="48.04951" lon="2.79036">
        <ele>109</ele>
        <time>2016-12-11T08:39:32.423Z</time>
      </trkpt>
      <trkpt lat="48.04951" lon="2.79036">
        <ele>109</ele>
        <time>2016-12-11T08:39:33.424Z</time>
      </trkpt>
      <trkpt lat="48.04947" lon="2.79034">
        <ele>109</ele>
        <time>2016-12-11T08:39:34.426Z</time>
      </trkpt>
      <trkpt lat="48.04944" lon="2.79033">
        <ele>109</ele>
        <time>2016-12-11T08:39:35.422Z</time>
      </trkpt>
      <trkpt lat="48.04942" lon="2.79032">
        <ele>110</ele>
        <time>2016-12-11T08:39:36.426Z</time>
      </trkpt>
      <trkpt lat="48.04942" lon="2.79032">
        <ele>110</ele>
        <time>2016-12-11T08:39:37.422Z</time>
      </trkpt>
      <trkpt lat="48.04938" lon="2.79031">
        <ele>110</ele>
        <time>2016-12-11T08:39:38.424Z</time>
      </trkpt>
      <trkpt lat="48.04938" lon="2.79031">
        <ele>110</ele>
        <time>2016-12-11T08:39:39.424Z</time>
      </trkpt>
      <trkpt lat="48.04934" lon="2.79029">
        <ele>110</ele>
        <time>2016-12-11T08:39:40.420Z</time>
      </trkpt>
      <trkpt lat="48.04934" lon="2.79029">
        <ele>110</ele>
        <time>2016-12-11T08:39:41.417Z</time>
      </trkpt>
      <trkpt lat="48.04929" lon="2.79028">
        <ele>111</ele>
        <time>2016-12-11T08:39:42.424Z</time>
      </trkpt>
      <trkpt lat="48.04929" lon="2.79028">
        <ele>111</ele>
        <time>2016-12-11T08:39:43.398Z</time>
      </trkpt>
      <trkpt lat="48.04924" lon="2.79027">
        <ele>111</ele>
        <time>2016-12-11T08:39:44.404Z</time>
      </trkpt>
      <trkpt lat="48.04924" lon="2.79027">
        <ele>111</ele>
        <time>2016-12-11T08:39:45.401Z</time>
      </trkpt>
      <trkpt lat="48.04919" lon="2.79025">
        <ele>112</ele>
        <time>2016-12-11T08:39:46.400Z</time>
      </trkpt>
      <trkpt lat="48.04919" lon="2.79025">
        <ele>112</ele>
        <time>2016-12-11T08:39:47.431Z</time>
      </trkpt>
      <trkpt lat="48.04918" lon="2.7902">
        <ele>113</ele>
        <time>2016-12-11T08:39:48.408Z</time>
      </trkpt>
      <trkpt lat="48.04917" lon="2.79017">
        <ele>113</ele>
        <time>2016-12-11T08:39:49.422Z</time>
      </trkpt>
      <trkpt lat="48.04917" lon="2.79017">
        <ele>113</ele>
        <time>2016-12-11T08:39:50.421Z</time>
      </trkpt>
      <trkpt lat="48.04917" lon="2.7901">
        <ele>114</ele>
        <time>2016-12-11T08:39:51.399Z</time>
      </trkpt>
      <trkpt lat="48.04917" lon="2.7901">
        <ele>114</ele>
        <time>2016-12-11T08:39:52.396Z</time>
      </trkpt>
      <trkpt lat="48.04915" lon="2.79005">
        <ele>114</ele>
        <time>2016-12-11T08:39:53.401Z</time>
      </trkpt>
      <trkpt lat="48.04915" lon="2.79005">
        <ele>114</ele>
        <time>2016-12-11T08:39:54.399Z</time>
      </trkpt>
      <trkpt lat="48.04914" lon="2.79">
        <ele>114</ele>
        <time>2016-12-11T08:39:55.402Z</time>
      </trkpt>
      <trkpt lat="48.04913" lon="2.78998">
        <ele>114</ele>
        <time>2016-12-11T08:39:56.403Z</time>
      </trkpt>
      <trkpt lat="48.04913" lon="2.78998">
        <ele>114</ele>
        <time>2016-12-11T08:39:57.397Z</time>
      </trkpt>
      <trkpt lat="48.04911" lon="2.78993">
        <ele>114</ele>
        <time>2016-12-11T08:39:58.400Z</time>
      </trkpt>
      <trkpt lat="48.04911" lon="2.78993">
        <ele>114</ele>
        <time>2016-12-11T08:39:59.434Z</time>
      </trkpt>
      <trkpt lat="48.0491" lon="2.78985">
        <ele>114</ele>
        <time>2016-12-11T08:40:00.431Z</time>
      </trkpt>
      <trkpt lat="48.04909" lon="2.78981">
        <ele>114</ele>
        <time>2016-12-11T08:40:01.429Z</time>
      </trkpt>
      <trkpt lat="48.04909" lon="2.78981">
        <ele>114</ele>
        <time>2016-12-11T08:40:02.425Z</time>
      </trkpt>
      <trkpt lat="48.04907" lon="2.78972">
        <ele>114</ele>
        <time>2016-12-11T08:40:03.396Z</time>
      </trkpt>
      <trkpt lat="48.04906" lon="2.78968">
        <ele>114</ele>
        <time>2016-12-11T08:40:04.396Z</time>
      </trkpt>
      <trkpt lat="48.04906" lon="2.78968">
        <ele>114</ele>
        <time>2016-12-11T08:40:05.431Z</time>
      </trkpt>
      <trkpt lat="48.04905" lon="2.78957">
        <ele>114</ele>
        <time>2016-12-11T08:40:06.430Z</time>
      </trkpt>
      <trkpt lat="48.04905" lon="2.78957">
        <ele>114</ele>
        <time>2016-12-11T08:40:07.426Z</time>
      </trkpt>
      <trkpt lat="48.04903" lon="2.78947">
        <ele>113</ele>
        <time>2016-12-11T08:40:08.399Z</time>
      </trkpt>
      <trkpt lat="48.04903" lon="2.78947">
        <ele>113</ele>
        <time>2016-12-11T08:40:09.435Z</time>
      </trkpt>
      <trkpt lat="48.04902" lon="2.78937">
        <ele>112</ele>
        <time>2016-12-11T08:40:10.431Z</time>
      </trkpt>
      <trkpt lat="48.04901" lon="2.78931">
        <ele>112</ele>
        <time>2016-12-11T08:40:11.428Z</time>
      </trkpt>
      <trkpt lat="48.049" lon="2.78927">
        <ele>112</ele>
        <time>2016-12-11T08:40:12.425Z</time>
      </trkpt>
      <trkpt lat="48.049" lon="2.78927">
        <ele>112</ele>
        <time>2016-12-11T08:40:13.422Z</time>
      </trkpt>
      <trkpt lat="48.04898" lon="2.78916">
        <ele>112</ele>
        <time>2016-12-11T08:40:14.431Z</time>
      </trkpt>
      <trkpt lat="48.04898" lon="2.78916">
        <ele>112</ele>
        <time>2016-12-11T08:40:15.427Z</time>
      </trkpt>
      <trkpt lat="48.04896" lon="2.78908">
        <ele>112</ele>
        <time>2016-12-11T08:40:16.400Z</time>
      </trkpt>
      <trkpt lat="48.04896" lon="2.78905">
        <ele>112</ele>
        <time>2016-12-11T08:40:17.432Z</time>
      </trkpt>
      <trkpt lat="48.04896" lon="2.78905">
        <ele>112</ele>
        <time>2016-12-11T08:40:18.409Z</time>
      </trkpt>
      <trkpt lat="48.04894" lon="2.78896">
        <ele>112</ele>
        <time>2016-12-11T08:40:19.422Z</time>
      </trkpt>
      <trkpt lat="48.04894" lon="2.78896">
        <ele>112</ele>
        <time>2016-12-11T08:40:20.420Z</time>
      </trkpt>
      <trkpt lat="48.04892" lon="2.78883">
        <ele>112</ele>
        <time>2016-12-11T08:40:21.425Z</time>
      </trkpt>
      <trkpt lat="48.04892" lon="2.78883">
        <ele>112</ele>
        <time>2016-12-11T08:40:22.422Z</time>
      </trkpt>
      <trkpt lat="48.04889" lon="2.7887">
        <ele>112</ele>
        <time>2016-12-11T08:40:23.427Z</time>
      </trkpt>
      <trkpt lat="48.04888" lon="2.78863">
        <ele>112</ele>
        <time>2016-12-11T08:40:24.425Z</time>
      </trkpt>
      <trkpt lat="48.04888" lon="2.78863">
        <ele>112</ele>
        <time>2016-12-11T08:40:25.423Z</time>
      </trkpt>
      <trkpt lat="48.04884" lon="2.78848">
        <ele>112</ele>
        <time>2016-12-11T08:40:26.428Z</time>
      </trkpt>
      <trkpt lat="48.04884" lon="2.78848">
        <ele>112</ele>
        <time>2016-12-11T08:40:27.422Z</time>
      </trkpt>
      <trkpt lat="48.04882" lon="2.78835">
        <ele>112</ele>
        <time>2016-12-11T08:40:28.422Z</time>
      </trkpt>
      <trkpt lat="48.04882" lon="2.78835">
        <ele>112</ele>
        <time>2016-12-11T08:40:29.420Z</time>
      </trkpt>
      <trkpt lat="48.04879" lon="2.78824">
        <ele>112</ele>
        <time>2016-12-11T08:40:30.432Z</time>
      </trkpt>
      <trkpt lat="48.04879" lon="2.78824">
        <ele>112</ele>
        <time>2016-12-11T08:40:31.428Z</time>
      </trkpt>
      <trkpt lat="48.04873" lon="2.78809">
        <ele>113</ele>
        <time>2016-12-11T08:40:32.426Z</time>
      </trkpt>
      <trkpt lat="48.0487" lon="2.78803">
        <ele>113</ele>
        <time>2016-12-11T08:40:33.431Z</time>
      </trkpt>
      <trkpt lat="48.0487" lon="2.78803">
        <ele>113</ele>
        <time>2016-12-11T08:40:34.420Z</time>
      </trkpt>
      <trkpt lat="48.04865" lon="2.78792">
        <ele>114</ele>
        <time>2016-12-11T08:40:35.423Z</time>
      </trkpt>
      <trkpt lat="48.04865" lon="2.78792">
        <ele>114</ele>
        <time>2016-12-11T08:40:36.421Z</time>
      </trkpt>
      <trkpt lat="48.0486" lon="2.78779">
        <ele>114</ele>
        <time>2016-12-11T08:40:37.425Z</time>
      </trkpt>
      <trkpt lat="48.04857" lon="2.78772">
        <ele>115</ele>
        <time>2016-12-11T08:40:38.424Z</time>
      </trkpt>
      <trkpt lat="48.04857" lon="2.78772">
        <ele>115</ele>
        <time>2016-12-11T08:40:39.432Z</time>
      </trkpt>
      <trkpt lat="48.04853" lon="2.78759">
        <ele>115</ele>
        <time>2016-12-11T08:40:40.428Z</time>
      </trkpt>
      <trkpt lat="48.04851" lon="2.78753">
        <ele>116</ele>
        <time>2016-12-11T08:40:41.426Z</time>
      </trkpt>
      <trkpt lat="48.04851" lon="2.78753">
        <ele>116</ele>
        <time>2016-12-11T08:40:42.423Z</time>
      </trkpt>
      <trkpt lat="48.04846" lon="2.7874">
        <ele>116</ele>
        <time>2016-12-11T08:40:43.425Z</time>
      </trkpt>
      <trkpt lat="48.04844" lon="2.78733">
        <ele>117</ele>
        <time>2016-12-11T08:40:44.420Z</time>
      </trkpt>
      <trkpt lat="48.04844" lon="2.78733">
        <ele>117</ele>
        <time>2016-12-11T08:40:45.422Z</time>
      </trkpt>
      <trkpt lat="48.0484" lon="2.78721">
        <ele>117</ele>
        <time>2016-12-11T08:40:46.417Z</time>
      </trkpt>
      <trkpt lat="48.04837" lon="2.78715">
        <ele>117</ele>
        <time>2016-12-11T08:40:47.420Z</time>
      </trkpt>
      <trkpt lat="48.04837" lon="2.78715">
        <ele>117</ele>
        <time>2016-12-11T08:40:48.416Z</time>
      </trkpt>
      <trkpt lat="48.04832" lon="2.78702">
        <ele>118</ele>
        <time>2016-12-11T08:40:49.422Z</time>
      </trkpt>
      <trkpt lat="48.0483" lon="2.78696">
        <ele>118</ele>
        <time>2016-12-11T08:40:50.427Z</time>
      </trkpt>
      <trkpt lat="48.0483" lon="2.78696">
        <ele>118</ele>
        <time>2016-12-11T08:40:51.422Z</time>
      </trkpt>
      <trkpt lat="48.0483" lon="2.78682">
        <ele>119</ele>
        <time>2016-12-11T08:40:52.427Z</time>
      </trkpt>
      <trkpt lat="48.04832" lon="2.78676">
        <ele>119</ele>
        <time>2016-12-11T08:40:53.402Z</time>
      </trkpt>
      <trkpt lat="48.04835" lon="2.7867">
        <ele>119</ele>
        <time>2016-12-11T08:40:54.403Z</time>
      </trkpt>
      <trkpt lat="48.04835" lon="2.7867">
        <ele>119</ele>
        <time>2016-12-11T08:40:55.400Z</time>
      </trkpt>
      <trkpt lat="48.04842" lon="2.78659">
        <ele>120</ele>
        <time>2016-12-11T08:40:56.428Z</time>
      </trkpt>
      <trkpt lat="48.04842" lon="2.78659">
        <ele>120</ele>
        <time>2016-12-11T08:40:57.423Z</time>
      </trkpt>
      <trkpt lat="48.04848" lon="2.78648">
        <ele>120</ele>
        <time>2016-12-11T08:40:58.425Z</time>
      </trkpt>
      <trkpt lat="48.04852" lon="2.78643">
        <ele>120</ele>
        <time>2016-12-11T08:40:59.434Z</time>
      </trkpt>
      <trkpt lat="48.04852" lon="2.78643">
        <ele>120</ele>
        <time>2016-12-11T08:41:00.432Z</time>
      </trkpt>
      <trkpt lat="48.04858" lon="2.78633">
        <ele>121</ele>
        <time>2016-12-11T08:41:01.429Z</time>
      </trkpt>
      <trkpt lat="48.04858" lon="2.78633">
        <ele>121</ele>
        <time>2016-12-11T08:41:02.425Z</time>
      </trkpt>
      <trkpt lat="48.04865" lon="2.78622">
        <ele>122</ele>
        <time>2016-12-11T08:41:03.413Z</time>
      </trkpt>
      <trkpt lat="48.04865" lon="2.78622">
        <ele>122</ele>
        <time>2016-12-11T08:41:04.420Z</time>
      </trkpt>
      <trkpt lat="48.0487" lon="2.7861">
        <ele>122</ele>
        <time>2016-12-11T08:41:05.407Z</time>
      </trkpt>
      <trkpt lat="48.04873" lon="2.78605">
        <ele>122</ele>
        <time>2016-12-11T08:41:06.404Z</time>
      </trkpt>
      <trkpt lat="48.04873" lon="2.78605">
        <ele>122</ele>
        <time>2016-12-11T08:41:07.399Z</time>
      </trkpt>
      <trkpt lat="48.0488" lon="2.78593">
        <ele>123</ele>
        <time>2016-12-11T08:41:08.400Z</time>
      </trkpt>
      <trkpt lat="48.0488" lon="2.78593">
        <ele>123</ele>
        <time>2016-12-11T08:41:09.432Z</time>
      </trkpt>
      <trkpt lat="48.04888" lon="2.78581">
        <ele>124</ele>
        <time>2016-12-11T08:41:10.430Z</time>
      </trkpt>
      <trkpt lat="48.04888" lon="2.78581">
        <ele>124</ele>
        <time>2016-12-11T08:41:11.426Z</time>
      </trkpt>
      <trkpt lat="48.04894" lon="2.78569">
        <ele>124</ele>
        <time>2016-12-11T08:41:12.423Z</time>
      </trkpt>
      <trkpt lat="48.04894" lon="2.78569">
        <ele>124</ele>
        <time>2016-12-11T08:41:13.424Z</time>
      </trkpt>
      <trkpt lat="48.04901" lon="2.78558">
        <ele>125</ele>
        <time>2016-12-11T08:41:14.432Z</time>
      </trkpt>
      <trkpt lat="48.04901" lon="2.78558">
        <ele>125</ele>
        <time>2016-12-11T08:41:15.429Z</time>
      </trkpt>
      <trkpt lat="48.04908" lon="2.78547">
        <ele>126</ele>
        <time>2016-12-11T08:41:16.402Z</time>
      </trkpt>
      <trkpt lat="48.04908" lon="2.78547">
        <ele>126</ele>
        <time>2016-12-11T08:41:17.398Z</time>
      </trkpt>
      <trkpt lat="48.04915" lon="2.78536">
        <ele>126</ele>
        <time>2016-12-11T08:41:18.428Z</time>
      </trkpt>
      <trkpt lat="48.0492" lon="2.78529">
        <ele>126</ele>
        <time>2016-12-11T08:41:19.396Z</time>
      </trkpt>
      <trkpt lat="48.0492" lon="2.78529">
        <ele>126</ele>
        <time>2016-12-11T08:41:20.402Z</time>
      </trkpt>
      <trkpt lat="48.04927" lon="2.78517">
        <ele>127</ele>
        <time>2016-12-11T08:41:21.411Z</time>
      </trkpt>
      <trkpt lat="48.04931" lon="2.78511">
        <ele>127</ele>
        <time>2016-12-11T08:41:22.407Z</time>
      </trkpt>
      <trkpt lat="48.04931" lon="2.78511">
        <ele>127</ele>
        <time>2016-12-11T08:41:23.405Z</time>
      </trkpt>
      <trkpt lat="48.0494" lon="2.78499">
        <ele>128</ele>
        <time>2016-12-11T08:41:24.407Z</time>
      </trkpt>
      <trkpt lat="48.0494" lon="2.78499">
        <ele>128</ele>
        <time>2016-12-11T08:41:25.400Z</time>
      </trkpt>
      <trkpt lat="48.04948" lon="2.78488">
        <ele>128</ele>
        <time>2016-12-11T08:41:26.399Z</time>
      </trkpt>
      <trkpt lat="48.04952" lon="2.78482">
        <ele>128</ele>
        <time>2016-12-11T08:41:27.399Z</time>
      </trkpt>
      <trkpt lat="48.04957" lon="2.78476">
        <ele>128</ele>
        <time>2016-12-11T08:41:28.399Z</time>
      </trkpt>
      <trkpt lat="48.04957" lon="2.78476">
        <ele>128</ele>
        <time>2016-12-11T08:41:29.423Z</time>
      </trkpt>
      <trkpt lat="48.04964" lon="2.78464">
        <ele>129</ele>
        <time>2016-12-11T08:41:30.428Z</time>
      </trkpt>
      <trkpt lat="48.04967" lon="2.78459">
        <ele>129</ele>
        <time>2016-12-11T08:41:31.424Z</time>
      </trkpt>
      <trkpt lat="48.04971" lon="2.78453">
        <ele>129</ele>
        <time>2016-12-11T08:41:32.401Z</time>
      </trkpt>
      <trkpt lat="48.04971" lon="2.78453">
        <ele>129</ele>
        <time>2016-12-11T08:41:33.429Z</time>
      </trkpt>
      <trkpt lat="48.04977" lon="2.78443">
        <ele>130</ele>
        <time>2016-12-11T08:41:34.432Z</time>
      </trkpt>
      <trkpt lat="48.0498" lon="2.78438">
        <ele>130</ele>
        <time>2016-12-11T08:41:35.435Z</time>
      </trkpt>
      <trkpt lat="48.04983" lon="2.78433">
        <ele>130</ele>
        <time>2016-12-11T08:41:36.432Z</time>
      </trkpt>
      <trkpt lat="48.04983" lon="2.78433">
        <ele>130</ele>
        <time>2016-12-11T08:41:37.432Z</time>
      </trkpt>
      <trkpt lat="48.04991" lon="2.78423">
        <ele>130</ele>
        <time>2016-12-11T08:41:38.432Z</time>
      </trkpt>
      <trkpt lat="48.04991" lon="2.78423">
        <ele>130</ele>
        <time>2016-12-11T08:41:39.434Z</time>
      </trkpt>
      <trkpt lat="48.04999" lon="2.78414">
        <ele>130</ele>
        <time>2016-12-11T08:41:40.432Z</time>
      </trkpt>
      <trkpt lat="48.04999" lon="2.78414">
        <ele>130</ele>
        <time>2016-12-11T08:41:41.427Z</time>
      </trkpt>
      <trkpt lat="48.05008" lon="2.78411">
        <ele>129</ele>
        <time>2016-12-11T08:41:42.402Z</time>
      </trkpt>
      <trkpt lat="48.05008" lon="2.78411">
        <ele>129</ele>
        <time>2016-12-11T08:41:43.401Z</time>
      </trkpt>
      <trkpt lat="48.05018" lon="2.78407">
        <ele>129</ele>
        <time>2016-12-11T08:41:44.396Z</time>
      </trkpt>
      <trkpt lat="48.05018" lon="2.78407">
        <ele>129</ele>
        <time>2016-12-11T08:41:45.433Z</time>
      </trkpt>
      <trkpt lat="48.05028" lon="2.78404">
        <ele>127</ele>
        <time>2016-12-11T08:41:46.433Z</time>
      </trkpt>
      <trkpt lat="48.05028" lon="2.78404">
        <ele>127</ele>
        <time>2016-12-11T08:41:47.430Z</time>
      </trkpt>
      <trkpt lat="48.05039" lon="2.78398">
        <ele>126</ele>
        <time>2016-12-11T08:41:48.427Z</time>
      </trkpt>
      <trkpt lat="48.05039" lon="2.78398">
        <ele>126</ele>
        <time>2016-12-11T08:41:49.427Z</time>
      </trkpt>
      <trkpt lat="48.05049" lon="2.78393">
        <ele>125</ele>
        <time>2016-12-11T08:41:50.427Z</time>
      </trkpt>
      <trkpt lat="48.05049" lon="2.78393">
        <ele>125</ele>
        <time>2016-12-11T08:41:51.423Z</time>
      </trkpt>
      <trkpt lat="48.05058" lon="2.78391">
        <ele>124</ele>
        <time>2016-12-11T08:41:52.428Z</time>
      </trkpt>
      <trkpt lat="48.05058" lon="2.78391">
        <ele>124</ele>
        <time>2016-12-11T08:41:53.430Z</time>
      </trkpt>
      <trkpt lat="48.05065" lon="2.78387">
        <ele>123</ele>
        <time>2016-12-11T08:41:54.433Z</time>
      </trkpt>
      <trkpt lat="48.05065" lon="2.78387">
        <ele>123</ele>
        <time>2016-12-11T08:41:55.432Z</time>
      </trkpt>
      <trkpt lat="48.05072" lon="2.78383">
        <ele>122</ele>
        <time>2016-12-11T08:41:56.430Z</time>
      </trkpt>
      <trkpt lat="48.05072" lon="2.78383">
        <ele>122</ele>
        <time>2016-12-11T08:41:57.425Z</time>
      </trkpt>
      <trkpt lat="48.05074" lon="2.78376">
        <ele>121</ele>
        <time>2016-12-11T08:41:58.434Z</time>
      </trkpt>
      <trkpt lat="48.05074" lon="2.78376">
        <ele>121</ele>
        <time>2016-12-11T08:41:59.433Z</time>
      </trkpt>
      <trkpt lat="48.05072" lon="2.78371">
        <ele>120</ele>
        <time>2016-12-11T08:42:00.431Z</time>
      </trkpt>
      <trkpt lat="48.05072" lon="2.78371">
        <ele>120</ele>
        <time>2016-12-11T08:42:01.429Z</time>
      </trkpt>
      <trkpt lat="48.05071" lon="2.78368">
        <ele>120</ele>
        <time>2016-12-11T08:42:02.428Z</time>
      </trkpt>
      <trkpt lat="48.05071" lon="2.78368">
        <ele>120</ele>
        <time>2016-12-11T08:42:03.433Z</time>
      </trkpt>
      <trkpt lat="48.05071" lon="2.78366">
        <ele>119</ele>
        <time>2016-12-11T08:42:04.417Z</time>
      </trkpt>
      <trkpt lat="48.0507" lon="2.78364">
        <ele>119</ele>
        <time>2016-12-11T08:42:05.425Z</time>
      </trkpt>
      <trkpt lat="48.0507" lon="2.78364">
        <ele>119</ele>
        <time>2016-12-11T08:42:06.423Z</time>
      </trkpt>
      <trkpt lat="48.05069" lon="2.78362">
        <ele>118</ele>
        <time>2016-12-11T08:42:07.427Z</time>
      </trkpt>
      <trkpt lat="48.05068" lon="2.78361">
        <ele>118</ele>
        <time>2016-12-11T08:42:08.426Z</time>
      </trkpt>
      <trkpt lat="48.05068" lon="2.78361">
        <ele>118</ele>
        <time>2016-12-11T08:42:09.424Z</time>
      </trkpt>
      <trkpt lat="48.05067" lon="2.78359">
        <ele>117</ele>
        <time>2016-12-11T08:42:10.426Z</time>
      </trkpt>
      <trkpt lat="48.05067" lon="2.78359">
        <ele>117</ele>
        <time>2016-12-11T08:42:11.420Z</time>
      </trkpt>
      <trkpt lat="48.05066" lon="2.78357">
        <ele>117</ele>
        <time>2016-12-11T08:42:12.428Z</time>
      </trkpt>
      <trkpt lat="48.05066" lon="2.78357">
        <ele>116</ele>
        <time>2016-12-11T08:42:13.424Z</time>
      </trkpt>
      <trkpt lat="48.05066" lon="2.78357">
        <ele>116</ele>
        <time>2016-12-11T08:42:14.415Z</time>
      </trkpt>
      <trkpt lat="48.05066" lon="2.78357">
        <ele>116</ele>
        <time>2016-12-11T08:42:15.415Z</time>
      </trkpt>
      <trkpt lat="48.05072" lon="2.78356">
        <ele>114</ele>
        <time>2016-12-11T08:42:16.404Z</time>
      </trkpt>
      <trkpt lat="48.05072" lon="2.78356">
        <ele>114</ele>
        <time>2016-12-11T08:42:17.409Z</time>
      </trkpt>
      <trkpt lat="48.05074" lon="2.78358">
        <ele>114</ele>
        <time>2016-12-11T08:42:18.405Z</time>
      </trkpt>
      <trkpt lat="48.05074" lon="2.78358">
        <ele>114</ele>
        <time>2016-12-11T08:42:19.408Z</time>
      </trkpt>
      <trkpt lat="48.05075" lon="2.78359">
        <ele>114</ele>
        <time>2016-12-11T08:42:20.405Z</time>
      </trkpt>
      <trkpt lat="48.05075" lon="2.78359">
        <ele>114</ele>
        <time>2016-12-11T08:42:21.398Z</time>
      </trkpt>
      <trkpt lat="48.05077" lon="2.7836">
        <ele>114</ele>
        <time>2016-12-11T08:42:22.405Z</time>
      </trkpt>
      <trkpt lat="48.05077" lon="2.7836">
        <ele>114</ele>
        <time>2016-12-11T08:42:23.398Z</time>
      </trkpt>
      <trkpt lat="48.05079" lon="2.7836">
        <ele>114</ele>
        <time>2016-12-11T08:42:24.405Z</time>
      </trkpt>
      <trkpt lat="48.05079" lon="2.7836">
        <ele>114</ele>
        <time>2016-12-11T08:42:25.398Z</time>
      </trkpt>
      <trkpt lat="48.0508" lon="2.7836">
        <ele>113</ele>
        <time>2016-12-11T08:42:26.403Z</time>
      </trkpt>
      <trkpt lat="48.05089" lon="2.78366">
        <ele>111</ele>
        <time>2016-12-11T08:42:27.396Z</time>
      </trkpt>
      <trkpt lat="48.0509" lon="2.78366">
        <ele>111</ele>
        <time>2016-12-11T08:42:28.430Z</time>
      </trkpt>
      <trkpt lat="48.05091" lon="2.78365">
        <ele>111</ele>
        <time>2016-12-11T08:42:29.429Z</time>
      </trkpt>
      <trkpt lat="48.05091" lon="2.78365">
        <ele>111</ele>
        <time>2016-12-11T08:42:30.427Z</time>
      </trkpt>
      <trkpt lat="48.05093" lon="2.78364">
        <ele>111</ele>
        <time>2016-12-11T08:42:31.430Z</time>
      </trkpt>
      <trkpt lat="48.05093" lon="2.78364">
        <ele>111</ele>
        <time>2016-12-11T08:42:32.423Z</time>
      </trkpt>
      <trkpt lat="48.05095" lon="2.78363">
        <ele>111</ele>
        <time>2016-12-11T08:42:33.429Z</time>
      </trkpt>
      <trkpt lat="48.05095" lon="2.78363">
        <ele>111</ele>
        <time>2016-12-11T08:42:34.426Z</time>
      </trkpt>
      <trkpt lat="48.05097" lon="2.78362">
        <ele>111</ele>
        <time>2016-12-11T08:42:35.428Z</time>
      </trkpt>
      <trkpt lat="48.05097" lon="2.78362">
        <ele>111</ele>
        <time>2016-12-11T08:42:36.423Z</time>
      </trkpt>
      <trkpt lat="48.05099" lon="2.78358">
        <ele>111</ele>
        <time>2016-12-11T08:42:37.428Z</time>
      </trkpt>
      <trkpt lat="48.05099" lon="2.78358">
        <ele>111</ele>
        <time>2016-12-11T08:42:38.425Z</time>
      </trkpt>
      <trkpt lat="48.05101" lon="2.78354">
        <ele>111</ele>
        <time>2016-12-11T08:42:39.430Z</time>
      </trkpt>
      <trkpt lat="48.05101" lon="2.78354">
        <ele>111</ele>
        <time>2016-12-11T08:42:40.422Z</time>
      </trkpt>
      <trkpt lat="48.05102" lon="2.78349">
        <ele>111</ele>
        <time>2016-12-11T08:42:41.396Z</time>
      </trkpt>
      <trkpt lat="48.05102" lon="2.78349">
        <ele>111</ele>
        <time>2016-12-11T08:42:42.426Z</time>
      </trkpt>
      <trkpt lat="48.05105" lon="2.78345">
        <ele>111</ele>
        <time>2016-12-11T08:42:43.443Z</time>
      </trkpt>
      <trkpt lat="48.05105" lon="2.78345">
        <ele>111</ele>
        <time>2016-12-11T08:42:44.426Z</time>
      </trkpt>
      <trkpt lat="48.05103" lon="2.78343">
        <ele>111</ele>
        <time>2016-12-11T08:42:45.430Z</time>
      </trkpt>
      <trkpt lat="48.05103" lon="2.78343">
        <ele>111</ele>
        <time>2016-12-11T08:42:46.423Z</time>
      </trkpt>
      <trkpt lat="48.051" lon="2.78344">
        <ele>110</ele>
        <time>2016-12-11T08:42:47.428Z</time>
      </trkpt>
      <trkpt lat="48.051" lon="2.78344">
        <ele>110</ele>
        <time>2016-12-11T08:42:48.423Z</time>
      </trkpt>
      <trkpt lat="48.05099" lon="2.7834">
        <ele>110</ele>
        <time>2016-12-11T08:42:49.404Z</time>
      </trkpt>
      <trkpt lat="48.05099" lon="2.7834">
        <ele>110</ele>
        <time>2016-12-11T08:42:50.398Z</time>
      </trkpt>
      <trkpt lat="48.05097" lon="2.78338">
        <ele>110</ele>
        <time>2016-12-11T08:42:51.396Z</time>
      </trkpt>
      <trkpt lat="48.05097" lon="2.78338">
        <ele>110</ele>
        <time>2016-12-11T08:42:52.427Z</time>
      </trkpt>
      <trkpt lat="48.05095" lon="2.78339">
        <ele>110</ele>
        <time>2016-12-11T08:42:53.429Z</time>
      </trkpt>
      <trkpt lat="48.05095" lon="2.78339">
        <ele>110</ele>
        <time>2016-12-11T08:42:54.426Z</time>
      </trkpt>
      <trkpt lat="48.05092" lon="2.78341">
        <ele>110</ele>
        <time>2016-12-11T08:42:55.425Z</time>
      </trkpt>
      <trkpt lat="48.0509" lon="2.7834">
        <ele>109</ele>
        <time>2016-12-11T08:42:56.430Z</time>
      </trkpt>
      <trkpt lat="48.0509" lon="2.7834">
        <ele>109</ele>
        <time>2016-12-11T08:42:57.427Z</time>
      </trkpt>
      <trkpt lat="48.05088" lon="2.78338">
        <ele>109</ele>
        <time>2016-12-11T08:42:58.432Z</time>
      </trkpt>
      <trkpt lat="48.05087" lon="2.78335">
        <ele>109</ele>
        <time>2016-12-11T08:42:59.430Z</time>
      </trkpt>
      <trkpt lat="48.05087" lon="2.78335">
        <ele>109</ele>
        <time>2016-12-11T08:43:00.423Z</time>
      </trkpt>
      <trkpt lat="48.05087" lon="2.78329">
        <ele>109</ele>
        <time>2016-12-11T08:43:01.429Z</time>
      </trkpt>
      <trkpt lat="48.05087" lon="2.78329">
        <ele>109</ele>
        <time>2016-12-11T08:43:02.396Z</time>
      </trkpt>
      <trkpt lat="48.05087" lon="2.78324">
        <ele>108</ele>
        <time>2016-12-11T08:43:03.402Z</time>
      </trkpt>
      <trkpt lat="48.05087" lon="2.78324">
        <ele>108</ele>
        <time>2016-12-11T08:43:04.408Z</time>
      </trkpt>
      <trkpt lat="48.05084" lon="2.7832">
        <ele>107</ele>
        <time>2016-12-11T08:43:05.430Z</time>
      </trkpt>
      <trkpt lat="48.05084" lon="2.7832">
        <ele>107</ele>
        <time>2016-12-11T08:43:06.423Z</time>
      </trkpt>
      <trkpt lat="48.05084" lon="2.78315">
        <ele>107</ele>
        <time>2016-12-11T08:43:07.430Z</time>
      </trkpt>
      <trkpt lat="48.05084" lon="2.78315">
        <ele>107</ele>
        <time>2016-12-11T08:43:08.424Z</time>
      </trkpt>
      <trkpt lat="48.05085" lon="2.7831">
        <ele>107</ele>
        <time>2016-12-11T08:43:09.436Z</time>
      </trkpt>
      <trkpt lat="48.05085" lon="2.7831">
        <ele>107</ele>
        <time>2016-12-11T08:43:10.418Z</time>
      </trkpt>
      <trkpt lat="48.05088" lon="2.7831">
        <ele>106</ele>
        <time>2016-12-11T08:43:11.423Z</time>
      </trkpt>
      <trkpt lat="48.05088" lon="2.78311">
        <ele>106</ele>
        <time>2016-12-11T08:43:12.430Z</time>
      </trkpt>
      <trkpt lat="48.05088" lon="2.78311">
        <ele>106</ele>
        <time>2016-12-11T08:43:13.424Z</time>
      </trkpt>
      <trkpt lat="48.0509" lon="2.78313">
        <ele>106</ele>
        <time>2016-12-11T08:43:14.431Z</time>
      </trkpt>
      <trkpt lat="48.05091" lon="2.78313">
        <ele>106</ele>
        <time>2016-12-11T08:43:15.430Z</time>
      </trkpt>
      <trkpt lat="48.05091" lon="2.78313">
        <ele>106</ele>
        <time>2016-12-11T08:43:16.423Z</time>
      </trkpt>
      <trkpt lat="48.05094" lon="2.7831">
        <ele>106</ele>
        <time>2016-12-11T08:43:17.420Z</time>
      </trkpt>
      <trkpt lat="48.05094" lon="2.7831">
        <ele>106</ele>
        <time>2016-12-11T08:43:18.424Z</time>
      </trkpt>
      <trkpt lat="48.05095" lon="2.78304">
        <ele>105</ele>
        <time>2016-12-11T08:43:19.429Z</time>
      </trkpt>
      <trkpt lat="48.05095" lon="2.78304">
        <ele>105</ele>
        <time>2016-12-11T08:43:20.423Z</time>
      </trkpt>
      <trkpt lat="48.05095" lon="2.78298">
        <ele>105</ele>
        <time>2016-12-11T08:43:21.424Z</time>
      </trkpt>
      <trkpt lat="48.05094" lon="2.78296">
        <ele>105</ele>
        <time>2016-12-11T08:43:22.430Z</time>
      </trkpt>
      <trkpt lat="48.05094" lon="2.78296">
        <ele>105</ele>
        <time>2016-12-11T08:43:23.427Z</time>
      </trkpt>
      <trkpt lat="48.05095" lon="2.78294">
        <ele>104</ele>
        <time>2016-12-11T08:43:24.430Z</time>
      </trkpt>
      <trkpt lat="48.05095" lon="2.78294">
        <ele>104</ele>
        <time>2016-12-11T08:43:25.426Z</time>
      </trkpt>
      <trkpt lat="48.05098" lon="2.78293">
        <ele>104</ele>
        <time>2016-12-11T08:43:26.429Z</time>
      </trkpt>
      <trkpt lat="48.05099" lon="2.78293">
        <ele>104</ele>
        <time>2016-12-11T08:43:27.432Z</time>
      </trkpt>
      <trkpt lat="48.05099" lon="2.78293">
        <ele>104</ele>
        <time>2016-12-11T08:43:28.427Z</time>
      </trkpt>
      <trkpt lat="48.05101" lon="2.78292">
        <ele>103</ele>
        <time>2016-12-11T08:43:29.430Z</time>
      </trkpt>
      <trkpt lat="48.05101" lon="2.78292">
        <ele>103</ele>
        <time>2016-12-11T08:43:30.422Z</time>
      </trkpt>
      <trkpt lat="48.05102" lon="2.78289">
        <ele>103</ele>
        <time>2016-12-11T08:43:31.428Z</time>
      </trkpt>
      <trkpt lat="48.05101" lon="2.78288">
        <ele>103</ele>
        <time>2016-12-11T08:43:32.429Z</time>
      </trkpt>
      <trkpt lat="48.05101" lon="2.78285">
        <ele>103</ele>
        <time>2016-12-11T08:43:33.431Z</time>
      </trkpt>
      <trkpt lat="48.05101" lon="2.78285">
        <ele>103</ele>
        <time>2016-12-11T08:43:34.422Z</time>
      </trkpt>
      <trkpt lat="48.05102" lon="2.78281">
        <ele>102</ele>
        <time>2016-12-11T08:43:35.431Z</time>
      </trkpt>
      <trkpt lat="48.05103" lon="2.78279">
        <ele>102</ele>
        <time>2016-12-11T08:43:36.429Z</time>
      </trkpt>
      <trkpt lat="48.05103" lon="2.78279">
        <ele>102</ele>
        <time>2016-12-11T08:43:37.425Z</time>
      </trkpt>
      <trkpt lat="48.05106" lon="2.78278">
        <ele>101</ele>
        <time>2016-12-11T08:43:38.429Z</time>
      </trkpt>
      <trkpt lat="48.05106" lon="2.78279">
        <ele>101</ele>
        <time>2016-12-11T08:43:39.431Z</time>
      </trkpt>
      <trkpt lat="48.05106" lon="2.78279">
        <ele>101</ele>
        <time>2016-12-11T08:43:40.422Z</time>
      </trkpt>
      <trkpt lat="48.05109" lon="2.78281">
        <ele>101</ele>
        <time>2016-12-11T08:43:41.430Z</time>
      </trkpt>
      <trkpt lat="48.05109" lon="2.78281">
        <ele>101</ele>
        <time>2016-12-11T08:43:42.426Z</time>
      </trkpt>
      <trkpt lat="48.05113" lon="2.78279">
        <ele>101</ele>
        <time>2016-12-11T08:43:43.432Z</time>
      </trkpt>
      <trkpt lat="48.05113" lon="2.78279">
        <ele>101</ele>
        <time>2016-12-11T08:43:44.424Z</time>
      </trkpt>
      <trkpt lat="48.05117" lon="2.78276">
        <ele>101</ele>
        <time>2016-12-11T08:43:45.431Z</time>
      </trkpt>
      <trkpt lat="48.05117" lon="2.78276">
        <ele>101</ele>
        <time>2016-12-11T08:43:46.404Z</time>
      </trkpt>
      <trkpt lat="48.05121" lon="2.78273">
        <ele>100</ele>
        <time>2016-12-11T08:43:47.396Z</time>
      </trkpt>
      <trkpt lat="48.05121" lon="2.78273">
        <ele>100</ele>
        <time>2016-12-11T08:43:48.426Z</time>
      </trkpt>
      <trkpt lat="48.05125" lon="2.78271">
        <ele>100</ele>
        <time>2016-12-11T08:43:49.430Z</time>
      </trkpt>
      <trkpt lat="48.05125" lon="2.78271">
        <ele>100</ele>
        <time>2016-12-11T08:43:50.426Z</time>
      </trkpt>
      <trkpt lat="48.05129" lon="2.78268">
        <ele>100</ele>
        <time>2016-12-11T08:43:51.430Z</time>
      </trkpt>
      <trkpt lat="48.05129" lon="2.78268">
        <ele>100</ele>
        <time>2016-12-11T08:43:52.427Z</time>
      </trkpt>
      <trkpt lat="48.05133" lon="2.78267">
        <ele>99</ele>
        <time>2016-12-11T08:43:53.430Z</time>
      </trkpt>
      <trkpt lat="48.05136" lon="2.78267">
        <ele>99</ele>
        <time>2016-12-11T08:43:54.429Z</time>
      </trkpt>
      <trkpt lat="48.05136" lon="2.78267">
        <ele>99</ele>
        <time>2016-12-11T08:43:55.431Z</time>
      </trkpt>
      <trkpt lat="48.05137" lon="2.78267">
        <ele>99</ele>
        <time>2016-12-11T08:43:56.428Z</time>
      </trkpt>
      <trkpt lat="48.05138" lon="2.78265">
        <ele>99</ele>
        <time>2016-12-11T08:43:57.430Z</time>
      </trkpt>
      <trkpt lat="48.05138" lon="2.78265">
        <ele>99</ele>
        <time>2016-12-11T08:43:58.424Z</time>
      </trkpt>
      <trkpt lat="48.05136" lon="2.7826">
        <ele>98</ele>
        <time>2016-12-11T08:43:59.429Z</time>
      </trkpt>
      <trkpt lat="48.05136" lon="2.7826">
        <ele>98</ele>
        <time>2016-12-11T08:44:00.422Z</time>
      </trkpt>
      <trkpt lat="48.05132" lon="2.78257">
        <ele>98</ele>
        <time>2016-12-11T08:44:01.429Z</time>
      </trkpt>
      <trkpt lat="48.05132" lon="2.78257">
        <ele>98</ele>
        <time>2016-12-11T08:44:02.423Z</time>
      </trkpt>
      <trkpt lat="48.05128" lon="2.78254">
        <ele>97</ele>
        <time>2016-12-11T08:44:03.432Z</time>
      </trkpt>
      <trkpt lat="48.05128" lon="2.78254">
        <ele>97</ele>
        <time>2016-12-11T08:44:04.426Z</time>
      </trkpt>
      <trkpt lat="48.05128" lon="2.78247">
        <ele>97</ele>
        <time>2016-12-11T08:44:05.431Z</time>
      </trkpt>
      <trkpt lat="48.0513" lon="2.78244">
        <ele>97</ele>
        <time>2016-12-11T08:44:06.429Z</time>
      </trkpt>
      <trkpt lat="48.05133" lon="2.78241">
        <ele>96</ele>
        <time>2016-12-11T08:44:07.430Z</time>
      </trkpt>
      <trkpt lat="48.05133" lon="2.78241">
        <ele>96</ele>
        <time>2016-12-11T08:44:08.426Z</time>
      </trkpt>
      <trkpt lat="48.05135" lon="2.78233">
        <ele>96</ele>
        <time>2016-12-11T08:44:09.401Z</time>
      </trkpt>
      <trkpt lat="48.05135" lon="2.78233">
        <ele>96</ele>
        <time>2016-12-11T08:44:10.432Z</time>
      </trkpt>
      <trkpt lat="48.05137" lon="2.78225">
        <ele>96</ele>
        <time>2016-12-11T08:44:11.429Z</time>
      </trkpt>
      <trkpt lat="48.05137" lon="2.78225">
        <ele>96</ele>
        <time>2016-12-11T08:44:12.422Z</time>
      </trkpt>
      <trkpt lat="48.05139" lon="2.78221">
        <ele>95</ele>
        <time>2016-12-11T08:44:13.429Z</time>
      </trkpt>
      <trkpt lat="48.05139" lon="2.78221">
        <ele>95</ele>
        <time>2016-12-11T08:44:14.426Z</time>
      </trkpt>
      <trkpt lat="48.05141" lon="2.78219">
        <ele>94</ele>
        <time>2016-12-11T08:44:15.409Z</time>
      </trkpt>
      <trkpt lat="48.05141" lon="2.78219">
        <ele>94</ele>
        <time>2016-12-11T08:44:16.404Z</time>
      </trkpt>
      <trkpt lat="48.05144" lon="2.78219">
        <ele>93</ele>
        <time>2016-12-11T08:44:17.418Z</time>
      </trkpt>
      <trkpt lat="48.05144" lon="2.78219">
        <ele>93</ele>
        <time>2016-12-11T08:44:18.397Z</time>
      </trkpt>
      <trkpt lat="48.05147" lon="2.78222">
        <ele>93</ele>
        <time>2016-12-11T08:44:19.432Z</time>
      </trkpt>
      <trkpt lat="48.05147" lon="2.78222">
        <ele>93</ele>
        <time>2016-12-11T08:44:20.401Z</time>
      </trkpt>
      <trkpt lat="48.0515" lon="2.78222">
        <ele>93</ele>
        <time>2016-12-11T08:44:21.431Z</time>
      </trkpt>
      <trkpt lat="48.0515" lon="2.78222">
        <ele>93</ele>
        <time>2016-12-11T08:44:22.404Z</time>
      </trkpt>
      <trkpt lat="48.05155" lon="2.78223">
        <ele>93</ele>
        <time>2016-12-11T08:44:23.396Z</time>
      </trkpt>
      <trkpt lat="48.05155" lon="2.78223">
        <ele>93</ele>
        <time>2016-12-11T08:44:24.427Z</time>
      </trkpt>
      <trkpt lat="48.0516" lon="2.78221">
        <ele>93</ele>
        <time>2016-12-11T08:44:25.430Z</time>
      </trkpt>
      <trkpt lat="48.05164" lon="2.7822">
        <ele>93</ele>
        <time>2016-12-11T08:44:26.430Z</time>
      </trkpt>
      <trkpt lat="48.05164" lon="2.7822">
        <ele>93</ele>
        <time>2016-12-11T08:44:27.424Z</time>
      </trkpt>
      <trkpt lat="48.05169" lon="2.78217">
        <ele>93</ele>
        <time>2016-12-11T08:44:28.430Z</time>
      </trkpt>
      <trkpt lat="48.0517" lon="2.78215">
        <ele>93</ele>
        <time>2016-12-11T08:44:29.430Z</time>
      </trkpt>
      <trkpt lat="48.0517" lon="2.78215">
        <ele>93</ele>
        <time>2016-12-11T08:44:30.423Z</time>
      </trkpt>
      <trkpt lat="48.0517" lon="2.78209">
        <ele>93</ele>
        <time>2016-12-11T08:44:31.432Z</time>
      </trkpt>
      <trkpt lat="48.0517" lon="2.78209">
        <ele>93</ele>
        <time>2016-12-11T08:44:32.423Z</time>
      </trkpt>
      <trkpt lat="48.05173" lon="2.78205">
        <ele>92</ele>
        <time>2016-12-11T08:44:33.432Z</time>
      </trkpt>
      <trkpt lat="48.05173" lon="2.78205">
        <ele>92</ele>
        <time>2016-12-11T08:44:34.423Z</time>
      </trkpt>
      <trkpt lat="48.05177" lon="2.78204">
        <ele>92</ele>
        <time>2016-12-11T08:44:35.430Z</time>
      </trkpt>
      <trkpt lat="48.05177" lon="2.78204">
        <ele>92</ele>
        <time>2016-12-11T08:44:36.424Z</time>
      </trkpt>
      <trkpt lat="48.0518" lon="2.78202">
        <ele>92</ele>
        <time>2016-12-11T08:44:37.429Z</time>
      </trkpt>
      <trkpt lat="48.0518" lon="2.78202">
        <ele>92</ele>
        <time>2016-12-11T08:44:38.424Z</time>
      </trkpt>
      <trkpt lat="48.05182" lon="2.78196">
        <ele>93</ele>
        <time>2016-12-11T08:44:39.431Z</time>
      </trkpt>
      <trkpt lat="48.05182" lon="2.78196">
        <ele>93</ele>
        <time>2016-12-11T08:44:40.424Z</time>
      </trkpt>
      <trkpt lat="48.05187" lon="2.7819">
        <ele>93</ele>
        <time>2016-12-11T08:44:41.430Z</time>
      </trkpt>
      <trkpt lat="48.05187" lon="2.7819">
        <ele>93</ele>
        <time>2016-12-11T08:44:42.423Z</time>
      </trkpt>
      <trkpt lat="48.05192" lon="2.78185">
        <ele>93</ele>
        <time>2016-12-11T08:44:43.433Z</time>
      </trkpt>
      <trkpt lat="48.05192" lon="2.78185">
        <ele>93</ele>
        <time>2016-12-11T08:44:44.424Z</time>
      </trkpt>
      <trkpt lat="48.05194" lon="2.78179">
        <ele>94</ele>
        <time>2016-12-11T08:44:45.431Z</time>
      </trkpt>
      <trkpt lat="48.05194" lon="2.78179">
        <ele>94</ele>
        <time>2016-12-11T08:44:46.414Z</time>
      </trkpt>
      <trkpt lat="48.05195" lon="2.78173">
        <ele>94</ele>
        <time>2016-12-11T08:44:47.404Z</time>
      </trkpt>
      <trkpt lat="48.05194" lon="2.78171">
        <ele>94</ele>
        <time>2016-12-11T08:44:48.396Z</time>
      </trkpt>
      <trkpt lat="48.05194" lon="2.78171">
        <ele>94</ele>
        <time>2016-12-11T08:44:49.426Z</time>
      </trkpt>
      <trkpt lat="48.05194" lon="2.78168">
        <ele>94</ele>
        <time>2016-12-11T08:44:50.430Z</time>
      </trkpt>
      <trkpt lat="48.05194" lon="2.78165">
        <ele>95</ele>
        <time>2016-12-11T08:44:51.432Z</time>
      </trkpt>
      <trkpt lat="48.05194" lon="2.78165">
        <ele>95</ele>
        <time>2016-12-11T08:44:52.423Z</time>
      </trkpt>
      <trkpt lat="48.05194" lon="2.78161">
        <ele>95</ele>
        <time>2016-12-11T08:44:53.430Z</time>
      </trkpt>
      <trkpt lat="48.05194" lon="2.78161">
        <ele>95</ele>
        <time>2016-12-11T08:44:54.424Z</time>
      </trkpt>
      <trkpt lat="48.05193" lon="2.78157">
        <ele>95</ele>
        <time>2016-12-11T08:44:55.429Z</time>
      </trkpt>
      <trkpt lat="48.05193" lon="2.78153">
        <ele>95</ele>
        <time>2016-12-11T08:44:56.430Z</time>
      </trkpt>
      <trkpt lat="48.05194" lon="2.78149">
        <ele>96</ele>
        <time>2016-12-11T08:44:57.432Z</time>
      </trkpt>
      <trkpt lat="48.05194" lon="2.78149">
        <ele>96</ele>
        <time>2016-12-11T08:44:58.424Z</time>
      </trkpt>
      <trkpt lat="48.05193" lon="2.78145">
        <ele>97</ele>
        <time>2016-12-11T08:44:59.404Z</time>
      </trkpt>
      <trkpt lat="48.05193" lon="2.78145">
        <ele>97</ele>
        <time>2016-12-11T08:45:00.398Z</time>
      </trkpt>
      <trkpt lat="48.05193" lon="2.78141">
        <ele>97</ele>
        <time>2016-12-11T08:45:01.431Z</time>
      </trkpt>
      <trkpt lat="48.05193" lon="2.78141">
        <ele>97</ele>
        <time>2016-12-11T08:45:02.420Z</time>
      </trkpt>
      <trkpt lat="48.05194" lon="2.78137">
        <ele>98</ele>
        <time>2016-12-11T08:45:03.430Z</time>
      </trkpt>
      <trkpt lat="48.05194" lon="2.78137">
        <ele>98</ele>
        <time>2016-12-11T08:45:04.423Z</time>
      </trkpt>
      <trkpt lat="48.05197" lon="2.78134">
        <ele>98</ele>
        <time>2016-12-11T08:45:05.429Z</time>
      </trkpt>
      <trkpt lat="48.05197" lon="2.78134">
        <ele>98</ele>
        <time>2016-12-11T08:45:06.424Z</time>
      </trkpt>
      <trkpt lat="48.052" lon="2.78128">
        <ele>99</ele>
        <time>2016-12-11T08:45:07.430Z</time>
      </trkpt>
      <trkpt lat="48.052" lon="2.78128">
        <ele>99</ele>
        <time>2016-12-11T08:45:08.427Z</time>
      </trkpt>
      <trkpt lat="48.05204" lon="2.78122">
        <ele>99</ele>
        <time>2016-12-11T08:45:09.431Z</time>
      </trkpt>
      <trkpt lat="48.05204" lon="2.78122">
        <ele>99</ele>
        <time>2016-12-11T08:45:10.424Z</time>
      </trkpt>
      <trkpt lat="48.05209" lon="2.78114">
        <ele>99</ele>
        <time>2016-12-11T08:45:11.429Z</time>
      </trkpt>
      <trkpt lat="48.05209" lon="2.78114">
        <ele>99</ele>
        <time>2016-12-11T08:45:12.419Z</time>
      </trkpt>
      <trkpt lat="48.05213" lon="2.78106">
        <ele>99</ele>
        <time>2016-12-11T08:45:13.430Z</time>
      </trkpt>
      <trkpt lat="48.05213" lon="2.78106">
        <ele>99</ele>
        <time>2016-12-11T08:45:14.428Z</time>
      </trkpt>
      <trkpt lat="48.05217" lon="2.78098">
        <ele>100</ele>
        <time>2016-12-11T08:45:15.431Z</time>
      </trkpt>
      <trkpt lat="48.05217" lon="2.78098">
        <ele>100</ele>
        <time>2016-12-11T08:45:16.404Z</time>
      </trkpt>
      <trkpt lat="48.0522" lon="2.78089">
        <ele>100</ele>
        <time>2016-12-11T08:45:17.418Z</time>
      </trkpt>
      <trkpt lat="48.0522" lon="2.78089">
        <ele>100</ele>
        <time>2016-12-11T08:45:18.424Z</time>
      </trkpt>
      <trkpt lat="48.05218" lon="2.78082">
        <ele>99</ele>
        <time>2016-12-11T08:45:19.431Z</time>
      </trkpt>
      <trkpt lat="48.05218" lon="2.78082">
        <ele>99</ele>
        <time>2016-12-11T08:45:20.423Z</time>
      </trkpt>
      <trkpt lat="48.05215" lon="2.78077">
        <ele>100</ele>
        <time>2016-12-11T08:45:21.431Z</time>
      </trkpt>
      <trkpt lat="48.05215" lon="2.78077">
        <ele>100</ele>
        <time>2016-12-11T08:45:22.427Z</time>
      </trkpt>
      <trkpt lat="48.0521" lon="2.78074">
        <ele>100</ele>
        <time>2016-12-11T08:45:23.430Z</time>
      </trkpt>
      <trkpt lat="48.0521" lon="2.78074">
        <ele>100</ele>
        <time>2016-12-11T08:45:24.424Z</time>
      </trkpt>
      <trkpt lat="48.05205" lon="2.7807">
        <ele>100</ele>
        <time>2016-12-11T08:45:25.431Z</time>
      </trkpt>
      <trkpt lat="48.05202" lon="2.78068">
        <ele>100</ele>
        <time>2016-12-11T08:45:26.431Z</time>
      </trkpt>
      <trkpt lat="48.05198" lon="2.78067">
        <ele>100</ele>
        <time>2016-12-11T08:45:27.432Z</time>
      </trkpt>
      <trkpt lat="48.05198" lon="2.78067">
        <ele>100</ele>
        <time>2016-12-11T08:45:28.424Z</time>
      </trkpt>
      <trkpt lat="48.05192" lon="2.78063">
        <ele>100</ele>
        <time>2016-12-11T08:45:29.401Z</time>
      </trkpt>
      <trkpt lat="48.05189" lon="2.78061">
        <ele>99</ele>
        <time>2016-12-11T08:45:30.432Z</time>
      </trkpt>
      <trkpt lat="48.05189" lon="2.78061">
        <ele>99</ele>
        <time>2016-12-11T08:45:31.424Z</time>
      </trkpt>
      <trkpt lat="48.05183" lon="2.78058">
        <ele>99</ele>
        <time>2016-12-11T08:45:32.429Z</time>
      </trkpt>
      <trkpt lat="48.0518" lon="2.78057">
        <ele>99</ele>
        <time>2016-12-11T08:45:33.399Z</time>
      </trkpt>
      <trkpt lat="48.0518" lon="2.78057">
        <ele>99</ele>
        <time>2016-12-11T08:45:34.428Z</time>
      </trkpt>
      <trkpt lat="48.05173" lon="2.78055">
        <ele>99</ele>
        <time>2016-12-11T08:45:35.431Z</time>
      </trkpt>
      <trkpt lat="48.05173" lon="2.78055">
        <ele>99</ele>
        <time>2016-12-11T08:45:36.426Z</time>
      </trkpt>
      <trkpt lat="48.05167" lon="2.78052">
        <ele>99</ele>
        <time>2016-12-11T08:45:37.430Z</time>
      </trkpt>
      <trkpt lat="48.05167" lon="2.78052">
        <ele>99</ele>
        <time>2016-12-11T08:45:38.427Z</time>
      </trkpt>
      <trkpt lat="48.05161" lon="2.78049">
        <ele>98</ele>
        <time>2016-12-11T08:45:39.431Z</time>
      </trkpt>
      <trkpt lat="48.05161" lon="2.78049">
        <ele>98</ele>
        <time>2016-12-11T08:45:40.427Z</time>
      </trkpt>
      <trkpt lat="48.05154" lon="2.78045">
        <ele>98</ele>
        <time>2016-12-11T08:45:41.430Z</time>
      </trkpt>
      <trkpt lat="48.05154" lon="2.78045">
        <ele>98</ele>
        <time>2016-12-11T08:45:42.423Z</time>
      </trkpt>
      <trkpt lat="48.05146" lon="2.78043">
        <ele>98</ele>
        <time>2016-12-11T08:45:43.433Z</time>
      </trkpt>
      <trkpt lat="48.05146" lon="2.78043">
        <ele>98</ele>
        <time>2016-12-11T08:45:44.399Z</time>
      </trkpt>
      <trkpt lat="48.05139" lon="2.78039">
        <ele>98</ele>
        <time>2016-12-11T08:45:45.430Z</time>
      </trkpt>
      <trkpt lat="48.05139" lon="2.78039">
        <ele>98</ele>
        <time>2016-12-11T08:45:46.411Z</time>
      </trkpt>
      <trkpt lat="48.05132" lon="2.78036">
        <ele>98</ele>
        <time>2016-12-11T08:45:47.401Z</time>
      </trkpt>
      <trkpt lat="48.05132" lon="2.78036">
        <ele>98</ele>
        <time>2016-12-11T08:45:48.431Z</time>
      </trkpt>
      <trkpt lat="48.05124" lon="2.78032">
        <ele>98</ele>
        <time>2016-12-11T08:45:49.431Z</time>
      </trkpt>
      <trkpt lat="48.05124" lon="2.78032">
        <ele>98</ele>
        <time>2016-12-11T08:45:50.425Z</time>
      </trkpt>
      <trkpt lat="48.05117" lon="2.7803">
        <ele>98</ele>
        <time>2016-12-11T08:45:51.432Z</time>
      </trkpt>
      <trkpt lat="48.05117" lon="2.7803">
        <ele>98</ele>
        <time>2016-12-11T08:45:52.424Z</time>
      </trkpt>
      <trkpt lat="48.0511" lon="2.78027">
        <ele>98</ele>
        <time>2016-12-11T08:45:53.432Z</time>
      </trkpt>
      <trkpt lat="48.0511" lon="2.78027">
        <ele>98</ele>
        <time>2016-12-11T08:45:54.424Z</time>
      </trkpt>
      <trkpt lat="48.05102" lon="2.78023">
        <ele>98</ele>
        <time>2016-12-11T08:45:55.432Z</time>
      </trkpt>
      <trkpt lat="48.05102" lon="2.78023">
        <ele>98</ele>
        <time>2016-12-11T08:45:56.424Z</time>
      </trkpt>
      <trkpt lat="48.05094" lon="2.7802">
        <ele>98</ele>
        <time>2016-12-11T08:45:57.432Z</time>
      </trkpt>
      <trkpt lat="48.05094" lon="2.7802">
        <ele>98</ele>
        <time>2016-12-11T08:45:58.433Z</time>
      </trkpt>
      <trkpt lat="48.05087" lon="2.78019">
        <ele>98</ele>
        <time>2016-12-11T08:45:59.430Z</time>
      </trkpt>
      <trkpt lat="48.05087" lon="2.78019">
        <ele>98</ele>
        <time>2016-12-11T08:46:00.424Z</time>
      </trkpt>
      <trkpt lat="48.05078" lon="2.78017">
        <ele>98</ele>
        <time>2016-12-11T08:46:01.431Z</time>
      </trkpt>
      <trkpt lat="48.05074" lon="2.78014">
        <ele>98</ele>
        <time>2016-12-11T08:46:02.431Z</time>
      </trkpt>
      <trkpt lat="48.05074" lon="2.78014">
        <ele>98</ele>
        <time>2016-12-11T08:46:03.429Z</time>
      </trkpt>
      <trkpt lat="48.05066" lon="2.78009">
        <ele>98</ele>
        <time>2016-12-11T08:46:04.430Z</time>
      </trkpt>
      <trkpt lat="48.05062" lon="2.78007">
        <ele>98</ele>
        <time>2016-12-11T08:46:05.431Z</time>
      </trkpt>
      <trkpt lat="48.05062" lon="2.78007">
        <ele>98</ele>
        <time>2016-12-11T08:46:06.424Z</time>
      </trkpt>
      <trkpt lat="48.05055" lon="2.78003">
        <ele>99</ele>
        <time>2016-12-11T08:46:07.430Z</time>
      </trkpt>
      <trkpt lat="48.05055" lon="2.78003">
        <ele>99</ele>
        <time>2016-12-11T08:46:08.426Z</time>
      </trkpt>
      <trkpt lat="48.05047" lon="2.78">
        <ele>99</ele>
        <time>2016-12-11T08:46:09.431Z</time>
      </trkpt>
      <trkpt lat="48.05047" lon="2.78">
        <ele>99</ele>
        <time>2016-12-11T08:46:10.424Z</time>
      </trkpt>
      <trkpt lat="48.0504" lon="2.77997">
        <ele>99</ele>
        <time>2016-12-11T08:46:11.430Z</time>
      </trkpt>
      <trkpt lat="48.0504" lon="2.77997">
        <ele>99</ele>
        <time>2016-12-11T08:46:12.424Z</time>
      </trkpt>
      <trkpt lat="48.05032" lon="2.77993">
        <ele>99</ele>
        <time>2016-12-11T08:46:13.397Z</time>
      </trkpt>
      <trkpt lat="48.05028" lon="2.77992">
        <ele>99</ele>
        <time>2016-12-11T08:46:14.431Z</time>
      </trkpt>
      <trkpt lat="48.05024" lon="2.7799">
        <ele>100</ele>
        <time>2016-12-11T08:46:15.431Z</time>
      </trkpt>
      <trkpt lat="48.05024" lon="2.7799">
        <ele>100</ele>
        <time>2016-12-11T08:46:16.424Z</time>
      </trkpt>
      <trkpt lat="48.05016" lon="2.77986">
        <ele>100</ele>
        <time>2016-12-11T08:46:17.408Z</time>
      </trkpt>
      <trkpt lat="48.05016" lon="2.77986">
        <ele>100</ele>
        <time>2016-12-11T08:46:18.429Z</time>
      </trkpt>
      <trkpt lat="48.05008" lon="2.77983">
        <ele>101</ele>
        <time>2016-12-11T08:46:19.435Z</time>
      </trkpt>
      <trkpt lat="48.05005" lon="2.77982">
        <ele>101</ele>
        <time>2016-12-11T08:46:20.401Z</time>
      </trkpt>
      <trkpt lat="48.05005" lon="2.77982">
        <ele>101</ele>
        <time>2016-12-11T08:46:21.430Z</time>
      </trkpt>
      <trkpt lat="48.04997" lon="2.77979">
        <ele>101</ele>
        <time>2016-12-11T08:46:22.402Z</time>
      </trkpt>
      <trkpt lat="48.04997" lon="2.77979">
        <ele>101</ele>
        <time>2016-12-11T08:46:23.432Z</time>
      </trkpt>
      <trkpt lat="48.0499" lon="2.77975">
        <ele>101</ele>
        <time>2016-12-11T08:46:24.430Z</time>
      </trkpt>
      <trkpt lat="48.0499" lon="2.77975">
        <ele>101</ele>
        <time>2016-12-11T08:46:25.434Z</time>
      </trkpt>
      <trkpt lat="48.04982" lon="2.77971">
        <ele>102</ele>
        <time>2016-12-11T08:46:26.430Z</time>
      </trkpt>
      <trkpt lat="48.04979" lon="2.7797">
        <ele>102</ele>
        <time>2016-12-11T08:46:27.431Z</time>
      </trkpt>
      <trkpt lat="48.04979" lon="2.7797">
        <ele>102</ele>
        <time>2016-12-11T08:46:28.424Z</time>
      </trkpt>
      <trkpt lat="48.04971" lon="2.77967">
        <ele>102</ele>
        <time>2016-12-11T08:46:29.431Z</time>
      </trkpt>
      <trkpt lat="48.04971" lon="2.77967">
        <ele>102</ele>
        <time>2016-12-11T08:46:30.424Z</time>
      </trkpt>
      <trkpt lat="48.04965" lon="2.77965">
        <ele>103</ele>
        <time>2016-12-11T08:46:31.431Z</time>
      </trkpt>
      <trkpt lat="48.04962" lon="2.77964">
        <ele>103</ele>
        <time>2016-12-11T08:46:32.431Z</time>
      </trkpt>
      <trkpt lat="48.04958" lon="2.77962">
        <ele>103</ele>
        <time>2016-12-11T08:46:33.431Z</time>
      </trkpt>
      <trkpt lat="48.04958" lon="2.77962">
        <ele>103</ele>
        <time>2016-12-11T08:46:34.424Z</time>
      </trkpt>
      <trkpt lat="48.04952" lon="2.77958">
        <ele>104</ele>
        <time>2016-12-11T08:46:35.431Z</time>
      </trkpt>
      <trkpt lat="48.04948" lon="2.77957">
        <ele>104</ele>
        <time>2016-12-11T08:46:36.431Z</time>
      </trkpt>
      <trkpt lat="48.04945" lon="2.77957">
        <ele>104</ele>
        <time>2016-12-11T08:46:37.431Z</time>
      </trkpt>
      <trkpt lat="48.04941" lon="2.77956">
        <ele>104</ele>
        <time>2016-12-11T08:46:38.431Z</time>
      </trkpt>
      <trkpt lat="48.04941" lon="2.77956">
        <ele>104</ele>
        <time>2016-12-11T08:46:39.400Z</time>
      </trkpt>
      <trkpt lat="48.04936" lon="2.77952">
        <ele>104</ele>
        <time>2016-12-11T08:46:40.431Z</time>
      </trkpt>
      <trkpt lat="48.04936" lon="2.77952">
        <ele>104</ele>
        <time>2016-12-11T08:46:41.424Z</time>
      </trkpt>
      <trkpt lat="48.04928" lon="2.77951">
        <ele>104</ele>
        <time>2016-12-11T08:46:42.431Z</time>
      </trkpt>
      <trkpt lat="48.04928" lon="2.77951">
        <ele>104</ele>
        <time>2016-12-11T08:46:43.424Z</time>
      </trkpt>
      <trkpt lat="48.0492" lon="2.77949">
        <ele>104</ele>
        <time>2016-12-11T08:46:44.432Z</time>
      </trkpt>
      <trkpt lat="48.0492" lon="2.77949">
        <ele>104</ele>
        <time>2016-12-11T08:46:45.430Z</time>
      </trkpt>
      <trkpt lat="48.04912" lon="2.77946">
        <ele>104</ele>
        <time>2016-12-11T08:46:46.433Z</time>
      </trkpt>
      <trkpt lat="48.04912" lon="2.77946">
        <ele>104</ele>
        <time>2016-12-11T08:46:47.429Z</time>
      </trkpt>
      <trkpt lat="48.04904" lon="2.77944">
        <ele>104</ele>
        <time>2016-12-11T08:46:48.431Z</time>
      </trkpt>
      <trkpt lat="48.04904" lon="2.77944">
        <ele>104</ele>
        <time>2016-12-11T08:46:49.426Z</time>
      </trkpt>
      <trkpt lat="48.04897" lon="2.77941">
        <ele>104</ele>
        <time>2016-12-11T08:46:50.433Z</time>
      </trkpt>
      <trkpt lat="48.04897" lon="2.77941">
        <ele>104</ele>
        <time>2016-12-11T08:46:51.434Z</time>
      </trkpt>
      <trkpt lat="48.0489" lon="2.77937">
        <ele>104</ele>
        <time>2016-12-11T08:46:52.432Z</time>
      </trkpt>
      <trkpt lat="48.0489" lon="2.77937">
        <ele>104</ele>
        <time>2016-12-11T08:46:53.421Z</time>
      </trkpt>
      <trkpt lat="48.04881" lon="2.77933">
        <ele>104</ele>
        <time>2016-12-11T08:46:54.431Z</time>
      </trkpt>
      <trkpt lat="48.04881" lon="2.77933">
        <ele>104</ele>
        <time>2016-12-11T08:46:55.424Z</time>
      </trkpt>
      <trkpt lat="48.04872" lon="2.77931">
        <ele>104</ele>
        <time>2016-12-11T08:46:56.429Z</time>
      </trkpt>
      <trkpt lat="48.04872" lon="2.77931">
        <ele>104</ele>
        <time>2016-12-11T08:46:57.429Z</time>
      </trkpt>
      <trkpt lat="48.04864" lon="2.77927">
        <ele>105</ele>
        <time>2016-12-11T08:46:58.430Z</time>
      </trkpt>
      <trkpt lat="48.0486" lon="2.77926">
        <ele>105</ele>
        <time>2016-12-11T08:46:59.431Z</time>
      </trkpt>
      <trkpt lat="48.0486" lon="2.77926">
        <ele>105</ele>
        <time>2016-12-11T08:47:00.424Z</time>
      </trkpt>
      <trkpt lat="48.04852" lon="2.77923">
        <ele>105</ele>
        <time>2016-12-11T08:47:01.431Z</time>
      </trkpt>
      <trkpt lat="48.04852" lon="2.77923">
        <ele>105</ele>
        <time>2016-12-11T08:47:02.429Z</time>
      </trkpt>
      <trkpt lat="48.04845" lon="2.77921">
        <ele>105</ele>
        <time>2016-12-11T08:47:03.422Z</time>
      </trkpt>
      <trkpt lat="48.04841" lon="2.77919">
        <ele>106</ele>
        <time>2016-12-11T08:47:04.431Z</time>
      </trkpt>
      <trkpt lat="48.04838" lon="2.77917">
        <ele>106</ele>
        <time>2016-12-11T08:47:05.431Z</time>
      </trkpt>
      <trkpt lat="48.04834" lon="2.77913">
        <ele>106</ele>
        <time>2016-12-11T08:47:06.433Z</time>
      </trkpt>
      <trkpt lat="48.04829" lon="2.77911">
        <ele>105</ele>
        <time>2016-12-11T08:47:07.431Z</time>
      </trkpt>
      <trkpt lat="48.04829" lon="2.77911">
        <ele>105</ele>
        <time>2016-12-11T08:47:08.426Z</time>
      </trkpt>
      <trkpt lat="48.04821" lon="2.77907">
        <ele>105</ele>
        <time>2016-12-11T08:47:09.432Z</time>
      </trkpt>
      <trkpt lat="48.04816" lon="2.77905">
        <ele>105</ele>
        <time>2016-12-11T08:47:10.432Z</time>
      </trkpt>
      <trkpt lat="48.04816" lon="2.77905">
        <ele>105</ele>
        <time>2016-12-11T08:47:11.429Z</time>
      </trkpt>
      <trkpt lat="48.04809" lon="2.77901">
        <ele>105</ele>
        <time>2016-12-11T08:47:12.430Z</time>
      </trkpt>
      <trkpt lat="48.04809" lon="2.77901">
        <ele>105</ele>
        <time>2016-12-11T08:47:13.427Z</time>
      </trkpt>
      <trkpt lat="48.04801" lon="2.77897">
        <ele>104</ele>
        <time>2016-12-11T08:47:14.430Z</time>
      </trkpt>
      <trkpt lat="48.04797" lon="2.77896">
        <ele>104</ele>
        <time>2016-12-11T08:47:15.400Z</time>
      </trkpt>
      <trkpt lat="48.04793" lon="2.77894">
        <ele>104</ele>
        <time>2016-12-11T08:47:16.433Z</time>
      </trkpt>
      <trkpt lat="48.04793" lon="2.77894">
        <ele>104</ele>
        <time>2016-12-11T08:47:17.429Z</time>
      </trkpt>
      <trkpt lat="48.04784" lon="2.77891">
        <ele>104</ele>
        <time>2016-12-11T08:47:18.413Z</time>
      </trkpt>
      <trkpt lat="48.04779" lon="2.77888">
        <ele>103</ele>
        <time>2016-12-11T08:47:19.423Z</time>
      </trkpt>
      <trkpt lat="48.04779" lon="2.77888">
        <ele>103</ele>
        <time>2016-12-11T08:47:20.430Z</time>
      </trkpt>
      <trkpt lat="48.04771" lon="2.77884">
        <ele>104</ele>
        <time>2016-12-11T08:47:21.432Z</time>
      </trkpt>
      <trkpt lat="48.04767" lon="2.77882">
        <ele>104</ele>
        <time>2016-12-11T08:47:22.433Z</time>
      </trkpt>
      <trkpt lat="48.04767" lon="2.77882">
        <ele>104</ele>
        <time>2016-12-11T08:47:23.429Z</time>
      </trkpt>
      <trkpt lat="48.04759" lon="2.77877">
        <ele>104</ele>
        <time>2016-12-11T08:47:24.432Z</time>
      </trkpt>
      <trkpt lat="48.04759" lon="2.77877">
        <ele>104</ele>
        <time>2016-12-11T08:47:25.428Z</time>
      </trkpt>
      <trkpt lat="48.0475" lon="2.77873">
        <ele>103</ele>
        <time>2016-12-11T08:47:26.429Z</time>
      </trkpt>
      <trkpt lat="48.0475" lon="2.77873">
        <ele>103</ele>
        <time>2016-12-11T08:47:27.429Z</time>
      </trkpt>
      <trkpt lat="48.04741" lon="2.77869">
        <ele>103</ele>
        <time>2016-12-11T08:47:28.430Z</time>
      </trkpt>
      <trkpt lat="48.04737" lon="2.77867">
        <ele>103</ele>
        <time>2016-12-11T08:47:29.431Z</time>
      </trkpt>
      <trkpt lat="48.04737" lon="2.77867">
        <ele>103</ele>
        <time>2016-12-11T08:47:30.425Z</time>
      </trkpt>
      <trkpt lat="48.04729" lon="2.77862">
        <ele>103</ele>
        <time>2016-12-11T08:47:31.430Z</time>
      </trkpt>
      <trkpt lat="48.04729" lon="2.77862">
        <ele>103</ele>
        <time>2016-12-11T08:47:32.429Z</time>
      </trkpt>
      <trkpt lat="48.04721" lon="2.77858">
        <ele>103</ele>
        <time>2016-12-11T08:47:33.431Z</time>
      </trkpt>
      <trkpt lat="48.04716" lon="2.77856">
        <ele>102</ele>
        <time>2016-12-11T08:47:34.430Z</time>
      </trkpt>
      <trkpt lat="48.04716" lon="2.77856">
        <ele>102</ele>
        <time>2016-12-11T08:47:35.429Z</time>
      </trkpt>
      <trkpt lat="48.04708" lon="2.77853">
        <ele>102</ele>
        <time>2016-12-11T08:47:36.431Z</time>
      </trkpt>
      <trkpt lat="48.04708" lon="2.77853">
        <ele>102</ele>
        <time>2016-12-11T08:47:37.429Z</time>
      </trkpt>
      <trkpt lat="48.047" lon="2.77854">
        <ele>101</ele>
        <time>2016-12-11T08:47:38.430Z</time>
      </trkpt>
      <trkpt lat="48.047" lon="2.77854">
        <ele>101</ele>
        <time>2016-12-11T08:47:39.425Z</time>
      </trkpt>
      <trkpt lat="48.04697" lon="2.77861">
        <ele>101</ele>
        <time>2016-12-11T08:47:40.429Z</time>
      </trkpt>
      <trkpt lat="48.04697" lon="2.77866">
        <ele>100</ele>
        <time>2016-12-11T08:47:41.431Z</time>
      </trkpt>
      <trkpt lat="48.04697" lon="2.77871">
        <ele>100</ele>
        <time>2016-12-11T08:47:42.431Z</time>
      </trkpt>
      <trkpt lat="48.04698" lon="2.77878">
        <ele>99</ele>
        <time>2016-12-11T08:47:43.433Z</time>
      </trkpt>
      <trkpt lat="48.04698" lon="2.77878">
        <ele>99</ele>
        <time>2016-12-11T08:47:44.429Z</time>
      </trkpt>
      <trkpt lat="48.04698" lon="2.77893">
        <ele>99</ele>
        <time>2016-12-11T08:47:45.429Z</time>
      </trkpt>
      <trkpt lat="48.04698" lon="2.77901">
        <ele>99</ele>
        <time>2016-12-11T08:47:46.432Z</time>
      </trkpt>
      <trkpt lat="48.04698" lon="2.77901">
        <ele>99</ele>
        <time>2016-12-11T08:47:47.429Z</time>
      </trkpt>
      <trkpt lat="48.04699" lon="2.77914">
        <ele>98</ele>
        <time>2016-12-11T08:47:48.431Z</time>
      </trkpt>
      <trkpt lat="48.04699" lon="2.77914">
        <ele>98</ele>
        <time>2016-12-11T08:47:49.398Z</time>
      </trkpt>
      <trkpt lat="48.04701" lon="2.77928">
        <ele>98</ele>
        <time>2016-12-11T08:47:50.432Z</time>
      </trkpt>
      <trkpt lat="48.04701" lon="2.77928">
        <ele>98</ele>
        <time>2016-12-11T08:47:51.430Z</time>
      </trkpt>
      <trkpt lat="48.04704" lon="2.77943">
        <ele>97</ele>
        <time>2016-12-11T08:47:52.431Z</time>
      </trkpt>
      <trkpt lat="48.04704" lon="2.77943">
        <ele>97</ele>
        <time>2016-12-11T08:47:53.425Z</time>
      </trkpt>
      <trkpt lat="48.04709" lon="2.77958">
        <ele>96</ele>
        <time>2016-12-11T08:47:54.406Z</time>
      </trkpt>
      <trkpt lat="48.04709" lon="2.77958">
        <ele>96</ele>
        <time>2016-12-11T08:47:55.404Z</time>
      </trkpt>
      <trkpt lat="48.04718" lon="2.77974">
        <ele>96</ele>
        <time>2016-12-11T08:47:56.403Z</time>
      </trkpt>
      <trkpt lat="48.04722" lon="2.77982">
        <ele>95</ele>
        <time>2016-12-11T08:47:57.397Z</time>
      </trkpt>
      <trkpt lat="48.04722" lon="2.77982">
        <ele>95</ele>
        <time>2016-12-11T08:47:58.427Z</time>
      </trkpt>
      <trkpt lat="48.04731" lon="2.77998">
        <ele>95</ele>
        <time>2016-12-11T08:47:59.431Z</time>
      </trkpt>
      <trkpt lat="48.04731" lon="2.77998">
        <ele>95</ele>
        <time>2016-12-11T08:48:00.429Z</time>
      </trkpt>
      <trkpt lat="48.04741" lon="2.78012">
        <ele>94</ele>
        <time>2016-12-11T08:48:01.431Z</time>
      </trkpt>
      <trkpt lat="48.04741" lon="2.78012">
        <ele>94</ele>
        <time>2016-12-11T08:48:02.424Z</time>
      </trkpt>
      <trkpt lat="48.04748" lon="2.78022">
        <ele>93</ele>
        <time>2016-12-11T08:48:03.431Z</time>
      </trkpt>
      <trkpt lat="48.04748" lon="2.78022">
        <ele>93</ele>
        <time>2016-12-11T08:48:04.428Z</time>
      </trkpt>
      <trkpt lat="48.0475" lon="2.78028">
        <ele>92</ele>
        <time>2016-12-11T08:48:05.431Z</time>
      </trkpt>
      <trkpt lat="48.04751" lon="2.7803">
        <ele>92</ele>
        <time>2016-12-11T08:48:06.431Z</time>
      </trkpt>
      <trkpt lat="48.04751" lon="2.7803">
        <ele>92</ele>
        <time>2016-12-11T08:48:07.429Z</time>
      </trkpt>
      <trkpt lat="48.04747" lon="2.78031">
        <ele>92</ele>
        <time>2016-12-11T08:48:08.431Z</time>
      </trkpt>
      <trkpt lat="48.04747" lon="2.78031">
        <ele>92</ele>
        <time>2016-12-11T08:48:09.429Z</time>
      </trkpt>
      <trkpt lat="48.04741" lon="2.78031">
        <ele>91</ele>
        <time>2016-12-11T08:48:10.430Z</time>
      </trkpt>
      <trkpt lat="48.04738" lon="2.7803">
        <ele>91</ele>
        <time>2016-12-11T08:48:11.431Z</time>
      </trkpt>
      <trkpt lat="48.04738" lon="2.7803">
        <ele>91</ele>
        <time>2016-12-11T08:48:12.427Z</time>
      </trkpt>
      <trkpt lat="48.04732" lon="2.7803">
        <ele>91</ele>
        <time>2016-12-11T08:48:13.431Z</time>
      </trkpt>
      <trkpt lat="48.04732" lon="2.7803">
        <ele>91</ele>
        <time>2016-12-11T08:48:14.424Z</time>
      </trkpt>
      <trkpt lat="48.04726" lon="2.78027">
        <ele>90</ele>
        <time>2016-12-11T08:48:15.432Z</time>
      </trkpt>
      <trkpt lat="48.04723" lon="2.78025">
        <ele>90</ele>
        <time>2016-12-11T08:48:16.403Z</time>
      </trkpt>
      <trkpt lat="48.04723" lon="2.78025">
        <ele>90</ele>
        <time>2016-12-11T08:48:17.431Z</time>
      </trkpt>
      <trkpt lat="48.04717" lon="2.78022">
        <ele>89</ele>
        <time>2016-12-11T08:48:18.434Z</time>
      </trkpt>
      <trkpt lat="48.04715" lon="2.78021">
        <ele>89</ele>
        <time>2016-12-11T08:48:19.432Z</time>
      </trkpt>
      <trkpt lat="48.04715" lon="2.78021">
        <ele>89</ele>
        <time>2016-12-11T08:48:20.429Z</time>
      </trkpt>
      <trkpt lat="48.0471" lon="2.78015">
        <ele>89</ele>
        <time>2016-12-11T08:48:21.432Z</time>
      </trkpt>
      <trkpt lat="48.04707" lon="2.78014">
        <ele>89</ele>
        <time>2016-12-11T08:48:22.431Z</time>
      </trkpt>
      <trkpt lat="48.04704" lon="2.78011">
        <ele>89</ele>
        <time>2016-12-11T08:48:23.430Z</time>
      </trkpt>
      <trkpt lat="48.04704" lon="2.78011">
        <ele>89</ele>
        <time>2016-12-11T08:48:24.425Z</time>
      </trkpt>
      <trkpt lat="48.04699" lon="2.78007">
        <ele>89</ele>
        <time>2016-12-11T08:48:25.431Z</time>
      </trkpt>
      <trkpt lat="48.04699" lon="2.78007">
        <ele>89</ele>
        <time>2016-12-11T08:48:26.429Z</time>
      </trkpt>
      <trkpt lat="48.04695" lon="2.78002">
        <ele>88</ele>
        <time>2016-12-11T08:48:27.433Z</time>
      </trkpt>
      <trkpt lat="48.04695" lon="2.78002">
        <ele>88</ele>
        <time>2016-12-11T08:48:28.424Z</time>
      </trkpt>
      <trkpt lat="48.04691" lon="2.78">
        <ele>88</ele>
        <time>2016-12-11T08:48:29.431Z</time>
      </trkpt>
      <trkpt lat="48.04691" lon="2.78">
        <ele>88</ele>
        <time>2016-12-11T08:48:30.429Z</time>
      </trkpt>
      <trkpt lat="48.04685" lon="2.78002">
        <ele>88</ele>
        <time>2016-12-11T08:48:31.431Z</time>
      </trkpt>
      <trkpt lat="48.04685" lon="2.78002">
        <ele>88</ele>
        <time>2016-12-11T08:48:32.426Z</time>
      </trkpt>
      <trkpt lat="48.04681" lon="2.78007">
        <ele>88</ele>
        <time>2016-12-11T08:48:33.432Z</time>
      </trkpt>
      <trkpt lat="48.04681" lon="2.78007">
        <ele>88</ele>
        <time>2016-12-11T08:48:34.429Z</time>
      </trkpt>
      <trkpt lat="48.04677" lon="2.78012">
        <ele>89</ele>
        <time>2016-12-11T08:48:35.431Z</time>
      </trkpt>
      <trkpt lat="48.04675" lon="2.78014">
        <ele>89</ele>
        <time>2016-12-11T08:48:36.407Z</time>
      </trkpt>
      <trkpt lat="48.04675" lon="2.78014">
        <ele>89</ele>
        <time>2016-12-11T08:48:37.400Z</time>
      </trkpt>
      <trkpt lat="48.04672" lon="2.78019">
        <ele>89</ele>
        <time>2016-12-11T08:48:38.433Z</time>
      </trkpt>
      <trkpt lat="48.04672" lon="2.78019">
        <ele>89</ele>
        <time>2016-12-11T08:48:39.427Z</time>
      </trkpt>
      <trkpt lat="48.04669" lon="2.78022">
        <ele>88</ele>
        <time>2016-12-11T08:48:40.431Z</time>
      </trkpt>
      <trkpt lat="48.04667" lon="2.78024">
        <ele>88</ele>
        <time>2016-12-11T08:48:41.431Z</time>
      </trkpt>
      <trkpt lat="48.04667" lon="2.78024">
        <ele>88</ele>
        <time>2016-12-11T08:48:42.429Z</time>
      </trkpt>
      <trkpt lat="48.04665" lon="2.78028">
        <ele>89</ele>
        <time>2016-12-11T08:48:43.435Z</time>
      </trkpt>
      <trkpt lat="48.04665" lon="2.78028">
        <ele>89</ele>
        <time>2016-12-11T08:48:44.410Z</time>
      </trkpt>
      <trkpt lat="48.04662" lon="2.78031">
        <ele>89</ele>
        <time>2016-12-11T08:48:45.403Z</time>
      </trkpt>
      <trkpt lat="48.04662" lon="2.78031">
        <ele>89</ele>
        <time>2016-12-11T08:48:46.433Z</time>
      </trkpt>
      <trkpt lat="48.0466" lon="2.78036">
        <ele>89</ele>
        <time>2016-12-11T08:48:47.432Z</time>
      </trkpt>
      <trkpt lat="48.0466" lon="2.78036">
        <ele>89</ele>
        <time>2016-12-11T08:48:48.429Z</time>
      </trkpt>
      <trkpt lat="48.04657" lon="2.78038">
        <ele>90</ele>
        <time>2016-12-11T08:48:49.431Z</time>
      </trkpt>
      <trkpt lat="48.04657" lon="2.78038">
        <ele>90</ele>
        <time>2016-12-11T08:48:50.425Z</time>
      </trkpt>
      <trkpt lat="48.04654" lon="2.7804">
        <ele>90</ele>
        <time>2016-12-11T08:48:51.432Z</time>
      </trkpt>
      <trkpt lat="48.04654" lon="2.7804">
        <ele>90</ele>
        <time>2016-12-11T08:48:52.427Z</time>
      </trkpt>
      <trkpt lat="48.04652" lon="2.78042">
        <ele>90</ele>
        <time>2016-12-11T08:48:53.431Z</time>
      </trkpt>
      <trkpt lat="48.04652" lon="2.78042">
        <ele>90</ele>
        <time>2016-12-11T08:48:54.420Z</time>
      </trkpt>
      <trkpt lat="48.0465" lon="2.78045">
        <ele>91</ele>
        <time>2016-12-11T08:48:55.431Z</time>
      </trkpt>
      <trkpt lat="48.0465" lon="2.78045">
        <ele>91</ele>
        <time>2016-12-11T08:48:56.429Z</time>
      </trkpt>
      <trkpt lat="48.04647" lon="2.78048">
        <ele>91</ele>
        <time>2016-12-11T08:48:57.432Z</time>
      </trkpt>
      <trkpt lat="48.04647" lon="2.78048">
        <ele>91</ele>
        <time>2016-12-11T08:48:58.429Z</time>
      </trkpt>
      <trkpt lat="48.04643" lon="2.78051">
        <ele>92</ele>
        <time>2016-12-11T08:48:59.429Z</time>
      </trkpt>
      <trkpt lat="48.04643" lon="2.78051">
        <ele>92</ele>
        <time>2016-12-11T08:49:00.424Z</time>
      </trkpt>
      <trkpt lat="48.0464" lon="2.78054">
        <ele>92</ele>
        <time>2016-12-11T08:49:01.430Z</time>
      </trkpt>
      <trkpt lat="48.04639" lon="2.78056">
        <ele>93</ele>
        <time>2016-12-11T08:49:02.431Z</time>
      </trkpt>
      <trkpt lat="48.04638" lon="2.78059">
        <ele>93</ele>
        <time>2016-12-11T08:49:03.432Z</time>
      </trkpt>
      <trkpt lat="48.04638" lon="2.78059">
        <ele>93</ele>
        <time>2016-12-11T08:49:04.427Z</time>
      </trkpt>
      <trkpt lat="48.04635" lon="2.78063">
        <ele>93</ele>
        <time>2016-12-11T08:49:05.434Z</time>
      </trkpt>
      <trkpt lat="48.04634" lon="2.78064">
        <ele>93</ele>
        <time>2016-12-11T08:49:06.431Z</time>
      </trkpt>
      <trkpt lat="48.04632" lon="2.78066">
        <ele>94</ele>
        <time>2016-12-11T08:49:07.431Z</time>
      </trkpt>
      <trkpt lat="48.04632" lon="2.78066">
        <ele>94</ele>
        <time>2016-12-11T08:49:08.425Z</time>
      </trkpt>
      <trkpt lat="48.04631" lon="2.7807">
        <ele>93</ele>
        <time>2016-12-11T08:49:09.432Z</time>
      </trkpt>
      <trkpt lat="48.04631" lon="2.7807">
        <ele>93</ele>
        <time>2016-12-11T08:49:10.430Z</time>
      </trkpt>
      <trkpt lat="48.0463" lon="2.78073">
        <ele>94</ele>
        <time>2016-12-11T08:49:11.432Z</time>
      </trkpt>
      <trkpt lat="48.04628" lon="2.78074">
        <ele>94</ele>
        <time>2016-12-11T08:49:12.433Z</time>
      </trkpt>
      <trkpt lat="48.04628" lon="2.78074">
        <ele>94</ele>
        <time>2016-12-11T08:49:13.429Z</time>
      </trkpt>
      <trkpt lat="48.04625" lon="2.78078">
        <ele>94</ele>
        <time>2016-12-11T08:49:14.434Z</time>
      </trkpt>
      <trkpt lat="48.04625" lon="2.78078">
        <ele>94</ele>
        <time>2016-12-11T08:49:15.430Z</time>
      </trkpt>
      <trkpt lat="48.04621" lon="2.78082">
        <ele>94</ele>
        <time>2016-12-11T08:49:16.432Z</time>
      </trkpt>
      <trkpt lat="48.04619" lon="2.78084">
        <ele>94</ele>
        <time>2016-12-11T08:49:17.427Z</time>
      </trkpt>
      <trkpt lat="48.04619" lon="2.78084">
        <ele>94</ele>
        <time>2016-12-11T08:49:18.429Z</time>
      </trkpt>
      <trkpt lat="48.04616" lon="2.78088">
        <ele>95</ele>
        <time>2016-12-11T08:49:19.432Z</time>
      </trkpt>
      <trkpt lat="48.04616" lon="2.78088">
        <ele>95</ele>
        <time>2016-12-11T08:49:20.429Z</time>
      </trkpt>
      <trkpt lat="48.04614" lon="2.78092">
        <ele>95</ele>
        <time>2016-12-11T08:49:21.429Z</time>
      </trkpt>
      <trkpt lat="48.04614" lon="2.78092">
        <ele>95</ele>
        <time>2016-12-11T08:49:22.432Z</time>
      </trkpt>
      <trkpt lat="48.04611" lon="2.78097">
        <ele>96</ele>
        <time>2016-12-11T08:49:23.432Z</time>
      </trkpt>
      <trkpt lat="48.04611" lon="2.78097">
        <ele>96</ele>
        <time>2016-12-11T08:49:24.429Z</time>
      </trkpt>
      <trkpt lat="48.04608" lon="2.78103">
        <ele>96</ele>
        <time>2016-12-11T08:49:25.431Z</time>
      </trkpt>
      <trkpt lat="48.04606" lon="2.78106">
        <ele>97</ele>
        <time>2016-12-11T08:49:26.432Z</time>
      </trkpt>
      <trkpt lat="48.04606" lon="2.78106">
        <ele>97</ele>
        <time>2016-12-11T08:49:27.430Z</time>
      </trkpt>
      <trkpt lat="48.04603" lon="2.78112">
        <ele>98</ele>
        <time>2016-12-11T08:49:28.431Z</time>
      </trkpt>
      <trkpt lat="48.04602" lon="2.78114">
        <ele>98</ele>
        <time>2016-12-11T08:49:29.430Z</time>
      </trkpt>
      <trkpt lat="48.04602" lon="2.78114">
        <ele>98</ele>
        <time>2016-12-11T08:49:30.424Z</time>
      </trkpt>
      <trkpt lat="48.04598" lon="2.78118">
        <ele>98</ele>
        <time>2016-12-11T08:49:31.431Z</time>
      </trkpt>
      <trkpt lat="48.04598" lon="2.78118">
        <ele>98</ele>
        <time>2016-12-11T08:49:32.429Z</time>
      </trkpt>
      <trkpt lat="48.04595" lon="2.78122">
        <ele>99</ele>
        <time>2016-12-11T08:49:33.432Z</time>
      </trkpt>
      <trkpt lat="48.04595" lon="2.78122">
        <ele>99</ele>
        <time>2016-12-11T08:49:34.424Z</time>
      </trkpt>
      <trkpt lat="48.04591" lon="2.78126">
        <ele>99</ele>
        <time>2016-12-11T08:49:35.405Z</time>
      </trkpt>
      <trkpt lat="48.04591" lon="2.78126">
        <ele>99</ele>
        <time>2016-12-11T08:49:36.399Z</time>
      </trkpt>
      <trkpt lat="48.04588" lon="2.78131">
        <ele>99</ele>
        <time>2016-12-11T08:49:37.431Z</time>
      </trkpt>
      <trkpt lat="48.04588" lon="2.78131">
        <ele>99</ele>
        <time>2016-12-11T08:49:38.427Z</time>
      </trkpt>
      <trkpt lat="48.04586" lon="2.78137">
        <ele>100</ele>
        <time>2016-12-11T08:49:39.434Z</time>
      </trkpt>
      <trkpt lat="48.04586" lon="2.78137">
        <ele>100</ele>
        <time>2016-12-11T08:49:40.430Z</time>
      </trkpt>
      <trkpt lat="48.04583" lon="2.78142">
        <ele>100</ele>
        <time>2016-12-11T08:49:41.432Z</time>
      </trkpt>
      <trkpt lat="48.04581" lon="2.78144">
        <ele>100</ele>
        <time>2016-12-11T08:49:42.432Z</time>
      </trkpt>
      <trkpt lat="48.04581" lon="2.78144">
        <ele>100</ele>
        <time>2016-12-11T08:49:43.430Z</time>
      </trkpt>
      <trkpt lat="48.04577" lon="2.78147">
        <ele>101</ele>
        <time>2016-12-11T08:49:44.431Z</time>
      </trkpt>
      <trkpt lat="48.04575" lon="2.78149">
        <ele>100</ele>
        <time>2016-12-11T08:49:45.432Z</time>
      </trkpt>
      <trkpt lat="48.04575" lon="2.78149">
        <ele>100</ele>
        <time>2016-12-11T08:49:46.413Z</time>
      </trkpt>
      <trkpt lat="48.0457" lon="2.78152">
        <ele>100</ele>
        <time>2016-12-11T08:49:47.402Z</time>
      </trkpt>
      <trkpt lat="48.0457" lon="2.78152">
        <ele>100</ele>
        <time>2016-12-11T08:49:48.432Z</time>
      </trkpt>
      <trkpt lat="48.04567" lon="2.78156">
        <ele>100</ele>
        <time>2016-12-11T08:49:49.431Z</time>
      </trkpt>
      <trkpt lat="48.04567" lon="2.78156">
        <ele>100</ele>
        <time>2016-12-11T08:49:50.434Z</time>
      </trkpt>
      <trkpt lat="48.04564" lon="2.78161">
        <ele>100</ele>
        <time>2016-12-11T08:49:51.433Z</time>
      </trkpt>
      <trkpt lat="48.04564" lon="2.78161">
        <ele>100</ele>
        <time>2016-12-11T08:49:52.429Z</time>
      </trkpt>
      <trkpt lat="48.04562" lon="2.78165">
        <ele>101</ele>
        <time>2016-12-11T08:49:53.431Z</time>
      </trkpt>
      <trkpt lat="48.04562" lon="2.78165">
        <ele>101</ele>
        <time>2016-12-11T08:49:54.428Z</time>
      </trkpt>
      <trkpt lat="48.0456" lon="2.78168">
        <ele>102</ele>
        <time>2016-12-11T08:49:55.431Z</time>
      </trkpt>
      <trkpt lat="48.04559" lon="2.7817">
        <ele>102</ele>
        <time>2016-12-11T08:49:56.431Z</time>
      </trkpt>
      <trkpt lat="48.04558" lon="2.78171">
        <ele>102</ele>
        <time>2016-12-11T08:49:57.432Z</time>
      </trkpt>
      <trkpt lat="48.04557" lon="2.78172">
        <ele>102</ele>
        <time>2016-12-11T08:49:58.433Z</time>
      </trkpt>
      <trkpt lat="48.04557" lon="2.78172">
        <ele>102</ele>
        <time>2016-12-11T08:49:59.402Z</time>
      </trkpt>
      <trkpt lat="48.04556" lon="2.78176">
        <ele>103</ele>
        <time>2016-12-11T08:50:00.432Z</time>
      </trkpt>
      <trkpt lat="48.04555" lon="2.78178">
        <ele>103</ele>
        <time>2016-12-11T08:50:01.430Z</time>
      </trkpt>
      <trkpt lat="48.04553" lon="2.7818">
        <ele>103</ele>
        <time>2016-12-11T08:50:02.431Z</time>
      </trkpt>
      <trkpt lat="48.04553" lon="2.7818">
        <ele>103</ele>
        <time>2016-12-11T08:50:03.430Z</time>
      </trkpt>
      <trkpt lat="48.0455" lon="2.78184">
        <ele>103</ele>
        <time>2016-12-11T08:50:04.400Z</time>
      </trkpt>
      <trkpt lat="48.0455" lon="2.78184">
        <ele>103</ele>
        <time>2016-12-11T08:50:05.429Z</time>
      </trkpt>
      <trkpt lat="48.04547" lon="2.78189">
        <ele>103</ele>
        <time>2016-12-11T08:50:06.431Z</time>
      </trkpt>
      <trkpt lat="48.04547" lon="2.78189">
        <ele>103</ele>
        <time>2016-12-11T08:50:07.429Z</time>
      </trkpt>
      <trkpt lat="48.04544" lon="2.78194">
        <ele>104</ele>
        <time>2016-12-11T08:50:08.432Z</time>
      </trkpt>
      <trkpt lat="48.04544" lon="2.78197">
        <ele>104</ele>
        <time>2016-12-11T08:50:09.434Z</time>
      </trkpt>
      <trkpt lat="48.04544" lon="2.78197">
        <ele>104</ele>
        <time>2016-12-11T08:50:10.429Z</time>
      </trkpt>
      <trkpt lat="48.04543" lon="2.78202">
        <ele>105</ele>
        <time>2016-12-11T08:50:11.431Z</time>
      </trkpt>
      <trkpt lat="48.04542" lon="2.78203">
        <ele>105</ele>
        <time>2016-12-11T08:50:12.432Z</time>
      </trkpt>
      <trkpt lat="48.04542" lon="2.78203">
        <ele>105</ele>
        <time>2016-12-11T08:50:13.425Z</time>
      </trkpt>
      <trkpt lat="48.0454" lon="2.78206">
        <ele>105</ele>
        <time>2016-12-11T08:50:14.431Z</time>
      </trkpt>
      <trkpt lat="48.04539" lon="2.78208">
        <ele>105</ele>
        <time>2016-12-11T08:50:15.410Z</time>
      </trkpt>
      <trkpt lat="48.04539" lon="2.78208">
        <ele>105</ele>
        <time>2016-12-11T08:50:16.412Z</time>
      </trkpt>
      <trkpt lat="48.04537" lon="2.78213">
        <ele>106</ele>
        <time>2016-12-11T08:50:17.426Z</time>
      </trkpt>
      <trkpt lat="48.04537" lon="2.78213">
        <ele>106</ele>
        <time>2016-12-11T08:50:18.427Z</time>
      </trkpt>
      <trkpt lat="48.04534" lon="2.78219">
        <ele>106</ele>
        <time>2016-12-11T08:50:19.433Z</time>
      </trkpt>
      <trkpt lat="48.04534" lon="2.78219">
        <ele>106</ele>
        <time>2016-12-11T08:50:20.404Z</time>
      </trkpt>
      <trkpt lat="48.04531" lon="2.78224">
        <ele>107</ele>
        <time>2016-12-11T08:50:21.410Z</time>
      </trkpt>
      <trkpt lat="48.04531" lon="2.78224">
        <ele>107</ele>
        <time>2016-12-11T08:50:22.404Z</time>
      </trkpt>
      <trkpt lat="48.04525" lon="2.78226">
        <ele>106</ele>
        <time>2016-12-11T08:50:23.433Z</time>
      </trkpt>
      <trkpt lat="48.04525" lon="2.78226">
        <ele>106</ele>
        <time>2016-12-11T08:50:24.429Z</time>
      </trkpt>
      <trkpt lat="48.0452" lon="2.7823">
        <ele>107</ele>
        <time>2016-12-11T08:50:25.432Z</time>
      </trkpt>
      <trkpt lat="48.04517" lon="2.78233">
        <ele>107</ele>
        <time>2016-12-11T08:50:26.430Z</time>
      </trkpt>
      <trkpt lat="48.04515" lon="2.78236">
        <ele>107</ele>
        <time>2016-12-11T08:50:27.432Z</time>
      </trkpt>
      <trkpt lat="48.04515" lon="2.78236">
        <ele>107</ele>
        <time>2016-12-11T08:50:28.429Z</time>
      </trkpt>
      <trkpt lat="48.04512" lon="2.78243">
        <ele>107</ele>
        <time>2016-12-11T08:50:29.429Z</time>
      </trkpt>
      <trkpt lat="48.04511" lon="2.78245">
        <ele>107</ele>
        <time>2016-12-11T08:50:30.431Z</time>
      </trkpt>
      <trkpt lat="48.04511" lon="2.78245">
        <ele>107</ele>
        <time>2016-12-11T08:50:31.427Z</time>
      </trkpt>
      <trkpt lat="48.04509" lon="2.78252">
        <ele>107</ele>
        <time>2016-12-11T08:50:32.432Z</time>
      </trkpt>
      <trkpt lat="48.04507" lon="2.78255">
        <ele>107</ele>
        <time>2016-12-11T08:50:33.433Z</time>
      </trkpt>
      <trkpt lat="48.04507" lon="2.78255">
        <ele>107</ele>
        <time>2016-12-11T08:50:34.429Z</time>
      </trkpt>
      <trkpt lat="48.04503" lon="2.78259">
        <ele>107</ele>
        <time>2016-12-11T08:50:35.427Z</time>
      </trkpt>
      <trkpt lat="48.045" lon="2.78262">
        <ele>107</ele>
        <time>2016-12-11T08:50:36.432Z</time>
      </trkpt>
      <trkpt lat="48.045" lon="2.78262">
        <ele>107</ele>
        <time>2016-12-11T08:50:37.430Z</time>
      </trkpt>
      <trkpt lat="48.04494" lon="2.78267">
        <ele>108</ele>
        <time>2016-12-11T08:50:38.432Z</time>
      </trkpt>
      <trkpt lat="48.04492" lon="2.7827">
        <ele>108</ele>
        <time>2016-12-11T08:50:39.434Z</time>
      </trkpt>
      <trkpt lat="48.04492" lon="2.7827">
        <ele>108</ele>
        <time>2016-12-11T08:50:40.403Z</time>
      </trkpt>
      <trkpt lat="48.04488" lon="2.78275">
        <ele>108</ele>
        <time>2016-12-11T08:50:41.434Z</time>
      </trkpt>
      <trkpt lat="48.04488" lon="2.78275">
        <ele>108</ele>
        <time>2016-12-11T08:50:42.430Z</time>
      </trkpt>
      <trkpt lat="48.04483" lon="2.78282">
        <ele>108</ele>
        <time>2016-12-11T08:50:43.432Z</time>
      </trkpt>
      <trkpt lat="48.04483" lon="2.78282">
        <ele>108</ele>
        <time>2016-12-11T08:50:44.429Z</time>
      </trkpt>
      <trkpt lat="48.04478" lon="2.78288">
        <ele>109</ele>
        <time>2016-12-11T08:50:45.424Z</time>
      </trkpt>
      <trkpt lat="48.04475" lon="2.7829">
        <ele>109</ele>
        <time>2016-12-11T08:50:46.409Z</time>
      </trkpt>
      <trkpt lat="48.04475" lon="2.7829">
        <ele>109</ele>
        <time>2016-12-11T08:50:47.401Z</time>
      </trkpt>
      <trkpt lat="48.0447" lon="2.78294">
        <ele>109</ele>
        <time>2016-12-11T08:50:48.432Z</time>
      </trkpt>
      <trkpt lat="48.0447" lon="2.78294">
        <ele>109</ele>
        <time>2016-12-11T08:50:49.419Z</time>
      </trkpt>
      <trkpt lat="48.04467" lon="2.783">
        <ele>109</ele>
        <time>2016-12-11T08:50:50.411Z</time>
      </trkpt>
      <trkpt lat="48.04467" lon="2.78304">
        <ele>109</ele>
        <time>2016-12-11T08:50:51.402Z</time>
      </trkpt>
      <trkpt lat="48.04467" lon="2.78304">
        <ele>109</ele>
        <time>2016-12-11T08:50:52.432Z</time>
      </trkpt>
      <trkpt lat="48.04465" lon="2.7831">
        <ele>109</ele>
        <time>2016-12-11T08:50:53.429Z</time>
      </trkpt>
      <trkpt lat="48.04465" lon="2.7831">
        <ele>109</ele>
        <time>2016-12-11T08:50:54.426Z</time>
      </trkpt>
      <trkpt lat="48.04462" lon="2.78315">
        <ele>109</ele>
        <time>2016-12-11T08:50:55.430Z</time>
      </trkpt>
      <trkpt lat="48.0446" lon="2.78316">
        <ele>109</ele>
        <time>2016-12-11T08:50:56.431Z</time>
      </trkpt>
      <trkpt lat="48.04457" lon="2.78318">
        <ele>108</ele>
        <time>2016-12-11T08:50:57.432Z</time>
      </trkpt>
      <trkpt lat="48.04457" lon="2.78318">
        <ele>108</ele>
        <time>2016-12-11T08:50:58.427Z</time>
      </trkpt>
      <trkpt lat="48.04452" lon="2.78323">
        <ele>109</ele>
        <time>2016-12-11T08:50:59.432Z</time>
      </trkpt>
      <trkpt lat="48.04452" lon="2.78323">
        <ele>109</ele>
        <time>2016-12-11T08:51:00.429Z</time>
      </trkpt>
      <trkpt lat="48.04449" lon="2.78329">
        <ele>109</ele>
        <time>2016-12-11T08:51:01.431Z</time>
      </trkpt>
      <trkpt lat="48.04449" lon="2.78329">
        <ele>109</ele>
        <time>2016-12-11T08:51:02.427Z</time>
      </trkpt>
      <trkpt lat="48.04446" lon="2.78334">
        <ele>109</ele>
        <time>2016-12-11T08:51:03.433Z</time>
      </trkpt>
      <trkpt lat="48.04446" lon="2.78334">
        <ele>109</ele>
        <time>2016-12-11T08:51:04.430Z</time>
      </trkpt>
      <trkpt lat="48.04441" lon="2.78339">
        <ele>109</ele>
        <time>2016-12-11T08:51:05.432Z</time>
      </trkpt>
      <trkpt lat="48.04441" lon="2.78339">
        <ele>109</ele>
        <time>2016-12-11T08:51:06.430Z</time>
      </trkpt>
      <trkpt lat="48.04437" lon="2.78344">
        <ele>109</ele>
        <time>2016-12-11T08:51:07.430Z</time>
      </trkpt>
      <trkpt lat="48.04437" lon="2.78344">
        <ele>109</ele>
        <time>2016-12-11T08:51:08.433Z</time>
      </trkpt>
      <trkpt lat="48.04434" lon="2.78348">
        <ele>109</ele>
        <time>2016-12-11T08:51:09.430Z</time>
      </trkpt>
      <trkpt lat="48.04434" lon="2.78348">
        <ele>109</ele>
        <time>2016-12-11T08:51:10.426Z</time>
      </trkpt>
      <trkpt lat="48.04432" lon="2.78351">
        <ele>109</ele>
        <time>2016-12-11T08:51:11.431Z</time>
      </trkpt>
      <trkpt lat="48.04432" lon="2.78351">
        <ele>109</ele>
        <time>2016-12-11T08:51:12.429Z</time>
      </trkpt>
      <trkpt lat="48.0443" lon="2.78356">
        <ele>110</ele>
        <time>2016-12-11T08:51:13.431Z</time>
      </trkpt>
      <trkpt lat="48.0443" lon="2.78356">
        <ele>110</ele>
        <time>2016-12-11T08:51:14.425Z</time>
      </trkpt>
      <trkpt lat="48.04427" lon="2.78362">
        <ele>110</ele>
        <time>2016-12-11T08:51:15.397Z</time>
      </trkpt>
      <trkpt lat="48.04427" lon="2.78362">
        <ele>110</ele>
        <time>2016-12-11T08:51:16.430Z</time>
      </trkpt>
      <trkpt lat="48.04423" lon="2.78368">
        <ele>110</ele>
        <time>2016-12-11T08:51:17.428Z</time>
      </trkpt>
      <trkpt lat="48.04423" lon="2.78368">
        <ele>110</ele>
        <time>2016-12-11T08:51:18.422Z</time>
      </trkpt>
      <trkpt lat="48.04422" lon="2.78375">
        <ele>110</ele>
        <time>2016-12-11T08:51:19.429Z</time>
      </trkpt>
      <trkpt lat="48.04421" lon="2.78379">
        <ele>110</ele>
        <time>2016-12-11T08:51:20.408Z</time>
      </trkpt>
      <trkpt lat="48.04421" lon="2.78379">
        <ele>110</ele>
        <time>2016-12-11T08:51:21.399Z</time>
      </trkpt>
      <trkpt lat="48.04418" lon="2.78385">
        <ele>110</ele>
        <time>2016-12-11T08:51:22.406Z</time>
      </trkpt>
      <trkpt lat="48.04416" lon="2.78387">
        <ele>110</ele>
        <time>2016-12-11T08:51:23.400Z</time>
      </trkpt>
      <trkpt lat="48.04416" lon="2.78387">
        <ele>110</ele>
        <time>2016-12-11T08:51:24.431Z</time>
      </trkpt>
      <trkpt lat="48.04411" lon="2.78392">
        <ele>110</ele>
        <time>2016-12-11T08:51:25.431Z</time>
      </trkpt>
      <trkpt lat="48.04411" lon="2.78392">
        <ele>110</ele>
        <time>2016-12-11T08:51:26.430Z</time>
      </trkpt>
      <trkpt lat="48.04407" lon="2.78398">
        <ele>110</ele>
        <time>2016-12-11T08:51:27.432Z</time>
      </trkpt>
      <trkpt lat="48.04407" lon="2.78398">
        <ele>110</ele>
        <time>2016-12-11T08:51:28.430Z</time>
      </trkpt>
      <trkpt lat="48.04403" lon="2.78405">
        <ele>110</ele>
        <time>2016-12-11T08:51:29.432Z</time>
      </trkpt>
      <trkpt lat="48.04403" lon="2.78405">
        <ele>110</ele>
        <time>2016-12-11T08:51:30.430Z</time>
      </trkpt>
      <trkpt lat="48.04399" lon="2.7841">
        <ele>110</ele>
        <time>2016-12-11T08:51:31.432Z</time>
      </trkpt>
      <trkpt lat="48.04396" lon="2.78413">
        <ele>110</ele>
        <time>2016-12-11T08:51:32.434Z</time>
      </trkpt>
      <trkpt lat="48.04396" lon="2.78413">
        <ele>110</ele>
        <time>2016-12-11T08:51:33.406Z</time>
      </trkpt>
      <trkpt lat="48.04391" lon="2.78418">
        <ele>109</ele>
        <time>2016-12-11T08:51:34.409Z</time>
      </trkpt>
      <trkpt lat="48.04388" lon="2.7842">
        <ele>109</ele>
        <time>2016-12-11T08:51:35.430Z</time>
      </trkpt>
      <trkpt lat="48.04388" lon="2.7842">
        <ele>109</ele>
        <time>2016-12-11T08:51:36.427Z</time>
      </trkpt>
      <trkpt lat="48.04383" lon="2.78425">
        <ele>109</ele>
        <time>2016-12-11T08:51:37.433Z</time>
      </trkpt>
      <trkpt lat="48.04383" lon="2.78425">
        <ele>109</ele>
        <time>2016-12-11T08:51:38.430Z</time>
      </trkpt>
      <trkpt lat="48.0438" lon="2.78431">
        <ele>108</ele>
        <time>2016-12-11T08:51:39.433Z</time>
      </trkpt>
      <trkpt lat="48.0438" lon="2.78431">
        <ele>108</ele>
        <time>2016-12-11T08:51:40.426Z</time>
      </trkpt>
      <trkpt lat="48.04377" lon="2.78436">
        <ele>108</ele>
        <time>2016-12-11T08:51:41.433Z</time>
      </trkpt>
      <trkpt lat="48.04377" lon="2.78436">
        <ele>108</ele>
        <time>2016-12-11T08:51:42.430Z</time>
      </trkpt>
      <trkpt lat="48.04374" lon="2.78443">
        <ele>108</ele>
        <time>2016-12-11T08:51:43.400Z</time>
      </trkpt>
      <trkpt lat="48.04374" lon="2.78443">
        <ele>108</ele>
        <time>2016-12-11T08:51:44.430Z</time>
      </trkpt>
      <trkpt lat="48.0437" lon="2.78449">
        <ele>108</ele>
        <time>2016-12-11T08:51:45.433Z</time>
      </trkpt>
      <trkpt lat="48.04369" lon="2.78453">
        <ele>108</ele>
        <time>2016-12-11T08:51:46.416Z</time>
      </trkpt>
      <trkpt lat="48.04367" lon="2.78455">
        <ele>107</ele>
        <time>2016-12-11T08:51:47.406Z</time>
      </trkpt>
      <trkpt lat="48.04367" lon="2.78455">
        <ele>107</ele>
        <time>2016-12-11T08:51:48.399Z</time>
      </trkpt>
      <trkpt lat="48.04364" lon="2.78461">
        <ele>108</ele>
        <time>2016-12-11T08:51:49.433Z</time>
      </trkpt>
      <trkpt lat="48.04364" lon="2.78461">
        <ele>108</ele>
        <time>2016-12-11T08:51:50.430Z</time>
      </trkpt>
      <trkpt lat="48.0436" lon="2.78465">
        <ele>108</ele>
        <time>2016-12-11T08:51:51.403Z</time>
      </trkpt>
      <trkpt lat="48.0436" lon="2.78465">
        <ele>108</ele>
        <time>2016-12-11T08:51:52.433Z</time>
      </trkpt>
      <trkpt lat="48.04355" lon="2.78469">
        <ele>108</ele>
        <time>2016-12-11T08:51:53.433Z</time>
      </trkpt>
      <trkpt lat="48.04355" lon="2.78469">
        <ele>108</ele>
        <time>2016-12-11T08:51:54.431Z</time>
      </trkpt>
      <trkpt lat="48.0435" lon="2.78473">
        <ele>108</ele>
        <time>2016-12-11T08:51:55.432Z</time>
      </trkpt>
      <trkpt lat="48.04347" lon="2.78476">
        <ele>107</ele>
        <time>2016-12-11T08:51:56.432Z</time>
      </trkpt>
      <trkpt lat="48.04347" lon="2.78476">
        <ele>107</ele>
        <time>2016-12-11T08:51:57.433Z</time>
      </trkpt>
      <trkpt lat="48.04344" lon="2.78485">
        <ele>107</ele>
        <time>2016-12-11T08:51:58.433Z</time>
      </trkpt>
      <trkpt lat="48.04342" lon="2.78488">
        <ele>106</ele>
        <time>2016-12-11T08:51:59.433Z</time>
      </trkpt>
      <trkpt lat="48.04342" lon="2.78488">
        <ele>106</ele>
        <time>2016-12-11T08:52:00.431Z</time>
      </trkpt>
      <trkpt lat="48.04337" lon="2.78492">
        <ele>106</ele>
        <time>2016-12-11T08:52:01.433Z</time>
      </trkpt>
      <trkpt lat="48.04337" lon="2.78492">
        <ele>106</ele>
        <time>2016-12-11T08:52:02.431Z</time>
      </trkpt>
      <trkpt lat="48.04333" lon="2.78497">
        <ele>106</ele>
        <time>2016-12-11T08:52:03.399Z</time>
      </trkpt>
      <trkpt lat="48.04333" lon="2.78497">
        <ele>106</ele>
        <time>2016-12-11T08:52:04.429Z</time>
      </trkpt>
      <trkpt lat="48.04329" lon="2.78502">
        <ele>105</ele>
        <time>2016-12-11T08:52:05.434Z</time>
      </trkpt>
      <trkpt lat="48.04327" lon="2.78506">
        <ele>105</ele>
        <time>2016-12-11T08:52:06.433Z</time>
      </trkpt>
      <trkpt lat="48.04327" lon="2.78506">
        <ele>105</ele>
        <time>2016-12-11T08:52:07.430Z</time>
      </trkpt>
      <trkpt lat="48.04323" lon="2.78513">
        <ele>105</ele>
        <time>2016-12-11T08:52:08.432Z</time>
      </trkpt>
      <trkpt lat="48.04323" lon="2.78513">
        <ele>105</ele>
        <time>2016-12-11T08:52:09.430Z</time>
      </trkpt>
      <trkpt lat="48.04317" lon="2.7852">
        <ele>106</ele>
        <time>2016-12-11T08:52:10.432Z</time>
      </trkpt>
      <trkpt lat="48.04317" lon="2.7852">
        <ele>106</ele>
        <time>2016-12-11T08:52:11.430Z</time>
      </trkpt>
      <trkpt lat="48.04314" lon="2.78525">
        <ele>106</ele>
        <time>2016-12-11T08:52:12.429Z</time>
      </trkpt>
      <trkpt lat="48.04313" lon="2.78528">
        <ele>107</ele>
        <time>2016-12-11T08:52:13.433Z</time>
      </trkpt>
      <trkpt lat="48.04313" lon="2.78528">
        <ele>107</ele>
        <time>2016-12-11T08:52:14.430Z</time>
      </trkpt>
      <trkpt lat="48.0431" lon="2.78532">
        <ele>107</ele>
        <time>2016-12-11T08:52:15.399Z</time>
      </trkpt>
      <trkpt lat="48.0431" lon="2.78532">
        <ele>107</ele>
        <time>2016-12-11T08:52:16.429Z</time>
      </trkpt>
      <trkpt lat="48.04306" lon="2.78537">
        <ele>106</ele>
        <time>2016-12-11T08:52:17.422Z</time>
      </trkpt>
      <trkpt lat="48.04306" lon="2.78537">
        <ele>106</ele>
        <time>2016-12-11T08:52:18.414Z</time>
      </trkpt>
      <trkpt lat="48.04303" lon="2.78544">
        <ele>106</ele>
        <time>2016-12-11T08:52:19.421Z</time>
      </trkpt>
      <trkpt lat="48.04303" lon="2.78544">
        <ele>106</ele>
        <time>2016-12-11T08:52:20.430Z</time>
      </trkpt>
      <trkpt lat="48.04299" lon="2.7855">
        <ele>106</ele>
        <time>2016-12-11T08:52:21.434Z</time>
      </trkpt>
      <trkpt lat="48.04299" lon="2.7855">
        <ele>106</ele>
        <time>2016-12-11T08:52:22.430Z</time>
      </trkpt>
      <trkpt lat="48.04295" lon="2.78556">
        <ele>107</ele>
        <time>2016-12-11T08:52:23.434Z</time>
      </trkpt>
      <trkpt lat="48.04295" lon="2.78556">
        <ele>107</ele>
        <time>2016-12-11T08:52:24.430Z</time>
      </trkpt>
      <trkpt lat="48.04291" lon="2.78563">
        <ele>107</ele>
        <time>2016-12-11T08:52:25.432Z</time>
      </trkpt>
      <trkpt lat="48.04291" lon="2.78563">
        <ele>107</ele>
        <time>2016-12-11T08:52:26.427Z</time>
      </trkpt>
      <trkpt lat="48.04288" lon="2.78569">
        <ele>107</ele>
        <time>2016-12-11T08:52:27.434Z</time>
      </trkpt>
      <trkpt lat="48.04288" lon="2.78569">
        <ele>107</ele>
        <time>2016-12-11T08:52:28.432Z</time>
      </trkpt>
      <trkpt lat="48.04285" lon="2.78576">
        <ele>107</ele>
        <time>2016-12-11T08:52:29.434Z</time>
      </trkpt>
      <trkpt lat="48.04285" lon="2.78576">
        <ele>107</ele>
        <time>2016-12-11T08:52:30.431Z</time>
      </trkpt>
      <trkpt lat="48.04284" lon="2.78582">
        <ele>107</ele>
        <time>2016-12-11T08:52:31.434Z</time>
      </trkpt>
      <trkpt lat="48.04284" lon="2.78582">
        <ele>107</ele>
        <time>2016-12-11T08:52:32.431Z</time>
      </trkpt>
      <trkpt lat="48.04282" lon="2.78587">
        <ele>107</ele>
        <time>2016-12-11T08:52:33.435Z</time>
      </trkpt>
      <trkpt lat="48.04282" lon="2.78587">
        <ele>107</ele>
        <time>2016-12-11T08:52:34.432Z</time>
      </trkpt>
      <trkpt lat="48.04278" lon="2.78587">
        <ele>107</ele>
        <time>2016-12-11T08:52:35.434Z</time>
      </trkpt>
      <trkpt lat="48.04278" lon="2.78587">
        <ele>107</ele>
        <time>2016-12-11T08:52:36.422Z</time>
      </trkpt>
      <trkpt lat="48.04273" lon="2.78585">
        <ele>107</ele>
        <time>2016-12-11T08:52:37.432Z</time>
      </trkpt>
      <trkpt lat="48.0427" lon="2.78584">
        <ele>107</ele>
        <time>2016-12-11T08:52:38.435Z</time>
      </trkpt>
      <trkpt lat="48.0427" lon="2.78584">
        <ele>107</ele>
        <time>2016-12-11T08:52:39.431Z</time>
      </trkpt>
      <trkpt lat="48.04264" lon="2.78584">
        <ele>108</ele>
        <time>2016-12-11T08:52:40.433Z</time>
      </trkpt>
      <trkpt lat="48.04261" lon="2.78583">
        <ele>108</ele>
        <time>2016-12-11T08:52:41.433Z</time>
      </trkpt>
      <trkpt lat="48.04258" lon="2.78582">
        <ele>108</ele>
        <time>2016-12-11T08:52:42.433Z</time>
      </trkpt>
      <trkpt lat="48.04258" lon="2.78582">
        <ele>108</ele>
        <time>2016-12-11T08:52:43.431Z</time>
      </trkpt>
      <trkpt lat="48.04251" lon="2.78581">
        <ele>108</ele>
        <time>2016-12-11T08:52:44.433Z</time>
      </trkpt>
      <trkpt lat="48.04251" lon="2.78581">
        <ele>108</ele>
        <time>2016-12-11T08:52:45.424Z</time>
      </trkpt>
      <trkpt lat="48.04243" lon="2.7858">
        <ele>108</ele>
        <time>2016-12-11T08:52:46.421Z</time>
      </trkpt>
      <trkpt lat="48.04243" lon="2.7858">
        <ele>108</ele>
        <time>2016-12-11T08:52:47.430Z</time>
      </trkpt>
      <trkpt lat="48.04235" lon="2.7858">
        <ele>107</ele>
        <time>2016-12-11T08:52:48.433Z</time>
      </trkpt>
      <trkpt lat="48.04235" lon="2.7858">
        <ele>107</ele>
        <time>2016-12-11T08:52:49.429Z</time>
      </trkpt>
      <trkpt lat="48.04227" lon="2.78581">
        <ele>107</ele>
        <time>2016-12-11T08:52:50.433Z</time>
      </trkpt>
      <trkpt lat="48.04224" lon="2.78581">
        <ele>107</ele>
        <time>2016-12-11T08:52:51.435Z</time>
      </trkpt>
      <trkpt lat="48.04224" lon="2.78581">
        <ele>107</ele>
        <time>2016-12-11T08:52:52.428Z</time>
      </trkpt>
      <trkpt lat="48.04216" lon="2.78581">
        <ele>107</ele>
        <time>2016-12-11T08:52:53.434Z</time>
      </trkpt>
      <trkpt lat="48.04216" lon="2.78581">
        <ele>107</ele>
        <time>2016-12-11T08:52:54.430Z</time>
      </trkpt>
      <trkpt lat="48.04208" lon="2.78579">
        <ele>107</ele>
        <time>2016-12-11T08:52:55.432Z</time>
      </trkpt>
      <trkpt lat="48.04204" lon="2.78579">
        <ele>107</ele>
        <time>2016-12-11T08:52:56.432Z</time>
      </trkpt>
      <trkpt lat="48.042" lon="2.78579">
        <ele>107</ele>
        <time>2016-12-11T08:52:57.399Z</time>
      </trkpt>
      <trkpt lat="48.042" lon="2.78579">
        <ele>107</ele>
        <time>2016-12-11T08:52:58.431Z</time>
      </trkpt>
      <trkpt lat="48.04193" lon="2.78581">
        <ele>107</ele>
        <time>2016-12-11T08:52:59.434Z</time>
      </trkpt>
      <trkpt lat="48.04189" lon="2.7858">
        <ele>108</ele>
        <time>2016-12-11T08:53:00.433Z</time>
      </trkpt>
      <trkpt lat="48.04189" lon="2.7858">
        <ele>108</ele>
        <time>2016-12-11T08:53:01.429Z</time>
      </trkpt>
      <trkpt lat="48.0418" lon="2.78581">
        <ele>108</ele>
        <time>2016-12-11T08:53:02.434Z</time>
      </trkpt>
      <trkpt lat="48.0418" lon="2.78581">
        <ele>108</ele>
        <time>2016-12-11T08:53:03.432Z</time>
      </trkpt>
      <trkpt lat="48.04172" lon="2.78579">
        <ele>108</ele>
        <time>2016-12-11T08:53:04.433Z</time>
      </trkpt>
      <trkpt lat="48.04168" lon="2.78578">
        <ele>108</ele>
        <time>2016-12-11T08:53:05.433Z</time>
      </trkpt>
      <trkpt lat="48.04168" lon="2.78578">
        <ele>108</ele>
        <time>2016-12-11T08:53:06.428Z</time>
      </trkpt>
      <trkpt lat="48.0416" lon="2.78577">
        <ele>108</ele>
        <time>2016-12-11T08:53:07.432Z</time>
      </trkpt>
      <trkpt lat="48.0416" lon="2.78577">
        <ele>108</ele>
        <time>2016-12-11T08:53:08.430Z</time>
      </trkpt>
      <trkpt lat="48.04152" lon="2.78576">
        <ele>108</ele>
        <time>2016-12-11T08:53:09.396Z</time>
      </trkpt>
      <trkpt lat="48.04152" lon="2.78576">
        <ele>108</ele>
        <time>2016-12-11T08:53:10.427Z</time>
      </trkpt>
      <trkpt lat="48.04144" lon="2.78578">
        <ele>108</ele>
        <time>2016-12-11T08:53:11.433Z</time>
      </trkpt>
      <trkpt lat="48.04144" lon="2.78578">
        <ele>108</ele>
        <time>2016-12-11T08:53:12.429Z</time>
      </trkpt>
      <trkpt lat="48.04136" lon="2.78579">
        <ele>109</ele>
        <time>2016-12-11T08:53:13.432Z</time>
      </trkpt>
      <trkpt lat="48.04136" lon="2.78579">
        <ele>109</ele>
        <time>2016-12-11T08:53:14.430Z</time>
      </trkpt>
      <trkpt lat="48.04128" lon="2.78578">
        <ele>108</ele>
        <time>2016-12-11T08:53:15.432Z</time>
      </trkpt>
      <trkpt lat="48.04128" lon="2.78578">
        <ele>108</ele>
        <time>2016-12-11T08:53:16.430Z</time>
      </trkpt>
      <trkpt lat="48.0412" lon="2.78577">
        <ele>108</ele>
        <time>2016-12-11T08:53:17.412Z</time>
      </trkpt>
      <trkpt lat="48.04116" lon="2.78577">
        <ele>108</ele>
        <time>2016-12-11T08:53:18.418Z</time>
      </trkpt>
      <trkpt lat="48.04116" lon="2.78577">
        <ele>108</ele>
        <time>2016-12-11T08:53:19.424Z</time>
      </trkpt>
      <trkpt lat="48.04108" lon="2.78576">
        <ele>108</ele>
        <time>2016-12-11T08:53:20.434Z</time>
      </trkpt>
      <trkpt lat="48.04104" lon="2.78575">
        <ele>108</ele>
        <time>2016-12-11T08:53:21.434Z</time>
      </trkpt>
      <trkpt lat="48.04104" lon="2.78575">
        <ele>108</ele>
        <time>2016-12-11T08:53:22.430Z</time>
      </trkpt>
      <trkpt lat="48.04097" lon="2.78575">
        <ele>108</ele>
        <time>2016-12-11T08:53:23.433Z</time>
      </trkpt>
      <trkpt lat="48.04097" lon="2.78575">
        <ele>108</ele>
        <time>2016-12-11T08:53:24.403Z</time>
      </trkpt>
      <trkpt lat="48.04089" lon="2.78575">
        <ele>108</ele>
        <time>2016-12-11T08:53:25.434Z</time>
      </trkpt>
      <trkpt lat="48.04089" lon="2.78575">
        <ele>108</ele>
        <time>2016-12-11T08:53:26.431Z</time>
      </trkpt>
      <trkpt lat="48.04082" lon="2.78574">
        <ele>108</ele>
        <time>2016-12-11T08:53:27.435Z</time>
      </trkpt>
      <trkpt lat="48.04078" lon="2.78574">
        <ele>108</ele>
        <time>2016-12-11T08:53:28.434Z</time>
      </trkpt>
      <trkpt lat="48.04078" lon="2.78574">
        <ele>108</ele>
        <time>2016-12-11T08:53:29.431Z</time>
      </trkpt>
      <trkpt lat="48.04071" lon="2.78574">
        <ele>108</ele>
        <time>2016-12-11T08:53:30.434Z</time>
      </trkpt>
      <trkpt lat="48.04071" lon="2.78574">
        <ele>108</ele>
        <time>2016-12-11T08:53:31.430Z</time>
      </trkpt>
      <trkpt lat="48.04063" lon="2.78572">
        <ele>108</ele>
        <time>2016-12-11T08:53:32.429Z</time>
      </trkpt>
      <trkpt lat="48.0406" lon="2.78572">
        <ele>108</ele>
        <time>2016-12-11T08:53:33.434Z</time>
      </trkpt>
      <trkpt lat="48.0406" lon="2.78572">
        <ele>108</ele>
        <time>2016-12-11T08:53:34.430Z</time>
      </trkpt>
      <trkpt lat="48.04052" lon="2.7857">
        <ele>109</ele>
        <time>2016-12-11T08:53:35.433Z</time>
      </trkpt>
      <trkpt lat="48.04052" lon="2.7857">
        <ele>109</ele>
        <time>2016-12-11T08:53:36.430Z</time>
      </trkpt>
      <trkpt lat="48.04045" lon="2.78568">
        <ele>109</ele>
        <time>2016-12-11T08:53:37.432Z</time>
      </trkpt>
      <trkpt lat="48.04045" lon="2.78568">
        <ele>109</ele>
        <time>2016-12-11T08:53:38.433Z</time>
      </trkpt>
      <trkpt lat="48.04038" lon="2.78567">
        <ele>109</ele>
        <time>2016-12-11T08:53:39.433Z</time>
      </trkpt>
      <trkpt lat="48.04035" lon="2.78565">
        <ele>109</ele>
        <time>2016-12-11T08:53:40.434Z</time>
      </trkpt>
      <trkpt lat="48.04035" lon="2.78565">
        <ele>109</ele>
        <time>2016-12-11T08:53:41.430Z</time>
      </trkpt>
      <trkpt lat="48.04027" lon="2.78564">
        <ele>110</ele>
        <time>2016-12-11T08:53:42.432Z</time>
      </trkpt>
      <trkpt lat="48.04027" lon="2.78564">
        <ele>110</ele>
        <time>2016-12-11T08:53:43.432Z</time>
      </trkpt>
      <trkpt lat="48.04021" lon="2.78562">
        <ele>110</ele>
        <time>2016-12-11T08:53:44.409Z</time>
      </trkpt>
      <trkpt lat="48.04021" lon="2.78562">
        <ele>110</ele>
        <time>2016-12-11T08:53:45.423Z</time>
      </trkpt>
      <trkpt lat="48.04016" lon="2.78561">
        <ele>111</ele>
        <time>2016-12-11T08:53:46.429Z</time>
      </trkpt>
      <trkpt lat="48.04016" lon="2.78561">
        <ele>111</ele>
        <time>2016-12-11T08:53:47.426Z</time>
      </trkpt>
      <trkpt lat="48.0401" lon="2.7856">
        <ele>112</ele>
        <time>2016-12-11T08:53:48.432Z</time>
      </trkpt>
      <trkpt lat="48.04007" lon="2.78561">
        <ele>112</ele>
        <time>2016-12-11T08:53:49.433Z</time>
      </trkpt>
      <trkpt lat="48.04007" lon="2.78561">
        <ele>112</ele>
        <time>2016-12-11T08:53:50.434Z</time>
      </trkpt>
      <trkpt lat="48.04001" lon="2.78561">
        <ele>113</ele>
        <time>2016-12-11T08:53:51.434Z</time>
      </trkpt>
      <trkpt lat="48.04001" lon="2.78561">
        <ele>113</ele>
        <time>2016-12-11T08:53:52.429Z</time>
      </trkpt>
      <trkpt lat="48.03996" lon="2.78561">
        <ele>113</ele>
        <time>2016-12-11T08:53:53.434Z</time>
      </trkpt>
      <trkpt lat="48.03996" lon="2.78561">
        <ele>113</ele>
        <time>2016-12-11T08:53:54.431Z</time>
      </trkpt>
      <trkpt lat="48.0399" lon="2.78563">
        <ele>114</ele>
        <time>2016-12-11T08:53:55.430Z</time>
      </trkpt>
      <trkpt lat="48.0399" lon="2.78563">
        <ele>114</ele>
        <time>2016-12-11T08:53:56.430Z</time>
      </trkpt>
      <trkpt lat="48.03983" lon="2.78566">
        <ele>114</ele>
        <time>2016-12-11T08:53:57.434Z</time>
      </trkpt>
      <trkpt lat="48.03979" lon="2.78568">
        <ele>114</ele>
        <time>2016-12-11T08:53:58.435Z</time>
      </trkpt>
      <trkpt lat="48.03976" lon="2.78569">
        <ele>114</ele>
        <time>2016-12-11T08:53:59.434Z</time>
      </trkpt>
      <trkpt lat="48.03976" lon="2.78569">
        <ele>114</ele>
        <time>2016-12-11T08:54:00.427Z</time>
      </trkpt>
      <trkpt lat="48.03969" lon="2.78572">
        <ele>114</ele>
        <time>2016-12-11T08:54:01.432Z</time>
      </trkpt>
      <trkpt lat="48.03969" lon="2.78572">
        <ele>114</ele>
        <time>2016-12-11T08:54:02.430Z</time>
      </trkpt>
      <trkpt lat="48.03963" lon="2.78574">
        <ele>114</ele>
        <time>2016-12-11T08:54:03.434Z</time>
      </trkpt>
      <trkpt lat="48.03963" lon="2.78574">
        <ele>114</ele>
        <time>2016-12-11T08:54:04.427Z</time>
      </trkpt>
      <trkpt lat="48.03956" lon="2.78578">
        <ele>115</ele>
        <time>2016-12-11T08:54:05.432Z</time>
      </trkpt>
      <trkpt lat="48.03956" lon="2.78578">
        <ele>115</ele>
        <time>2016-12-11T08:54:06.429Z</time>
      </trkpt>
      <trkpt lat="48.03949" lon="2.78582">
        <ele>115</ele>
        <time>2016-12-11T08:54:07.430Z</time>
      </trkpt>
      <trkpt lat="48.03946" lon="2.78583">
        <ele>115</ele>
        <time>2016-12-11T08:54:08.431Z</time>
      </trkpt>
      <trkpt lat="48.03943" lon="2.78584">
        <ele>115</ele>
        <time>2016-12-11T08:54:09.433Z</time>
      </trkpt>
      <trkpt lat="48.03943" lon="2.78584">
        <ele>115</ele>
        <time>2016-12-11T08:54:10.430Z</time>
      </trkpt>
      <trkpt lat="48.03937" lon="2.78587">
        <ele>115</ele>
        <time>2016-12-11T08:54:11.434Z</time>
      </trkpt>
      <trkpt lat="48.03937" lon="2.78587">
        <ele>115</ele>
        <time>2016-12-11T08:54:12.429Z</time>
      </trkpt>
      <trkpt lat="48.0393" lon="2.7859">
        <ele>115</ele>
        <time>2016-12-11T08:54:13.432Z</time>
      </trkpt>
      <trkpt lat="48.03927" lon="2.78592">
        <ele>115</ele>
        <time>2016-12-11T08:54:14.432Z</time>
      </trkpt>
      <trkpt lat="48.03927" lon="2.78592">
        <ele>115</ele>
        <time>2016-12-11T08:54:15.435Z</time>
      </trkpt>
      <trkpt lat="48.0392" lon="2.78595">
        <ele>115</ele>
        <time>2016-12-11T08:54:16.432Z</time>
      </trkpt>
      <trkpt lat="48.0392" lon="2.78595">
        <ele>115</ele>
        <time>2016-12-11T08:54:17.435Z</time>
      </trkpt>
      <trkpt lat="48.03913" lon="2.786">
        <ele>115</ele>
        <time>2016-12-11T08:54:18.435Z</time>
      </trkpt>
      <trkpt lat="48.03913" lon="2.786">
        <ele>115</ele>
        <time>2016-12-11T08:54:19.429Z</time>
      </trkpt>
      <trkpt lat="48.03906" lon="2.78604">
        <ele>115</ele>
        <time>2016-12-11T08:54:20.434Z</time>
      </trkpt>
      <trkpt lat="48.03906" lon="2.78604">
        <ele>115</ele>
        <time>2016-12-11T08:54:21.431Z</time>
      </trkpt>
      <trkpt lat="48.03898" lon="2.78609">
        <ele>115</ele>
        <time>2016-12-11T08:54:22.434Z</time>
      </trkpt>
      <trkpt lat="48.03893" lon="2.78611">
        <ele>115</ele>
        <time>2016-12-11T08:54:23.434Z</time>
      </trkpt>
      <trkpt lat="48.03893" lon="2.78611">
        <ele>115</ele>
        <time>2016-12-11T08:54:24.431Z</time>
      </trkpt>
      <trkpt lat="48.03886" lon="2.78616">
        <ele>114</ele>
        <time>2016-12-11T08:54:25.434Z</time>
      </trkpt>
      <trkpt lat="48.03886" lon="2.78616">
        <ele>114</ele>
        <time>2016-12-11T08:54:26.428Z</time>
      </trkpt>
      <trkpt lat="48.03877" lon="2.78621">
        <ele>113</ele>
        <time>2016-12-11T08:54:27.426Z</time>
      </trkpt>
      <trkpt lat="48.03873" lon="2.78623">
        <ele>113</ele>
        <time>2016-12-11T08:54:28.431Z</time>
      </trkpt>
      <trkpt lat="48.03868" lon="2.78626">
        <ele>113</ele>
        <time>2016-12-11T08:54:29.434Z</time>
      </trkpt>
      <trkpt lat="48.03868" lon="2.78626">
        <ele>113</ele>
        <time>2016-12-11T08:54:30.432Z</time>
      </trkpt>
      <trkpt lat="48.03859" lon="2.7863">
        <ele>112</ele>
        <time>2016-12-11T08:54:31.432Z</time>
      </trkpt>
      <trkpt lat="48.03859" lon="2.7863">
        <ele>112</ele>
        <time>2016-12-11T08:54:32.429Z</time>
      </trkpt>
      <trkpt lat="48.03851" lon="2.78634">
        <ele>112</ele>
        <time>2016-12-11T08:54:33.434Z</time>
      </trkpt>
      <trkpt lat="48.03851" lon="2.78634">
        <ele>112</ele>
        <time>2016-12-11T08:54:34.430Z</time>
      </trkpt>
      <trkpt lat="48.03844" lon="2.78639">
        <ele>111</ele>
        <time>2016-12-11T08:54:35.429Z</time>
      </trkpt>
      <trkpt lat="48.03841" lon="2.78641">
        <ele>110</ele>
        <time>2016-12-11T08:54:36.433Z</time>
      </trkpt>
      <trkpt lat="48.03837" lon="2.78643">
        <ele>110</ele>
        <time>2016-12-11T08:54:37.399Z</time>
      </trkpt>
      <trkpt lat="48.03837" lon="2.78643">
        <ele>110</ele>
        <time>2016-12-11T08:54:38.429Z</time>
      </trkpt>
      <trkpt lat="48.03828" lon="2.78648">
        <ele>109</ele>
        <time>2016-12-11T08:54:39.409Z</time>
      </trkpt>
      <trkpt lat="48.03828" lon="2.78648">
        <ele>109</ele>
        <time>2016-12-11T08:54:40.401Z</time>
      </trkpt>
      <trkpt lat="48.0382" lon="2.78654">
        <ele>108</ele>
        <time>2016-12-11T08:54:41.433Z</time>
      </trkpt>
      <trkpt lat="48.0382" lon="2.78654">
        <ele>108</ele>
        <time>2016-12-11T08:54:42.430Z</time>
      </trkpt>
      <trkpt lat="48.03811" lon="2.78659">
        <ele>107</ele>
        <time>2016-12-11T08:54:43.431Z</time>
      </trkpt>
      <trkpt lat="48.03811" lon="2.78659">
        <ele>107</ele>
        <time>2016-12-11T08:54:44.429Z</time>
      </trkpt>
      <trkpt lat="48.03803" lon="2.78665">
        <ele>106</ele>
        <time>2016-12-11T08:54:45.434Z</time>
      </trkpt>
      <trkpt lat="48.03798" lon="2.78667">
        <ele>105</ele>
        <time>2016-12-11T08:54:46.433Z</time>
      </trkpt>
      <trkpt lat="48.03798" lon="2.78667">
        <ele>105</ele>
        <time>2016-12-11T08:54:47.431Z</time>
      </trkpt>
      <trkpt lat="48.03789" lon="2.78675">
        <ele>105</ele>
        <time>2016-12-11T08:54:48.432Z</time>
      </trkpt>
      <trkpt lat="48.03789" lon="2.78675">
        <ele>105</ele>
        <time>2016-12-11T08:54:49.430Z</time>
      </trkpt>
      <trkpt lat="48.03778" lon="2.78682">
        <ele>104</ele>
        <time>2016-12-11T08:54:50.434Z</time>
      </trkpt>
      <trkpt lat="48.03773" lon="2.78687">
        <ele>104</ele>
        <time>2016-12-11T08:54:51.435Z</time>
      </trkpt>
      <trkpt lat="48.03773" lon="2.78687">
        <ele>104</ele>
        <time>2016-12-11T08:54:52.431Z</time>
      </trkpt>
      <trkpt lat="48.03762" lon="2.78698">
        <ele>104</ele>
        <time>2016-12-11T08:54:53.434Z</time>
      </trkpt>
      <trkpt lat="48.03762" lon="2.78698">
        <ele>104</ele>
        <time>2016-12-11T08:54:54.430Z</time>
      </trkpt>
      <trkpt lat="48.03751" lon="2.7871">
        <ele>104</ele>
        <time>2016-12-11T08:54:55.435Z</time>
      </trkpt>
      <trkpt lat="48.03751" lon="2.7871">
        <ele>104</ele>
        <time>2016-12-11T08:54:56.430Z</time>
      </trkpt>
      <trkpt lat="48.03741" lon="2.78721">
        <ele>103</ele>
        <time>2016-12-11T08:54:57.434Z</time>
      </trkpt>
      <trkpt lat="48.03741" lon="2.78721">
        <ele>103</ele>
        <time>2016-12-11T08:54:58.427Z</time>
      </trkpt>
      <trkpt lat="48.03734" lon="2.78727">
        <ele>103</ele>
        <time>2016-12-11T08:54:59.434Z</time>
      </trkpt>
      <trkpt lat="48.03734" lon="2.78727">
        <ele>103</ele>
        <time>2016-12-11T08:55:00.430Z</time>
      </trkpt>
      <trkpt lat="48.03728" lon="2.78731">
        <ele>103</ele>
        <time>2016-12-11T08:55:01.429Z</time>
      </trkpt>
      <trkpt lat="48.03728" lon="2.78731">
        <ele>103</ele>
        <time>2016-12-11T08:55:02.426Z</time>
      </trkpt>
      <trkpt lat="48.03724" lon="2.78737">
        <ele>103</ele>
        <time>2016-12-11T08:55:03.434Z</time>
      </trkpt>
      <trkpt lat="48.03724" lon="2.78737">
        <ele>103</ele>
        <time>2016-12-11T08:55:04.430Z</time>
      </trkpt>
      <trkpt lat="48.03719" lon="2.78738">
        <ele>104</ele>
        <time>2016-12-11T08:55:05.432Z</time>
      </trkpt>
      <trkpt lat="48.03719" lon="2.78738">
        <ele>104</ele>
        <time>2016-12-11T08:55:06.427Z</time>
      </trkpt>
      <trkpt lat="48.03713" lon="2.78738">
        <ele>105</ele>
        <time>2016-12-11T08:55:07.434Z</time>
      </trkpt>
      <trkpt lat="48.03713" lon="2.78738">
        <ele>105</ele>
        <time>2016-12-11T08:55:08.430Z</time>
      </trkpt>
      <trkpt lat="48.03707" lon="2.78738">
        <ele>106</ele>
        <time>2016-12-11T08:55:09.410Z</time>
      </trkpt>
      <trkpt lat="48.03707" lon="2.78738">
        <ele>106</ele>
        <time>2016-12-11T08:55:10.401Z</time>
      </trkpt>
      <trkpt lat="48.03701" lon="2.78738">
        <ele>106</ele>
        <time>2016-12-11T08:55:11.434Z</time>
      </trkpt>
      <trkpt lat="48.03701" lon="2.78738">
        <ele>106</ele>
        <time>2016-12-11T08:55:12.430Z</time>
      </trkpt>
      <trkpt lat="48.03696" lon="2.78737">
        <ele>107</ele>
        <time>2016-12-11T08:55:13.433Z</time>
      </trkpt>
      <trkpt lat="48.03696" lon="2.78737">
        <ele>107</ele>
        <time>2016-12-11T08:55:14.427Z</time>
      </trkpt>
      <trkpt lat="48.0369" lon="2.78738">
        <ele>109</ele>
        <time>2016-12-11T08:55:15.434Z</time>
      </trkpt>
      <trkpt lat="48.0369" lon="2.78738">
        <ele>109</ele>
        <time>2016-12-11T08:55:16.432Z</time>
      </trkpt>
      <trkpt lat="48.03685" lon="2.78738">
        <ele>110</ele>
        <time>2016-12-11T08:55:17.429Z</time>
      </trkpt>
      <trkpt lat="48.03685" lon="2.78738">
        <ele>110</ele>
        <time>2016-12-11T08:55:18.429Z</time>
      </trkpt>
      <trkpt lat="48.0368" lon="2.7874">
        <ele>111</ele>
        <time>2016-12-11T08:55:19.396Z</time>
      </trkpt>
      <trkpt lat="48.03678" lon="2.78741">
        <ele>111</ele>
        <time>2016-12-11T08:55:20.412Z</time>
      </trkpt>
      <trkpt lat="48.03675" lon="2.78741">
        <ele>111</ele>
        <time>2016-12-11T08:55:21.405Z</time>
      </trkpt>
      <trkpt lat="48.03675" lon="2.78741">
        <ele>111</ele>
        <time>2016-12-11T08:55:22.435Z</time>
      </trkpt>
      <trkpt lat="48.03671" lon="2.78746">
        <ele>112</ele>
        <time>2016-12-11T08:55:23.434Z</time>
      </trkpt>
      <trkpt lat="48.03671" lon="2.78746">
        <ele>112</ele>
        <time>2016-12-11T08:55:24.404Z</time>
      </trkpt>
      <trkpt lat="48.03667" lon="2.78753">
        <ele>113</ele>
        <time>2016-12-11T08:55:25.434Z</time>
      </trkpt>
      <trkpt lat="48.03667" lon="2.78753">
        <ele>113</ele>
        <time>2016-12-11T08:55:26.429Z</time>
      </trkpt>
      <trkpt lat="48.03665" lon="2.7876">
        <ele>113</ele>
        <time>2016-12-11T08:55:27.434Z</time>
      </trkpt>
      <trkpt lat="48.03664" lon="2.78764">
        <ele>113</ele>
        <time>2016-12-11T08:55:28.401Z</time>
      </trkpt>
      <trkpt lat="48.03664" lon="2.78764">
        <ele>113</ele>
        <time>2016-12-11T08:55:29.430Z</time>
      </trkpt>
      <trkpt lat="48.03663" lon="2.78773">
        <ele>112</ele>
        <time>2016-12-11T08:55:30.433Z</time>
      </trkpt>
      <trkpt lat="48.03663" lon="2.78773">
        <ele>112</ele>
        <time>2016-12-11T08:55:31.431Z</time>
      </trkpt>
      <trkpt lat="48.03662" lon="2.78782">
        <ele>112</ele>
        <time>2016-12-11T08:55:32.432Z</time>
      </trkpt>
      <trkpt lat="48.03662" lon="2.78787">
        <ele>112</ele>
        <time>2016-12-11T08:55:33.435Z</time>
      </trkpt>
      <trkpt lat="48.03662" lon="2.78787">
        <ele>112</ele>
        <time>2016-12-11T08:55:34.428Z</time>
      </trkpt>
      <trkpt lat="48.03661" lon="2.78797">
        <ele>113</ele>
        <time>2016-12-11T08:55:35.434Z</time>
      </trkpt>
      <trkpt lat="48.03661" lon="2.78797">
        <ele>113</ele>
        <time>2016-12-11T08:55:36.430Z</time>
      </trkpt>
      <trkpt lat="48.03659" lon="2.78807">
        <ele>112</ele>
        <time>2016-12-11T08:55:37.433Z</time>
      </trkpt>
      <trkpt lat="48.03659" lon="2.78812">
        <ele>112</ele>
        <time>2016-12-11T08:55:38.433Z</time>
      </trkpt>
      <trkpt lat="48.03659" lon="2.78812">
        <ele>112</ele>
        <time>2016-12-11T08:55:39.432Z</time>
      </trkpt>
      <trkpt lat="48.03657" lon="2.78822">
        <ele>112</ele>
        <time>2016-12-11T08:55:40.433Z</time>
      </trkpt>
      <trkpt lat="48.03656" lon="2.78828">
        <ele>112</ele>
        <time>2016-12-11T08:55:41.432Z</time>
      </trkpt>
      <trkpt lat="48.03656" lon="2.78828">
        <ele>112</ele>
        <time>2016-12-11T08:55:42.430Z</time>
      </trkpt>
      <trkpt lat="48.03654" lon="2.78837">
        <ele>112</ele>
        <time>2016-12-11T08:55:43.433Z</time>
      </trkpt>
      <trkpt lat="48.03653" lon="2.78842">
        <ele>112</ele>
        <time>2016-12-11T08:55:44.434Z</time>
      </trkpt>
      <trkpt lat="48.03653" lon="2.78842">
        <ele>112</ele>
        <time>2016-12-11T08:55:45.431Z</time>
      </trkpt>
      <trkpt lat="48.03652" lon="2.78853">
        <ele>112</ele>
        <time>2016-12-11T08:55:46.407Z</time>
      </trkpt>
      <trkpt lat="48.03651" lon="2.78858">
        <ele>112</ele>
        <time>2016-12-11T08:55:47.396Z</time>
      </trkpt>
      <trkpt lat="48.03651" lon="2.78858">
        <ele>112</ele>
        <time>2016-12-11T08:55:48.427Z</time>
      </trkpt>
      <trkpt lat="48.03649" lon="2.78869">
        <ele>112</ele>
        <time>2016-12-11T08:55:49.408Z</time>
      </trkpt>
      <trkpt lat="48.03649" lon="2.78869">
        <ele>112</ele>
        <time>2016-12-11T08:55:50.401Z</time>
      </trkpt>
      <trkpt lat="48.03647" lon="2.7888">
        <ele>112</ele>
        <time>2016-12-11T08:55:51.402Z</time>
      </trkpt>
      <trkpt lat="48.03647" lon="2.7888">
        <ele>112</ele>
        <time>2016-12-11T08:55:52.432Z</time>
      </trkpt>
      <trkpt lat="48.03645" lon="2.78892">
        <ele>112</ele>
        <time>2016-12-11T08:55:53.434Z</time>
      </trkpt>
      <trkpt lat="48.03645" lon="2.78892">
        <ele>112</ele>
        <time>2016-12-11T08:55:54.431Z</time>
      </trkpt>
      <trkpt lat="48.03643" lon="2.78903">
        <ele>111</ele>
        <time>2016-12-11T08:55:55.434Z</time>
      </trkpt>
      <trkpt lat="48.03643" lon="2.78903">
        <ele>111</ele>
        <time>2016-12-11T08:55:56.428Z</time>
      </trkpt>
      <trkpt lat="48.03641" lon="2.78913">
        <ele>111</ele>
        <time>2016-12-11T08:55:57.434Z</time>
      </trkpt>
      <trkpt lat="48.03641" lon="2.78913">
        <ele>111</ele>
        <time>2016-12-11T08:55:58.430Z</time>
      </trkpt>
      <trkpt lat="48.03638" lon="2.78924">
        <ele>111</ele>
        <time>2016-12-11T08:55:59.432Z</time>
      </trkpt>
      <trkpt lat="48.03638" lon="2.78924">
        <ele>111</ele>
        <time>2016-12-11T08:56:00.428Z</time>
      </trkpt>
      <trkpt lat="48.03635" lon="2.78936">
        <ele>111</ele>
        <time>2016-12-11T08:56:01.434Z</time>
      </trkpt>
      <trkpt lat="48.03635" lon="2.78936">
        <ele>111</ele>
        <time>2016-12-11T08:56:02.431Z</time>
      </trkpt>
      <trkpt lat="48.03633" lon="2.78948">
        <ele>111</ele>
        <time>2016-12-11T08:56:03.434Z</time>
      </trkpt>
      <trkpt lat="48.03633" lon="2.78948">
        <ele>111</ele>
        <time>2016-12-11T08:56:04.428Z</time>
      </trkpt>
      <trkpt lat="48.0363" lon="2.7896">
        <ele>111</ele>
        <time>2016-12-11T08:56:05.434Z</time>
      </trkpt>
      <trkpt lat="48.0363" lon="2.7896">
        <ele>111</ele>
        <time>2016-12-11T08:56:06.431Z</time>
      </trkpt>
      <trkpt lat="48.03628" lon="2.78972">
        <ele>110</ele>
        <time>2016-12-11T08:56:07.432Z</time>
      </trkpt>
      <trkpt lat="48.03628" lon="2.78972">
        <ele>110</ele>
        <time>2016-12-11T08:56:08.423Z</time>
      </trkpt>
      <trkpt lat="48.03626" lon="2.78982">
        <ele>110</ele>
        <time>2016-12-11T08:56:09.407Z</time>
      </trkpt>
      <trkpt lat="48.03625" lon="2.78985">
        <ele>110</ele>
        <time>2016-12-11T08:56:10.416Z</time>
      </trkpt>
      <trkpt lat="48.03625" lon="2.78985">
        <ele>110</ele>
        <time>2016-12-11T08:56:11.400Z</time>
      </trkpt>
      <trkpt lat="48.03624" lon="2.78989">
        <ele>110</ele>
        <time>2016-12-11T08:56:12.406Z</time>
      </trkpt>
      <trkpt lat="48.03624" lon="2.78991">
        <ele>109</ele>
        <time>2016-12-11T08:56:13.412Z</time>
      </trkpt>
      <trkpt lat="48.03624" lon="2.78991">
        <ele>109</ele>
        <time>2016-12-11T08:56:14.418Z</time>
      </trkpt>
      <trkpt lat="48.03627" lon="2.78995">
        <ele>109</ele>
        <time>2016-12-11T08:56:15.435Z</time>
      </trkpt>
      <trkpt lat="48.03627" lon="2.78995">
        <ele>109</ele>
        <time>2016-12-11T08:56:16.403Z</time>
      </trkpt>
      <trkpt lat="48.03631" lon="2.78999">
        <ele>109</ele>
        <time>2016-12-11T08:56:17.424Z</time>
      </trkpt>
      <trkpt lat="48.03631" lon="2.78999">
        <ele>109</ele>
        <time>2016-12-11T08:56:18.399Z</time>
      </trkpt>
      <trkpt lat="48.0363" lon="2.79003">
        <ele>110</ele>
        <time>2016-12-11T08:56:19.434Z</time>
      </trkpt>
      <trkpt lat="48.03628" lon="2.79003">
        <ele>110</ele>
        <time>2016-12-11T08:56:20.431Z</time>
      </trkpt>
      <trkpt lat="48.03626" lon="2.79003">
        <ele>110</ele>
        <time>2016-12-11T08:56:21.435Z</time>
      </trkpt>
      <trkpt lat="48.03626" lon="2.79003">
        <ele>110</ele>
        <time>2016-12-11T08:56:22.431Z</time>
      </trkpt>
      <trkpt lat="48.03621" lon="2.79001">
        <ele>110</ele>
        <time>2016-12-11T08:56:23.397Z</time>
      </trkpt>
      <trkpt lat="48.03621" lon="2.79001">
        <ele>110</ele>
        <time>2016-12-11T08:56:24.411Z</time>
      </trkpt>
      <trkpt lat="48.03615" lon="2.78999">
        <ele>110</ele>
        <time>2016-12-11T08:56:25.401Z</time>
      </trkpt>
      <trkpt lat="48.03615" lon="2.78999">
        <ele>110</ele>
        <time>2016-12-11T08:56:26.431Z</time>
      </trkpt>
      <trkpt lat="48.03609" lon="2.78997">
        <ele>110</ele>
        <time>2016-12-11T08:56:27.434Z</time>
      </trkpt>
      <trkpt lat="48.03609" lon="2.78997">
        <ele>110</ele>
        <time>2016-12-11T08:56:28.396Z</time>
      </trkpt>
      <trkpt lat="48.03603" lon="2.78994">
        <ele>111</ele>
        <time>2016-12-11T08:56:29.434Z</time>
      </trkpt>
      <trkpt lat="48.03603" lon="2.78994">
        <ele>111</ele>
        <time>2016-12-11T08:56:30.430Z</time>
      </trkpt>
      <trkpt lat="48.03597" lon="2.78991">
        <ele>111</ele>
        <time>2016-12-11T08:56:31.432Z</time>
      </trkpt>
      <trkpt lat="48.03597" lon="2.78991">
        <ele>111</ele>
        <time>2016-12-11T08:56:32.427Z</time>
      </trkpt>
      <trkpt lat="48.03592" lon="2.78988">
        <ele>111</ele>
        <time>2016-12-11T08:56:33.435Z</time>
      </trkpt>
      <trkpt lat="48.03592" lon="2.78988">
        <ele>111</ele>
        <time>2016-12-11T08:56:34.431Z</time>
      </trkpt>
      <trkpt lat="48.03585" lon="2.78985">
        <ele>111</ele>
        <time>2016-12-11T08:56:35.433Z</time>
      </trkpt>
      <trkpt lat="48.03585" lon="2.78985">
        <ele>111</ele>
        <time>2016-12-11T08:56:36.427Z</time>
      </trkpt>
      <trkpt lat="48.03579" lon="2.7898">
        <ele>111</ele>
        <time>2016-12-11T08:56:37.433Z</time>
      </trkpt>
      <trkpt lat="48.03576" lon="2.78978">
        <ele>111</ele>
        <time>2016-12-11T08:56:38.434Z</time>
      </trkpt>
      <trkpt lat="48.03576" lon="2.78978">
        <ele>111</ele>
        <time>2016-12-11T08:56:39.432Z</time>
      </trkpt>
      <trkpt lat="48.03569" lon="2.78973">
        <ele>111</ele>
        <time>2016-12-11T08:56:40.433Z</time>
      </trkpt>
      <trkpt lat="48.03566" lon="2.7897">
        <ele>111</ele>
        <time>2016-12-11T08:56:41.433Z</time>
      </trkpt>
      <trkpt lat="48.03566" lon="2.7897">
        <ele>111</ele>
        <time>2016-12-11T08:56:42.430Z</time>
      </trkpt>
      <trkpt lat="48.03559" lon="2.78965">
        <ele>110</ele>
        <time>2016-12-11T08:56:43.399Z</time>
      </trkpt>
      <trkpt lat="48.03559" lon="2.78965">
        <ele>110</ele>
        <time>2016-12-11T08:56:44.401Z</time>
      </trkpt>
      <trkpt lat="48.03553" lon="2.78961">
        <ele>110</ele>
        <time>2016-12-11T08:56:45.396Z</time>
      </trkpt>
      <trkpt lat="48.03553" lon="2.78961">
        <ele>110</ele>
        <time>2016-12-11T08:56:46.432Z</time>
      </trkpt>
      <trkpt lat="48.03546" lon="2.78966">
        <ele>111</ele>
        <time>2016-12-11T08:56:47.434Z</time>
      </trkpt>
      <trkpt lat="48.03546" lon="2.78966">
        <ele>111</ele>
        <time>2016-12-11T08:56:48.403Z</time>
      </trkpt>
      <trkpt lat="48.03541" lon="2.78975">
        <ele>111</ele>
        <time>2016-12-11T08:56:49.433Z</time>
      </trkpt>
      <trkpt lat="48.03539" lon="2.78979">
        <ele>111</ele>
        <time>2016-12-11T08:56:50.432Z</time>
      </trkpt>
      <trkpt lat="48.03537" lon="2.78984">
        <ele>111</ele>
        <time>2016-12-11T08:56:51.434Z</time>
      </trkpt>
      <trkpt lat="48.03535" lon="2.78988">
        <ele>111</ele>
        <time>2016-12-11T08:56:52.433Z</time>
      </trkpt>
      <trkpt lat="48.03535" lon="2.78988">
        <ele>111</ele>
        <time>2016-12-11T08:56:53.432Z</time>
      </trkpt>
      <trkpt lat="48.0353" lon="2.78997">
        <ele>111</ele>
        <time>2016-12-11T08:56:54.432Z</time>
      </trkpt>
      <trkpt lat="48.0353" lon="2.78997">
        <ele>111</ele>
        <time>2016-12-11T08:56:55.431Z</time>
      </trkpt>
      <trkpt lat="48.03526" lon="2.79006">
        <ele>111</ele>
        <time>2016-12-11T08:56:56.432Z</time>
      </trkpt>
      <trkpt lat="48.03524" lon="2.7901">
        <ele>111</ele>
        <time>2016-12-11T08:56:57.435Z</time>
      </trkpt>
      <trkpt lat="48.03524" lon="2.7901">
        <ele>111</ele>
        <time>2016-12-11T08:56:58.404Z</time>
      </trkpt>
      <trkpt lat="48.0352" lon="2.79019">
        <ele>111</ele>
        <time>2016-12-11T08:56:59.396Z</time>
      </trkpt>
      <trkpt lat="48.0352" lon="2.79019">
        <ele>111</ele>
        <time>2016-12-11T08:57:00.427Z</time>
      </trkpt>
      <trkpt lat="48.03516" lon="2.79027">
        <ele>111</ele>
        <time>2016-12-11T08:57:01.432Z</time>
      </trkpt>
      <trkpt lat="48.03514" lon="2.79031">
        <ele>111</ele>
        <time>2016-12-11T08:57:02.434Z</time>
      </trkpt>
      <trkpt lat="48.03512" lon="2.79035">
        <ele>111</ele>
        <time>2016-12-11T08:57:03.434Z</time>
      </trkpt>
      <trkpt lat="48.03512" lon="2.79035">
        <ele>111</ele>
        <time>2016-12-11T08:57:04.427Z</time>
      </trkpt>
      <trkpt lat="48.03511" lon="2.79045">
        <ele>111</ele>
        <time>2016-12-11T08:57:05.433Z</time>
      </trkpt>
      <trkpt lat="48.03511" lon="2.79045">
        <ele>111</ele>
        <time>2016-12-11T08:57:06.430Z</time>
      </trkpt>
      <trkpt lat="48.03512" lon="2.79055">
        <ele>110</ele>
        <time>2016-12-11T08:57:07.433Z</time>
      </trkpt>
      <trkpt lat="48.03512" lon="2.79055">
        <ele>110</ele>
        <time>2016-12-11T08:57:08.397Z</time>
      </trkpt>
      <trkpt lat="48.03512" lon="2.79068">
        <ele>110</ele>
        <time>2016-12-11T08:57:09.396Z</time>
      </trkpt>
      <trkpt lat="48.03512" lon="2.79068">
        <ele>110</ele>
        <time>2016-12-11T08:57:10.430Z</time>
      </trkpt>
      <trkpt lat="48.03507" lon="2.79077">
        <ele>109</ele>
        <time>2016-12-11T08:57:11.434Z</time>
      </trkpt>
      <trkpt lat="48.03507" lon="2.79077">
        <ele>109</ele>
        <time>2016-12-11T08:57:12.429Z</time>
      </trkpt>
      <trkpt lat="48.03503" lon="2.79088">
        <ele>109</ele>
        <time>2016-12-11T08:57:13.434Z</time>
      </trkpt>
      <trkpt lat="48.03503" lon="2.79088">
        <ele>109</ele>
        <time>2016-12-11T08:57:14.432Z</time>
      </trkpt>
      <trkpt lat="48.03501" lon="2.79098">
        <ele>109</ele>
        <time>2016-12-11T08:57:15.432Z</time>
      </trkpt>
      <trkpt lat="48.03501" lon="2.79098">
        <ele>109</ele>
        <time>2016-12-11T08:57:16.434Z</time>
      </trkpt>
      <trkpt lat="48.03499" lon="2.79108">
        <ele>109</ele>
        <time>2016-12-11T08:57:17.424Z</time>
      </trkpt>
      <trkpt lat="48.03498" lon="2.79113">
        <ele>109</ele>
        <time>2016-12-11T08:57:18.435Z</time>
      </trkpt>
      <trkpt lat="48.03498" lon="2.79113">
        <ele>109</ele>
        <time>2016-12-11T08:57:19.431Z</time>
      </trkpt>
      <trkpt lat="48.03496" lon="2.79119">
        <ele>108</ele>
        <time>2016-12-11T08:57:20.433Z</time>
      </trkpt>
      <trkpt lat="48.03494" lon="2.7912">
        <ele>108</ele>
        <time>2016-12-11T08:57:21.433Z</time>
      </trkpt>
      <trkpt lat="48.03494" lon="2.7912">
        <ele>108</ele>
        <time>2016-12-11T08:57:22.432Z</time>
      </trkpt>
      <trkpt lat="48.03494" lon="2.79121">
        <ele>108</ele>
        <time>2016-12-11T08:57:23.433Z</time>
      </trkpt>
      <trkpt lat="48.03494" lon="2.79121">
        <ele>108</ele>
        <time>2016-12-11T08:57:24.409Z</time>
      </trkpt>
      <trkpt lat="48.03491" lon="2.79117">
        <ele>109</ele>
        <time>2016-12-11T08:57:25.407Z</time>
      </trkpt>
      <trkpt lat="48.03491" lon="2.79117">
        <ele>109</ele>
        <time>2016-12-11T08:57:26.414Z</time>
      </trkpt>
      <trkpt lat="48.03491" lon="2.79119">
        <ele>108</ele>
        <time>2016-12-11T08:57:27.410Z</time>
      </trkpt>
      <trkpt lat="48.03491" lon="2.79119">
        <ele>108</ele>
        <time>2016-12-11T08:57:28.415Z</time>
      </trkpt>
      <trkpt lat="48.03491" lon="2.7912">
        <ele>108</ele>
        <time>2016-12-11T08:57:29.427Z</time>
      </trkpt>
      <trkpt lat="48.03492" lon="2.79127">
        <ele>107</ele>
        <time>2016-12-11T08:57:30.396Z</time>
      </trkpt>
      <trkpt lat="48.03492" lon="2.79127">
        <ele>107</ele>
        <time>2016-12-11T08:57:31.429Z</time>
      </trkpt>
      <trkpt lat="48.03492" lon="2.79134">
        <ele>107</ele>
        <time>2016-12-11T08:57:32.435Z</time>
      </trkpt>
      <trkpt lat="48.03492" lon="2.79134">
        <ele>107</ele>
        <time>2016-12-11T08:57:33.405Z</time>
      </trkpt>
      <trkpt lat="48.03492" lon="2.79142">
        <ele>106</ele>
        <time>2016-12-11T08:57:34.401Z</time>
      </trkpt>
      <trkpt lat="48.03492" lon="2.79142">
        <ele>106</ele>
        <time>2016-12-11T08:57:35.430Z</time>
      </trkpt>
      <trkpt lat="48.03492" lon="2.7915">
        <ele>106</ele>
        <time>2016-12-11T08:57:36.420Z</time>
      </trkpt>
      <trkpt lat="48.03492" lon="2.7915">
        <ele>106</ele>
        <time>2016-12-11T08:57:37.408Z</time>
      </trkpt>
      <trkpt lat="48.0349" lon="2.79159">
        <ele>106</ele>
        <time>2016-12-11T08:57:38.412Z</time>
      </trkpt>
      <trkpt lat="48.0349" lon="2.79159">
        <ele>106</ele>
        <time>2016-12-11T08:57:39.399Z</time>
      </trkpt>
      <trkpt lat="48.03484" lon="2.79166">
        <ele>106</ele>
        <time>2016-12-11T08:57:40.433Z</time>
      </trkpt>
      <trkpt lat="48.03482" lon="2.79168">
        <ele>106</ele>
        <time>2016-12-11T08:57:41.404Z</time>
      </trkpt>
      <trkpt lat="48.03482" lon="2.79168">
        <ele>106</ele>
        <time>2016-12-11T08:57:42.403Z</time>
      </trkpt>
      <trkpt lat="48.03476" lon="2.79173">
        <ele>107</ele>
        <time>2016-12-11T08:57:43.434Z</time>
      </trkpt>
      <trkpt lat="48.03473" lon="2.79174">
        <ele>107</ele>
        <time>2016-12-11T08:57:44.401Z</time>
      </trkpt>
      <trkpt lat="48.03473" lon="2.79174">
        <ele>107</ele>
        <time>2016-12-11T08:57:45.432Z</time>
      </trkpt>
      <trkpt lat="48.03466" lon="2.79172">
        <ele>108</ele>
        <time>2016-12-11T08:57:46.404Z</time>
      </trkpt>
      <trkpt lat="48.03466" lon="2.79172">
        <ele>108</ele>
        <time>2016-12-11T08:57:47.432Z</time>
      </trkpt>
      <trkpt lat="48.0346" lon="2.79168">
        <ele>108</ele>
        <time>2016-12-11T08:57:48.411Z</time>
      </trkpt>
      <trkpt lat="48.0346" lon="2.79168">
        <ele>108</ele>
        <time>2016-12-11T08:57:49.399Z</time>
      </trkpt>
      <trkpt lat="48.03453" lon="2.79165">
        <ele>109</ele>
        <time>2016-12-11T08:57:50.396Z</time>
      </trkpt>
      <trkpt lat="48.03453" lon="2.79165">
        <ele>109</ele>
        <time>2016-12-11T08:57:51.424Z</time>
      </trkpt>
      <trkpt lat="48.03446" lon="2.79167">
        <ele>110</ele>
        <time>2016-12-11T08:57:52.413Z</time>
      </trkpt>
      <trkpt lat="48.03443" lon="2.79169">
        <ele>110</ele>
        <time>2016-12-11T08:57:53.407Z</time>
      </trkpt>
      <trkpt lat="48.03443" lon="2.79169">
        <ele>110</ele>
        <time>2016-12-11T08:57:54.396Z</time>
      </trkpt>
      <trkpt lat="48.03439" lon="2.79176">
        <ele>111</ele>
        <time>2016-12-11T08:57:55.397Z</time>
      </trkpt>
      <trkpt lat="48.03437" lon="2.79179">
        <ele>111</ele>
        <time>2016-12-11T08:57:56.433Z</time>
      </trkpt>
      <trkpt lat="48.03437" lon="2.79179">
        <ele>111</ele>
        <time>2016-12-11T08:57:57.399Z</time>
      </trkpt>
      <trkpt lat="48.03436" lon="2.79188">
        <ele>112</ele>
        <time>2016-12-11T08:57:58.399Z</time>
      </trkpt>
      <trkpt lat="48.03436" lon="2.79188">
        <ele>112</ele>
        <time>2016-12-11T08:57:59.429Z</time>
      </trkpt>
      <trkpt lat="48.03437" lon="2.79198">
        <ele>112</ele>
        <time>2016-12-11T08:58:00.396Z</time>
      </trkpt>
      <trkpt lat="48.03438" lon="2.79203">
        <ele>112</ele>
        <time>2016-12-11T08:58:01.396Z</time>
      </trkpt>
      <trkpt lat="48.03439" lon="2.79209">
        <ele>112</ele>
        <time>2016-12-11T08:58:02.434Z</time>
      </trkpt>
      <trkpt lat="48.03439" lon="2.79209">
        <ele>112</ele>
        <time>2016-12-11T08:58:03.399Z</time>
      </trkpt>
      <trkpt lat="48.03441" lon="2.79219">
        <ele>112</ele>
        <time>2016-12-11T08:58:04.435Z</time>
      </trkpt>
      <trkpt lat="48.03441" lon="2.79219">
        <ele>112</ele>
        <time>2016-12-11T08:58:05.405Z</time>
      </trkpt>
      <trkpt lat="48.03444" lon="2.79229">
        <ele>112</ele>
        <time>2016-12-11T08:58:06.417Z</time>
      </trkpt>
      <trkpt lat="48.03444" lon="2.79229">
        <ele>112</ele>
        <time>2016-12-11T08:58:07.406Z</time>
      </trkpt>
      <trkpt lat="48.03447" lon="2.79239">
        <ele>112</ele>
        <time>2016-12-11T08:58:08.404Z</time>
      </trkpt>
      <trkpt lat="48.03447" lon="2.79239">
        <ele>112</ele>
        <time>2016-12-11T08:58:09.435Z</time>
      </trkpt>
      <trkpt lat="48.03451" lon="2.7925">
        <ele>112</ele>
        <time>2016-12-11T08:58:10.412Z</time>
      </trkpt>
      <trkpt lat="48.03451" lon="2.7925">
        <ele>112</ele>
        <time>2016-12-11T08:58:11.403Z</time>
      </trkpt>
      <trkpt lat="48.03455" lon="2.7926">
        <ele>112</ele>
        <time>2016-12-11T08:58:12.433Z</time>
      </trkpt>
      <trkpt lat="48.03457" lon="2.79264">
        <ele>113</ele>
        <time>2016-12-11T08:58:13.398Z</time>
      </trkpt>
      <trkpt lat="48.03457" lon="2.79264">
        <ele>113</ele>
        <time>2016-12-11T08:58:14.427Z</time>
      </trkpt>
      <trkpt lat="48.03461" lon="2.79273">
        <ele>113</ele>
        <time>2016-12-11T08:58:15.435Z</time>
      </trkpt>
      <trkpt lat="48.03463" lon="2.79277">
        <ele>113</ele>
        <time>2016-12-11T08:58:16.412Z</time>
      </trkpt>
      <trkpt lat="48.03463" lon="2.79277">
        <ele>113</ele>
        <time>2016-12-11T08:58:17.429Z</time>
      </trkpt>
      <trkpt lat="48.03467" lon="2.79285">
        <ele>113</ele>
        <time>2016-12-11T08:58:18.409Z</time>
      </trkpt>
      <trkpt lat="48.03467" lon="2.79285">
        <ele>113</ele>
        <time>2016-12-11T08:58:19.397Z</time>
      </trkpt>
      <trkpt lat="48.0347" lon="2.79293">
        <ele>114</ele>
        <time>2016-12-11T08:58:20.399Z</time>
      </trkpt>
      <trkpt lat="48.0347" lon="2.79293">
        <ele>114</ele>
        <time>2016-12-11T08:58:21.396Z</time>
      </trkpt>
      <trkpt lat="48.03475" lon="2.793">
        <ele>114</ele>
        <time>2016-12-11T08:58:22.427Z</time>
      </trkpt>
      <trkpt lat="48.03477" lon="2.79304">
        <ele>115</ele>
        <time>2016-12-11T08:58:23.435Z</time>
      </trkpt>
      <trkpt lat="48.03477" lon="2.79304">
        <ele>115</ele>
        <time>2016-12-11T08:58:24.404Z</time>
      </trkpt>
      <trkpt lat="48.03481" lon="2.79311">
        <ele>115</ele>
        <time>2016-12-11T08:58:25.408Z</time>
      </trkpt>
      <trkpt lat="48.03483" lon="2.79315">
        <ele>115</ele>
        <time>2016-12-11T08:58:26.402Z</time>
      </trkpt>
      <trkpt lat="48.03483" lon="2.79315">
        <ele>115</ele>
        <time>2016-12-11T08:58:27.433Z</time>
      </trkpt>
      <trkpt lat="48.03486" lon="2.79322">
        <ele>115</ele>
        <time>2016-12-11T08:58:28.406Z</time>
      </trkpt>
      <trkpt lat="48.03486" lon="2.79322">
        <ele>115</ele>
        <time>2016-12-11T08:58:29.396Z</time>
      </trkpt>
      <trkpt lat="48.0349" lon="2.79329">
        <ele>116</ele>
        <time>2016-12-11T08:58:30.433Z</time>
      </trkpt>
      <trkpt lat="48.0349" lon="2.79329">
        <ele>116</ele>
        <time>2016-12-11T08:58:31.399Z</time>
      </trkpt>
      <trkpt lat="48.03493" lon="2.79338">
        <ele>116</ele>
        <time>2016-12-11T08:58:32.436Z</time>
      </trkpt>
      <trkpt lat="48.03493" lon="2.79338">
        <ele>116</ele>
        <time>2016-12-11T08:58:33.406Z</time>
      </trkpt>
      <trkpt lat="48.03492" lon="2.79344">
        <ele>116</ele>
        <time>2016-12-11T08:58:34.406Z</time>
      </trkpt>
      <trkpt lat="48.03492" lon="2.79344">
        <ele>116</ele>
        <time>2016-12-11T08:58:35.434Z</time>
      </trkpt>
      <trkpt lat="48.03486" lon="2.79348">
        <ele>116</ele>
        <time>2016-12-11T08:58:36.400Z</time>
      </trkpt>
      <trkpt lat="48.03486" lon="2.79348">
        <ele>116</ele>
        <time>2016-12-11T08:58:37.432Z</time>
      </trkpt>
      <trkpt lat="48.03479" lon="2.79353">
        <ele>116</ele>
        <time>2016-12-11T08:58:38.404Z</time>
      </trkpt>
      <trkpt lat="48.03479" lon="2.79353">
        <ele>116</ele>
        <time>2016-12-11T08:58:39.432Z</time>
      </trkpt>
      <trkpt lat="48.03471" lon="2.79358">
        <ele>116</ele>
        <time>2016-12-11T08:58:40.404Z</time>
      </trkpt>
      <trkpt lat="48.03471" lon="2.79358">
        <ele>116</ele>
        <time>2016-12-11T08:58:41.433Z</time>
      </trkpt>
      <trkpt lat="48.03464" lon="2.79363">
        <ele>115</ele>
        <time>2016-12-11T08:58:42.403Z</time>
      </trkpt>
      <trkpt lat="48.03464" lon="2.79363">
        <ele>115</ele>
        <time>2016-12-11T08:58:43.433Z</time>
      </trkpt>
      <trkpt lat="48.03457" lon="2.79369">
        <ele>115</ele>
        <time>2016-12-11T08:58:44.398Z</time>
      </trkpt>
      <trkpt lat="48.03457" lon="2.79369">
        <ele>115</ele>
        <time>2016-12-11T08:58:45.428Z</time>
      </trkpt>
      <trkpt lat="48.03449" lon="2.79375">
        <ele>115</ele>
        <time>2016-12-11T08:58:46.435Z</time>
      </trkpt>
      <trkpt lat="48.03444" lon="2.79376">
        <ele>115</ele>
        <time>2016-12-11T08:58:47.397Z</time>
      </trkpt>
      <trkpt lat="48.0344" lon="2.79378">
        <ele>115</ele>
        <time>2016-12-11T08:58:48.397Z</time>
      </trkpt>
      <trkpt lat="48.0344" lon="2.79378">
        <ele>115</ele>
        <time>2016-12-11T08:58:49.428Z</time>
      </trkpt>
      <trkpt lat="48.0343" lon="2.79378">
        <ele>115</ele>
        <time>2016-12-11T08:58:50.409Z</time>
      </trkpt>
      <trkpt lat="48.0343" lon="2.79378">
        <ele>115</ele>
        <time>2016-12-11T08:58:51.400Z</time>
      </trkpt>
      <trkpt lat="48.03421" lon="2.79377">
        <ele>115</ele>
        <time>2016-12-11T08:58:52.434Z</time>
      </trkpt>
      <trkpt lat="48.03416" lon="2.79376">
        <ele>114</ele>
        <time>2016-12-11T08:58:53.402Z</time>
      </trkpt>
      <trkpt lat="48.03416" lon="2.79376">
        <ele>114</ele>
        <time>2016-12-11T08:58:54.410Z</time>
      </trkpt>
      <trkpt lat="48.03407" lon="2.7937">
        <ele>114</ele>
        <time>2016-12-11T08:58:55.409Z</time>
      </trkpt>
      <trkpt lat="48.03402" lon="2.79367">
        <ele>114</ele>
        <time>2016-12-11T08:58:56.404Z</time>
      </trkpt>
      <trkpt lat="48.03402" lon="2.79367">
        <ele>114</ele>
        <time>2016-12-11T08:58:57.434Z</time>
      </trkpt>
      <trkpt lat="48.03392" lon="2.79362">
        <ele>114</ele>
        <time>2016-12-11T08:58:58.402Z</time>
      </trkpt>
      <trkpt lat="48.03392" lon="2.79362">
        <ele>114</ele>
        <time>2016-12-11T08:58:59.432Z</time>
      </trkpt>
      <trkpt lat="48.03383" lon="2.79357">
        <ele>113</ele>
        <time>2016-12-11T08:59:00.404Z</time>
      </trkpt>
      <trkpt lat="48.03383" lon="2.79357">
        <ele>113</ele>
        <time>2016-12-11T08:59:01.432Z</time>
      </trkpt>
      <trkpt lat="48.03374" lon="2.79352">
        <ele>113</ele>
        <time>2016-12-11T08:59:02.408Z</time>
      </trkpt>
      <trkpt lat="48.03374" lon="2.79352">
        <ele>113</ele>
        <time>2016-12-11T08:59:03.396Z</time>
      </trkpt>
      <trkpt lat="48.03365" lon="2.79347">
        <ele>113</ele>
        <time>2016-12-11T08:59:04.433Z</time>
      </trkpt>
      <trkpt lat="48.03365" lon="2.79347">
        <ele>113</ele>
        <time>2016-12-11T08:59:05.398Z</time>
      </trkpt>
      <trkpt lat="48.03354" lon="2.79344">
        <ele>112</ele>
        <time>2016-12-11T08:59:06.434Z</time>
      </trkpt>
      <trkpt lat="48.03354" lon="2.79344">
        <ele>112</ele>
        <time>2016-12-11T08:59:07.399Z</time>
      </trkpt>
      <trkpt lat="48.03343" lon="2.79342">
        <ele>112</ele>
        <time>2016-12-11T08:59:08.398Z</time>
      </trkpt>
      <trkpt lat="48.03337" lon="2.7934">
        <ele>112</ele>
        <time>2016-12-11T08:59:09.426Z</time>
      </trkpt>
      <trkpt lat="48.03337" lon="2.7934">
        <ele>112</ele>
        <time>2016-12-11T08:59:10.399Z</time>
      </trkpt>
      <trkpt lat="48.03326" lon="2.79339">
        <ele>111</ele>
        <time>2016-12-11T08:59:11.433Z</time>
      </trkpt>
      <trkpt lat="48.03326" lon="2.79339">
        <ele>111</ele>
        <time>2016-12-11T08:59:12.398Z</time>
      </trkpt>
      <trkpt lat="48.03316" lon="2.79345">
        <ele>111</ele>
        <time>2016-12-11T08:59:13.398Z</time>
      </trkpt>
      <trkpt lat="48.03316" lon="2.79345">
        <ele>111</ele>
        <time>2016-12-11T08:59:14.426Z</time>
      </trkpt>
      <trkpt lat="48.03311" lon="2.79358">
        <ele>112</ele>
        <time>2016-12-11T08:59:15.406Z</time>
      </trkpt>
      <trkpt lat="48.03311" lon="2.79358">
        <ele>112</ele>
        <time>2016-12-11T08:59:16.433Z</time>
      </trkpt>
      <trkpt lat="48.03308" lon="2.79373">
        <ele>113</ele>
        <time>2016-12-11T08:59:17.403Z</time>
      </trkpt>
      <trkpt lat="48.03308" lon="2.79373">
        <ele>113</ele>
        <time>2016-12-11T08:59:18.434Z</time>
      </trkpt>
      <trkpt lat="48.03306" lon="2.79387">
        <ele>113</ele>
        <time>2016-12-11T08:59:19.400Z</time>
      </trkpt>
      <trkpt lat="48.03306" lon="2.79394">
        <ele>113</ele>
        <time>2016-12-11T08:59:20.406Z</time>
      </trkpt>
      <trkpt lat="48.03306" lon="2.79394">
        <ele>113</ele>
        <time>2016-12-11T08:59:21.434Z</time>
      </trkpt>
      <trkpt lat="48.03304" lon="2.79407">
        <ele>113</ele>
        <time>2016-12-11T08:59:22.414Z</time>
      </trkpt>
      <trkpt lat="48.03304" lon="2.79407">
        <ele>113</ele>
        <time>2016-12-11T08:59:23.403Z</time>
      </trkpt>
      <trkpt lat="48.03303" lon="2.7942">
        <ele>113</ele>
        <time>2016-12-11T08:59:24.412Z</time>
      </trkpt>
      <trkpt lat="48.03303" lon="2.7942">
        <ele>113</ele>
        <time>2016-12-11T08:59:25.406Z</time>
      </trkpt>
      <trkpt lat="48.03302" lon="2.79433">
        <ele>114</ele>
        <time>2016-12-11T08:59:26.408Z</time>
      </trkpt>
      <trkpt lat="48.03302" lon="2.79433">
        <ele>114</ele>
        <time>2016-12-11T08:59:27.396Z</time>
      </trkpt>
      <trkpt lat="48.03302" lon="2.79445">
        <ele>114</ele>
        <time>2016-12-11T08:59:28.424Z</time>
      </trkpt>
      <trkpt lat="48.03302" lon="2.79445">
        <ele>114</ele>
        <time>2016-12-11T08:59:29.412Z</time>
      </trkpt>
      <trkpt lat="48.03302" lon="2.79456">
        <ele>114</ele>
        <time>2016-12-11T08:59:30.404Z</time>
      </trkpt>
      <trkpt lat="48.03302" lon="2.79456">
        <ele>114</ele>
        <time>2016-12-11T08:59:31.433Z</time>
      </trkpt>
      <trkpt lat="48.03302" lon="2.79468">
        <ele>115</ele>
        <time>2016-12-11T08:59:32.405Z</time>
      </trkpt>
      <trkpt lat="48.03302" lon="2.79468">
        <ele>115</ele>
        <time>2016-12-11T08:59:33.433Z</time>
      </trkpt>
      <trkpt lat="48.03301" lon="2.79479">
        <ele>115</ele>
        <time>2016-12-11T08:59:34.405Z</time>
      </trkpt>
      <trkpt lat="48.03301" lon="2.79479">
        <ele>115</ele>
        <time>2016-12-11T08:59:35.396Z</time>
      </trkpt>
      <trkpt lat="48.03301" lon="2.79488">
        <ele>115</ele>
        <time>2016-12-11T08:59:36.396Z</time>
      </trkpt>
      <trkpt lat="48.03301" lon="2.79493">
        <ele>115</ele>
        <time>2016-12-11T08:59:37.424Z</time>
      </trkpt>
      <trkpt lat="48.03301" lon="2.79493">
        <ele>115</ele>
        <time>2016-12-11T08:59:38.412Z</time>
      </trkpt>
      <trkpt lat="48.033" lon="2.79503">
        <ele>116</ele>
        <time>2016-12-11T08:59:39.403Z</time>
      </trkpt>
      <trkpt lat="48.033" lon="2.79503">
        <ele>116</ele>
        <time>2016-12-11T08:59:40.433Z</time>
      </trkpt>
      <trkpt lat="48.03299" lon="2.79513">
        <ele>116</ele>
        <time>2016-12-11T08:59:41.420Z</time>
      </trkpt>
      <trkpt lat="48.03299" lon="2.79513">
        <ele>116</ele>
        <time>2016-12-11T08:59:42.408Z</time>
      </trkpt>
      <trkpt lat="48.03298" lon="2.79523">
        <ele>116</ele>
        <time>2016-12-11T08:59:43.396Z</time>
      </trkpt>
      <trkpt lat="48.03297" lon="2.79528">
        <ele>116</ele>
        <time>2016-12-11T08:59:44.399Z</time>
      </trkpt>
      <trkpt lat="48.03297" lon="2.79534">
        <ele>116</ele>
        <time>2016-12-11T08:59:45.428Z</time>
      </trkpt>
      <trkpt lat="48.03297" lon="2.79534">
        <ele>116</ele>
        <time>2016-12-11T08:59:46.433Z</time>
      </trkpt>
      <trkpt lat="48.03296" lon="2.79544">
        <ele>117</ele>
        <time>2016-12-11T08:59:47.400Z</time>
      </trkpt>
      <trkpt lat="48.03296" lon="2.79544">
        <ele>117</ele>
        <time>2016-12-11T08:59:48.429Z</time>
      </trkpt>
      <trkpt lat="48.03295" lon="2.79554">
        <ele>117</ele>
        <time>2016-12-11T08:59:49.397Z</time>
      </trkpt>
      <trkpt lat="48.03294" lon="2.79559">
        <ele>117</ele>
        <time>2016-12-11T08:59:50.433Z</time>
      </trkpt>
      <trkpt lat="48.03294" lon="2.79559">
        <ele>117</ele>
        <time>2016-12-11T08:59:51.399Z</time>
      </trkpt>
      <trkpt lat="48.03293" lon="2.79569">
        <ele>117</ele>
        <time>2016-12-11T08:59:52.422Z</time>
      </trkpt>
      <trkpt lat="48.03293" lon="2.79569">
        <ele>117</ele>
        <time>2016-12-11T08:59:53.409Z</time>
      </trkpt>
      <trkpt lat="48.03292" lon="2.79579">
        <ele>117</ele>
        <time>2016-12-11T08:59:54.405Z</time>
      </trkpt>
      <trkpt lat="48.03292" lon="2.79579">
        <ele>117</ele>
        <time>2016-12-11T08:59:55.433Z</time>
      </trkpt>
      <trkpt lat="48.03291" lon="2.79589">
        <ele>117</ele>
        <time>2016-12-11T08:59:56.405Z</time>
      </trkpt>
      <trkpt lat="48.03291" lon="2.79589">
        <ele>117</ele>
        <time>2016-12-11T08:59:57.434Z</time>
      </trkpt>
      <trkpt lat="48.0329" lon="2.796">
        <ele>117</ele>
        <time>2016-12-11T08:59:58.404Z</time>
      </trkpt>
      <trkpt lat="48.0329" lon="2.796">
        <ele>117</ele>
        <time>2016-12-11T08:59:59.433Z</time>
      </trkpt>
      <trkpt lat="48.03289" lon="2.7961">
        <ele>116</ele>
        <time>2016-12-11T09:00:00.404Z</time>
      </trkpt>
      <trkpt lat="48.03289" lon="2.7961">
        <ele>116</ele>
        <time>2016-12-11T09:00:01.433Z</time>
      </trkpt>
      <trkpt lat="48.03288" lon="2.7962">
        <ele>117</ele>
        <time>2016-12-11T09:00:02.404Z</time>
      </trkpt>
      <trkpt lat="48.03288" lon="2.7962">
        <ele>117</ele>
        <time>2016-12-11T09:00:03.433Z</time>
      </trkpt>
      <trkpt lat="48.03287" lon="2.7963">
        <ele>117</ele>
        <time>2016-12-11T09:00:04.404Z</time>
      </trkpt>
      <trkpt lat="48.03287" lon="2.7963">
        <ele>117</ele>
        <time>2016-12-11T09:00:05.433Z</time>
      </trkpt>
      <trkpt lat="48.03286" lon="2.79641">
        <ele>117</ele>
        <time>2016-12-11T09:00:06.404Z</time>
      </trkpt>
      <trkpt lat="48.03286" lon="2.79641">
        <ele>117</ele>
        <time>2016-12-11T09:00:07.435Z</time>
      </trkpt>
      <trkpt lat="48.03284" lon="2.79652">
        <ele>117</ele>
        <time>2016-12-11T09:00:08.406Z</time>
      </trkpt>
      <trkpt lat="48.03284" lon="2.79652">
        <ele>117</ele>
        <time>2016-12-11T09:00:09.434Z</time>
      </trkpt>
      <trkpt lat="48.03283" lon="2.79662">
        <ele>117</ele>
        <time>2016-12-11T09:00:10.402Z</time>
      </trkpt>
      <trkpt lat="48.03283" lon="2.79668">
        <ele>117</ele>
        <time>2016-12-11T09:00:11.433Z</time>
      </trkpt>
      <trkpt lat="48.03283" lon="2.79668">
        <ele>117</ele>
        <time>2016-12-11T09:00:12.403Z</time>
      </trkpt>
      <trkpt lat="48.03282" lon="2.79679">
        <ele>117</ele>
        <time>2016-12-11T09:00:13.399Z</time>
      </trkpt>
      <trkpt lat="48.03282" lon="2.79679">
        <ele>117</ele>
        <time>2016-12-11T09:00:14.427Z</time>
      </trkpt>
      <trkpt lat="48.03281" lon="2.7969">
        <ele>117</ele>
        <time>2016-12-11T09:00:15.421Z</time>
      </trkpt>
      <trkpt lat="48.0328" lon="2.79696">
        <ele>117</ele>
        <time>2016-12-11T09:00:16.417Z</time>
      </trkpt>
      <trkpt lat="48.0328" lon="2.79696">
        <ele>117</ele>
        <time>2016-12-11T09:00:17.432Z</time>
      </trkpt>
      <trkpt lat="48.03279" lon="2.79707">
        <ele>117</ele>
        <time>2016-12-11T09:00:18.430Z</time>
      </trkpt>
      <trkpt lat="48.03279" lon="2.79707">
        <ele>117</ele>
        <time>2016-12-11T09:00:19.396Z</time>
      </trkpt>
      <trkpt lat="48.03278" lon="2.79718">
        <ele>117</ele>
        <time>2016-12-11T09:00:20.402Z</time>
      </trkpt>
      <trkpt lat="48.03278" lon="2.79718">
        <ele>117</ele>
        <time>2016-12-11T09:00:21.433Z</time>
      </trkpt>
      <trkpt lat="48.03277" lon="2.79729">
        <ele>117</ele>
        <time>2016-12-11T09:00:22.405Z</time>
      </trkpt>
      <trkpt lat="48.03277" lon="2.79729">
        <ele>117</ele>
        <time>2016-12-11T09:00:23.433Z</time>
      </trkpt>
      <trkpt lat="48.03276" lon="2.7974">
        <ele>117</ele>
        <time>2016-12-11T09:00:24.405Z</time>
      </trkpt>
      <trkpt lat="48.03276" lon="2.7974">
        <ele>117</ele>
        <time>2016-12-11T09:00:25.434Z</time>
      </trkpt>
      <trkpt lat="48.03274" lon="2.79751">
        <ele>117</ele>
        <time>2016-12-11T09:00:26.404Z</time>
      </trkpt>
      <trkpt lat="48.03274" lon="2.79751">
        <ele>117</ele>
        <time>2016-12-11T09:00:27.433Z</time>
      </trkpt>
      <trkpt lat="48.03273" lon="2.79762">
        <ele>117</ele>
        <time>2016-12-11T09:00:28.405Z</time>
      </trkpt>
      <trkpt lat="48.03273" lon="2.79762">
        <ele>117</ele>
        <time>2016-12-11T09:00:29.434Z</time>
      </trkpt>
      <trkpt lat="48.03272" lon="2.79772">
        <ele>117</ele>
        <time>2016-12-11T09:00:30.404Z</time>
      </trkpt>
      <trkpt lat="48.03271" lon="2.79778">
        <ele>117</ele>
        <time>2016-12-11T09:00:31.433Z</time>
      </trkpt>
      <trkpt lat="48.0327" lon="2.79783">
        <ele>117</ele>
        <time>2016-12-11T09:00:32.405Z</time>
      </trkpt>
      <trkpt lat="48.0327" lon="2.79783">
        <ele>117</ele>
        <time>2016-12-11T09:00:33.433Z</time>
      </trkpt>
      <trkpt lat="48.03269" lon="2.79794">
        <ele>117</ele>
        <time>2016-12-11T09:00:34.404Z</time>
      </trkpt>
      <trkpt lat="48.03268" lon="2.79799">
        <ele>117</ele>
        <time>2016-12-11T09:00:35.398Z</time>
      </trkpt>
      <trkpt lat="48.03267" lon="2.79804">
        <ele>117</ele>
        <time>2016-12-11T09:00:36.427Z</time>
      </trkpt>
      <trkpt lat="48.03267" lon="2.79804">
        <ele>117</ele>
        <time>2016-12-11T09:00:37.433Z</time>
      </trkpt>
      <trkpt lat="48.03265" lon="2.79814">
        <ele>117</ele>
        <time>2016-12-11T09:00:38.410Z</time>
      </trkpt>
      <trkpt lat="48.03265" lon="2.79814">
        <ele>117</ele>
        <time>2016-12-11T09:00:39.407Z</time>
      </trkpt>
      <trkpt lat="48.03264" lon="2.79824">
        <ele>117</ele>
        <time>2016-12-11T09:00:40.400Z</time>
      </trkpt>
      <trkpt lat="48.03264" lon="2.79824">
        <ele>117</ele>
        <time>2016-12-11T09:00:41.428Z</time>
      </trkpt>
      <trkpt lat="48.03262" lon="2.79833">
        <ele>117</ele>
        <time>2016-12-11T09:00:42.412Z</time>
      </trkpt>
      <trkpt lat="48.03262" lon="2.79833">
        <ele>117</ele>
        <time>2016-12-11T09:00:43.400Z</time>
      </trkpt>
      <trkpt lat="48.03261" lon="2.79843">
        <ele>117</ele>
        <time>2016-12-11T09:00:44.410Z</time>
      </trkpt>
      <trkpt lat="48.03261" lon="2.79843">
        <ele>117</ele>
        <time>2016-12-11T09:00:45.405Z</time>
      </trkpt>
      <trkpt lat="48.03259" lon="2.79852">
        <ele>117</ele>
        <time>2016-12-11T09:00:46.404Z</time>
      </trkpt>
      <trkpt lat="48.03259" lon="2.79852">
        <ele>117</ele>
        <time>2016-12-11T09:00:47.407Z</time>
      </trkpt>
      <trkpt lat="48.03258" lon="2.79861">
        <ele>117</ele>
        <time>2016-12-11T09:00:48.398Z</time>
      </trkpt>
      <trkpt lat="48.03257" lon="2.79865">
        <ele>117</ele>
        <time>2016-12-11T09:00:49.398Z</time>
      </trkpt>
      <trkpt lat="48.03256" lon="2.7987">
        <ele>117</ele>
        <time>2016-12-11T09:00:50.427Z</time>
      </trkpt>
      <trkpt lat="48.03256" lon="2.7987">
        <ele>117</ele>
        <time>2016-12-11T09:00:51.433Z</time>
      </trkpt>
      <trkpt lat="48.03254" lon="2.79879">
        <ele>117</ele>
        <time>2016-12-11T09:00:52.405Z</time>
      </trkpt>
      <trkpt lat="48.03254" lon="2.79879">
        <ele>117</ele>
        <time>2016-12-11T09:00:53.433Z</time>
      </trkpt>
      <trkpt lat="48.03253" lon="2.79888">
        <ele>117</ele>
        <time>2016-12-11T09:00:54.404Z</time>
      </trkpt>
      <trkpt lat="48.03252" lon="2.79893">
        <ele>117</ele>
        <time>2016-12-11T09:00:55.422Z</time>
      </trkpt>
      <trkpt lat="48.03252" lon="2.79893">
        <ele>117</ele>
        <time>2016-12-11T09:00:56.410Z</time>
      </trkpt>
      <trkpt lat="48.0325" lon="2.79902">
        <ele>117</ele>
        <time>2016-12-11T09:00:57.415Z</time>
      </trkpt>
      <trkpt lat="48.0325" lon="2.79902">
        <ele>117</ele>
        <time>2016-12-11T09:00:58.403Z</time>
      </trkpt>
      <trkpt lat="48.03248" lon="2.7991">
        <ele>117</ele>
        <time>2016-12-11T09:00:59.404Z</time>
      </trkpt>
      <trkpt lat="48.03248" lon="2.7991">
        <ele>117</ele>
        <time>2016-12-11T09:01:00.434Z</time>
      </trkpt>
      <trkpt lat="48.03246" lon="2.79919">
        <ele>116</ele>
        <time>2016-12-11T09:01:01.403Z</time>
      </trkpt>
      <trkpt lat="48.03245" lon="2.79923">
        <ele>116</ele>
        <time>2016-12-11T09:01:02.400Z</time>
      </trkpt>
      <trkpt lat="48.03245" lon="2.79923">
        <ele>116</ele>
        <time>2016-12-11T09:01:03.433Z</time>
      </trkpt>
      <trkpt lat="48.03243" lon="2.79932">
        <ele>116</ele>
        <time>2016-12-11T09:01:04.404Z</time>
      </trkpt>
      <trkpt lat="48.03243" lon="2.79932">
        <ele>116</ele>
        <time>2016-12-11T09:01:05.433Z</time>
      </trkpt>
      <trkpt lat="48.03241" lon="2.7994">
        <ele>116</ele>
        <time>2016-12-11T09:01:06.404Z</time>
      </trkpt>
      <trkpt lat="48.03241" lon="2.7994">
        <ele>116</ele>
        <time>2016-12-11T09:01:07.402Z</time>
      </trkpt>
      <trkpt lat="48.03238" lon="2.79948">
        <ele>116</ele>
        <time>2016-12-11T09:01:08.411Z</time>
      </trkpt>
      <trkpt lat="48.03238" lon="2.79948">
        <ele>116</ele>
        <time>2016-12-11T09:01:09.399Z</time>
      </trkpt>
      <trkpt lat="48.03236" lon="2.79957">
        <ele>116</ele>
        <time>2016-12-11T09:01:10.396Z</time>
      </trkpt>
      <trkpt lat="48.03236" lon="2.79957">
        <ele>116</ele>
        <time>2016-12-11T09:01:11.426Z</time>
      </trkpt>
      <trkpt lat="48.03234" lon="2.79966">
        <ele>116</ele>
        <time>2016-12-11T09:01:12.416Z</time>
      </trkpt>
      <trkpt lat="48.03234" lon="2.79966">
        <ele>116</ele>
        <time>2016-12-11T09:01:13.405Z</time>
      </trkpt>
      <trkpt lat="48.03236" lon="2.79974">
        <ele>116</ele>
        <time>2016-12-11T09:01:14.398Z</time>
      </trkpt>
      <trkpt lat="48.03236" lon="2.79974">
        <ele>116</ele>
        <time>2016-12-11T09:01:15.429Z</time>
      </trkpt>
      <trkpt lat="48.03237" lon="2.79982">
        <ele>115</ele>
        <time>2016-12-11T09:01:16.434Z</time>
      </trkpt>
      <trkpt lat="48.03237" lon="2.79982">
        <ele>115</ele>
        <time>2016-12-11T09:01:17.427Z</time>
      </trkpt>
      <trkpt lat="48.03234" lon="2.79988">
        <ele>115</ele>
        <time>2016-12-11T09:01:18.432Z</time>
      </trkpt>
      <trkpt lat="48.03234" lon="2.79988">
        <ele>115</ele>
        <time>2016-12-11T09:01:19.398Z</time>
      </trkpt>
      <trkpt lat="48.03228" lon="2.79991">
        <ele>115</ele>
        <time>2016-12-11T09:01:20.403Z</time>
      </trkpt>
      <trkpt lat="48.03228" lon="2.79991">
        <ele>115</ele>
        <time>2016-12-11T09:01:21.433Z</time>
      </trkpt>
      <trkpt lat="48.03221" lon="2.79992">
        <ele>115</ele>
        <time>2016-12-11T09:01:22.408Z</time>
      </trkpt>
      <trkpt lat="48.03221" lon="2.79992">
        <ele>115</ele>
        <time>2016-12-11T09:01:23.397Z</time>
      </trkpt>
      <trkpt lat="48.03217" lon="2.79999">
        <ele>116</ele>
        <time>2016-12-11T09:01:24.434Z</time>
      </trkpt>
      <trkpt lat="48.03217" lon="2.79999">
        <ele>116</ele>
        <time>2016-12-11T09:01:25.407Z</time>
      </trkpt>
      <trkpt lat="48.03216" lon="2.80008">
        <ele>116</ele>
        <time>2016-12-11T09:01:26.400Z</time>
      </trkpt>
      <trkpt lat="48.03216" lon="2.80008">
        <ele>116</ele>
        <time>2016-12-11T09:01:27.401Z</time>
      </trkpt>
      <trkpt lat="48.03216" lon="2.80018">
        <ele>115</ele>
        <time>2016-12-11T09:01:28.433Z</time>
      </trkpt>
      <trkpt lat="48.03216" lon="2.80018">
        <ele>115</ele>
        <time>2016-12-11T09:01:29.399Z</time>
      </trkpt>
      <trkpt lat="48.03217" lon="2.80027">
        <ele>114</ele>
        <time>2016-12-11T09:01:30.434Z</time>
      </trkpt>
      <trkpt lat="48.03217" lon="2.80027">
        <ele>114</ele>
        <time>2016-12-11T09:01:31.400Z</time>
      </trkpt>
      <trkpt lat="48.03217" lon="2.80037">
        <ele>113</ele>
        <time>2016-12-11T09:01:32.429Z</time>
      </trkpt>
      <trkpt lat="48.03217" lon="2.80037">
        <ele>113</ele>
        <time>2016-12-11T09:01:33.434Z</time>
      </trkpt>
      <trkpt lat="48.03217" lon="2.80047">
        <ele>112</ele>
        <time>2016-12-11T09:01:34.405Z</time>
      </trkpt>
      <trkpt lat="48.03217" lon="2.80052">
        <ele>111</ele>
        <time>2016-12-11T09:01:35.409Z</time>
      </trkpt>
      <trkpt lat="48.03217" lon="2.80052">
        <ele>111</ele>
        <time>2016-12-11T09:01:36.399Z</time>
      </trkpt>
      <trkpt lat="48.03216" lon="2.8006">
        <ele>110</ele>
        <time>2016-12-11T09:01:37.401Z</time>
      </trkpt>
      <trkpt lat="48.03216" lon="2.80065">
        <ele>110</ele>
        <time>2016-12-11T09:01:38.398Z</time>
      </trkpt>
      <trkpt lat="48.03216" lon="2.80069">
        <ele>109</ele>
        <time>2016-12-11T09:01:39.433Z</time>
      </trkpt>
      <trkpt lat="48.03217" lon="2.80073">
        <ele>109</ele>
        <time>2016-12-11T09:01:40.406Z</time>
      </trkpt>
      <trkpt lat="48.03217" lon="2.80073">
        <ele>109</ele>
        <time>2016-12-11T09:01:41.400Z</time>
      </trkpt>
      <trkpt lat="48.03217" lon="2.80081">
        <ele>108</ele>
        <time>2016-12-11T09:01:42.435Z</time>
      </trkpt>
      <trkpt lat="48.03217" lon="2.80081">
        <ele>108</ele>
        <time>2016-12-11T09:01:43.404Z</time>
      </trkpt>
      <trkpt lat="48.03217" lon="2.8009">
        <ele>106</ele>
        <time>2016-12-11T09:01:44.402Z</time>
      </trkpt>
      <trkpt lat="48.03217" lon="2.8009">
        <ele>106</ele>
        <time>2016-12-11T09:01:45.396Z</time>
      </trkpt>
      <trkpt lat="48.03219" lon="2.801">
        <ele>105</ele>
        <time>2016-12-11T09:01:46.414Z</time>
      </trkpt>
      <trkpt lat="48.03219" lon="2.801">
        <ele>105</ele>
        <time>2016-12-11T09:01:47.402Z</time>
      </trkpt>
      <trkpt lat="48.03219" lon="2.80111">
        <ele>105</ele>
        <time>2016-12-11T09:01:48.435Z</time>
      </trkpt>
      <trkpt lat="48.03219" lon="2.80111">
        <ele>105</ele>
        <time>2016-12-11T09:01:49.403Z</time>
      </trkpt>
      <trkpt lat="48.0322" lon="2.80122">
        <ele>104</ele>
        <time>2016-12-11T09:01:50.398Z</time>
      </trkpt>
      <trkpt lat="48.0322" lon="2.80122">
        <ele>104</ele>
        <time>2016-12-11T09:01:51.398Z</time>
      </trkpt>
      <trkpt lat="48.03221" lon="2.80132">
        <ele>102</ele>
        <time>2016-12-11T09:01:52.434Z</time>
      </trkpt>
      <trkpt lat="48.03221" lon="2.80137">
        <ele>101</ele>
        <time>2016-12-11T09:01:53.405Z</time>
      </trkpt>
      <trkpt lat="48.03222" lon="2.80142">
        <ele>101</ele>
        <time>2016-12-11T09:01:54.434Z</time>
      </trkpt>
      <trkpt lat="48.03222" lon="2.80142">
        <ele>101</ele>
        <time>2016-12-11T09:01:55.411Z</time>
      </trkpt>
      <trkpt lat="48.03222" lon="2.80152">
        <ele>101</ele>
        <time>2016-12-11T09:01:56.403Z</time>
      </trkpt>
      <trkpt lat="48.03222" lon="2.80152">
        <ele>101</ele>
        <time>2016-12-11T09:01:57.434Z</time>
      </trkpt>
      <trkpt lat="48.03228" lon="2.80161">
        <ele>106</ele>
        <time>2016-12-11T09:01:58.404Z</time>
      </trkpt>
      <trkpt lat="48.03228" lon="2.80161">
        <ele>106</ele>
        <time>2016-12-11T09:01:59.434Z</time>
      </trkpt>
      <trkpt lat="48.03235" lon="2.80164">
        <ele>109</ele>
        <time>2016-12-11T09:02:00.403Z</time>
      </trkpt>
      <trkpt lat="48.03235" lon="2.80164">
        <ele>109</ele>
        <time>2016-12-11T09:02:01.400Z</time>
      </trkpt>
      <trkpt lat="48.03241" lon="2.80165">
        <ele>109</ele>
        <time>2016-12-11T09:02:02.434Z</time>
      </trkpt>
      <trkpt lat="48.03241" lon="2.80165">
        <ele>109</ele>
        <time>2016-12-11T09:02:03.408Z</time>
      </trkpt>
      <trkpt lat="48.03249" lon="2.80165">
        <ele>112</ele>
        <time>2016-12-11T09:02:04.418Z</time>
      </trkpt>
      <trkpt lat="48.03249" lon="2.80165">
        <ele>112</ele>
        <time>2016-12-11T09:02:05.412Z</time>
      </trkpt>
      <trkpt lat="48.03258" lon="2.80164">
        <ele>113</ele>
        <time>2016-12-11T09:02:06.403Z</time>
      </trkpt>
      <trkpt lat="48.03258" lon="2.80164">
        <ele>113</ele>
        <time>2016-12-11T09:02:07.434Z</time>
      </trkpt>
      <trkpt lat="48.03266" lon="2.80163">
        <ele>114</ele>
        <time>2016-12-11T09:02:08.405Z</time>
      </trkpt>
      <trkpt lat="48.03266" lon="2.80163">
        <ele>114</ele>
        <time>2016-12-11T09:02:09.397Z</time>
      </trkpt>
      <trkpt lat="48.03274" lon="2.80163">
        <ele>116</ele>
        <time>2016-12-11T09:02:10.403Z</time>
      </trkpt>
      <trkpt lat="48.03274" lon="2.80163">
        <ele>116</ele>
        <time>2016-12-11T09:02:11.396Z</time>
      </trkpt>
      <trkpt lat="48.03282" lon="2.8016">
        <ele>119</ele>
        <time>2016-12-11T09:02:12.426Z</time>
      </trkpt>
      <trkpt lat="48.03282" lon="2.8016">
        <ele>119</ele>
        <time>2016-12-11T09:02:13.413Z</time>
      </trkpt>
      <trkpt lat="48.03292" lon="2.80158">
        <ele>119</ele>
        <time>2016-12-11T09:02:14.405Z</time>
      </trkpt>
      <trkpt lat="48.03292" lon="2.80158">
        <ele>119</ele>
        <time>2016-12-11T09:02:15.405Z</time>
      </trkpt>
      <trkpt lat="48.033" lon="2.80156">
        <ele>120</ele>
        <time>2016-12-11T09:02:16.403Z</time>
      </trkpt>
      <trkpt lat="48.03304" lon="2.80154">
        <ele>119</ele>
        <time>2016-12-11T09:02:17.430Z</time>
      </trkpt>
      <trkpt lat="48.03308" lon="2.80152">
        <ele>119</ele>
        <time>2016-12-11T09:02:18.398Z</time>
      </trkpt>
      <trkpt lat="48.03313" lon="2.80151">
        <ele>119</ele>
        <time>2016-12-11T09:02:19.400Z</time>
      </trkpt>
      <trkpt lat="48.03318" lon="2.80149">
        <ele>119</ele>
        <time>2016-12-11T09:02:20.428Z</time>
      </trkpt>
      <trkpt lat="48.03318" lon="2.80149">
        <ele>119</ele>
        <time>2016-12-11T09:02:21.400Z</time>
      </trkpt>
      <trkpt lat="48.03328" lon="2.80148">
        <ele>118</ele>
        <time>2016-12-11T09:02:22.409Z</time>
      </trkpt>
      <trkpt lat="48.03328" lon="2.80148">
        <ele>118</ele>
        <time>2016-12-11T09:02:23.397Z</time>
      </trkpt>
      <trkpt lat="48.03338" lon="2.80146">
        <ele>117</ele>
        <time>2016-12-11T09:02:24.399Z</time>
      </trkpt>
      <trkpt lat="48.03344" lon="2.80145">
        <ele>116</ele>
        <time>2016-12-11T09:02:25.433Z</time>
      </trkpt>
      <trkpt lat="48.03344" lon="2.80145">
        <ele>116</ele>
        <time>2016-12-11T09:02:26.400Z</time>
      </trkpt>
      <trkpt lat="48.03355" lon="2.80144">
        <ele>116</ele>
        <time>2016-12-11T09:02:27.401Z</time>
      </trkpt>
      <trkpt lat="48.0336" lon="2.80144">
        <ele>116</ele>
        <time>2016-12-11T09:02:28.399Z</time>
      </trkpt>
      <trkpt lat="48.0336" lon="2.80144">
        <ele>116</ele>
        <time>2016-12-11T09:02:29.428Z</time>
      </trkpt>
      <trkpt lat="48.03371" lon="2.80141">
        <ele>115</ele>
        <time>2016-12-11T09:02:30.435Z</time>
      </trkpt>
      <trkpt lat="48.03371" lon="2.80141">
        <ele>115</ele>
        <time>2016-12-11T09:02:31.405Z</time>
      </trkpt>
      <trkpt lat="48.03382" lon="2.80138">
        <ele>114</ele>
        <time>2016-12-11T09:02:32.398Z</time>
      </trkpt>
      <trkpt lat="48.03382" lon="2.80138">
        <ele>114</ele>
        <time>2016-12-11T09:02:33.428Z</time>
      </trkpt>
      <trkpt lat="48.03394" lon="2.80135">
        <ele>115</ele>
        <time>2016-12-11T09:02:34.434Z</time>
      </trkpt>
      <trkpt lat="48.03394" lon="2.80135">
        <ele>115</ele>
        <time>2016-12-11T09:02:35.406Z</time>
      </trkpt>
      <trkpt lat="48.03405" lon="2.80133">
        <ele>114</ele>
        <time>2016-12-11T09:02:36.401Z</time>
      </trkpt>
      <trkpt lat="48.03405" lon="2.80133">
        <ele>114</ele>
        <time>2016-12-11T09:02:37.434Z</time>
      </trkpt>
      <trkpt lat="48.03417" lon="2.80128">
        <ele>115</ele>
        <time>2016-12-11T09:02:38.408Z</time>
      </trkpt>
      <trkpt lat="48.03417" lon="2.80128">
        <ele>115</ele>
        <time>2016-12-11T09:02:39.396Z</time>
      </trkpt>
      <trkpt lat="48.03428" lon="2.80127">
        <ele>115</ele>
        <time>2016-12-11T09:02:40.425Z</time>
      </trkpt>
      <trkpt lat="48.03428" lon="2.80127">
        <ele>115</ele>
        <time>2016-12-11T09:02:41.412Z</time>
      </trkpt>
      <trkpt lat="48.0344" lon="2.80125">
        <ele>116</ele>
        <time>2016-12-11T09:02:42.401Z</time>
      </trkpt>
      <trkpt lat="48.03445" lon="2.80123">
        <ele>117</ele>
        <time>2016-12-11T09:02:43.434Z</time>
      </trkpt>
      <trkpt lat="48.0345" lon="2.80122">
        <ele>117</ele>
        <time>2016-12-11T09:02:44.406Z</time>
      </trkpt>
      <trkpt lat="48.0345" lon="2.80122">
        <ele>117</ele>
        <time>2016-12-11T09:02:45.400Z</time>
      </trkpt>
      <trkpt lat="48.03461" lon="2.80119">
        <ele>117</ele>
        <time>2016-12-11T09:02:46.421Z</time>
      </trkpt>
      <trkpt lat="48.03461" lon="2.80119">
        <ele>117</ele>
        <time>2016-12-11T09:02:47.410Z</time>
      </trkpt>
      <trkpt lat="48.03471" lon="2.80116">
        <ele>117</ele>
        <time>2016-12-11T09:02:48.414Z</time>
      </trkpt>
      <trkpt lat="48.03471" lon="2.80116">
        <ele>117</ele>
        <time>2016-12-11T09:02:49.402Z</time>
      </trkpt>
      <trkpt lat="48.03481" lon="2.80112">
        <ele>117</ele>
        <time>2016-12-11T09:02:50.406Z</time>
      </trkpt>
      <trkpt lat="48.03481" lon="2.80112">
        <ele>117</ele>
        <time>2016-12-11T09:02:51.400Z</time>
      </trkpt>
      <trkpt lat="48.03491" lon="2.80108">
        <ele>117</ele>
        <time>2016-12-11T09:02:52.398Z</time>
      </trkpt>
      <trkpt lat="48.03495" lon="2.80107">
        <ele>117</ele>
        <time>2016-12-11T09:02:53.397Z</time>
      </trkpt>
      <trkpt lat="48.03495" lon="2.80107">
        <ele>117</ele>
        <time>2016-12-11T09:02:54.428Z</time>
      </trkpt>
      <trkpt lat="48.03505" lon="2.80105">
        <ele>116</ele>
        <time>2016-12-11T09:02:55.435Z</time>
      </trkpt>
      <trkpt lat="48.0351" lon="2.80104">
        <ele>116</ele>
        <time>2016-12-11T09:02:56.422Z</time>
      </trkpt>
      <trkpt lat="48.0351" lon="2.80104">
        <ele>116</ele>
        <time>2016-12-11T09:02:57.414Z</time>
      </trkpt>
      <trkpt lat="48.03518" lon="2.80104">
        <ele>116</ele>
        <time>2016-12-11T09:02:58.403Z</time>
      </trkpt>
      <trkpt lat="48.0352" lon="2.80106">
        <ele>117</ele>
        <time>2016-12-11T09:02:59.401Z</time>
      </trkpt>
      <trkpt lat="48.0352" lon="2.80106">
        <ele>117</ele>
        <time>2016-12-11T09:03:00.429Z</time>
      </trkpt>
      <trkpt lat="48.03522" lon="2.80115">
        <ele>117</ele>
        <time>2016-12-11T09:03:01.396Z</time>
      </trkpt>
      <trkpt lat="48.03521" lon="2.80119">
        <ele>117</ele>
        <time>2016-12-11T09:03:02.434Z</time>
      </trkpt>
      <trkpt lat="48.03521" lon="2.80119">
        <ele>117</ele>
        <time>2016-12-11T09:03:03.399Z</time>
      </trkpt>
      <trkpt lat="48.03516" lon="2.80127">
        <ele>117</ele>
        <time>2016-12-11T09:03:04.407Z</time>
      </trkpt>
      <trkpt lat="48.03516" lon="2.80127">
        <ele>117</ele>
        <time>2016-12-11T09:03:05.435Z</time>
      </trkpt>
      <trkpt lat="48.03513" lon="2.80135">
        <ele>117</ele>
        <time>2016-12-11T09:03:06.407Z</time>
      </trkpt>
      <trkpt lat="48.03513" lon="2.80135">
        <ele>117</ele>
        <time>2016-12-11T09:03:07.396Z</time>
      </trkpt>
      <trkpt lat="48.03509" lon="2.80143">
        <ele>118</ele>
        <time>2016-12-11T09:03:08.424Z</time>
      </trkpt>
      <trkpt lat="48.03509" lon="2.80143">
        <ele>118</ele>
        <time>2016-12-11T09:03:09.412Z</time>
      </trkpt>
      <trkpt lat="48.03506" lon="2.80151">
        <ele>118</ele>
        <time>2016-12-11T09:03:10.410Z</time>
      </trkpt>
      <trkpt lat="48.03506" lon="2.80151">
        <ele>118</ele>
        <time>2016-12-11T09:03:11.400Z</time>
      </trkpt>
      <trkpt lat="48.03503" lon="2.8016">
        <ele>119</ele>
        <time>2016-12-11T09:03:12.399Z</time>
      </trkpt>
      <trkpt lat="48.03503" lon="2.8016">
        <ele>119</ele>
        <time>2016-12-11T09:03:13.428Z</time>
      </trkpt>
      <trkpt lat="48.03499" lon="2.80168">
        <ele>119</ele>
        <time>2016-12-11T09:03:14.418Z</time>
      </trkpt>
      <trkpt lat="48.03499" lon="2.80168">
        <ele>119</ele>
        <time>2016-12-11T09:03:15.405Z</time>
      </trkpt>
      <trkpt lat="48.03495" lon="2.80178">
        <ele>120</ele>
        <time>2016-12-11T09:03:16.425Z</time>
      </trkpt>
      <trkpt lat="48.03495" lon="2.80178">
        <ele>120</ele>
        <time>2016-12-11T09:03:17.428Z</time>
      </trkpt>
      <trkpt lat="48.03492" lon="2.80189">
        <ele>120</ele>
        <time>2016-12-11T09:03:18.420Z</time>
      </trkpt>
      <trkpt lat="48.03491" lon="2.80195">
        <ele>120</ele>
        <time>2016-12-11T09:03:19.427Z</time>
      </trkpt>
      <trkpt lat="48.03489" lon="2.80202">
        <ele>120</ele>
        <time>2016-12-11T09:03:20.434Z</time>
      </trkpt>
      <trkpt lat="48.03489" lon="2.80202">
        <ele>120</ele>
        <time>2016-12-11T09:03:21.402Z</time>
      </trkpt>
      <trkpt lat="48.03488" lon="2.80214">
        <ele>120</ele>
        <time>2016-12-11T09:03:22.435Z</time>
      </trkpt>
      <trkpt lat="48.03487" lon="2.80221">
        <ele>120</ele>
        <time>2016-12-11T09:03:23.401Z</time>
      </trkpt>
      <trkpt lat="48.03487" lon="2.80221">
        <ele>120</ele>
        <time>2016-12-11T09:03:24.435Z</time>
      </trkpt>
      <trkpt lat="48.03484" lon="2.80236">
        <ele>120</ele>
        <time>2016-12-11T09:03:25.413Z</time>
      </trkpt>
      <trkpt lat="48.03482" lon="2.80243">
        <ele>120</ele>
        <time>2016-12-11T09:03:26.413Z</time>
      </trkpt>
      <trkpt lat="48.03482" lon="2.80243">
        <ele>120</ele>
        <time>2016-12-11T09:03:27.401Z</time>
      </trkpt>
      <trkpt lat="48.0348" lon="2.80257">
        <ele>120</ele>
        <time>2016-12-11T09:03:28.400Z</time>
      </trkpt>
      <trkpt lat="48.0348" lon="2.80257">
        <ele>120</ele>
        <time>2016-12-11T09:03:29.429Z</time>
      </trkpt>
      <trkpt lat="48.03478" lon="2.8027">
        <ele>119</ele>
        <time>2016-12-11T09:03:30.435Z</time>
      </trkpt>
      <trkpt lat="48.03478" lon="2.8027">
        <ele>119</ele>
        <time>2016-12-11T09:03:31.405Z</time>
      </trkpt>
      <trkpt lat="48.03475" lon="2.80283">
        <ele>119</ele>
        <time>2016-12-11T09:03:32.408Z</time>
      </trkpt>
      <trkpt lat="48.03475" lon="2.80283">
        <ele>119</ele>
        <time>2016-12-11T09:03:33.435Z</time>
      </trkpt>
      <trkpt lat="48.03473" lon="2.80295">
        <ele>119</ele>
        <time>2016-12-11T09:03:34.410Z</time>
      </trkpt>
      <trkpt lat="48.03473" lon="2.80295">
        <ele>119</ele>
        <time>2016-12-11T09:03:35.398Z</time>
      </trkpt>
      <trkpt lat="48.0347" lon="2.80307">
        <ele>118</ele>
        <time>2016-12-11T09:03:36.397Z</time>
      </trkpt>
      <trkpt lat="48.0347" lon="2.80313">
        <ele>118</ele>
        <time>2016-12-11T09:03:37.425Z</time>
      </trkpt>
      <trkpt lat="48.0347" lon="2.80313">
        <ele>118</ele>
        <time>2016-12-11T09:03:38.414Z</time>
      </trkpt>
      <trkpt lat="48.03467" lon="2.80327">
        <ele>117</ele>
        <time>2016-12-11T09:03:39.419Z</time>
      </trkpt>
      <trkpt lat="48.03467" lon="2.80327">
        <ele>117</ele>
        <time>2016-12-11T09:03:40.407Z</time>
      </trkpt>
      <trkpt lat="48.03466" lon="2.80339">
        <ele>117</ele>
        <time>2016-12-11T09:03:41.408Z</time>
      </trkpt>
      <trkpt lat="48.03466" lon="2.80339">
        <ele>117</ele>
        <time>2016-12-11T09:03:42.409Z</time>
      </trkpt>
      <trkpt lat="48.03464" lon="2.80353">
        <ele>118</ele>
        <time>2016-12-11T09:03:43.399Z</time>
      </trkpt>
      <trkpt lat="48.03463" lon="2.8036">
        <ele>118</ele>
        <time>2016-12-11T09:03:44.397Z</time>
      </trkpt>
      <trkpt lat="48.03463" lon="2.8036">
        <ele>118</ele>
        <time>2016-12-11T09:03:45.428Z</time>
      </trkpt>
      <trkpt lat="48.03462" lon="2.80374">
        <ele>119</ele>
        <time>2016-12-11T09:03:46.420Z</time>
      </trkpt>
      <trkpt lat="48.03462" lon="2.80374">
        <ele>119</ele>
        <time>2016-12-11T09:03:47.415Z</time>
      </trkpt>
      <trkpt lat="48.03459" lon="2.80389">
        <ele>119</ele>
        <time>2016-12-11T09:03:48.404Z</time>
      </trkpt>
      <trkpt lat="48.03459" lon="2.80389">
        <ele>119</ele>
        <time>2016-12-11T09:03:49.434Z</time>
      </trkpt>
      <trkpt lat="48.03457" lon="2.80405">
        <ele>118</ele>
        <time>2016-12-11T09:03:50.399Z</time>
      </trkpt>
      <trkpt lat="48.03457" lon="2.80405">
        <ele>118</ele>
        <time>2016-12-11T09:03:51.428Z</time>
      </trkpt>
      <trkpt lat="48.03456" lon="2.8042">
        <ele>118</ele>
        <time>2016-12-11T09:03:52.397Z</time>
      </trkpt>
      <trkpt lat="48.03456" lon="2.8042">
        <ele>118</ele>
        <time>2016-12-11T09:03:53.428Z</time>
      </trkpt>
      <trkpt lat="48.03453" lon="2.80436">
        <ele>117</ele>
        <time>2016-12-11T09:03:54.435Z</time>
      </trkpt>
      <trkpt lat="48.03453" lon="2.80436">
        <ele>117</ele>
        <time>2016-12-11T09:03:55.404Z</time>
      </trkpt>
      <trkpt lat="48.03451" lon="2.80453">
        <ele>116</ele>
        <time>2016-12-11T09:03:56.400Z</time>
      </trkpt>
      <trkpt lat="48.03451" lon="2.80453">
        <ele>116</ele>
        <time>2016-12-11T09:03:57.428Z</time>
      </trkpt>
      <trkpt lat="48.03448" lon="2.80469">
        <ele>116</ele>
        <time>2016-12-11T09:03:58.435Z</time>
      </trkpt>
      <trkpt lat="48.03447" lon="2.80477">
        <ele>115</ele>
        <time>2016-12-11T09:03:59.410Z</time>
      </trkpt>
      <trkpt lat="48.03447" lon="2.80477">
        <ele>115</ele>
        <time>2016-12-11T09:04:00.398Z</time>
      </trkpt>
      <trkpt lat="48.03444" lon="2.80494">
        <ele>115</ele>
        <time>2016-12-11T09:04:01.405Z</time>
      </trkpt>
      <trkpt lat="48.03444" lon="2.80494">
        <ele>115</ele>
        <time>2016-12-11T09:04:02.400Z</time>
      </trkpt>
      <trkpt lat="48.03441" lon="2.8051">
        <ele>114</ele>
        <time>2016-12-11T09:04:03.435Z</time>
      </trkpt>
      <trkpt lat="48.03441" lon="2.8051">
        <ele>114</ele>
        <time>2016-12-11T09:04:04.404Z</time>
      </trkpt>
      <trkpt lat="48.03437" lon="2.80527">
        <ele>112</ele>
        <time>2016-12-11T09:04:05.399Z</time>
      </trkpt>
      <trkpt lat="48.03437" lon="2.80527">
        <ele>112</ele>
        <time>2016-12-11T09:04:06.430Z</time>
      </trkpt>
      <trkpt lat="48.03436" lon="2.80544">
        <ele>113</ele>
        <time>2016-12-11T09:04:07.415Z</time>
      </trkpt>
      <trkpt lat="48.03436" lon="2.80544">
        <ele>113</ele>
        <time>2016-12-11T09:04:08.402Z</time>
      </trkpt>
      <trkpt lat="48.03433" lon="2.80562">
        <ele>113</ele>
        <time>2016-12-11T09:04:09.398Z</time>
      </trkpt>
      <trkpt lat="48.03433" lon="2.80562">
        <ele>113</ele>
        <time>2016-12-11T09:04:10.428Z</time>
      </trkpt>
      <trkpt lat="48.03429" lon="2.80579">
        <ele>113</ele>
        <time>2016-12-11T09:04:11.408Z</time>
      </trkpt>
      <trkpt lat="48.03429" lon="2.80579">
        <ele>113</ele>
        <time>2016-12-11T09:04:12.396Z</time>
      </trkpt>
      <trkpt lat="48.03426" lon="2.80594">
        <ele>113</ele>
        <time>2016-12-11T09:04:13.424Z</time>
      </trkpt>
      <trkpt lat="48.03426" lon="2.80594">
        <ele>113</ele>
        <time>2016-12-11T09:04:14.412Z</time>
      </trkpt>
      <trkpt lat="48.03424" lon="2.80609">
        <ele>113</ele>
        <time>2016-12-11T09:04:15.409Z</time>
      </trkpt>
      <trkpt lat="48.03424" lon="2.80609">
        <ele>113</ele>
        <time>2016-12-11T09:04:16.397Z</time>
      </trkpt>
      <trkpt lat="48.03422" lon="2.80622">
        <ele>112</ele>
        <time>2016-12-11T09:04:17.418Z</time>
      </trkpt>
      <trkpt lat="48.03422" lon="2.80622">
        <ele>112</ele>
        <time>2016-12-11T09:04:18.435Z</time>
      </trkpt>
      <trkpt lat="48.0342" lon="2.80636">
        <ele>111</ele>
        <time>2016-12-11T09:04:19.401Z</time>
      </trkpt>
      <trkpt lat="48.03419" lon="2.80642">
        <ele>111</ele>
        <time>2016-12-11T09:04:20.407Z</time>
      </trkpt>
      <trkpt lat="48.03419" lon="2.80642">
        <ele>111</ele>
        <time>2016-12-11T09:04:21.396Z</time>
      </trkpt>
      <trkpt lat="48.03417" lon="2.80655">
        <ele>110</ele>
        <time>2016-12-11T09:04:22.400Z</time>
      </trkpt>
      <trkpt lat="48.03415" lon="2.80663">
        <ele>109</ele>
        <time>2016-12-11T09:04:23.434Z</time>
      </trkpt>
      <trkpt lat="48.03415" lon="2.80671">
        <ele>110</ele>
        <time>2016-12-11T09:04:24.406Z</time>
      </trkpt>
      <trkpt lat="48.03415" lon="2.80671">
        <ele>110</ele>
        <time>2016-12-11T09:04:25.435Z</time>
      </trkpt>
      <trkpt lat="48.03412" lon="2.80687">
        <ele>109</ele>
        <time>2016-12-11T09:04:26.410Z</time>
      </trkpt>
      <trkpt lat="48.03412" lon="2.80687">
        <ele>109</ele>
        <time>2016-12-11T09:04:27.396Z</time>
      </trkpt>
      <trkpt lat="48.03412" lon="2.80701">
        <ele>111</ele>
        <time>2016-12-11T09:04:28.426Z</time>
      </trkpt>
      <trkpt lat="48.03412" lon="2.80701">
        <ele>111</ele>
        <time>2016-12-11T09:04:29.414Z</time>
      </trkpt>
      <trkpt lat="48.03409" lon="2.80719">
        <ele>111</ele>
        <time>2016-12-11T09:04:30.420Z</time>
      </trkpt>
      <trkpt lat="48.03409" lon="2.80719">
        <ele>111</ele>
        <time>2016-12-11T09:04:31.426Z</time>
      </trkpt>
      <trkpt lat="48.03405" lon="2.80735">
        <ele>110</ele>
        <time>2016-12-11T09:04:32.432Z</time>
      </trkpt>
      <trkpt lat="48.03405" lon="2.80735">
        <ele>110</ele>
        <time>2016-12-11T09:04:33.398Z</time>
      </trkpt>
      <trkpt lat="48.03403" lon="2.80751">
        <ele>109</ele>
        <time>2016-12-11T09:04:34.435Z</time>
      </trkpt>
      <trkpt lat="48.03403" lon="2.80751">
        <ele>109</ele>
        <time>2016-12-11T09:04:35.403Z</time>
      </trkpt>
      <trkpt lat="48.03401" lon="2.80766">
        <ele>109</ele>
        <time>2016-12-11T09:04:36.402Z</time>
      </trkpt>
      <trkpt lat="48.03401" lon="2.80766">
        <ele>109</ele>
        <time>2016-12-11T09:04:37.398Z</time>
      </trkpt>
      <trkpt lat="48.03398" lon="2.80783">
        <ele>109</ele>
        <time>2016-12-11T09:04:38.407Z</time>
      </trkpt>
      <trkpt lat="48.03398" lon="2.80783">
        <ele>109</ele>
        <time>2016-12-11T09:04:39.397Z</time>
      </trkpt>
      <trkpt lat="48.03396" lon="2.808">
        <ele>109</ele>
        <time>2016-12-11T09:04:40.427Z</time>
      </trkpt>
      <trkpt lat="48.03396" lon="2.808">
        <ele>109</ele>
        <time>2016-12-11T09:04:41.396Z</time>
      </trkpt>
      <trkpt lat="48.03393" lon="2.80815">
        <ele>108</ele>
        <time>2016-12-11T09:04:42.426Z</time>
      </trkpt>
      <trkpt lat="48.03393" lon="2.80815">
        <ele>108</ele>
        <time>2016-12-11T09:04:43.413Z</time>
      </trkpt>
      <trkpt lat="48.03391" lon="2.80831">
        <ele>108</ele>
        <time>2016-12-11T09:04:44.401Z</time>
      </trkpt>
      <trkpt lat="48.03391" lon="2.80831">
        <ele>108</ele>
        <time>2016-12-11T09:04:45.430Z</time>
      </trkpt>
      <trkpt lat="48.0339" lon="2.80845">
        <ele>108</ele>
        <time>2016-12-11T09:04:46.396Z</time>
      </trkpt>
      <trkpt lat="48.03389" lon="2.80852">
        <ele>108</ele>
        <time>2016-12-11T09:04:47.410Z</time>
      </trkpt>
      <trkpt lat="48.03389" lon="2.80852">
        <ele>108</ele>
        <time>2016-12-11T09:04:48.398Z</time>
      </trkpt>
      <trkpt lat="48.03387" lon="2.80868">
        <ele>109</ele>
        <time>2016-12-11T09:04:49.399Z</time>
      </trkpt>
      <trkpt lat="48.03385" lon="2.80875">
        <ele>109</ele>
        <time>2016-12-11T09:04:50.399Z</time>
      </trkpt>
      <trkpt lat="48.03384" lon="2.80881">
        <ele>109</ele>
        <time>2016-12-11T09:04:51.428Z</time>
      </trkpt>
      <trkpt lat="48.03384" lon="2.80881">
        <ele>109</ele>
        <time>2016-12-11T09:04:52.416Z</time>
      </trkpt>
      <trkpt lat="48.03382" lon="2.80896">
        <ele>108</ele>
        <time>2016-12-11T09:04:53.407Z</time>
      </trkpt>
      <trkpt lat="48.03382" lon="2.80896">
        <ele>108</ele>
        <time>2016-12-11T09:04:54.396Z</time>
      </trkpt>
      <trkpt lat="48.0338" lon="2.8091">
        <ele>107</ele>
        <time>2016-12-11T09:04:55.399Z</time>
      </trkpt>
      <trkpt lat="48.03378" lon="2.80916">
        <ele>107</ele>
        <time>2016-12-11T09:04:56.435Z</time>
      </trkpt>
      <trkpt lat="48.03378" lon="2.80916">
        <ele>107</ele>
        <time>2016-12-11T09:04:57.402Z</time>
      </trkpt>
      <trkpt lat="48.03375" lon="2.80929">
        <ele>108</ele>
        <time>2016-12-11T09:04:58.407Z</time>
      </trkpt>
      <trkpt lat="48.03375" lon="2.80929">
        <ele>108</ele>
        <time>2016-12-11T09:04:59.397Z</time>
      </trkpt>
      <trkpt lat="48.03374" lon="2.80942">
        <ele>108</ele>
        <time>2016-12-11T09:05:00.396Z</time>
      </trkpt>
      <trkpt lat="48.03373" lon="2.80949">
        <ele>109</ele>
        <time>2016-12-11T09:05:01.425Z</time>
      </trkpt>
      <trkpt lat="48.03373" lon="2.80949">
        <ele>109</ele>
        <time>2016-12-11T09:05:02.413Z</time>
      </trkpt>
      <trkpt lat="48.03378" lon="2.80959">
        <ele>110</ele>
        <time>2016-12-11T09:05:03.411Z</time>
      </trkpt>
      <trkpt lat="48.03382" lon="2.80964">
        <ele>111</ele>
        <time>2016-12-11T09:05:04.410Z</time>
      </trkpt>
      <trkpt lat="48.03382" lon="2.80964">
        <ele>111</ele>
        <time>2016-12-11T09:05:05.397Z</time>
      </trkpt>
      <trkpt lat="48.03393" lon="2.80969">
        <ele>113</ele>
        <time>2016-12-11T09:05:06.396Z</time>
      </trkpt>
      <trkpt lat="48.03393" lon="2.80969">
        <ele>113</ele>
        <time>2016-12-11T09:05:07.429Z</time>
      </trkpt>
      <trkpt lat="48.034" lon="2.80971">
        <ele>114</ele>
        <time>2016-12-11T09:05:08.396Z</time>
      </trkpt>
      <trkpt lat="48.034" lon="2.80971">
        <ele>114</ele>
        <time>2016-12-11T09:05:09.428Z</time>
      </trkpt>
      <trkpt lat="48.03407" lon="2.80964">
        <ele>113</ele>
        <time>2016-12-11T09:05:10.418Z</time>
      </trkpt>
      <trkpt lat="48.03407" lon="2.80964">
        <ele>113</ele>
        <time>2016-12-11T09:05:11.405Z</time>
      </trkpt>
      <trkpt lat="48.03414" lon="2.80956">
        <ele>113</ele>
        <time>2016-12-11T09:05:12.396Z</time>
      </trkpt>
      <trkpt lat="48.03418" lon="2.80952">
        <ele>113</ele>
        <time>2016-12-11T09:05:13.424Z</time>
      </trkpt>
      <trkpt lat="48.03418" lon="2.80952">
        <ele>113</ele>
        <time>2016-12-11T09:05:14.411Z</time>
      </trkpt>
      <trkpt lat="48.03426" lon="2.80943">
        <ele>113</ele>
        <time>2016-12-11T09:05:15.399Z</time>
      </trkpt>
      <trkpt lat="48.0343" lon="2.80938">
        <ele>113</ele>
        <time>2016-12-11T09:05:16.427Z</time>
      </trkpt>
      <trkpt lat="48.0343" lon="2.80938">
        <ele>113</ele>
        <time>2016-12-11T09:05:17.415Z</time>
      </trkpt>
      <trkpt lat="48.03437" lon="2.80928">
        <ele>114</ele>
        <time>2016-12-11T09:05:18.409Z</time>
      </trkpt>
      <trkpt lat="48.03441" lon="2.80923">
        <ele>114</ele>
        <time>2016-12-11T09:05:19.415Z</time>
      </trkpt>
      <trkpt lat="48.03441" lon="2.80923">
        <ele>114</ele>
        <time>2016-12-11T09:05:20.420Z</time>
      </trkpt>
      <trkpt lat="48.0345" lon="2.80916">
        <ele>114</ele>
        <time>2016-12-11T09:05:21.410Z</time>
      </trkpt>
      <trkpt lat="48.0345" lon="2.80916">
        <ele>114</ele>
        <time>2016-12-11T09:05:22.405Z</time>
      </trkpt>
      <trkpt lat="48.03459" lon="2.80907">
        <ele>115</ele>
        <time>2016-12-11T09:05:23.402Z</time>
      </trkpt>
      <trkpt lat="48.03459" lon="2.80907">
        <ele>115</ele>
        <time>2016-12-11T09:05:24.396Z</time>
      </trkpt>
      <trkpt lat="48.03466" lon="2.80898">
        <ele>115</ele>
        <time>2016-12-11T09:05:25.398Z</time>
      </trkpt>
      <trkpt lat="48.03469" lon="2.80894">
        <ele>115</ele>
        <time>2016-12-11T09:05:26.401Z</time>
      </trkpt>
      <trkpt lat="48.03469" lon="2.80894">
        <ele>115</ele>
        <time>2016-12-11T09:05:27.434Z</time>
      </trkpt>
      <trkpt lat="48.03477" lon="2.80886">
        <ele>116</ele>
        <time>2016-12-11T09:05:28.405Z</time>
      </trkpt>
      <trkpt lat="48.03477" lon="2.80886">
        <ele>116</ele>
        <time>2016-12-11T09:05:29.435Z</time>
      </trkpt>
      <trkpt lat="48.03484" lon="2.80878">
        <ele>116</ele>
        <time>2016-12-11T09:05:30.408Z</time>
      </trkpt>
      <trkpt lat="48.03488" lon="2.80874">
        <ele>116</ele>
        <time>2016-12-11T09:05:31.402Z</time>
      </trkpt>
      <trkpt lat="48.03492" lon="2.8087">
        <ele>116</ele>
        <time>2016-12-11T09:05:32.405Z</time>
      </trkpt>
      <trkpt lat="48.03492" lon="2.8087">
        <ele>116</ele>
        <time>2016-12-11T09:05:33.435Z</time>
      </trkpt>
      <trkpt lat="48.03501" lon="2.8086">
        <ele>116</ele>
        <time>2016-12-11T09:05:34.410Z</time>
      </trkpt>
      <trkpt lat="48.03501" lon="2.8086">
        <ele>116</ele>
        <time>2016-12-11T09:05:35.398Z</time>
      </trkpt>
      <trkpt lat="48.03509" lon="2.80851">
        <ele>117</ele>
        <time>2016-12-11T09:05:36.402Z</time>
      </trkpt>
      <trkpt lat="48.03509" lon="2.80851">
        <ele>117</ele>
        <time>2016-12-11T09:05:37.398Z</time>
      </trkpt>
      <trkpt lat="48.03516" lon="2.80843">
        <ele>118</ele>
        <time>2016-12-11T09:05:38.426Z</time>
      </trkpt>
      <trkpt lat="48.03516" lon="2.80843">
        <ele>118</ele>
        <time>2016-12-11T09:05:39.416Z</time>
      </trkpt>
      <trkpt lat="48.0352" lon="2.80837">
        <ele>118</ele>
        <time>2016-12-11T09:05:40.412Z</time>
      </trkpt>
      <trkpt lat="48.0352" lon="2.80837">
        <ele>118</ele>
        <time>2016-12-11T09:05:41.401Z</time>
      </trkpt>
      <trkpt lat="48.03526" lon="2.8083">
        <ele>118</ele>
        <time>2016-12-11T09:05:42.408Z</time>
      </trkpt>
      <trkpt lat="48.03526" lon="2.8083">
        <ele>118</ele>
        <time>2016-12-11T09:05:43.396Z</time>
      </trkpt>
      <trkpt lat="48.03534" lon="2.80821">
        <ele>119</ele>
        <time>2016-12-11T09:05:44.424Z</time>
      </trkpt>
      <trkpt lat="48.03534" lon="2.80821">
        <ele>119</ele>
        <time>2016-12-11T09:05:45.412Z</time>
      </trkpt>
      <trkpt lat="48.03541" lon="2.80812">
        <ele>119</ele>
        <time>2016-12-11T09:05:46.401Z</time>
      </trkpt>
      <trkpt lat="48.03544" lon="2.80807">
        <ele>119</ele>
        <time>2016-12-11T09:05:47.419Z</time>
      </trkpt>
      <trkpt lat="48.03544" lon="2.80807">
        <ele>119</ele>
        <time>2016-12-11T09:05:48.408Z</time>
      </trkpt>
      <trkpt lat="48.03553" lon="2.80797">
        <ele>118</ele>
        <time>2016-12-11T09:05:49.407Z</time>
      </trkpt>
      <trkpt lat="48.03557" lon="2.80792">
        <ele>118</ele>
        <time>2016-12-11T09:05:50.410Z</time>
      </trkpt>
      <trkpt lat="48.03557" lon="2.80792">
        <ele>118</ele>
        <time>2016-12-11T09:05:51.401Z</time>
      </trkpt>
      <trkpt lat="48.03567" lon="2.80781">
        <ele>117</ele>
        <time>2016-12-11T09:05:52.397Z</time>
      </trkpt>
      <trkpt lat="48.03572" lon="2.80776">
        <ele>117</ele>
        <time>2016-12-11T09:05:53.397Z</time>
      </trkpt>
      <trkpt lat="48.03572" lon="2.80776">
        <ele>117</ele>
        <time>2016-12-11T09:05:54.429Z</time>
      </trkpt>
      <trkpt lat="48.03581" lon="2.80767">
        <ele>117</ele>
        <time>2016-12-11T09:05:55.397Z</time>
      </trkpt>
      <trkpt lat="48.03588" lon="2.8076">
        <ele>117</ele>
        <time>2016-12-11T09:05:56.426Z</time>
      </trkpt>
      <trkpt lat="48.03588" lon="2.8076">
        <ele>117</ele>
        <time>2016-12-11T09:05:57.416Z</time>
      </trkpt>
      <trkpt lat="48.03597" lon="2.80749">
        <ele>117</ele>
        <time>2016-12-11T09:05:58.397Z</time>
      </trkpt>
      <trkpt lat="48.03603" lon="2.80743">
        <ele>117</ele>
        <time>2016-12-11T09:05:59.398Z</time>
      </trkpt>
      <trkpt lat="48.03603" lon="2.80743">
        <ele>117</ele>
        <time>2016-12-11T09:06:00.429Z</time>
      </trkpt>
      <trkpt lat="48.03612" lon="2.80732">
        <ele>117</ele>
        <time>2016-12-11T09:06:01.435Z</time>
      </trkpt>
      <trkpt lat="48.03616" lon="2.80727">
        <ele>118</ele>
        <time>2016-12-11T09:06:02.411Z</time>
      </trkpt>
      <trkpt lat="48.03616" lon="2.80727">
        <ele>118</ele>
        <time>2016-12-11T09:06:03.399Z</time>
      </trkpt>
      <trkpt lat="48.03623" lon="2.80719">
        <ele>117</ele>
        <time>2016-12-11T09:06:04.427Z</time>
      </trkpt>
      <trkpt lat="48.03623" lon="2.80719">
        <ele>117</ele>
        <time>2016-12-11T09:06:05.415Z</time>
      </trkpt>
      <trkpt lat="48.03629" lon="2.80715">
        <ele>117</ele>
        <time>2016-12-11T09:06:06.404Z</time>
      </trkpt>
      <trkpt lat="48.03631" lon="2.80715">
        <ele>117</ele>
        <time>2016-12-11T09:06:07.406Z</time>
      </trkpt>
      <trkpt lat="48.03633" lon="2.80715">
        <ele>117</ele>
        <time>2016-12-11T09:06:08.397Z</time>
      </trkpt>
      <trkpt lat="48.03636" lon="2.80715">
        <ele>116</ele>
        <time>2016-12-11T09:06:09.425Z</time>
      </trkpt>
      <trkpt lat="48.03636" lon="2.80715">
        <ele>116</ele>
        <time>2016-12-11T09:06:10.413Z</time>
      </trkpt>
      <trkpt lat="48.03643" lon="2.80715">
        <ele>116</ele>
        <time>2016-12-11T09:06:11.405Z</time>
      </trkpt>
      <trkpt lat="48.03643" lon="2.80715">
        <ele>116</ele>
        <time>2016-12-11T09:06:12.400Z</time>
      </trkpt>
      <trkpt lat="48.03655" lon="2.80718">
        <ele>118</ele>
        <time>2016-12-11T09:06:13.435Z</time>
      </trkpt>
      <trkpt lat="48.0366" lon="2.8072">
        <ele>117</ele>
        <time>2016-12-11T09:06:14.405Z</time>
      </trkpt>
      <trkpt lat="48.0366" lon="2.8072">
        <ele>117</ele>
        <time>2016-12-11T09:06:15.435Z</time>
      </trkpt>
      <trkpt lat="48.0367" lon="2.80723">
        <ele>117</ele>
        <time>2016-12-11T09:06:16.420Z</time>
      </trkpt>
      <trkpt lat="48.0367" lon="2.80723">
        <ele>117</ele>
        <time>2016-12-11T09:06:17.433Z</time>
      </trkpt>
      <trkpt lat="48.03681" lon="2.80726">
        <ele>117</ele>
        <time>2016-12-11T09:06:18.414Z</time>
      </trkpt>
      <trkpt lat="48.03681" lon="2.80726">
        <ele>117</ele>
        <time>2016-12-11T09:06:19.405Z</time>
      </trkpt>
      <trkpt lat="48.03691" lon="2.80725">
        <ele>116</ele>
        <time>2016-12-11T09:06:20.398Z</time>
      </trkpt>
      <trkpt lat="48.03695" lon="2.8072">
        <ele>115</ele>
        <time>2016-12-11T09:06:21.397Z</time>
      </trkpt>
      <trkpt lat="48.03699" lon="2.80717">
        <ele>115</ele>
        <time>2016-12-11T09:06:22.406Z</time>
      </trkpt>
      <trkpt lat="48.03699" lon="2.80717">
        <ele>115</ele>
        <time>2016-12-11T09:06:23.435Z</time>
      </trkpt>
      <trkpt lat="48.03708" lon="2.8071">
        <ele>113</ele>
        <time>2016-12-11T09:06:24.410Z</time>
      </trkpt>
      <trkpt lat="48.03713" lon="2.80707">
        <ele>112</ele>
        <time>2016-12-11T09:06:25.412Z</time>
      </trkpt>
      <trkpt lat="48.03713" lon="2.80707">
        <ele>112</ele>
        <time>2016-12-11T09:06:26.400Z</time>
      </trkpt>
      <trkpt lat="48.03721" lon="2.80697">
        <ele>112</ele>
        <time>2016-12-11T09:06:27.411Z</time>
      </trkpt>
      <trkpt lat="48.03725" lon="2.80692">
        <ele>112</ele>
        <time>2016-12-11T09:06:28.397Z</time>
      </trkpt>
      <trkpt lat="48.03725" lon="2.80692">
        <ele>112</ele>
        <time>2016-12-11T09:06:29.427Z</time>
      </trkpt>
      <trkpt lat="48.03734" lon="2.80682">
        <ele>111</ele>
        <time>2016-12-11T09:06:30.417Z</time>
      </trkpt>
      <trkpt lat="48.03738" lon="2.80678">
        <ele>111</ele>
        <time>2016-12-11T09:06:31.409Z</time>
      </trkpt>
      <trkpt lat="48.03742" lon="2.80673">
        <ele>111</ele>
        <time>2016-12-11T09:06:32.399Z</time>
      </trkpt>
      <trkpt lat="48.03742" lon="2.80673">
        <ele>111</ele>
        <time>2016-12-11T09:06:33.428Z</time>
      </trkpt>
      <trkpt lat="48.0375" lon="2.80665">
        <ele>110</ele>
        <time>2016-12-11T09:06:34.417Z</time>
      </trkpt>
      <trkpt lat="48.0375" lon="2.80665">
        <ele>110</ele>
        <time>2016-12-11T09:06:35.408Z</time>
      </trkpt>
      <trkpt lat="48.03759" lon="2.80655">
        <ele>110</ele>
        <time>2016-12-11T09:06:36.403Z</time>
      </trkpt>
      <trkpt lat="48.03759" lon="2.80655">
        <ele>110</ele>
        <time>2016-12-11T09:06:37.436Z</time>
      </trkpt>
      <trkpt lat="48.03769" lon="2.80645">
        <ele>109</ele>
        <time>2016-12-11T09:06:38.419Z</time>
      </trkpt>
      <trkpt lat="48.03769" lon="2.80645">
        <ele>109</ele>
        <time>2016-12-11T09:06:39.408Z</time>
      </trkpt>
      <trkpt lat="48.03779" lon="2.80634">
        <ele>109</ele>
        <time>2016-12-11T09:06:40.410Z</time>
      </trkpt>
      <trkpt lat="48.03779" lon="2.80634">
        <ele>109</ele>
        <time>2016-12-11T09:06:41.401Z</time>
      </trkpt>
      <trkpt lat="48.0379" lon="2.80623">
        <ele>109</ele>
        <time>2016-12-11T09:06:42.408Z</time>
      </trkpt>
      <trkpt lat="48.0379" lon="2.80623">
        <ele>109</ele>
        <time>2016-12-11T09:06:43.435Z</time>
      </trkpt>
      <trkpt lat="48.038" lon="2.80618">
        <ele>109</ele>
        <time>2016-12-11T09:06:44.409Z</time>
      </trkpt>
      <trkpt lat="48.038" lon="2.80618">
        <ele>109</ele>
        <time>2016-12-11T09:06:45.397Z</time>
      </trkpt>
      <trkpt lat="48.03809" lon="2.80622">
        <ele>109</ele>
        <time>2016-12-11T09:06:46.424Z</time>
      </trkpt>
      <trkpt lat="48.03809" lon="2.80622">
        <ele>109</ele>
        <time>2016-12-11T09:06:47.397Z</time>
      </trkpt>
      <trkpt lat="48.03818" lon="2.80625">
        <ele>109</ele>
        <time>2016-12-11T09:06:48.429Z</time>
      </trkpt>
      <trkpt lat="48.03823" lon="2.80627">
        <ele>109</ele>
        <time>2016-12-11T09:06:49.396Z</time>
      </trkpt>
      <trkpt lat="48.03827" lon="2.80627">
        <ele>109</ele>
        <time>2016-12-11T09:06:50.427Z</time>
      </trkpt>
      <trkpt lat="48.03827" lon="2.80627">
        <ele>109</ele>
        <time>2016-12-11T09:06:51.427Z</time>
      </trkpt>
      <trkpt lat="48.03836" lon="2.80626">
        <ele>109</ele>
        <time>2016-12-11T09:06:52.423Z</time>
      </trkpt>
      <trkpt lat="48.03836" lon="2.80626">
        <ele>109</ele>
        <time>2016-12-11T09:06:53.411Z</time>
      </trkpt>
      <trkpt lat="48.03842" lon="2.80624">
        <ele>110</ele>
        <time>2016-12-11T09:06:54.403Z</time>
      </trkpt>
      <trkpt lat="48.03845" lon="2.80624">
        <ele>110</ele>
        <time>2016-12-11T09:06:55.398Z</time>
      </trkpt>
      <trkpt lat="48.03847" lon="2.80624">
        <ele>111</ele>
        <time>2016-12-11T09:06:56.435Z</time>
      </trkpt>
      <trkpt lat="48.03847" lon="2.80624">
        <ele>111</ele>
        <time>2016-12-11T09:06:57.404Z</time>
      </trkpt>
      <trkpt lat="48.03851" lon="2.80624">
        <ele>111</ele>
        <time>2016-12-11T09:06:58.408Z</time>
      </trkpt>
      <trkpt lat="48.03851" lon="2.80624">
        <ele>111</ele>
        <time>2016-12-11T09:06:59.396Z</time>
      </trkpt>
      <trkpt lat="48.03856" lon="2.80622">
        <ele>112</ele>
        <time>2016-12-11T09:07:00.397Z</time>
      </trkpt>
      <trkpt lat="48.03856" lon="2.80622">
        <ele>112</ele>
        <time>2016-12-11T09:07:01.435Z</time>
      </trkpt>
      <trkpt lat="48.03861" lon="2.8062">
        <ele>112</ele>
        <time>2016-12-11T09:07:02.408Z</time>
      </trkpt>
      <trkpt lat="48.03861" lon="2.8062">
        <ele>112</ele>
        <time>2016-12-11T09:07:03.396Z</time>
      </trkpt>
      <trkpt lat="48.03867" lon="2.80618">
        <ele>112</ele>
        <time>2016-12-11T09:07:04.424Z</time>
      </trkpt>
      <trkpt lat="48.03867" lon="2.80618">
        <ele>112</ele>
        <time>2016-12-11T09:07:05.412Z</time>
      </trkpt>
      <trkpt lat="48.03874" lon="2.80618">
        <ele>112</ele>
        <time>2016-12-11T09:07:06.402Z</time>
      </trkpt>
      <trkpt lat="48.03878" lon="2.80618">
        <ele>113</ele>
        <time>2016-12-11T09:07:07.403Z</time>
      </trkpt>
      <trkpt lat="48.03881" lon="2.80621">
        <ele>112</ele>
        <time>2016-12-11T09:07:08.397Z</time>
      </trkpt>
      <trkpt lat="48.03881" lon="2.80621">
        <ele>112</ele>
        <time>2016-12-11T09:07:09.426Z</time>
      </trkpt>
      <trkpt lat="48.03885" lon="2.8063">
        <ele>111</ele>
        <time>2016-12-11T09:07:10.415Z</time>
      </trkpt>
      <trkpt lat="48.03885" lon="2.8063">
        <ele>111</ele>
        <time>2016-12-11T09:07:11.406Z</time>
      </trkpt>
      <trkpt lat="48.03887" lon="2.80643">
        <ele>110</ele>
        <time>2016-12-11T09:07:12.397Z</time>
      </trkpt>
      <trkpt lat="48.03888" lon="2.8065">
        <ele>108</ele>
        <time>2016-12-11T09:07:13.435Z</time>
      </trkpt>
      <trkpt lat="48.03888" lon="2.8065">
        <ele>108</ele>
        <time>2016-12-11T09:07:14.405Z</time>
      </trkpt>
      <trkpt lat="48.03894" lon="2.80667">
        <ele>108</ele>
        <time>2016-12-11T09:07:15.399Z</time>
      </trkpt>
      <trkpt lat="48.03896" lon="2.80677">
        <ele>107</ele>
        <time>2016-12-11T09:07:16.429Z</time>
      </trkpt>
      <trkpt lat="48.03896" lon="2.80677">
        <ele>107</ele>
        <time>2016-12-11T09:07:17.431Z</time>
      </trkpt>
      <trkpt lat="48.03901" lon="2.80697">
        <ele>106</ele>
        <time>2016-12-11T09:07:18.432Z</time>
      </trkpt>
      <trkpt lat="48.03901" lon="2.80697">
        <ele>106</ele>
        <time>2016-12-11T09:07:19.398Z</time>
      </trkpt>
      <trkpt lat="48.03905" lon="2.80721">
        <ele>104</ele>
        <time>2016-12-11T09:07:20.404Z</time>
      </trkpt>
      <trkpt lat="48.03907" lon="2.80732">
        <ele>103</ele>
        <time>2016-12-11T09:07:21.396Z</time>
      </trkpt>
      <trkpt lat="48.03909" lon="2.80743">
        <ele>102</ele>
        <time>2016-12-11T09:07:22.425Z</time>
      </trkpt>
      <trkpt lat="48.03909" lon="2.80743">
        <ele>102</ele>
        <time>2016-12-11T09:07:23.413Z</time>
      </trkpt>
      <trkpt lat="48.03916" lon="2.80765">
        <ele>100</ele>
        <time>2016-12-11T09:07:24.411Z</time>
      </trkpt>
      <trkpt lat="48.03916" lon="2.80765">
        <ele>100</ele>
        <time>2016-12-11T09:07:25.399Z</time>
      </trkpt>
      <trkpt lat="48.03921" lon="2.8079">
        <ele>99</ele>
        <time>2016-12-11T09:07:26.429Z</time>
      </trkpt>
      <trkpt lat="48.03921" lon="2.8079">
        <ele>99</ele>
        <time>2016-12-11T09:07:27.436Z</time>
      </trkpt>
      <trkpt lat="48.03928" lon="2.80816">
        <ele>97</ele>
        <time>2016-12-11T09:07:28.411Z</time>
      </trkpt>
      <trkpt lat="48.03928" lon="2.80816">
        <ele>97</ele>
        <time>2016-12-11T09:07:29.401Z</time>
      </trkpt>
      <trkpt lat="48.03933" lon="2.80845">
        <ele>95</ele>
        <time>2016-12-11T09:07:30.428Z</time>
      </trkpt>
      <trkpt lat="48.03933" lon="2.80845">
        <ele>95</ele>
        <time>2016-12-11T09:07:31.426Z</time>
      </trkpt>
      <trkpt lat="48.03938" lon="2.80872">
        <ele>94</ele>
        <time>2016-12-11T09:07:32.416Z</time>
      </trkpt>
      <trkpt lat="48.03938" lon="2.80872">
        <ele>94</ele>
        <time>2016-12-11T09:07:33.404Z</time>
      </trkpt>
      <trkpt lat="48.03943" lon="2.80899">
        <ele>92</ele>
        <time>2016-12-11T09:07:34.397Z</time>
      </trkpt>
      <trkpt lat="48.03945" lon="2.80911">
        <ele>92</ele>
        <time>2016-12-11T09:07:35.425Z</time>
      </trkpt>
      <trkpt lat="48.03945" lon="2.80911">
        <ele>92</ele>
        <time>2016-12-11T09:07:36.416Z</time>
      </trkpt>
      <trkpt lat="48.03947" lon="2.80931">
        <ele>90</ele>
        <time>2016-12-11T09:07:37.405Z</time>
      </trkpt>
      <trkpt lat="48.03949" lon="2.80941">
        <ele>90</ele>
        <time>2016-12-11T09:07:38.405Z</time>
      </trkpt>
      <trkpt lat="48.03949" lon="2.80941">
        <ele>90</ele>
        <time>2016-12-11T09:07:39.436Z</time>
      </trkpt>
      <trkpt lat="48.03953" lon="2.80958">
        <ele>90</ele>
        <time>2016-12-11T09:07:40.409Z</time>
      </trkpt>
      <trkpt lat="48.03953" lon="2.80958">
        <ele>90</ele>
        <time>2016-12-11T09:07:41.397Z</time>
      </trkpt>
      <trkpt lat="48.03955" lon="2.80974">
        <ele>89</ele>
        <time>2016-12-11T09:07:42.397Z</time>
      </trkpt>
      <trkpt lat="48.03955" lon="2.80974">
        <ele>89</ele>
        <time>2016-12-11T09:07:43.428Z</time>
      </trkpt>
      <trkpt lat="48.03958" lon="2.80989">
        <ele>89</ele>
        <time>2016-12-11T09:07:44.419Z</time>
      </trkpt>
      <trkpt lat="48.03958" lon="2.80989">
        <ele>89</ele>
        <time>2016-12-11T09:07:45.407Z</time>
      </trkpt>
      <trkpt lat="48.0396" lon="2.81003">
        <ele>88</ele>
        <time>2016-12-11T09:07:46.398Z</time>
      </trkpt>
      <trkpt lat="48.03961" lon="2.8101">
        <ele>88</ele>
        <time>2016-12-11T09:07:47.398Z</time>
      </trkpt>
      <trkpt lat="48.03961" lon="2.8101">
        <ele>88</ele>
        <time>2016-12-11T09:07:48.428Z</time>
      </trkpt>
      <trkpt lat="48.03963" lon="2.81022">
        <ele>87</ele>
        <time>2016-12-11T09:07:49.408Z</time>
      </trkpt>
      <trkpt lat="48.03963" lon="2.81026">
        <ele>87</ele>
        <time>2016-12-11T09:07:50.403Z</time>
      </trkpt>
      <trkpt lat="48.03963" lon="2.81026">
        <ele>87</ele>
        <time>2016-12-11T09:07:51.396Z</time>
      </trkpt>
      <trkpt lat="48.03966" lon="2.81035">
        <ele>86</ele>
        <time>2016-12-11T09:07:52.425Z</time>
      </trkpt>
      <trkpt lat="48.03967" lon="2.8104">
        <ele>86</ele>
        <time>2016-12-11T09:07:53.418Z</time>
      </trkpt>
      <trkpt lat="48.03967" lon="2.8104">
        <ele>86</ele>
        <time>2016-12-11T09:07:54.407Z</time>
      </trkpt>
      <trkpt lat="48.03968" lon="2.81047">
        <ele>87</ele>
        <time>2016-12-11T09:07:55.400Z</time>
      </trkpt>
      <trkpt lat="48.0397" lon="2.8105">
        <ele>87</ele>
        <time>2016-12-11T09:07:56.396Z</time>
      </trkpt>
      <trkpt lat="48.03971" lon="2.81054">
        <ele>87</ele>
        <time>2016-12-11T09:07:57.425Z</time>
      </trkpt>
      <trkpt lat="48.03971" lon="2.81054">
        <ele>87</ele>
        <time>2016-12-11T09:07:58.413Z</time>
      </trkpt>
      <trkpt lat="48.03973" lon="2.81062">
        <ele>88</ele>
        <time>2016-12-11T09:07:59.403Z</time>
      </trkpt>
      <trkpt lat="48.03974" lon="2.81065">
        <ele>89</ele>
        <time>2016-12-11T09:08:00.403Z</time>
      </trkpt>
      <trkpt lat="48.03974" lon="2.81065">
        <ele>89</ele>
        <time>2016-12-11T09:08:01.396Z</time>
      </trkpt>
      <trkpt lat="48.03975" lon="2.81071">
        <ele>90</ele>
        <time>2016-12-11T09:08:02.426Z</time>
      </trkpt>
      <trkpt lat="48.03975" lon="2.81071">
        <ele>90</ele>
        <time>2016-12-11T09:08:03.413Z</time>
      </trkpt>
      <trkpt lat="48.03976" lon="2.81076">
        <ele>91</ele>
        <time>2016-12-11T09:08:04.405Z</time>
      </trkpt>
      <trkpt lat="48.03976" lon="2.81076">
        <ele>91</ele>
        <time>2016-12-11T09:08:05.396Z</time>
      </trkpt>
      <trkpt lat="48.03977" lon="2.81081">
        <ele>92</ele>
        <time>2016-12-11T09:08:06.426Z</time>
      </trkpt>
      <trkpt lat="48.03977" lon="2.81081">
        <ele>92</ele>
        <time>2016-12-11T09:08:07.413Z</time>
      </trkpt>
      <trkpt lat="48.03978" lon="2.81088">
        <ele>92</ele>
        <time>2016-12-11T09:08:08.406Z</time>
      </trkpt>
      <trkpt lat="48.03978" lon="2.81088">
        <ele>92</ele>
        <time>2016-12-11T09:08:09.403Z</time>
      </trkpt>
      <trkpt lat="48.03978" lon="2.81095">
        <ele>92</ele>
        <time>2016-12-11T09:08:10.396Z</time>
      </trkpt>
      <trkpt lat="48.03978" lon="2.81098">
        <ele>93</ele>
        <time>2016-12-11T09:08:11.396Z</time>
      </trkpt>
      <trkpt lat="48.03978" lon="2.81098">
        <ele>93</ele>
        <time>2016-12-11T09:08:12.423Z</time>
      </trkpt>
      <trkpt lat="48.03979" lon="2.81104">
        <ele>94</ele>
        <time>2016-12-11T09:08:13.422Z</time>
      </trkpt>
      <trkpt lat="48.0398" lon="2.81108">
        <ele>94</ele>
        <time>2016-12-11T09:08:14.422Z</time>
      </trkpt>
      <trkpt lat="48.0398" lon="2.81108">
        <ele>94</ele>
        <time>2016-12-11T09:08:15.409Z</time>
      </trkpt>
      <trkpt lat="48.03983" lon="2.81112">
        <ele>94</ele>
        <time>2016-12-11T09:08:16.411Z</time>
      </trkpt>
      <trkpt lat="48.03984" lon="2.81114">
        <ele>94</ele>
        <time>2016-12-11T09:08:17.432Z</time>
      </trkpt>
      <trkpt lat="48.03984" lon="2.81116">
        <ele>94</ele>
        <time>2016-12-11T09:08:18.430Z</time>
      </trkpt>
      <trkpt lat="48.03984" lon="2.81116">
        <ele>94</ele>
        <time>2016-12-11T09:08:19.396Z</time>
      </trkpt>
      <trkpt lat="48.03984" lon="2.81121">
        <ele>95</ele>
        <time>2016-12-11T09:08:20.401Z</time>
      </trkpt>
      <trkpt lat="48.03984" lon="2.81121">
        <ele>95</ele>
        <time>2016-12-11T09:08:21.430Z</time>
      </trkpt>
      <trkpt lat="48.03982" lon="2.81127">
        <ele>95</ele>
        <time>2016-12-11T09:08:22.397Z</time>
      </trkpt>
      <trkpt lat="48.03981" lon="2.81131">
        <ele>96</ele>
        <time>2016-12-11T09:08:23.426Z</time>
      </trkpt>
      <trkpt lat="48.03981" lon="2.81131">
        <ele>96</ele>
        <time>2016-12-11T09:08:24.414Z</time>
      </trkpt>
      <trkpt lat="48.03975" lon="2.81138">
        <ele>96</ele>
        <time>2016-12-11T09:08:25.413Z</time>
      </trkpt>
      <trkpt lat="48.03972" lon="2.81142">
        <ele>96</ele>
        <time>2016-12-11T09:08:26.410Z</time>
      </trkpt>
      <trkpt lat="48.03972" lon="2.81142">
        <ele>96</ele>
        <time>2016-12-11T09:08:27.398Z</time>
      </trkpt>
      <trkpt lat="48.03964" lon="2.81151">
        <ele>97</ele>
        <time>2016-12-11T09:08:28.428Z</time>
      </trkpt>
      <trkpt lat="48.0396" lon="2.81156">
        <ele>98</ele>
        <time>2016-12-11T09:08:29.420Z</time>
      </trkpt>
      <trkpt lat="48.0396" lon="2.81156">
        <ele>98</ele>
        <time>2016-12-11T09:08:30.408Z</time>
      </trkpt>
      <trkpt lat="48.03949" lon="2.81167">
        <ele>97</ele>
        <time>2016-12-11T09:08:31.410Z</time>
      </trkpt>
      <trkpt lat="48.03949" lon="2.81167">
        <ele>97</ele>
        <time>2016-12-11T09:08:32.399Z</time>
      </trkpt>
      <trkpt lat="48.03937" lon="2.81181">
        <ele>96</ele>
        <time>2016-12-11T09:08:33.408Z</time>
      </trkpt>
      <trkpt lat="48.03937" lon="2.81181">
        <ele>96</ele>
        <time>2016-12-11T09:08:34.396Z</time>
      </trkpt>
      <trkpt lat="48.03924" lon="2.81193">
        <ele>95</ele>
        <time>2016-12-11T09:08:35.424Z</time>
      </trkpt>
      <trkpt lat="48.03924" lon="2.81193">
        <ele>95</ele>
        <time>2016-12-11T09:08:36.422Z</time>
      </trkpt>
      <trkpt lat="48.03912" lon="2.81206">
        <ele>95</ele>
        <time>2016-12-11T09:08:37.416Z</time>
      </trkpt>
      <trkpt lat="48.03912" lon="2.81206">
        <ele>95</ele>
        <time>2016-12-11T09:08:38.403Z</time>
      </trkpt>
      <trkpt lat="48.03901" lon="2.81218">
        <ele>95</ele>
        <time>2016-12-11T09:08:39.401Z</time>
      </trkpt>
      <trkpt lat="48.03896" lon="2.81224">
        <ele>95</ele>
        <time>2016-12-11T09:08:40.398Z</time>
      </trkpt>
      <trkpt lat="48.03891" lon="2.8123">
        <ele>94</ele>
        <time>2016-12-11T09:08:41.426Z</time>
      </trkpt>
      <trkpt lat="48.03891" lon="2.8123">
        <ele>94</ele>
        <time>2016-12-11T09:08:42.414Z</time>
      </trkpt>
      <trkpt lat="48.03882" lon="2.8124">
        <ele>94</ele>
        <time>2016-12-11T09:08:43.406Z</time>
      </trkpt>
      <trkpt lat="48.03878" lon="2.81245">
        <ele>94</ele>
        <time>2016-12-11T09:08:44.398Z</time>
      </trkpt>
      <trkpt lat="48.03873" lon="2.81249">
        <ele>95</ele>
        <time>2016-12-11T09:08:45.425Z</time>
      </trkpt>
      <trkpt lat="48.03873" lon="2.81249">
        <ele>95</ele>
        <time>2016-12-11T09:08:46.413Z</time>
      </trkpt>
      <trkpt lat="48.03864" lon="2.81258">
        <ele>95</ele>
        <time>2016-12-11T09:08:47.408Z</time>
      </trkpt>
      <trkpt lat="48.0386" lon="2.81262">
        <ele>95</ele>
        <time>2016-12-11T09:08:48.397Z</time>
      </trkpt>
      <trkpt lat="48.03856" lon="2.81267">
        <ele>96</ele>
        <time>2016-12-11T09:08:49.428Z</time>
      </trkpt>
      <trkpt lat="48.03856" lon="2.81267">
        <ele>96</ele>
        <time>2016-12-11T09:08:50.416Z</time>
      </trkpt>
      <trkpt lat="48.03847" lon="2.81275">
        <ele>96</ele>
        <time>2016-12-11T09:08:51.408Z</time>
      </trkpt>
      <trkpt lat="48.03847" lon="2.81275">
        <ele>96</ele>
        <time>2016-12-11T09:08:52.397Z</time>
      </trkpt>
      <trkpt lat="48.0384" lon="2.81283">
        <ele>96</ele>
        <time>2016-12-11T09:08:53.398Z</time>
      </trkpt>
      <trkpt lat="48.03836" lon="2.81287">
        <ele>96</ele>
        <time>2016-12-11T09:08:54.430Z</time>
      </trkpt>
      <trkpt lat="48.03836" lon="2.81287">
        <ele>96</ele>
        <time>2016-12-11T09:08:55.396Z</time>
      </trkpt>
      <trkpt lat="48.03829" lon="2.81294">
        <ele>96</ele>
        <time>2016-12-11T09:08:56.424Z</time>
      </trkpt>
      <trkpt lat="48.03829" lon="2.81294">
        <ele>96</ele>
        <time>2016-12-11T09:08:57.412Z</time>
      </trkpt>
      <trkpt lat="48.03821" lon="2.81302">
        <ele>96</ele>
        <time>2016-12-11T09:08:58.404Z</time>
      </trkpt>
      <trkpt lat="48.03821" lon="2.81302">
        <ele>96</ele>
        <time>2016-12-11T09:08:59.396Z</time>
      </trkpt>
      <trkpt lat="48.03814" lon="2.8131">
        <ele>97</ele>
        <time>2016-12-11T09:09:00.425Z</time>
      </trkpt>
      <trkpt lat="48.03814" lon="2.8131">
        <ele>97</ele>
        <time>2016-12-11T09:09:01.412Z</time>
      </trkpt>
      <trkpt lat="48.03807" lon="2.81318">
        <ele>97</ele>
        <time>2016-12-11T09:09:02.410Z</time>
      </trkpt>
      <trkpt lat="48.03807" lon="2.81318">
        <ele>97</ele>
        <time>2016-12-11T09:09:03.400Z</time>
      </trkpt>
      <trkpt lat="48.03801" lon="2.81325">
        <ele>96</ele>
        <time>2016-12-11T09:09:04.406Z</time>
      </trkpt>
      <trkpt lat="48.03801" lon="2.81325">
        <ele>96</ele>
        <time>2016-12-11T09:09:05.396Z</time>
      </trkpt>
      <trkpt lat="48.03794" lon="2.81329">
        <ele>96</ele>
        <time>2016-12-11T09:09:06.425Z</time>
      </trkpt>
      <trkpt lat="48.03794" lon="2.81329">
        <ele>96</ele>
        <time>2016-12-11T09:09:07.413Z</time>
      </trkpt>
      <trkpt lat="48.03788" lon="2.81332">
        <ele>97</ele>
        <time>2016-12-11T09:09:08.403Z</time>
      </trkpt>
      <trkpt lat="48.03785" lon="2.81334">
        <ele>97</ele>
        <time>2016-12-11T09:09:09.396Z</time>
      </trkpt>
      <trkpt lat="48.03785" lon="2.81334">
        <ele>97</ele>
        <time>2016-12-11T09:09:10.424Z</time>
      </trkpt>
      <trkpt lat="48.03782" lon="2.8134">
        <ele>97</ele>
        <time>2016-12-11T09:09:11.413Z</time>
      </trkpt>
      <trkpt lat="48.03781" lon="2.81343">
        <ele>97</ele>
        <time>2016-12-11T09:09:12.403Z</time>
      </trkpt>
      <trkpt lat="48.03779" lon="2.81346">
        <ele>97</ele>
        <time>2016-12-11T09:09:13.404Z</time>
      </trkpt>
      <trkpt lat="48.03778" lon="2.8135">
        <ele>97</ele>
        <time>2016-12-11T09:09:14.396Z</time>
      </trkpt>
      <trkpt lat="48.03778" lon="2.8135">
        <ele>97</ele>
        <time>2016-12-11T09:09:15.425Z</time>
      </trkpt>
      <trkpt lat="48.03774" lon="2.8136">
        <ele>98</ele>
        <time>2016-12-11T09:09:16.423Z</time>
      </trkpt>
      <trkpt lat="48.03774" lon="2.8136">
        <ele>98</ele>
        <time>2016-12-11T09:09:17.397Z</time>
      </trkpt>
      <trkpt lat="48.03773" lon="2.8137">
        <ele>98</ele>
        <time>2016-12-11T09:09:18.403Z</time>
      </trkpt>
      <trkpt lat="48.03773" lon="2.8137">
        <ele>98</ele>
        <time>2016-12-11T09:09:19.409Z</time>
      </trkpt>
      <trkpt lat="48.03774" lon="2.81383">
        <ele>97</ele>
        <time>2016-12-11T09:09:20.404Z</time>
      </trkpt>
      <trkpt lat="48.03774" lon="2.81383">
        <ele>97</ele>
        <time>2016-12-11T09:09:21.396Z</time>
      </trkpt>
      <trkpt lat="48.03775" lon="2.81396">
        <ele>97</ele>
        <time>2016-12-11T09:09:22.408Z</time>
      </trkpt>
      <trkpt lat="48.03775" lon="2.81396">
        <ele>97</ele>
        <time>2016-12-11T09:09:23.405Z</time>
      </trkpt>
      <trkpt lat="48.03777" lon="2.81411">
        <ele>96</ele>
        <time>2016-12-11T09:09:24.397Z</time>
      </trkpt>
      <trkpt lat="48.03777" lon="2.81417">
        <ele>96</ele>
        <time>2016-12-11T09:09:25.396Z</time>
      </trkpt>
      <trkpt lat="48.03777" lon="2.81423">
        <ele>97</ele>
        <time>2016-12-11T09:09:26.400Z</time>
      </trkpt>
      <trkpt lat="48.03777" lon="2.81423">
        <ele>97</ele>
        <time>2016-12-11T09:09:27.428Z</time>
      </trkpt>
      <trkpt lat="48.03778" lon="2.81435">
        <ele>97</ele>
        <time>2016-12-11T09:09:28.423Z</time>
      </trkpt>
      <trkpt lat="48.03778" lon="2.81435">
        <ele>97</ele>
        <time>2016-12-11T09:09:29.416Z</time>
      </trkpt>
      <trkpt lat="48.03776" lon="2.81443">
        <ele>96</ele>
        <time>2016-12-11T09:09:30.415Z</time>
      </trkpt>
      <trkpt lat="48.03775" lon="2.81446">
        <ele>96</ele>
        <time>2016-12-11T09:09:31.410Z</time>
      </trkpt>
      <trkpt lat="48.03772" lon="2.81448">
        <ele>96</ele>
        <time>2016-12-11T09:09:32.402Z</time>
      </trkpt>
      <trkpt lat="48.03772" lon="2.81448">
        <ele>96</ele>
        <time>2016-12-11T09:09:33.430Z</time>
      </trkpt>
      <trkpt lat="48.03767" lon="2.81452">
        <ele>96</ele>
        <time>2016-12-11T09:09:34.396Z</time>
      </trkpt>
      <trkpt lat="48.03764" lon="2.81455">
        <ele>97</ele>
        <time>2016-12-11T09:09:35.430Z</time>
      </trkpt>
      <trkpt lat="48.03764" lon="2.81455">
        <ele>97</ele>
        <time>2016-12-11T09:09:36.396Z</time>
      </trkpt>
      <trkpt lat="48.0376" lon="2.8146">
        <ele>97</ele>
        <time>2016-12-11T09:09:37.426Z</time>
      </trkpt>
      <trkpt lat="48.0376" lon="2.8146">
        <ele>97</ele>
        <time>2016-12-11T09:09:38.413Z</time>
      </trkpt>
      <trkpt lat="48.03756" lon="2.81465">
        <ele>97</ele>
        <time>2016-12-11T09:09:39.404Z</time>
      </trkpt>
      <trkpt lat="48.03755" lon="2.81466">
        <ele>97</ele>
        <time>2016-12-11T09:09:40.396Z</time>
      </trkpt>
      <trkpt lat="48.03753" lon="2.81467">
        <ele>97</ele>
        <time>2016-12-11T09:09:41.424Z</time>
      </trkpt>
      <trkpt lat="48.03753" lon="2.81467">
        <ele>97</ele>
        <time>2016-12-11T09:09:42.412Z</time>
      </trkpt>
      <trkpt lat="48.0375" lon="2.8147">
        <ele>96</ele>
        <time>2016-12-11T09:09:43.402Z</time>
      </trkpt>
      <trkpt lat="48.03749" lon="2.81472">
        <ele>96</ele>
        <time>2016-12-11T09:09:44.399Z</time>
      </trkpt>
      <trkpt lat="48.03748" lon="2.81473">
        <ele>97</ele>
        <time>2016-12-11T09:09:45.428Z</time>
      </trkpt>
      <trkpt lat="48.03748" lon="2.81473">
        <ele>97</ele>
        <time>2016-12-11T09:09:46.415Z</time>
      </trkpt>
      <trkpt lat="48.03745" lon="2.81478">
        <ele>97</ele>
        <time>2016-12-11T09:09:47.402Z</time>
      </trkpt>
      <trkpt lat="48.03744" lon="2.81479">
        <ele>97</ele>
        <time>2016-12-11T09:09:48.402Z</time>
      </trkpt>
      <trkpt lat="48.03744" lon="2.81479">
        <ele>97</ele>
        <time>2016-12-11T09:09:49.431Z</time>
      </trkpt>
      <trkpt lat="48.0374" lon="2.81482">
        <ele>97</ele>
        <time>2016-12-11T09:09:50.416Z</time>
      </trkpt>
      <trkpt lat="48.0374" lon="2.81482">
        <ele>97</ele>
        <time>2016-12-11T09:09:51.404Z</time>
      </trkpt>
      <trkpt lat="48.03738" lon="2.81485">
        <ele>97</ele>
        <time>2016-12-11T09:09:52.408Z</time>
      </trkpt>
      <trkpt lat="48.03738" lon="2.81485">
        <ele>97</ele>
        <time>2016-12-11T09:09:53.396Z</time>
      </trkpt>
      <trkpt lat="48.03735" lon="2.81487">
        <ele>97</ele>
        <time>2016-12-11T09:09:54.425Z</time>
      </trkpt>
      <trkpt lat="48.03735" lon="2.81487">
        <ele>97</ele>
        <time>2016-12-11T09:09:55.413Z</time>
      </trkpt>
      <trkpt lat="48.03733" lon="2.8149">
        <ele>98</ele>
        <time>2016-12-11T09:09:56.402Z</time>
      </trkpt>
      <trkpt lat="48.03733" lon="2.8149">
        <ele>98</ele>
        <time>2016-12-11T09:09:57.431Z</time>
      </trkpt>
      <trkpt lat="48.03731" lon="2.81493">
        <ele>98</ele>
        <time>2016-12-11T09:09:58.398Z</time>
      </trkpt>
      <trkpt lat="48.0373" lon="2.81495">
        <ele>98</ele>
        <time>2016-12-11T09:09:59.426Z</time>
      </trkpt>
      <trkpt lat="48.0373" lon="2.81495">
        <ele>98</ele>
        <time>2016-12-11T09:10:00.411Z</time>
      </trkpt>
      <trkpt lat="48.03728" lon="2.81499">
        <ele>98</ele>
        <time>2016-12-11T09:10:01.423Z</time>
      </trkpt>
      <trkpt lat="48.03726" lon="2.81501">
        <ele>98</ele>
        <time>2016-12-11T09:10:02.420Z</time>
      </trkpt>
      <trkpt lat="48.03726" lon="2.81501">
        <ele>98</ele>
        <time>2016-12-11T09:10:03.407Z</time>
      </trkpt>
      <trkpt lat="48.03723" lon="2.81504">
        <ele>98</ele>
        <time>2016-12-11T09:10:04.402Z</time>
      </trkpt>
      <trkpt lat="48.03723" lon="2.81504">
        <ele>98</ele>
        <time>2016-12-11T09:10:05.429Z</time>
      </trkpt>
      <trkpt lat="48.0372" lon="2.81508">
        <ele>98</ele>
        <time>2016-12-11T09:10:06.419Z</time>
      </trkpt>
      <trkpt lat="48.0372" lon="2.81508">
        <ele>98</ele>
        <time>2016-12-11T09:10:07.406Z</time>
      </trkpt>
      <trkpt lat="48.03718" lon="2.81511">
        <ele>98</ele>
        <time>2016-12-11T09:10:08.410Z</time>
      </trkpt>
      <trkpt lat="48.03718" lon="2.81511">
        <ele>98</ele>
        <time>2016-12-11T09:10:09.398Z</time>
      </trkpt>
      <trkpt lat="48.03715" lon="2.81513">
        <ele>98</ele>
        <time>2016-12-11T09:10:10.417Z</time>
      </trkpt>
      <trkpt lat="48.03715" lon="2.81513">
        <ele>98</ele>
        <time>2016-12-11T09:10:11.405Z</time>
      </trkpt>
      <trkpt lat="48.03713" lon="2.81517">
        <ele>99</ele>
        <time>2016-12-11T09:10:12.403Z</time>
      </trkpt>
      <trkpt lat="48.03712" lon="2.81519">
        <ele>99</ele>
        <time>2016-12-11T09:10:13.397Z</time>
      </trkpt>
      <trkpt lat="48.03711" lon="2.81519">
        <ele>99</ele>
        <time>2016-12-11T09:10:14.400Z</time>
      </trkpt>
      <trkpt lat="48.03711" lon="2.81519">
        <ele>99</ele>
        <time>2016-12-11T09:10:15.427Z</time>
      </trkpt>
      <trkpt lat="48.03709" lon="2.81522">
        <ele>99</ele>
        <time>2016-12-11T09:10:16.415Z</time>
      </trkpt>
      <trkpt lat="48.03709" lon="2.81522">
        <ele>99</ele>
        <time>2016-12-11T09:10:17.418Z</time>
      </trkpt>
      <trkpt lat="48.03707" lon="2.81523">
        <ele>100</ele>
        <time>2016-12-11T09:10:18.426Z</time>
      </trkpt>
      <trkpt lat="48.03706" lon="2.81525">
        <ele>100</ele>
        <time>2016-12-11T09:10:19.432Z</time>
      </trkpt>
      <trkpt lat="48.03704" lon="2.81527">
        <ele>100</ele>
        <time>2016-12-11T09:10:20.399Z</time>
      </trkpt>
      <trkpt lat="48.03704" lon="2.81527">
        <ele>100</ele>
        <time>2016-12-11T09:10:21.428Z</time>
      </trkpt>
      <trkpt lat="48.03701" lon="2.81529">
        <ele>100</ele>
        <time>2016-12-11T09:10:22.416Z</time>
      </trkpt>
      <trkpt lat="48.03701" lon="2.81529">
        <ele>100</ele>
        <time>2016-12-11T09:10:23.404Z</time>
      </trkpt>
      <trkpt lat="48.03699" lon="2.81532">
        <ele>101</ele>
        <time>2016-12-11T09:10:24.397Z</time>
      </trkpt>
      <trkpt lat="48.03697" lon="2.81533">
        <ele>101</ele>
        <time>2016-12-11T09:10:25.428Z</time>
      </trkpt>
      <trkpt lat="48.03697" lon="2.81533">
        <ele>101</ele>
        <time>2016-12-11T09:10:26.416Z</time>
      </trkpt>
      <trkpt lat="48.03695" lon="2.81536">
        <ele>101</ele>
        <time>2016-12-11T09:10:27.417Z</time>
      </trkpt>
      <trkpt lat="48.03695" lon="2.81536">
        <ele>101</ele>
        <time>2016-12-11T09:10:28.405Z</time>
      </trkpt>
      <trkpt lat="48.03692" lon="2.81539">
        <ele>101</ele>
        <time>2016-12-11T09:10:29.409Z</time>
      </trkpt>
      <trkpt lat="48.03692" lon="2.81539">
        <ele>101</ele>
        <time>2016-12-11T09:10:30.398Z</time>
      </trkpt>
      <trkpt lat="48.0369" lon="2.81541">
        <ele>102</ele>
        <time>2016-12-11T09:10:31.399Z</time>
      </trkpt>
      <trkpt lat="48.03689" lon="2.81541">
        <ele>102</ele>
        <time>2016-12-11T09:10:32.431Z</time>
      </trkpt>
      <trkpt lat="48.03689" lon="2.81541">
        <ele>102</ele>
        <time>2016-12-11T09:10:33.396Z</time>
      </trkpt>
      <trkpt lat="48.03686" lon="2.81544">
        <ele>102</ele>
        <time>2016-12-11T09:10:34.427Z</time>
      </trkpt>
      <trkpt lat="48.03686" lon="2.81544">
        <ele>102</ele>
        <time>2016-12-11T09:10:35.414Z</time>
      </trkpt>
      <trkpt lat="48.03684" lon="2.81547">
        <ele>103</ele>
        <time>2016-12-11T09:10:36.419Z</time>
      </trkpt>
      <trkpt lat="48.03684" lon="2.81547">
        <ele>103</ele>
        <time>2016-12-11T09:10:37.408Z</time>
      </trkpt>
      <trkpt lat="48.03681" lon="2.81549">
        <ele>103</ele>
        <time>2016-12-11T09:10:38.400Z</time>
      </trkpt>
      <trkpt lat="48.0368" lon="2.81551">
        <ele>103</ele>
        <time>2016-12-11T09:10:39.429Z</time>
      </trkpt>
      <trkpt lat="48.0368" lon="2.81551">
        <ele>103</ele>
        <time>2016-12-11T09:10:40.397Z</time>
      </trkpt>
      <trkpt lat="48.03679" lon="2.81554">
        <ele>104</ele>
        <time>2016-12-11T09:10:41.406Z</time>
      </trkpt>
      <trkpt lat="48.03679" lon="2.81554">
        <ele>104</ele>
        <time>2016-12-11T09:10:42.401Z</time>
      </trkpt>
      <trkpt lat="48.03677" lon="2.81556">
        <ele>104</ele>
        <time>2016-12-11T09:10:43.397Z</time>
      </trkpt>
      <trkpt lat="48.03675" lon="2.81557">
        <ele>104</ele>
        <time>2016-12-11T09:10:44.426Z</time>
      </trkpt>
      <trkpt lat="48.03675" lon="2.81557">
        <ele>104</ele>
        <time>2016-12-11T09:10:45.414Z</time>
      </trkpt>
      <trkpt lat="48.03673" lon="2.81559">
        <ele>105</ele>
        <time>2016-12-11T09:10:46.408Z</time>
      </trkpt>
      <trkpt lat="48.03673" lon="2.81559">
        <ele>105</ele>
        <time>2016-12-11T09:10:47.398Z</time>
      </trkpt>
      <trkpt lat="48.0367" lon="2.81564">
        <ele>105</ele>
        <time>2016-12-11T09:10:48.426Z</time>
      </trkpt>
      <trkpt lat="48.0367" lon="2.81564">
        <ele>105</ele>
        <time>2016-12-11T09:10:49.414Z</time>
      </trkpt>
      <trkpt lat="48.03667" lon="2.81567">
        <ele>106</ele>
        <time>2016-12-11T09:10:50.404Z</time>
      </trkpt>
      <trkpt lat="48.03667" lon="2.81567">
        <ele>106</ele>
        <time>2016-12-11T09:10:51.432Z</time>
      </trkpt>
      <trkpt lat="48.03665" lon="2.81569">
        <ele>106</ele>
        <time>2016-12-11T09:10:52.397Z</time>
      </trkpt>
      <trkpt lat="48.03665" lon="2.81569">
        <ele>106</ele>
        <time>2016-12-11T09:10:53.427Z</time>
      </trkpt>
      <trkpt lat="48.03663" lon="2.81572">
        <ele>106</ele>
        <time>2016-12-11T09:10:54.418Z</time>
      </trkpt>
      <trkpt lat="48.03663" lon="2.81572">
        <ele>106</ele>
        <time>2016-12-11T09:10:55.406Z</time>
      </trkpt>
      <trkpt lat="48.0366" lon="2.81574">
        <ele>107</ele>
        <time>2016-12-11T09:10:56.401Z</time>
      </trkpt>
      <trkpt lat="48.0366" lon="2.81574">
        <ele>107</ele>
        <time>2016-12-11T09:10:57.429Z</time>
      </trkpt>
      <trkpt lat="48.03658" lon="2.81576">
        <ele>107</ele>
        <time>2016-12-11T09:10:58.419Z</time>
      </trkpt>
      <trkpt lat="48.03658" lon="2.81576">
        <ele>107</ele>
        <time>2016-12-11T09:10:59.407Z</time>
      </trkpt>
      <trkpt lat="48.03656" lon="2.81577">
        <ele>108</ele>
        <time>2016-12-11T09:11:00.403Z</time>
      </trkpt>
      <trkpt lat="48.03656" lon="2.81577">
        <ele>108</ele>
        <time>2016-12-11T09:11:01.431Z</time>
      </trkpt>
      <trkpt lat="48.03655" lon="2.81578">
        <ele>108</ele>
        <time>2016-12-11T09:11:02.413Z</time>
      </trkpt>
      <trkpt lat="48.03655" lon="2.81578">
        <ele>108</ele>
        <time>2016-12-11T09:11:03.401Z</time>
      </trkpt>
      <trkpt lat="48.03653" lon="2.81582">
        <ele>108</ele>
        <time>2016-12-11T09:11:04.429Z</time>
      </trkpt>
      <trkpt lat="48.03653" lon="2.81582">
        <ele>108</ele>
        <time>2016-12-11T09:11:05.417Z</time>
      </trkpt>
      <trkpt lat="48.0365" lon="2.81584">
        <ele>108</ele>
        <time>2016-12-11T09:11:06.417Z</time>
      </trkpt>
      <trkpt lat="48.0365" lon="2.81584">
        <ele>109</ele>
        <time>2016-12-11T09:11:07.409Z</time>
      </trkpt>
      <trkpt lat="48.03648" lon="2.81586">
        <ele>109</ele>
        <time>2016-12-11T09:11:08.411Z</time>
      </trkpt>
      <trkpt lat="48.03648" lon="2.81586">
        <ele>109</ele>
        <time>2016-12-11T09:11:09.398Z</time>
      </trkpt>
      <trkpt lat="48.03646" lon="2.81589">
        <ele>109</ele>
        <time>2016-12-11T09:11:10.428Z</time>
      </trkpt>
      <trkpt lat="48.03646" lon="2.81589">
        <ele>109</ele>
        <time>2016-12-11T09:11:11.431Z</time>
      </trkpt>
      <trkpt lat="48.03644" lon="2.81591">
        <ele>109</ele>
        <time>2016-12-11T09:11:12.398Z</time>
      </trkpt>
      <trkpt lat="48.03643" lon="2.81592">
        <ele>110</ele>
        <time>2016-12-11T09:11:13.427Z</time>
      </trkpt>
      <trkpt lat="48.03643" lon="2.81593">
        <ele>110</ele>
        <time>2016-12-11T09:11:14.419Z</time>
      </trkpt>
      <trkpt lat="48.03643" lon="2.81593">
        <ele>110</ele>
        <time>2016-12-11T09:11:15.407Z</time>
      </trkpt>
      <trkpt lat="48.03641" lon="2.81595">
        <ele>110</ele>
        <time>2016-12-11T09:11:16.416Z</time>
      </trkpt>
      <trkpt lat="48.03641" lon="2.81595">
        <ele>110</ele>
        <time>2016-12-11T09:11:17.399Z</time>
      </trkpt>
      <trkpt lat="48.03639" lon="2.81597">
        <ele>110</ele>
        <time>2016-12-11T09:11:18.406Z</time>
      </trkpt>
      <trkpt lat="48.03639" lon="2.81597">
        <ele>110</ele>
        <time>2016-12-11T09:11:19.397Z</time>
      </trkpt>
      <trkpt lat="48.03637" lon="2.81599">
        <ele>111</ele>
        <time>2016-12-11T09:11:20.430Z</time>
      </trkpt>
      <trkpt lat="48.03637" lon="2.81599">
        <ele>111</ele>
        <time>2016-12-11T09:11:21.397Z</time>
      </trkpt>
      <trkpt lat="48.03636" lon="2.816">
        <ele>111</ele>
        <time>2016-12-11T09:11:22.431Z</time>
      </trkpt>
      <trkpt lat="48.03635" lon="2.81601">
        <ele>111</ele>
        <time>2016-12-11T09:11:23.397Z</time>
      </trkpt>
      <trkpt lat="48.03634" lon="2.81602">
        <ele>111</ele>
        <time>2016-12-11T09:11:24.428Z</time>
      </trkpt>
      <trkpt lat="48.03634" lon="2.81602">
        <ele>111</ele>
        <time>2016-12-11T09:11:25.416Z</time>
      </trkpt>
      <trkpt lat="48.03632" lon="2.81604">
        <ele>112</ele>
        <time>2016-12-11T09:11:26.422Z</time>
      </trkpt>
      <trkpt lat="48.03632" lon="2.81604">
        <ele>112</ele>
        <time>2016-12-11T09:11:27.411Z</time>
      </trkpt>
      <trkpt lat="48.0363" lon="2.81606">
        <ele>112</ele>
        <time>2016-12-11T09:11:28.409Z</time>
      </trkpt>
      <trkpt lat="48.0363" lon="2.81606">
        <ele>112</ele>
        <time>2016-12-11T09:11:29.397Z</time>
      </trkpt>
      <trkpt lat="48.03626" lon="2.81609">
        <ele>113</ele>
        <time>2016-12-11T09:11:30.427Z</time>
      </trkpt>
      <trkpt lat="48.03626" lon="2.81609">
        <ele>113</ele>
        <time>2016-12-11T09:11:31.414Z</time>
      </trkpt>
      <trkpt lat="48.03623" lon="2.81612">
        <ele>113</ele>
        <time>2016-12-11T09:11:32.412Z</time>
      </trkpt>
      <trkpt lat="48.03623" lon="2.81612">
        <ele>113</ele>
        <time>2016-12-11T09:11:33.401Z</time>
      </trkpt>
      <trkpt lat="48.03621" lon="2.81614">
        <ele>114</ele>
        <time>2016-12-11T09:11:34.399Z</time>
      </trkpt>
      <trkpt lat="48.0362" lon="2.81615">
        <ele>114</ele>
        <time>2016-12-11T09:11:35.398Z</time>
      </trkpt>
      <trkpt lat="48.0362" lon="2.81615">
        <ele>114</ele>
        <time>2016-12-11T09:11:36.398Z</time>
      </trkpt>
      <trkpt lat="48.03618" lon="2.81616">
        <ele>114</ele>
        <time>2016-12-11T09:11:37.400Z</time>
      </trkpt>
      <trkpt lat="48.03617" lon="2.81618">
        <ele>115</ele>
        <time>2016-12-11T09:11:38.412Z</time>
      </trkpt>
      <trkpt lat="48.03617" lon="2.81618">
        <ele>115</ele>
        <time>2016-12-11T09:11:39.402Z</time>
      </trkpt>
      <trkpt lat="48.03615" lon="2.81621">
        <ele>115</ele>
        <time>2016-12-11T09:11:40.397Z</time>
      </trkpt>
      <trkpt lat="48.03614" lon="2.81622">
        <ele>115</ele>
        <time>2016-12-11T09:11:41.427Z</time>
      </trkpt>
      <trkpt lat="48.03614" lon="2.81622">
        <ele>115</ele>
        <time>2016-12-11T09:11:42.416Z</time>
      </trkpt>
      <trkpt lat="48.03612" lon="2.81625">
        <ele>116</ele>
        <time>2016-12-11T09:11:43.409Z</time>
      </trkpt>
      <trkpt lat="48.03611" lon="2.81626">
        <ele>116</ele>
        <time>2016-12-11T09:11:44.427Z</time>
      </trkpt>
      <trkpt lat="48.03611" lon="2.81626">
        <ele>116</ele>
        <time>2016-12-11T09:11:45.415Z</time>
      </trkpt>
      <trkpt lat="48.03609" lon="2.81628">
        <ele>116</ele>
        <time>2016-12-11T09:11:46.411Z</time>
      </trkpt>
      <trkpt lat="48.03609" lon="2.81628">
        <ele>116</ele>
        <time>2016-12-11T09:11:47.401Z</time>
      </trkpt>
      <trkpt lat="48.03606" lon="2.81631">
        <ele>117</ele>
        <time>2016-12-11T09:11:48.398Z</time>
      </trkpt>
      <trkpt lat="48.03606" lon="2.81631">
        <ele>117</ele>
        <time>2016-12-11T09:11:49.428Z</time>
      </trkpt>
      <trkpt lat="48.03604" lon="2.81634">
        <ele>118</ele>
        <time>2016-12-11T09:11:50.417Z</time>
      </trkpt>
      <trkpt lat="48.03604" lon="2.81634">
        <ele>118</ele>
        <time>2016-12-11T09:11:51.403Z</time>
      </trkpt>
      <trkpt lat="48.03602" lon="2.81636">
        <ele>118</ele>
        <time>2016-12-11T09:11:52.397Z</time>
      </trkpt>
      <trkpt lat="48.03601" lon="2.81637">
        <ele>118</ele>
        <time>2016-12-11T09:11:53.426Z</time>
      </trkpt>
      <trkpt lat="48.03601" lon="2.81637">
        <ele>118</ele>
        <time>2016-12-11T09:11:54.413Z</time>
      </trkpt>
      <trkpt lat="48.03598" lon="2.8164">
        <ele>119</ele>
        <time>2016-12-11T09:11:55.424Z</time>
      </trkpt>
      <trkpt lat="48.03597" lon="2.81642">
        <ele>119</ele>
        <time>2016-12-11T09:11:56.413Z</time>
      </trkpt>
      <trkpt lat="48.03597" lon="2.81642">
        <ele>119</ele>
        <time>2016-12-11T09:11:57.401Z</time>
      </trkpt>
      <trkpt lat="48.03595" lon="2.81644">
        <ele>119</ele>
        <time>2016-12-11T09:11:58.404Z</time>
      </trkpt>
      <trkpt lat="48.03595" lon="2.81644">
        <ele>119</ele>
        <time>2016-12-11T09:11:59.397Z</time>
      </trkpt>
      <trkpt lat="48.03591" lon="2.81647">
        <ele>120</ele>
        <time>2016-12-11T09:12:00.425Z</time>
      </trkpt>
      <trkpt lat="48.03591" lon="2.81647">
        <ele>120</ele>
        <time>2016-12-11T09:12:01.429Z</time>
      </trkpt>
      <trkpt lat="48.03587" lon="2.81651">
        <ele>120</ele>
        <time>2016-12-11T09:12:02.419Z</time>
      </trkpt>
      <trkpt lat="48.03587" lon="2.81651">
        <ele>120</ele>
        <time>2016-12-11T09:12:03.406Z</time>
      </trkpt>
      <trkpt lat="48.03584" lon="2.81656">
        <ele>120</ele>
        <time>2016-12-11T09:12:04.404Z</time>
      </trkpt>
      <trkpt lat="48.03584" lon="2.81656">
        <ele>120</ele>
        <time>2016-12-11T09:12:05.433Z</time>
      </trkpt>
      <trkpt lat="48.0358" lon="2.81658">
        <ele>121</ele>
        <time>2016-12-11T09:12:06.398Z</time>
      </trkpt>
      <trkpt lat="48.0358" lon="2.81658">
        <ele>121</ele>
        <time>2016-12-11T09:12:07.428Z</time>
      </trkpt>
      <trkpt lat="48.03576" lon="2.81661">
        <ele>122</ele>
        <time>2016-12-11T09:12:08.397Z</time>
      </trkpt>
      <trkpt lat="48.03575" lon="2.81664">
        <ele>122</ele>
        <time>2016-12-11T09:12:09.426Z</time>
      </trkpt>
      <trkpt lat="48.03575" lon="2.81664">
        <ele>122</ele>
        <time>2016-12-11T09:12:10.414Z</time>
      </trkpt>
      <trkpt lat="48.03572" lon="2.81668">
        <ele>122</ele>
        <time>2016-12-11T09:12:11.423Z</time>
      </trkpt>
      <trkpt lat="48.0357" lon="2.81671">
        <ele>122</ele>
        <time>2016-12-11T09:12:12.423Z</time>
      </trkpt>
      <trkpt lat="48.0357" lon="2.81671">
        <ele>122</ele>
        <time>2016-12-11T09:12:13.417Z</time>
      </trkpt>
      <trkpt lat="48.03565" lon="2.81675">
        <ele>122</ele>
        <time>2016-12-11T09:12:14.409Z</time>
      </trkpt>
      <trkpt lat="48.03565" lon="2.81675">
        <ele>122</ele>
        <time>2016-12-11T09:12:15.397Z</time>
      </trkpt>
      <trkpt lat="48.03561" lon="2.8168">
        <ele>122</ele>
        <time>2016-12-11T09:12:16.426Z</time>
      </trkpt>
      <trkpt lat="48.03561" lon="2.8168">
        <ele>122</ele>
        <time>2016-12-11T09:12:17.400Z</time>
      </trkpt>
      <trkpt lat="48.03557" lon="2.81683">
        <ele>123</ele>
        <time>2016-12-11T09:12:18.409Z</time>
      </trkpt>
      <trkpt lat="48.03555" lon="2.81685">
        <ele>123</ele>
        <time>2016-12-11T09:12:19.411Z</time>
      </trkpt>
      <trkpt lat="48.03553" lon="2.81688">
        <ele>123</ele>
        <time>2016-12-11T09:12:20.413Z</time>
      </trkpt>
      <trkpt lat="48.03553" lon="2.81688">
        <ele>123</ele>
        <time>2016-12-11T09:12:21.402Z</time>
      </trkpt>
      <trkpt lat="48.03548" lon="2.81693">
        <ele>123</ele>
        <time>2016-12-11T09:12:22.398Z</time>
      </trkpt>
      <trkpt lat="48.03548" lon="2.81693">
        <ele>123</ele>
        <time>2016-12-11T09:12:23.428Z</time>
      </trkpt>
      <trkpt lat="48.03543" lon="2.81698">
        <ele>122</ele>
        <time>2016-12-11T09:12:24.418Z</time>
      </trkpt>
      <trkpt lat="48.03541" lon="2.81701">
        <ele>122</ele>
        <time>2016-12-11T09:12:25.411Z</time>
      </trkpt>
      <trkpt lat="48.03538" lon="2.81703">
        <ele>122</ele>
        <time>2016-12-11T09:12:26.409Z</time>
      </trkpt>
      <trkpt lat="48.03538" lon="2.81703">
        <ele>122</ele>
        <time>2016-12-11T09:12:27.397Z</time>
      </trkpt>
      <trkpt lat="48.03533" lon="2.81709">
        <ele>123</ele>
        <time>2016-12-11T09:12:28.427Z</time>
      </trkpt>
      <trkpt lat="48.03533" lon="2.81709">
        <ele>123</ele>
        <time>2016-12-11T09:12:29.415Z</time>
      </trkpt>
      <trkpt lat="48.03528" lon="2.81715">
        <ele>124</ele>
        <time>2016-12-11T09:12:30.408Z</time>
      </trkpt>
      <trkpt lat="48.03528" lon="2.81715">
        <ele>124</ele>
        <time>2016-12-11T09:12:31.397Z</time>
      </trkpt>
      <trkpt lat="48.03523" lon="2.8172">
        <ele>125</ele>
        <time>2016-12-11T09:12:32.427Z</time>
      </trkpt>
      <trkpt lat="48.03523" lon="2.8172">
        <ele>125</ele>
        <time>2016-12-11T09:12:33.415Z</time>
      </trkpt>
      <trkpt lat="48.03518" lon="2.81724">
        <ele>125</ele>
        <time>2016-12-11T09:12:34.405Z</time>
      </trkpt>
      <trkpt lat="48.03518" lon="2.81724">
        <ele>125</ele>
        <time>2016-12-11T09:12:35.397Z</time>
      </trkpt>
      <trkpt lat="48.03514" lon="2.8173">
        <ele>124</ele>
        <time>2016-12-11T09:12:36.427Z</time>
      </trkpt>
      <trkpt lat="48.03514" lon="2.8173">
        <ele>124</ele>
        <time>2016-12-11T09:12:37.414Z</time>
      </trkpt>
      <trkpt lat="48.0351" lon="2.81735">
        <ele>125</ele>
        <time>2016-12-11T09:12:38.404Z</time>
      </trkpt>
      <trkpt lat="48.0351" lon="2.81735">
        <ele>125</ele>
        <time>2016-12-11T09:12:39.433Z</time>
      </trkpt>
      <trkpt lat="48.03505" lon="2.81741">
        <ele>125</ele>
        <time>2016-12-11T09:12:40.397Z</time>
      </trkpt>
      <trkpt lat="48.03503" lon="2.81744">
        <ele>125</ele>
        <time>2016-12-11T09:12:41.401Z</time>
      </trkpt>
      <trkpt lat="48.03503" lon="2.81744">
        <ele>125</ele>
        <time>2016-12-11T09:12:42.430Z</time>
      </trkpt>
      <trkpt lat="48.03498" lon="2.81749">
        <ele>124</ele>
        <time>2016-12-11T09:12:43.419Z</time>
      </trkpt>
      <trkpt lat="48.03498" lon="2.81749">
        <ele>124</ele>
        <time>2016-12-11T09:12:44.407Z</time>
      </trkpt>
      <trkpt lat="48.03492" lon="2.81756">
        <ele>123</ele>
        <time>2016-12-11T09:12:45.402Z</time>
      </trkpt>
      <trkpt lat="48.03489" lon="2.81758">
        <ele>123</ele>
        <time>2016-12-11T09:12:46.409Z</time>
      </trkpt>
      <trkpt lat="48.03489" lon="2.81758">
        <ele>123</ele>
        <time>2016-12-11T09:12:47.397Z</time>
      </trkpt>
      <trkpt lat="48.03484" lon="2.81764">
        <ele>123</ele>
        <time>2016-12-11T09:12:48.427Z</time>
      </trkpt>
      <trkpt lat="48.03484" lon="2.81764">
        <ele>123</ele>
        <time>2016-12-11T09:12:49.415Z</time>
      </trkpt>
      <trkpt lat="48.03478" lon="2.8177">
        <ele>123</ele>
        <time>2016-12-11T09:12:50.414Z</time>
      </trkpt>
      <trkpt lat="48.03478" lon="2.8177">
        <ele>123</ele>
        <time>2016-12-11T09:12:51.412Z</time>
      </trkpt>
      <trkpt lat="48.03472" lon="2.81775">
        <ele>122</ele>
        <time>2016-12-11T09:12:52.417Z</time>
      </trkpt>
      <trkpt lat="48.03472" lon="2.81775">
        <ele>122</ele>
        <time>2016-12-11T09:12:53.417Z</time>
      </trkpt>
      <trkpt lat="48.03466" lon="2.81781">
        <ele>122</ele>
        <time>2016-12-11T09:12:54.408Z</time>
      </trkpt>
      <trkpt lat="48.03466" lon="2.81781">
        <ele>122</ele>
        <time>2016-12-11T09:12:55.397Z</time>
      </trkpt>
      <trkpt lat="48.03461" lon="2.81786">
        <ele>122</ele>
        <time>2016-12-11T09:12:56.428Z</time>
      </trkpt>
      <trkpt lat="48.03461" lon="2.81786">
        <ele>122</ele>
        <time>2016-12-11T09:12:57.406Z</time>
      </trkpt>
      <trkpt lat="48.03456" lon="2.81792">
        <ele>123</ele>
        <time>2016-12-11T09:12:58.408Z</time>
      </trkpt>
      <trkpt lat="48.03454" lon="2.81794">
        <ele>122</ele>
        <time>2016-12-11T09:12:59.398Z</time>
      </trkpt>
      <trkpt lat="48.03451" lon="2.81797">
        <ele>121</ele>
        <time>2016-12-11T09:13:00.401Z</time>
      </trkpt>
      <trkpt lat="48.03451" lon="2.81797">
        <ele>121</ele>
        <time>2016-12-11T09:13:01.429Z</time>
      </trkpt>
      <trkpt lat="48.03446" lon="2.81802">
        <ele>121</ele>
        <time>2016-12-11T09:13:02.417Z</time>
      </trkpt>
      <trkpt lat="48.03446" lon="2.81802">
        <ele>121</ele>
        <time>2016-12-11T09:13:03.407Z</time>
      </trkpt>
      <trkpt lat="48.03441" lon="2.81807">
        <ele>120</ele>
        <time>2016-12-11T09:13:04.398Z</time>
      </trkpt>
      <trkpt lat="48.03438" lon="2.8181">
        <ele>120</ele>
        <time>2016-12-11T09:13:05.426Z</time>
      </trkpt>
      <trkpt lat="48.03438" lon="2.8181">
        <ele>120</ele>
        <time>2016-12-11T09:13:06.414Z</time>
      </trkpt>
      <trkpt lat="48.03433" lon="2.81816">
        <ele>120</ele>
        <time>2016-12-11T09:13:07.407Z</time>
      </trkpt>
      <trkpt lat="48.0343" lon="2.8182">
        <ele>120</ele>
        <time>2016-12-11T09:13:08.398Z</time>
      </trkpt>
      <trkpt lat="48.03427" lon="2.81823">
        <ele>120</ele>
        <time>2016-12-11T09:13:09.426Z</time>
      </trkpt>
      <trkpt lat="48.03427" lon="2.81823">
        <ele>120</ele>
        <time>2016-12-11T09:13:10.414Z</time>
      </trkpt>
      <trkpt lat="48.03421" lon="2.81829">
        <ele>120</ele>
        <time>2016-12-11T09:13:11.404Z</time>
      </trkpt>
      <trkpt lat="48.03421" lon="2.81829">
        <ele>120</ele>
        <time>2016-12-11T09:13:12.433Z</time>
      </trkpt>
      <trkpt lat="48.03415" lon="2.81835">
        <ele>120</ele>
        <time>2016-12-11T09:13:13.397Z</time>
      </trkpt>
      <trkpt lat="48.03411" lon="2.81837">
        <ele>121</ele>
        <time>2016-12-11T09:13:14.428Z</time>
      </trkpt>
      <trkpt lat="48.03411" lon="2.81837">
        <ele>121</ele>
        <time>2016-12-11T09:13:15.415Z</time>
      </trkpt>
      <trkpt lat="48.03406" lon="2.81842">
        <ele>121</ele>
        <time>2016-12-11T09:13:16.429Z</time>
      </trkpt>
      <trkpt lat="48.03406" lon="2.81842">
        <ele>121</ele>
        <time>2016-12-11T09:13:17.397Z</time>
      </trkpt>
      <trkpt lat="48.034" lon="2.81847">
        <ele>121</ele>
        <time>2016-12-11T09:13:18.412Z</time>
      </trkpt>
      <trkpt lat="48.03399" lon="2.81851">
        <ele>122</ele>
        <time>2016-12-11T09:13:19.417Z</time>
      </trkpt>
      <trkpt lat="48.03398" lon="2.81855">
        <ele>122</ele>
        <time>2016-12-11T09:13:20.423Z</time>
      </trkpt>
      <trkpt lat="48.03398" lon="2.81855">
        <ele>122</ele>
        <time>2016-12-11T09:13:21.427Z</time>
      </trkpt>
      <trkpt lat="48.034" lon="2.81863">
        <ele>123</ele>
        <time>2016-12-11T09:13:22.415Z</time>
      </trkpt>
      <trkpt lat="48.034" lon="2.81863">
        <ele>123</ele>
        <time>2016-12-11T09:13:23.404Z</time>
      </trkpt>
      <trkpt lat="48.03403" lon="2.81871">
        <ele>123</ele>
        <time>2016-12-11T09:13:24.398Z</time>
      </trkpt>
      <trkpt lat="48.03403" lon="2.81871">
        <ele>123</ele>
        <time>2016-12-11T09:13:25.429Z</time>
      </trkpt>
      <trkpt lat="48.03406" lon="2.81878">
        <ele>123</ele>
        <time>2016-12-11T09:13:26.419Z</time>
      </trkpt>
      <trkpt lat="48.03406" lon="2.81878">
        <ele>123</ele>
        <time>2016-12-11T09:13:27.408Z</time>
      </trkpt>
      <trkpt lat="48.0341" lon="2.81886">
        <ele>123</ele>
        <time>2016-12-11T09:13:28.408Z</time>
      </trkpt>
      <trkpt lat="48.0341" lon="2.81886">
        <ele>123</ele>
        <time>2016-12-11T09:13:29.397Z</time>
      </trkpt>
      <trkpt lat="48.03414" lon="2.81893">
        <ele>123</ele>
        <time>2016-12-11T09:13:30.429Z</time>
      </trkpt>
      <trkpt lat="48.03414" lon="2.81893">
        <ele>123</ele>
        <time>2016-12-11T09:13:31.421Z</time>
      </trkpt>
      <trkpt lat="48.03418" lon="2.81901">
        <ele>122</ele>
        <time>2016-12-11T09:13:32.417Z</time>
      </trkpt>
      <trkpt lat="48.03418" lon="2.81901">
        <ele>122</ele>
        <time>2016-12-11T09:13:33.407Z</time>
      </trkpt>
      <trkpt lat="48.03422" lon="2.81909">
        <ele>122</ele>
        <time>2016-12-11T09:13:34.397Z</time>
      </trkpt>
      <trkpt lat="48.03424" lon="2.81912">
        <ele>122</ele>
        <time>2016-12-11T09:13:35.429Z</time>
      </trkpt>
      <trkpt lat="48.03424" lon="2.81912">
        <ele>122</ele>
        <time>2016-12-11T09:13:36.419Z</time>
      </trkpt>
      <trkpt lat="48.03428" lon="2.8192">
        <ele>122</ele>
        <time>2016-12-11T09:13:37.408Z</time>
      </trkpt>
      <trkpt lat="48.0343" lon="2.81923">
        <ele>122</ele>
        <time>2016-12-11T09:13:38.402Z</time>
      </trkpt>
      <trkpt lat="48.0343" lon="2.81923">
        <ele>122</ele>
        <time>2016-12-11T09:13:39.430Z</time>
      </trkpt>
      <trkpt lat="48.03434" lon="2.81931">
        <ele>121</ele>
        <time>2016-12-11T09:13:40.397Z</time>
      </trkpt>
      <trkpt lat="48.03437" lon="2.81936">
        <ele>121</ele>
        <time>2016-12-11T09:13:41.430Z</time>
      </trkpt>
      <trkpt lat="48.03437" lon="2.81936">
        <ele>121</ele>
        <time>2016-12-11T09:13:42.416Z</time>
      </trkpt>
      <trkpt lat="48.03442" lon="2.81944">
        <ele>121</ele>
        <time>2016-12-11T09:13:43.414Z</time>
      </trkpt>
      <trkpt lat="48.03444" lon="2.81948">
        <ele>120</ele>
        <time>2016-12-11T09:13:44.418Z</time>
      </trkpt>
      <trkpt lat="48.03444" lon="2.81948">
        <ele>120</ele>
        <time>2016-12-11T09:13:45.406Z</time>
      </trkpt>
      <trkpt lat="48.03449" lon="2.81957">
        <ele>120</ele>
        <time>2016-12-11T09:13:46.410Z</time>
      </trkpt>
      <trkpt lat="48.03449" lon="2.81957">
        <ele>120</ele>
        <time>2016-12-11T09:13:47.399Z</time>
      </trkpt>
      <trkpt lat="48.03455" lon="2.81966">
        <ele>120</ele>
        <time>2016-12-11T09:13:48.428Z</time>
      </trkpt>
      <trkpt lat="48.03455" lon="2.81966">
        <ele>120</ele>
        <time>2016-12-11T09:13:49.416Z</time>
      </trkpt>
      <trkpt lat="48.0346" lon="2.81976">
        <ele>120</ele>
        <time>2016-12-11T09:13:50.425Z</time>
      </trkpt>
      <trkpt lat="48.0346" lon="2.81976">
        <ele>120</ele>
        <time>2016-12-11T09:13:51.427Z</time>
      </trkpt>
      <trkpt lat="48.03465" lon="2.81984">
        <ele>119</ele>
        <time>2016-12-11T09:13:52.407Z</time>
      </trkpt>
      <trkpt lat="48.03467" lon="2.81988">
        <ele>119</ele>
        <time>2016-12-11T09:13:53.408Z</time>
      </trkpt>
      <trkpt lat="48.03467" lon="2.81988">
        <ele>119</ele>
        <time>2016-12-11T09:13:54.399Z</time>
      </trkpt>
      <trkpt lat="48.03473" lon="2.81996">
        <ele>119</ele>
        <time>2016-12-11T09:13:55.400Z</time>
      </trkpt>
      <trkpt lat="48.03475" lon="2.82">
        <ele>119</ele>
        <time>2016-12-11T09:13:56.430Z</time>
      </trkpt>
      <trkpt lat="48.03475" lon="2.82">
        <ele>119</ele>
        <time>2016-12-11T09:13:57.419Z</time>
      </trkpt>
      <trkpt lat="48.03479" lon="2.82008">
        <ele>118</ele>
        <time>2016-12-11T09:13:58.422Z</time>
      </trkpt>
      <trkpt lat="48.03479" lon="2.82008">
        <ele>118</ele>
        <time>2016-12-11T09:13:59.411Z</time>
      </trkpt>
      <trkpt lat="48.03483" lon="2.82015">
        <ele>118</ele>
        <time>2016-12-11T09:14:00.398Z</time>
      </trkpt>
      <trkpt lat="48.03485" lon="2.82018">
        <ele>118</ele>
        <time>2016-12-11T09:14:01.427Z</time>
      </trkpt>
      <trkpt lat="48.03485" lon="2.82018">
        <ele>118</ele>
        <time>2016-12-11T09:14:02.417Z</time>
      </trkpt>
      <trkpt lat="48.03489" lon="2.82019">
        <ele>117</ele>
        <time>2016-12-11T09:14:03.423Z</time>
      </trkpt>
      <trkpt lat="48.03489" lon="2.82019">
        <ele>117</ele>
        <time>2016-12-11T09:14:04.411Z</time>
      </trkpt>
      <trkpt lat="48.03493" lon="2.82017">
        <ele>117</ele>
        <time>2016-12-11T09:14:05.411Z</time>
      </trkpt>
      <trkpt lat="48.03493" lon="2.82017">
        <ele>117</ele>
        <time>2016-12-11T09:14:06.399Z</time>
      </trkpt>
      <trkpt lat="48.03498" lon="2.82016">
        <ele>117</ele>
        <time>2016-12-11T09:14:07.399Z</time>
      </trkpt>
      <trkpt lat="48.03501" lon="2.82017">
        <ele>117</ele>
        <time>2016-12-11T09:14:08.428Z</time>
      </trkpt>
      <trkpt lat="48.03501" lon="2.82017">
        <ele>117</ele>
        <time>2016-12-11T09:14:09.416Z</time>
      </trkpt>
      <trkpt lat="48.03507" lon="2.82018">
        <ele>117</ele>
        <time>2016-12-11T09:14:10.403Z</time>
      </trkpt>
      <trkpt lat="48.03507" lon="2.82018">
        <ele>117</ele>
        <time>2016-12-11T09:14:11.432Z</time>
      </trkpt>
      <trkpt lat="48.03514" lon="2.82017">
        <ele>117</ele>
        <time>2016-12-11T09:14:12.399Z</time>
      </trkpt>
      <trkpt lat="48.03517" lon="2.82016">
        <ele>117</ele>
        <time>2016-12-11T09:14:13.427Z</time>
      </trkpt>
      <trkpt lat="48.03517" lon="2.82016">
        <ele>117</ele>
        <time>2016-12-11T09:14:14.416Z</time>
      </trkpt>
      <trkpt lat="48.03524" lon="2.82016">
        <ele>117</ele>
        <time>2016-12-11T09:14:15.403Z</time>
      </trkpt>
      <trkpt lat="48.03528" lon="2.82016">
        <ele>117</ele>
        <time>2016-12-11T09:14:16.423Z</time>
      </trkpt>
      <trkpt lat="48.03528" lon="2.82016">
        <ele>117</ele>
        <time>2016-12-11T09:14:17.396Z</time>
      </trkpt>
      <trkpt lat="48.03536" lon="2.82014">
        <ele>117</ele>
        <time>2016-12-11T09:14:18.435Z</time>
      </trkpt>
      <trkpt lat="48.0354" lon="2.82014">
        <ele>117</ele>
        <time>2016-12-11T09:14:19.401Z</time>
      </trkpt>
      <trkpt lat="48.03543" lon="2.82014">
        <ele>117</ele>
        <time>2016-12-11T09:14:20.407Z</time>
      </trkpt>
      <trkpt lat="48.03543" lon="2.82014">
        <ele>117</ele>
        <time>2016-12-11T09:14:21.398Z</time>
      </trkpt>
      <trkpt lat="48.03552" lon="2.82013">
        <ele>119</ele>
        <time>2016-12-11T09:14:22.429Z</time>
      </trkpt>
      <trkpt lat="48.03552" lon="2.82013">
        <ele>119</ele>
        <time>2016-12-11T09:14:23.417Z</time>
      </trkpt>
      <trkpt lat="48.03559" lon="2.82012">
        <ele>120</ele>
        <time>2016-12-11T09:14:24.405Z</time>
      </trkpt>
      <trkpt lat="48.03559" lon="2.82012">
        <ele>120</ele>
        <time>2016-12-11T09:14:25.398Z</time>
      </trkpt>
      <trkpt lat="48.03568" lon="2.8201">
        <ele>121</ele>
        <time>2016-12-11T09:14:26.427Z</time>
      </trkpt>
      <trkpt lat="48.03568" lon="2.8201">
        <ele>121</ele>
        <time>2016-12-11T09:14:27.416Z</time>
      </trkpt>
      <trkpt lat="48.03577" lon="2.82008">
        <ele>121</ele>
        <time>2016-12-11T09:14:28.408Z</time>
      </trkpt>
      <trkpt lat="48.03577" lon="2.82008">
        <ele>121</ele>
        <time>2016-12-11T09:14:29.398Z</time>
      </trkpt>
      <trkpt lat="48.03586" lon="2.82006">
        <ele>121</ele>
        <time>2016-12-11T09:14:30.426Z</time>
      </trkpt>
      <trkpt lat="48.03591" lon="2.82004">
        <ele>121</ele>
        <time>2016-12-11T09:14:31.424Z</time>
      </trkpt>
      <trkpt lat="48.03597" lon="2.82002">
        <ele>121</ele>
        <time>2016-12-11T09:14:32.419Z</time>
      </trkpt>
      <trkpt lat="48.03597" lon="2.82002">
        <ele>121</ele>
        <time>2016-12-11T09:14:33.407Z</time>
      </trkpt>
      <trkpt lat="48.0361" lon="2.81997">
        <ele>124</ele>
        <time>2016-12-11T09:14:34.405Z</time>
      </trkpt>
      <trkpt lat="48.0361" lon="2.81997">
        <ele>124</ele>
        <time>2016-12-11T09:14:35.398Z</time>
      </trkpt>
      <trkpt lat="48.03621" lon="2.81994">
        <ele>124</ele>
        <time>2016-12-11T09:14:36.428Z</time>
      </trkpt>
      <trkpt lat="48.03621" lon="2.81994">
        <ele>124</ele>
        <time>2016-12-11T09:14:37.415Z</time>
      </trkpt>
      <trkpt lat="48.03633" lon="2.81992">
        <ele>124</ele>
        <time>2016-12-11T09:14:38.407Z</time>
      </trkpt>
      <trkpt lat="48.03633" lon="2.81992">
        <ele>124</ele>
        <time>2016-12-11T09:14:39.398Z</time>
      </trkpt>
      <trkpt lat="48.03644" lon="2.81989">
        <ele>125</ele>
        <time>2016-12-11T09:14:40.433Z</time>
      </trkpt>
      <trkpt lat="48.03649" lon="2.81989">
        <ele>125</ele>
        <time>2016-12-11T09:14:41.415Z</time>
      </trkpt>
      <trkpt lat="48.03649" lon="2.81989">
        <ele>125</ele>
        <time>2016-12-11T09:14:42.403Z</time>
      </trkpt>
      <trkpt lat="48.0366" lon="2.81988">
        <ele>128</ele>
        <time>2016-12-11T09:14:43.432Z</time>
      </trkpt>
      <trkpt lat="48.0366" lon="2.81988">
        <ele>128</ele>
        <time>2016-12-11T09:14:44.419Z</time>
      </trkpt>
      <trkpt lat="48.03671" lon="2.81985">
        <ele>130</ele>
        <time>2016-12-11T09:14:45.420Z</time>
      </trkpt>
      <trkpt lat="48.03671" lon="2.81985">
        <ele>130</ele>
        <time>2016-12-11T09:14:46.407Z</time>
      </trkpt>
      <trkpt lat="48.03683" lon="2.81982">
        <ele>130</ele>
        <time>2016-12-11T09:14:47.413Z</time>
      </trkpt>
      <trkpt lat="48.03683" lon="2.81982">
        <ele>130</ele>
        <time>2016-12-11T09:14:48.401Z</time>
      </trkpt>
      <trkpt lat="48.03692" lon="2.81979">
        <ele>129</ele>
        <time>2016-12-11T09:14:49.406Z</time>
      </trkpt>
      <trkpt lat="48.03697" lon="2.81978">
        <ele>129</ele>
        <time>2016-12-11T09:14:50.399Z</time>
      </trkpt>
      <trkpt lat="48.03701" lon="2.81976">
        <ele>128</ele>
        <time>2016-12-11T09:14:51.429Z</time>
      </trkpt>
      <trkpt lat="48.03701" lon="2.81976">
        <ele>128</ele>
        <time>2016-12-11T09:14:52.417Z</time>
      </trkpt>
      <trkpt lat="48.03711" lon="2.81973">
        <ele>128</ele>
        <time>2016-12-11T09:14:53.415Z</time>
      </trkpt>
      <trkpt lat="48.03711" lon="2.81973">
        <ele>128</ele>
        <time>2016-12-11T09:14:54.406Z</time>
      </trkpt>
      <trkpt lat="48.03721" lon="2.81972">
        <ele>128</ele>
        <time>2016-12-11T09:14:55.398Z</time>
      </trkpt>
      <trkpt lat="48.03726" lon="2.81971">
        <ele>129</ele>
        <time>2016-12-11T09:14:56.429Z</time>
      </trkpt>
      <trkpt lat="48.03726" lon="2.81971">
        <ele>129</ele>
        <time>2016-12-11T09:14:57.417Z</time>
      </trkpt>
      <trkpt lat="48.03736" lon="2.8197">
        <ele>129</ele>
        <time>2016-12-11T09:14:58.415Z</time>
      </trkpt>
      <trkpt lat="48.03736" lon="2.8197">
        <ele>129</ele>
        <time>2016-12-11T09:14:59.403Z</time>
      </trkpt>
      <trkpt lat="48.03747" lon="2.8197">
        <ele>127</ele>
        <time>2016-12-11T09:15:00.399Z</time>
      </trkpt>
      <trkpt lat="48.03753" lon="2.81969">
        <ele>127</ele>
        <time>2016-12-11T09:15:01.428Z</time>
      </trkpt>
      <trkpt lat="48.03759" lon="2.81968">
        <ele>126</ele>
        <time>2016-12-11T09:15:02.416Z</time>
      </trkpt>
      <trkpt lat="48.03759" lon="2.81968">
        <ele>126</ele>
        <time>2016-12-11T09:15:03.404Z</time>
      </trkpt>
      <trkpt lat="48.03771" lon="2.81967">
        <ele>125</ele>
        <time>2016-12-11T09:15:04.398Z</time>
      </trkpt>
      <trkpt lat="48.03771" lon="2.81967">
        <ele>125</ele>
        <time>2016-12-11T09:15:05.428Z</time>
      </trkpt>
      <trkpt lat="48.03785" lon="2.81964">
        <ele>124</ele>
        <time>2016-12-11T09:15:06.419Z</time>
      </trkpt>
      <trkpt lat="48.03785" lon="2.81964">
        <ele>124</ele>
        <time>2016-12-11T09:15:07.407Z</time>
      </trkpt>
      <trkpt lat="48.03798" lon="2.81962">
        <ele>123</ele>
        <time>2016-12-11T09:15:08.401Z</time>
      </trkpt>
      <trkpt lat="48.03798" lon="2.81962">
        <ele>123</ele>
        <time>2016-12-11T09:15:09.431Z</time>
      </trkpt>
      <trkpt lat="48.03811" lon="2.81959">
        <ele>124</ele>
        <time>2016-12-11T09:15:10.420Z</time>
      </trkpt>
      <trkpt lat="48.03811" lon="2.81959">
        <ele>124</ele>
        <time>2016-12-11T09:15:11.409Z</time>
      </trkpt>
      <trkpt lat="48.03823" lon="2.81951">
        <ele>122</ele>
        <time>2016-12-11T09:15:12.406Z</time>
      </trkpt>
      <trkpt lat="48.03823" lon="2.81951">
        <ele>122</ele>
        <time>2016-12-11T09:15:13.398Z</time>
      </trkpt>
      <trkpt lat="48.03834" lon="2.8194">
        <ele>119</ele>
        <time>2016-12-11T09:15:14.426Z</time>
      </trkpt>
      <trkpt lat="48.03834" lon="2.8194">
        <ele>119</ele>
        <time>2016-12-11T09:15:15.414Z</time>
      </trkpt>
      <trkpt lat="48.03846" lon="2.81928">
        <ele>117</ele>
        <time>2016-12-11T09:15:16.408Z</time>
      </trkpt>
      <trkpt lat="48.03846" lon="2.81928">
        <ele>117</ele>
        <time>2016-12-11T09:15:17.397Z</time>
      </trkpt>
      <trkpt lat="48.03858" lon="2.81916">
        <ele>114</ele>
        <time>2016-12-11T09:15:18.411Z</time>
      </trkpt>
      <trkpt lat="48.03864" lon="2.81911">
        <ele>113</ele>
        <time>2016-12-11T09:15:19.417Z</time>
      </trkpt>
      <trkpt lat="48.03868" lon="2.81907">
        <ele>112</ele>
        <time>2016-12-11T09:15:20.422Z</time>
      </trkpt>
      <trkpt lat="48.03872" lon="2.81904">
        <ele>112</ele>
        <time>2016-12-11T09:15:21.427Z</time>
      </trkpt>
      <trkpt lat="48.03875" lon="2.81902">
        <ele>111</ele>
        <time>2016-12-11T09:15:22.421Z</time>
      </trkpt>
      <trkpt lat="48.03875" lon="2.81902">
        <ele>111</ele>
        <time>2016-12-11T09:15:23.409Z</time>
      </trkpt>
      <trkpt lat="48.03881" lon="2.81896">
        <ele>111</ele>
        <time>2016-12-11T09:15:24.409Z</time>
      </trkpt>
      <trkpt lat="48.03881" lon="2.81896">
        <ele>111</ele>
        <time>2016-12-11T09:15:25.398Z</time>
      </trkpt>
      <trkpt lat="48.03888" lon="2.81888">
        <ele>110</ele>
        <time>2016-12-11T09:15:26.398Z</time>
      </trkpt>
      <trkpt lat="48.03891" lon="2.81885">
        <ele>109</ele>
        <time>2016-12-11T09:15:27.427Z</time>
      </trkpt>
      <trkpt lat="48.03891" lon="2.81885">
        <ele>109</ele>
        <time>2016-12-11T09:15:28.416Z</time>
      </trkpt>
      <trkpt lat="48.03899" lon="2.81875">
        <ele>109</ele>
        <time>2016-12-11T09:15:29.407Z</time>
      </trkpt>
      <trkpt lat="48.03902" lon="2.81867">
        <ele>109</ele>
        <time>2016-12-11T09:15:30.408Z</time>
      </trkpt>
      <trkpt lat="48.03902" lon="2.81867">
        <ele>109</ele>
        <time>2016-12-11T09:15:31.398Z</time>
      </trkpt>
      <trkpt lat="48.03904" lon="2.8185">
        <ele>108</ele>
        <time>2016-12-11T09:15:32.429Z</time>
      </trkpt>
      <trkpt lat="48.03904" lon="2.8185">
        <ele>108</ele>
        <time>2016-12-11T09:15:33.414Z</time>
      </trkpt>
      <trkpt lat="48.03904" lon="2.81833">
        <ele>109</ele>
        <time>2016-12-11T09:15:34.405Z</time>
      </trkpt>
      <trkpt lat="48.03904" lon="2.81826">
        <ele>109</ele>
        <time>2016-12-11T09:15:35.398Z</time>
      </trkpt>
      <trkpt lat="48.03903" lon="2.8182">
        <ele>109</ele>
        <time>2016-12-11T09:15:36.429Z</time>
      </trkpt>
      <trkpt lat="48.03903" lon="2.8182">
        <ele>109</ele>
        <time>2016-12-11T09:15:37.417Z</time>
      </trkpt>
      <trkpt lat="48.03904" lon="2.81812">
        <ele>109</ele>
        <time>2016-12-11T09:15:38.418Z</time>
      </trkpt>
      <trkpt lat="48.03904" lon="2.81812">
        <ele>109</ele>
        <time>2016-12-11T09:15:39.406Z</time>
      </trkpt>
      <trkpt lat="48.03905" lon="2.81805">
        <ele>111</ele>
        <time>2016-12-11T09:15:40.399Z</time>
      </trkpt>
      <trkpt lat="48.03905" lon="2.81801">
        <ele>111</ele>
        <time>2016-12-11T09:15:41.415Z</time>
      </trkpt>
      <trkpt lat="48.03905" lon="2.81801">
        <ele>111</ele>
        <time>2016-12-11T09:15:42.405Z</time>
      </trkpt>
      <trkpt lat="48.03906" lon="2.81795">
        <ele>111</ele>
        <time>2016-12-11T09:15:43.421Z</time>
      </trkpt>
      <trkpt lat="48.03906" lon="2.81795">
        <ele>111</ele>
        <time>2016-12-11T09:15:44.410Z</time>
      </trkpt>
      <trkpt lat="48.03907" lon="2.81788">
        <ele>113</ele>
        <time>2016-12-11T09:15:45.401Z</time>
      </trkpt>
      <trkpt lat="48.03907" lon="2.81788">
        <ele>113</ele>
        <time>2016-12-11T09:15:46.430Z</time>
      </trkpt>
      <trkpt lat="48.03908" lon="2.81782">
        <ele>113</ele>
        <time>2016-12-11T09:15:47.398Z</time>
      </trkpt>
      <trkpt lat="48.03909" lon="2.81779">
        <ele>113</ele>
        <time>2016-12-11T09:15:48.427Z</time>
      </trkpt>
      <trkpt lat="48.03909" lon="2.81779">
        <ele>113</ele>
        <time>2016-12-11T09:15:49.415Z</time>
      </trkpt>
      <trkpt lat="48.0391" lon="2.81773">
        <ele>113</ele>
        <time>2016-12-11T09:15:50.415Z</time>
      </trkpt>
      <trkpt lat="48.0391" lon="2.81773">
        <ele>113</ele>
        <time>2016-12-11T09:15:51.405Z</time>
      </trkpt>
      <trkpt lat="48.03911" lon="2.81766">
        <ele>114</ele>
        <time>2016-12-11T09:15:52.398Z</time>
      </trkpt>
      <trkpt lat="48.03911" lon="2.81763">
        <ele>114</ele>
        <time>2016-12-11T09:15:53.431Z</time>
      </trkpt>
      <trkpt lat="48.03911" lon="2.81763">
        <ele>114</ele>
        <time>2016-12-11T09:15:54.418Z</time>
      </trkpt>
      <trkpt lat="48.03912" lon="2.81756">
        <ele>114</ele>
        <time>2016-12-11T09:15:55.412Z</time>
      </trkpt>
      <trkpt lat="48.03913" lon="2.81753">
        <ele>115</ele>
        <time>2016-12-11T09:15:56.411Z</time>
      </trkpt>
      <trkpt lat="48.03913" lon="2.81753">
        <ele>115</ele>
        <time>2016-12-11T09:15:57.399Z</time>
      </trkpt>
      <trkpt lat="48.03915" lon="2.81747">
        <ele>115</ele>
        <time>2016-12-11T09:15:58.398Z</time>
      </trkpt>
      <trkpt lat="48.03917" lon="2.81743">
        <ele>116</ele>
        <time>2016-12-11T09:15:59.427Z</time>
      </trkpt>
      <trkpt lat="48.03917" lon="2.81743">
        <ele>116</ele>
        <time>2016-12-11T09:16:00.415Z</time>
      </trkpt>
      <trkpt lat="48.03919" lon="2.81737">
        <ele>116</ele>
        <time>2016-12-11T09:16:01.408Z</time>
      </trkpt>
      <trkpt lat="48.03919" lon="2.81733">
        <ele>116</ele>
        <time>2016-12-11T09:16:02.403Z</time>
      </trkpt>
      <trkpt lat="48.03919" lon="2.81733">
        <ele>116</ele>
        <time>2016-12-11T09:16:03.433Z</time>
      </trkpt>
      <trkpt lat="48.03921" lon="2.81726">
        <ele>117</ele>
        <time>2016-12-11T09:16:04.398Z</time>
      </trkpt>
      <trkpt lat="48.03922" lon="2.81723">
        <ele>117</ele>
        <time>2016-12-11T09:16:05.427Z</time>
      </trkpt>
      <trkpt lat="48.03922" lon="2.81723">
        <ele>117</ele>
        <time>2016-12-11T09:16:06.414Z</time>
      </trkpt>
      <trkpt lat="48.03924" lon="2.81716">
        <ele>117</ele>
        <time>2016-12-11T09:16:07.431Z</time>
      </trkpt>
      <trkpt lat="48.03924" lon="2.81716">
        <ele>117</ele>
        <time>2016-12-11T09:16:08.419Z</time>
      </trkpt>
      <trkpt lat="48.03926" lon="2.81708">
        <ele>118</ele>
        <time>2016-12-11T09:16:09.409Z</time>
      </trkpt>
      <trkpt lat="48.03927" lon="2.81705">
        <ele>118</ele>
        <time>2016-12-11T09:16:10.404Z</time>
      </trkpt>
      <trkpt lat="48.03927" lon="2.81705">
        <ele>118</ele>
        <time>2016-12-11T09:16:11.433Z</time>
      </trkpt>
      <trkpt lat="48.03928" lon="2.81698">
        <ele>117</ele>
        <time>2016-12-11T09:16:12.401Z</time>
      </trkpt>
      <trkpt lat="48.03928" lon="2.81694">
        <ele>117</ele>
        <time>2016-12-11T09:16:13.434Z</time>
      </trkpt>
      <trkpt lat="48.03928" lon="2.81691">
        <ele>117</ele>
        <time>2016-12-11T09:16:14.415Z</time>
      </trkpt>
      <trkpt lat="48.03928" lon="2.81691">
        <ele>117</ele>
        <time>2016-12-11T09:16:15.403Z</time>
      </trkpt>
      <trkpt lat="48.03929" lon="2.81684">
        <ele>117</ele>
        <time>2016-12-11T09:16:16.433Z</time>
      </trkpt>
      <trkpt lat="48.03929" lon="2.81684">
        <ele>117</ele>
        <time>2016-12-11T09:16:17.425Z</time>
      </trkpt>
      <trkpt lat="48.0393" lon="2.81678">
        <ele>116</ele>
        <time>2016-12-11T09:16:18.435Z</time>
      </trkpt>
      <trkpt lat="48.0393" lon="2.81678">
        <ele>116</ele>
        <time>2016-12-11T09:16:19.401Z</time>
      </trkpt>
      <trkpt lat="48.03931" lon="2.81671">
        <ele>117</ele>
        <time>2016-12-11T09:16:20.407Z</time>
      </trkpt>
      <trkpt lat="48.03931" lon="2.81671">
        <ele>117</ele>
        <time>2016-12-11T09:16:21.412Z</time>
      </trkpt>
      <trkpt lat="48.03932" lon="2.81664">
        <ele>117</ele>
        <time>2016-12-11T09:16:22.407Z</time>
      </trkpt>
      <trkpt lat="48.03932" lon="2.81664">
        <ele>117</ele>
        <time>2016-12-11T09:16:23.396Z</time>
      </trkpt>
      <trkpt lat="48.03933" lon="2.81657">
        <ele>117</ele>
        <time>2016-12-11T09:16:24.425Z</time>
      </trkpt>
      <trkpt lat="48.03933" lon="2.81657">
        <ele>117</ele>
        <time>2016-12-11T09:16:25.413Z</time>
      </trkpt>
      <trkpt lat="48.03934" lon="2.81652">
        <ele>118</ele>
        <time>2016-12-11T09:16:26.402Z</time>
      </trkpt>
      <trkpt lat="48.03934" lon="2.81652">
        <ele>118</ele>
        <time>2016-12-11T09:16:27.433Z</time>
      </trkpt>
      <trkpt lat="48.03935" lon="2.81645">
        <ele>118</ele>
        <time>2016-12-11T09:16:28.399Z</time>
      </trkpt>
      <trkpt lat="48.03934" lon="2.81641">
        <ele>119</ele>
        <time>2016-12-11T09:16:29.428Z</time>
      </trkpt>
      <trkpt lat="48.03934" lon="2.81641">
        <ele>119</ele>
        <time>2016-12-11T09:16:30.418Z</time>
      </trkpt>
      <trkpt lat="48.03932" lon="2.81633">
        <ele>118</ele>
        <time>2016-12-11T09:16:31.425Z</time>
      </trkpt>
      <trkpt lat="48.0393" lon="2.8163">
        <ele>119</ele>
        <time>2016-12-11T09:16:32.420Z</time>
      </trkpt>
      <trkpt lat="48.0393" lon="2.8163">
        <ele>119</ele>
        <time>2016-12-11T09:16:33.408Z</time>
      </trkpt>
      <trkpt lat="48.03929" lon="2.81621">
        <ele>119</ele>
        <time>2016-12-11T09:16:34.411Z</time>
      </trkpt>
      <trkpt lat="48.0393" lon="2.81616">
        <ele>120</ele>
        <time>2016-12-11T09:16:35.399Z</time>
      </trkpt>
      <trkpt lat="48.0393" lon="2.81616">
        <ele>120</ele>
        <time>2016-12-11T09:16:36.433Z</time>
      </trkpt>
      <trkpt lat="48.03934" lon="2.81608">
        <ele>119</ele>
        <time>2016-12-11T09:16:37.400Z</time>
      </trkpt>
      <trkpt lat="48.03936" lon="2.81605">
        <ele>119</ele>
        <time>2016-12-11T09:16:38.429Z</time>
      </trkpt>
      <trkpt lat="48.03936" lon="2.81605">
        <ele>119</ele>
        <time>2016-12-11T09:16:39.418Z</time>
      </trkpt>
      <trkpt lat="48.0394" lon="2.81597">
        <ele>118</ele>
        <time>2016-12-11T09:16:40.421Z</time>
      </trkpt>
      <trkpt lat="48.03942" lon="2.81594">
        <ele>118</ele>
        <time>2016-12-11T09:16:41.411Z</time>
      </trkpt>
      <trkpt lat="48.03942" lon="2.81594">
        <ele>118</ele>
        <time>2016-12-11T09:16:42.398Z</time>
      </trkpt>
      <trkpt lat="48.03946" lon="2.81587">
        <ele>118</ele>
        <time>2016-12-11T09:16:43.426Z</time>
      </trkpt>
      <trkpt lat="48.03946" lon="2.81587">
        <ele>118</ele>
        <time>2016-12-11T09:16:44.415Z</time>
      </trkpt>
      <trkpt lat="48.03948" lon="2.81578">
        <ele>119</ele>
        <time>2016-12-11T09:16:45.414Z</time>
      </trkpt>
      <trkpt lat="48.03948" lon="2.81578">
        <ele>119</ele>
        <time>2016-12-11T09:16:46.401Z</time>
      </trkpt>
      <trkpt lat="48.03949" lon="2.8157">
        <ele>120</ele>
        <time>2016-12-11T09:16:47.431Z</time>
      </trkpt>
      <trkpt lat="48.03949" lon="2.8157">
        <ele>120</ele>
        <time>2016-12-11T09:16:48.401Z</time>
      </trkpt>
      <trkpt lat="48.0395" lon="2.81561">
        <ele>120</ele>
        <time>2016-12-11T09:16:49.430Z</time>
      </trkpt>
      <trkpt lat="48.0395" lon="2.81561">
        <ele>120</ele>
        <time>2016-12-11T09:16:50.418Z</time>
      </trkpt>
      <trkpt lat="48.0395" lon="2.81552">
        <ele>121</ele>
        <time>2016-12-11T09:16:51.413Z</time>
      </trkpt>
      <trkpt lat="48.03951" lon="2.81547">
        <ele>122</ele>
        <time>2016-12-11T09:16:52.420Z</time>
      </trkpt>
      <trkpt lat="48.03951" lon="2.81547">
        <ele>122</ele>
        <time>2016-12-11T09:16:53.408Z</time>
      </trkpt>
      <trkpt lat="48.03953" lon="2.81538">
        <ele>123</ele>
        <time>2016-12-11T09:16:54.399Z</time>
      </trkpt>
      <trkpt lat="48.03953" lon="2.81538">
        <ele>123</ele>
        <time>2016-12-11T09:16:55.426Z</time>
      </trkpt>
      <trkpt lat="48.03955" lon="2.81529">
        <ele>124</ele>
        <time>2016-12-11T09:16:56.423Z</time>
      </trkpt>
      <trkpt lat="48.03955" lon="2.81529">
        <ele>124</ele>
        <time>2016-12-11T09:16:57.411Z</time>
      </trkpt>
      <trkpt lat="48.03957" lon="2.81521">
        <ele>124</ele>
        <time>2016-12-11T09:16:58.403Z</time>
      </trkpt>
      <trkpt lat="48.03959" lon="2.81515">
        <ele>123</ele>
        <time>2016-12-11T09:16:59.398Z</time>
      </trkpt>
      <trkpt lat="48.03961" lon="2.8151">
        <ele>123</ele>
        <time>2016-12-11T09:17:00.429Z</time>
      </trkpt>
      <trkpt lat="48.03961" lon="2.8151">
        <ele>123</ele>
        <time>2016-12-11T09:17:01.423Z</time>
      </trkpt>
      <trkpt lat="48.03964" lon="2.81499">
        <ele>122</ele>
        <time>2016-12-11T09:17:02.400Z</time>
      </trkpt>
      <trkpt lat="48.03964" lon="2.81499">
        <ele>122</ele>
        <time>2016-12-11T09:17:03.428Z</time>
      </trkpt>
      <trkpt lat="48.03967" lon="2.81489">
        <ele>123</ele>
        <time>2016-12-11T09:17:04.420Z</time>
      </trkpt>
      <trkpt lat="48.03967" lon="2.81489">
        <ele>123</ele>
        <time>2016-12-11T09:17:05.408Z</time>
      </trkpt>
      <trkpt lat="48.0397" lon="2.81479">
        <ele>124</ele>
        <time>2016-12-11T09:17:06.403Z</time>
      </trkpt>
      <trkpt lat="48.0397" lon="2.81479">
        <ele>124</ele>
        <time>2016-12-11T09:17:07.403Z</time>
      </trkpt>
      <trkpt lat="48.03973" lon="2.81469">
        <ele>124</ele>
        <time>2016-12-11T09:17:08.433Z</time>
      </trkpt>
      <trkpt lat="48.03973" lon="2.81469">
        <ele>124</ele>
        <time>2016-12-11T09:17:09.397Z</time>
      </trkpt>
      <trkpt lat="48.03976" lon="2.81459">
        <ele>124</ele>
        <time>2016-12-11T09:17:10.429Z</time>
      </trkpt>
      <trkpt lat="48.03976" lon="2.81459">
        <ele>124</ele>
        <time>2016-12-11T09:17:11.426Z</time>
      </trkpt>
      <trkpt lat="48.03979" lon="2.81449">
        <ele>123</ele>
        <time>2016-12-11T09:17:12.415Z</time>
      </trkpt>
      <trkpt lat="48.03981" lon="2.81444">
        <ele>124</ele>
        <time>2016-12-11T09:17:13.411Z</time>
      </trkpt>
      <trkpt lat="48.03982" lon="2.81439">
        <ele>124</ele>
        <time>2016-12-11T09:17:14.415Z</time>
      </trkpt>
      <trkpt lat="48.03982" lon="2.81439">
        <ele>124</ele>
        <time>2016-12-11T09:17:15.402Z</time>
      </trkpt>
      <trkpt lat="48.03985" lon="2.81428">
        <ele>124</ele>
        <time>2016-12-11T09:17:16.405Z</time>
      </trkpt>
      <trkpt lat="48.03985" lon="2.81428">
        <ele>124</ele>
        <time>2016-12-11T09:17:17.417Z</time>
      </trkpt>
      <trkpt lat="48.03988" lon="2.81419">
        <ele>125</ele>
        <time>2016-12-11T09:17:18.434Z</time>
      </trkpt>
      <trkpt lat="48.03989" lon="2.81414">
        <ele>125</ele>
        <time>2016-12-11T09:17:19.400Z</time>
      </trkpt>
      <trkpt lat="48.03991" lon="2.81409">
        <ele>125</ele>
        <time>2016-12-11T09:17:20.406Z</time>
      </trkpt>
      <trkpt lat="48.03992" lon="2.81403">
        <ele>126</ele>
        <time>2016-12-11T09:17:21.406Z</time>
      </trkpt>
      <trkpt lat="48.03992" lon="2.81403">
        <ele>126</ele>
        <time>2016-12-11T09:17:22.397Z</time>
      </trkpt>
      <trkpt lat="48.03995" lon="2.81392">
        <ele>125</ele>
        <time>2016-12-11T09:17:23.426Z</time>
      </trkpt>
      <trkpt lat="48.03995" lon="2.81392">
        <ele>125</ele>
        <time>2016-12-11T09:17:24.408Z</time>
      </trkpt>
      <trkpt lat="48.03998" lon="2.81381">
        <ele>124</ele>
        <time>2016-12-11T09:17:25.398Z</time>
      </trkpt>
      <trkpt lat="48.04" lon="2.81376">
        <ele>124</ele>
        <time>2016-12-11T09:17:26.430Z</time>
      </trkpt>
      <trkpt lat="48.04" lon="2.81376">
        <ele>124</ele>
        <time>2016-12-11T09:17:27.420Z</time>
      </trkpt>
      <trkpt lat="48.04003" lon="2.81365">
        <ele>124</ele>
        <time>2016-12-11T09:17:28.423Z</time>
      </trkpt>
      <trkpt lat="48.04003" lon="2.81365">
        <ele>124</ele>
        <time>2016-12-11T09:17:29.411Z</time>
      </trkpt>
      <trkpt lat="48.04007" lon="2.81352">
        <ele>125</ele>
        <time>2016-12-11T09:17:30.405Z</time>
      </trkpt>
      <trkpt lat="48.04007" lon="2.81352">
        <ele>125</ele>
        <time>2016-12-11T09:17:31.434Z</time>
      </trkpt>
      <trkpt lat="48.0401" lon="2.81341">
        <ele>126</ele>
        <time>2016-12-11T09:17:32.400Z</time>
      </trkpt>
      <trkpt lat="48.04012" lon="2.81335">
        <ele>126</ele>
        <time>2016-12-11T09:17:33.431Z</time>
      </trkpt>
      <trkpt lat="48.04012" lon="2.81335">
        <ele>126</ele>
        <time>2016-12-11T09:17:34.412Z</time>
      </trkpt>
      <trkpt lat="48.04015" lon="2.81323">
        <ele>127</ele>
        <time>2016-12-11T09:17:35.405Z</time>
      </trkpt>
      <trkpt lat="48.04015" lon="2.81323">
        <ele>127</ele>
        <time>2016-12-11T09:17:36.435Z</time>
      </trkpt>
      <trkpt lat="48.04017" lon="2.81311">
        <ele>128</ele>
        <time>2016-12-11T09:17:37.404Z</time>
      </trkpt>
      <trkpt lat="48.04018" lon="2.81304">
        <ele>128</ele>
        <time>2016-12-11T09:17:38.397Z</time>
      </trkpt>
      <trkpt lat="48.0402" lon="2.81298">
        <ele>128</ele>
        <time>2016-12-11T09:17:39.426Z</time>
      </trkpt>
      <trkpt lat="48.0402" lon="2.81298">
        <ele>128</ele>
        <time>2016-12-11T09:17:40.415Z</time>
      </trkpt>
      <trkpt lat="48.04022" lon="2.81283">
        <ele>128</ele>
        <time>2016-12-11T09:17:41.397Z</time>
      </trkpt>
      <trkpt lat="48.04023" lon="2.81277">
        <ele>128</ele>
        <time>2016-12-11T09:17:42.425Z</time>
      </trkpt>
      <trkpt lat="48.04024" lon="2.81272">
        <ele>128</ele>
        <time>2016-12-11T09:17:43.423Z</time>
      </trkpt>
      <trkpt lat="48.04026" lon="2.81266">
        <ele>128</ele>
        <time>2016-12-11T09:17:44.426Z</time>
      </trkpt>
      <trkpt lat="48.04026" lon="2.81266">
        <ele>128</ele>
        <time>2016-12-11T09:17:45.415Z</time>
      </trkpt>
      <trkpt lat="48.04029" lon="2.81253">
        <ele>129</ele>
        <time>2016-12-11T09:17:46.416Z</time>
      </trkpt>
      <trkpt lat="48.04031" lon="2.81247">
        <ele>129</ele>
        <time>2016-12-11T09:17:47.414Z</time>
      </trkpt>
      <trkpt lat="48.04031" lon="2.81247">
        <ele>129</ele>
        <time>2016-12-11T09:17:48.404Z</time>
      </trkpt>
      <trkpt lat="48.04034" lon="2.81234">
        <ele>129</ele>
        <time>2016-12-11T09:17:49.399Z</time>
      </trkpt>
      <trkpt lat="48.04034" lon="2.81234">
        <ele>129</ele>
        <time>2016-12-11T09:17:50.428Z</time>
      </trkpt>
      <trkpt lat="48.04038" lon="2.81221">
        <ele>128</ele>
        <time>2016-12-11T09:17:51.427Z</time>
      </trkpt>
      <trkpt lat="48.0404" lon="2.81215">
        <ele>128</ele>
        <time>2016-12-11T09:17:52.421Z</time>
      </trkpt>
      <trkpt lat="48.04041" lon="2.81209">
        <ele>128</ele>
        <time>2016-12-11T09:17:53.411Z</time>
      </trkpt>
      <trkpt lat="48.04041" lon="2.81209">
        <ele>128</ele>
        <time>2016-12-11T09:17:54.399Z</time>
      </trkpt>
      <trkpt lat="48.04045" lon="2.81196">
        <ele>127</ele>
        <time>2016-12-11T09:17:55.427Z</time>
      </trkpt>
      <trkpt lat="48.04045" lon="2.81196">
        <ele>127</ele>
        <time>2016-12-11T09:17:56.416Z</time>
      </trkpt>
      <trkpt lat="48.04048" lon="2.81182">
        <ele>127</ele>
        <time>2016-12-11T09:17:57.411Z</time>
      </trkpt>
      <trkpt lat="48.04048" lon="2.81182">
        <ele>127</ele>
        <time>2016-12-11T09:17:58.399Z</time>
      </trkpt>
      <trkpt lat="48.04049" lon="2.81165">
        <ele>125</ele>
        <time>2016-12-11T09:17:59.428Z</time>
      </trkpt>
      <trkpt lat="48.04049" lon="2.81165">
        <ele>125</ele>
        <time>2016-12-11T09:18:00.419Z</time>
      </trkpt>
      <trkpt lat="48.0405" lon="2.81146">
        <ele>124</ele>
        <time>2016-12-11T09:18:01.412Z</time>
      </trkpt>
      <trkpt lat="48.0405" lon="2.81135">
        <ele>123</ele>
        <time>2016-12-11T09:18:02.400Z</time>
      </trkpt>
      <trkpt lat="48.0405" lon="2.81123">
        <ele>122</ele>
        <time>2016-12-11T09:18:03.428Z</time>
      </trkpt>
      <trkpt lat="48.0405" lon="2.81123">
        <ele>122</ele>
        <time>2016-12-11T09:18:04.416Z</time>
      </trkpt>
      <trkpt lat="48.04052" lon="2.81099">
        <ele>121</ele>
        <time>2016-12-11T09:18:05.406Z</time>
      </trkpt>
      <trkpt lat="48.04055" lon="2.81088">
        <ele>121</ele>
        <time>2016-12-11T09:18:06.400Z</time>
      </trkpt>
      <trkpt lat="48.04055" lon="2.81088">
        <ele>121</ele>
        <time>2016-12-11T09:18:07.429Z</time>
      </trkpt>
      <trkpt lat="48.04063" lon="2.81067">
        <ele>120</ele>
        <time>2016-12-11T09:18:08.421Z</time>
      </trkpt>
      <trkpt lat="48.04063" lon="2.81067">
        <ele>120</ele>
        <time>2016-12-11T09:18:09.408Z</time>
      </trkpt>
      <trkpt lat="48.04071" lon="2.81051">
        <ele>119</ele>
        <time>2016-12-11T09:18:10.432Z</time>
      </trkpt>
      <trkpt lat="48.04071" lon="2.81051">
        <ele>119</ele>
        <time>2016-12-11T09:18:11.436Z</time>
      </trkpt>
      <trkpt lat="48.04079" lon="2.81035">
        <ele>117</ele>
        <time>2016-12-11T09:18:12.404Z</time>
      </trkpt>
      <trkpt lat="48.04079" lon="2.81035">
        <ele>117</ele>
        <time>2016-12-11T09:18:13.397Z</time>
      </trkpt>
      <trkpt lat="48.0409" lon="2.81018">
        <ele>113</ele>
        <time>2016-12-11T09:18:14.430Z</time>
      </trkpt>
      <trkpt lat="48.0409" lon="2.81018">
        <ele>113</ele>
        <time>2016-12-11T09:18:15.419Z</time>
      </trkpt>
      <trkpt lat="48.04102" lon="2.81005">
        <ele>111</ele>
        <time>2016-12-11T09:18:16.413Z</time>
      </trkpt>
      <trkpt lat="48.04102" lon="2.81005">
        <ele>111</ele>
        <time>2016-12-11T09:18:17.427Z</time>
      </trkpt>
      <trkpt lat="48.04115" lon="2.80992">
        <ele>109</ele>
        <time>2016-12-11T09:18:18.399Z</time>
      </trkpt>
      <trkpt lat="48.04122" lon="2.80985">
        <ele>107</ele>
        <time>2016-12-11T09:18:19.405Z</time>
      </trkpt>
      <trkpt lat="48.04128" lon="2.80978">
        <ele>107</ele>
        <time>2016-12-11T09:18:20.410Z</time>
      </trkpt>
      <trkpt lat="48.04128" lon="2.80978">
        <ele>107</ele>
        <time>2016-12-11T09:18:21.401Z</time>
      </trkpt>
      <trkpt lat="48.04141" lon="2.80961">
        <ele>104</ele>
        <time>2016-12-11T09:18:22.430Z</time>
      </trkpt>
      <trkpt lat="48.04148" lon="2.80954">
        <ele>101</ele>
        <time>2016-12-11T09:18:23.420Z</time>
      </trkpt>
      <trkpt lat="48.04156" lon="2.80945">
        <ele>99</ele>
        <time>2016-12-11T09:18:24.416Z</time>
      </trkpt>
      <trkpt lat="48.04156" lon="2.80945">
        <ele>99</ele>
        <time>2016-12-11T09:18:25.404Z</time>
      </trkpt>
      <trkpt lat="48.04173" lon="2.80928">
        <ele>96</ele>
        <time>2016-12-11T09:18:26.435Z</time>
      </trkpt>
      <trkpt lat="48.04173" lon="2.80928">
        <ele>96</ele>
        <time>2016-12-11T09:18:27.402Z</time>
      </trkpt>
      <trkpt lat="48.04188" lon="2.80913">
        <ele>93</ele>
        <time>2016-12-11T09:18:28.431Z</time>
      </trkpt>
      <trkpt lat="48.04188" lon="2.80913">
        <ele>93</ele>
        <time>2016-12-11T09:18:29.419Z</time>
      </trkpt>
      <trkpt lat="48.04198" lon="2.80904">
        <ele>91</ele>
        <time>2016-12-11T09:18:30.409Z</time>
      </trkpt>
      <trkpt lat="48.04201" lon="2.80903">
        <ele>90</ele>
        <time>2016-12-11T09:18:31.405Z</time>
      </trkpt>
      <trkpt lat="48.04203" lon="2.80902">
        <ele>90</ele>
        <time>2016-12-11T09:18:32.399Z</time>
      </trkpt>
      <trkpt lat="48.04204" lon="2.80902">
        <ele>89</ele>
        <time>2016-12-11T09:18:33.427Z</time>
      </trkpt>
      <trkpt lat="48.04204" lon="2.80902">
        <ele>89</ele>
        <time>2016-12-11T09:18:34.416Z</time>
      </trkpt>
      <trkpt lat="48.04205" lon="2.80904">
        <ele>89</ele>
        <time>2016-12-11T09:18:35.407Z</time>
      </trkpt>
      <trkpt lat="48.04205" lon="2.80907">
        <ele>88</ele>
        <time>2016-12-11T09:18:36.406Z</time>
      </trkpt>
      <trkpt lat="48.04205" lon="2.80907">
        <ele>88</ele>
        <time>2016-12-11T09:18:37.408Z</time>
      </trkpt>
      <trkpt lat="48.04206" lon="2.80909">
        <ele>88</ele>
        <time>2016-12-11T09:18:38.399Z</time>
      </trkpt>
      <trkpt lat="48.04207" lon="2.80911">
        <ele>87</ele>
        <time>2016-12-11T09:18:39.429Z</time>
      </trkpt>
      <trkpt lat="48.04207" lon="2.80911">
        <ele>87</ele>
        <time>2016-12-11T09:18:40.419Z</time>
      </trkpt>
      <trkpt lat="48.0421" lon="2.80917">
        <ele>88</ele>
        <time>2016-12-11T09:18:41.427Z</time>
      </trkpt>
      <trkpt lat="48.0421" lon="2.80917">
        <ele>88</ele>
        <time>2016-12-11T09:18:42.416Z</time>
      </trkpt>
      <trkpt lat="48.04213" lon="2.8092">
        <ele>89</ele>
        <time>2016-12-11T09:18:43.414Z</time>
      </trkpt>
      <trkpt lat="48.04214" lon="2.80922">
        <ele>89</ele>
        <time>2016-12-11T09:18:44.419Z</time>
      </trkpt>
      <trkpt lat="48.04214" lon="2.80922">
        <ele>89</ele>
        <time>2016-12-11T09:18:45.407Z</time>
      </trkpt>
      <trkpt lat="48.04215" lon="2.80925">
        <ele>90</ele>
        <time>2016-12-11T09:18:46.401Z</time>
      </trkpt>
      <trkpt lat="48.04215" lon="2.80925">
        <ele>90</ele>
        <time>2016-12-11T09:18:47.428Z</time>
      </trkpt>
      <trkpt lat="48.04218" lon="2.80929">
        <ele>90</ele>
        <time>2016-12-11T09:18:48.420Z</time>
      </trkpt>
      <trkpt lat="48.04218" lon="2.80929">
        <ele>90</ele>
        <time>2016-12-11T09:18:49.408Z</time>
      </trkpt>
      <trkpt lat="48.04221" lon="2.80931">
        <ele>90</ele>
        <time>2016-12-11T09:18:50.399Z</time>
      </trkpt>
      <trkpt lat="48.04221" lon="2.80931">
        <ele>90</ele>
        <time>2016-12-11T09:18:51.427Z</time>
      </trkpt>
      <trkpt lat="48.04224" lon="2.80932">
        <ele>91</ele>
        <time>2016-12-11T09:18:52.421Z</time>
      </trkpt>
      <trkpt lat="48.04224" lon="2.80932">
        <ele>91</ele>
        <time>2016-12-11T09:18:53.413Z</time>
      </trkpt>
      <trkpt lat="48.04224" lon="2.80932">
        <ele>92</ele>
        <time>2016-12-11T09:18:54.409Z</time>
      </trkpt>
      <trkpt lat="48.04224" lon="2.80932">
        <ele>92</ele>
        <time>2016-12-11T09:18:55.398Z</time>
      </trkpt>
      <trkpt lat="48.04224" lon="2.80932">
        <ele>92</ele>
        <time>2016-12-11T09:18:56.397Z</time>
      </trkpt>
      <trkpt lat="48.04224" lon="2.80932">
        <ele>92</ele>
        <time>2016-12-11T09:18:57.425Z</time>
      </trkpt>
      <trkpt lat="48.04229" lon="2.80934">
        <ele>96</ele>
        <time>2016-12-11T09:18:58.431Z</time>
      </trkpt>
      <trkpt lat="48.0423" lon="2.80935">
        <ele>96</ele>
        <time>2016-12-11T09:18:59.404Z</time>
      </trkpt>
      <trkpt lat="48.0423" lon="2.80935">
        <ele>96</ele>
        <time>2016-12-11T09:19:00.425Z</time>
      </trkpt>
      <trkpt lat="48.04232" lon="2.80938">
        <ele>96</ele>
        <time>2016-12-11T09:19:01.418Z</time>
      </trkpt>
      <trkpt lat="48.04233" lon="2.80939">
        <ele>96</ele>
        <time>2016-12-11T09:19:02.412Z</time>
      </trkpt>
      <trkpt lat="48.04233" lon="2.80939">
        <ele>96</ele>
        <time>2016-12-11T09:19:03.400Z</time>
      </trkpt>
      <trkpt lat="48.04234" lon="2.80941">
        <ele>96</ele>
        <time>2016-12-11T09:19:04.430Z</time>
      </trkpt>
      <trkpt lat="48.04235" lon="2.80942">
        <ele>96</ele>
        <time>2016-12-11T09:19:05.430Z</time>
      </trkpt>
      <trkpt lat="48.04235" lon="2.80942">
        <ele>96</ele>
        <time>2016-12-11T09:19:06.398Z</time>
      </trkpt>
      <trkpt lat="48.04238" lon="2.80944">
        <ele>97</ele>
        <time>2016-12-11T09:19:07.426Z</time>
      </trkpt>
      <trkpt lat="48.04238" lon="2.80944">
        <ele>97</ele>
        <time>2016-12-11T09:19:08.429Z</time>
      </trkpt>
      <trkpt lat="48.0424" lon="2.80945">
        <ele>97</ele>
        <time>2016-12-11T09:19:09.428Z</time>
      </trkpt>
      <trkpt lat="48.0424" lon="2.80945">
        <ele>97</ele>
        <time>2016-12-11T09:19:10.408Z</time>
      </trkpt>
      <trkpt lat="48.04243" lon="2.80946">
        <ele>98</ele>
        <time>2016-12-11T09:19:11.431Z</time>
      </trkpt>
      <trkpt lat="48.04245" lon="2.80947">
        <ele>98</ele>
        <time>2016-12-11T09:19:12.415Z</time>
      </trkpt>
      <trkpt lat="48.04245" lon="2.80947">
        <ele>98</ele>
        <time>2016-12-11T09:19:13.404Z</time>
      </trkpt>
      <trkpt lat="48.04247" lon="2.80949">
        <ele>98</ele>
        <time>2016-12-11T09:19:14.433Z</time>
      </trkpt>
      <trkpt lat="48.04248" lon="2.80951">
        <ele>98</ele>
        <time>2016-12-11T09:19:15.402Z</time>
      </trkpt>
      <trkpt lat="48.04248" lon="2.80951">
        <ele>98</ele>
        <time>2016-12-11T09:19:16.431Z</time>
      </trkpt>
      <trkpt lat="48.0425" lon="2.80954">
        <ele>98</ele>
        <time>2016-12-11T09:19:17.428Z</time>
      </trkpt>
      <trkpt lat="48.0425" lon="2.80954">
        <ele>98</ele>
        <time>2016-12-11T09:19:18.407Z</time>
      </trkpt>
      <trkpt lat="48.04252" lon="2.80956">
        <ele>99</ele>
        <time>2016-12-11T09:19:19.413Z</time>
      </trkpt>
      <trkpt lat="48.04252" lon="2.80956">
        <ele>99</ele>
        <time>2016-12-11T09:19:20.421Z</time>
      </trkpt>
      <trkpt lat="48.04255" lon="2.80957">
        <ele>99</ele>
        <time>2016-12-11T09:19:21.415Z</time>
      </trkpt>
      <trkpt lat="48.04255" lon="2.80957">
        <ele>99</ele>
        <time>2016-12-11T09:19:22.403Z</time>
      </trkpt>
      <trkpt lat="48.04257" lon="2.80959">
        <ele>100</ele>
        <time>2016-12-11T09:19:23.407Z</time>
      </trkpt>
      <trkpt lat="48.04257" lon="2.80959">
        <ele>100</ele>
        <time>2016-12-11T09:19:24.397Z</time>
      </trkpt>
      <trkpt lat="48.0426" lon="2.80961">
        <ele>100</ele>
        <time>2016-12-11T09:19:25.436Z</time>
      </trkpt>
      <trkpt lat="48.04261" lon="2.80962">
        <ele>100</ele>
        <time>2016-12-11T09:19:26.408Z</time>
      </trkpt>
      <trkpt lat="48.04261" lon="2.80962">
        <ele>100</ele>
        <time>2016-12-11T09:19:27.396Z</time>
      </trkpt>
      <trkpt lat="48.04263" lon="2.80963">
        <ele>101</ele>
        <time>2016-12-11T09:19:28.396Z</time>
      </trkpt>
      <trkpt lat="48.04264" lon="2.80963">
        <ele>101</ele>
        <time>2016-12-11T09:19:29.397Z</time>
      </trkpt>
      <trkpt lat="48.04265" lon="2.80963">
        <ele>101</ele>
        <time>2016-12-11T09:19:30.397Z</time>
      </trkpt>
      <trkpt lat="48.04265" lon="2.80963">
        <ele>101</ele>
        <time>2016-12-11T09:19:31.428Z</time>
      </trkpt>
      <trkpt lat="48.04266" lon="2.80964">
        <ele>101</ele>
        <time>2016-12-11T09:19:32.396Z</time>
      </trkpt>
      <trkpt lat="48.04266" lon="2.80964">
        <ele>101</ele>
        <time>2016-12-11T09:19:33.424Z</time>
      </trkpt>
      <trkpt lat="48.04268" lon="2.80964">
        <ele>102</ele>
        <time>2016-12-11T09:19:34.406Z</time>
      </trkpt>
      <trkpt lat="48.04269" lon="2.80965">
        <ele>102</ele>
        <time>2016-12-11T09:19:35.427Z</time>
      </trkpt>
      <trkpt lat="48.04269" lon="2.80965">
        <ele>102</ele>
        <time>2016-12-11T09:19:36.434Z</time>
      </trkpt>
      <trkpt lat="48.04272" lon="2.80967">
        <ele>102</ele>
        <time>2016-12-11T09:19:37.414Z</time>
      </trkpt>
      <trkpt lat="48.04272" lon="2.80967">
        <ele>102</ele>
        <time>2016-12-11T09:19:38.402Z</time>
      </trkpt>
      <trkpt lat="48.04274" lon="2.80968">
        <ele>103</ele>
        <time>2016-12-11T09:19:39.400Z</time>
      </trkpt>
      <trkpt lat="48.04274" lon="2.80968">
        <ele>103</ele>
        <time>2016-12-11T09:19:40.435Z</time>
      </trkpt>
      <trkpt lat="48.04276" lon="2.80969">
        <ele>103</ele>
        <time>2016-12-11T09:19:41.412Z</time>
      </trkpt>
      <trkpt lat="48.04277" lon="2.8097">
        <ele>104</ele>
        <time>2016-12-11T09:19:42.407Z</time>
      </trkpt>
      <trkpt lat="48.04277" lon="2.8097">
        <ele>104</ele>
        <time>2016-12-11T09:19:43.397Z</time>
      </trkpt>
      <trkpt lat="48.0428" lon="2.80971">
        <ele>104</ele>
        <time>2016-12-11T09:19:44.433Z</time>
      </trkpt>
      <trkpt lat="48.0428" lon="2.80971">
        <ele>104</ele>
        <time>2016-12-11T09:19:45.400Z</time>
      </trkpt>
      <trkpt lat="48.04282" lon="2.80973">
        <ele>105</ele>
        <time>2016-12-11T09:19:46.435Z</time>
      </trkpt>
      <trkpt lat="48.04284" lon="2.80974">
        <ele>105</ele>
        <time>2016-12-11T09:19:47.429Z</time>
      </trkpt>
      <trkpt lat="48.04284" lon="2.80974">
        <ele>105</ele>
        <time>2016-12-11T09:19:48.435Z</time>
      </trkpt>
      <trkpt lat="48.04286" lon="2.80975">
        <ele>106</ele>
        <time>2016-12-11T09:19:49.412Z</time>
      </trkpt>
      <trkpt lat="48.04286" lon="2.80975">
        <ele>106</ele>
        <time>2016-12-11T09:19:50.401Z</time>
      </trkpt>
      <trkpt lat="48.04288" lon="2.80976">
        <ele>106</ele>
        <time>2016-12-11T09:19:51.431Z</time>
      </trkpt>
      <trkpt lat="48.04288" lon="2.80976">
        <ele>106</ele>
        <time>2016-12-11T09:19:52.397Z</time>
      </trkpt>
      <trkpt lat="48.0429" lon="2.80978">
        <ele>107</ele>
        <time>2016-12-11T09:19:53.400Z</time>
      </trkpt>
      <trkpt lat="48.0429" lon="2.80978">
        <ele>107</ele>
        <time>2016-12-11T09:19:54.429Z</time>
      </trkpt>
      <trkpt lat="48.04291" lon="2.8098">
        <ele>108</ele>
        <time>2016-12-11T09:19:55.413Z</time>
      </trkpt>
      <trkpt lat="48.04291" lon="2.8098">
        <ele>108</ele>
        <time>2016-12-11T09:19:56.401Z</time>
      </trkpt>
      <trkpt lat="48.04293" lon="2.80981">
        <ele>108</ele>
        <time>2016-12-11T09:19:57.396Z</time>
      </trkpt>
      <trkpt lat="48.04293" lon="2.80981">
        <ele>108</ele>
        <time>2016-12-11T09:19:58.426Z</time>
      </trkpt>
      <trkpt lat="48.04295" lon="2.80981">
        <ele>108</ele>
        <time>2016-12-11T09:19:59.415Z</time>
      </trkpt>
      <trkpt lat="48.04295" lon="2.80981">
        <ele>108</ele>
        <time>2016-12-11T09:20:00.402Z</time>
      </trkpt>
      <trkpt lat="48.04297" lon="2.80983">
        <ele>109</ele>
        <time>2016-12-11T09:20:01.406Z</time>
      </trkpt>
      <trkpt lat="48.04297" lon="2.80983">
        <ele>109</ele>
        <time>2016-12-11T09:20:02.434Z</time>
      </trkpt>
      <trkpt lat="48.043" lon="2.80983">
        <ele>110</ele>
        <time>2016-12-11T09:20:03.409Z</time>
      </trkpt>
      <trkpt lat="48.04301" lon="2.80984">
        <ele>111</ele>
        <time>2016-12-11T09:20:04.401Z</time>
      </trkpt>
      <trkpt lat="48.04302" lon="2.80984">
        <ele>111</ele>
        <time>2016-12-11T09:20:05.402Z</time>
      </trkpt>
      <trkpt lat="48.04302" lon="2.80984">
        <ele>111</ele>
        <time>2016-12-11T09:20:06.430Z</time>
      </trkpt>
      <trkpt lat="48.04305" lon="2.80986">
        <ele>112</ele>
        <time>2016-12-11T09:20:07.414Z</time>
      </trkpt>
      <trkpt lat="48.04305" lon="2.80986">
        <ele>112</ele>
        <time>2016-12-11T09:20:08.402Z</time>
      </trkpt>
      <trkpt lat="48.04308" lon="2.80988">
        <ele>113</ele>
        <time>2016-12-11T09:20:09.408Z</time>
      </trkpt>
      <trkpt lat="48.04308" lon="2.80988">
        <ele>113</ele>
        <time>2016-12-11T09:20:10.396Z</time>
      </trkpt>
      <trkpt lat="48.0431" lon="2.8099">
        <ele>113</ele>
        <time>2016-12-11T09:20:11.430Z</time>
      </trkpt>
      <trkpt lat="48.0431" lon="2.8099">
        <ele>113</ele>
        <time>2016-12-11T09:20:12.435Z</time>
      </trkpt>
      <trkpt lat="48.04311" lon="2.80991">
        <ele>114</ele>
        <time>2016-12-11T09:20:13.402Z</time>
      </trkpt>
      <trkpt lat="48.04311" lon="2.80991">
        <ele>114</ele>
        <time>2016-12-11T09:20:14.431Z</time>
      </trkpt>
      <trkpt lat="48.04313" lon="2.80992">
        <ele>115</ele>
        <time>2016-12-11T09:20:15.396Z</time>
      </trkpt>
      <trkpt lat="48.04313" lon="2.80992">
        <ele>115</ele>
        <time>2016-12-11T09:20:16.424Z</time>
      </trkpt>
      <trkpt lat="48.04316" lon="2.80994">
        <ele>115</ele>
        <time>2016-12-11T09:20:17.419Z</time>
      </trkpt>
      <trkpt lat="48.04316" lon="2.80994">
        <ele>115</ele>
        <time>2016-12-11T09:20:18.429Z</time>
      </trkpt>
      <trkpt lat="48.04318" lon="2.80995">
        <ele>116</ele>
        <time>2016-12-11T09:20:19.434Z</time>
      </trkpt>
      <trkpt lat="48.04318" lon="2.80995">
        <ele>116</ele>
        <time>2016-12-11T09:20:20.400Z</time>
      </trkpt>
      <trkpt lat="48.04322" lon="2.80995">
        <ele>116</ele>
        <time>2016-12-11T09:20:21.413Z</time>
      </trkpt>
      <trkpt lat="48.04323" lon="2.80995">
        <ele>117</ele>
        <time>2016-12-11T09:20:22.407Z</time>
      </trkpt>
      <trkpt lat="48.04324" lon="2.80995">
        <ele>117</ele>
        <time>2016-12-11T09:20:23.405Z</time>
      </trkpt>
      <trkpt lat="48.04324" lon="2.80995">
        <ele>117</ele>
        <time>2016-12-11T09:20:24.434Z</time>
      </trkpt>
      <trkpt lat="48.04328" lon="2.80995">
        <ele>116</ele>
        <time>2016-12-11T09:20:25.403Z</time>
      </trkpt>
      <trkpt lat="48.04328" lon="2.80995">
        <ele>116</ele>
        <time>2016-12-11T09:20:26.431Z</time>
      </trkpt>
      <trkpt lat="48.0433" lon="2.80994">
        <ele>117</ele>
        <time>2016-12-11T09:20:27.403Z</time>
      </trkpt>
      <trkpt lat="48.0433" lon="2.80994">
        <ele>117</ele>
        <time>2016-12-11T09:20:28.432Z</time>
      </trkpt>
      <trkpt lat="48.04332" lon="2.80994">
        <ele>117</ele>
        <time>2016-12-11T09:20:29.405Z</time>
      </trkpt>
      <trkpt lat="48.04332" lon="2.80994">
        <ele>117</ele>
        <time>2016-12-11T09:20:30.433Z</time>
      </trkpt>
      <trkpt lat="48.04335" lon="2.80992">
        <ele>116</ele>
        <time>2016-12-11T09:20:31.402Z</time>
      </trkpt>
      <trkpt lat="48.04335" lon="2.80992">
        <ele>116</ele>
        <time>2016-12-11T09:20:32.402Z</time>
      </trkpt>
      <trkpt lat="48.04338" lon="2.8099">
        <ele>115</ele>
        <time>2016-12-11T09:20:33.399Z</time>
      </trkpt>
      <trkpt lat="48.04338" lon="2.8099">
        <ele>115</ele>
        <time>2016-12-11T09:20:34.428Z</time>
      </trkpt>
      <trkpt lat="48.04342" lon="2.80987">
        <ele>115</ele>
        <time>2016-12-11T09:20:35.413Z</time>
      </trkpt>
      <trkpt lat="48.04342" lon="2.80987">
        <ele>115</ele>
        <time>2016-12-11T09:20:36.417Z</time>
      </trkpt>
      <trkpt lat="48.04344" lon="2.80984">
        <ele>115</ele>
        <time>2016-12-11T09:20:37.407Z</time>
      </trkpt>
      <trkpt lat="48.04344" lon="2.80984">
        <ele>115</ele>
        <time>2016-12-11T09:20:38.396Z</time>
      </trkpt>
      <trkpt lat="48.04346" lon="2.80983">
        <ele>115</ele>
        <time>2016-12-11T09:20:39.432Z</time>
      </trkpt>
      <trkpt lat="48.04346" lon="2.80983">
        <ele>115</ele>
        <time>2016-12-11T09:20:40.399Z</time>
      </trkpt>
      <trkpt lat="48.04349" lon="2.80982">
        <ele>115</ele>
        <time>2016-12-11T09:20:41.431Z</time>
      </trkpt>
      <trkpt lat="48.04351" lon="2.80982">
        <ele>115</ele>
        <time>2016-12-11T09:20:42.429Z</time>
      </trkpt>
      <trkpt lat="48.04351" lon="2.80982">
        <ele>115</ele>
        <time>2016-12-11T09:20:43.435Z</time>
      </trkpt>
      <trkpt lat="48.04354" lon="2.80981">
        <ele>115</ele>
        <time>2016-12-11T09:20:44.401Z</time>
      </trkpt>
      <trkpt lat="48.04354" lon="2.80981">
        <ele>115</ele>
        <time>2016-12-11T09:20:45.430Z</time>
      </trkpt>
      <trkpt lat="48.04359" lon="2.80978">
        <ele>115</ele>
        <time>2016-12-11T09:20:46.430Z</time>
      </trkpt>
      <trkpt lat="48.04363" lon="2.80975">
        <ele>116</ele>
        <time>2016-12-11T09:20:47.429Z</time>
      </trkpt>
      <trkpt lat="48.04363" lon="2.80975">
        <ele>116</ele>
        <time>2016-12-11T09:20:48.434Z</time>
      </trkpt>
      <trkpt lat="48.04369" lon="2.80969">
        <ele>115</ele>
        <time>2016-12-11T09:20:49.403Z</time>
      </trkpt>
      <trkpt lat="48.04369" lon="2.80969">
        <ele>115</ele>
        <time>2016-12-11T09:20:50.431Z</time>
      </trkpt>
      <trkpt lat="48.04375" lon="2.80963">
        <ele>114</ele>
        <time>2016-12-11T09:20:51.403Z</time>
      </trkpt>
      <trkpt lat="48.04375" lon="2.80963">
        <ele>114</ele>
        <time>2016-12-11T09:20:52.432Z</time>
      </trkpt>
      <trkpt lat="48.0438" lon="2.80958">
        <ele>113</ele>
        <time>2016-12-11T09:20:53.404Z</time>
      </trkpt>
      <trkpt lat="48.0438" lon="2.80958">
        <ele>113</ele>
        <time>2016-12-11T09:20:54.432Z</time>
      </trkpt>
      <trkpt lat="48.04385" lon="2.80951">
        <ele>113</ele>
        <time>2016-12-11T09:20:55.404Z</time>
      </trkpt>
      <trkpt lat="48.04385" lon="2.80951">
        <ele>113</ele>
        <time>2016-12-11T09:20:56.433Z</time>
      </trkpt>
      <trkpt lat="48.0439" lon="2.80945">
        <ele>115</ele>
        <time>2016-12-11T09:20:57.404Z</time>
      </trkpt>
      <trkpt lat="48.0439" lon="2.80945">
        <ele>115</ele>
        <time>2016-12-11T09:20:58.432Z</time>
      </trkpt>
      <trkpt lat="48.04395" lon="2.80937">
        <ele>115</ele>
        <time>2016-12-11T09:20:59.404Z</time>
      </trkpt>
      <trkpt lat="48.04395" lon="2.80937">
        <ele>115</ele>
        <time>2016-12-11T09:21:00.432Z</time>
      </trkpt>
      <trkpt lat="48.044" lon="2.80929">
        <ele>115</ele>
        <time>2016-12-11T09:21:01.413Z</time>
      </trkpt>
      <trkpt lat="48.04403" lon="2.80926">
        <ele>115</ele>
        <time>2016-12-11T09:21:02.415Z</time>
      </trkpt>
      <trkpt lat="48.04403" lon="2.80926">
        <ele>115</ele>
        <time>2016-12-11T09:21:03.403Z</time>
      </trkpt>
      <trkpt lat="48.04408" lon="2.80918">
        <ele>116</ele>
        <time>2016-12-11T09:21:04.430Z</time>
      </trkpt>
      <trkpt lat="48.04411" lon="2.80915">
        <ele>115</ele>
        <time>2016-12-11T09:21:05.400Z</time>
      </trkpt>
      <trkpt lat="48.04411" lon="2.80915">
        <ele>115</ele>
        <time>2016-12-11T09:21:06.429Z</time>
      </trkpt>
      <trkpt lat="48.04416" lon="2.80909">
        <ele>116</ele>
        <time>2016-12-11T09:21:07.398Z</time>
      </trkpt>
      <trkpt lat="48.04416" lon="2.80909">
        <ele>116</ele>
        <time>2016-12-11T09:21:08.426Z</time>
      </trkpt>
      <trkpt lat="48.0442" lon="2.80904">
        <ele>117</ele>
        <time>2016-12-11T09:21:09.409Z</time>
      </trkpt>
      <trkpt lat="48.0442" lon="2.80904">
        <ele>117</ele>
        <time>2016-12-11T09:21:10.397Z</time>
      </trkpt>
      <trkpt lat="48.04424" lon="2.80897">
        <ele>117</ele>
        <time>2016-12-11T09:21:11.435Z</time>
      </trkpt>
      <trkpt lat="48.04424" lon="2.80897">
        <ele>117</ele>
        <time>2016-12-11T09:21:12.403Z</time>
      </trkpt>
      <trkpt lat="48.04426" lon="2.80889">
        <ele>118</ele>
        <time>2016-12-11T09:21:13.399Z</time>
      </trkpt>
      <trkpt lat="48.04426" lon="2.80889">
        <ele>118</ele>
        <time>2016-12-11T09:21:14.429Z</time>
      </trkpt>
      <trkpt lat="48.04428" lon="2.80881">
        <ele>119</ele>
        <time>2016-12-11T09:21:15.396Z</time>
      </trkpt>
      <trkpt lat="48.04428" lon="2.80877">
        <ele>119</ele>
        <time>2016-12-11T09:21:16.424Z</time>
      </trkpt>
      <trkpt lat="48.04428" lon="2.80877">
        <ele>119</ele>
        <time>2016-12-11T09:21:17.426Z</time>
      </trkpt>
      <trkpt lat="48.04429" lon="2.8087">
        <ele>120</ele>
        <time>2016-12-11T09:21:18.424Z</time>
      </trkpt>
      <trkpt lat="48.04429" lon="2.8087">
        <ele>120</ele>
        <time>2016-12-11T09:21:19.430Z</time>
      </trkpt>
      <trkpt lat="48.04427" lon="2.80863">
        <ele>121</ele>
        <time>2016-12-11T09:21:20.396Z</time>
      </trkpt>
      <trkpt lat="48.04426" lon="2.8086">
        <ele>121</ele>
        <time>2016-12-11T09:21:21.423Z</time>
      </trkpt>
      <trkpt lat="48.04426" lon="2.8086">
        <ele>121</ele>
        <time>2016-12-11T09:21:22.413Z</time>
      </trkpt>
      <trkpt lat="48.04422" lon="2.80852">
        <ele>120</ele>
        <time>2016-12-11T09:21:23.404Z</time>
      </trkpt>
      <trkpt lat="48.04422" lon="2.80852">
        <ele>120</ele>
        <time>2016-12-11T09:21:24.433Z</time>
      </trkpt>
      <trkpt lat="48.04417" lon="2.80844">
        <ele>119</ele>
        <time>2016-12-11T09:21:25.402Z</time>
      </trkpt>
      <trkpt lat="48.04417" lon="2.80844">
        <ele>119</ele>
        <time>2016-12-11T09:21:26.399Z</time>
      </trkpt>
      <trkpt lat="48.04414" lon="2.80837">
        <ele>118</ele>
        <time>2016-12-11T09:21:27.433Z</time>
      </trkpt>
      <trkpt lat="48.04414" lon="2.80837">
        <ele>118</ele>
        <time>2016-12-11T09:21:28.399Z</time>
      </trkpt>
      <trkpt lat="48.04413" lon="2.80827">
        <ele>117</ele>
        <time>2016-12-11T09:21:29.397Z</time>
      </trkpt>
      <trkpt lat="48.04413" lon="2.80827">
        <ele>117</ele>
        <time>2016-12-11T09:21:30.428Z</time>
      </trkpt>
      <trkpt lat="48.04411" lon="2.80817">
        <ele>116</ele>
        <time>2016-12-11T09:21:31.413Z</time>
      </trkpt>
      <trkpt lat="48.04411" lon="2.80817">
        <ele>116</ele>
        <time>2016-12-11T09:21:32.408Z</time>
      </trkpt>
      <trkpt lat="48.0441" lon="2.80806">
        <ele>115</ele>
        <time>2016-12-11T09:21:33.398Z</time>
      </trkpt>
      <trkpt lat="48.04411" lon="2.80802">
        <ele>115</ele>
        <time>2016-12-11T09:21:34.398Z</time>
      </trkpt>
      <trkpt lat="48.04413" lon="2.80798">
        <ele>114</ele>
        <time>2016-12-11T09:21:35.397Z</time>
      </trkpt>
      <trkpt lat="48.04413" lon="2.80798">
        <ele>114</ele>
        <time>2016-12-11T09:21:36.427Z</time>
      </trkpt>
      <trkpt lat="48.04416" lon="2.80791">
        <ele>114</ele>
        <time>2016-12-11T09:21:37.436Z</time>
      </trkpt>
      <trkpt lat="48.04416" lon="2.80791">
        <ele>114</ele>
        <time>2016-12-11T09:21:38.412Z</time>
      </trkpt>
      <trkpt lat="48.04416" lon="2.80782">
        <ele>114</ele>
        <time>2016-12-11T09:21:39.401Z</time>
      </trkpt>
      <trkpt lat="48.04416" lon="2.80782">
        <ele>114</ele>
        <time>2016-12-11T09:21:40.429Z</time>
      </trkpt>
      <trkpt lat="48.04416" lon="2.80775">
        <ele>114</ele>
        <time>2016-12-11T09:21:41.426Z</time>
      </trkpt>
      <trkpt lat="48.04416" lon="2.80775">
        <ele>114</ele>
        <time>2016-12-11T09:21:42.431Z</time>
      </trkpt>
      <trkpt lat="48.04417" lon="2.80766">
        <ele>113</ele>
        <time>2016-12-11T09:21:43.397Z</time>
      </trkpt>
      <trkpt lat="48.04417" lon="2.80766">
        <ele>113</ele>
        <time>2016-12-11T09:21:44.430Z</time>
      </trkpt>
      <trkpt lat="48.04416" lon="2.80759">
        <ele>112</ele>
        <time>2016-12-11T09:21:45.397Z</time>
      </trkpt>
      <trkpt lat="48.04416" lon="2.80759">
        <ele>112</ele>
        <time>2016-12-11T09:21:46.430Z</time>
      </trkpt>
      <trkpt lat="48.04413" lon="2.80756">
        <ele>110</ele>
        <time>2016-12-11T09:21:47.398Z</time>
      </trkpt>
      <trkpt lat="48.04411" lon="2.80755">
        <ele>109</ele>
        <time>2016-12-11T09:21:48.431Z</time>
      </trkpt>
      <trkpt lat="48.04409" lon="2.80754">
        <ele>109</ele>
        <time>2016-12-11T09:21:49.404Z</time>
      </trkpt>
      <trkpt lat="48.04409" lon="2.80754">
        <ele>109</ele>
        <time>2016-12-11T09:21:50.432Z</time>
      </trkpt>
      <trkpt lat="48.04407" lon="2.80753">
        <ele>108</ele>
        <time>2016-12-11T09:21:51.404Z</time>
      </trkpt>
      <trkpt lat="48.04406" lon="2.80753">
        <ele>107</ele>
        <time>2016-12-11T09:21:52.403Z</time>
      </trkpt>
      <trkpt lat="48.04406" lon="2.80753">
        <ele>107</ele>
        <time>2016-12-11T09:21:53.432Z</time>
      </trkpt>
      <trkpt lat="48.04404" lon="2.80754">
        <ele>106</ele>
        <time>2016-12-11T09:21:54.404Z</time>
      </trkpt>
      <trkpt lat="48.04403" lon="2.80753">
        <ele>105</ele>
        <time>2016-12-11T09:21:55.399Z</time>
      </trkpt>
      <trkpt lat="48.04403" lon="2.80753">
        <ele>105</ele>
        <time>2016-12-11T09:21:56.429Z</time>
      </trkpt>
      <trkpt lat="48.044" lon="2.80754">
        <ele>104</ele>
        <time>2016-12-11T09:21:57.396Z</time>
      </trkpt>
      <trkpt lat="48.044" lon="2.80754">
        <ele>104</ele>
        <time>2016-12-11T09:21:58.428Z</time>
      </trkpt>
      <trkpt lat="48.044" lon="2.80754">
        <ele>103</ele>
        <time>2016-12-11T09:21:59.397Z</time>
      </trkpt>
      <trkpt lat="48.044" lon="2.80754">
        <ele>103</ele>
        <time>2016-12-11T09:22:00.425Z</time>
      </trkpt>
      <trkpt lat="48.04399" lon="2.80751">
        <ele>103</ele>
        <time>2016-12-11T09:22:01.418Z</time>
      </trkpt>
      <trkpt lat="48.04399" lon="2.80751">
        <ele>103</ele>
        <time>2016-12-11T09:22:02.406Z</time>
      </trkpt>
      <trkpt lat="48.04398" lon="2.80747">
        <ele>102</ele>
        <time>2016-12-11T09:22:03.397Z</time>
      </trkpt>
      <trkpt lat="48.04398" lon="2.80747">
        <ele>102</ele>
        <time>2016-12-11T09:22:04.428Z</time>
      </trkpt>
      <trkpt lat="48.04399" lon="2.80741">
        <ele>101</ele>
        <time>2016-12-11T09:22:05.396Z</time>
      </trkpt>
      <trkpt lat="48.04399" lon="2.80741">
        <ele>101</ele>
        <time>2016-12-11T09:22:06.429Z</time>
      </trkpt>
      <trkpt lat="48.04399" lon="2.80734">
        <ele>101</ele>
        <time>2016-12-11T09:22:07.397Z</time>
      </trkpt>
      <trkpt lat="48.04399" lon="2.80734">
        <ele>101</ele>
        <time>2016-12-11T09:22:08.428Z</time>
      </trkpt>
      <trkpt lat="48.04399" lon="2.80728">
        <ele>100</ele>
        <time>2016-12-11T09:22:09.414Z</time>
      </trkpt>
      <trkpt lat="48.04399" lon="2.80728">
        <ele>100</ele>
        <time>2016-12-11T09:22:10.402Z</time>
      </trkpt>
      <trkpt lat="48.04398" lon="2.80722">
        <ele>100</ele>
        <time>2016-12-11T09:22:11.397Z</time>
      </trkpt>
      <trkpt lat="48.04398" lon="2.80722">
        <ele>100</ele>
        <time>2016-12-11T09:22:12.396Z</time>
      </trkpt>
      <trkpt lat="48.04397" lon="2.80717">
        <ele>100</ele>
        <time>2016-12-11T09:22:13.425Z</time>
      </trkpt>
      <trkpt lat="48.04397" lon="2.80717">
        <ele>100</ele>
        <time>2016-12-11T09:22:14.431Z</time>
      </trkpt>
      <trkpt lat="48.04396" lon="2.80711">
        <ele>99</ele>
        <time>2016-12-11T09:22:15.397Z</time>
      </trkpt>
      <trkpt lat="48.04396" lon="2.80711">
        <ele>99</ele>
        <time>2016-12-11T09:22:16.429Z</time>
      </trkpt>
      <trkpt lat="48.04396" lon="2.80706">
        <ele>99</ele>
        <time>2016-12-11T09:22:17.398Z</time>
      </trkpt>
      <trkpt lat="48.04396" lon="2.80706">
        <ele>99</ele>
        <time>2016-12-11T09:22:18.427Z</time>
      </trkpt>
      <trkpt lat="48.04396" lon="2.80706">
        <ele>99</ele>
        <time>2016-12-11T09:22:19.434Z</time>
      </trkpt>
      <trkpt lat="48.04396" lon="2.80706">
        <ele>99</ele>
        <time>2016-12-11T09:22:20.398Z</time>
      </trkpt>
      <trkpt lat="48.04396" lon="2.80706">
        <ele>99</ele>
        <time>2016-12-11T09:22:21.427Z</time>
      </trkpt>
      <trkpt lat="48.04401" lon="2.80694">
        <ele>100</ele>
        <time>2016-12-11T09:22:22.435Z</time>
      </trkpt>
      <trkpt lat="48.04401" lon="2.80694">
        <ele>100</ele>
        <time>2016-12-11T09:22:23.418Z</time>
      </trkpt>
      <trkpt lat="48.04403" lon="2.80693">
        <ele>100</ele>
        <time>2016-12-11T09:22:24.415Z</time>
      </trkpt>
      <trkpt lat="48.04403" lon="2.80693">
        <ele>100</ele>
        <time>2016-12-11T09:22:25.402Z</time>
      </trkpt>
      <trkpt lat="48.04404" lon="2.8069">
        <ele>100</ele>
        <time>2016-12-11T09:22:26.399Z</time>
      </trkpt>
      <trkpt lat="48.04404" lon="2.8069">
        <ele>100</ele>
        <time>2016-12-11T09:22:27.428Z</time>
      </trkpt>
      <trkpt lat="48.04405" lon="2.80686">
        <ele>100</ele>
        <time>2016-12-11T09:22:28.397Z</time>
      </trkpt>
      <trkpt lat="48.04405" lon="2.80686">
        <ele>100</ele>
        <time>2016-12-11T09:22:29.431Z</time>
      </trkpt>
      <trkpt lat="48.04406" lon="2.80684">
        <ele>100</ele>
        <time>2016-12-11T09:22:30.400Z</time>
      </trkpt>
      <trkpt lat="48.04406" lon="2.80684">
        <ele>100</ele>
        <time>2016-12-11T09:22:31.427Z</time>
      </trkpt>
      <trkpt lat="48.04407" lon="2.8068">
        <ele>100</ele>
        <time>2016-12-11T09:22:32.411Z</time>
      </trkpt>
      <trkpt lat="48.04407" lon="2.8068">
        <ele>100</ele>
        <time>2016-12-11T09:22:33.400Z</time>
      </trkpt>
      <trkpt lat="48.04408" lon="2.80678">
        <ele>100</ele>
        <time>2016-12-11T09:22:34.397Z</time>
      </trkpt>
      <trkpt lat="48.04408" lon="2.80678">
        <ele>100</ele>
        <time>2016-12-11T09:22:35.426Z</time>
      </trkpt>
      <trkpt lat="48.04411" lon="2.80676">
        <ele>101</ele>
        <time>2016-12-11T09:22:36.434Z</time>
      </trkpt>
      <trkpt lat="48.04411" lon="2.80676">
        <ele>101</ele>
        <time>2016-12-11T09:22:37.414Z</time>
      </trkpt>
      <trkpt lat="48.04413" lon="2.80674">
        <ele>101</ele>
        <time>2016-12-11T09:22:38.402Z</time>
      </trkpt>
      <trkpt lat="48.04413" lon="2.80674">
        <ele>101</ele>
        <time>2016-12-11T09:22:39.430Z</time>
      </trkpt>
      <trkpt lat="48.04415" lon="2.80672">
        <ele>101</ele>
        <time>2016-12-11T09:22:40.434Z</time>
      </trkpt>
      <trkpt lat="48.04415" lon="2.80672">
        <ele>101</ele>
        <time>2016-12-11T09:22:41.402Z</time>
      </trkpt>
      <trkpt lat="48.04415" lon="2.80671">
        <ele>101</ele>
        <time>2016-12-11T09:22:42.399Z</time>
      </trkpt>
      <trkpt lat="48.04415" lon="2.80671">
        <ele>101</ele>
        <time>2016-12-11T09:22:43.422Z</time>
      </trkpt>
      <trkpt lat="48.04416" lon="2.80671">
        <ele>101</ele>
        <time>2016-12-11T09:22:44.414Z</time>
      </trkpt>
      <trkpt lat="48.04416" lon="2.80671">
        <ele>101</ele>
        <time>2016-12-11T09:22:45.402Z</time>
      </trkpt>
      <trkpt lat="48.04418" lon="2.8067">
        <ele>102</ele>
        <time>2016-12-11T09:22:46.398Z</time>
      </trkpt>
      <trkpt lat="48.04418" lon="2.8067">
        <ele>102</ele>
        <time>2016-12-11T09:22:47.427Z</time>
      </trkpt>
      <trkpt lat="48.04419" lon="2.80669">
        <ele>102</ele>
        <time>2016-12-11T09:22:48.434Z</time>
      </trkpt>
      <trkpt lat="48.04422" lon="2.80669">
        <ele>103</ele>
        <time>2016-12-11T09:22:49.400Z</time>
      </trkpt>
      <trkpt lat="48.04422" lon="2.80669">
        <ele>103</ele>
        <time>2016-12-11T09:22:50.428Z</time>
      </trkpt>
      <trkpt lat="48.04423" lon="2.80668">
        <ele>103</ele>
        <time>2016-12-11T09:22:51.435Z</time>
      </trkpt>
      <trkpt lat="48.04424" lon="2.80668">
        <ele>104</ele>
        <time>2016-12-11T09:22:52.410Z</time>
      </trkpt>
      <trkpt lat="48.04424" lon="2.80668">
        <ele>104</ele>
        <time>2016-12-11T09:22:53.431Z</time>
      </trkpt>
      <trkpt lat="48.04425" lon="2.80666">
        <ele>104</ele>
        <time>2016-12-11T09:22:54.399Z</time>
      </trkpt>
      <trkpt lat="48.04426" lon="2.80665">
        <ele>104</ele>
        <time>2016-12-11T09:22:55.401Z</time>
      </trkpt>
      <trkpt lat="48.04426" lon="2.80664">
        <ele>104</ele>
        <time>2016-12-11T09:22:56.431Z</time>
      </trkpt>
      <trkpt lat="48.04426" lon="2.80664">
        <ele>104</ele>
        <time>2016-12-11T09:22:57.399Z</time>
      </trkpt>
      <trkpt lat="48.04428" lon="2.80663">
        <ele>105</ele>
        <time>2016-12-11T09:22:58.404Z</time>
      </trkpt>
      <trkpt lat="48.04428" lon="2.80663">
        <ele>105</ele>
        <time>2016-12-11T09:22:59.432Z</time>
      </trkpt>
      <trkpt lat="48.0443" lon="2.80661">
        <ele>105</ele>
        <time>2016-12-11T09:23:00.400Z</time>
      </trkpt>
      <trkpt lat="48.04431" lon="2.8066">
        <ele>106</ele>
        <time>2016-12-11T09:23:01.431Z</time>
      </trkpt>
      <trkpt lat="48.04433" lon="2.8066">
        <ele>106</ele>
        <time>2016-12-11T09:23:02.429Z</time>
      </trkpt>
      <trkpt lat="48.04434" lon="2.80659">
        <ele>106</ele>
        <time>2016-12-11T09:23:03.419Z</time>
      </trkpt>
      <trkpt lat="48.04434" lon="2.80659">
        <ele>106</ele>
        <time>2016-12-11T09:23:04.407Z</time>
      </trkpt>
      <trkpt lat="48.04436" lon="2.80658">
        <ele>106</ele>
        <time>2016-12-11T09:23:05.422Z</time>
      </trkpt>
      <trkpt lat="48.04436" lon="2.80658">
        <ele>106</ele>
        <time>2016-12-11T09:23:06.427Z</time>
      </trkpt>
      <trkpt lat="48.04438" lon="2.80656">
        <ele>107</ele>
        <time>2016-12-11T09:23:07.396Z</time>
      </trkpt>
      <trkpt lat="48.04439" lon="2.80656">
        <ele>107</ele>
        <time>2016-12-11T09:23:08.397Z</time>
      </trkpt>
      <trkpt lat="48.04439" lon="2.80656">
        <ele>107</ele>
        <time>2016-12-11T09:23:09.426Z</time>
      </trkpt>
      <trkpt lat="48.04442" lon="2.80654">
        <ele>107</ele>
        <time>2016-12-11T09:23:10.412Z</time>
      </trkpt>
      <trkpt lat="48.04442" lon="2.80654">
        <ele>107</ele>
        <time>2016-12-11T09:23:11.400Z</time>
      </trkpt>
      <trkpt lat="48.04444" lon="2.80652">
        <ele>108</ele>
        <time>2016-12-11T09:23:12.403Z</time>
      </trkpt>
      <trkpt lat="48.04445" lon="2.80651">
        <ele>108</ele>
        <time>2016-12-11T09:23:13.400Z</time>
      </trkpt>
      <trkpt lat="48.04445" lon="2.8065">
        <ele>108</ele>
        <time>2016-12-11T09:23:14.435Z</time>
      </trkpt>
      <trkpt lat="48.04445" lon="2.8065">
        <ele>108</ele>
        <time>2016-12-11T09:23:15.404Z</time>
      </trkpt>
      <trkpt lat="48.04447" lon="2.80648">
        <ele>108</ele>
        <time>2016-12-11T09:23:16.402Z</time>
      </trkpt>
      <trkpt lat="48.04447" lon="2.80648">
        <ele>108</ele>
        <time>2016-12-11T09:23:17.433Z</time>
      </trkpt>
      <trkpt lat="48.04448" lon="2.80646">
        <ele>109</ele>
        <time>2016-12-11T09:23:18.434Z</time>
      </trkpt>
      <trkpt lat="48.04449" lon="2.80645">
        <ele>109</ele>
        <time>2016-12-11T09:23:19.400Z</time>
      </trkpt>
      <trkpt lat="48.0445" lon="2.80644">
        <ele>109</ele>
        <time>2016-12-11T09:23:20.402Z</time>
      </trkpt>
      <trkpt lat="48.0445" lon="2.80644">
        <ele>109</ele>
        <time>2016-12-11T09:23:21.431Z</time>
      </trkpt>
      <trkpt lat="48.04451" lon="2.80642">
        <ele>109</ele>
        <time>2016-12-11T09:23:22.399Z</time>
      </trkpt>
      <trkpt lat="48.04451" lon="2.80642">
        <ele>109</ele>
        <time>2016-12-11T09:23:23.428Z</time>
      </trkpt>
      <trkpt lat="48.04454" lon="2.8064">
        <ele>109</ele>
        <time>2016-12-11T09:23:24.435Z</time>
      </trkpt>
      <trkpt lat="48.04454" lon="2.8064">
        <ele>109</ele>
        <time>2016-12-11T09:23:25.403Z</time>
      </trkpt>
      <trkpt lat="48.04455" lon="2.80637">
        <ele>110</ele>
        <time>2016-12-11T09:23:26.432Z</time>
      </trkpt>
      <trkpt lat="48.04455" lon="2.80637">
        <ele>110</ele>
        <time>2016-12-11T09:23:27.399Z</time>
      </trkpt>
      <trkpt lat="48.04456" lon="2.80634">
        <ele>111</ele>
        <time>2016-12-11T09:23:28.431Z</time>
      </trkpt>
      <trkpt lat="48.04456" lon="2.80632">
        <ele>111</ele>
        <time>2016-12-11T09:23:29.399Z</time>
      </trkpt>
      <trkpt lat="48.04456" lon="2.80632">
        <ele>111</ele>
        <time>2016-12-11T09:23:30.427Z</time>
      </trkpt>
      <trkpt lat="48.04456" lon="2.80628">
        <ele>111</ele>
        <time>2016-12-11T09:23:31.432Z</time>
      </trkpt>
      <trkpt lat="48.04457" lon="2.80627">
        <ele>112</ele>
        <time>2016-12-11T09:23:32.417Z</time>
      </trkpt>
      <trkpt lat="48.04457" lon="2.80627">
        <ele>112</ele>
        <time>2016-12-11T09:23:33.407Z</time>
      </trkpt>
      <trkpt lat="48.04457" lon="2.80624">
        <ele>112</ele>
        <time>2016-12-11T09:23:34.399Z</time>
      </trkpt>
      <trkpt lat="48.04457" lon="2.80622">
        <ele>112</ele>
        <time>2016-12-11T09:23:35.407Z</time>
      </trkpt>
      <trkpt lat="48.04457" lon="2.80622">
        <ele>112</ele>
        <time>2016-12-11T09:23:36.396Z</time>
      </trkpt>
      <trkpt lat="48.04456" lon="2.80619">
        <ele>113</ele>
        <time>2016-12-11T09:23:37.430Z</time>
      </trkpt>
      <trkpt lat="48.04456" lon="2.80619">
        <ele>113</ele>
        <time>2016-12-11T09:23:38.398Z</time>
      </trkpt>
      <trkpt lat="48.04455" lon="2.80617">
        <ele>113</ele>
        <time>2016-12-11T09:23:39.397Z</time>
      </trkpt>
      <trkpt lat="48.04455" lon="2.80617">
        <ele>113</ele>
        <time>2016-12-11T09:23:40.433Z</time>
      </trkpt>
      <trkpt lat="48.04455" lon="2.80617">
        <ele>113</ele>
        <time>2016-12-11T09:23:41.399Z</time>
      </trkpt>
      <trkpt lat="48.04455" lon="2.80616">
        <ele>113</ele>
        <time>2016-12-11T09:23:42.410Z</time>
      </trkpt>
      <trkpt lat="48.04453" lon="2.80606">
        <ele>114</ele>
        <time>2016-12-11T09:23:43.408Z</time>
      </trkpt>
      <trkpt lat="48.04453" lon="2.80606">
        <ele>114</ele>
        <time>2016-12-11T09:23:44.406Z</time>
      </trkpt>
      <trkpt lat="48.0445" lon="2.80604">
        <ele>114</ele>
        <time>2016-12-11T09:23:45.408Z</time>
      </trkpt>
      <trkpt lat="48.0445" lon="2.80604">
        <ele>114</ele>
        <time>2016-12-11T09:23:46.409Z</time>
      </trkpt>
      <trkpt lat="48.04449" lon="2.806">
        <ele>114</ele>
        <time>2016-12-11T09:23:47.405Z</time>
      </trkpt>
      <trkpt lat="48.04449" lon="2.806">
        <ele>114</ele>
        <time>2016-12-11T09:23:48.403Z</time>
      </trkpt>
      <trkpt lat="48.0445" lon="2.80596">
        <ele>114</ele>
        <time>2016-12-11T09:23:49.408Z</time>
      </trkpt>
      <trkpt lat="48.0445" lon="2.80596">
        <ele>114</ele>
        <time>2016-12-11T09:23:50.405Z</time>
      </trkpt>
      <trkpt lat="48.04448" lon="2.8059">
        <ele>114</ele>
        <time>2016-12-11T09:23:51.409Z</time>
      </trkpt>
      <trkpt lat="48.04448" lon="2.8059">
        <ele>114</ele>
        <time>2016-12-11T09:23:52.403Z</time>
      </trkpt>
      <trkpt lat="48.04446" lon="2.80583">
        <ele>114</ele>
        <time>2016-12-11T09:23:53.410Z</time>
      </trkpt>
      <trkpt lat="48.04446" lon="2.80583">
        <ele>114</ele>
        <time>2016-12-11T09:23:54.404Z</time>
      </trkpt>
      <trkpt lat="48.04447" lon="2.80574">
        <ele>114</ele>
        <time>2016-12-11T09:23:55.408Z</time>
      </trkpt>
      <trkpt lat="48.04449" lon="2.80573">
        <ele>114</ele>
        <time>2016-12-11T09:23:56.426Z</time>
      </trkpt>
      <trkpt lat="48.04451" lon="2.80571">
        <ele>114</ele>
        <time>2016-12-11T09:23:57.424Z</time>
      </trkpt>
      <trkpt lat="48.04451" lon="2.80571">
        <ele>114</ele>
        <time>2016-12-11T09:23:58.413Z</time>
      </trkpt>
      <trkpt lat="48.04454" lon="2.80569">
        <ele>114</ele>
        <time>2016-12-11T09:23:59.408Z</time>
      </trkpt>
      <trkpt lat="48.04454" lon="2.80569">
        <ele>114</ele>
        <time>2016-12-11T09:24:00.405Z</time>
      </trkpt>
      <trkpt lat="48.04456" lon="2.80567">
        <ele>114</ele>
        <time>2016-12-11T09:24:01.422Z</time>
      </trkpt>
      <trkpt lat="48.04456" lon="2.80567">
        <ele>114</ele>
        <time>2016-12-11T09:24:02.405Z</time>
      </trkpt>
      <trkpt lat="48.04459" lon="2.80565">
        <ele>114</ele>
        <time>2016-12-11T09:24:03.410Z</time>
      </trkpt>
      <trkpt lat="48.04459" lon="2.80565">
        <ele>114</ele>
        <time>2016-12-11T09:24:04.406Z</time>
      </trkpt>
      <trkpt lat="48.0446" lon="2.80564">
        <ele>114</ele>
        <time>2016-12-11T09:24:05.409Z</time>
      </trkpt>
      <trkpt lat="48.0446" lon="2.80564">
        <ele>114</ele>
        <time>2016-12-11T09:24:06.409Z</time>
      </trkpt>
      <trkpt lat="48.04462" lon="2.80563">
        <ele>114</ele>
        <time>2016-12-11T09:24:07.408Z</time>
      </trkpt>
      <trkpt lat="48.04462" lon="2.80563">
        <ele>114</ele>
        <time>2016-12-11T09:24:08.405Z</time>
      </trkpt>
      <trkpt lat="48.04462" lon="2.80561">
        <ele>114</ele>
        <time>2016-12-11T09:24:09.407Z</time>
      </trkpt>
      <trkpt lat="48.04462" lon="2.80561">
        <ele>114</ele>
        <time>2016-12-11T09:24:10.403Z</time>
      </trkpt>
      <trkpt lat="48.04458" lon="2.8056">
        <ele>114</ele>
        <time>2016-12-11T09:24:11.408Z</time>
      </trkpt>
      <trkpt lat="48.04458" lon="2.8056">
        <ele>114</ele>
        <time>2016-12-11T09:24:12.406Z</time>
      </trkpt>
      <trkpt lat="48.04454" lon="2.80559">
        <ele>114</ele>
        <time>2016-12-11T09:24:13.408Z</time>
      </trkpt>
      <trkpt lat="48.04453" lon="2.80557">
        <ele>114</ele>
        <time>2016-12-11T09:24:14.408Z</time>
      </trkpt>
      <trkpt lat="48.04454" lon="2.80554">
        <ele>113</ele>
        <time>2016-12-11T09:24:15.409Z</time>
      </trkpt>
      <trkpt lat="48.04454" lon="2.80554">
        <ele>113</ele>
        <time>2016-12-11T09:24:16.404Z</time>
      </trkpt>
      <trkpt lat="48.04457" lon="2.80549">
        <ele>113</ele>
        <time>2016-12-11T09:24:17.396Z</time>
      </trkpt>
      <trkpt lat="48.04459" lon="2.80548">
        <ele>113</ele>
        <time>2016-12-11T09:24:18.401Z</time>
      </trkpt>
      <trkpt lat="48.0446" lon="2.80547">
        <ele>113</ele>
        <time>2016-12-11T09:24:19.408Z</time>
      </trkpt>
      <trkpt lat="48.04461" lon="2.80546">
        <ele>113</ele>
        <time>2016-12-11T09:24:20.408Z</time>
      </trkpt>
      <trkpt lat="48.04462" lon="2.80545">
        <ele>113</ele>
        <time>2016-12-11T09:24:21.410Z</time>
      </trkpt>
      <trkpt lat="48.04462" lon="2.80545">
        <ele>113</ele>
        <time>2016-12-11T09:24:22.405Z</time>
      </trkpt>
      <trkpt lat="48.04465" lon="2.80544">
        <ele>112</ele>
        <time>2016-12-11T09:24:23.407Z</time>
      </trkpt>
      <trkpt lat="48.04466" lon="2.80543">
        <ele>112</ele>
        <time>2016-12-11T09:24:24.423Z</time>
      </trkpt>
      <trkpt lat="48.04466" lon="2.80543">
        <ele>112</ele>
        <time>2016-12-11T09:24:25.412Z</time>
      </trkpt>
      <trkpt lat="48.04469" lon="2.80541">
        <ele>111</ele>
        <time>2016-12-11T09:24:26.409Z</time>
      </trkpt>
      <trkpt lat="48.04471" lon="2.8054">
        <ele>112</ele>
        <time>2016-12-11T09:24:27.410Z</time>
      </trkpt>
      <trkpt lat="48.04471" lon="2.8054">
        <ele>112</ele>
        <time>2016-12-11T09:24:28.403Z</time>
      </trkpt>
      <trkpt lat="48.04474" lon="2.80538">
        <ele>111</ele>
        <time>2016-12-11T09:24:29.408Z</time>
      </trkpt>
      <trkpt lat="48.04474" lon="2.80538">
        <ele>111</ele>
        <time>2016-12-11T09:24:30.407Z</time>
      </trkpt>
      <trkpt lat="48.04476" lon="2.80537">
        <ele>111</ele>
        <time>2016-12-11T09:24:31.409Z</time>
      </trkpt>
      <trkpt lat="48.04476" lon="2.80537">
        <ele>111</ele>
        <time>2016-12-11T09:24:32.406Z</time>
      </trkpt>
      <trkpt lat="48.04478" lon="2.80536">
        <ele>111</ele>
        <time>2016-12-11T09:24:33.410Z</time>
      </trkpt>
      <trkpt lat="48.04478" lon="2.80536">
        <ele>111</ele>
        <time>2016-12-11T09:24:34.406Z</time>
      </trkpt>
      <trkpt lat="48.0448" lon="2.80534">
        <ele>110</ele>
        <time>2016-12-11T09:24:35.429Z</time>
      </trkpt>
      <trkpt lat="48.0448" lon="2.80534">
        <ele>110</ele>
        <time>2016-12-11T09:24:36.427Z</time>
      </trkpt>
      <trkpt lat="48.04484" lon="2.80531">
        <ele>109</ele>
        <time>2016-12-11T09:24:37.418Z</time>
      </trkpt>
      <trkpt lat="48.04484" lon="2.80531">
        <ele>109</ele>
        <time>2016-12-11T09:24:38.409Z</time>
      </trkpt>
      <trkpt lat="48.0449" lon="2.80526">
        <ele>110</ele>
        <time>2016-12-11T09:24:39.410Z</time>
      </trkpt>
      <trkpt lat="48.0449" lon="2.80526">
        <ele>110</ele>
        <time>2016-12-11T09:24:40.406Z</time>
      </trkpt>
      <trkpt lat="48.04496" lon="2.80523">
        <ele>110</ele>
        <time>2016-12-11T09:24:41.408Z</time>
      </trkpt>
      <trkpt lat="48.04496" lon="2.80523">
        <ele>110</ele>
        <time>2016-12-11T09:24:42.429Z</time>
      </trkpt>
      <trkpt lat="48.04499" lon="2.80523">
        <ele>110</ele>
        <time>2016-12-11T09:24:43.422Z</time>
      </trkpt>
      <trkpt lat="48.045" lon="2.80524">
        <ele>110</ele>
        <time>2016-12-11T09:24:44.413Z</time>
      </trkpt>
      <trkpt lat="48.04501" lon="2.80525">
        <ele>110</ele>
        <time>2016-12-11T09:24:45.409Z</time>
      </trkpt>
      <trkpt lat="48.04501" lon="2.80525">
        <ele>110</ele>
        <time>2016-12-11T09:24:46.406Z</time>
      </trkpt>
      <trkpt lat="48.04503" lon="2.80522">
        <ele>110</ele>
        <time>2016-12-11T09:24:47.408Z</time>
      </trkpt>
      <trkpt lat="48.04503" lon="2.80522">
        <ele>110</ele>
        <time>2016-12-11T09:24:48.407Z</time>
      </trkpt>
      <trkpt lat="48.04503" lon="2.80518">
        <ele>109</ele>
        <time>2016-12-11T09:24:49.409Z</time>
      </trkpt>
      <trkpt lat="48.04503" lon="2.80518">
        <ele>109</ele>
        <time>2016-12-11T09:24:50.403Z</time>
      </trkpt>
      <trkpt lat="48.04502" lon="2.80516">
        <ele>109</ele>
        <time>2016-12-11T09:24:51.410Z</time>
      </trkpt>
      <trkpt lat="48.04502" lon="2.80516">
        <ele>109</ele>
        <time>2016-12-11T09:24:52.406Z</time>
      </trkpt>
      <trkpt lat="48.04504" lon="2.80513">
        <ele>109</ele>
        <time>2016-12-11T09:24:53.414Z</time>
      </trkpt>
      <trkpt lat="48.04504" lon="2.80513">
        <ele>109</ele>
        <time>2016-12-11T09:24:54.403Z</time>
      </trkpt>
      <trkpt lat="48.04507" lon="2.80512">
        <ele>108</ele>
        <time>2016-12-11T09:24:55.409Z</time>
      </trkpt>
      <trkpt lat="48.04507" lon="2.80512">
        <ele>108</ele>
        <time>2016-12-11T09:24:56.407Z</time>
      </trkpt>
      <trkpt lat="48.04507" lon="2.80512">
        <ele>108</ele>
        <time>2016-12-11T09:24:57.410Z</time>
      </trkpt>
      <trkpt lat="48.04507" lon="2.80512">
        <ele>108</ele>
        <time>2016-12-11T09:24:58.407Z</time>
      </trkpt>
      <trkpt lat="48.04508" lon="2.80512">
        <ele>108</ele>
        <time>2016-12-11T09:24:59.410Z</time>
      </trkpt>
      <trkpt lat="48.04514" lon="2.80509">
        <ele>107</ele>
        <time>2016-12-11T09:25:00.405Z</time>
      </trkpt>
      <trkpt lat="48.04514" lon="2.80509">
        <ele>107</ele>
        <time>2016-12-11T09:25:01.399Z</time>
      </trkpt>
      <trkpt lat="48.04518" lon="2.80506">
        <ele>106</ele>
        <time>2016-12-11T09:25:02.399Z</time>
      </trkpt>
      <trkpt lat="48.04518" lon="2.80506">
        <ele>106</ele>
        <time>2016-12-11T09:25:03.399Z</time>
      </trkpt>
      <trkpt lat="48.04521" lon="2.80501">
        <ele>106</ele>
        <time>2016-12-11T09:25:04.408Z</time>
      </trkpt>
      <trkpt lat="48.04521" lon="2.80501">
        <ele>106</ele>
        <time>2016-12-11T09:25:05.398Z</time>
      </trkpt>
      <trkpt lat="48.0452" lon="2.80495">
        <ele>106</ele>
        <time>2016-12-11T09:25:06.403Z</time>
      </trkpt>
      <trkpt lat="48.0452" lon="2.80495">
        <ele>106</ele>
        <time>2016-12-11T09:25:07.400Z</time>
      </trkpt>
      <trkpt lat="48.04517" lon="2.80493">
        <ele>106</ele>
        <time>2016-12-11T09:25:08.405Z</time>
      </trkpt>
      <trkpt lat="48.04517" lon="2.80493">
        <ele>106</ele>
        <time>2016-12-11T09:25:09.398Z</time>
      </trkpt>
      <trkpt lat="48.04513" lon="2.80492">
        <ele>105</ele>
        <time>2016-12-11T09:25:10.402Z</time>
      </trkpt>
      <trkpt lat="48.04511" lon="2.80491">
        <ele>105</ele>
        <time>2016-12-11T09:25:11.412Z</time>
      </trkpt>
      <trkpt lat="48.04511" lon="2.80491">
        <ele>105</ele>
        <time>2016-12-11T09:25:12.401Z</time>
      </trkpt>
      <trkpt lat="48.04508" lon="2.80489">
        <ele>105</ele>
        <time>2016-12-11T09:25:13.399Z</time>
      </trkpt>
      <trkpt lat="48.04506" lon="2.80487">
        <ele>105</ele>
        <time>2016-12-11T09:25:14.406Z</time>
      </trkpt>
      <trkpt lat="48.04506" lon="2.80487">
        <ele>105</ele>
        <time>2016-12-11T09:25:15.399Z</time>
      </trkpt>
      <trkpt lat="48.04503" lon="2.80485">
        <ele>104</ele>
        <time>2016-12-11T09:25:16.401Z</time>
      </trkpt>
      <trkpt lat="48.04503" lon="2.80485">
        <ele>104</ele>
        <time>2016-12-11T09:25:17.408Z</time>
      </trkpt>
      <trkpt lat="48.045" lon="2.80484">
        <ele>104</ele>
        <time>2016-12-11T09:25:18.405Z</time>
      </trkpt>
      <trkpt lat="48.045" lon="2.80484">
        <ele>104</ele>
        <time>2016-12-11T09:25:19.401Z</time>
      </trkpt>
      <trkpt lat="48.04498" lon="2.80486">
        <ele>104</ele>
        <time>2016-12-11T09:25:20.402Z</time>
      </trkpt>
      <trkpt lat="48.04498" lon="2.80486">
        <ele>104</ele>
        <time>2016-12-11T09:25:21.403Z</time>
      </trkpt>
      <trkpt lat="48.04498" lon="2.80486">
        <ele>104</ele>
        <time>2016-12-11T09:25:22.398Z</time>
      </trkpt>
      <trkpt lat="48.04496" lon="2.80488">
        <ele>105</ele>
        <time>2016-12-11T09:25:23.401Z</time>
      </trkpt>
      <trkpt lat="48.04495" lon="2.80488">
        <ele>105</ele>
        <time>2016-12-11T09:25:24.411Z</time>
      </trkpt>
      <trkpt lat="48.04495" lon="2.80488">
        <ele>105</ele>
        <time>2016-12-11T09:25:25.400Z</time>
      </trkpt>
      <trkpt lat="48.04493" lon="2.80487">
        <ele>105</ele>
        <time>2016-12-11T09:25:26.402Z</time>
      </trkpt>
      <trkpt lat="48.04493" lon="2.80487">
        <ele>105</ele>
        <time>2016-12-11T09:25:27.399Z</time>
      </trkpt>
      <trkpt lat="48.04491" lon="2.80486">
        <ele>105</ele>
        <time>2016-12-11T09:25:28.401Z</time>
      </trkpt>
      <trkpt lat="48.04491" lon="2.80486">
        <ele>105</ele>
        <time>2016-12-11T09:25:29.399Z</time>
      </trkpt>
      <trkpt lat="48.04491" lon="2.80483">
        <ele>104</ele>
        <time>2016-12-11T09:25:30.404Z</time>
      </trkpt>
      <trkpt lat="48.04491" lon="2.80483">
        <ele>104</ele>
        <time>2016-12-11T09:25:31.398Z</time>
      </trkpt>
      <trkpt lat="48.04489" lon="2.80482">
        <ele>104</ele>
        <time>2016-12-11T09:25:32.401Z</time>
      </trkpt>
      <trkpt lat="48.04489" lon="2.80482">
        <ele>104</ele>
        <time>2016-12-11T09:25:33.400Z</time>
      </trkpt>
      <trkpt lat="48.04486" lon="2.80482">
        <ele>105</ele>
        <time>2016-12-11T09:25:34.407Z</time>
      </trkpt>
      <trkpt lat="48.04486" lon="2.80482">
        <ele>105</ele>
        <time>2016-12-11T09:25:35.412Z</time>
      </trkpt>
      <trkpt lat="48.04483" lon="2.80482">
        <ele>105</ele>
        <time>2016-12-11T09:25:36.403Z</time>
      </trkpt>
      <trkpt lat="48.04483" lon="2.80482">
        <ele>105</ele>
        <time>2016-12-11T09:25:37.402Z</time>
      </trkpt>
      <trkpt lat="48.0448" lon="2.80483">
        <ele>105</ele>
        <time>2016-12-11T09:25:38.401Z</time>
      </trkpt>
      <trkpt lat="48.0448" lon="2.80483">
        <ele>105</ele>
        <time>2016-12-11T09:25:39.399Z</time>
      </trkpt>
      <trkpt lat="48.04477" lon="2.80482">
        <ele>105</ele>
        <time>2016-12-11T09:25:40.401Z</time>
      </trkpt>
      <trkpt lat="48.04477" lon="2.80482">
        <ele>105</ele>
        <time>2016-12-11T09:25:41.399Z</time>
      </trkpt>
      <trkpt lat="48.04476" lon="2.80483">
        <ele>105</ele>
        <time>2016-12-11T09:25:42.403Z</time>
      </trkpt>
      <trkpt lat="48.04476" lon="2.80483">
        <ele>105</ele>
        <time>2016-12-11T09:25:43.399Z</time>
      </trkpt>
      <trkpt lat="48.04473" lon="2.80484">
        <ele>105</ele>
        <time>2016-12-11T09:25:44.417Z</time>
      </trkpt>
      <trkpt lat="48.04473" lon="2.80484">
        <ele>105</ele>
        <time>2016-12-11T09:25:45.424Z</time>
      </trkpt>
      <trkpt lat="48.04471" lon="2.80485">
        <ele>105</ele>
        <time>2016-12-11T09:25:46.412Z</time>
      </trkpt>
      <trkpt lat="48.04471" lon="2.80485">
        <ele>105</ele>
        <time>2016-12-11T09:25:47.419Z</time>
      </trkpt>
      <trkpt lat="48.04468" lon="2.80487">
        <ele>105</ele>
        <time>2016-12-11T09:25:48.410Z</time>
      </trkpt>
      <trkpt lat="48.04468" lon="2.80487">
        <ele>105</ele>
        <time>2016-12-11T09:25:49.402Z</time>
      </trkpt>
      <trkpt lat="48.04466" lon="2.8049">
        <ele>105</ele>
        <time>2016-12-11T09:25:50.402Z</time>
      </trkpt>
      <trkpt lat="48.04466" lon="2.8049">
        <ele>105</ele>
        <time>2016-12-11T09:25:51.399Z</time>
      </trkpt>
      <trkpt lat="48.04465" lon="2.80491">
        <ele>105</ele>
        <time>2016-12-11T09:25:52.408Z</time>
      </trkpt>
      <trkpt lat="48.04465" lon="2.80491">
        <ele>105</ele>
        <time>2016-12-11T09:25:53.412Z</time>
      </trkpt>
      <trkpt lat="48.04462" lon="2.80492">
        <ele>105</ele>
        <time>2016-12-11T09:25:54.404Z</time>
      </trkpt>
      <trkpt lat="48.04462" lon="2.80492">
        <ele>105</ele>
        <time>2016-12-11T09:25:55.400Z</time>
      </trkpt>
      <trkpt lat="48.0446" lon="2.80494">
        <ele>105</ele>
        <time>2016-12-11T09:25:56.399Z</time>
      </trkpt>
      <trkpt lat="48.0446" lon="2.80494">
        <ele>105</ele>
        <time>2016-12-11T09:25:57.399Z</time>
      </trkpt>
      <trkpt lat="48.04458" lon="2.80497">
        <ele>105</ele>
        <time>2016-12-11T09:25:58.401Z</time>
      </trkpt>
      <trkpt lat="48.04458" lon="2.80497">
        <ele>105</ele>
        <time>2016-12-11T09:25:59.399Z</time>
      </trkpt>
      <trkpt lat="48.04456" lon="2.805">
        <ele>104</ele>
        <time>2016-12-11T09:26:00.402Z</time>
      </trkpt>
      <trkpt lat="48.04456" lon="2.805">
        <ele>104</ele>
        <time>2016-12-11T09:26:01.400Z</time>
      </trkpt>
      <trkpt lat="48.04454" lon="2.80504">
        <ele>104</ele>
        <time>2016-12-11T09:26:02.401Z</time>
      </trkpt>
      <trkpt lat="48.04454" lon="2.80504">
        <ele>104</ele>
        <time>2016-12-11T09:26:03.400Z</time>
      </trkpt>
      <trkpt lat="48.04451" lon="2.80506">
        <ele>104</ele>
        <time>2016-12-11T09:26:04.402Z</time>
      </trkpt>
      <trkpt lat="48.04451" lon="2.80506">
        <ele>104</ele>
        <time>2016-12-11T09:26:05.399Z</time>
      </trkpt>
      <trkpt lat="48.04448" lon="2.80507">
        <ele>104</ele>
        <time>2016-12-11T09:26:06.403Z</time>
      </trkpt>
      <trkpt lat="48.04448" lon="2.80507">
        <ele>104</ele>
        <time>2016-12-11T09:26:07.400Z</time>
      </trkpt>
      <trkpt lat="48.04445" lon="2.80508">
        <ele>104</ele>
        <time>2016-12-11T09:26:08.402Z</time>
      </trkpt>
      <trkpt lat="48.04445" lon="2.80508">
        <ele>104</ele>
        <time>2016-12-11T09:26:09.400Z</time>
      </trkpt>
      <trkpt lat="48.04442" lon="2.80511">
        <ele>104</ele>
        <time>2016-12-11T09:26:10.402Z</time>
      </trkpt>
      <trkpt lat="48.04442" lon="2.80511">
        <ele>104</ele>
        <time>2016-12-11T09:26:11.435Z</time>
      </trkpt>
      <trkpt lat="48.0444" lon="2.80512">
        <ele>103</ele>
        <time>2016-12-11T09:26:12.402Z</time>
      </trkpt>
      <trkpt lat="48.0444" lon="2.80512">
        <ele>103</ele>
        <time>2016-12-11T09:26:13.400Z</time>
      </trkpt>
      <trkpt lat="48.04438" lon="2.80511">
        <ele>103</ele>
        <time>2016-12-11T09:26:14.402Z</time>
      </trkpt>
      <trkpt lat="48.04438" lon="2.80511">
        <ele>103</ele>
        <time>2016-12-11T09:26:15.397Z</time>
      </trkpt>
      <trkpt lat="48.04434" lon="2.80509">
        <ele>103</ele>
        <time>2016-12-11T09:26:16.402Z</time>
      </trkpt>
      <trkpt lat="48.04434" lon="2.80509">
        <ele>103</ele>
        <time>2016-12-11T09:26:17.402Z</time>
      </trkpt>
      <trkpt lat="48.04431" lon="2.80507">
        <ele>103</ele>
        <time>2016-12-11T09:26:18.409Z</time>
      </trkpt>
      <trkpt lat="48.04431" lon="2.80507">
        <ele>103</ele>
        <time>2016-12-11T09:26:19.416Z</time>
      </trkpt>
      <trkpt lat="48.04431" lon="2.80504">
        <ele>103</ele>
        <time>2016-12-11T09:26:20.421Z</time>
      </trkpt>
      <trkpt lat="48.04431" lon="2.80503">
        <ele>103</ele>
        <time>2016-12-11T09:26:21.420Z</time>
      </trkpt>
      <trkpt lat="48.04431" lon="2.80503">
        <ele>103</ele>
        <time>2016-12-11T09:26:22.408Z</time>
      </trkpt>
      <trkpt lat="48.0443" lon="2.80499">
        <ele>102</ele>
        <time>2016-12-11T09:26:23.402Z</time>
      </trkpt>
      <trkpt lat="48.0443" lon="2.80497">
        <ele>102</ele>
        <time>2016-12-11T09:26:24.404Z</time>
      </trkpt>
      <trkpt lat="48.0443" lon="2.80497">
        <ele>102</ele>
        <time>2016-12-11T09:26:25.433Z</time>
      </trkpt>
      <trkpt lat="48.04431" lon="2.80492">
        <ele>102</ele>
        <time>2016-12-11T09:26:26.401Z</time>
      </trkpt>
      <trkpt lat="48.04433" lon="2.80489">
        <ele>102</ele>
        <time>2016-12-11T09:26:27.402Z</time>
      </trkpt>
      <trkpt lat="48.04433" lon="2.80489">
        <ele>102</ele>
        <time>2016-12-11T09:26:28.399Z</time>
      </trkpt>
      <trkpt lat="48.04436" lon="2.80485">
        <ele>102</ele>
        <time>2016-12-11T09:26:29.401Z</time>
      </trkpt>
      <trkpt lat="48.04438" lon="2.80483">
        <ele>101</ele>
        <time>2016-12-11T09:26:30.400Z</time>
      </trkpt>
      <trkpt lat="48.04438" lon="2.80483">
        <ele>101</ele>
        <time>2016-12-11T09:26:31.396Z</time>
      </trkpt>
      <trkpt lat="48.0444" lon="2.80482">
        <ele>101</ele>
        <time>2016-12-11T09:26:32.402Z</time>
      </trkpt>
      <trkpt lat="48.0444" lon="2.80482">
        <ele>101</ele>
        <time>2016-12-11T09:26:33.400Z</time>
      </trkpt>
      <trkpt lat="48.04441" lon="2.80482">
        <ele>101</ele>
        <time>2016-12-11T09:26:34.401Z</time>
      </trkpt>
      <trkpt lat="48.04441" lon="2.80482">
        <ele>101</ele>
        <time>2016-12-11T09:26:35.412Z</time>
      </trkpt>
      <trkpt lat="48.04442" lon="2.80481">
        <ele>100</ele>
        <time>2016-12-11T09:26:36.403Z</time>
      </trkpt>
      <trkpt lat="48.04442" lon="2.80481">
        <ele>100</ele>
        <time>2016-12-11T09:26:37.402Z</time>
      </trkpt>
      <trkpt lat="48.04444" lon="2.80474">
        <ele>100</ele>
        <time>2016-12-11T09:26:38.403Z</time>
      </trkpt>
      <trkpt lat="48.04446" lon="2.80472">
        <ele>100</ele>
        <time>2016-12-11T09:26:39.402Z</time>
      </trkpt>
      <trkpt lat="48.04446" lon="2.80472">
        <ele>100</ele>
        <time>2016-12-11T09:26:40.397Z</time>
      </trkpt>
      <trkpt lat="48.04451" lon="2.80466">
        <ele>99</ele>
        <time>2016-12-11T09:26:41.403Z</time>
      </trkpt>
      <trkpt lat="48.04453" lon="2.80464">
        <ele>99</ele>
        <time>2016-12-11T09:26:42.401Z</time>
      </trkpt>
      <trkpt lat="48.04453" lon="2.80464">
        <ele>99</ele>
        <time>2016-12-11T09:26:43.401Z</time>
      </trkpt>
      <trkpt lat="48.04455" lon="2.80456">
        <ele>98</ele>
        <time>2016-12-11T09:26:44.418Z</time>
      </trkpt>
      <trkpt lat="48.04455" lon="2.80456">
        <ele>98</ele>
        <time>2016-12-11T09:26:45.407Z</time>
      </trkpt>
      <trkpt lat="48.04453" lon="2.80449">
        <ele>98</ele>
        <time>2016-12-11T09:26:46.403Z</time>
      </trkpt>
      <trkpt lat="48.04453" lon="2.80449">
        <ele>98</ele>
        <time>2016-12-11T09:26:47.397Z</time>
      </trkpt>
      <trkpt lat="48.04451" lon="2.80444">
        <ele>98</ele>
        <time>2016-12-11T09:26:48.403Z</time>
      </trkpt>
      <trkpt lat="48.0445" lon="2.80441">
        <ele>98</ele>
        <time>2016-12-11T09:26:49.402Z</time>
      </trkpt>
      <trkpt lat="48.0445" lon="2.80441">
        <ele>98</ele>
        <time>2016-12-11T09:26:50.397Z</time>
      </trkpt>
      <trkpt lat="48.04448" lon="2.80435">
        <ele>99</ele>
        <time>2016-12-11T09:26:51.402Z</time>
      </trkpt>
      <trkpt lat="48.04448" lon="2.80435">
        <ele>99</ele>
        <time>2016-12-11T09:26:52.419Z</time>
      </trkpt>
      <trkpt lat="48.04446" lon="2.8043">
        <ele>99</ele>
        <time>2016-12-11T09:26:53.403Z</time>
      </trkpt>
      <trkpt lat="48.04446" lon="2.8043">
        <ele>99</ele>
        <time>2016-12-11T09:26:54.401Z</time>
      </trkpt>
      <trkpt lat="48.04443" lon="2.80425">
        <ele>99</ele>
        <time>2016-12-11T09:26:55.402Z</time>
      </trkpt>
      <trkpt lat="48.04442" lon="2.80422">
        <ele>99</ele>
        <time>2016-12-11T09:26:56.403Z</time>
      </trkpt>
      <trkpt lat="48.04442" lon="2.80422">
        <ele>99</ele>
        <time>2016-12-11T09:26:57.401Z</time>
      </trkpt>
      <trkpt lat="48.0444" lon="2.80417">
        <ele>99</ele>
        <time>2016-12-11T09:26:58.402Z</time>
      </trkpt>
      <trkpt lat="48.0444" lon="2.80417">
        <ele>99</ele>
        <time>2016-12-11T09:26:59.436Z</time>
      </trkpt>
      <trkpt lat="48.04438" lon="2.80408">
        <ele>98</ele>
        <time>2016-12-11T09:27:00.403Z</time>
      </trkpt>
      <trkpt lat="48.04438" lon="2.80408">
        <ele>98</ele>
        <time>2016-12-11T09:27:01.400Z</time>
      </trkpt>
      <trkpt lat="48.04435" lon="2.80399">
        <ele>98</ele>
        <time>2016-12-11T09:27:02.402Z</time>
      </trkpt>
      <trkpt lat="48.04435" lon="2.80399">
        <ele>98</ele>
        <time>2016-12-11T09:27:03.400Z</time>
      </trkpt>
      <trkpt lat="48.04433" lon="2.80392">
        <ele>98</ele>
        <time>2016-12-11T09:27:04.400Z</time>
      </trkpt>
      <trkpt lat="48.04433" lon="2.80392">
        <ele>98</ele>
        <time>2016-12-11T09:27:05.401Z</time>
      </trkpt>
      <trkpt lat="48.04431" lon="2.80386">
        <ele>98</ele>
        <time>2016-12-11T09:27:06.401Z</time>
      </trkpt>
      <trkpt lat="48.04431" lon="2.80386">
        <ele>98</ele>
        <time>2016-12-11T09:27:07.397Z</time>
      </trkpt>
      <trkpt lat="48.04428" lon="2.80379">
        <ele>97</ele>
        <time>2016-12-11T09:27:08.403Z</time>
      </trkpt>
      <trkpt lat="48.04428" lon="2.80379">
        <ele>97</ele>
        <time>2016-12-11T09:27:09.400Z</time>
      </trkpt>
      <trkpt lat="48.04425" lon="2.80373">
        <ele>98</ele>
        <time>2016-12-11T09:27:10.403Z</time>
      </trkpt>
      <trkpt lat="48.04425" lon="2.80373">
        <ele>98</ele>
        <time>2016-12-11T09:27:11.401Z</time>
      </trkpt>
      <trkpt lat="48.04422" lon="2.80367">
        <ele>97</ele>
        <time>2016-12-11T09:27:12.406Z</time>
      </trkpt>
      <trkpt lat="48.04422" lon="2.80367">
        <ele>97</ele>
        <time>2016-12-11T09:27:13.401Z</time>
      </trkpt>
      <trkpt lat="48.04418" lon="2.8036">
        <ele>98</ele>
        <time>2016-12-11T09:27:14.403Z</time>
      </trkpt>
      <trkpt lat="48.04418" lon="2.8036">
        <ele>98</ele>
        <time>2016-12-11T09:27:15.400Z</time>
      </trkpt>
      <trkpt lat="48.04415" lon="2.80353">
        <ele>98</ele>
        <time>2016-12-11T09:27:16.418Z</time>
      </trkpt>
      <trkpt lat="48.04415" lon="2.80353">
        <ele>98</ele>
        <time>2016-12-11T09:27:17.422Z</time>
      </trkpt>
      <trkpt lat="48.04412" lon="2.80348">
        <ele>98</ele>
        <time>2016-12-11T09:27:18.432Z</time>
      </trkpt>
      <trkpt lat="48.04412" lon="2.80348">
        <ele>98</ele>
        <time>2016-12-11T09:27:19.400Z</time>
      </trkpt>
      <trkpt lat="48.0441" lon="2.80343">
        <ele>98</ele>
        <time>2016-12-11T09:27:20.401Z</time>
      </trkpt>
      <trkpt lat="48.0441" lon="2.80343">
        <ele>98</ele>
        <time>2016-12-11T09:27:21.397Z</time>
      </trkpt>
      <trkpt lat="48.04406" lon="2.80338">
        <ele>99</ele>
        <time>2016-12-11T09:27:22.402Z</time>
      </trkpt>
      <trkpt lat="48.04406" lon="2.80338">
        <ele>99</ele>
        <time>2016-12-11T09:27:23.412Z</time>
      </trkpt>
      <trkpt lat="48.04404" lon="2.80333">
        <ele>99</ele>
        <time>2016-12-11T09:27:24.405Z</time>
      </trkpt>
      <trkpt lat="48.04404" lon="2.80333">
        <ele>99</ele>
        <time>2016-12-11T09:27:25.397Z</time>
      </trkpt>
      <trkpt lat="48.04401" lon="2.80328">
        <ele>99</ele>
        <time>2016-12-11T09:27:26.403Z</time>
      </trkpt>
      <trkpt lat="48.04399" lon="2.80326">
        <ele>99</ele>
        <time>2016-12-11T09:27:27.404Z</time>
      </trkpt>
      <trkpt lat="48.04399" lon="2.80326">
        <ele>99</ele>
        <time>2016-12-11T09:27:28.398Z</time>
      </trkpt>
      <trkpt lat="48.04397" lon="2.80323">
        <ele>100</ele>
        <time>2016-12-11T09:27:29.402Z</time>
      </trkpt>
      <trkpt lat="48.04396" lon="2.80321">
        <ele>100</ele>
        <time>2016-12-11T09:27:30.401Z</time>
      </trkpt>
      <trkpt lat="48.04396" lon="2.80321">
        <ele>100</ele>
        <time>2016-12-11T09:27:31.400Z</time>
      </trkpt>
      <trkpt lat="48.04394" lon="2.80318">
        <ele>100</ele>
        <time>2016-12-11T09:27:32.402Z</time>
      </trkpt>
      <trkpt lat="48.04394" lon="2.80318">
        <ele>100</ele>
        <time>2016-12-11T09:27:33.397Z</time>
      </trkpt>
      <trkpt lat="48.04392" lon="2.80315">
        <ele>100</ele>
        <time>2016-12-11T09:27:34.402Z</time>
      </trkpt>
      <trkpt lat="48.04392" lon="2.80315">
        <ele>100</ele>
        <time>2016-12-11T09:27:35.400Z</time>
      </trkpt>
      <trkpt lat="48.0439" lon="2.80311">
        <ele>101</ele>
        <time>2016-12-11T09:27:36.403Z</time>
      </trkpt>
      <trkpt lat="48.04389" lon="2.8031">
        <ele>101</ele>
        <time>2016-12-11T09:27:37.402Z</time>
      </trkpt>
      <trkpt lat="48.04387" lon="2.80309">
        <ele>102</ele>
        <time>2016-12-11T09:27:38.401Z</time>
      </trkpt>
      <trkpt lat="48.04387" lon="2.80309">
        <ele>102</ele>
        <time>2016-12-11T09:27:39.401Z</time>
      </trkpt>
      <trkpt lat="48.04384" lon="2.80308">
        <ele>102</ele>
        <time>2016-12-11T09:27:40.403Z</time>
      </trkpt>
      <trkpt lat="48.04384" lon="2.80308">
        <ele>102</ele>
        <time>2016-12-11T09:27:41.398Z</time>
      </trkpt>
      <trkpt lat="48.04381" lon="2.80307">
        <ele>103</ele>
        <time>2016-12-11T09:27:42.418Z</time>
      </trkpt>
      <trkpt lat="48.04381" lon="2.80307">
        <ele>103</ele>
        <time>2016-12-11T09:27:43.407Z</time>
      </trkpt>
      <trkpt lat="48.04378" lon="2.80305">
        <ele>103</ele>
        <time>2016-12-11T09:27:44.402Z</time>
      </trkpt>
      <trkpt lat="48.04378" lon="2.80305">
        <ele>103</ele>
        <time>2016-12-11T09:27:45.398Z</time>
      </trkpt>
      <trkpt lat="48.04376" lon="2.80303">
        <ele>103</ele>
        <time>2016-12-11T09:27:46.401Z</time>
      </trkpt>
      <trkpt lat="48.04375" lon="2.80302">
        <ele>103</ele>
        <time>2016-12-11T09:27:47.403Z</time>
      </trkpt>
      <trkpt lat="48.04374" lon="2.80302">
        <ele>103</ele>
        <time>2016-12-11T09:27:48.401Z</time>
      </trkpt>
      <trkpt lat="48.04374" lon="2.80302">
        <ele>103</ele>
        <time>2016-12-11T09:27:49.399Z</time>
      </trkpt>
      <trkpt lat="48.04373" lon="2.803">
        <ele>103</ele>
        <time>2016-12-11T09:27:50.402Z</time>
      </trkpt>
      <trkpt lat="48.04372" lon="2.80299">
        <ele>103</ele>
        <time>2016-12-11T09:27:51.402Z</time>
      </trkpt>
      <trkpt lat="48.04372" lon="2.80299">
        <ele>103</ele>
        <time>2016-12-11T09:27:52.417Z</time>
      </trkpt>
      <trkpt lat="48.04371" lon="2.80297">
        <ele>103</ele>
        <time>2016-12-11T09:27:53.406Z</time>
      </trkpt>
      <trkpt lat="48.0437" lon="2.80296">
        <ele>104</ele>
        <time>2016-12-11T09:27:54.401Z</time>
      </trkpt>
      <trkpt lat="48.0437" lon="2.80296">
        <ele>104</ele>
        <time>2016-12-11T09:27:55.397Z</time>
      </trkpt>
      <trkpt lat="48.04367" lon="2.80294">
        <ele>104</ele>
        <time>2016-12-11T09:27:56.402Z</time>
      </trkpt>
      <trkpt lat="48.04365" lon="2.80293">
        <ele>104</ele>
        <time>2016-12-11T09:27:57.413Z</time>
      </trkpt>
      <trkpt lat="48.04365" lon="2.80293">
        <ele>104</ele>
        <time>2016-12-11T09:27:58.402Z</time>
      </trkpt>
      <trkpt lat="48.04361" lon="2.8029">
        <ele>104</ele>
        <time>2016-12-11T09:27:59.402Z</time>
      </trkpt>
      <trkpt lat="48.0436" lon="2.80289">
        <ele>104</ele>
        <time>2016-12-11T09:28:00.405Z</time>
      </trkpt>
      <trkpt lat="48.0436" lon="2.80289">
        <ele>104</ele>
        <time>2016-12-11T09:28:01.401Z</time>
      </trkpt>
      <trkpt lat="48.04357" lon="2.80285">
        <ele>104</ele>
        <time>2016-12-11T09:28:02.402Z</time>
      </trkpt>
      <trkpt lat="48.04357" lon="2.80285">
        <ele>104</ele>
        <time>2016-12-11T09:28:03.400Z</time>
      </trkpt>
      <trkpt lat="48.04353" lon="2.80283">
        <ele>104</ele>
        <time>2016-12-11T09:28:04.406Z</time>
      </trkpt>
      <trkpt lat="48.04352" lon="2.80282">
        <ele>104</ele>
        <time>2016-12-11T09:28:05.400Z</time>
      </trkpt>
      <trkpt lat="48.04352" lon="2.80282">
        <ele>104</ele>
        <time>2016-12-11T09:28:06.433Z</time>
      </trkpt>
      <trkpt lat="48.0435" lon="2.80279">
        <ele>104</ele>
        <time>2016-12-11T09:28:07.404Z</time>
      </trkpt>
      <trkpt lat="48.04349" lon="2.80278">
        <ele>105</ele>
        <time>2016-12-11T09:28:08.419Z</time>
      </trkpt>
      <trkpt lat="48.04349" lon="2.80278">
        <ele>105</ele>
        <time>2016-12-11T09:28:09.411Z</time>
      </trkpt>
      <trkpt lat="48.04347" lon="2.80274">
        <ele>105</ele>
        <time>2016-12-11T09:28:10.403Z</time>
      </trkpt>
      <trkpt lat="48.04347" lon="2.80274">
        <ele>105</ele>
        <time>2016-12-11T09:28:11.401Z</time>
      </trkpt>
      <trkpt lat="48.04346" lon="2.80273">
        <ele>105</ele>
        <time>2016-12-11T09:28:12.403Z</time>
      </trkpt>
      <trkpt lat="48.04346" lon="2.80273">
        <ele>105</ele>
        <time>2016-12-11T09:28:13.397Z</time>
      </trkpt>
      <trkpt lat="48.04345" lon="2.80271">
        <ele>105</ele>
        <time>2016-12-11T09:28:14.420Z</time>
      </trkpt>
      <trkpt lat="48.04342" lon="2.80269">
        <ele>106</ele>
        <time>2016-12-11T09:28:15.401Z</time>
      </trkpt>
      <trkpt lat="48.04342" lon="2.80269">
        <ele>106</ele>
        <time>2016-12-11T09:28:16.396Z</time>
      </trkpt>
      <trkpt lat="48.04341" lon="2.80267">
        <ele>106</ele>
        <time>2016-12-11T09:28:17.418Z</time>
      </trkpt>
      <trkpt lat="48.0434" lon="2.80266">
        <ele>106</ele>
        <time>2016-12-11T09:28:18.432Z</time>
      </trkpt>
      <trkpt lat="48.0434" lon="2.80265">
        <ele>106</ele>
        <time>2016-12-11T09:28:19.398Z</time>
      </trkpt>
      <trkpt lat="48.0434" lon="2.80265">
        <ele>106</ele>
        <time>2016-12-11T09:28:20.406Z</time>
      </trkpt>
      <trkpt lat="48.04339" lon="2.80262">
        <ele>106</ele>
        <time>2016-12-11T09:28:21.400Z</time>
      </trkpt>
      <trkpt lat="48.04339" lon="2.80262">
        <ele>106</ele>
        <time>2016-12-11T09:28:22.396Z</time>
      </trkpt>
      <trkpt lat="48.0434" lon="2.80259">
        <ele>106</ele>
        <time>2016-12-11T09:28:23.417Z</time>
      </trkpt>
      <trkpt lat="48.0434" lon="2.80257">
        <ele>107</ele>
        <time>2016-12-11T09:28:24.415Z</time>
      </trkpt>
      <trkpt lat="48.0434" lon="2.80257">
        <ele>107</ele>
        <time>2016-12-11T09:28:25.401Z</time>
      </trkpt>
      <trkpt lat="48.04339" lon="2.80254">
        <ele>107</ele>
        <time>2016-12-11T09:28:26.398Z</time>
      </trkpt>
      <trkpt lat="48.04339" lon="2.80252">
        <ele>107</ele>
        <time>2016-12-11T09:28:27.396Z</time>
      </trkpt>
      <trkpt lat="48.04339" lon="2.80252">
        <ele>107</ele>
        <time>2016-12-11T09:28:28.433Z</time>
      </trkpt>
      <trkpt lat="48.04338" lon="2.80248">
        <ele>107</ele>
        <time>2016-12-11T09:28:29.398Z</time>
      </trkpt>
      <trkpt lat="48.04338" lon="2.80248">
        <ele>107</ele>
        <time>2016-12-11T09:28:30.396Z</time>
      </trkpt>
      <trkpt lat="48.04337" lon="2.80244">
        <ele>107</ele>
        <time>2016-12-11T09:28:31.399Z</time>
      </trkpt>
      <trkpt lat="48.04337" lon="2.80244">
        <ele>107</ele>
        <time>2016-12-11T09:28:32.433Z</time>
      </trkpt>
      <trkpt lat="48.04338" lon="2.80241">
        <ele>107</ele>
        <time>2016-12-11T09:28:33.401Z</time>
      </trkpt>
      <trkpt lat="48.04338" lon="2.80241">
        <ele>107</ele>
        <time>2016-12-11T09:28:34.401Z</time>
      </trkpt>
      <trkpt lat="48.04339" lon="2.80238">
        <ele>107</ele>
        <time>2016-12-11T09:28:35.399Z</time>
      </trkpt>
      <trkpt lat="48.04339" lon="2.80238">
        <ele>107</ele>
        <time>2016-12-11T09:28:36.433Z</time>
      </trkpt>
      <trkpt lat="48.0434" lon="2.80235">
        <ele>107</ele>
        <time>2016-12-11T09:28:37.402Z</time>
      </trkpt>
      <trkpt lat="48.0434" lon="2.80235">
        <ele>107</ele>
        <time>2016-12-11T09:28:38.396Z</time>
      </trkpt>
      <trkpt lat="48.04342" lon="2.80232">
        <ele>107</ele>
        <time>2016-12-11T09:28:39.396Z</time>
      </trkpt>
      <trkpt lat="48.04342" lon="2.80232">
        <ele>107</ele>
        <time>2016-12-11T09:28:40.433Z</time>
      </trkpt>
      <trkpt lat="48.04344" lon="2.80231">
        <ele>107</ele>
        <time>2016-12-11T09:28:41.398Z</time>
      </trkpt>
      <trkpt lat="48.04344" lon="2.80231">
        <ele>107</ele>
        <time>2016-12-11T09:28:42.396Z</time>
      </trkpt>
      <trkpt lat="48.04345" lon="2.80229">
        <ele>107</ele>
        <time>2016-12-11T09:28:43.400Z</time>
      </trkpt>
      <trkpt lat="48.04345" lon="2.80229">
        <ele>107</ele>
        <time>2016-12-11T09:28:44.397Z</time>
      </trkpt>
      <trkpt lat="48.04347" lon="2.80226">
        <ele>107</ele>
        <time>2016-12-11T09:28:45.423Z</time>
      </trkpt>
      <trkpt lat="48.04347" lon="2.80226">
        <ele>107</ele>
        <time>2016-12-11T09:28:46.413Z</time>
      </trkpt>
      <trkpt lat="48.0435" lon="2.80221">
        <ele>107</ele>
        <time>2016-12-11T09:28:47.403Z</time>
      </trkpt>
      <trkpt lat="48.0435" lon="2.80221">
        <ele>107</ele>
        <time>2016-12-11T09:28:48.433Z</time>
      </trkpt>
      <trkpt lat="48.04352" lon="2.80219">
        <ele>108</ele>
        <time>2016-12-11T09:28:49.404Z</time>
      </trkpt>
      <trkpt lat="48.04353" lon="2.80218">
        <ele>108</ele>
        <time>2016-12-11T09:28:50.400Z</time>
      </trkpt>
      <trkpt lat="48.04353" lon="2.80218">
        <ele>108</ele>
        <time>2016-12-11T09:28:51.434Z</time>
      </trkpt>
      <trkpt lat="48.04356" lon="2.80215">
        <ele>108</ele>
        <time>2016-12-11T09:28:52.398Z</time>
      </trkpt>
      <trkpt lat="48.04356" lon="2.80215">
        <ele>108</ele>
        <time>2016-12-11T09:28:53.398Z</time>
      </trkpt>
      <trkpt lat="48.04357" lon="2.80211">
        <ele>108</ele>
        <time>2016-12-11T09:28:54.398Z</time>
      </trkpt>
      <trkpt lat="48.04357" lon="2.80211">
        <ele>108</ele>
        <time>2016-12-11T09:28:55.396Z</time>
      </trkpt>
      <trkpt lat="48.04358" lon="2.80208">
        <ele>108</ele>
        <time>2016-12-11T09:28:56.398Z</time>
      </trkpt>
      <trkpt lat="48.04359" lon="2.80206">
        <ele>108</ele>
        <time>2016-12-11T09:28:57.396Z</time>
      </trkpt>
      <trkpt lat="48.04359" lon="2.80206">
        <ele>108</ele>
        <time>2016-12-11T09:28:58.433Z</time>
      </trkpt>
      <trkpt lat="48.04362" lon="2.80202">
        <ele>108</ele>
        <time>2016-12-11T09:28:59.400Z</time>
      </trkpt>
      <trkpt lat="48.04362" lon="2.80202">
        <ele>108</ele>
        <time>2016-12-11T09:29:00.396Z</time>
      </trkpt>
      <trkpt lat="48.04364" lon="2.80198">
        <ele>109</ele>
        <time>2016-12-11T09:29:01.399Z</time>
      </trkpt>
      <trkpt lat="48.04364" lon="2.80198">
        <ele>109</ele>
        <time>2016-12-11T09:29:02.434Z</time>
      </trkpt>
      <trkpt lat="48.04367" lon="2.80195">
        <ele>109</ele>
        <time>2016-12-11T09:29:03.403Z</time>
      </trkpt>
      <trkpt lat="48.04367" lon="2.80195">
        <ele>109</ele>
        <time>2016-12-11T09:29:04.400Z</time>
      </trkpt>
      <trkpt lat="48.04368" lon="2.80192">
        <ele>109</ele>
        <time>2016-12-11T09:29:05.398Z</time>
      </trkpt>
      <trkpt lat="48.04368" lon="2.80192">
        <ele>109</ele>
        <time>2016-12-11T09:29:06.434Z</time>
      </trkpt>
      <trkpt lat="48.04369" lon="2.80188">
        <ele>110</ele>
        <time>2016-12-11T09:29:07.397Z</time>
      </trkpt>
      <trkpt lat="48.04369" lon="2.80188">
        <ele>110</ele>
        <time>2016-12-11T09:29:08.396Z</time>
      </trkpt>
      <trkpt lat="48.04371" lon="2.80185">
        <ele>110</ele>
        <time>2016-12-11T09:29:09.396Z</time>
      </trkpt>
      <trkpt lat="48.04371" lon="2.80185">
        <ele>110</ele>
        <time>2016-12-11T09:29:10.433Z</time>
      </trkpt>
      <trkpt lat="48.04373" lon="2.80183">
        <ele>110</ele>
        <time>2016-12-11T09:29:11.399Z</time>
      </trkpt>
      <trkpt lat="48.04373" lon="2.80183">
        <ele>110</ele>
        <time>2016-12-11T09:29:12.396Z</time>
      </trkpt>
      <trkpt lat="48.04375" lon="2.8018">
        <ele>111</ele>
        <time>2016-12-11T09:29:13.406Z</time>
      </trkpt>
      <trkpt lat="48.04376" lon="2.80178">
        <ele>111</ele>
        <time>2016-12-11T09:29:14.396Z</time>
      </trkpt>
      <trkpt lat="48.04376" lon="2.80177">
        <ele>111</ele>
        <time>2016-12-11T09:29:15.399Z</time>
      </trkpt>
      <trkpt lat="48.04376" lon="2.80177">
        <ele>111</ele>
        <time>2016-12-11T09:29:16.415Z</time>
      </trkpt>
      <trkpt lat="48.04379" lon="2.80174">
        <ele>111</ele>
        <time>2016-12-11T09:29:17.412Z</time>
      </trkpt>
      <trkpt lat="48.0438" lon="2.80172">
        <ele>111</ele>
        <time>2016-12-11T09:29:18.417Z</time>
      </trkpt>
      <trkpt lat="48.04382" lon="2.80172">
        <ele>111</ele>
        <time>2016-12-11T09:29:19.426Z</time>
      </trkpt>
      <trkpt lat="48.04383" lon="2.80171">
        <ele>111</ele>
        <time>2016-12-11T09:29:20.432Z</time>
      </trkpt>
      <trkpt lat="48.04385" lon="2.8017">
        <ele>111</ele>
        <time>2016-12-11T09:29:21.401Z</time>
      </trkpt>
      <trkpt lat="48.04385" lon="2.8017">
        <ele>111</ele>
        <time>2016-12-11T09:29:22.396Z</time>
      </trkpt>
      <trkpt lat="48.04387" lon="2.80167">
        <ele>111</ele>
        <time>2016-12-11T09:29:23.398Z</time>
      </trkpt>
      <trkpt lat="48.04387" lon="2.80167">
        <ele>111</ele>
        <time>2016-12-11T09:29:24.406Z</time>
      </trkpt>
      <trkpt lat="48.04388" lon="2.80166">
        <ele>111</ele>
        <time>2016-12-11T09:29:25.397Z</time>
      </trkpt>
      <trkpt lat="48.04388" lon="2.80166">
        <ele>111</ele>
        <time>2016-12-11T09:29:26.396Z</time>
      </trkpt>
      <trkpt lat="48.04389" lon="2.80166">
        <ele>111</ele>
        <time>2016-12-11T09:29:27.400Z</time>
      </trkpt>
      <trkpt lat="48.04395" lon="2.80157">
        <ele>111</ele>
        <time>2016-12-11T09:29:28.432Z</time>
      </trkpt>
      <trkpt lat="48.04396" lon="2.80157">
        <ele>111</ele>
        <time>2016-12-11T09:29:29.432Z</time>
      </trkpt>
      <trkpt lat="48.04396" lon="2.80155">
        <ele>112</ele>
        <time>2016-12-11T09:29:30.433Z</time>
      </trkpt>
      <trkpt lat="48.04396" lon="2.80155">
        <ele>112</ele>
        <time>2016-12-11T09:29:31.429Z</time>
      </trkpt>
      <trkpt lat="48.04398" lon="2.80154">
        <ele>112</ele>
        <time>2016-12-11T09:29:32.431Z</time>
      </trkpt>
      <trkpt lat="48.04398" lon="2.80154">
        <ele>112</ele>
        <time>2016-12-11T09:29:33.429Z</time>
      </trkpt>
      <trkpt lat="48.044" lon="2.80152">
        <ele>112</ele>
        <time>2016-12-11T09:29:34.429Z</time>
      </trkpt>
      <trkpt lat="48.044" lon="2.80152">
        <ele>112</ele>
        <time>2016-12-11T09:29:35.430Z</time>
      </trkpt>
      <trkpt lat="48.04401" lon="2.8015">
        <ele>111</ele>
        <time>2016-12-11T09:29:36.433Z</time>
      </trkpt>
      <trkpt lat="48.04402" lon="2.80148">
        <ele>111</ele>
        <time>2016-12-11T09:29:37.433Z</time>
      </trkpt>
      <trkpt lat="48.04403" lon="2.80147">
        <ele>111</ele>
        <time>2016-12-11T09:29:38.430Z</time>
      </trkpt>
      <trkpt lat="48.04403" lon="2.80147">
        <ele>111</ele>
        <time>2016-12-11T09:29:39.428Z</time>
      </trkpt>
      <trkpt lat="48.04405" lon="2.80145">
        <ele>112</ele>
        <time>2016-12-11T09:29:40.398Z</time>
      </trkpt>
      <trkpt lat="48.04405" lon="2.80145">
        <ele>112</ele>
        <time>2016-12-11T09:29:41.408Z</time>
      </trkpt>
      <trkpt lat="48.04407" lon="2.80143">
        <ele>112</ele>
        <time>2016-12-11T09:29:42.405Z</time>
      </trkpt>
      <trkpt lat="48.04407" lon="2.80143">
        <ele>112</ele>
        <time>2016-12-11T09:29:43.434Z</time>
      </trkpt>
      <trkpt lat="48.04409" lon="2.80141">
        <ele>112</ele>
        <time>2016-12-11T09:29:44.431Z</time>
      </trkpt>
      <trkpt lat="48.04409" lon="2.80141">
        <ele>112</ele>
        <time>2016-12-11T09:29:45.430Z</time>
      </trkpt>
      <trkpt lat="48.04411" lon="2.8014">
        <ele>112</ele>
        <time>2016-12-11T09:29:46.434Z</time>
      </trkpt>
      <trkpt lat="48.04411" lon="2.8014">
        <ele>112</ele>
        <time>2016-12-11T09:29:47.427Z</time>
      </trkpt>
      <trkpt lat="48.04412" lon="2.80139">
        <ele>112</ele>
        <time>2016-12-11T09:29:48.433Z</time>
      </trkpt>
      <trkpt lat="48.04412" lon="2.80139">
        <ele>112</ele>
        <time>2016-12-11T09:29:49.429Z</time>
      </trkpt>
      <trkpt lat="48.04414" lon="2.80136">
        <ele>112</ele>
        <time>2016-12-11T09:29:50.433Z</time>
      </trkpt>
      <trkpt lat="48.04414" lon="2.80136">
        <ele>112</ele>
        <time>2016-12-11T09:29:51.427Z</time>
      </trkpt>
      <trkpt lat="48.04416" lon="2.80134">
        <ele>112</ele>
        <time>2016-12-11T09:29:52.433Z</time>
      </trkpt>
      <trkpt lat="48.04416" lon="2.80134">
        <ele>112</ele>
        <time>2016-12-11T09:29:53.429Z</time>
      </trkpt>
      <trkpt lat="48.04418" lon="2.80134">
        <ele>111</ele>
        <time>2016-12-11T09:29:54.434Z</time>
      </trkpt>
      <trkpt lat="48.04418" lon="2.80134">
        <ele>111</ele>
        <time>2016-12-11T09:29:55.431Z</time>
      </trkpt>
      <trkpt lat="48.04421" lon="2.80134">
        <ele>111</ele>
        <time>2016-12-11T09:29:56.430Z</time>
      </trkpt>
      <trkpt lat="48.04421" lon="2.80134">
        <ele>111</ele>
        <time>2016-12-11T09:29:57.429Z</time>
      </trkpt>
      <trkpt lat="48.04423" lon="2.80133">
        <ele>111</ele>
        <time>2016-12-11T09:29:58.432Z</time>
      </trkpt>
      <trkpt lat="48.04423" lon="2.80133">
        <ele>111</ele>
        <time>2016-12-11T09:29:59.426Z</time>
      </trkpt>
      <trkpt lat="48.04426" lon="2.80132">
        <ele>110</ele>
        <time>2016-12-11T09:30:00.433Z</time>
      </trkpt>
      <trkpt lat="48.04426" lon="2.80132">
        <ele>110</ele>
        <time>2016-12-11T09:30:01.431Z</time>
      </trkpt>
      <trkpt lat="48.04429" lon="2.80132">
        <ele>110</ele>
        <time>2016-12-11T09:30:02.431Z</time>
      </trkpt>
      <trkpt lat="48.04429" lon="2.80132">
        <ele>110</ele>
        <time>2016-12-11T09:30:03.427Z</time>
      </trkpt>
      <trkpt lat="48.04433" lon="2.80131">
        <ele>110</ele>
        <time>2016-12-11T09:30:04.433Z</time>
      </trkpt>
      <trkpt lat="48.04435" lon="2.8013">
        <ele>110</ele>
        <time>2016-12-11T09:30:05.410Z</time>
      </trkpt>
      <trkpt lat="48.04435" lon="2.8013">
        <ele>110</ele>
        <time>2016-12-11T09:30:06.398Z</time>
      </trkpt>
      <trkpt lat="48.04439" lon="2.8013">
        <ele>110</ele>
        <time>2016-12-11T09:30:07.431Z</time>
      </trkpt>
      <trkpt lat="48.04442" lon="2.8013">
        <ele>110</ele>
        <time>2016-12-11T09:30:08.430Z</time>
      </trkpt>
      <trkpt lat="48.04442" lon="2.8013">
        <ele>110</ele>
        <time>2016-12-11T09:30:09.419Z</time>
      </trkpt>
      <trkpt lat="48.04447" lon="2.80131">
        <ele>110</ele>
        <time>2016-12-11T09:30:10.406Z</time>
      </trkpt>
      <trkpt lat="48.04447" lon="2.80131">
        <ele>110</ele>
        <time>2016-12-11T09:30:11.434Z</time>
      </trkpt>
      <trkpt lat="48.04454" lon="2.80132">
        <ele>110</ele>
        <time>2016-12-11T09:30:12.433Z</time>
      </trkpt>
      <trkpt lat="48.04454" lon="2.80132">
        <ele>110</ele>
        <time>2016-12-11T09:30:13.429Z</time>
      </trkpt>
      <trkpt lat="48.04461" lon="2.80133">
        <ele>112</ele>
        <time>2016-12-11T09:30:14.430Z</time>
      </trkpt>
      <trkpt lat="48.04464" lon="2.80134">
        <ele>112</ele>
        <time>2016-12-11T09:30:15.402Z</time>
      </trkpt>
      <trkpt lat="48.04464" lon="2.80134">
        <ele>112</ele>
        <time>2016-12-11T09:30:16.429Z</time>
      </trkpt>
      <trkpt lat="48.04471" lon="2.80135">
        <ele>112</ele>
        <time>2016-12-11T09:30:17.413Z</time>
      </trkpt>
      <trkpt lat="48.04474" lon="2.80136">
        <ele>112</ele>
        <time>2016-12-11T09:30:18.412Z</time>
      </trkpt>
      <trkpt lat="48.04474" lon="2.80136">
        <ele>112</ele>
        <time>2016-12-11T09:30:19.420Z</time>
      </trkpt>
      <trkpt lat="48.0448" lon="2.80136">
        <ele>112</ele>
        <time>2016-12-11T09:30:20.426Z</time>
      </trkpt>
      <trkpt lat="48.0448" lon="2.80136">
        <ele>112</ele>
        <time>2016-12-11T09:30:21.430Z</time>
      </trkpt>
      <trkpt lat="48.04484" lon="2.80137">
        <ele>111</ele>
        <time>2016-12-11T09:30:22.429Z</time>
      </trkpt>
      <trkpt lat="48.04484" lon="2.80137">
        <ele>111</ele>
        <time>2016-12-11T09:30:23.426Z</time>
      </trkpt>
      <trkpt lat="48.04488" lon="2.8014">
        <ele>110</ele>
        <time>2016-12-11T09:30:24.433Z</time>
      </trkpt>
      <trkpt lat="48.04488" lon="2.8014">
        <ele>110</ele>
        <time>2016-12-11T09:30:25.430Z</time>
      </trkpt>
      <trkpt lat="48.04494" lon="2.80143">
        <ele>110</ele>
        <time>2016-12-11T09:30:26.432Z</time>
      </trkpt>
      <trkpt lat="48.04494" lon="2.80143">
        <ele>110</ele>
        <time>2016-12-11T09:30:27.426Z</time>
      </trkpt>
      <trkpt lat="48.045" lon="2.80148">
        <ele>110</ele>
        <time>2016-12-11T09:30:28.433Z</time>
      </trkpt>
      <trkpt lat="48.045" lon="2.80148">
        <ele>110</ele>
        <time>2016-12-11T09:30:29.429Z</time>
      </trkpt>
      <trkpt lat="48.04505" lon="2.80147">
        <ele>110</ele>
        <time>2016-12-11T09:30:30.433Z</time>
      </trkpt>
      <trkpt lat="48.04505" lon="2.80147">
        <ele>110</ele>
        <time>2016-12-11T09:30:31.429Z</time>
      </trkpt>
      <trkpt lat="48.04509" lon="2.80144">
        <ele>110</ele>
        <time>2016-12-11T09:30:32.433Z</time>
      </trkpt>
      <trkpt lat="48.04509" lon="2.80144">
        <ele>110</ele>
        <time>2016-12-11T09:30:33.429Z</time>
      </trkpt>
      <trkpt lat="48.04513" lon="2.80141">
        <ele>111</ele>
        <time>2016-12-11T09:30:34.429Z</time>
      </trkpt>
      <trkpt lat="48.04513" lon="2.80141">
        <ele>111</ele>
        <time>2016-12-11T09:30:35.429Z</time>
      </trkpt>
      <trkpt lat="48.04516" lon="2.80139">
        <ele>111</ele>
        <time>2016-12-11T09:30:36.433Z</time>
      </trkpt>
      <trkpt lat="48.04516" lon="2.80139">
        <ele>111</ele>
        <time>2016-12-11T09:30:37.425Z</time>
      </trkpt>
      <trkpt lat="48.04519" lon="2.80135">
        <ele>112</ele>
        <time>2016-12-11T09:30:38.429Z</time>
      </trkpt>
      <trkpt lat="48.04521" lon="2.80134">
        <ele>111</ele>
        <time>2016-12-11T09:30:39.429Z</time>
      </trkpt>
      <trkpt lat="48.04521" lon="2.80134">
        <ele>111</ele>
        <time>2016-12-11T09:30:40.398Z</time>
      </trkpt>
      <trkpt lat="48.04524" lon="2.80129">
        <ele>112</ele>
        <time>2016-12-11T09:30:41.429Z</time>
      </trkpt>
      <trkpt lat="48.04524" lon="2.80129">
        <ele>112</ele>
        <time>2016-12-11T09:30:42.427Z</time>
      </trkpt>
      <trkpt lat="48.04528" lon="2.80126">
        <ele>111</ele>
        <time>2016-12-11T09:30:43.433Z</time>
      </trkpt>
      <trkpt lat="48.04531" lon="2.80125">
        <ele>112</ele>
        <time>2016-12-11T09:30:44.433Z</time>
      </trkpt>
      <trkpt lat="48.04531" lon="2.80125">
        <ele>112</ele>
        <time>2016-12-11T09:30:45.429Z</time>
      </trkpt>
      <trkpt lat="48.04535" lon="2.80122">
        <ele>112</ele>
        <time>2016-12-11T09:30:46.432Z</time>
      </trkpt>
      <trkpt lat="48.04536" lon="2.8012">
        <ele>112</ele>
        <time>2016-12-11T09:30:47.433Z</time>
      </trkpt>
      <trkpt lat="48.04538" lon="2.80118">
        <ele>112</ele>
        <time>2016-12-11T09:30:48.434Z</time>
      </trkpt>
      <trkpt lat="48.04538" lon="2.80118">
        <ele>112</ele>
        <time>2016-12-11T09:30:49.429Z</time>
      </trkpt>
      <trkpt lat="48.04542" lon="2.80114">
        <ele>113</ele>
        <time>2016-12-11T09:30:50.431Z</time>
      </trkpt>
      <trkpt lat="48.04542" lon="2.80114">
        <ele>113</ele>
        <time>2016-12-11T09:30:51.427Z</time>
      </trkpt>
      <trkpt lat="48.04545" lon="2.80111">
        <ele>113</ele>
        <time>2016-12-11T09:30:52.429Z</time>
      </trkpt>
      <trkpt lat="48.04545" lon="2.80111">
        <ele>113</ele>
        <time>2016-12-11T09:30:53.429Z</time>
      </trkpt>
      <trkpt lat="48.04548" lon="2.80107">
        <ele>113</ele>
        <time>2016-12-11T09:30:54.433Z</time>
      </trkpt>
      <trkpt lat="48.04548" lon="2.80107">
        <ele>113</ele>
        <time>2016-12-11T09:30:55.429Z</time>
      </trkpt>
      <trkpt lat="48.04552" lon="2.80102">
        <ele>113</ele>
        <time>2016-12-11T09:30:56.433Z</time>
      </trkpt>
      <trkpt lat="48.04552" lon="2.80102">
        <ele>113</ele>
        <time>2016-12-11T09:30:57.429Z</time>
      </trkpt>
      <trkpt lat="48.04556" lon="2.80098">
        <ele>114</ele>
        <time>2016-12-11T09:30:58.430Z</time>
      </trkpt>
      <trkpt lat="48.04558" lon="2.80097">
        <ele>113</ele>
        <time>2016-12-11T09:30:59.429Z</time>
      </trkpt>
      <trkpt lat="48.0456" lon="2.80098">
        <ele>113</ele>
        <time>2016-12-11T09:31:00.436Z</time>
      </trkpt>
      <trkpt lat="48.0456" lon="2.80098">
        <ele>113</ele>
        <time>2016-12-11T09:31:01.430Z</time>
      </trkpt>
      <trkpt lat="48.04564" lon="2.80103">
        <ele>113</ele>
        <time>2016-12-11T09:31:02.433Z</time>
      </trkpt>
      <trkpt lat="48.04564" lon="2.80103">
        <ele>113</ele>
        <time>2016-12-11T09:31:03.429Z</time>
      </trkpt>
      <trkpt lat="48.04567" lon="2.80109">
        <ele>113</ele>
        <time>2016-12-11T09:31:04.431Z</time>
      </trkpt>
      <trkpt lat="48.04567" lon="2.80109">
        <ele>113</ele>
        <time>2016-12-11T09:31:05.429Z</time>
      </trkpt>
      <trkpt lat="48.04572" lon="2.80116">
        <ele>113</ele>
        <time>2016-12-11T09:31:06.401Z</time>
      </trkpt>
      <trkpt lat="48.04572" lon="2.80116">
        <ele>113</ele>
        <time>2016-12-11T09:31:07.429Z</time>
      </trkpt>
      <trkpt lat="48.04578" lon="2.80122">
        <ele>112</ele>
        <time>2016-12-11T09:31:08.431Z</time>
      </trkpt>
      <trkpt lat="48.04578" lon="2.80122">
        <ele>112</ele>
        <time>2016-12-11T09:31:09.427Z</time>
      </trkpt>
      <trkpt lat="48.04584" lon="2.8013">
        <ele>112</ele>
        <time>2016-12-11T09:31:10.431Z</time>
      </trkpt>
      <trkpt lat="48.04584" lon="2.8013">
        <ele>112</ele>
        <time>2016-12-11T09:31:11.430Z</time>
      </trkpt>
      <trkpt lat="48.04589" lon="2.80139">
        <ele>111</ele>
        <time>2016-12-11T09:31:12.433Z</time>
      </trkpt>
      <trkpt lat="48.04589" lon="2.80139">
        <ele>111</ele>
        <time>2016-12-11T09:31:13.427Z</time>
      </trkpt>
      <trkpt lat="48.04595" lon="2.80148">
        <ele>110</ele>
        <time>2016-12-11T09:31:14.433Z</time>
      </trkpt>
      <trkpt lat="48.04595" lon="2.80148">
        <ele>110</ele>
        <time>2016-12-11T09:31:15.429Z</time>
      </trkpt>
      <trkpt lat="48.04601" lon="2.80161">
        <ele>109</ele>
        <time>2016-12-11T09:31:16.432Z</time>
      </trkpt>
      <trkpt lat="48.04601" lon="2.80161">
        <ele>109</ele>
        <time>2016-12-11T09:31:17.419Z</time>
      </trkpt>
      <trkpt lat="48.04608" lon="2.80173">
        <ele>109</ele>
        <time>2016-12-11T09:31:18.409Z</time>
      </trkpt>
      <trkpt lat="48.04608" lon="2.80173">
        <ele>109</ele>
        <time>2016-12-11T09:31:19.420Z</time>
      </trkpt>
      <trkpt lat="48.04617" lon="2.80185">
        <ele>108</ele>
        <time>2016-12-11T09:31:20.426Z</time>
      </trkpt>
      <trkpt lat="48.04623" lon="2.80192">
        <ele>107</ele>
        <time>2016-12-11T09:31:21.427Z</time>
      </trkpt>
      <trkpt lat="48.04623" lon="2.80192">
        <ele>107</ele>
        <time>2016-12-11T09:31:22.427Z</time>
      </trkpt>
      <trkpt lat="48.04631" lon="2.80207">
        <ele>106</ele>
        <time>2016-12-11T09:31:23.429Z</time>
      </trkpt>
      <trkpt lat="48.04635" lon="2.80213">
        <ele>105</ele>
        <time>2016-12-11T09:31:24.434Z</time>
      </trkpt>
      <trkpt lat="48.04635" lon="2.80213">
        <ele>105</ele>
        <time>2016-12-11T09:31:25.429Z</time>
      </trkpt>
      <trkpt lat="48.0464" lon="2.80219">
        <ele>105</ele>
        <time>2016-12-11T09:31:26.432Z</time>
      </trkpt>
      <trkpt lat="48.0464" lon="2.80219">
        <ele>105</ele>
        <time>2016-12-11T09:31:27.427Z</time>
      </trkpt>
      <trkpt lat="48.04647" lon="2.8022">
        <ele>103</ele>
        <time>2016-12-11T09:31:28.429Z</time>
      </trkpt>
      <trkpt lat="48.04647" lon="2.8022">
        <ele>103</ele>
        <time>2016-12-11T09:31:29.426Z</time>
      </trkpt>
      <trkpt lat="48.04653" lon="2.8022">
        <ele>102</ele>
        <time>2016-12-11T09:31:30.434Z</time>
      </trkpt>
      <trkpt lat="48.04653" lon="2.8022">
        <ele>102</ele>
        <time>2016-12-11T09:31:31.427Z</time>
      </trkpt>
      <trkpt lat="48.04659" lon="2.80217">
        <ele>102</ele>
        <time>2016-12-11T09:31:32.402Z</time>
      </trkpt>
      <trkpt lat="48.04659" lon="2.80217">
        <ele>102</ele>
        <time>2016-12-11T09:31:33.432Z</time>
      </trkpt>
      <trkpt lat="48.04664" lon="2.8022">
        <ele>101</ele>
        <time>2016-12-11T09:31:34.431Z</time>
      </trkpt>
      <trkpt lat="48.04666" lon="2.80225">
        <ele>100</ele>
        <time>2016-12-11T09:31:35.433Z</time>
      </trkpt>
      <trkpt lat="48.04666" lon="2.80225">
        <ele>100</ele>
        <time>2016-12-11T09:31:36.427Z</time>
      </trkpt>
      <trkpt lat="48.04669" lon="2.80235">
        <ele>99</ele>
        <time>2016-12-11T09:31:37.433Z</time>
      </trkpt>
      <trkpt lat="48.04672" lon="2.80239">
        <ele>99</ele>
        <time>2016-12-11T09:31:38.431Z</time>
      </trkpt>
      <trkpt lat="48.04672" lon="2.80239">
        <ele>99</ele>
        <time>2016-12-11T09:31:39.428Z</time>
      </trkpt>
      <trkpt lat="48.04679" lon="2.80248">
        <ele>100</ele>
        <time>2016-12-11T09:31:40.397Z</time>
      </trkpt>
      <trkpt lat="48.04679" lon="2.80248">
        <ele>100</ele>
        <time>2016-12-11T09:31:41.428Z</time>
      </trkpt>
      <trkpt lat="48.04688" lon="2.80256">
        <ele>99</ele>
        <time>2016-12-11T09:31:42.432Z</time>
      </trkpt>
      <trkpt lat="48.04688" lon="2.80256">
        <ele>99</ele>
        <time>2016-12-11T09:31:43.427Z</time>
      </trkpt>
      <trkpt lat="48.04697" lon="2.80263">
        <ele>100</ele>
        <time>2016-12-11T09:31:44.433Z</time>
      </trkpt>
      <trkpt lat="48.04697" lon="2.80263">
        <ele>100</ele>
        <time>2016-12-11T09:31:45.429Z</time>
      </trkpt>
      <trkpt lat="48.04705" lon="2.80272">
        <ele>99</ele>
        <time>2016-12-11T09:31:46.430Z</time>
      </trkpt>
      <trkpt lat="48.04708" lon="2.80277">
        <ele>98</ele>
        <time>2016-12-11T09:31:47.432Z</time>
      </trkpt>
      <trkpt lat="48.04712" lon="2.80282">
        <ele>98</ele>
        <time>2016-12-11T09:31:48.420Z</time>
      </trkpt>
      <trkpt lat="48.04712" lon="2.80282">
        <ele>98</ele>
        <time>2016-12-11T09:31:49.426Z</time>
      </trkpt>
      <trkpt lat="48.04719" lon="2.80294">
        <ele>97</ele>
        <time>2016-12-11T09:31:50.433Z</time>
      </trkpt>
      <trkpt lat="48.04719" lon="2.80294">
        <ele>97</ele>
        <time>2016-12-11T09:31:51.426Z</time>
      </trkpt>
      <trkpt lat="48.04724" lon="2.80309">
        <ele>95</ele>
        <time>2016-12-11T09:31:52.429Z</time>
      </trkpt>
      <trkpt lat="48.04724" lon="2.80309">
        <ele>95</ele>
        <time>2016-12-11T09:31:53.427Z</time>
      </trkpt>
      <trkpt lat="48.04729" lon="2.80321">
        <ele>95</ele>
        <time>2016-12-11T09:31:54.433Z</time>
      </trkpt>
      <trkpt lat="48.04729" lon="2.80321">
        <ele>95</ele>
        <time>2016-12-11T09:31:55.397Z</time>
      </trkpt>
      <trkpt lat="48.04732" lon="2.80329">
        <ele>94</ele>
        <time>2016-12-11T09:31:56.396Z</time>
      </trkpt>
      <trkpt lat="48.04733" lon="2.80331">
        <ele>94</ele>
        <time>2016-12-11T09:31:57.431Z</time>
      </trkpt>
      <trkpt lat="48.04735" lon="2.80334">
        <ele>94</ele>
        <time>2016-12-11T09:31:58.429Z</time>
      </trkpt>
      <trkpt lat="48.04735" lon="2.80334">
        <ele>94</ele>
        <time>2016-12-11T09:31:59.426Z</time>
      </trkpt>
      <trkpt lat="48.04737" lon="2.80336">
        <ele>93</ele>
        <time>2016-12-11T09:32:00.433Z</time>
      </trkpt>
      <trkpt lat="48.04737" lon="2.80336">
        <ele>93</ele>
        <time>2016-12-11T09:32:01.426Z</time>
      </trkpt>
      <trkpt lat="48.0474" lon="2.80334">
        <ele>93</ele>
        <time>2016-12-11T09:32:02.433Z</time>
      </trkpt>
      <trkpt lat="48.0474" lon="2.80334">
        <ele>93</ele>
        <time>2016-12-11T09:32:03.426Z</time>
      </trkpt>
      <trkpt lat="48.04742" lon="2.80331">
        <ele>92</ele>
        <time>2016-12-11T09:32:04.429Z</time>
      </trkpt>
      <trkpt lat="48.04742" lon="2.80331">
        <ele>92</ele>
        <time>2016-12-11T09:32:05.432Z</time>
      </trkpt>
      <trkpt lat="48.04745" lon="2.80328">
        <ele>92</ele>
        <time>2016-12-11T09:32:06.397Z</time>
      </trkpt>
      <trkpt lat="48.04745" lon="2.80328">
        <ele>92</ele>
        <time>2016-12-11T09:32:07.427Z</time>
      </trkpt>
      <trkpt lat="48.04748" lon="2.80323">
        <ele>91</ele>
        <time>2016-12-11T09:32:08.433Z</time>
      </trkpt>
      <trkpt lat="48.04748" lon="2.80323">
        <ele>91</ele>
        <time>2016-12-11T09:32:09.427Z</time>
      </trkpt>
      <trkpt lat="48.04752" lon="2.80321">
        <ele>91</ele>
        <time>2016-12-11T09:32:10.433Z</time>
      </trkpt>
      <trkpt lat="48.04752" lon="2.80321">
        <ele>91</ele>
        <time>2016-12-11T09:32:11.426Z</time>
      </trkpt>
      <trkpt lat="48.04756" lon="2.80318">
        <ele>90</ele>
        <time>2016-12-11T09:32:12.434Z</time>
      </trkpt>
      <trkpt lat="48.04756" lon="2.80318">
        <ele>90</ele>
        <time>2016-12-11T09:32:13.427Z</time>
      </trkpt>
      <trkpt lat="48.0476" lon="2.80313">
        <ele>90</ele>
        <time>2016-12-11T09:32:14.431Z</time>
      </trkpt>
      <trkpt lat="48.0476" lon="2.80313">
        <ele>90</ele>
        <time>2016-12-11T09:32:15.430Z</time>
      </trkpt>
      <trkpt lat="48.04764" lon="2.80309">
        <ele>88</ele>
        <time>2016-12-11T09:32:16.433Z</time>
      </trkpt>
      <trkpt lat="48.04764" lon="2.80309">
        <ele>88</ele>
        <time>2016-12-11T09:32:17.430Z</time>
      </trkpt>
      <trkpt lat="48.04769" lon="2.80303">
        <ele>88</ele>
        <time>2016-12-11T09:32:18.427Z</time>
      </trkpt>
      <trkpt lat="48.04769" lon="2.80303">
        <ele>88</ele>
        <time>2016-12-11T09:32:19.433Z</time>
      </trkpt>
      <trkpt lat="48.04774" lon="2.80295">
        <ele>88</ele>
        <time>2016-12-11T09:32:20.399Z</time>
      </trkpt>
      <trkpt lat="48.04774" lon="2.80295">
        <ele>88</ele>
        <time>2016-12-11T09:32:21.409Z</time>
      </trkpt>
      <trkpt lat="48.04776" lon="2.80284">
        <ele>89</ele>
        <time>2016-12-11T09:32:22.409Z</time>
      </trkpt>
      <trkpt lat="48.04776" lon="2.80284">
        <ele>89</ele>
        <time>2016-12-11T09:32:23.399Z</time>
      </trkpt>
      <trkpt lat="48.04774" lon="2.80277">
        <ele>88</ele>
        <time>2016-12-11T09:32:24.433Z</time>
      </trkpt>
      <trkpt lat="48.04774" lon="2.80277">
        <ele>88</ele>
        <time>2016-12-11T09:32:25.426Z</time>
      </trkpt>
      <trkpt lat="48.04772" lon="2.80268">
        <ele>88</ele>
        <time>2016-12-11T09:32:26.429Z</time>
      </trkpt>
      <trkpt lat="48.04772" lon="2.80268">
        <ele>88</ele>
        <time>2016-12-11T09:32:27.426Z</time>
      </trkpt>
      <trkpt lat="48.04772" lon="2.80261">
        <ele>89</ele>
        <time>2016-12-11T09:32:28.429Z</time>
      </trkpt>
      <trkpt lat="48.04772" lon="2.80261">
        <ele>89</ele>
        <time>2016-12-11T09:32:29.420Z</time>
      </trkpt>
      <trkpt lat="48.04776" lon="2.80255">
        <ele>89</ele>
        <time>2016-12-11T09:32:30.427Z</time>
      </trkpt>
      <trkpt lat="48.04776" lon="2.80255">
        <ele>89</ele>
        <time>2016-12-11T09:32:31.434Z</time>
      </trkpt>
      <trkpt lat="48.04782" lon="2.80249">
        <ele>89</ele>
        <time>2016-12-11T09:32:32.434Z</time>
      </trkpt>
      <trkpt lat="48.04782" lon="2.80249">
        <ele>89</ele>
        <time>2016-12-11T09:32:33.434Z</time>
      </trkpt>
      <trkpt lat="48.04788" lon="2.80243">
        <ele>89</ele>
        <time>2016-12-11T09:32:34.397Z</time>
      </trkpt>
      <trkpt lat="48.0479" lon="2.80239">
        <ele>89</ele>
        <time>2016-12-11T09:32:35.401Z</time>
      </trkpt>
      <trkpt lat="48.0479" lon="2.80239">
        <ele>89</ele>
        <time>2016-12-11T09:32:36.407Z</time>
      </trkpt>
      <trkpt lat="48.04793" lon="2.80229">
        <ele>90</ele>
        <time>2016-12-11T09:32:37.406Z</time>
      </trkpt>
      <trkpt lat="48.04794" lon="2.80224">
        <ele>90</ele>
        <time>2016-12-11T09:32:38.425Z</time>
      </trkpt>
      <trkpt lat="48.04794" lon="2.80224">
        <ele>90</ele>
        <time>2016-12-11T09:32:39.424Z</time>
      </trkpt>
      <trkpt lat="48.04795" lon="2.80214">
        <ele>90</ele>
        <time>2016-12-11T09:32:40.404Z</time>
      </trkpt>
      <trkpt lat="48.04796" lon="2.80209">
        <ele>90</ele>
        <time>2016-12-11T09:32:41.411Z</time>
      </trkpt>
      <trkpt lat="48.04797" lon="2.80205">
        <ele>91</ele>
        <time>2016-12-11T09:32:42.401Z</time>
      </trkpt>
      <trkpt lat="48.04797" lon="2.80205">
        <ele>91</ele>
        <time>2016-12-11T09:32:43.401Z</time>
      </trkpt>
      <trkpt lat="48.04799" lon="2.80197">
        <ele>91</ele>
        <time>2016-12-11T09:32:44.416Z</time>
      </trkpt>
      <trkpt lat="48.04799" lon="2.80193">
        <ele>92</ele>
        <time>2016-12-11T09:32:45.419Z</time>
      </trkpt>
      <trkpt lat="48.04799" lon="2.80193">
        <ele>92</ele>
        <time>2016-12-11T09:32:46.433Z</time>
      </trkpt>
      <trkpt lat="48.04799" lon="2.80184">
        <ele>92</ele>
        <time>2016-12-11T09:32:47.413Z</time>
      </trkpt>
      <trkpt lat="48.04799" lon="2.80184">
        <ele>92</ele>
        <time>2016-12-11T09:32:48.422Z</time>
      </trkpt>
      <trkpt lat="48.04798" lon="2.80177">
        <ele>92</ele>
        <time>2016-12-11T09:32:49.430Z</time>
      </trkpt>
      <trkpt lat="48.04798" lon="2.80174">
        <ele>92</ele>
        <time>2016-12-11T09:32:50.396Z</time>
      </trkpt>
      <trkpt lat="48.04798" lon="2.80171">
        <ele>92</ele>
        <time>2016-12-11T09:32:51.435Z</time>
      </trkpt>
      <trkpt lat="48.04798" lon="2.80171">
        <ele>92</ele>
        <time>2016-12-11T09:32:52.429Z</time>
      </trkpt>
      <trkpt lat="48.04799" lon="2.80163">
        <ele>91</ele>
        <time>2016-12-11T09:32:53.398Z</time>
      </trkpt>
      <trkpt lat="48.04799" lon="2.80158">
        <ele>92</ele>
        <time>2016-12-11T09:32:54.399Z</time>
      </trkpt>
      <trkpt lat="48.04799" lon="2.80158">
        <ele>92</ele>
        <time>2016-12-11T09:32:55.397Z</time>
      </trkpt>
      <trkpt lat="48.04799" lon="2.8015">
        <ele>92</ele>
        <time>2016-12-11T09:32:56.396Z</time>
      </trkpt>
      <trkpt lat="48.04799" lon="2.8015">
        <ele>92</ele>
        <time>2016-12-11T09:32:57.435Z</time>
      </trkpt>
      <trkpt lat="48.04801" lon="2.80141">
        <ele>92</ele>
        <time>2016-12-11T09:32:58.408Z</time>
      </trkpt>
      <trkpt lat="48.04802" lon="2.80136">
        <ele>92</ele>
        <time>2016-12-11T09:32:59.408Z</time>
      </trkpt>
      <trkpt lat="48.04802" lon="2.80136">
        <ele>92</ele>
        <time>2016-12-11T09:33:00.404Z</time>
      </trkpt>
      <trkpt lat="48.04804" lon="2.80127">
        <ele>91</ele>
        <time>2016-12-11T09:33:01.409Z</time>
      </trkpt>
      <trkpt lat="48.04804" lon="2.80123">
        <ele>91</ele>
        <time>2016-12-11T09:33:02.408Z</time>
      </trkpt>
      <trkpt lat="48.04804" lon="2.80123">
        <ele>91</ele>
        <time>2016-12-11T09:33:03.420Z</time>
      </trkpt>
      <trkpt lat="48.04804" lon="2.80115">
        <ele>91</ele>
        <time>2016-12-11T09:33:04.400Z</time>
      </trkpt>
      <trkpt lat="48.04804" lon="2.80115">
        <ele>91</ele>
        <time>2016-12-11T09:33:05.396Z</time>
      </trkpt>
      <trkpt lat="48.04804" lon="2.80104">
        <ele>92</ele>
        <time>2016-12-11T09:33:06.429Z</time>
      </trkpt>
      <trkpt lat="48.04804" lon="2.80104">
        <ele>92</ele>
        <time>2016-12-11T09:33:07.431Z</time>
      </trkpt>
      <trkpt lat="48.04805" lon="2.80096">
        <ele>93</ele>
        <time>2016-12-11T09:33:08.408Z</time>
      </trkpt>
      <trkpt lat="48.04805" lon="2.80096">
        <ele>93</ele>
        <time>2016-12-11T09:33:09.407Z</time>
      </trkpt>
      <trkpt lat="48.04806" lon="2.80087">
        <ele>93</ele>
        <time>2016-12-11T09:33:10.403Z</time>
      </trkpt>
      <trkpt lat="48.04806" lon="2.80087">
        <ele>93</ele>
        <time>2016-12-11T09:33:11.400Z</time>
      </trkpt>
      <trkpt lat="48.04807" lon="2.80077">
        <ele>94</ele>
        <time>2016-12-11T09:33:12.400Z</time>
      </trkpt>
      <trkpt lat="48.04807" lon="2.80077">
        <ele>94</ele>
        <time>2016-12-11T09:33:13.398Z</time>
      </trkpt>
      <trkpt lat="48.04808" lon="2.80068">
        <ele>94</ele>
        <time>2016-12-11T09:33:14.401Z</time>
      </trkpt>
      <trkpt lat="48.04808" lon="2.80063">
        <ele>95</ele>
        <time>2016-12-11T09:33:15.399Z</time>
      </trkpt>
      <trkpt lat="48.04808" lon="2.80063">
        <ele>95</ele>
        <time>2016-12-11T09:33:16.396Z</time>
      </trkpt>
      <trkpt lat="48.04809" lon="2.80054">
        <ele>96</ele>
        <time>2016-12-11T09:33:17.425Z</time>
      </trkpt>
      <trkpt lat="48.04809" lon="2.80049">
        <ele>96</ele>
        <time>2016-12-11T09:33:18.435Z</time>
      </trkpt>
      <trkpt lat="48.04809" lon="2.80049">
        <ele>96</ele>
        <time>2016-12-11T09:33:19.402Z</time>
      </trkpt>
      <trkpt lat="48.04809" lon="2.80039">
        <ele>97</ele>
        <time>2016-12-11T09:33:20.403Z</time>
      </trkpt>
      <trkpt lat="48.04809" lon="2.80039">
        <ele>97</ele>
        <time>2016-12-11T09:33:21.400Z</time>
      </trkpt>
      <trkpt lat="48.04809" lon="2.80031">
        <ele>98</ele>
        <time>2016-12-11T09:33:22.399Z</time>
      </trkpt>
      <trkpt lat="48.04809" lon="2.80031">
        <ele>98</ele>
        <time>2016-12-11T09:33:23.436Z</time>
      </trkpt>
      <trkpt lat="48.04809" lon="2.80021">
        <ele>98</ele>
        <time>2016-12-11T09:33:24.400Z</time>
      </trkpt>
      <trkpt lat="48.04809" lon="2.80021">
        <ele>98</ele>
        <time>2016-12-11T09:33:25.401Z</time>
      </trkpt>
      <trkpt lat="48.04809" lon="2.80011">
        <ele>98</ele>
        <time>2016-12-11T09:33:26.398Z</time>
      </trkpt>
      <trkpt lat="48.04809" lon="2.80011">
        <ele>98</ele>
        <time>2016-12-11T09:33:27.398Z</time>
      </trkpt>
      <trkpt lat="48.04809" lon="2.80001">
        <ele>99</ele>
        <time>2016-12-11T09:33:28.398Z</time>
      </trkpt>
      <trkpt lat="48.04809" lon="2.80001">
        <ele>99</ele>
        <time>2016-12-11T09:33:29.396Z</time>
      </trkpt>
      <trkpt lat="48.04809" lon="2.7999">
        <ele>99</ele>
        <time>2016-12-11T09:33:30.434Z</time>
      </trkpt>
      <trkpt lat="48.04809" lon="2.7999">
        <ele>99</ele>
        <time>2016-12-11T09:33:31.431Z</time>
      </trkpt>
      <trkpt lat="48.04809" lon="2.79979">
        <ele>98</ele>
        <time>2016-12-11T09:33:32.398Z</time>
      </trkpt>
      <trkpt lat="48.04809" lon="2.79979">
        <ele>98</ele>
        <time>2016-12-11T09:33:33.396Z</time>
      </trkpt>
      <trkpt lat="48.04809" lon="2.79968">
        <ele>99</ele>
        <time>2016-12-11T09:33:34.401Z</time>
      </trkpt>
      <trkpt lat="48.04809" lon="2.79968">
        <ele>99</ele>
        <time>2016-12-11T09:33:35.398Z</time>
      </trkpt>
      <trkpt lat="48.04812" lon="2.79958">
        <ele>98</ele>
        <time>2016-12-11T09:33:36.401Z</time>
      </trkpt>
      <trkpt lat="48.04812" lon="2.79958">
        <ele>98</ele>
        <time>2016-12-11T09:33:37.401Z</time>
      </trkpt>
      <trkpt lat="48.04814" lon="2.79948">
        <ele>98</ele>
        <time>2016-12-11T09:33:38.417Z</time>
      </trkpt>
      <trkpt lat="48.04814" lon="2.79948">
        <ele>98</ele>
        <time>2016-12-11T09:33:39.418Z</time>
      </trkpt>
      <trkpt lat="48.04817" lon="2.79939">
        <ele>98</ele>
        <time>2016-12-11T09:33:40.420Z</time>
      </trkpt>
      <trkpt lat="48.04817" lon="2.79939">
        <ele>98</ele>
        <time>2016-12-11T09:33:41.408Z</time>
      </trkpt>
      <trkpt lat="48.0482" lon="2.79932">
        <ele>98</ele>
        <time>2016-12-11T09:33:42.407Z</time>
      </trkpt>
      <trkpt lat="48.0482" lon="2.79932">
        <ele>98</ele>
        <time>2016-12-11T09:33:43.403Z</time>
      </trkpt>
      <trkpt lat="48.04821" lon="2.79925">
        <ele>98</ele>
        <time>2016-12-11T09:33:44.407Z</time>
      </trkpt>
      <trkpt lat="48.04821" lon="2.79925">
        <ele>98</ele>
        <time>2016-12-11T09:33:45.416Z</time>
      </trkpt>
      <trkpt lat="48.04819" lon="2.79922">
        <ele>98</ele>
        <time>2016-12-11T09:33:46.401Z</time>
      </trkpt>
      <trkpt lat="48.04819" lon="2.79922">
        <ele>98</ele>
        <time>2016-12-11T09:33:47.398Z</time>
      </trkpt>
      <trkpt lat="48.04813" lon="2.79919">
        <ele>98</ele>
        <time>2016-12-11T09:33:48.408Z</time>
      </trkpt>
      <trkpt lat="48.04813" lon="2.79919">
        <ele>98</ele>
        <time>2016-12-11T09:33:49.409Z</time>
      </trkpt>
      <trkpt lat="48.04809" lon="2.79916">
        <ele>97</ele>
        <time>2016-12-11T09:33:50.407Z</time>
      </trkpt>
      <trkpt lat="48.04807" lon="2.79915">
        <ele>97</ele>
        <time>2016-12-11T09:33:51.403Z</time>
      </trkpt>
      <trkpt lat="48.04805" lon="2.79913">
        <ele>97</ele>
        <time>2016-12-11T09:33:52.401Z</time>
      </trkpt>
      <trkpt lat="48.04805" lon="2.79913">
        <ele>97</ele>
        <time>2016-12-11T09:33:53.399Z</time>
      </trkpt>
      <trkpt lat="48.048" lon="2.79911">
        <ele>96</ele>
        <time>2016-12-11T09:33:54.400Z</time>
      </trkpt>
      <trkpt lat="48.048" lon="2.79911">
        <ele>96</ele>
        <time>2016-12-11T09:33:55.399Z</time>
      </trkpt>
      <trkpt lat="48.04794" lon="2.79908">
        <ele>94</ele>
        <time>2016-12-11T09:33:56.398Z</time>
      </trkpt>
      <trkpt lat="48.04794" lon="2.79908">
        <ele>94</ele>
        <time>2016-12-11T09:33:57.403Z</time>
      </trkpt>
      <trkpt lat="48.04789" lon="2.79907">
        <ele>93</ele>
        <time>2016-12-11T09:33:58.403Z</time>
      </trkpt>
      <trkpt lat="48.04789" lon="2.79907">
        <ele>93</ele>
        <time>2016-12-11T09:33:59.414Z</time>
      </trkpt>
      <trkpt lat="48.04785" lon="2.79907">
        <ele>93</ele>
        <time>2016-12-11T09:34:00.400Z</time>
      </trkpt>
      <trkpt lat="48.04785" lon="2.79907">
        <ele>93</ele>
        <time>2016-12-11T09:34:01.417Z</time>
      </trkpt>
      <trkpt lat="48.04781" lon="2.79908">
        <ele>93</ele>
        <time>2016-12-11T09:34:02.419Z</time>
      </trkpt>
      <trkpt lat="48.04781" lon="2.79908">
        <ele>93</ele>
        <time>2016-12-11T09:34:03.417Z</time>
      </trkpt>
      <trkpt lat="48.04777" lon="2.79907">
        <ele>93</ele>
        <time>2016-12-11T09:34:04.417Z</time>
      </trkpt>
      <trkpt lat="48.04777" lon="2.79907">
        <ele>93</ele>
        <time>2016-12-11T09:34:05.424Z</time>
      </trkpt>
      <trkpt lat="48.04774" lon="2.79904">
        <ele>93</ele>
        <time>2016-12-11T09:34:06.425Z</time>
      </trkpt>
      <trkpt lat="48.04772" lon="2.79903">
        <ele>93</ele>
        <time>2016-12-11T09:34:07.403Z</time>
      </trkpt>
      <trkpt lat="48.04771" lon="2.79903">
        <ele>93</ele>
        <time>2016-12-11T09:34:08.398Z</time>
      </trkpt>
      <trkpt lat="48.04771" lon="2.79903">
        <ele>93</ele>
        <time>2016-12-11T09:34:09.408Z</time>
      </trkpt>
      <trkpt lat="48.04768" lon="2.79902">
        <ele>93</ele>
        <time>2016-12-11T09:34:10.408Z</time>
      </trkpt>
      <trkpt lat="48.04768" lon="2.79902">
        <ele>93</ele>
        <time>2016-12-11T09:34:11.403Z</time>
      </trkpt>
      <trkpt lat="48.04767" lon="2.79901">
        <ele>92</ele>
        <time>2016-12-11T09:34:12.400Z</time>
      </trkpt>
      <trkpt lat="48.04767" lon="2.79901">
        <ele>92</ele>
        <time>2016-12-11T09:34:13.397Z</time>
      </trkpt>
      <trkpt lat="48.04765" lon="2.79899">
        <ele>92</ele>
        <time>2016-12-11T09:34:14.414Z</time>
      </trkpt>
      <trkpt lat="48.04765" lon="2.79899">
        <ele>92</ele>
        <time>2016-12-11T09:34:15.414Z</time>
      </trkpt>
      <trkpt lat="48.04763" lon="2.79897">
        <ele>92</ele>
        <time>2016-12-11T09:34:16.408Z</time>
      </trkpt>
      <trkpt lat="48.04763" lon="2.79897">
        <ele>92</ele>
        <time>2016-12-11T09:34:17.400Z</time>
      </trkpt>
      <trkpt lat="48.04762" lon="2.79894">
        <ele>92</ele>
        <time>2016-12-11T09:34:18.405Z</time>
      </trkpt>
      <trkpt lat="48.04761" lon="2.79893">
        <ele>92</ele>
        <time>2016-12-11T09:34:19.430Z</time>
      </trkpt>
      <trkpt lat="48.0476" lon="2.79892">
        <ele>92</ele>
        <time>2016-12-11T09:34:20.400Z</time>
      </trkpt>
      <trkpt lat="48.0476" lon="2.79892">
        <ele>92</ele>
        <time>2016-12-11T09:34:21.398Z</time>
      </trkpt>
      <trkpt lat="48.04759" lon="2.79889">
        <ele>93</ele>
        <time>2016-12-11T09:34:22.400Z</time>
      </trkpt>
      <trkpt lat="48.04759" lon="2.79889">
        <ele>93</ele>
        <time>2016-12-11T09:34:23.399Z</time>
      </trkpt>
      <trkpt lat="48.04757" lon="2.79889">
        <ele>93</ele>
        <time>2016-12-11T09:34:24.408Z</time>
      </trkpt>
      <trkpt lat="48.04757" lon="2.79889">
        <ele>93</ele>
        <time>2016-12-11T09:34:25.408Z</time>
      </trkpt>
      <trkpt lat="48.04755" lon="2.79887">
        <ele>93</ele>
        <time>2016-12-11T09:34:26.413Z</time>
      </trkpt>
      <trkpt lat="48.04755" lon="2.79887">
        <ele>93</ele>
        <time>2016-12-11T09:34:27.414Z</time>
      </trkpt>
      <trkpt lat="48.04753" lon="2.79887">
        <ele>93</ele>
        <time>2016-12-11T09:34:28.400Z</time>
      </trkpt>
      <trkpt lat="48.04753" lon="2.79887">
        <ele>93</ele>
        <time>2016-12-11T09:34:29.401Z</time>
      </trkpt>
      <trkpt lat="48.04752" lon="2.79888">
        <ele>94</ele>
        <time>2016-12-11T09:34:30.402Z</time>
      </trkpt>
      <trkpt lat="48.04752" lon="2.79888">
        <ele>94</ele>
        <time>2016-12-11T09:34:31.419Z</time>
      </trkpt>
      <trkpt lat="48.04751" lon="2.79889">
        <ele>94</ele>
        <time>2016-12-11T09:34:32.434Z</time>
      </trkpt>
      <trkpt lat="48.04751" lon="2.79889">
        <ele>94</ele>
        <time>2016-12-11T09:34:33.432Z</time>
      </trkpt>
      <trkpt lat="48.04749" lon="2.79891">
        <ele>94</ele>
        <time>2016-12-11T09:34:34.400Z</time>
      </trkpt>
      <trkpt lat="48.04749" lon="2.79891">
        <ele>94</ele>
        <time>2016-12-11T09:34:35.407Z</time>
      </trkpt>
      <trkpt lat="48.04747" lon="2.79892">
        <ele>94</ele>
        <time>2016-12-11T09:34:36.407Z</time>
      </trkpt>
      <trkpt lat="48.04747" lon="2.79892">
        <ele>94</ele>
        <time>2016-12-11T09:34:37.408Z</time>
      </trkpt>
      <trkpt lat="48.04745" lon="2.79895">
        <ele>95</ele>
        <time>2016-12-11T09:34:38.399Z</time>
      </trkpt>
      <trkpt lat="48.04745" lon="2.79895">
        <ele>95</ele>
        <time>2016-12-11T09:34:39.418Z</time>
      </trkpt>
      <trkpt lat="48.04743" lon="2.79897">
        <ele>95</ele>
        <time>2016-12-11T09:34:40.400Z</time>
      </trkpt>
      <trkpt lat="48.04743" lon="2.79897">
        <ele>95</ele>
        <time>2016-12-11T09:34:41.429Z</time>
      </trkpt>
      <trkpt lat="48.04741" lon="2.79899">
        <ele>95</ele>
        <time>2016-12-11T09:34:42.428Z</time>
      </trkpt>
      <trkpt lat="48.04741" lon="2.79899">
        <ele>95</ele>
        <time>2016-12-11T09:34:43.422Z</time>
      </trkpt>
      <trkpt lat="48.0474" lon="2.799">
        <ele>96</ele>
        <time>2016-12-11T09:34:44.396Z</time>
      </trkpt>
      <trkpt lat="48.0474" lon="2.799">
        <ele>96</ele>
        <time>2016-12-11T09:34:45.432Z</time>
      </trkpt>
      <trkpt lat="48.04735" lon="2.79899">
        <ele>96</ele>
        <time>2016-12-11T09:34:46.400Z</time>
      </trkpt>
      <trkpt lat="48.04734" lon="2.79899">
        <ele>96</ele>
        <time>2016-12-11T09:34:47.400Z</time>
      </trkpt>
      <trkpt lat="48.04734" lon="2.79899">
        <ele>96</ele>
        <time>2016-12-11T09:34:48.426Z</time>
      </trkpt>
      <trkpt lat="48.04731" lon="2.799">
        <ele>96</ele>
        <time>2016-12-11T09:34:49.431Z</time>
      </trkpt>
      <trkpt lat="48.0473" lon="2.799">
        <ele>96</ele>
        <time>2016-12-11T09:34:50.409Z</time>
      </trkpt>
      <trkpt lat="48.0473" lon="2.799">
        <ele>96</ele>
        <time>2016-12-11T09:34:51.409Z</time>
      </trkpt>
      <trkpt lat="48.04727" lon="2.79901">
        <ele>96</ele>
        <time>2016-12-11T09:34:52.412Z</time>
      </trkpt>
      <trkpt lat="48.04727" lon="2.79901">
        <ele>96</ele>
        <time>2016-12-11T09:34:53.414Z</time>
      </trkpt>
      <trkpt lat="48.04724" lon="2.79903">
        <ele>96</ele>
        <time>2016-12-11T09:34:54.401Z</time>
      </trkpt>
      <trkpt lat="48.04724" lon="2.79903">
        <ele>96</ele>
        <time>2016-12-11T09:34:55.420Z</time>
      </trkpt>
      <trkpt lat="48.04721" lon="2.79904">
        <ele>96</ele>
        <time>2016-12-11T09:34:56.401Z</time>
      </trkpt>
      <trkpt lat="48.04721" lon="2.79904">
        <ele>96</ele>
        <time>2016-12-11T09:34:57.401Z</time>
      </trkpt>
      <trkpt lat="48.04719" lon="2.79904">
        <ele>96</ele>
        <time>2016-12-11T09:34:58.407Z</time>
      </trkpt>
      <trkpt lat="48.04719" lon="2.79904">
        <ele>96</ele>
        <time>2016-12-11T09:34:59.406Z</time>
      </trkpt>
      <trkpt lat="48.04719" lon="2.79904">
        <ele>96</ele>
        <time>2016-12-11T09:35:00.403Z</time>
      </trkpt>
      <trkpt lat="48.04719" lon="2.79904">
        <ele>96</ele>
        <time>2016-12-11T09:35:01.410Z</time>
      </trkpt>
      <trkpt lat="48.04713" lon="2.79909">
        <ele>96</ele>
        <time>2016-12-11T09:35:02.422Z</time>
      </trkpt>
      <trkpt lat="48.04713" lon="2.79909">
        <ele>96</ele>
        <time>2016-12-11T09:35:03.413Z</time>
      </trkpt>
      <trkpt lat="48.04712" lon="2.79912">
        <ele>96</ele>
        <time>2016-12-11T09:35:04.433Z</time>
      </trkpt>
      <trkpt lat="48.04712" lon="2.79912">
        <ele>96</ele>
        <time>2016-12-11T09:35:05.404Z</time>
      </trkpt>
      <trkpt lat="48.04711" lon="2.79916">
        <ele>95</ele>
        <time>2016-12-11T09:35:06.407Z</time>
      </trkpt>
      <trkpt lat="48.04711" lon="2.79918">
        <ele>96</ele>
        <time>2016-12-11T09:35:07.414Z</time>
      </trkpt>
      <trkpt lat="48.04711" lon="2.79918">
        <ele>96</ele>
        <time>2016-12-11T09:35:08.406Z</time>
      </trkpt>
      <trkpt lat="48.0471" lon="2.79922">
        <ele>96</ele>
        <time>2016-12-11T09:35:09.446Z</time>
      </trkpt>
      <trkpt lat="48.04708" lon="2.79923">
        <ele>95</ele>
        <time>2016-12-11T09:35:10.406Z</time>
      </trkpt>
      <trkpt lat="48.04708" lon="2.79923">
        <ele>95</ele>
        <time>2016-12-11T09:35:11.416Z</time>
      </trkpt>
      <trkpt lat="48.04706" lon="2.79925">
        <ele>95</ele>
        <time>2016-12-11T09:35:12.428Z</time>
      </trkpt>
      <trkpt lat="48.04706" lon="2.79925">
        <ele>95</ele>
        <time>2016-12-11T09:35:13.448Z</time>
      </trkpt>
      <trkpt lat="48.04705" lon="2.79925">
        <ele>96</ele>
        <time>2016-12-11T09:35:14.427Z</time>
      </trkpt>
      <trkpt lat="48.04705" lon="2.79925">
        <ele>96</ele>
        <time>2016-12-11T09:35:15.411Z</time>
      </trkpt>
      <trkpt lat="48.04697" lon="2.79914">
        <ele>96</ele>
        <time>2016-12-11T09:35:16.434Z</time>
      </trkpt>
      <trkpt lat="48.04697" lon="2.79914">
        <ele>96</ele>
        <time>2016-12-11T09:35:17.417Z</time>
      </trkpt>
      <trkpt lat="48.04695" lon="2.7991">
        <ele>96</ele>
        <time>2016-12-11T09:35:18.396Z</time>
      </trkpt>
      <trkpt lat="48.04694" lon="2.79909">
        <ele>96</ele>
        <time>2016-12-11T09:35:19.406Z</time>
      </trkpt>
      <trkpt lat="48.04692" lon="2.79908">
        <ele>97</ele>
        <time>2016-12-11T09:35:20.422Z</time>
      </trkpt>
      <trkpt lat="48.04692" lon="2.79908">
        <ele>97</ele>
        <time>2016-12-11T09:35:21.410Z</time>
      </trkpt>
      <trkpt lat="48.0469" lon="2.79905">
        <ele>97</ele>
        <time>2016-12-11T09:35:22.422Z</time>
      </trkpt>
      <trkpt lat="48.0469" lon="2.79905">
        <ele>97</ele>
        <time>2016-12-11T09:35:23.404Z</time>
      </trkpt>
      <trkpt lat="48.04688" lon="2.79903">
        <ele>97</ele>
        <time>2016-12-11T09:35:24.423Z</time>
      </trkpt>
      <trkpt lat="48.04688" lon="2.79903">
        <ele>97</ele>
        <time>2016-12-11T09:35:25.411Z</time>
      </trkpt>
      <trkpt lat="48.04687" lon="2.79901">
        <ele>98</ele>
        <time>2016-12-11T09:35:26.421Z</time>
      </trkpt>
      <trkpt lat="48.04687" lon="2.79901">
        <ele>98</ele>
        <time>2016-12-11T09:35:27.420Z</time>
      </trkpt>
      <trkpt lat="48.04686" lon="2.79898">
        <ele>99</ele>
        <time>2016-12-11T09:35:28.420Z</time>
      </trkpt>
      <trkpt lat="48.04686" lon="2.79898">
        <ele>99</ele>
        <time>2016-12-11T09:35:29.412Z</time>
      </trkpt>
      <trkpt lat="48.04685" lon="2.79899">
        <ele>99</ele>
        <time>2016-12-11T09:35:30.423Z</time>
      </trkpt>
      <trkpt lat="48.04685" lon="2.79899">
        <ele>99</ele>
        <time>2016-12-11T09:35:31.423Z</time>
      </trkpt>
      <trkpt lat="48.04683" lon="2.799">
        <ele>100</ele>
        <time>2016-12-11T09:35:32.422Z</time>
      </trkpt>
      <trkpt lat="48.04683" lon="2.799">
        <ele>100</ele>
        <time>2016-12-11T09:35:33.422Z</time>
      </trkpt>
      <trkpt lat="48.04683" lon="2.79899">
        <ele>100</ele>
        <time>2016-12-11T09:35:34.420Z</time>
      </trkpt>
      <trkpt lat="48.04683" lon="2.79899">
        <ele>100</ele>
        <time>2016-12-11T09:35:35.414Z</time>
      </trkpt>
      <trkpt lat="48.04683" lon="2.79899">
        <ele>100</ele>
        <time>2016-12-11T09:35:36.409Z</time>
      </trkpt>
      <trkpt lat="48.04676" lon="2.7989">
        <ele>101</ele>
        <time>2016-12-11T09:35:37.406Z</time>
      </trkpt>
      <trkpt lat="48.04675" lon="2.79889">
        <ele>101</ele>
        <time>2016-12-11T09:35:38.418Z</time>
      </trkpt>
      <trkpt lat="48.04674" lon="2.79888">
        <ele>101</ele>
        <time>2016-12-11T09:35:39.421Z</time>
      </trkpt>
      <trkpt lat="48.04674" lon="2.79888">
        <ele>101</ele>
        <time>2016-12-11T09:35:40.419Z</time>
      </trkpt>
      <trkpt lat="48.04673" lon="2.79887">
        <ele>101</ele>
        <time>2016-12-11T09:35:41.419Z</time>
      </trkpt>
      <trkpt lat="48.04673" lon="2.79887">
        <ele>101</ele>
        <time>2016-12-11T09:35:42.417Z</time>
      </trkpt>
      <trkpt lat="48.04671" lon="2.79887">
        <ele>101</ele>
        <time>2016-12-11T09:35:43.417Z</time>
      </trkpt>
      <trkpt lat="48.04671" lon="2.79887">
        <ele>101</ele>
        <time>2016-12-11T09:35:44.429Z</time>
      </trkpt>
      <trkpt lat="48.04667" lon="2.79886">
        <ele>101</ele>
        <time>2016-12-11T09:35:45.419Z</time>
      </trkpt>
      <trkpt lat="48.04667" lon="2.79886">
        <ele>101</ele>
        <time>2016-12-11T09:35:46.413Z</time>
      </trkpt>
      <trkpt lat="48.04665" lon="2.79886">
        <ele>101</ele>
        <time>2016-12-11T09:35:47.416Z</time>
      </trkpt>
      <trkpt lat="48.04665" lon="2.79886">
        <ele>101</ele>
        <time>2016-12-11T09:35:48.411Z</time>
      </trkpt>
      <trkpt lat="48.04663" lon="2.79885">
        <ele>101</ele>
        <time>2016-12-11T09:35:49.416Z</time>
      </trkpt>
      <trkpt lat="48.04663" lon="2.79885">
        <ele>101</ele>
        <time>2016-12-11T09:35:50.402Z</time>
      </trkpt>
      <trkpt lat="48.04661" lon="2.79884">
        <ele>102</ele>
        <time>2016-12-11T09:35:51.419Z</time>
      </trkpt>
      <trkpt lat="48.04661" lon="2.79884">
        <ele>102</ele>
        <time>2016-12-11T09:35:52.417Z</time>
      </trkpt>
      <trkpt lat="48.04659" lon="2.79882">
        <ele>102</ele>
        <time>2016-12-11T09:35:53.417Z</time>
      </trkpt>
      <trkpt lat="48.04659" lon="2.79882">
        <ele>102</ele>
        <time>2016-12-11T09:35:54.418Z</time>
      </trkpt>
      <trkpt lat="48.04657" lon="2.7988">
        <ele>102</ele>
        <time>2016-12-11T09:35:55.420Z</time>
      </trkpt>
      <trkpt lat="48.04657" lon="2.7988">
        <ele>102</ele>
        <time>2016-12-11T09:35:56.416Z</time>
      </trkpt>
      <trkpt lat="48.04655" lon="2.79878">
        <ele>102</ele>
        <time>2016-12-11T09:35:57.420Z</time>
      </trkpt>
      <trkpt lat="48.04655" lon="2.79878">
        <ele>102</ele>
        <time>2016-12-11T09:35:58.418Z</time>
      </trkpt>
      <trkpt lat="48.04653" lon="2.79875">
        <ele>102</ele>
        <time>2016-12-11T09:35:59.417Z</time>
      </trkpt>
      <trkpt lat="48.04653" lon="2.79875">
        <ele>102</ele>
        <time>2016-12-11T09:36:00.414Z</time>
      </trkpt>
      <trkpt lat="48.04652" lon="2.79874">
        <ele>102</ele>
        <time>2016-12-11T09:36:01.409Z</time>
      </trkpt>
      <trkpt lat="48.04652" lon="2.79874">
        <ele>102</ele>
        <time>2016-12-11T09:36:02.406Z</time>
      </trkpt>
      <trkpt lat="48.04651" lon="2.79872">
        <ele>102</ele>
        <time>2016-12-11T09:36:03.408Z</time>
      </trkpt>
      <trkpt lat="48.04651" lon="2.79872">
        <ele>102</ele>
        <time>2016-12-11T09:36:04.411Z</time>
      </trkpt>
      <trkpt lat="48.0465" lon="2.7987">
        <ele>102</ele>
        <time>2016-12-11T09:36:05.411Z</time>
      </trkpt>
      <trkpt lat="48.0465" lon="2.7987">
        <ele>102</ele>
        <time>2016-12-11T09:36:06.406Z</time>
      </trkpt>
      <trkpt lat="48.04648" lon="2.79867">
        <ele>102</ele>
        <time>2016-12-11T09:36:07.411Z</time>
      </trkpt>
      <trkpt lat="48.04648" lon="2.79867">
        <ele>102</ele>
        <time>2016-12-11T09:36:08.406Z</time>
      </trkpt>
      <trkpt lat="48.04647" lon="2.79865">
        <ele>102</ele>
        <time>2016-12-11T09:36:09.412Z</time>
      </trkpt>
      <trkpt lat="48.04647" lon="2.79865">
        <ele>102</ele>
        <time>2016-12-11T09:36:10.408Z</time>
      </trkpt>
      <trkpt lat="48.04645" lon="2.79862">
        <ele>102</ele>
        <time>2016-12-11T09:36:11.412Z</time>
      </trkpt>
      <trkpt lat="48.04645" lon="2.79862">
        <ele>102</ele>
        <time>2016-12-11T09:36:12.405Z</time>
      </trkpt>
      <trkpt lat="48.04644" lon="2.7986">
        <ele>102</ele>
        <time>2016-12-11T09:36:13.410Z</time>
      </trkpt>
      <trkpt lat="48.04644" lon="2.7986">
        <ele>102</ele>
        <time>2016-12-11T09:36:14.407Z</time>
      </trkpt>
      <trkpt lat="48.04643" lon="2.79856">
        <ele>103</ele>
        <time>2016-12-11T09:36:15.413Z</time>
      </trkpt>
      <trkpt lat="48.04643" lon="2.79856">
        <ele>103</ele>
        <time>2016-12-11T09:36:16.405Z</time>
      </trkpt>
      <trkpt lat="48.04641" lon="2.79856">
        <ele>103</ele>
        <time>2016-12-11T09:36:17.432Z</time>
      </trkpt>
      <trkpt lat="48.04641" lon="2.79856">
        <ele>103</ele>
        <time>2016-12-11T09:36:18.402Z</time>
      </trkpt>
      <trkpt lat="48.0464" lon="2.79857">
        <ele>103</ele>
        <time>2016-12-11T09:36:19.408Z</time>
      </trkpt>
      <trkpt lat="48.04639" lon="2.79857">
        <ele>103</ele>
        <time>2016-12-11T09:36:20.418Z</time>
      </trkpt>
      <trkpt lat="48.04638" lon="2.79857">
        <ele>103</ele>
        <time>2016-12-11T09:36:21.411Z</time>
      </trkpt>
      <trkpt lat="48.04638" lon="2.79857">
        <ele>103</ele>
        <time>2016-12-11T09:36:22.406Z</time>
      </trkpt>
      <trkpt lat="48.04637" lon="2.79856">
        <ele>103</ele>
        <time>2016-12-11T09:36:23.410Z</time>
      </trkpt>
      <trkpt lat="48.04637" lon="2.79856">
        <ele>103</ele>
        <time>2016-12-11T09:36:24.405Z</time>
      </trkpt>
      <trkpt lat="48.04636" lon="2.79854">
        <ele>103</ele>
        <time>2016-12-11T09:36:25.410Z</time>
      </trkpt>
      <trkpt lat="48.04636" lon="2.79854">
        <ele>103</ele>
        <time>2016-12-11T09:36:26.405Z</time>
      </trkpt>
      <trkpt lat="48.04634" lon="2.79852">
        <ele>103</ele>
        <time>2016-12-11T09:36:27.413Z</time>
      </trkpt>
      <trkpt lat="48.04634" lon="2.79852">
        <ele>103</ele>
        <time>2016-12-11T09:36:28.405Z</time>
      </trkpt>
      <trkpt lat="48.04632" lon="2.7985">
        <ele>103</ele>
        <time>2016-12-11T09:36:29.409Z</time>
      </trkpt>
      <trkpt lat="48.04631" lon="2.79849">
        <ele>103</ele>
        <time>2016-12-11T09:36:30.410Z</time>
      </trkpt>
      <trkpt lat="48.04631" lon="2.79849">
        <ele>103</ele>
        <time>2016-12-11T09:36:31.404Z</time>
      </trkpt>
      <trkpt lat="48.04629" lon="2.79846">
        <ele>103</ele>
        <time>2016-12-11T09:36:32.413Z</time>
      </trkpt>
      <trkpt lat="48.04629" lon="2.79846">
        <ele>103</ele>
        <time>2016-12-11T09:36:33.407Z</time>
      </trkpt>
      <trkpt lat="48.04627" lon="2.7984">
        <ele>104</ele>
        <time>2016-12-11T09:36:34.411Z</time>
      </trkpt>
      <trkpt lat="48.04626" lon="2.79838">
        <ele>104</ele>
        <time>2016-12-11T09:36:35.411Z</time>
      </trkpt>
      <trkpt lat="48.04626" lon="2.79838">
        <ele>104</ele>
        <time>2016-12-11T09:36:36.406Z</time>
      </trkpt>
      <trkpt lat="48.04625" lon="2.79833">
        <ele>104</ele>
        <time>2016-12-11T09:36:37.408Z</time>
      </trkpt>
      <trkpt lat="48.04625" lon="2.79833">
        <ele>104</ele>
        <time>2016-12-11T09:36:38.405Z</time>
      </trkpt>
      <trkpt lat="48.04624" lon="2.79829">
        <ele>104</ele>
        <time>2016-12-11T09:36:39.412Z</time>
      </trkpt>
      <trkpt lat="48.04624" lon="2.79829">
        <ele>104</ele>
        <time>2016-12-11T09:36:40.405Z</time>
      </trkpt>
      <trkpt lat="48.04623" lon="2.79826">
        <ele>104</ele>
        <time>2016-12-11T09:36:41.409Z</time>
      </trkpt>
      <trkpt lat="48.04623" lon="2.79826">
        <ele>104</ele>
        <time>2016-12-11T09:36:42.405Z</time>
      </trkpt>
      <trkpt lat="48.04621" lon="2.79824">
        <ele>105</ele>
        <time>2016-12-11T09:36:43.409Z</time>
      </trkpt>
      <trkpt lat="48.0462" lon="2.79823">
        <ele>105</ele>
        <time>2016-12-11T09:36:44.410Z</time>
      </trkpt>
      <trkpt lat="48.04619" lon="2.79821">
        <ele>106</ele>
        <time>2016-12-11T09:36:45.411Z</time>
      </trkpt>
      <trkpt lat="48.04619" lon="2.79821">
        <ele>106</ele>
        <time>2016-12-11T09:36:46.405Z</time>
      </trkpt>
      <trkpt lat="48.04616" lon="2.79818">
        <ele>106</ele>
        <time>2016-12-11T09:36:47.411Z</time>
      </trkpt>
      <trkpt lat="48.04616" lon="2.79818">
        <ele>106</ele>
        <time>2016-12-11T09:36:48.424Z</time>
      </trkpt>
      <trkpt lat="48.04613" lon="2.79816">
        <ele>107</ele>
        <time>2016-12-11T09:36:49.412Z</time>
      </trkpt>
      <trkpt lat="48.04613" lon="2.79816">
        <ele>107</ele>
        <time>2016-12-11T09:36:50.405Z</time>
      </trkpt>
      <trkpt lat="48.04611" lon="2.79816">
        <ele>107</ele>
        <time>2016-12-11T09:36:51.411Z</time>
      </trkpt>
      <trkpt lat="48.04611" lon="2.79816">
        <ele>107</ele>
        <time>2016-12-11T09:36:52.404Z</time>
      </trkpt>
      <trkpt lat="48.04608" lon="2.79817">
        <ele>107</ele>
        <time>2016-12-11T09:36:53.412Z</time>
      </trkpt>
      <trkpt lat="48.04608" lon="2.79817">
        <ele>107</ele>
        <time>2016-12-11T09:36:54.406Z</time>
      </trkpt>
      <trkpt lat="48.04606" lon="2.79817">
        <ele>107</ele>
        <time>2016-12-11T09:36:55.424Z</time>
      </trkpt>
      <trkpt lat="48.04606" lon="2.79817">
        <ele>107</ele>
        <time>2016-12-11T09:36:56.409Z</time>
      </trkpt>
      <trkpt lat="48.04602" lon="2.79817">
        <ele>108</ele>
        <time>2016-12-11T09:36:57.411Z</time>
      </trkpt>
      <trkpt lat="48.04602" lon="2.79817">
        <ele>108</ele>
        <time>2016-12-11T09:36:58.405Z</time>
      </trkpt>
      <trkpt lat="48.04599" lon="2.79818">
        <ele>108</ele>
        <time>2016-12-11T09:36:59.410Z</time>
      </trkpt>
      <trkpt lat="48.04599" lon="2.79818">
        <ele>108</ele>
        <time>2016-12-11T09:37:00.410Z</time>
      </trkpt>
      <trkpt lat="48.04596" lon="2.7982">
        <ele>109</ele>
        <time>2016-12-11T09:37:01.412Z</time>
      </trkpt>
      <trkpt lat="48.04596" lon="2.7982">
        <ele>109</ele>
        <time>2016-12-11T09:37:02.406Z</time>
      </trkpt>
      <trkpt lat="48.04594" lon="2.79822">
        <ele>109</ele>
        <time>2016-12-11T09:37:03.411Z</time>
      </trkpt>
      <trkpt lat="48.04594" lon="2.79822">
        <ele>109</ele>
        <time>2016-12-11T09:37:04.405Z</time>
      </trkpt>
      <trkpt lat="48.04591" lon="2.79824">
        <ele>109</ele>
        <time>2016-12-11T09:37:05.411Z</time>
      </trkpt>
      <trkpt lat="48.04589" lon="2.79825">
        <ele>109</ele>
        <time>2016-12-11T09:37:06.410Z</time>
      </trkpt>
      <trkpt lat="48.04589" lon="2.79825">
        <ele>109</ele>
        <time>2016-12-11T09:37:07.405Z</time>
      </trkpt>
      <trkpt lat="48.04587" lon="2.79826">
        <ele>110</ele>
        <time>2016-12-11T09:37:08.410Z</time>
      </trkpt>
      <trkpt lat="48.04586" lon="2.79826">
        <ele>110</ele>
        <time>2016-12-11T09:37:09.411Z</time>
      </trkpt>
      <trkpt lat="48.04586" lon="2.79826">
        <ele>110</ele>
        <time>2016-12-11T09:37:10.405Z</time>
      </trkpt>
      <trkpt lat="48.04585" lon="2.79828">
        <ele>110</ele>
        <time>2016-12-11T09:37:11.408Z</time>
      </trkpt>
      <trkpt lat="48.04585" lon="2.79828">
        <ele>110</ele>
        <time>2016-12-11T09:37:12.405Z</time>
      </trkpt>
      <trkpt lat="48.04582" lon="2.79832">
        <ele>110</ele>
        <time>2016-12-11T09:37:13.410Z</time>
      </trkpt>
      <trkpt lat="48.04582" lon="2.79832">
        <ele>110</ele>
        <time>2016-12-11T09:37:14.405Z</time>
      </trkpt>
      <trkpt lat="48.0458" lon="2.79837">
        <ele>110</ele>
        <time>2016-12-11T09:37:15.410Z</time>
      </trkpt>
      <trkpt lat="48.0458" lon="2.79837">
        <ele>110</ele>
        <time>2016-12-11T09:37:16.405Z</time>
      </trkpt>
      <trkpt lat="48.04578" lon="2.79841">
        <ele>111</ele>
        <time>2016-12-11T09:37:17.435Z</time>
      </trkpt>
      <trkpt lat="48.04576" lon="2.79844">
        <ele>111</ele>
        <time>2016-12-11T09:37:18.397Z</time>
      </trkpt>
      <trkpt lat="48.04575" lon="2.79847">
        <ele>111</ele>
        <time>2016-12-11T09:37:19.403Z</time>
      </trkpt>
      <trkpt lat="48.04575" lon="2.79847">
        <ele>111</ele>
        <time>2016-12-11T09:37:20.410Z</time>
      </trkpt>
      <trkpt lat="48.04573" lon="2.79852">
        <ele>112</ele>
        <time>2016-12-11T09:37:21.417Z</time>
      </trkpt>
      <trkpt lat="48.04573" lon="2.79852">
        <ele>112</ele>
        <time>2016-12-11T09:37:22.415Z</time>
      </trkpt>
      <trkpt lat="48.04571" lon="2.79857">
        <ele>112</ele>
        <time>2016-12-11T09:37:23.411Z</time>
      </trkpt>
      <trkpt lat="48.0457" lon="2.7986">
        <ele>112</ele>
        <time>2016-12-11T09:37:24.410Z</time>
      </trkpt>
      <trkpt lat="48.0457" lon="2.7986">
        <ele>112</ele>
        <time>2016-12-11T09:37:25.405Z</time>
      </trkpt>
      <trkpt lat="48.04568" lon="2.79864">
        <ele>112</ele>
        <time>2016-12-11T09:37:26.410Z</time>
      </trkpt>
      <trkpt lat="48.04566" lon="2.79866">
        <ele>112</ele>
        <time>2016-12-11T09:37:27.413Z</time>
      </trkpt>
      <trkpt lat="48.04566" lon="2.79866">
        <ele>112</ele>
        <time>2016-12-11T09:37:28.406Z</time>
      </trkpt>
      <trkpt lat="48.04563" lon="2.79869">
        <ele>112</ele>
        <time>2016-12-11T09:37:29.412Z</time>
      </trkpt>
      <trkpt lat="48.04563" lon="2.79869">
        <ele>112</ele>
        <time>2016-12-11T09:37:30.408Z</time>
      </trkpt>
      <trkpt lat="48.0456" lon="2.79873">
        <ele>112</ele>
        <time>2016-12-11T09:37:31.412Z</time>
      </trkpt>
      <trkpt lat="48.0456" lon="2.79873">
        <ele>112</ele>
        <time>2016-12-11T09:37:32.406Z</time>
      </trkpt>
      <trkpt lat="48.04557" lon="2.79878">
        <ele>112</ele>
        <time>2016-12-11T09:37:33.410Z</time>
      </trkpt>
      <trkpt lat="48.04557" lon="2.79878">
        <ele>112</ele>
        <time>2016-12-11T09:37:34.406Z</time>
      </trkpt>
      <trkpt lat="48.04554" lon="2.79881">
        <ele>111</ele>
        <time>2016-12-11T09:37:35.402Z</time>
      </trkpt>
      <trkpt lat="48.04552" lon="2.79883">
        <ele>111</ele>
        <time>2016-12-11T09:37:36.409Z</time>
      </trkpt>
      <trkpt lat="48.04552" lon="2.79883">
        <ele>111</ele>
        <time>2016-12-11T09:37:37.405Z</time>
      </trkpt>
      <trkpt lat="48.04548" lon="2.79885">
        <ele>112</ele>
        <time>2016-12-11T09:37:38.410Z</time>
      </trkpt>
      <trkpt lat="48.04546" lon="2.79886">
        <ele>112</ele>
        <time>2016-12-11T09:37:39.412Z</time>
      </trkpt>
      <trkpt lat="48.04546" lon="2.79886">
        <ele>112</ele>
        <time>2016-12-11T09:37:40.408Z</time>
      </trkpt>
      <trkpt lat="48.04542" lon="2.79889">
        <ele>111</ele>
        <time>2016-12-11T09:37:41.408Z</time>
      </trkpt>
      <trkpt lat="48.04542" lon="2.79889">
        <ele>111</ele>
        <time>2016-12-11T09:37:42.405Z</time>
      </trkpt>
      <trkpt lat="48.04539" lon="2.79893">
        <ele>111</ele>
        <time>2016-12-11T09:37:43.397Z</time>
      </trkpt>
      <trkpt lat="48.04539" lon="2.79893">
        <ele>111</ele>
        <time>2016-12-11T09:37:44.405Z</time>
      </trkpt>
      <trkpt lat="48.04536" lon="2.79896">
        <ele>111</ele>
        <time>2016-12-11T09:37:45.419Z</time>
      </trkpt>
      <trkpt lat="48.04534" lon="2.79898">
        <ele>111</ele>
        <time>2016-12-11T09:37:46.410Z</time>
      </trkpt>
      <trkpt lat="48.04532" lon="2.799">
        <ele>111</ele>
        <time>2016-12-11T09:37:47.408Z</time>
      </trkpt>
      <trkpt lat="48.04532" lon="2.799">
        <ele>111</ele>
        <time>2016-12-11T09:37:48.414Z</time>
      </trkpt>
      <trkpt lat="48.04529" lon="2.79904">
        <ele>111</ele>
        <time>2016-12-11T09:37:49.412Z</time>
      </trkpt>
      <trkpt lat="48.04529" lon="2.79904">
        <ele>111</ele>
        <time>2016-12-11T09:37:50.405Z</time>
      </trkpt>
      <trkpt lat="48.04525" lon="2.79907">
        <ele>111</ele>
        <time>2016-12-11T09:37:51.432Z</time>
      </trkpt>
      <trkpt lat="48.04525" lon="2.79907">
        <ele>111</ele>
        <time>2016-12-11T09:37:52.420Z</time>
      </trkpt>
      <trkpt lat="48.04521" lon="2.79911">
        <ele>111</ele>
        <time>2016-12-11T09:37:53.409Z</time>
      </trkpt>
      <trkpt lat="48.04519" lon="2.79912">
        <ele>111</ele>
        <time>2016-12-11T09:37:54.410Z</time>
      </trkpt>
      <trkpt lat="48.04517" lon="2.79915">
        <ele>112</ele>
        <time>2016-12-11T09:37:55.414Z</time>
      </trkpt>
      <trkpt lat="48.04517" lon="2.79915">
        <ele>112</ele>
        <time>2016-12-11T09:37:56.406Z</time>
      </trkpt>
      <trkpt lat="48.04513" lon="2.79919">
        <ele>112</ele>
        <time>2016-12-11T09:37:57.411Z</time>
      </trkpt>
      <trkpt lat="48.04513" lon="2.79919">
        <ele>112</ele>
        <time>2016-12-11T09:37:58.406Z</time>
      </trkpt>
      <trkpt lat="48.04509" lon="2.79923">
        <ele>112</ele>
        <time>2016-12-11T09:37:59.410Z</time>
      </trkpt>
      <trkpt lat="48.04506" lon="2.79924">
        <ele>113</ele>
        <time>2016-12-11T09:38:00.412Z</time>
      </trkpt>
      <trkpt lat="48.04506" lon="2.79924">
        <ele>113</ele>
        <time>2016-12-11T09:38:01.408Z</time>
      </trkpt>
      <trkpt lat="48.04501" lon="2.79924">
        <ele>113</ele>
        <time>2016-12-11T09:38:02.410Z</time>
      </trkpt>
      <trkpt lat="48.04499" lon="2.79922">
        <ele>113</ele>
        <time>2016-12-11T09:38:03.415Z</time>
      </trkpt>
      <trkpt lat="48.04499" lon="2.79922">
        <ele>113</ele>
        <time>2016-12-11T09:38:04.406Z</time>
      </trkpt>
      <trkpt lat="48.04497" lon="2.79916">
        <ele>114</ele>
        <time>2016-12-11T09:38:05.418Z</time>
      </trkpt>
      <trkpt lat="48.04497" lon="2.79916">
        <ele>114</ele>
        <time>2016-12-11T09:38:06.407Z</time>
      </trkpt>
      <trkpt lat="48.04495" lon="2.79912">
        <ele>114</ele>
        <time>2016-12-11T09:38:07.410Z</time>
      </trkpt>
      <trkpt lat="48.04495" lon="2.79912">
        <ele>114</ele>
        <time>2016-12-11T09:38:08.407Z</time>
      </trkpt>
      <trkpt lat="48.04493" lon="2.79906">
        <ele>113</ele>
        <time>2016-12-11T09:38:09.412Z</time>
      </trkpt>
      <trkpt lat="48.04493" lon="2.79906">
        <ele>113</ele>
        <time>2016-12-11T09:38:10.407Z</time>
      </trkpt>
      <trkpt lat="48.04491" lon="2.79901">
        <ele>113</ele>
        <time>2016-12-11T09:38:11.410Z</time>
      </trkpt>
      <trkpt lat="48.04491" lon="2.79901">
        <ele>113</ele>
        <time>2016-12-11T09:38:12.405Z</time>
      </trkpt>
      <trkpt lat="48.04488" lon="2.79893">
        <ele>114</ele>
        <time>2016-12-11T09:38:13.411Z</time>
      </trkpt>
      <trkpt lat="48.04488" lon="2.79893">
        <ele>114</ele>
        <time>2016-12-11T09:38:14.425Z</time>
      </trkpt>
      <trkpt lat="48.04484" lon="2.79885">
        <ele>114</ele>
        <time>2016-12-11T09:38:15.417Z</time>
      </trkpt>
      <trkpt lat="48.04484" lon="2.79885">
        <ele>114</ele>
        <time>2016-12-11T09:38:16.408Z</time>
      </trkpt>
      <trkpt lat="48.04481" lon="2.79876">
        <ele>114</ele>
        <time>2016-12-11T09:38:17.427Z</time>
      </trkpt>
      <trkpt lat="48.04479" lon="2.79871">
        <ele>114</ele>
        <time>2016-12-11T09:38:18.427Z</time>
      </trkpt>
      <trkpt lat="48.04479" lon="2.79871">
        <ele>114</ele>
        <time>2016-12-11T09:38:19.398Z</time>
      </trkpt>
      <trkpt lat="48.04476" lon="2.79862">
        <ele>113</ele>
        <time>2016-12-11T09:38:20.405Z</time>
      </trkpt>
      <trkpt lat="48.04474" lon="2.79856">
        <ele>113</ele>
        <time>2016-12-11T09:38:21.415Z</time>
      </trkpt>
      <trkpt lat="48.04472" lon="2.79851">
        <ele>113</ele>
        <time>2016-12-11T09:38:22.425Z</time>
      </trkpt>
      <trkpt lat="48.04472" lon="2.79851">
        <ele>113</ele>
        <time>2016-12-11T09:38:23.414Z</time>
      </trkpt>
      <trkpt lat="48.04469" lon="2.79841">
        <ele>113</ele>
        <time>2016-12-11T09:38:24.410Z</time>
      </trkpt>
      <trkpt lat="48.04469" lon="2.79841">
        <ele>113</ele>
        <time>2016-12-11T09:38:25.411Z</time>
      </trkpt>
      <trkpt lat="48.04465" lon="2.79831">
        <ele>113</ele>
        <time>2016-12-11T09:38:26.412Z</time>
      </trkpt>
      <trkpt lat="48.04463" lon="2.79826">
        <ele>112</ele>
        <time>2016-12-11T09:38:27.413Z</time>
      </trkpt>
      <trkpt lat="48.04463" lon="2.79826">
        <ele>112</ele>
        <time>2016-12-11T09:38:28.406Z</time>
      </trkpt>
      <trkpt lat="48.0446" lon="2.79814">
        <ele>111</ele>
        <time>2016-12-11T09:38:29.411Z</time>
      </trkpt>
      <trkpt lat="48.04457" lon="2.79808">
        <ele>112</ele>
        <time>2016-12-11T09:38:30.412Z</time>
      </trkpt>
      <trkpt lat="48.04457" lon="2.79808">
        <ele>112</ele>
        <time>2016-12-11T09:38:31.407Z</time>
      </trkpt>
      <trkpt lat="48.04453" lon="2.79799">
        <ele>111</ele>
        <time>2016-12-11T09:38:32.410Z</time>
      </trkpt>
      <trkpt lat="48.0445" lon="2.79794">
        <ele>111</ele>
        <time>2016-12-11T09:38:33.413Z</time>
      </trkpt>
      <trkpt lat="48.0445" lon="2.79794">
        <ele>111</ele>
        <time>2016-12-11T09:38:34.406Z</time>
      </trkpt>
      <trkpt lat="48.04446" lon="2.79785">
        <ele>110</ele>
        <time>2016-12-11T09:38:35.413Z</time>
      </trkpt>
      <trkpt lat="48.04446" lon="2.79785">
        <ele>110</ele>
        <time>2016-12-11T09:38:36.405Z</time>
      </trkpt>
      <trkpt lat="48.04441" lon="2.79775">
        <ele>109</ele>
        <time>2016-12-11T09:38:37.409Z</time>
      </trkpt>
      <trkpt lat="48.04439" lon="2.7977">
        <ele>109</ele>
        <time>2016-12-11T09:38:38.410Z</time>
      </trkpt>
      <trkpt lat="48.04436" lon="2.79765">
        <ele>109</ele>
        <time>2016-12-11T09:38:39.413Z</time>
      </trkpt>
      <trkpt lat="48.04436" lon="2.79765">
        <ele>109</ele>
        <time>2016-12-11T09:38:40.405Z</time>
      </trkpt>
      <trkpt lat="48.0443" lon="2.79754">
        <ele>109</ele>
        <time>2016-12-11T09:38:41.410Z</time>
      </trkpt>
      <trkpt lat="48.0443" lon="2.79754">
        <ele>109</ele>
        <time>2016-12-11T09:38:42.405Z</time>
      </trkpt>
      <trkpt lat="48.04424" lon="2.79744">
        <ele>109</ele>
        <time>2016-12-11T09:38:43.410Z</time>
      </trkpt>
      <trkpt lat="48.04424" lon="2.79744">
        <ele>109</ele>
        <time>2016-12-11T09:38:44.406Z</time>
      </trkpt>
      <trkpt lat="48.04419" lon="2.79734">
        <ele>109</ele>
        <time>2016-12-11T09:38:45.414Z</time>
      </trkpt>
      <trkpt lat="48.04419" lon="2.79734">
        <ele>109</ele>
        <time>2016-12-11T09:38:46.414Z</time>
      </trkpt>
      <trkpt lat="48.04412" lon="2.79722">
        <ele>108</ele>
        <time>2016-12-11T09:38:47.410Z</time>
      </trkpt>
      <trkpt lat="48.04412" lon="2.79722">
        <ele>108</ele>
        <time>2016-12-11T09:38:48.406Z</time>
      </trkpt>
      <trkpt lat="48.04406" lon="2.79706">
        <ele>107</ele>
        <time>2016-12-11T09:38:49.410Z</time>
      </trkpt>
      <trkpt lat="48.04406" lon="2.79706">
        <ele>107</ele>
        <time>2016-12-11T09:38:50.409Z</time>
      </trkpt>
      <trkpt lat="48.04398" lon="2.7969">
        <ele>106</ele>
        <time>2016-12-11T09:38:51.414Z</time>
      </trkpt>
      <trkpt lat="48.04398" lon="2.7969">
        <ele>106</ele>
        <time>2016-12-11T09:38:52.406Z</time>
      </trkpt>
      <trkpt lat="48.0439" lon="2.79673">
        <ele>106</ele>
        <time>2016-12-11T09:38:53.411Z</time>
      </trkpt>
      <trkpt lat="48.0439" lon="2.79673">
        <ele>106</ele>
        <time>2016-12-11T09:38:54.407Z</time>
      </trkpt>
      <trkpt lat="48.04383" lon="2.79655">
        <ele>106</ele>
        <time>2016-12-11T09:38:55.419Z</time>
      </trkpt>
      <trkpt lat="48.04383" lon="2.79655">
        <ele>106</ele>
        <time>2016-12-11T09:38:56.408Z</time>
      </trkpt>
      <trkpt lat="48.04379" lon="2.79642">
        <ele>105</ele>
        <time>2016-12-11T09:38:57.413Z</time>
      </trkpt>
      <trkpt lat="48.04379" lon="2.79642">
        <ele>105</ele>
        <time>2016-12-11T09:38:58.407Z</time>
      </trkpt>
      <trkpt lat="48.04375" lon="2.7963">
        <ele>105</ele>
        <time>2016-12-11T09:38:59.411Z</time>
      </trkpt>
      <trkpt lat="48.04375" lon="2.7963">
        <ele>105</ele>
        <time>2016-12-11T09:39:00.409Z</time>
      </trkpt>
      <trkpt lat="48.04376" lon="2.79618">
        <ele>104</ele>
        <time>2016-12-11T09:39:01.410Z</time>
      </trkpt>
      <trkpt lat="48.04376" lon="2.79618">
        <ele>104</ele>
        <time>2016-12-11T09:39:02.405Z</time>
      </trkpt>
      <trkpt lat="48.04379" lon="2.79608">
        <ele>104</ele>
        <time>2016-12-11T09:39:03.412Z</time>
      </trkpt>
      <trkpt lat="48.04379" lon="2.79608">
        <ele>104</ele>
        <time>2016-12-11T09:39:04.406Z</time>
      </trkpt>
      <trkpt lat="48.04382" lon="2.79595">
        <ele>104</ele>
        <time>2016-12-11T09:39:05.410Z</time>
      </trkpt>
      <trkpt lat="48.04382" lon="2.79595">
        <ele>104</ele>
        <time>2016-12-11T09:39:06.410Z</time>
      </trkpt>
      <trkpt lat="48.04384" lon="2.79582">
        <ele>105</ele>
        <time>2016-12-11T09:39:07.410Z</time>
      </trkpt>
      <trkpt lat="48.04384" lon="2.79576">
        <ele>105</ele>
        <time>2016-12-11T09:39:08.408Z</time>
      </trkpt>
      <trkpt lat="48.04385" lon="2.79571">
        <ele>105</ele>
        <time>2016-12-11T09:39:09.414Z</time>
      </trkpt>
      <trkpt lat="48.04385" lon="2.79571">
        <ele>105</ele>
        <time>2016-12-11T09:39:10.409Z</time>
      </trkpt>
      <trkpt lat="48.04387" lon="2.79559">
        <ele>105</ele>
        <time>2016-12-11T09:39:11.409Z</time>
      </trkpt>
      <trkpt lat="48.04389" lon="2.79553">
        <ele>105</ele>
        <time>2016-12-11T09:39:12.408Z</time>
      </trkpt>
      <trkpt lat="48.04389" lon="2.79553">
        <ele>105</ele>
        <time>2016-12-11T09:39:13.406Z</time>
      </trkpt>
      <trkpt lat="48.04391" lon="2.7954">
        <ele>105</ele>
        <time>2016-12-11T09:39:14.408Z</time>
      </trkpt>
      <trkpt lat="48.04393" lon="2.79534">
        <ele>105</ele>
        <time>2016-12-11T09:39:15.412Z</time>
      </trkpt>
      <trkpt lat="48.04393" lon="2.79534">
        <ele>105</ele>
        <time>2016-12-11T09:39:16.408Z</time>
      </trkpt>
      <trkpt lat="48.04394" lon="2.79521">
        <ele>106</ele>
        <time>2016-12-11T09:39:17.413Z</time>
      </trkpt>
      <trkpt lat="48.04394" lon="2.79521">
        <ele>106</ele>
        <time>2016-12-11T09:39:18.415Z</time>
      </trkpt>
      <trkpt lat="48.04396" lon="2.79509">
        <ele>107</ele>
        <time>2016-12-11T09:39:19.420Z</time>
      </trkpt>
      <trkpt lat="48.04397" lon="2.79503">
        <ele>107</ele>
        <time>2016-12-11T09:39:20.427Z</time>
      </trkpt>
      <trkpt lat="48.04399" lon="2.79497">
        <ele>107</ele>
        <time>2016-12-11T09:39:21.416Z</time>
      </trkpt>
      <trkpt lat="48.04399" lon="2.79497">
        <ele>107</ele>
        <time>2016-12-11T09:39:22.407Z</time>
      </trkpt>
      <trkpt lat="48.04403" lon="2.79485">
        <ele>107</ele>
        <time>2016-12-11T09:39:23.411Z</time>
      </trkpt>
      <trkpt lat="48.04405" lon="2.79479">
        <ele>107</ele>
        <time>2016-12-11T09:39:24.412Z</time>
      </trkpt>
      <trkpt lat="48.04405" lon="2.79479">
        <ele>107</ele>
        <time>2016-12-11T09:39:25.406Z</time>
      </trkpt>
      <trkpt lat="48.04407" lon="2.79466">
        <ele>107</ele>
        <time>2016-12-11T09:39:26.411Z</time>
      </trkpt>
      <trkpt lat="48.04408" lon="2.7946">
        <ele>107</ele>
        <time>2016-12-11T09:39:27.414Z</time>
      </trkpt>
      <trkpt lat="48.04408" lon="2.7946">
        <ele>107</ele>
        <time>2016-12-11T09:39:28.408Z</time>
      </trkpt>
      <trkpt lat="48.0441" lon="2.79449">
        <ele>108</ele>
        <time>2016-12-11T09:39:29.410Z</time>
      </trkpt>
      <trkpt lat="48.0441" lon="2.79444">
        <ele>108</ele>
        <time>2016-12-11T09:39:30.413Z</time>
      </trkpt>
      <trkpt lat="48.0441" lon="2.79444">
        <ele>108</ele>
        <time>2016-12-11T09:39:31.407Z</time>
      </trkpt>
      <trkpt lat="48.04411" lon="2.79432">
        <ele>108</ele>
        <time>2016-12-11T09:39:32.411Z</time>
      </trkpt>
      <trkpt lat="48.04411" lon="2.79426">
        <ele>108</ele>
        <time>2016-12-11T09:39:33.414Z</time>
      </trkpt>
      <trkpt lat="48.04411" lon="2.79426">
        <ele>108</ele>
        <time>2016-12-11T09:39:34.406Z</time>
      </trkpt>
      <trkpt lat="48.0441" lon="2.79412">
        <ele>108</ele>
        <time>2016-12-11T09:39:35.411Z</time>
      </trkpt>
      <trkpt lat="48.0441" lon="2.79412">
        <ele>108</ele>
        <time>2016-12-11T09:39:36.406Z</time>
      </trkpt>
      <trkpt lat="48.04406" lon="2.79403">
        <ele>108</ele>
        <time>2016-12-11T09:39:37.412Z</time>
      </trkpt>
      <trkpt lat="48.04406" lon="2.79403">
        <ele>108</ele>
        <time>2016-12-11T09:39:38.406Z</time>
      </trkpt>
      <trkpt lat="48.04399" lon="2.79399">
        <ele>109</ele>
        <time>2016-12-11T09:39:39.413Z</time>
      </trkpt>
      <trkpt lat="48.04399" lon="2.79399">
        <ele>109</ele>
        <time>2016-12-11T09:39:40.409Z</time>
      </trkpt>
      <trkpt lat="48.04392" lon="2.79401">
        <ele>109</ele>
        <time>2016-12-11T09:39:41.412Z</time>
      </trkpt>
      <trkpt lat="48.04392" lon="2.79401">
        <ele>109</ele>
        <time>2016-12-11T09:39:42.406Z</time>
      </trkpt>
      <trkpt lat="48.04385" lon="2.79402">
        <ele>109</ele>
        <time>2016-12-11T09:39:43.410Z</time>
      </trkpt>
      <trkpt lat="48.04385" lon="2.79402">
        <ele>109</ele>
        <time>2016-12-11T09:39:44.406Z</time>
      </trkpt>
      <trkpt lat="48.04378" lon="2.79405">
        <ele>109</ele>
        <time>2016-12-11T09:39:45.413Z</time>
      </trkpt>
      <trkpt lat="48.04378" lon="2.79405">
        <ele>109</ele>
        <time>2016-12-11T09:39:46.435Z</time>
      </trkpt>
      <trkpt lat="48.04371" lon="2.79408">
        <ele>109</ele>
        <time>2016-12-11T09:39:47.425Z</time>
      </trkpt>
      <trkpt lat="48.04371" lon="2.79408">
        <ele>109</ele>
        <time>2016-12-11T09:39:48.414Z</time>
      </trkpt>
      <trkpt lat="48.04363" lon="2.7941">
        <ele>109</ele>
        <time>2016-12-11T09:39:49.412Z</time>
      </trkpt>
      <trkpt lat="48.04363" lon="2.7941">
        <ele>109</ele>
        <time>2016-12-11T09:39:50.409Z</time>
      </trkpt>
      <trkpt lat="48.04356" lon="2.79413">
        <ele>109</ele>
        <time>2016-12-11T09:39:51.414Z</time>
      </trkpt>
      <trkpt lat="48.04356" lon="2.79413">
        <ele>109</ele>
        <time>2016-12-11T09:39:52.406Z</time>
      </trkpt>
      <trkpt lat="48.04349" lon="2.79415">
        <ele>110</ele>
        <time>2016-12-11T09:39:53.411Z</time>
      </trkpt>
      <trkpt lat="48.04349" lon="2.79415">
        <ele>110</ele>
        <time>2016-12-11T09:39:54.407Z</time>
      </trkpt>
      <trkpt lat="48.04341" lon="2.79417">
        <ele>110</ele>
        <time>2016-12-11T09:39:55.413Z</time>
      </trkpt>
      <trkpt lat="48.04341" lon="2.79417">
        <ele>110</ele>
        <time>2016-12-11T09:39:56.413Z</time>
      </trkpt>
      <trkpt lat="48.04334" lon="2.7942">
        <ele>110</ele>
        <time>2016-12-11T09:39:57.413Z</time>
      </trkpt>
      <trkpt lat="48.04334" lon="2.7942">
        <ele>110</ele>
        <time>2016-12-11T09:39:58.406Z</time>
      </trkpt>
      <trkpt lat="48.04326" lon="2.79424">
        <ele>110</ele>
        <time>2016-12-11T09:39:59.411Z</time>
      </trkpt>
      <trkpt lat="48.04323" lon="2.79425">
        <ele>110</ele>
        <time>2016-12-11T09:40:00.415Z</time>
      </trkpt>
      <trkpt lat="48.04323" lon="2.79425">
        <ele>110</ele>
        <time>2016-12-11T09:40:01.405Z</time>
      </trkpt>
      <trkpt lat="48.04317" lon="2.79428">
        <ele>110</ele>
        <time>2016-12-11T09:40:02.410Z</time>
      </trkpt>
      <trkpt lat="48.04314" lon="2.79431">
        <ele>110</ele>
        <time>2016-12-11T09:40:03.413Z</time>
      </trkpt>
      <trkpt lat="48.04314" lon="2.79431">
        <ele>110</ele>
        <time>2016-12-11T09:40:04.406Z</time>
      </trkpt>
      <trkpt lat="48.04308" lon="2.79435">
        <ele>111</ele>
        <time>2016-12-11T09:40:05.411Z</time>
      </trkpt>
      <trkpt lat="48.04308" lon="2.79435">
        <ele>111</ele>
        <time>2016-12-11T09:40:06.409Z</time>
      </trkpt>
      <trkpt lat="48.04302" lon="2.79438">
        <ele>111</ele>
        <time>2016-12-11T09:40:07.411Z</time>
      </trkpt>
      <trkpt lat="48.04302" lon="2.79438">
        <ele>111</ele>
        <time>2016-12-11T09:40:08.406Z</time>
      </trkpt>
      <trkpt lat="48.04296" lon="2.79442">
        <ele>111</ele>
        <time>2016-12-11T09:40:09.413Z</time>
      </trkpt>
      <trkpt lat="48.04296" lon="2.79442">
        <ele>111</ele>
        <time>2016-12-11T09:40:10.412Z</time>
      </trkpt>
      <trkpt lat="48.0429" lon="2.79447">
        <ele>111</ele>
        <time>2016-12-11T09:40:11.411Z</time>
      </trkpt>
      <trkpt lat="48.0429" lon="2.79447">
        <ele>111</ele>
        <time>2016-12-11T09:40:12.406Z</time>
      </trkpt>
      <trkpt lat="48.04284" lon="2.79452">
        <ele>111</ele>
        <time>2016-12-11T09:40:13.408Z</time>
      </trkpt>
      <trkpt lat="48.04284" lon="2.79452">
        <ele>111</ele>
        <time>2016-12-11T09:40:14.406Z</time>
      </trkpt>
      <trkpt lat="48.04277" lon="2.79458">
        <ele>111</ele>
        <time>2016-12-11T09:40:15.412Z</time>
      </trkpt>
      <trkpt lat="48.04274" lon="2.79462">
        <ele>112</ele>
        <time>2016-12-11T09:40:16.409Z</time>
      </trkpt>
      <trkpt lat="48.04274" lon="2.79462">
        <ele>112</ele>
        <time>2016-12-11T09:40:17.434Z</time>
      </trkpt>
      <trkpt lat="48.04268" lon="2.79467">
        <ele>112</ele>
        <time>2016-12-11T09:40:18.402Z</time>
      </trkpt>
      <trkpt lat="48.04265" lon="2.7947">
        <ele>112</ele>
        <time>2016-12-11T09:40:19.408Z</time>
      </trkpt>
      <trkpt lat="48.04265" lon="2.7947">
        <ele>112</ele>
        <time>2016-12-11T09:40:20.414Z</time>
      </trkpt>
      <trkpt lat="48.04258" lon="2.79475">
        <ele>112</ele>
        <time>2016-12-11T09:40:21.420Z</time>
      </trkpt>
      <trkpt lat="48.04258" lon="2.79475">
        <ele>112</ele>
        <time>2016-12-11T09:40:22.411Z</time>
      </trkpt>
      <trkpt lat="48.04252" lon="2.79479">
        <ele>112</ele>
        <time>2016-12-11T09:40:23.411Z</time>
      </trkpt>
      <trkpt lat="48.04252" lon="2.79479">
        <ele>112</ele>
        <time>2016-12-11T09:40:24.406Z</time>
      </trkpt>
      <trkpt lat="48.04245" lon="2.79483">
        <ele>112</ele>
        <time>2016-12-11T09:40:25.412Z</time>
      </trkpt>
      <trkpt lat="48.04245" lon="2.79483">
        <ele>112</ele>
        <time>2016-12-11T09:40:26.414Z</time>
      </trkpt>
      <trkpt lat="48.04238" lon="2.79486">
        <ele>112</ele>
        <time>2016-12-11T09:40:27.411Z</time>
      </trkpt>
      <trkpt lat="48.04238" lon="2.79486">
        <ele>112</ele>
        <time>2016-12-11T09:40:28.406Z</time>
      </trkpt>
      <trkpt lat="48.0423" lon="2.79489">
        <ele>112</ele>
        <time>2016-12-11T09:40:29.411Z</time>
      </trkpt>
      <trkpt lat="48.04227" lon="2.7949">
        <ele>112</ele>
        <time>2016-12-11T09:40:30.413Z</time>
      </trkpt>
      <trkpt lat="48.04227" lon="2.7949">
        <ele>112</ele>
        <time>2016-12-11T09:40:31.405Z</time>
      </trkpt>
      <trkpt lat="48.04219" lon="2.79491">
        <ele>112</ele>
        <time>2016-12-11T09:40:32.411Z</time>
      </trkpt>
      <trkpt lat="48.04215" lon="2.79492">
        <ele>112</ele>
        <time>2016-12-11T09:40:33.414Z</time>
      </trkpt>
      <trkpt lat="48.04215" lon="2.79492">
        <ele>112</ele>
        <time>2016-12-11T09:40:34.408Z</time>
      </trkpt>
      <trkpt lat="48.04208" lon="2.79493">
        <ele>112</ele>
        <time>2016-12-11T09:40:35.411Z</time>
      </trkpt>
      <trkpt lat="48.04208" lon="2.79493">
        <ele>112</ele>
        <time>2016-12-11T09:40:36.410Z</time>
      </trkpt>
      <trkpt lat="48.04201" lon="2.79492">
        <ele>112</ele>
        <time>2016-12-11T09:40:37.416Z</time>
      </trkpt>
      <trkpt lat="48.04197" lon="2.79492">
        <ele>112</ele>
        <time>2016-12-11T09:40:38.413Z</time>
      </trkpt>
      <trkpt lat="48.04193" lon="2.79492">
        <ele>112</ele>
        <time>2016-12-11T09:40:39.413Z</time>
      </trkpt>
      <trkpt lat="48.04193" lon="2.79492">
        <ele>112</ele>
        <time>2016-12-11T09:40:40.409Z</time>
      </trkpt>
      <trkpt lat="48.04186" lon="2.79492">
        <ele>112</ele>
        <time>2016-12-11T09:40:41.411Z</time>
      </trkpt>
      <trkpt lat="48.04186" lon="2.79492">
        <ele>112</ele>
        <time>2016-12-11T09:40:42.406Z</time>
      </trkpt>
      <trkpt lat="48.04179" lon="2.79492">
        <ele>112</ele>
        <time>2016-12-11T09:40:43.411Z</time>
      </trkpt>
      <trkpt lat="48.04179" lon="2.79492">
        <ele>112</ele>
        <time>2016-12-11T09:40:44.406Z</time>
      </trkpt>
      <trkpt lat="48.04172" lon="2.79493">
        <ele>112</ele>
        <time>2016-12-11T09:40:45.434Z</time>
      </trkpt>
      <trkpt lat="48.04172" lon="2.79493">
        <ele>112</ele>
        <time>2016-12-11T09:40:46.426Z</time>
      </trkpt>
      <trkpt lat="48.04165" lon="2.79493">
        <ele>112</ele>
        <time>2016-12-11T09:40:47.427Z</time>
      </trkpt>
      <trkpt lat="48.04165" lon="2.79493">
        <ele>112</ele>
        <time>2016-12-11T09:40:48.416Z</time>
      </trkpt>
      <trkpt lat="48.04157" lon="2.79493">
        <ele>112</ele>
        <time>2016-12-11T09:40:49.412Z</time>
      </trkpt>
      <trkpt lat="48.04157" lon="2.79493">
        <ele>112</ele>
        <time>2016-12-11T09:40:50.409Z</time>
      </trkpt>
      <trkpt lat="48.0415" lon="2.79492">
        <ele>112</ele>
        <time>2016-12-11T09:40:51.414Z</time>
      </trkpt>
      <trkpt lat="48.0415" lon="2.79492">
        <ele>112</ele>
        <time>2016-12-11T09:40:52.407Z</time>
      </trkpt>
      <trkpt lat="48.04143" lon="2.79492">
        <ele>112</ele>
        <time>2016-12-11T09:40:53.411Z</time>
      </trkpt>
      <trkpt lat="48.04143" lon="2.79492">
        <ele>112</ele>
        <time>2016-12-11T09:40:54.406Z</time>
      </trkpt>
      <trkpt lat="48.04136" lon="2.79492">
        <ele>112</ele>
        <time>2016-12-11T09:40:55.412Z</time>
      </trkpt>
      <trkpt lat="48.04136" lon="2.79492">
        <ele>112</ele>
        <time>2016-12-11T09:40:56.407Z</time>
      </trkpt>
      <trkpt lat="48.04129" lon="2.79492">
        <ele>112</ele>
        <time>2016-12-11T09:40:57.415Z</time>
      </trkpt>
      <trkpt lat="48.04129" lon="2.79492">
        <ele>112</ele>
        <time>2016-12-11T09:40:58.406Z</time>
      </trkpt>
      <trkpt lat="48.04122" lon="2.79494">
        <ele>112</ele>
        <time>2016-12-11T09:40:59.412Z</time>
      </trkpt>
      <trkpt lat="48.04118" lon="2.79494">
        <ele>112</ele>
        <time>2016-12-11T09:41:00.413Z</time>
      </trkpt>
      <trkpt lat="48.04118" lon="2.79494">
        <ele>112</ele>
        <time>2016-12-11T09:41:01.406Z</time>
      </trkpt>
      <trkpt lat="48.04111" lon="2.79495">
        <ele>112</ele>
        <time>2016-12-11T09:41:02.411Z</time>
      </trkpt>
      <trkpt lat="48.04107" lon="2.79496">
        <ele>112</ele>
        <time>2016-12-11T09:41:03.413Z</time>
      </trkpt>
      <trkpt lat="48.04107" lon="2.79496">
        <ele>112</ele>
        <time>2016-12-11T09:41:04.406Z</time>
      </trkpt>
      <trkpt lat="48.041" lon="2.79495">
        <ele>112</ele>
        <time>2016-12-11T09:41:05.411Z</time>
      </trkpt>
      <trkpt lat="48.041" lon="2.79495">
        <ele>112</ele>
        <time>2016-12-11T09:41:06.407Z</time>
      </trkpt>
      <trkpt lat="48.04093" lon="2.79495">
        <ele>112</ele>
        <time>2016-12-11T09:41:07.408Z</time>
      </trkpt>
      <trkpt lat="48.04093" lon="2.79495">
        <ele>112</ele>
        <time>2016-12-11T09:41:08.406Z</time>
      </trkpt>
      <trkpt lat="48.04086" lon="2.79494">
        <ele>112</ele>
        <time>2016-12-11T09:41:09.413Z</time>
      </trkpt>
      <trkpt lat="48.04086" lon="2.79494">
        <ele>112</ele>
        <time>2016-12-11T09:41:10.409Z</time>
      </trkpt>
      <trkpt lat="48.04079" lon="2.79494">
        <ele>112</ele>
        <time>2016-12-11T09:41:11.412Z</time>
      </trkpt>
      <trkpt lat="48.04075" lon="2.79495">
        <ele>112</ele>
        <time>2016-12-11T09:41:12.411Z</time>
      </trkpt>
      <trkpt lat="48.04075" lon="2.79495">
        <ele>112</ele>
        <time>2016-12-11T09:41:13.406Z</time>
      </trkpt>
      <trkpt lat="48.04068" lon="2.79495">
        <ele>112</ele>
        <time>2016-12-11T09:41:14.412Z</time>
      </trkpt>
      <trkpt lat="48.04065" lon="2.79495">
        <ele>113</ele>
        <time>2016-12-11T09:41:15.432Z</time>
      </trkpt>
      <trkpt lat="48.04065" lon="2.79495">
        <ele>113</ele>
        <time>2016-12-11T09:41:16.427Z</time>
      </trkpt>
      <trkpt lat="48.04057" lon="2.79495">
        <ele>113</ele>
        <time>2016-12-11T09:41:17.427Z</time>
      </trkpt>
      <trkpt lat="48.04054" lon="2.79496">
        <ele>113</ele>
        <time>2016-12-11T09:41:18.429Z</time>
      </trkpt>
      <trkpt lat="48.0405" lon="2.79496">
        <ele>113</ele>
        <time>2016-12-11T09:41:19.398Z</time>
      </trkpt>
      <trkpt lat="48.0405" lon="2.79496">
        <ele>113</ele>
        <time>2016-12-11T09:41:20.405Z</time>
      </trkpt>
      <trkpt lat="48.04043" lon="2.79497">
        <ele>113</ele>
        <time>2016-12-11T09:41:21.415Z</time>
      </trkpt>
      <trkpt lat="48.04043" lon="2.79497">
        <ele>113</ele>
        <time>2016-12-11T09:41:22.405Z</time>
      </trkpt>
      <trkpt lat="48.04035" lon="2.79497">
        <ele>113</ele>
        <time>2016-12-11T09:41:23.412Z</time>
      </trkpt>
      <trkpt lat="48.04032" lon="2.79497">
        <ele>113</ele>
        <time>2016-12-11T09:41:24.411Z</time>
      </trkpt>
      <trkpt lat="48.04028" lon="2.79497">
        <ele>113</ele>
        <time>2016-12-11T09:41:25.411Z</time>
      </trkpt>
      <trkpt lat="48.04028" lon="2.79497">
        <ele>113</ele>
        <time>2016-12-11T09:41:26.406Z</time>
      </trkpt>
      <trkpt lat="48.04021" lon="2.79498">
        <ele>113</ele>
        <time>2016-12-11T09:41:27.406Z</time>
      </trkpt>
      <trkpt lat="48.04017" lon="2.79499">
        <ele>113</ele>
        <time>2016-12-11T09:41:28.413Z</time>
      </trkpt>
      <trkpt lat="48.04017" lon="2.79499">
        <ele>113</ele>
        <time>2016-12-11T09:41:29.407Z</time>
      </trkpt>
      <trkpt lat="48.0401" lon="2.79502">
        <ele>113</ele>
        <time>2016-12-11T09:41:30.410Z</time>
      </trkpt>
      <trkpt lat="48.0401" lon="2.79502">
        <ele>113</ele>
        <time>2016-12-11T09:41:31.408Z</time>
      </trkpt>
      <trkpt lat="48.04003" lon="2.79507">
        <ele>113</ele>
        <time>2016-12-11T09:41:32.418Z</time>
      </trkpt>
      <trkpt lat="48.03999" lon="2.79509">
        <ele>113</ele>
        <time>2016-12-11T09:41:33.413Z</time>
      </trkpt>
      <trkpt lat="48.03999" lon="2.79509">
        <ele>113</ele>
        <time>2016-12-11T09:41:34.410Z</time>
      </trkpt>
      <trkpt lat="48.03992" lon="2.79514">
        <ele>113</ele>
        <time>2016-12-11T09:41:35.411Z</time>
      </trkpt>
      <trkpt lat="48.03992" lon="2.79514">
        <ele>113</ele>
        <time>2016-12-11T09:41:36.406Z</time>
      </trkpt>
      <trkpt lat="48.03984" lon="2.7952">
        <ele>113</ele>
        <time>2016-12-11T09:41:37.416Z</time>
      </trkpt>
      <trkpt lat="48.0398" lon="2.79524">
        <ele>113</ele>
        <time>2016-12-11T09:41:38.412Z</time>
      </trkpt>
      <trkpt lat="48.0398" lon="2.79524">
        <ele>113</ele>
        <time>2016-12-11T09:41:39.412Z</time>
      </trkpt>
      <trkpt lat="48.03974" lon="2.79531">
        <ele>114</ele>
        <time>2016-12-11T09:41:40.411Z</time>
      </trkpt>
      <trkpt lat="48.03974" lon="2.79531">
        <ele>114</ele>
        <time>2016-12-11T09:41:41.410Z</time>
      </trkpt>
      <trkpt lat="48.03968" lon="2.79536">
        <ele>114</ele>
        <time>2016-12-11T09:41:42.421Z</time>
      </trkpt>
      <trkpt lat="48.03968" lon="2.79536">
        <ele>114</ele>
        <time>2016-12-11T09:41:43.409Z</time>
      </trkpt>
      <trkpt lat="48.03961" lon="2.79541">
        <ele>114</ele>
        <time>2016-12-11T09:41:44.412Z</time>
      </trkpt>
      <trkpt lat="48.03958" lon="2.79543">
        <ele>114</ele>
        <time>2016-12-11T09:41:45.415Z</time>
      </trkpt>
      <trkpt lat="48.03958" lon="2.79543">
        <ele>114</ele>
        <time>2016-12-11T09:41:46.408Z</time>
      </trkpt>
      <trkpt lat="48.03951" lon="2.79551">
        <ele>114</ele>
        <time>2016-12-11T09:41:47.415Z</time>
      </trkpt>
      <trkpt lat="48.03948" lon="2.79555">
        <ele>114</ele>
        <time>2016-12-11T09:41:48.421Z</time>
      </trkpt>
      <trkpt lat="48.03945" lon="2.79558">
        <ele>114</ele>
        <time>2016-12-11T09:41:49.412Z</time>
      </trkpt>
      <trkpt lat="48.03941" lon="2.79562">
        <ele>114</ele>
        <time>2016-12-11T09:41:50.413Z</time>
      </trkpt>
      <trkpt lat="48.03941" lon="2.79562">
        <ele>114</ele>
        <time>2016-12-11T09:41:51.411Z</time>
      </trkpt>
      <trkpt lat="48.03934" lon="2.79569">
        <ele>114</ele>
        <time>2016-12-11T09:41:52.411Z</time>
      </trkpt>
      <trkpt lat="48.03934" lon="2.79569">
        <ele>114</ele>
        <time>2016-12-11T09:41:53.410Z</time>
      </trkpt>
      <trkpt lat="48.03926" lon="2.79575">
        <ele>115</ele>
        <time>2016-12-11T09:41:54.412Z</time>
      </trkpt>
      <trkpt lat="48.03926" lon="2.79575">
        <ele>115</ele>
        <time>2016-12-11T09:41:55.417Z</time>
      </trkpt>
      <trkpt lat="48.03918" lon="2.79582">
        <ele>115</ele>
        <time>2016-12-11T09:41:56.412Z</time>
      </trkpt>
      <trkpt lat="48.03915" lon="2.79585">
        <ele>115</ele>
        <time>2016-12-11T09:41:57.414Z</time>
      </trkpt>
      <trkpt lat="48.03915" lon="2.79585">
        <ele>115</ele>
        <time>2016-12-11T09:41:58.407Z</time>
      </trkpt>
      <trkpt lat="48.03907" lon="2.79592">
        <ele>115</ele>
        <time>2016-12-11T09:41:59.412Z</time>
      </trkpt>
      <trkpt lat="48.03907" lon="2.79592">
        <ele>115</ele>
        <time>2016-12-11T09:42:00.410Z</time>
      </trkpt>
      <trkpt lat="48.039" lon="2.79598">
        <ele>115</ele>
        <time>2016-12-11T09:42:01.411Z</time>
      </trkpt>
      <trkpt lat="48.039" lon="2.79598">
        <ele>115</ele>
        <time>2016-12-11T09:42:02.407Z</time>
      </trkpt>
      <trkpt lat="48.03892" lon="2.79603">
        <ele>115</ele>
        <time>2016-12-11T09:42:03.414Z</time>
      </trkpt>
      <trkpt lat="48.03892" lon="2.79603">
        <ele>115</ele>
        <time>2016-12-11T09:42:04.407Z</time>
      </trkpt>
      <trkpt lat="48.03883" lon="2.79607">
        <ele>115</ele>
        <time>2016-12-11T09:42:05.411Z</time>
      </trkpt>
      <trkpt lat="48.03883" lon="2.79607">
        <ele>115</ele>
        <time>2016-12-11T09:42:06.408Z</time>
      </trkpt>
      <trkpt lat="48.03875" lon="2.79609">
        <ele>115</ele>
        <time>2016-12-11T09:42:07.412Z</time>
      </trkpt>
      <trkpt lat="48.03875" lon="2.79609">
        <ele>115</ele>
        <time>2016-12-11T09:42:08.409Z</time>
      </trkpt>
      <trkpt lat="48.03866" lon="2.79608">
        <ele>115</ele>
        <time>2016-12-11T09:42:09.414Z</time>
      </trkpt>
      <trkpt lat="48.03866" lon="2.79608">
        <ele>115</ele>
        <time>2016-12-11T09:42:10.409Z</time>
      </trkpt>
      <trkpt lat="48.03857" lon="2.79607">
        <ele>115</ele>
        <time>2016-12-11T09:42:11.413Z</time>
      </trkpt>
      <trkpt lat="48.03857" lon="2.79607">
        <ele>115</ele>
        <time>2016-12-11T09:42:12.407Z</time>
      </trkpt>
      <trkpt lat="48.03848" lon="2.79602">
        <ele>114</ele>
        <time>2016-12-11T09:42:13.413Z</time>
      </trkpt>
      <trkpt lat="48.03844" lon="2.79599">
        <ele>114</ele>
        <time>2016-12-11T09:42:14.412Z</time>
      </trkpt>
      <trkpt lat="48.0384" lon="2.79596">
        <ele>114</ele>
        <time>2016-12-11T09:42:15.413Z</time>
      </trkpt>
      <trkpt lat="48.0384" lon="2.79596">
        <ele>114</ele>
        <time>2016-12-11T09:42:16.407Z</time>
      </trkpt>
      <trkpt lat="48.03832" lon="2.79591">
        <ele>114</ele>
        <time>2016-12-11T09:42:17.419Z</time>
      </trkpt>
      <trkpt lat="48.03832" lon="2.79591">
        <ele>114</ele>
        <time>2016-12-11T09:42:18.407Z</time>
      </trkpt>
      <trkpt lat="48.03825" lon="2.79587">
        <ele>114</ele>
        <time>2016-12-11T09:42:19.412Z</time>
      </trkpt>
      <trkpt lat="48.03821" lon="2.79585">
        <ele>114</ele>
        <time>2016-12-11T09:42:20.418Z</time>
      </trkpt>
      <trkpt lat="48.03818" lon="2.79583">
        <ele>114</ele>
        <time>2016-12-11T09:42:21.413Z</time>
      </trkpt>
      <trkpt lat="48.03818" lon="2.79583">
        <ele>114</ele>
        <time>2016-12-11T09:42:22.407Z</time>
      </trkpt>
      <trkpt lat="48.03811" lon="2.79577">
        <ele>114</ele>
        <time>2016-12-11T09:42:23.412Z</time>
      </trkpt>
      <trkpt lat="48.03808" lon="2.79574">
        <ele>114</ele>
        <time>2016-12-11T09:42:24.412Z</time>
      </trkpt>
      <trkpt lat="48.03808" lon="2.79574">
        <ele>114</ele>
        <time>2016-12-11T09:42:25.409Z</time>
      </trkpt>
      <trkpt lat="48.03801" lon="2.79568">
        <ele>114</ele>
        <time>2016-12-11T09:42:26.412Z</time>
      </trkpt>
      <trkpt lat="48.03801" lon="2.79568">
        <ele>114</ele>
        <time>2016-12-11T09:42:27.410Z</time>
      </trkpt>
      <trkpt lat="48.03795" lon="2.79562">
        <ele>114</ele>
        <time>2016-12-11T09:42:28.412Z</time>
      </trkpt>
      <trkpt lat="48.03795" lon="2.79562">
        <ele>114</ele>
        <time>2016-12-11T09:42:29.407Z</time>
      </trkpt>
      <trkpt lat="48.03789" lon="2.79554">
        <ele>114</ele>
        <time>2016-12-11T09:42:30.413Z</time>
      </trkpt>
      <trkpt lat="48.03789" lon="2.79554">
        <ele>114</ele>
        <time>2016-12-11T09:42:31.410Z</time>
      </trkpt>
      <trkpt lat="48.03783" lon="2.79546">
        <ele>114</ele>
        <time>2016-12-11T09:42:32.412Z</time>
      </trkpt>
      <trkpt lat="48.03781" lon="2.79541">
        <ele>114</ele>
        <time>2016-12-11T09:42:33.414Z</time>
      </trkpt>
      <trkpt lat="48.03781" lon="2.79541">
        <ele>114</ele>
        <time>2016-12-11T09:42:34.410Z</time>
      </trkpt>
      <trkpt lat="48.03776" lon="2.79532">
        <ele>114</ele>
        <time>2016-12-11T09:42:35.412Z</time>
      </trkpt>
      <trkpt lat="48.03776" lon="2.79532">
        <ele>114</ele>
        <time>2016-12-11T09:42:36.406Z</time>
      </trkpt>
      <trkpt lat="48.03771" lon="2.79522">
        <ele>114</ele>
        <time>2016-12-11T09:42:37.411Z</time>
      </trkpt>
      <trkpt lat="48.03771" lon="2.79522">
        <ele>114</ele>
        <time>2016-12-11T09:42:38.431Z</time>
      </trkpt>
      <trkpt lat="48.03767" lon="2.79513">
        <ele>113</ele>
        <time>2016-12-11T09:42:39.427Z</time>
      </trkpt>
      <trkpt lat="48.03767" lon="2.79513">
        <ele>113</ele>
        <time>2016-12-11T09:42:40.431Z</time>
      </trkpt>
      <trkpt lat="48.03762" lon="2.79504">
        <ele>114</ele>
        <time>2016-12-11T09:42:41.421Z</time>
      </trkpt>
      <trkpt lat="48.03762" lon="2.79504">
        <ele>114</ele>
        <time>2016-12-11T09:42:42.412Z</time>
      </trkpt>
      <trkpt lat="48.03756" lon="2.79496">
        <ele>114</ele>
        <time>2016-12-11T09:42:43.410Z</time>
      </trkpt>
      <trkpt lat="48.03753" lon="2.79492">
        <ele>114</ele>
        <time>2016-12-11T09:42:44.412Z</time>
      </trkpt>
      <trkpt lat="48.03751" lon="2.79487">
        <ele>114</ele>
        <time>2016-12-11T09:42:45.412Z</time>
      </trkpt>
      <trkpt lat="48.03751" lon="2.79487">
        <ele>114</ele>
        <time>2016-12-11T09:42:46.406Z</time>
      </trkpt>
      <trkpt lat="48.03745" lon="2.7948">
        <ele>114</ele>
        <time>2016-12-11T09:42:47.412Z</time>
      </trkpt>
      <trkpt lat="48.03745" lon="2.7948">
        <ele>114</ele>
        <time>2016-12-11T09:42:48.407Z</time>
      </trkpt>
      <trkpt lat="48.03738" lon="2.79474">
        <ele>113</ele>
        <time>2016-12-11T09:42:49.410Z</time>
      </trkpt>
      <trkpt lat="48.03734" lon="2.79471">
        <ele>113</ele>
        <time>2016-12-11T09:42:50.413Z</time>
      </trkpt>
      <trkpt lat="48.03734" lon="2.79471">
        <ele>113</ele>
        <time>2016-12-11T09:42:51.412Z</time>
      </trkpt>
      <trkpt lat="48.03726" lon="2.79467">
        <ele>114</ele>
        <time>2016-12-11T09:42:52.412Z</time>
      </trkpt>
      <trkpt lat="48.03722" lon="2.79464">
        <ele>114</ele>
        <time>2016-12-11T09:42:53.412Z</time>
      </trkpt>
      <trkpt lat="48.03722" lon="2.79464">
        <ele>114</ele>
        <time>2016-12-11T09:42:54.408Z</time>
      </trkpt>
      <trkpt lat="48.03714" lon="2.79461">
        <ele>114</ele>
        <time>2016-12-11T09:42:55.416Z</time>
      </trkpt>
      <trkpt lat="48.03709" lon="2.7946">
        <ele>114</ele>
        <time>2016-12-11T09:42:56.413Z</time>
      </trkpt>
      <trkpt lat="48.03705" lon="2.79458">
        <ele>114</ele>
        <time>2016-12-11T09:42:57.416Z</time>
      </trkpt>
      <trkpt lat="48.03705" lon="2.79458">
        <ele>114</ele>
        <time>2016-12-11T09:42:58.406Z</time>
      </trkpt>
      <trkpt lat="48.03697" lon="2.79456">
        <ele>114</ele>
        <time>2016-12-11T09:42:59.412Z</time>
      </trkpt>
      <trkpt lat="48.03693" lon="2.79455">
        <ele>114</ele>
        <time>2016-12-11T09:43:00.413Z</time>
      </trkpt>
      <trkpt lat="48.03693" lon="2.79455">
        <ele>114</ele>
        <time>2016-12-11T09:43:01.410Z</time>
      </trkpt>
      <trkpt lat="48.03685" lon="2.79452">
        <ele>114</ele>
        <time>2016-12-11T09:43:02.412Z</time>
      </trkpt>
      <trkpt lat="48.03681" lon="2.79451">
        <ele>114</ele>
        <time>2016-12-11T09:43:03.415Z</time>
      </trkpt>
      <trkpt lat="48.03681" lon="2.79451">
        <ele>114</ele>
        <time>2016-12-11T09:43:04.410Z</time>
      </trkpt>
      <trkpt lat="48.03672" lon="2.79447">
        <ele>114</ele>
        <time>2016-12-11T09:43:05.412Z</time>
      </trkpt>
      <trkpt lat="48.03672" lon="2.79447">
        <ele>114</ele>
        <time>2016-12-11T09:43:06.411Z</time>
      </trkpt>
      <trkpt lat="48.03664" lon="2.79444">
        <ele>113</ele>
        <time>2016-12-11T09:43:07.412Z</time>
      </trkpt>
      <trkpt lat="48.03664" lon="2.79444">
        <ele>113</ele>
        <time>2016-12-11T09:43:08.406Z</time>
      </trkpt>
      <trkpt lat="48.03655" lon="2.79441">
        <ele>113</ele>
        <time>2016-12-11T09:43:09.415Z</time>
      </trkpt>
      <trkpt lat="48.03655" lon="2.79441">
        <ele>113</ele>
        <time>2016-12-11T09:43:10.411Z</time>
      </trkpt>
      <trkpt lat="48.03646" lon="2.79438">
        <ele>113</ele>
        <time>2016-12-11T09:43:11.412Z</time>
      </trkpt>
      <trkpt lat="48.03642" lon="2.79436">
        <ele>113</ele>
        <time>2016-12-11T09:43:12.413Z</time>
      </trkpt>
      <trkpt lat="48.03642" lon="2.79436">
        <ele>113</ele>
        <time>2016-12-11T09:43:13.410Z</time>
      </trkpt>
      <trkpt lat="48.03634" lon="2.79433">
        <ele>113</ele>
        <time>2016-12-11T09:43:14.412Z</time>
      </trkpt>
      <trkpt lat="48.0363" lon="2.79432">
        <ele>112</ele>
        <time>2016-12-11T09:43:15.412Z</time>
      </trkpt>
      <trkpt lat="48.0363" lon="2.79432">
        <ele>112</ele>
        <time>2016-12-11T09:43:16.407Z</time>
      </trkpt>
      <trkpt lat="48.03622" lon="2.79428">
        <ele>112</ele>
        <time>2016-12-11T09:43:17.405Z</time>
      </trkpt>
      <trkpt lat="48.03622" lon="2.79428">
        <ele>112</ele>
        <time>2016-12-11T09:43:18.408Z</time>
      </trkpt>
      <trkpt lat="48.03614" lon="2.79425">
        <ele>112</ele>
        <time>2016-12-11T09:43:19.414Z</time>
      </trkpt>
      <trkpt lat="48.03614" lon="2.79425">
        <ele>112</ele>
        <time>2016-12-11T09:43:20.420Z</time>
      </trkpt>
      <trkpt lat="48.03606" lon="2.79421">
        <ele>112</ele>
        <time>2016-12-11T09:43:21.412Z</time>
      </trkpt>
      <trkpt lat="48.03606" lon="2.79421">
        <ele>112</ele>
        <time>2016-12-11T09:43:22.426Z</time>
      </trkpt>
      <trkpt lat="48.03598" lon="2.79417">
        <ele>112</ele>
        <time>2016-12-11T09:43:23.414Z</time>
      </trkpt>
      <trkpt lat="48.03594" lon="2.79414">
        <ele>112</ele>
        <time>2016-12-11T09:43:24.412Z</time>
      </trkpt>
      <trkpt lat="48.03594" lon="2.79414">
        <ele>112</ele>
        <time>2016-12-11T09:43:25.408Z</time>
      </trkpt>
      <trkpt lat="48.03585" lon="2.79408">
        <ele>111</ele>
        <time>2016-12-11T09:43:26.412Z</time>
      </trkpt>
      <trkpt lat="48.03581" lon="2.79405">
        <ele>111</ele>
        <time>2016-12-11T09:43:27.411Z</time>
      </trkpt>
      <trkpt lat="48.03581" lon="2.79405">
        <ele>111</ele>
        <time>2016-12-11T09:43:28.432Z</time>
      </trkpt>
      <trkpt lat="48.03572" lon="2.79398">
        <ele>111</ele>
        <time>2016-12-11T09:43:29.422Z</time>
      </trkpt>
      <trkpt lat="48.03572" lon="2.79398">
        <ele>111</ele>
        <time>2016-12-11T09:43:30.411Z</time>
      </trkpt>
      <trkpt lat="48.03563" lon="2.79392">
        <ele>111</ele>
        <time>2016-12-11T09:43:31.412Z</time>
      </trkpt>
      <trkpt lat="48.03563" lon="2.79392">
        <ele>111</ele>
        <time>2016-12-11T09:43:32.406Z</time>
      </trkpt>
      <trkpt lat="48.03555" lon="2.79386">
        <ele>110</ele>
        <time>2016-12-11T09:43:33.414Z</time>
      </trkpt>
      <trkpt lat="48.03555" lon="2.79386">
        <ele>110</ele>
        <time>2016-12-11T09:43:34.408Z</time>
      </trkpt>
      <trkpt lat="48.03546" lon="2.79382">
        <ele>110</ele>
        <time>2016-12-11T09:43:35.413Z</time>
      </trkpt>
      <trkpt lat="48.03546" lon="2.79382">
        <ele>110</ele>
        <time>2016-12-11T09:43:36.407Z</time>
      </trkpt>
      <trkpt lat="48.03538" lon="2.79374">
        <ele>110</ele>
        <time>2016-12-11T09:43:37.413Z</time>
      </trkpt>
      <trkpt lat="48.03538" lon="2.79374">
        <ele>110</ele>
        <time>2016-12-11T09:43:38.408Z</time>
      </trkpt>
      <trkpt lat="48.03536" lon="2.79362">
        <ele>110</ele>
        <time>2016-12-11T09:43:39.414Z</time>
      </trkpt>
      <trkpt lat="48.03536" lon="2.79362">
        <ele>110</ele>
        <time>2016-12-11T09:43:40.411Z</time>
      </trkpt>
      <trkpt lat="48.03539" lon="2.7935">
        <ele>110</ele>
        <time>2016-12-11T09:43:41.413Z</time>
      </trkpt>
      <trkpt lat="48.03539" lon="2.7935">
        <ele>110</ele>
        <time>2016-12-11T09:43:42.409Z</time>
      </trkpt>
      <trkpt lat="48.03543" lon="2.79337">
        <ele>110</ele>
        <time>2016-12-11T09:43:43.413Z</time>
      </trkpt>
      <trkpt lat="48.03543" lon="2.79337">
        <ele>110</ele>
        <time>2016-12-11T09:43:44.410Z</time>
      </trkpt>
      <trkpt lat="48.03546" lon="2.79325">
        <ele>110</ele>
        <time>2016-12-11T09:43:45.396Z</time>
      </trkpt>
      <trkpt lat="48.03548" lon="2.79318">
        <ele>110</ele>
        <time>2016-12-11T09:43:46.432Z</time>
      </trkpt>
      <trkpt lat="48.03548" lon="2.79318">
        <ele>110</ele>
        <time>2016-12-11T09:43:47.421Z</time>
      </trkpt>
      <trkpt lat="48.0355" lon="2.79305">
        <ele>109</ele>
        <time>2016-12-11T09:43:48.413Z</time>
      </trkpt>
      <trkpt lat="48.0355" lon="2.79305">
        <ele>109</ele>
        <time>2016-12-11T09:43:49.411Z</time>
      </trkpt>
      <trkpt lat="48.03549" lon="2.79292">
        <ele>109</ele>
        <time>2016-12-11T09:43:50.413Z</time>
      </trkpt>
      <trkpt lat="48.0355" lon="2.79287">
        <ele>109</ele>
        <time>2016-12-11T09:43:51.415Z</time>
      </trkpt>
      <trkpt lat="48.0355" lon="2.79287">
        <ele>109</ele>
        <time>2016-12-11T09:43:52.411Z</time>
      </trkpt>
      <trkpt lat="48.03551" lon="2.79274">
        <ele>110</ele>
        <time>2016-12-11T09:43:53.412Z</time>
      </trkpt>
      <trkpt lat="48.03549" lon="2.79268">
        <ele>109</ele>
        <time>2016-12-11T09:43:54.413Z</time>
      </trkpt>
      <trkpt lat="48.03549" lon="2.79268">
        <ele>109</ele>
        <time>2016-12-11T09:43:55.416Z</time>
      </trkpt>
      <trkpt lat="48.03542" lon="2.79259">
        <ele>110</ele>
        <time>2016-12-11T09:43:56.414Z</time>
      </trkpt>
      <trkpt lat="48.03539" lon="2.79255">
        <ele>110</ele>
        <time>2016-12-11T09:43:57.410Z</time>
      </trkpt>
      <trkpt lat="48.03539" lon="2.79255">
        <ele>110</ele>
        <time>2016-12-11T09:43:58.408Z</time>
      </trkpt>
      <trkpt lat="48.03533" lon="2.79244">
        <ele>109</ele>
        <time>2016-12-11T09:43:59.412Z</time>
      </trkpt>
      <trkpt lat="48.03533" lon="2.79244">
        <ele>109</ele>
        <time>2016-12-11T09:44:00.407Z</time>
      </trkpt>
      <trkpt lat="48.03525" lon="2.7923">
        <ele>109</ele>
        <time>2016-12-11T09:44:01.413Z</time>
      </trkpt>
      <trkpt lat="48.03525" lon="2.7923">
        <ele>109</ele>
        <time>2016-12-11T09:44:02.407Z</time>
      </trkpt>
      <trkpt lat="48.03517" lon="2.79215">
        <ele>108</ele>
        <time>2016-12-11T09:44:03.415Z</time>
      </trkpt>
      <trkpt lat="48.03517" lon="2.79215">
        <ele>108</ele>
        <time>2016-12-11T09:44:04.411Z</time>
      </trkpt>
      <trkpt lat="48.03509" lon="2.79199">
        <ele>108</ele>
        <time>2016-12-11T09:44:05.414Z</time>
      </trkpt>
      <trkpt lat="48.03509" lon="2.79199">
        <ele>108</ele>
        <time>2016-12-11T09:44:06.408Z</time>
      </trkpt>
      <trkpt lat="48.03501" lon="2.79182">
        <ele>107</ele>
        <time>2016-12-11T09:44:07.414Z</time>
      </trkpt>
      <trkpt lat="48.03497" lon="2.79174">
        <ele>107</ele>
        <time>2016-12-11T09:44:08.414Z</time>
      </trkpt>
      <trkpt lat="48.03497" lon="2.79174">
        <ele>107</ele>
        <time>2016-12-11T09:44:09.409Z</time>
      </trkpt>
      <trkpt lat="48.03491" lon="2.7916">
        <ele>107</ele>
        <time>2016-12-11T09:44:10.414Z</time>
      </trkpt>
      <trkpt lat="48.03491" lon="2.7916">
        <ele>107</ele>
        <time>2016-12-11T09:44:11.410Z</time>
      </trkpt>
      <trkpt lat="48.0349" lon="2.79147">
        <ele>107</ele>
        <time>2016-12-11T09:44:12.414Z</time>
      </trkpt>
      <trkpt lat="48.0349" lon="2.79147">
        <ele>107</ele>
        <time>2016-12-11T09:44:13.410Z</time>
      </trkpt>
      <trkpt lat="48.03488" lon="2.79135">
        <ele>107</ele>
        <time>2016-12-11T09:44:14.413Z</time>
      </trkpt>
      <trkpt lat="48.03489" lon="2.79131">
        <ele>107</ele>
        <time>2016-12-11T09:44:15.412Z</time>
      </trkpt>
      <trkpt lat="48.03489" lon="2.79129">
        <ele>108</ele>
        <time>2016-12-11T09:44:16.413Z</time>
      </trkpt>
      <trkpt lat="48.03489" lon="2.79129">
        <ele>108</ele>
        <time>2016-12-11T09:44:17.421Z</time>
      </trkpt>
      <trkpt lat="48.03488" lon="2.79125">
        <ele>108</ele>
        <time>2016-12-11T09:44:18.430Z</time>
      </trkpt>
      <trkpt lat="48.03487" lon="2.79124">
        <ele>108</ele>
        <time>2016-12-11T09:44:19.398Z</time>
      </trkpt>
      <trkpt lat="48.03487" lon="2.79124">
        <ele>108</ele>
        <time>2016-12-11T09:44:20.414Z</time>
      </trkpt>
      <trkpt lat="48.03483" lon="2.79123">
        <ele>109</ele>
        <time>2016-12-11T09:44:21.412Z</time>
      </trkpt>
      <trkpt lat="48.03483" lon="2.79123">
        <ele>109</ele>
        <time>2016-12-11T09:44:22.411Z</time>
      </trkpt>
      <trkpt lat="48.0348" lon="2.7912">
        <ele>109</ele>
        <time>2016-12-11T09:44:23.412Z</time>
      </trkpt>
      <trkpt lat="48.03478" lon="2.79119">
        <ele>109</ele>
        <time>2016-12-11T09:44:24.415Z</time>
      </trkpt>
      <trkpt lat="48.03477" lon="2.79117">
        <ele>109</ele>
        <time>2016-12-11T09:44:25.413Z</time>
      </trkpt>
      <trkpt lat="48.03477" lon="2.79117">
        <ele>109</ele>
        <time>2016-12-11T09:44:26.408Z</time>
      </trkpt>
      <trkpt lat="48.03476" lon="2.79111">
        <ele>110</ele>
        <time>2016-12-11T09:44:27.415Z</time>
      </trkpt>
      <trkpt lat="48.03476" lon="2.79111">
        <ele>110</ele>
        <time>2016-12-11T09:44:28.411Z</time>
      </trkpt>
      <trkpt lat="48.03476" lon="2.79109">
        <ele>110</ele>
        <time>2016-12-11T09:44:29.423Z</time>
      </trkpt>
      <trkpt lat="48.03476" lon="2.79109">
        <ele>110</ele>
        <time>2016-12-11T09:44:30.415Z</time>
      </trkpt>
      <trkpt lat="48.03476" lon="2.79109">
        <ele>110</ele>
        <time>2016-12-11T09:44:31.408Z</time>
      </trkpt>
      <trkpt lat="48.03476" lon="2.79109">
        <ele>110</ele>
        <time>2016-12-11T09:44:32.417Z</time>
      </trkpt>
      <trkpt lat="48.03471" lon="2.79113">
        <ele>101</ele>
        <time>2016-12-11T09:44:33.420Z</time>
      </trkpt>
      <trkpt lat="48.03471" lon="2.79115">
        <ele>101</ele>
        <time>2016-12-11T09:44:34.417Z</time>
      </trkpt>
      <trkpt lat="48.0347" lon="2.79118">
        <ele>101</ele>
        <time>2016-12-11T09:44:35.419Z</time>
      </trkpt>
      <trkpt lat="48.0347" lon="2.79118">
        <ele>101</ele>
        <time>2016-12-11T09:44:36.419Z</time>
      </trkpt>
      <trkpt lat="48.03468" lon="2.79125">
        <ele>101</ele>
        <time>2016-12-11T09:44:37.420Z</time>
      </trkpt>
      <trkpt lat="48.03468" lon="2.79125">
        <ele>101</ele>
        <time>2016-12-11T09:44:38.417Z</time>
      </trkpt>
      <trkpt lat="48.03464" lon="2.79134">
        <ele>101</ele>
        <time>2016-12-11T09:44:39.421Z</time>
      </trkpt>
      <trkpt lat="48.03462" lon="2.79138">
        <ele>101</ele>
        <time>2016-12-11T09:44:40.420Z</time>
      </trkpt>
      <trkpt lat="48.03462" lon="2.79138">
        <ele>101</ele>
        <time>2016-12-11T09:44:41.417Z</time>
      </trkpt>
      <trkpt lat="48.03457" lon="2.79148">
        <ele>101</ele>
        <time>2016-12-11T09:44:42.420Z</time>
      </trkpt>
      <trkpt lat="48.03457" lon="2.79148">
        <ele>101</ele>
        <time>2016-12-11T09:44:43.416Z</time>
      </trkpt>
      <trkpt lat="48.03452" lon="2.79156">
        <ele>101</ele>
        <time>2016-12-11T09:44:44.412Z</time>
      </trkpt>
      <trkpt lat="48.03449" lon="2.7916">
        <ele>102</ele>
        <time>2016-12-11T09:44:45.419Z</time>
      </trkpt>
      <trkpt lat="48.03449" lon="2.7916">
        <ele>102</ele>
        <time>2016-12-11T09:44:46.417Z</time>
      </trkpt>
      <trkpt lat="48.03442" lon="2.79166">
        <ele>102</ele>
        <time>2016-12-11T09:44:47.421Z</time>
      </trkpt>
      <trkpt lat="48.03442" lon="2.79166">
        <ele>102</ele>
        <time>2016-12-11T09:44:48.419Z</time>
      </trkpt>
      <trkpt lat="48.03437" lon="2.79172">
        <ele>102</ele>
        <time>2016-12-11T09:44:49.423Z</time>
      </trkpt>
      <trkpt lat="48.03437" lon="2.79172">
        <ele>102</ele>
        <time>2016-12-11T09:44:50.418Z</time>
      </trkpt>
      <trkpt lat="48.03434" lon="2.7918">
        <ele>102</ele>
        <time>2016-12-11T09:44:51.419Z</time>
      </trkpt>
      <trkpt lat="48.03433" lon="2.79184">
        <ele>102</ele>
        <time>2016-12-11T09:44:52.400Z</time>
      </trkpt>
      <trkpt lat="48.03433" lon="2.79184">
        <ele>102</ele>
        <time>2016-12-11T09:44:53.409Z</time>
      </trkpt>
      <trkpt lat="48.03433" lon="2.79194">
        <ele>102</ele>
        <time>2016-12-11T09:44:54.422Z</time>
      </trkpt>
      <trkpt lat="48.03435" lon="2.792">
        <ele>103</ele>
        <time>2016-12-11T09:44:55.420Z</time>
      </trkpt>
      <trkpt lat="48.03435" lon="2.792">
        <ele>103</ele>
        <time>2016-12-11T09:44:56.418Z</time>
      </trkpt>
      <trkpt lat="48.03438" lon="2.7921">
        <ele>103</ele>
        <time>2016-12-11T09:44:57.421Z</time>
      </trkpt>
      <trkpt lat="48.03438" lon="2.7921">
        <ele>103</ele>
        <time>2016-12-11T09:44:58.419Z</time>
      </trkpt>
      <trkpt lat="48.03441" lon="2.79221">
        <ele>103</ele>
        <time>2016-12-11T09:44:59.419Z</time>
      </trkpt>
      <trkpt lat="48.03442" lon="2.79227">
        <ele>103</ele>
        <time>2016-12-11T09:45:00.423Z</time>
      </trkpt>
      <trkpt lat="48.03442" lon="2.79227">
        <ele>103</ele>
        <time>2016-12-11T09:45:01.416Z</time>
      </trkpt>
      <trkpt lat="48.03445" lon="2.79238">
        <ele>103</ele>
        <time>2016-12-11T09:45:02.418Z</time>
      </trkpt>
      <trkpt lat="48.03445" lon="2.79238">
        <ele>103</ele>
        <time>2016-12-11T09:45:03.418Z</time>
      </trkpt>
      <trkpt lat="48.03449" lon="2.79247">
        <ele>103</ele>
        <time>2016-12-11T09:45:04.423Z</time>
      </trkpt>
      <trkpt lat="48.03451" lon="2.79252">
        <ele>104</ele>
        <time>2016-12-11T09:45:05.417Z</time>
      </trkpt>
      <trkpt lat="48.03451" lon="2.79252">
        <ele>104</ele>
        <time>2016-12-11T09:45:06.416Z</time>
      </trkpt>
      <trkpt lat="48.03456" lon="2.79262">
        <ele>104</ele>
        <time>2016-12-11T09:45:07.420Z</time>
      </trkpt>
      <trkpt lat="48.03456" lon="2.79262">
        <ele>104</ele>
        <time>2016-12-11T09:45:08.417Z</time>
      </trkpt>
      <trkpt lat="48.0346" lon="2.79271">
        <ele>104</ele>
        <time>2016-12-11T09:45:09.420Z</time>
      </trkpt>
      <trkpt lat="48.0346" lon="2.79271">
        <ele>104</ele>
        <time>2016-12-11T09:45:10.415Z</time>
      </trkpt>
      <trkpt lat="48.03465" lon="2.7928">
        <ele>104</ele>
        <time>2016-12-11T09:45:11.419Z</time>
      </trkpt>
      <trkpt lat="48.03467" lon="2.79284">
        <ele>104</ele>
        <time>2016-12-11T09:45:12.420Z</time>
      </trkpt>
      <trkpt lat="48.03467" lon="2.79284">
        <ele>104</ele>
        <time>2016-12-11T09:45:13.418Z</time>
      </trkpt>
      <trkpt lat="48.03471" lon="2.79293">
        <ele>105</ele>
        <time>2016-12-11T09:45:14.409Z</time>
      </trkpt>
      <trkpt lat="48.03471" lon="2.79293">
        <ele>105</ele>
        <time>2016-12-11T09:45:15.418Z</time>
      </trkpt>
      <trkpt lat="48.03474" lon="2.79303">
        <ele>105</ele>
        <time>2016-12-11T09:45:16.421Z</time>
      </trkpt>
      <trkpt lat="48.03474" lon="2.79303">
        <ele>105</ele>
        <time>2016-12-11T09:45:17.407Z</time>
      </trkpt>
      <trkpt lat="48.03479" lon="2.79312">
        <ele>106</ele>
        <time>2016-12-11T09:45:18.411Z</time>
      </trkpt>
      <trkpt lat="48.03479" lon="2.79312">
        <ele>106</ele>
        <time>2016-12-11T09:45:19.417Z</time>
      </trkpt>
      <trkpt lat="48.03484" lon="2.7932">
        <ele>106</ele>
        <time>2016-12-11T09:45:20.422Z</time>
      </trkpt>
      <trkpt lat="48.03484" lon="2.7932">
        <ele>106</ele>
        <time>2016-12-11T09:45:21.418Z</time>
      </trkpt>
      <trkpt lat="48.03489" lon="2.79328">
        <ele>107</ele>
        <time>2016-12-11T09:45:22.420Z</time>
      </trkpt>
      <trkpt lat="48.03489" lon="2.79328">
        <ele>107</ele>
        <time>2016-12-11T09:45:23.418Z</time>
      </trkpt>
      <trkpt lat="48.03492" lon="2.79338">
        <ele>108</ele>
        <time>2016-12-11T09:45:24.425Z</time>
      </trkpt>
      <trkpt lat="48.03492" lon="2.79338">
        <ele>108</ele>
        <time>2016-12-11T09:45:25.417Z</time>
      </trkpt>
      <trkpt lat="48.0349" lon="2.79347">
        <ele>109</ele>
        <time>2016-12-11T09:45:26.421Z</time>
      </trkpt>
      <trkpt lat="48.0349" lon="2.79347">
        <ele>109</ele>
        <time>2016-12-11T09:45:27.414Z</time>
      </trkpt>
      <trkpt lat="48.03483" lon="2.79351">
        <ele>109</ele>
        <time>2016-12-11T09:45:28.420Z</time>
      </trkpt>
      <trkpt lat="48.03483" lon="2.79351">
        <ele>109</ele>
        <time>2016-12-11T09:45:29.415Z</time>
      </trkpt>
      <trkpt lat="48.03475" lon="2.79355">
        <ele>110</ele>
        <time>2016-12-11T09:45:30.420Z</time>
      </trkpt>
      <trkpt lat="48.03475" lon="2.79355">
        <ele>110</ele>
        <time>2016-12-11T09:45:31.418Z</time>
      </trkpt>
      <trkpt lat="48.03467" lon="2.7936">
        <ele>110</ele>
        <time>2016-12-11T09:45:32.420Z</time>
      </trkpt>
      <trkpt lat="48.03464" lon="2.79363">
        <ele>110</ele>
        <time>2016-12-11T09:45:33.420Z</time>
      </trkpt>
      <trkpt lat="48.03464" lon="2.79363">
        <ele>110</ele>
        <time>2016-12-11T09:45:34.420Z</time>
      </trkpt>
      <trkpt lat="48.03457" lon="2.79369">
        <ele>110</ele>
        <time>2016-12-11T09:45:35.420Z</time>
      </trkpt>
      <trkpt lat="48.03453" lon="2.79372">
        <ele>110</ele>
        <time>2016-12-11T09:45:36.418Z</time>
      </trkpt>
      <trkpt lat="48.03449" lon="2.79375">
        <ele>110</ele>
        <time>2016-12-11T09:45:37.418Z</time>
      </trkpt>
      <trkpt lat="48.03449" lon="2.79375">
        <ele>110</ele>
        <time>2016-12-11T09:45:38.417Z</time>
      </trkpt>
      <trkpt lat="48.03441" lon="2.79379">
        <ele>109</ele>
        <time>2016-12-11T09:45:39.420Z</time>
      </trkpt>
      <trkpt lat="48.03441" lon="2.79379">
        <ele>109</ele>
        <time>2016-12-11T09:45:40.418Z</time>
      </trkpt>
      <trkpt lat="48.03431" lon="2.79379">
        <ele>109</ele>
        <time>2016-12-11T09:45:41.420Z</time>
      </trkpt>
      <trkpt lat="48.03426" lon="2.79379">
        <ele>110</ele>
        <time>2016-12-11T09:45:42.422Z</time>
      </trkpt>
      <trkpt lat="48.03426" lon="2.79379">
        <ele>110</ele>
        <time>2016-12-11T09:45:43.418Z</time>
      </trkpt>
      <trkpt lat="48.03416" lon="2.79378">
        <ele>109</ele>
        <time>2016-12-11T09:45:44.426Z</time>
      </trkpt>
      <trkpt lat="48.03416" lon="2.79378">
        <ele>109</ele>
        <time>2016-12-11T09:45:45.416Z</time>
      </trkpt>
      <trkpt lat="48.03405" lon="2.79373">
        <ele>109</ele>
        <time>2016-12-11T09:45:46.420Z</time>
      </trkpt>
      <trkpt lat="48.03401" lon="2.79369">
        <ele>108</ele>
        <time>2016-12-11T09:45:47.420Z</time>
      </trkpt>
      <trkpt lat="48.03401" lon="2.79369">
        <ele>108</ele>
        <time>2016-12-11T09:45:48.397Z</time>
      </trkpt>
      <trkpt lat="48.0339" lon="2.79363">
        <ele>108</ele>
        <time>2016-12-11T09:45:49.429Z</time>
      </trkpt>
      <trkpt lat="48.0339" lon="2.79363">
        <ele>108</ele>
        <time>2016-12-11T09:45:50.418Z</time>
      </trkpt>
      <trkpt lat="48.03381" lon="2.79358">
        <ele>108</ele>
        <time>2016-12-11T09:45:51.422Z</time>
      </trkpt>
      <trkpt lat="48.03381" lon="2.79358">
        <ele>108</ele>
        <time>2016-12-11T09:45:52.414Z</time>
      </trkpt>
      <trkpt lat="48.03371" lon="2.79353">
        <ele>108</ele>
        <time>2016-12-11T09:45:53.420Z</time>
      </trkpt>
      <trkpt lat="48.03366" lon="2.79351">
        <ele>108</ele>
        <time>2016-12-11T09:45:54.426Z</time>
      </trkpt>
      <trkpt lat="48.03366" lon="2.79351">
        <ele>108</ele>
        <time>2016-12-11T09:45:55.417Z</time>
      </trkpt>
      <trkpt lat="48.03355" lon="2.79347">
        <ele>107</ele>
        <time>2016-12-11T09:45:56.420Z</time>
      </trkpt>
      <trkpt lat="48.0335" lon="2.79345">
        <ele>107</ele>
        <time>2016-12-11T09:45:57.420Z</time>
      </trkpt>
      <trkpt lat="48.0335" lon="2.79345">
        <ele>107</ele>
        <time>2016-12-11T09:45:58.422Z</time>
      </trkpt>
      <trkpt lat="48.03338" lon="2.79342">
        <ele>107</ele>
        <time>2016-12-11T09:45:59.421Z</time>
      </trkpt>
      <trkpt lat="48.03338" lon="2.79342">
        <ele>107</ele>
        <time>2016-12-11T09:46:00.418Z</time>
      </trkpt>
      <trkpt lat="48.03326" lon="2.79341">
        <ele>106</ele>
        <time>2016-12-11T09:46:01.420Z</time>
      </trkpt>
      <trkpt lat="48.0332" lon="2.79342">
        <ele>106</ele>
        <time>2016-12-11T09:46:02.422Z</time>
      </trkpt>
      <trkpt lat="48.0332" lon="2.79342">
        <ele>106</ele>
        <time>2016-12-11T09:46:03.421Z</time>
      </trkpt>
      <trkpt lat="48.03311" lon="2.79351">
        <ele>106</ele>
        <time>2016-12-11T09:46:04.432Z</time>
      </trkpt>
      <trkpt lat="48.03311" lon="2.79351">
        <ele>106</ele>
        <time>2016-12-11T09:46:05.415Z</time>
      </trkpt>
      <trkpt lat="48.03308" lon="2.79366">
        <ele>106</ele>
        <time>2016-12-11T09:46:06.420Z</time>
      </trkpt>
      <trkpt lat="48.03308" lon="2.79366">
        <ele>106</ele>
        <time>2016-12-11T09:46:07.420Z</time>
      </trkpt>
      <trkpt lat="48.03306" lon="2.79382">
        <ele>106</ele>
        <time>2016-12-11T09:46:08.420Z</time>
      </trkpt>
      <trkpt lat="48.03306" lon="2.79382">
        <ele>106</ele>
        <time>2016-12-11T09:46:09.416Z</time>
      </trkpt>
      <trkpt lat="48.03304" lon="2.79397">
        <ele>106</ele>
        <time>2016-12-11T09:46:10.420Z</time>
      </trkpt>
      <trkpt lat="48.03303" lon="2.79404">
        <ele>106</ele>
        <time>2016-12-11T09:46:11.421Z</time>
      </trkpt>
      <trkpt lat="48.03303" lon="2.79404">
        <ele>106</ele>
        <time>2016-12-11T09:46:12.419Z</time>
      </trkpt>
      <trkpt lat="48.03302" lon="2.79419">
        <ele>107</ele>
        <time>2016-12-11T09:46:13.418Z</time>
      </trkpt>
      <trkpt lat="48.03302" lon="2.79419">
        <ele>107</ele>
        <time>2016-12-11T09:46:14.429Z</time>
      </trkpt>
      <trkpt lat="48.03303" lon="2.79433">
        <ele>108</ele>
        <time>2016-12-11T09:46:15.419Z</time>
      </trkpt>
      <trkpt lat="48.03303" lon="2.79433">
        <ele>108</ele>
        <time>2016-12-11T09:46:16.415Z</time>
      </trkpt>
      <trkpt lat="48.03303" lon="2.79446">
        <ele>109</ele>
        <time>2016-12-11T09:46:17.427Z</time>
      </trkpt>
      <trkpt lat="48.03303" lon="2.79446">
        <ele>109</ele>
        <time>2016-12-11T09:46:18.408Z</time>
      </trkpt>
      <trkpt lat="48.03303" lon="2.79459">
        <ele>110</ele>
        <time>2016-12-11T09:46:19.414Z</time>
      </trkpt>
      <trkpt lat="48.03303" lon="2.79459">
        <ele>110</ele>
        <time>2016-12-11T09:46:20.420Z</time>
      </trkpt>
      <trkpt lat="48.03303" lon="2.7947">
        <ele>111</ele>
        <time>2016-12-11T09:46:21.420Z</time>
      </trkpt>
      <trkpt lat="48.03304" lon="2.79476">
        <ele>111</ele>
        <time>2016-12-11T09:46:22.418Z</time>
      </trkpt>
      <trkpt lat="48.03304" lon="2.79476">
        <ele>111</ele>
        <time>2016-12-11T09:46:23.418Z</time>
      </trkpt>
      <trkpt lat="48.03304" lon="2.79486">
        <ele>111</ele>
        <time>2016-12-11T09:46:24.435Z</time>
      </trkpt>
      <trkpt lat="48.03304" lon="2.79486">
        <ele>111</ele>
        <time>2016-12-11T09:46:25.424Z</time>
      </trkpt>
      <trkpt lat="48.03303" lon="2.79497">
        <ele>112</ele>
        <time>2016-12-11T09:46:26.420Z</time>
      </trkpt>
      <trkpt lat="48.03303" lon="2.79497">
        <ele>112</ele>
        <time>2016-12-11T09:46:27.418Z</time>
      </trkpt>
      <trkpt lat="48.03302" lon="2.79508">
        <ele>112</ele>
        <time>2016-12-11T09:46:28.421Z</time>
      </trkpt>
      <trkpt lat="48.03302" lon="2.79508">
        <ele>112</ele>
        <time>2016-12-11T09:46:29.418Z</time>
      </trkpt>
      <trkpt lat="48.03301" lon="2.79518">
        <ele>112</ele>
        <time>2016-12-11T09:46:30.422Z</time>
      </trkpt>
      <trkpt lat="48.033" lon="2.79523">
        <ele>112</ele>
        <time>2016-12-11T09:46:31.419Z</time>
      </trkpt>
      <trkpt lat="48.033" lon="2.79523">
        <ele>112</ele>
        <time>2016-12-11T09:46:32.418Z</time>
      </trkpt>
      <trkpt lat="48.03299" lon="2.79533">
        <ele>112</ele>
        <time>2016-12-11T09:46:33.420Z</time>
      </trkpt>
      <trkpt lat="48.03299" lon="2.79533">
        <ele>112</ele>
        <time>2016-12-11T09:46:34.418Z</time>
      </trkpt>
      <trkpt lat="48.03298" lon="2.79543">
        <ele>112</ele>
        <time>2016-12-11T09:46:35.418Z</time>
      </trkpt>
      <trkpt lat="48.03297" lon="2.79548">
        <ele>112</ele>
        <time>2016-12-11T09:46:36.421Z</time>
      </trkpt>
      <trkpt lat="48.03297" lon="2.79548">
        <ele>112</ele>
        <time>2016-12-11T09:46:37.417Z</time>
      </trkpt>
      <trkpt lat="48.03296" lon="2.79558">
        <ele>112</ele>
        <time>2016-12-11T09:46:38.419Z</time>
      </trkpt>
      <trkpt lat="48.03296" lon="2.79564">
        <ele>112</ele>
        <time>2016-12-11T09:46:39.418Z</time>
      </trkpt>
      <trkpt lat="48.03296" lon="2.79564">
        <ele>112</ele>
        <time>2016-12-11T09:46:40.416Z</time>
      </trkpt>
      <trkpt lat="48.03295" lon="2.79575">
        <ele>112</ele>
        <time>2016-12-11T09:46:41.421Z</time>
      </trkpt>
      <trkpt lat="48.03294" lon="2.7958">
        <ele>112</ele>
        <time>2016-12-11T09:46:42.420Z</time>
      </trkpt>
      <trkpt lat="48.03294" lon="2.7958">
        <ele>112</ele>
        <time>2016-12-11T09:46:43.433Z</time>
      </trkpt>
      <trkpt lat="48.03293" lon="2.7959">
        <ele>112</ele>
        <time>2016-12-11T09:46:44.420Z</time>
      </trkpt>
      <trkpt lat="48.03293" lon="2.7959">
        <ele>112</ele>
        <time>2016-12-11T09:46:45.417Z</time>
      </trkpt>
      <trkpt lat="48.03292" lon="2.796">
        <ele>112</ele>
        <time>2016-12-11T09:46:46.419Z</time>
      </trkpt>
      <trkpt lat="48.03291" lon="2.79606">
        <ele>112</ele>
        <time>2016-12-11T09:46:47.420Z</time>
      </trkpt>
      <trkpt lat="48.03291" lon="2.79611">
        <ele>112</ele>
        <time>2016-12-11T09:46:48.420Z</time>
      </trkpt>
      <trkpt lat="48.03291" lon="2.79611">
        <ele>112</ele>
        <time>2016-12-11T09:46:49.417Z</time>
      </trkpt>
      <trkpt lat="48.0329" lon="2.79622">
        <ele>112</ele>
        <time>2016-12-11T09:46:50.419Z</time>
      </trkpt>
      <trkpt lat="48.03289" lon="2.79627">
        <ele>112</ele>
        <time>2016-12-11T09:46:51.420Z</time>
      </trkpt>
      <trkpt lat="48.03289" lon="2.79627">
        <ele>112</ele>
        <time>2016-12-11T09:46:52.415Z</time>
      </trkpt>
      <trkpt lat="48.03288" lon="2.79637">
        <ele>112</ele>
        <time>2016-12-11T09:46:53.421Z</time>
      </trkpt>
      <trkpt lat="48.03287" lon="2.79642">
        <ele>112</ele>
        <time>2016-12-11T09:46:54.421Z</time>
      </trkpt>
      <trkpt lat="48.03287" lon="2.79642">
        <ele>112</ele>
        <time>2016-12-11T09:46:55.410Z</time>
      </trkpt>
      <trkpt lat="48.03286" lon="2.79652">
        <ele>112</ele>
        <time>2016-12-11T09:46:56.420Z</time>
      </trkpt>
      <trkpt lat="48.03286" lon="2.79652">
        <ele>112</ele>
        <time>2016-12-11T09:46:57.418Z</time>
      </trkpt>
      <trkpt lat="48.03286" lon="2.79663">
        <ele>112</ele>
        <time>2016-12-11T09:46:58.422Z</time>
      </trkpt>
      <trkpt lat="48.03285" lon="2.79667">
        <ele>112</ele>
        <time>2016-12-11T09:46:59.421Z</time>
      </trkpt>
      <trkpt lat="48.03285" lon="2.79667">
        <ele>112</ele>
        <time>2016-12-11T09:47:00.421Z</time>
      </trkpt>
      <trkpt lat="48.03284" lon="2.79677">
        <ele>112</ele>
        <time>2016-12-11T09:47:01.420Z</time>
      </trkpt>
      <trkpt lat="48.03284" lon="2.79682">
        <ele>112</ele>
        <time>2016-12-11T09:47:02.420Z</time>
      </trkpt>
      <trkpt lat="48.03284" lon="2.79682">
        <ele>112</ele>
        <time>2016-12-11T09:47:03.415Z</time>
      </trkpt>
      <trkpt lat="48.03283" lon="2.79692">
        <ele>112</ele>
        <time>2016-12-11T09:47:04.421Z</time>
      </trkpt>
      <trkpt lat="48.03283" lon="2.79692">
        <ele>112</ele>
        <time>2016-12-11T09:47:05.400Z</time>
      </trkpt>
      <trkpt lat="48.03282" lon="2.79702">
        <ele>112</ele>
        <time>2016-12-11T09:47:06.428Z</time>
      </trkpt>
      <trkpt lat="48.03282" lon="2.79702">
        <ele>112</ele>
        <time>2016-12-11T09:47:07.418Z</time>
      </trkpt>
      <trkpt lat="48.03281" lon="2.79712">
        <ele>112</ele>
        <time>2016-12-11T09:47:08.420Z</time>
      </trkpt>
      <trkpt lat="48.03281" lon="2.79717">
        <ele>112</ele>
        <time>2016-12-11T09:47:09.421Z</time>
      </trkpt>
      <trkpt lat="48.03281" lon="2.79717">
        <ele>112</ele>
        <time>2016-12-11T09:47:10.417Z</time>
      </trkpt>
      <trkpt lat="48.0328" lon="2.79727">
        <ele>112</ele>
        <time>2016-12-11T09:47:11.421Z</time>
      </trkpt>
      <trkpt lat="48.0328" lon="2.79732">
        <ele>112</ele>
        <time>2016-12-11T09:47:12.420Z</time>
      </trkpt>
      <trkpt lat="48.0328" lon="2.79732">
        <ele>112</ele>
        <time>2016-12-11T09:47:13.427Z</time>
      </trkpt>
      <trkpt lat="48.03279" lon="2.79741">
        <ele>112</ele>
        <time>2016-12-11T09:47:14.421Z</time>
      </trkpt>
      <trkpt lat="48.03278" lon="2.79746">
        <ele>112</ele>
        <time>2016-12-11T09:47:15.422Z</time>
      </trkpt>
      <trkpt lat="48.03278" lon="2.79746">
        <ele>112</ele>
        <time>2016-12-11T09:47:16.418Z</time>
      </trkpt>
      <trkpt lat="48.03277" lon="2.79756">
        <ele>112</ele>
        <time>2016-12-11T09:47:17.431Z</time>
      </trkpt>
      <trkpt lat="48.03277" lon="2.79756">
        <ele>112</ele>
        <time>2016-12-11T09:47:18.407Z</time>
      </trkpt>
      <trkpt lat="48.03276" lon="2.79765">
        <ele>112</ele>
        <time>2016-12-11T09:47:19.414Z</time>
      </trkpt>
      <trkpt lat="48.03276" lon="2.79765">
        <ele>112</ele>
        <time>2016-12-11T09:47:20.420Z</time>
      </trkpt>
      <trkpt lat="48.03275" lon="2.79775">
        <ele>112</ele>
        <time>2016-12-11T09:47:21.420Z</time>
      </trkpt>
      <trkpt lat="48.03275" lon="2.79775">
        <ele>112</ele>
        <time>2016-12-11T09:47:22.418Z</time>
      </trkpt>
      <trkpt lat="48.03273" lon="2.79785">
        <ele>113</ele>
        <time>2016-12-11T09:47:23.420Z</time>
      </trkpt>
      <trkpt lat="48.03273" lon="2.79789">
        <ele>113</ele>
        <time>2016-12-11T09:47:24.421Z</time>
      </trkpt>
      <trkpt lat="48.03273" lon="2.79789">
        <ele>113</ele>
        <time>2016-12-11T09:47:25.417Z</time>
      </trkpt>
      <trkpt lat="48.03271" lon="2.79799">
        <ele>113</ele>
        <time>2016-12-11T09:47:26.417Z</time>
      </trkpt>
      <trkpt lat="48.03271" lon="2.79799">
        <ele>113</ele>
        <time>2016-12-11T09:47:27.418Z</time>
      </trkpt>
      <trkpt lat="48.0327" lon="2.79808">
        <ele>113</ele>
        <time>2016-12-11T09:47:28.420Z</time>
      </trkpt>
      <trkpt lat="48.0327" lon="2.79808">
        <ele>113</ele>
        <time>2016-12-11T09:47:29.418Z</time>
      </trkpt>
      <trkpt lat="48.03268" lon="2.79818">
        <ele>113</ele>
        <time>2016-12-11T09:47:30.423Z</time>
      </trkpt>
      <trkpt lat="48.03267" lon="2.79823">
        <ele>113</ele>
        <time>2016-12-11T09:47:31.435Z</time>
      </trkpt>
      <trkpt lat="48.03267" lon="2.79823">
        <ele>113</ele>
        <time>2016-12-11T09:47:32.434Z</time>
      </trkpt>
      <trkpt lat="48.03266" lon="2.79832">
        <ele>113</ele>
        <time>2016-12-11T09:47:33.401Z</time>
      </trkpt>
      <trkpt lat="48.03266" lon="2.79832">
        <ele>113</ele>
        <time>2016-12-11T09:47:34.435Z</time>
      </trkpt>
      <trkpt lat="48.03264" lon="2.79841">
        <ele>113</ele>
        <time>2016-12-11T09:47:35.427Z</time>
      </trkpt>
      <trkpt lat="48.03264" lon="2.79846">
        <ele>113</ele>
        <time>2016-12-11T09:47:36.430Z</time>
      </trkpt>
      <trkpt lat="48.03264" lon="2.79846">
        <ele>113</ele>
        <time>2016-12-11T09:47:37.419Z</time>
      </trkpt>
      <trkpt lat="48.03262" lon="2.79855">
        <ele>113</ele>
        <time>2016-12-11T09:47:38.421Z</time>
      </trkpt>
      <trkpt lat="48.03262" lon="2.79855">
        <ele>113</ele>
        <time>2016-12-11T09:47:39.418Z</time>
      </trkpt>
      <trkpt lat="48.0326" lon="2.79864">
        <ele>113</ele>
        <time>2016-12-11T09:47:40.421Z</time>
      </trkpt>
      <trkpt lat="48.0326" lon="2.79864">
        <ele>113</ele>
        <time>2016-12-11T09:47:41.418Z</time>
      </trkpt>
      <trkpt lat="48.03258" lon="2.79874">
        <ele>113</ele>
        <time>2016-12-11T09:47:42.420Z</time>
      </trkpt>
      <trkpt lat="48.03258" lon="2.79874">
        <ele>113</ele>
        <time>2016-12-11T09:47:43.418Z</time>
      </trkpt>
      <trkpt lat="48.03256" lon="2.79883">
        <ele>113</ele>
        <time>2016-12-11T09:47:44.420Z</time>
      </trkpt>
      <trkpt lat="48.03256" lon="2.79883">
        <ele>113</ele>
        <time>2016-12-11T09:47:45.419Z</time>
      </trkpt>
      <trkpt lat="48.03255" lon="2.79893">
        <ele>113</ele>
        <time>2016-12-11T09:47:46.420Z</time>
      </trkpt>
      <trkpt lat="48.03255" lon="2.79893">
        <ele>113</ele>
        <time>2016-12-11T09:47:47.418Z</time>
      </trkpt>
      <trkpt lat="48.03253" lon="2.79903">
        <ele>113</ele>
        <time>2016-12-11T09:47:48.418Z</time>
      </trkpt>
      <trkpt lat="48.03253" lon="2.79903">
        <ele>113</ele>
        <time>2016-12-11T09:47:49.410Z</time>
      </trkpt>
      <trkpt lat="48.03251" lon="2.79912">
        <ele>113</ele>
        <time>2016-12-11T09:47:50.408Z</time>
      </trkpt>
      <trkpt lat="48.03251" lon="2.79912">
        <ele>113</ele>
        <time>2016-12-11T09:47:51.429Z</time>
      </trkpt>
      <trkpt lat="48.03248" lon="2.79921">
        <ele>113</ele>
        <time>2016-12-11T09:47:52.414Z</time>
      </trkpt>
      <trkpt lat="48.03248" lon="2.79921">
        <ele>113</ele>
        <time>2016-12-11T09:47:53.396Z</time>
      </trkpt>
      <trkpt lat="48.03246" lon="2.79931">
        <ele>113</ele>
        <time>2016-12-11T09:47:54.418Z</time>
      </trkpt>
      <trkpt lat="48.03246" lon="2.79931">
        <ele>113</ele>
        <time>2016-12-11T09:47:55.419Z</time>
      </trkpt>
      <trkpt lat="48.03243" lon="2.7994">
        <ele>113</ele>
        <time>2016-12-11T09:47:56.402Z</time>
      </trkpt>
      <trkpt lat="48.03243" lon="2.7994">
        <ele>113</ele>
        <time>2016-12-11T09:47:57.424Z</time>
      </trkpt>
      <trkpt lat="48.03241" lon="2.79949">
        <ele>113</ele>
        <time>2016-12-11T09:47:58.421Z</time>
      </trkpt>
      <trkpt lat="48.03241" lon="2.79949">
        <ele>113</ele>
        <time>2016-12-11T09:47:59.407Z</time>
      </trkpt>
      <trkpt lat="48.03238" lon="2.79958">
        <ele>113</ele>
        <time>2016-12-11T09:48:00.430Z</time>
      </trkpt>
      <trkpt lat="48.03238" lon="2.79958">
        <ele>113</ele>
        <time>2016-12-11T09:48:01.396Z</time>
      </trkpt>
      <trkpt lat="48.03237" lon="2.79967">
        <ele>113</ele>
        <time>2016-12-11T09:48:02.405Z</time>
      </trkpt>
      <trkpt lat="48.03237" lon="2.79967">
        <ele>113</ele>
        <time>2016-12-11T09:48:03.411Z</time>
      </trkpt>
      <trkpt lat="48.03238" lon="2.79974">
        <ele>112</ele>
        <time>2016-12-11T09:48:04.417Z</time>
      </trkpt>
      <trkpt lat="48.03238" lon="2.79974">
        <ele>112</ele>
        <time>2016-12-11T09:48:05.418Z</time>
      </trkpt>
      <trkpt lat="48.03238" lon="2.79982">
        <ele>112</ele>
        <time>2016-12-11T09:48:06.424Z</time>
      </trkpt>
      <trkpt lat="48.03238" lon="2.79982">
        <ele>112</ele>
        <time>2016-12-11T09:48:07.429Z</time>
      </trkpt>
      <trkpt lat="48.03236" lon="2.79989">
        <ele>113</ele>
        <time>2016-12-11T09:48:08.421Z</time>
      </trkpt>
      <trkpt lat="48.03236" lon="2.79989">
        <ele>113</ele>
        <time>2016-12-11T09:48:09.417Z</time>
      </trkpt>
      <trkpt lat="48.0323" lon="2.79992">
        <ele>112</ele>
        <time>2016-12-11T09:48:10.422Z</time>
      </trkpt>
      <trkpt lat="48.0323" lon="2.79992">
        <ele>112</ele>
        <time>2016-12-11T09:48:11.418Z</time>
      </trkpt>
      <trkpt lat="48.03224" lon="2.79994">
        <ele>112</ele>
        <time>2016-12-11T09:48:12.420Z</time>
      </trkpt>
      <trkpt lat="48.03224" lon="2.79994">
        <ele>112</ele>
        <time>2016-12-11T09:48:13.419Z</time>
      </trkpt>
      <trkpt lat="48.0322" lon="2.8">
        <ele>113</ele>
        <time>2016-12-11T09:48:14.421Z</time>
      </trkpt>
      <trkpt lat="48.0322" lon="2.8">
        <ele>113</ele>
        <time>2016-12-11T09:48:15.418Z</time>
      </trkpt>
      <trkpt lat="48.03219" lon="2.80008">
        <ele>113</ele>
        <time>2016-12-11T09:48:16.420Z</time>
      </trkpt>
      <trkpt lat="48.03219" lon="2.80008">
        <ele>113</ele>
        <time>2016-12-11T09:48:17.432Z</time>
      </trkpt>
      <trkpt lat="48.0322" lon="2.80018">
        <ele>114</ele>
        <time>2016-12-11T09:48:18.420Z</time>
      </trkpt>
      <trkpt lat="48.0322" lon="2.80018">
        <ele>114</ele>
        <time>2016-12-11T09:48:19.427Z</time>
      </trkpt>
      <trkpt lat="48.0322" lon="2.80027">
        <ele>113</ele>
        <time>2016-12-11T09:48:20.420Z</time>
      </trkpt>
      <trkpt lat="48.0322" lon="2.80027">
        <ele>113</ele>
        <time>2016-12-11T09:48:21.418Z</time>
      </trkpt>
      <trkpt lat="48.03221" lon="2.80036">
        <ele>113</ele>
        <time>2016-12-11T09:48:22.420Z</time>
      </trkpt>
      <trkpt lat="48.03221" lon="2.80036">
        <ele>113</ele>
        <time>2016-12-11T09:48:23.416Z</time>
      </trkpt>
      <trkpt lat="48.03221" lon="2.80045">
        <ele>113</ele>
        <time>2016-12-11T09:48:24.421Z</time>
      </trkpt>
      <trkpt lat="48.03221" lon="2.80045">
        <ele>113</ele>
        <time>2016-12-11T09:48:25.417Z</time>
      </trkpt>
      <trkpt lat="48.03222" lon="2.80055">
        <ele>112</ele>
        <time>2016-12-11T09:48:26.420Z</time>
      </trkpt>
      <trkpt lat="48.03223" lon="2.8006">
        <ele>111</ele>
        <time>2016-12-11T09:48:27.420Z</time>
      </trkpt>
      <trkpt lat="48.03223" lon="2.80065">
        <ele>111</ele>
        <time>2016-12-11T09:48:28.421Z</time>
      </trkpt>
      <trkpt lat="48.03223" lon="2.80065">
        <ele>111</ele>
        <time>2016-12-11T09:48:29.419Z</time>
      </trkpt>
      <trkpt lat="48.03224" lon="2.80076">
        <ele>110</ele>
        <time>2016-12-11T09:48:30.396Z</time>
      </trkpt>
      <trkpt lat="48.03224" lon="2.80076">
        <ele>110</ele>
        <time>2016-12-11T09:48:31.397Z</time>
      </trkpt>
      <trkpt lat="48.03225" lon="2.80086">
        <ele>109</ele>
        <time>2016-12-11T09:48:32.426Z</time>
      </trkpt>
      <trkpt lat="48.03226" lon="2.80091">
        <ele>109</ele>
        <time>2016-12-11T09:48:33.420Z</time>
      </trkpt>
      <trkpt lat="48.03226" lon="2.80091">
        <ele>109</ele>
        <time>2016-12-11T09:48:34.419Z</time>
      </trkpt>
      <trkpt lat="48.03226" lon="2.80101">
        <ele>109</ele>
        <time>2016-12-11T09:48:35.424Z</time>
      </trkpt>
      <trkpt lat="48.03227" lon="2.80106">
        <ele>109</ele>
        <time>2016-12-11T09:48:36.424Z</time>
      </trkpt>
      <trkpt lat="48.03227" lon="2.80106">
        <ele>109</ele>
        <time>2016-12-11T09:48:37.419Z</time>
      </trkpt>
      <trkpt lat="48.03228" lon="2.80115">
        <ele>109</ele>
        <time>2016-12-11T09:48:38.420Z</time>
      </trkpt>
      <trkpt lat="48.03228" lon="2.80115">
        <ele>109</ele>
        <time>2016-12-11T09:48:39.419Z</time>
      </trkpt>
      <trkpt lat="48.03229" lon="2.80125">
        <ele>109</ele>
        <time>2016-12-11T09:48:40.421Z</time>
      </trkpt>
      <trkpt lat="48.0323" lon="2.8013">
        <ele>110</ele>
        <time>2016-12-11T09:48:41.418Z</time>
      </trkpt>
      <trkpt lat="48.0323" lon="2.8013">
        <ele>110</ele>
        <time>2016-12-11T09:48:42.418Z</time>
      </trkpt>
      <trkpt lat="48.03232" lon="2.8014">
        <ele>111</ele>
        <time>2016-12-11T09:48:43.421Z</time>
      </trkpt>
      <trkpt lat="48.03233" lon="2.80145">
        <ele>111</ele>
        <time>2016-12-11T09:48:44.421Z</time>
      </trkpt>
      <trkpt lat="48.03233" lon="2.80145">
        <ele>111</ele>
        <time>2016-12-11T09:48:45.416Z</time>
      </trkpt>
      <trkpt lat="48.03236" lon="2.80156">
        <ele>113</ele>
        <time>2016-12-11T09:48:46.412Z</time>
      </trkpt>
      <trkpt lat="48.03237" lon="2.8016">
        <ele>113</ele>
        <time>2016-12-11T09:48:47.420Z</time>
      </trkpt>
      <trkpt lat="48.0324" lon="2.80162">
        <ele>115</ele>
        <time>2016-12-11T09:48:48.424Z</time>
      </trkpt>
      <trkpt lat="48.0324" lon="2.80162">
        <ele>115</ele>
        <time>2016-12-11T09:48:49.416Z</time>
      </trkpt>
      <trkpt lat="48.03245" lon="2.80163">
        <ele>117</ele>
        <time>2016-12-11T09:48:50.418Z</time>
      </trkpt>
      <trkpt lat="48.03245" lon="2.80163">
        <ele>117</ele>
        <time>2016-12-11T09:48:51.418Z</time>
      </trkpt>
      <trkpt lat="48.03251" lon="2.8016">
        <ele>119</ele>
        <time>2016-12-11T09:48:52.421Z</time>
      </trkpt>
      <trkpt lat="48.03251" lon="2.8016">
        <ele>119</ele>
        <time>2016-12-11T09:48:53.422Z</time>
      </trkpt>
      <trkpt lat="48.03256" lon="2.80158">
        <ele>120</ele>
        <time>2016-12-11T09:48:54.425Z</time>
      </trkpt>
      <trkpt lat="48.03256" lon="2.80158">
        <ele>120</ele>
        <time>2016-12-11T09:48:55.419Z</time>
      </trkpt>
      <trkpt lat="48.03262" lon="2.80156">
        <ele>123</ele>
        <time>2016-12-11T09:48:56.420Z</time>
      </trkpt>
      <trkpt lat="48.03266" lon="2.80156">
        <ele>124</ele>
        <time>2016-12-11T09:48:57.421Z</time>
      </trkpt>
      <trkpt lat="48.03266" lon="2.80156">
        <ele>124</ele>
        <time>2016-12-11T09:48:58.418Z</time>
      </trkpt>
      <trkpt lat="48.03272" lon="2.80155">
        <ele>126</ele>
        <time>2016-12-11T09:48:59.422Z</time>
      </trkpt>
      <trkpt lat="48.03274" lon="2.80154">
        <ele>126</ele>
        <time>2016-12-11T09:49:00.424Z</time>
      </trkpt>
      <trkpt lat="48.03274" lon="2.80154">
        <ele>126</ele>
        <time>2016-12-11T09:49:01.420Z</time>
      </trkpt>
      <trkpt lat="48.03281" lon="2.80153">
        <ele>128</ele>
        <time>2016-12-11T09:49:02.422Z</time>
      </trkpt>
      <trkpt lat="48.03284" lon="2.80152">
        <ele>128</ele>
        <time>2016-12-11T09:49:03.422Z</time>
      </trkpt>
      <trkpt lat="48.03288" lon="2.80151">
        <ele>129</ele>
        <time>2016-12-11T09:49:04.422Z</time>
      </trkpt>
      <trkpt lat="48.03292" lon="2.8015">
        <ele>129</ele>
        <time>2016-12-11T09:49:05.418Z</time>
      </trkpt>
      <trkpt lat="48.03292" lon="2.8015">
        <ele>129</ele>
        <time>2016-12-11T09:49:06.418Z</time>
      </trkpt>
      <trkpt lat="48.03301" lon="2.80148">
        <ele>130</ele>
        <time>2016-12-11T09:49:07.421Z</time>
      </trkpt>
      <trkpt lat="48.03305" lon="2.80147">
        <ele>131</ele>
        <time>2016-12-11T09:49:08.421Z</time>
      </trkpt>
      <trkpt lat="48.03305" lon="2.80147">
        <ele>131</ele>
        <time>2016-12-11T09:49:09.416Z</time>
      </trkpt>
      <trkpt lat="48.03315" lon="2.80146">
        <ele>132</ele>
        <time>2016-12-11T09:49:10.421Z</time>
      </trkpt>
      <trkpt lat="48.03315" lon="2.80146">
        <ele>132</ele>
        <time>2016-12-11T09:49:11.418Z</time>
      </trkpt>
      <trkpt lat="48.03323" lon="2.80145">
        <ele>132</ele>
        <time>2016-12-11T09:49:12.422Z</time>
      </trkpt>
      <trkpt lat="48.03323" lon="2.80145">
        <ele>132</ele>
        <time>2016-12-11T09:49:13.415Z</time>
      </trkpt>
      <trkpt lat="48.03332" lon="2.80143">
        <ele>132</ele>
        <time>2016-12-11T09:49:14.418Z</time>
      </trkpt>
      <trkpt lat="48.03332" lon="2.80143">
        <ele>132</ele>
        <time>2016-12-11T09:49:15.419Z</time>
      </trkpt>
      <trkpt lat="48.03341" lon="2.80141">
        <ele>132</ele>
        <time>2016-12-11T09:49:16.421Z</time>
      </trkpt>
      <trkpt lat="48.03341" lon="2.80141">
        <ele>132</ele>
        <time>2016-12-11T09:49:17.430Z</time>
      </trkpt>
      <trkpt lat="48.03351" lon="2.80138">
        <ele>132</ele>
        <time>2016-12-11T09:49:18.410Z</time>
      </trkpt>
      <trkpt lat="48.03351" lon="2.80138">
        <ele>132</ele>
        <time>2016-12-11T09:49:19.416Z</time>
      </trkpt>
      <trkpt lat="48.03363" lon="2.80136">
        <ele>130</ele>
        <time>2016-12-11T09:49:20.422Z</time>
      </trkpt>
      <trkpt lat="48.03363" lon="2.80136">
        <ele>130</ele>
        <time>2016-12-11T09:49:21.419Z</time>
      </trkpt>
      <trkpt lat="48.03374" lon="2.80134">
        <ele>129</ele>
        <time>2016-12-11T09:49:22.421Z</time>
      </trkpt>
      <trkpt lat="48.03374" lon="2.80134">
        <ele>129</ele>
        <time>2016-12-11T09:49:23.421Z</time>
      </trkpt>
      <trkpt lat="48.03385" lon="2.8013">
        <ele>128</ele>
        <time>2016-12-11T09:49:24.396Z</time>
      </trkpt>
      <trkpt lat="48.03385" lon="2.8013">
        <ele>128</ele>
        <time>2016-12-11T09:49:25.425Z</time>
      </trkpt>
      <trkpt lat="48.03396" lon="2.80127">
        <ele>127</ele>
        <time>2016-12-11T09:49:26.421Z</time>
      </trkpt>
      <trkpt lat="48.03401" lon="2.80126">
        <ele>127</ele>
        <time>2016-12-11T09:49:27.422Z</time>
      </trkpt>
      <trkpt lat="48.03401" lon="2.80126">
        <ele>127</ele>
        <time>2016-12-11T09:49:28.420Z</time>
      </trkpt>
      <trkpt lat="48.03413" lon="2.80124">
        <ele>124</ele>
        <time>2016-12-11T09:49:29.422Z</time>
      </trkpt>
      <trkpt lat="48.03419" lon="2.80123">
        <ele>124</ele>
        <time>2016-12-11T09:49:30.422Z</time>
      </trkpt>
      <trkpt lat="48.03419" lon="2.80123">
        <ele>124</ele>
        <time>2016-12-11T09:49:31.417Z</time>
      </trkpt>
      <trkpt lat="48.03429" lon="2.8012">
        <ele>123</ele>
        <time>2016-12-11T09:49:32.424Z</time>
      </trkpt>
      <trkpt lat="48.03429" lon="2.8012">
        <ele>123</ele>
        <time>2016-12-11T09:49:33.419Z</time>
      </trkpt>
      <trkpt lat="48.03439" lon="2.80117">
        <ele>123</ele>
        <time>2016-12-11T09:49:34.422Z</time>
      </trkpt>
      <trkpt lat="48.03439" lon="2.80117">
        <ele>123</ele>
        <time>2016-12-11T09:49:35.419Z</time>
      </trkpt>
      <trkpt lat="48.03449" lon="2.80115">
        <ele>123</ele>
        <time>2016-12-11T09:49:36.423Z</time>
      </trkpt>
      <trkpt lat="48.03449" lon="2.80115">
        <ele>123</ele>
        <time>2016-12-11T09:49:37.418Z</time>
      </trkpt>
      <trkpt lat="48.03459" lon="2.80113">
        <ele>122</ele>
        <time>2016-12-11T09:49:38.428Z</time>
      </trkpt>
      <trkpt lat="48.03459" lon="2.80113">
        <ele>122</ele>
        <time>2016-12-11T09:49:39.416Z</time>
      </trkpt>
      <trkpt lat="48.03469" lon="2.80111">
        <ele>122</ele>
        <time>2016-12-11T09:49:40.422Z</time>
      </trkpt>
      <trkpt lat="48.03469" lon="2.80111">
        <ele>122</ele>
        <time>2016-12-11T09:49:41.419Z</time>
      </trkpt>
      <trkpt lat="48.03479" lon="2.80109">
        <ele>121</ele>
        <time>2016-12-11T09:49:42.422Z</time>
      </trkpt>
      <trkpt lat="48.03479" lon="2.80109">
        <ele>121</ele>
        <time>2016-12-11T09:49:43.423Z</time>
      </trkpt>
      <trkpt lat="48.0349" lon="2.80107">
        <ele>121</ele>
        <time>2016-12-11T09:49:44.421Z</time>
      </trkpt>
      <trkpt lat="48.0349" lon="2.80107">
        <ele>121</ele>
        <time>2016-12-11T09:49:45.418Z</time>
      </trkpt>
      <trkpt lat="48.03499" lon="2.80105">
        <ele>121</ele>
        <time>2016-12-11T09:49:46.421Z</time>
      </trkpt>
      <trkpt lat="48.03499" lon="2.80105">
        <ele>121</ele>
        <time>2016-12-11T09:49:47.415Z</time>
      </trkpt>
      <trkpt lat="48.03508" lon="2.80102">
        <ele>120</ele>
        <time>2016-12-11T09:49:48.424Z</time>
      </trkpt>
      <trkpt lat="48.03508" lon="2.80102">
        <ele>120</ele>
        <time>2016-12-11T09:49:49.418Z</time>
      </trkpt>
      <trkpt lat="48.03516" lon="2.80101">
        <ele>120</ele>
        <time>2016-12-11T09:49:50.418Z</time>
      </trkpt>
      <trkpt lat="48.03516" lon="2.80101">
        <ele>120</ele>
        <time>2016-12-11T09:49:51.408Z</time>
      </trkpt>
      <trkpt lat="48.03523" lon="2.80105">
        <ele>120</ele>
        <time>2016-12-11T09:49:52.421Z</time>
      </trkpt>
      <trkpt lat="48.03523" lon="2.80105">
        <ele>120</ele>
        <time>2016-12-11T09:49:53.419Z</time>
      </trkpt>
      <trkpt lat="48.03524" lon="2.80114">
        <ele>121</ele>
        <time>2016-12-11T09:49:54.424Z</time>
      </trkpt>
      <trkpt lat="48.03524" lon="2.80114">
        <ele>121</ele>
        <time>2016-12-11T09:49:55.419Z</time>
      </trkpt>
      <trkpt lat="48.03521" lon="2.80123">
        <ele>121</ele>
        <time>2016-12-11T09:49:56.423Z</time>
      </trkpt>
      <trkpt lat="48.03521" lon="2.80123">
        <ele>121</ele>
        <time>2016-12-11T09:49:57.430Z</time>
      </trkpt>
      <trkpt lat="48.03516" lon="2.80133">
        <ele>120</ele>
        <time>2016-12-11T09:49:58.432Z</time>
      </trkpt>
      <trkpt lat="48.03516" lon="2.80133">
        <ele>120</ele>
        <time>2016-12-11T09:49:59.420Z</time>
      </trkpt>
      <trkpt lat="48.03511" lon="2.80142">
        <ele>120</ele>
        <time>2016-12-11T09:50:00.425Z</time>
      </trkpt>
      <trkpt lat="48.03511" lon="2.80142">
        <ele>120</ele>
        <time>2016-12-11T09:50:01.420Z</time>
      </trkpt>
      <trkpt lat="48.03506" lon="2.80152">
        <ele>119</ele>
        <time>2016-12-11T09:50:02.421Z</time>
      </trkpt>
      <trkpt lat="48.03506" lon="2.80152">
        <ele>119</ele>
        <time>2016-12-11T09:50:03.417Z</time>
      </trkpt>
      <trkpt lat="48.035" lon="2.80161">
        <ele>120</ele>
        <time>2016-12-11T09:50:04.422Z</time>
      </trkpt>
      <trkpt lat="48.03497" lon="2.80166">
        <ele>119</ele>
        <time>2016-12-11T09:50:05.421Z</time>
      </trkpt>
      <trkpt lat="48.03495" lon="2.80171">
        <ele>119</ele>
        <time>2016-12-11T09:50:06.420Z</time>
      </trkpt>
      <trkpt lat="48.03495" lon="2.80171">
        <ele>119</ele>
        <time>2016-12-11T09:50:07.417Z</time>
      </trkpt>
      <trkpt lat="48.03489" lon="2.80181">
        <ele>120</ele>
        <time>2016-12-11T09:50:08.418Z</time>
      </trkpt>
      <trkpt lat="48.03489" lon="2.80181">
        <ele>120</ele>
        <time>2016-12-11T09:50:09.419Z</time>
      </trkpt>
      <trkpt lat="48.03485" lon="2.80192">
        <ele>120</ele>
        <time>2016-12-11T09:50:10.421Z</time>
      </trkpt>
      <trkpt lat="48.03484" lon="2.80198">
        <ele>120</ele>
        <time>2016-12-11T09:50:11.422Z</time>
      </trkpt>
      <trkpt lat="48.03483" lon="2.80204">
        <ele>120</ele>
        <time>2016-12-11T09:50:12.424Z</time>
      </trkpt>
      <trkpt lat="48.03483" lon="2.80204">
        <ele>120</ele>
        <time>2016-12-11T09:50:13.419Z</time>
      </trkpt>
      <trkpt lat="48.03482" lon="2.80218">
        <ele>120</ele>
        <time>2016-12-11T09:50:14.421Z</time>
      </trkpt>
      <trkpt lat="48.03481" lon="2.80225">
        <ele>120</ele>
        <time>2016-12-11T09:50:15.421Z</time>
      </trkpt>
      <trkpt lat="48.03481" lon="2.80225">
        <ele>120</ele>
        <time>2016-12-11T09:50:16.416Z</time>
      </trkpt>
      <trkpt lat="48.03479" lon="2.80238">
        <ele>120</ele>
        <time>2016-12-11T09:50:17.423Z</time>
      </trkpt>
      <trkpt lat="48.03477" lon="2.80245">
        <ele>120</ele>
        <time>2016-12-11T09:50:18.422Z</time>
      </trkpt>
      <trkpt lat="48.03477" lon="2.80245">
        <ele>120</ele>
        <time>2016-12-11T09:50:19.428Z</time>
      </trkpt>
      <trkpt lat="48.03475" lon="2.8026">
        <ele>121</ele>
        <time>2016-12-11T09:50:20.423Z</time>
      </trkpt>
      <trkpt lat="48.03475" lon="2.8026">
        <ele>121</ele>
        <time>2016-12-11T09:50:21.420Z</time>
      </trkpt>
      <trkpt lat="48.03473" lon="2.80274">
        <ele>121</ele>
        <time>2016-12-11T09:50:22.421Z</time>
      </trkpt>
      <trkpt lat="48.03472" lon="2.80281">
        <ele>121</ele>
        <time>2016-12-11T09:50:23.421Z</time>
      </trkpt>
      <trkpt lat="48.03471" lon="2.80288">
        <ele>121</ele>
        <time>2016-12-11T09:50:24.424Z</time>
      </trkpt>
      <trkpt lat="48.03471" lon="2.80288">
        <ele>121</ele>
        <time>2016-12-11T09:50:25.417Z</time>
      </trkpt>
      <trkpt lat="48.03469" lon="2.80304">
        <ele>121</ele>
        <time>2016-12-11T09:50:26.422Z</time>
      </trkpt>
      <trkpt lat="48.03469" lon="2.80304">
        <ele>121</ele>
        <time>2016-12-11T09:50:27.416Z</time>
      </trkpt>
      <trkpt lat="48.03468" lon="2.80319">
        <ele>121</ele>
        <time>2016-12-11T09:50:28.422Z</time>
      </trkpt>
      <trkpt lat="48.03468" lon="2.80319">
        <ele>121</ele>
        <time>2016-12-11T09:50:29.418Z</time>
      </trkpt>
      <trkpt lat="48.03465" lon="2.80336">
        <ele>121</ele>
        <time>2016-12-11T09:50:30.424Z</time>
      </trkpt>
      <trkpt lat="48.03465" lon="2.80336">
        <ele>121</ele>
        <time>2016-12-11T09:50:31.419Z</time>
      </trkpt>
      <trkpt lat="48.03464" lon="2.80351">
        <ele>120</ele>
        <time>2016-12-11T09:50:32.421Z</time>
      </trkpt>
      <trkpt lat="48.03464" lon="2.80351">
        <ele>120</ele>
        <time>2016-12-11T09:50:33.419Z</time>
      </trkpt>
      <trkpt lat="48.03462" lon="2.80367">
        <ele>120</ele>
        <time>2016-12-11T09:50:34.422Z</time>
      </trkpt>
      <trkpt lat="48.03462" lon="2.80367">
        <ele>120</ele>
        <time>2016-12-11T09:50:35.418Z</time>
      </trkpt>
      <trkpt lat="48.0346" lon="2.80384">
        <ele>120</ele>
        <time>2016-12-11T09:50:36.425Z</time>
      </trkpt>
      <trkpt lat="48.0346" lon="2.80384">
        <ele>120</ele>
        <time>2016-12-11T09:50:37.422Z</time>
      </trkpt>
      <trkpt lat="48.03458" lon="2.804">
        <ele>119</ele>
        <time>2016-12-11T09:50:38.418Z</time>
      </trkpt>
      <trkpt lat="48.03458" lon="2.804">
        <ele>119</ele>
        <time>2016-12-11T09:50:39.416Z</time>
      </trkpt>
      <trkpt lat="48.03455" lon="2.80416">
        <ele>119</ele>
        <time>2016-12-11T09:50:40.422Z</time>
      </trkpt>
      <trkpt lat="48.03455" lon="2.80416">
        <ele>119</ele>
        <time>2016-12-11T09:50:41.419Z</time>
      </trkpt>
      <trkpt lat="48.03452" lon="2.80433">
        <ele>119</ele>
        <time>2016-12-11T09:50:42.422Z</time>
      </trkpt>
      <trkpt lat="48.03452" lon="2.80433">
        <ele>119</ele>
        <time>2016-12-11T09:50:43.418Z</time>
      </trkpt>
      <trkpt lat="48.03449" lon="2.8045">
        <ele>119</ele>
        <time>2016-12-11T09:50:44.418Z</time>
      </trkpt>
      <trkpt lat="48.03449" lon="2.8045">
        <ele>119</ele>
        <time>2016-12-11T09:50:45.419Z</time>
      </trkpt>
      <trkpt lat="48.03446" lon="2.80466">
        <ele>119</ele>
        <time>2016-12-11T09:50:46.420Z</time>
      </trkpt>
      <trkpt lat="48.03446" lon="2.80466">
        <ele>119</ele>
        <time>2016-12-11T09:50:47.416Z</time>
      </trkpt>
      <trkpt lat="48.03445" lon="2.80483">
        <ele>119</ele>
        <time>2016-12-11T09:50:48.400Z</time>
      </trkpt>
      <trkpt lat="48.03445" lon="2.80483">
        <ele>119</ele>
        <time>2016-12-11T09:50:49.429Z</time>
      </trkpt>
      <trkpt lat="48.03443" lon="2.805">
        <ele>118</ele>
        <time>2016-12-11T09:50:50.421Z</time>
      </trkpt>
      <trkpt lat="48.03443" lon="2.805">
        <ele>118</ele>
        <time>2016-12-11T09:50:51.416Z</time>
      </trkpt>
      <trkpt lat="48.03441" lon="2.80519">
        <ele>118</ele>
        <time>2016-12-11T09:50:52.425Z</time>
      </trkpt>
      <trkpt lat="48.03441" lon="2.80519">
        <ele>118</ele>
        <time>2016-12-11T09:50:53.396Z</time>
      </trkpt>
      <trkpt lat="48.03439" lon="2.80537">
        <ele>117</ele>
        <time>2016-12-11T09:50:54.435Z</time>
      </trkpt>
      <trkpt lat="48.03437" lon="2.80546">
        <ele>117</ele>
        <time>2016-12-11T09:50:55.424Z</time>
      </trkpt>
      <trkpt lat="48.03437" lon="2.80546">
        <ele>117</ele>
        <time>2016-12-11T09:50:56.417Z</time>
      </trkpt>
      <trkpt lat="48.03435" lon="2.80564">
        <ele>116</ele>
        <time>2016-12-11T09:50:57.423Z</time>
      </trkpt>
      <trkpt lat="48.03435" lon="2.80564">
        <ele>116</ele>
        <time>2016-12-11T09:50:58.424Z</time>
      </trkpt>
      <trkpt lat="48.03433" lon="2.80579">
        <ele>116</ele>
        <time>2016-12-11T09:50:59.422Z</time>
      </trkpt>
      <trkpt lat="48.03433" lon="2.80579">
        <ele>116</ele>
        <time>2016-12-11T09:51:00.422Z</time>
      </trkpt>
      <trkpt lat="48.03431" lon="2.80596">
        <ele>115</ele>
        <time>2016-12-11T09:51:01.421Z</time>
      </trkpt>
      <trkpt lat="48.0343" lon="2.80603">
        <ele>115</ele>
        <time>2016-12-11T09:51:02.425Z</time>
      </trkpt>
      <trkpt lat="48.0343" lon="2.80603">
        <ele>115</ele>
        <time>2016-12-11T09:51:03.419Z</time>
      </trkpt>
      <trkpt lat="48.03428" lon="2.80619">
        <ele>115</ele>
        <time>2016-12-11T09:51:04.422Z</time>
      </trkpt>
      <trkpt lat="48.03428" lon="2.80619">
        <ele>115</ele>
        <time>2016-12-11T09:51:05.418Z</time>
      </trkpt>
      <trkpt lat="48.03425" lon="2.80635">
        <ele>115</ele>
        <time>2016-12-11T09:51:06.424Z</time>
      </trkpt>
      <trkpt lat="48.03425" lon="2.80635">
        <ele>115</ele>
        <time>2016-12-11T09:51:07.420Z</time>
      </trkpt>
      <trkpt lat="48.03421" lon="2.8065">
        <ele>114</ele>
        <time>2016-12-11T09:51:08.421Z</time>
      </trkpt>
      <trkpt lat="48.03421" lon="2.8065">
        <ele>114</ele>
        <time>2016-12-11T09:51:09.420Z</time>
      </trkpt>
      <trkpt lat="48.03419" lon="2.80665">
        <ele>114</ele>
        <time>2016-12-11T09:51:10.422Z</time>
      </trkpt>
      <trkpt lat="48.03418" lon="2.80672">
        <ele>113</ele>
        <time>2016-12-11T09:51:11.422Z</time>
      </trkpt>
      <trkpt lat="48.03416" lon="2.80679">
        <ele>113</ele>
        <time>2016-12-11T09:51:12.424Z</time>
      </trkpt>
      <trkpt lat="48.03416" lon="2.80679">
        <ele>113</ele>
        <time>2016-12-11T09:51:13.420Z</time>
      </trkpt>
      <trkpt lat="48.03414" lon="2.80694">
        <ele>113</ele>
        <time>2016-12-11T09:51:14.422Z</time>
      </trkpt>
      <trkpt lat="48.03414" lon="2.80694">
        <ele>113</ele>
        <time>2016-12-11T09:51:15.420Z</time>
      </trkpt>
      <trkpt lat="48.03412" lon="2.80709">
        <ele>112</ele>
        <time>2016-12-11T09:51:16.422Z</time>
      </trkpt>
      <trkpt lat="48.03412" lon="2.80709">
        <ele>112</ele>
        <time>2016-12-11T09:51:17.422Z</time>
      </trkpt>
      <trkpt lat="48.03409" lon="2.80725">
        <ele>112</ele>
        <time>2016-12-11T09:51:18.397Z</time>
      </trkpt>
      <trkpt lat="48.03409" lon="2.80725">
        <ele>112</ele>
        <time>2016-12-11T09:51:19.407Z</time>
      </trkpt>
      <trkpt lat="48.03406" lon="2.80741">
        <ele>112</ele>
        <time>2016-12-11T09:51:20.423Z</time>
      </trkpt>
      <trkpt lat="48.03406" lon="2.80741">
        <ele>112</ele>
        <time>2016-12-11T09:51:21.421Z</time>
      </trkpt>
      <trkpt lat="48.03404" lon="2.80756">
        <ele>112</ele>
        <time>2016-12-11T09:51:22.423Z</time>
      </trkpt>
      <trkpt lat="48.03404" lon="2.80756">
        <ele>112</ele>
        <time>2016-12-11T09:51:23.420Z</time>
      </trkpt>
      <trkpt lat="48.03401" lon="2.80772">
        <ele>111</ele>
        <time>2016-12-11T09:51:24.423Z</time>
      </trkpt>
      <trkpt lat="48.03401" lon="2.80772">
        <ele>111</ele>
        <time>2016-12-11T09:51:25.420Z</time>
      </trkpt>
      <trkpt lat="48.03399" lon="2.80787">
        <ele>111</ele>
        <time>2016-12-11T09:51:26.422Z</time>
      </trkpt>
      <trkpt lat="48.03399" lon="2.80787">
        <ele>111</ele>
        <time>2016-12-11T09:51:27.419Z</time>
      </trkpt>
      <trkpt lat="48.03397" lon="2.80801">
        <ele>111</ele>
        <time>2016-12-11T09:51:28.421Z</time>
      </trkpt>
      <trkpt lat="48.03397" lon="2.80801">
        <ele>111</ele>
        <time>2016-12-11T09:51:29.419Z</time>
      </trkpt>
      <trkpt lat="48.03394" lon="2.80816">
        <ele>111</ele>
        <time>2016-12-11T09:51:30.425Z</time>
      </trkpt>
      <trkpt lat="48.03394" lon="2.80816">
        <ele>111</ele>
        <time>2016-12-11T09:51:31.419Z</time>
      </trkpt>
      <trkpt lat="48.03391" lon="2.80831">
        <ele>111</ele>
        <time>2016-12-11T09:51:32.422Z</time>
      </trkpt>
      <trkpt lat="48.03391" lon="2.80831">
        <ele>111</ele>
        <time>2016-12-11T09:51:33.420Z</time>
      </trkpt>
      <trkpt lat="48.03388" lon="2.80847">
        <ele>112</ele>
        <time>2016-12-11T09:51:34.423Z</time>
      </trkpt>
      <trkpt lat="48.03388" lon="2.80847">
        <ele>112</ele>
        <time>2016-12-11T09:51:35.419Z</time>
      </trkpt>
      <trkpt lat="48.03386" lon="2.80864">
        <ele>112</ele>
        <time>2016-12-11T09:51:36.422Z</time>
      </trkpt>
      <trkpt lat="48.03386" lon="2.80864">
        <ele>112</ele>
        <time>2016-12-11T09:51:37.417Z</time>
      </trkpt>
      <trkpt lat="48.03385" lon="2.80878">
        <ele>112</ele>
        <time>2016-12-11T09:51:38.420Z</time>
      </trkpt>
      <trkpt lat="48.03385" lon="2.80878">
        <ele>112</ele>
        <time>2016-12-11T09:51:39.420Z</time>
      </trkpt>
      <trkpt lat="48.03384" lon="2.80892">
        <ele>112</ele>
        <time>2016-12-11T09:51:40.422Z</time>
      </trkpt>
      <trkpt lat="48.03384" lon="2.80892">
        <ele>112</ele>
        <time>2016-12-11T09:51:41.417Z</time>
      </trkpt>
      <trkpt lat="48.03382" lon="2.80905">
        <ele>113</ele>
        <time>2016-12-11T09:51:42.424Z</time>
      </trkpt>
      <trkpt lat="48.03382" lon="2.80905">
        <ele>113</ele>
        <time>2016-12-11T09:51:43.420Z</time>
      </trkpt>
      <trkpt lat="48.03381" lon="2.80917">
        <ele>113</ele>
        <time>2016-12-11T09:51:44.421Z</time>
      </trkpt>
      <trkpt lat="48.03381" lon="2.80917">
        <ele>113</ele>
        <time>2016-12-11T09:51:45.416Z</time>
      </trkpt>
      <trkpt lat="48.03378" lon="2.80928">
        <ele>113</ele>
        <time>2016-12-11T09:51:46.420Z</time>
      </trkpt>
      <trkpt lat="48.03378" lon="2.80928">
        <ele>113</ele>
        <time>2016-12-11T09:51:47.419Z</time>
      </trkpt>
      <trkpt lat="48.03372" lon="2.80934">
        <ele>113</ele>
        <time>2016-12-11T09:51:48.424Z</time>
      </trkpt>
      <trkpt lat="48.03372" lon="2.80934">
        <ele>113</ele>
        <time>2016-12-11T09:51:49.410Z</time>
      </trkpt>
      <trkpt lat="48.03366" lon="2.80938">
        <ele>113</ele>
        <time>2016-12-11T09:51:50.400Z</time>
      </trkpt>
      <trkpt lat="48.03364" lon="2.80942">
        <ele>113</ele>
        <time>2016-12-11T09:51:51.400Z</time>
      </trkpt>
      <trkpt lat="48.03364" lon="2.80942">
        <ele>113</ele>
        <time>2016-12-11T09:51:52.429Z</time>
      </trkpt>
      <trkpt lat="48.03358" lon="2.8095">
        <ele>113</ele>
        <time>2016-12-11T09:51:53.425Z</time>
      </trkpt>
      <trkpt lat="48.03355" lon="2.80955">
        <ele>113</ele>
        <time>2016-12-11T09:51:54.430Z</time>
      </trkpt>
      <trkpt lat="48.03355" lon="2.80955">
        <ele>113</ele>
        <time>2016-12-11T09:51:55.419Z</time>
      </trkpt>
      <trkpt lat="48.0335" lon="2.80964">
        <ele>114</ele>
        <time>2016-12-11T09:51:56.420Z</time>
      </trkpt>
      <trkpt lat="48.0335" lon="2.80964">
        <ele>114</ele>
        <time>2016-12-11T09:51:57.420Z</time>
      </trkpt>
      <trkpt lat="48.03344" lon="2.80972">
        <ele>114</ele>
        <time>2016-12-11T09:51:58.423Z</time>
      </trkpt>
      <trkpt lat="48.03341" lon="2.80976">
        <ele>114</ele>
        <time>2016-12-11T09:51:59.409Z</time>
      </trkpt>
      <trkpt lat="48.03338" lon="2.80978">
        <ele>114</ele>
        <time>2016-12-11T09:52:00.397Z</time>
      </trkpt>
      <trkpt lat="48.03338" lon="2.80978">
        <ele>114</ele>
        <time>2016-12-11T09:52:01.425Z</time>
      </trkpt>
      <trkpt lat="48.03331" lon="2.80985">
        <ele>113</ele>
        <time>2016-12-11T09:52:02.423Z</time>
      </trkpt>
      <trkpt lat="48.03331" lon="2.80985">
        <ele>113</ele>
        <time>2016-12-11T09:52:03.420Z</time>
      </trkpt>
      <trkpt lat="48.03325" lon="2.8099">
        <ele>113</ele>
        <time>2016-12-11T09:52:04.422Z</time>
      </trkpt>
      <trkpt lat="48.03325" lon="2.8099">
        <ele>113</ele>
        <time>2016-12-11T09:52:05.417Z</time>
      </trkpt>
      <trkpt lat="48.03319" lon="2.80996">
        <ele>113</ele>
        <time>2016-12-11T09:52:06.422Z</time>
      </trkpt>
      <trkpt lat="48.03319" lon="2.80996">
        <ele>113</ele>
        <time>2016-12-11T09:52:07.420Z</time>
      </trkpt>
      <trkpt lat="48.03313" lon="2.81002">
        <ele>112</ele>
        <time>2016-12-11T09:52:08.421Z</time>
      </trkpt>
      <trkpt lat="48.0331" lon="2.81006">
        <ele>112</ele>
        <time>2016-12-11T09:52:09.400Z</time>
      </trkpt>
      <trkpt lat="48.0331" lon="2.81006">
        <ele>112</ele>
        <time>2016-12-11T09:52:10.429Z</time>
      </trkpt>
      <trkpt lat="48.03305" lon="2.81014">
        <ele>111</ele>
        <time>2016-12-11T09:52:11.422Z</time>
      </trkpt>
      <trkpt lat="48.03301" lon="2.81017">
        <ele>111</ele>
        <time>2016-12-11T09:52:12.421Z</time>
      </trkpt>
      <trkpt lat="48.03301" lon="2.81017">
        <ele>111</ele>
        <time>2016-12-11T09:52:13.423Z</time>
      </trkpt>
      <trkpt lat="48.03296" lon="2.81024">
        <ele>110</ele>
        <time>2016-12-11T09:52:14.427Z</time>
      </trkpt>
      <trkpt lat="48.03296" lon="2.81024">
        <ele>110</ele>
        <time>2016-12-11T09:52:15.420Z</time>
      </trkpt>
      <trkpt lat="48.03291" lon="2.81031">
        <ele>109</ele>
        <time>2016-12-11T09:52:16.423Z</time>
      </trkpt>
      <trkpt lat="48.03291" lon="2.81031">
        <ele>109</ele>
        <time>2016-12-11T09:52:17.418Z</time>
      </trkpt>
      <trkpt lat="48.03285" lon="2.81038">
        <ele>109</ele>
        <time>2016-12-11T09:52:18.422Z</time>
      </trkpt>
      <trkpt lat="48.03285" lon="2.81038">
        <ele>109</ele>
        <time>2016-12-11T09:52:19.428Z</time>
      </trkpt>
      <trkpt lat="48.03279" lon="2.81047">
        <ele>108</ele>
        <time>2016-12-11T09:52:20.396Z</time>
      </trkpt>
      <trkpt lat="48.03276" lon="2.81051">
        <ele>109</ele>
        <time>2016-12-11T09:52:21.397Z</time>
      </trkpt>
      <trkpt lat="48.03276" lon="2.81051">
        <ele>109</ele>
        <time>2016-12-11T09:52:22.431Z</time>
      </trkpt>
      <trkpt lat="48.0327" lon="2.81056">
        <ele>109</ele>
        <time>2016-12-11T09:52:23.423Z</time>
      </trkpt>
      <trkpt lat="48.03267" lon="2.81059">
        <ele>109</ele>
        <time>2016-12-11T09:52:24.425Z</time>
      </trkpt>
      <trkpt lat="48.03267" lon="2.81059">
        <ele>109</ele>
        <time>2016-12-11T09:52:25.421Z</time>
      </trkpt>
      <trkpt lat="48.03261" lon="2.81064">
        <ele>109</ele>
        <time>2016-12-11T09:52:26.422Z</time>
      </trkpt>
      <trkpt lat="48.03261" lon="2.81064">
        <ele>109</ele>
        <time>2016-12-11T09:52:27.420Z</time>
      </trkpt>
      <trkpt lat="48.03254" lon="2.81072">
        <ele>108</ele>
        <time>2016-12-11T09:52:28.421Z</time>
      </trkpt>
      <trkpt lat="48.0325" lon="2.81076">
        <ele>108</ele>
        <time>2016-12-11T09:52:29.420Z</time>
      </trkpt>
      <trkpt lat="48.03247" lon="2.81079">
        <ele>107</ele>
        <time>2016-12-11T09:52:30.423Z</time>
      </trkpt>
      <trkpt lat="48.03247" lon="2.81079">
        <ele>107</ele>
        <time>2016-12-11T09:52:31.420Z</time>
      </trkpt>
      <trkpt lat="48.03239" lon="2.81082">
        <ele>107</ele>
        <time>2016-12-11T09:52:32.419Z</time>
      </trkpt>
      <trkpt lat="48.03239" lon="2.81082">
        <ele>107</ele>
        <time>2016-12-11T09:52:33.420Z</time>
      </trkpt>
      <trkpt lat="48.03232" lon="2.81081">
        <ele>106</ele>
        <time>2016-12-11T09:52:34.424Z</time>
      </trkpt>
      <trkpt lat="48.03228" lon="2.81081">
        <ele>105</ele>
        <time>2016-12-11T09:52:35.424Z</time>
      </trkpt>
      <trkpt lat="48.03224" lon="2.81081">
        <ele>105</ele>
        <time>2016-12-11T09:52:36.425Z</time>
      </trkpt>
      <trkpt lat="48.03224" lon="2.81081">
        <ele>105</ele>
        <time>2016-12-11T09:52:37.420Z</time>
      </trkpt>
      <trkpt lat="48.03217" lon="2.8108">
        <ele>104</ele>
        <time>2016-12-11T09:52:38.421Z</time>
      </trkpt>
      <trkpt lat="48.03214" lon="2.81079">
        <ele>103</ele>
        <time>2016-12-11T09:52:39.423Z</time>
      </trkpt>
      <trkpt lat="48.03214" lon="2.81079">
        <ele>103</ele>
        <time>2016-12-11T09:52:40.420Z</time>
      </trkpt>
      <trkpt lat="48.03208" lon="2.81077">
        <ele>102</ele>
        <time>2016-12-11T09:52:41.419Z</time>
      </trkpt>
      <trkpt lat="48.03204" lon="2.81076">
        <ele>101</ele>
        <time>2016-12-11T09:52:42.425Z</time>
      </trkpt>
      <trkpt lat="48.03204" lon="2.81076">
        <ele>101</ele>
        <time>2016-12-11T09:52:43.418Z</time>
      </trkpt>
      <trkpt lat="48.03198" lon="2.81074">
        <ele>100</ele>
        <time>2016-12-11T09:52:44.425Z</time>
      </trkpt>
      <trkpt lat="48.03195" lon="2.81073">
        <ele>99</ele>
        <time>2016-12-11T09:52:45.420Z</time>
      </trkpt>
      <trkpt lat="48.03195" lon="2.81073">
        <ele>99</ele>
        <time>2016-12-11T09:52:46.419Z</time>
      </trkpt>
      <trkpt lat="48.03188" lon="2.8107">
        <ele>97</ele>
        <time>2016-12-11T09:52:47.398Z</time>
      </trkpt>
      <trkpt lat="48.03184" lon="2.81069">
        <ele>97</ele>
        <time>2016-12-11T09:52:48.427Z</time>
      </trkpt>
      <trkpt lat="48.03184" lon="2.81069">
        <ele>97</ele>
        <time>2016-12-11T09:52:49.421Z</time>
      </trkpt>
      <trkpt lat="48.03177" lon="2.81072">
        <ele>97</ele>
        <time>2016-12-11T09:52:50.424Z</time>
      </trkpt>
      <trkpt lat="48.03177" lon="2.81072">
        <ele>97</ele>
        <time>2016-12-11T09:52:51.420Z</time>
      </trkpt>
      <trkpt lat="48.03172" lon="2.81078">
        <ele>96</ele>
        <time>2016-12-11T09:52:52.422Z</time>
      </trkpt>
      <trkpt lat="48.03172" lon="2.81078">
        <ele>96</ele>
        <time>2016-12-11T09:52:53.418Z</time>
      </trkpt>
      <trkpt lat="48.0317" lon="2.81085">
        <ele>97</ele>
        <time>2016-12-11T09:52:54.424Z</time>
      </trkpt>
      <trkpt lat="48.0317" lon="2.81085">
        <ele>97</ele>
        <time>2016-12-11T09:52:55.425Z</time>
      </trkpt>
      <trkpt lat="48.03169" lon="2.81091">
        <ele>97</ele>
        <time>2016-12-11T09:52:56.423Z</time>
      </trkpt>
      <trkpt lat="48.03169" lon="2.81091">
        <ele>97</ele>
        <time>2016-12-11T09:52:57.417Z</time>
      </trkpt>
      <trkpt lat="48.03166" lon="2.81099">
        <ele>97</ele>
        <time>2016-12-11T09:52:58.422Z</time>
      </trkpt>
      <trkpt lat="48.03166" lon="2.81099">
        <ele>97</ele>
        <time>2016-12-11T09:52:59.418Z</time>
      </trkpt>
      <trkpt lat="48.03163" lon="2.81107">
        <ele>97</ele>
        <time>2016-12-11T09:53:00.425Z</time>
      </trkpt>
      <trkpt lat="48.03163" lon="2.81107">
        <ele>97</ele>
        <time>2016-12-11T09:53:01.419Z</time>
      </trkpt>
      <trkpt lat="48.0316" lon="2.81114">
        <ele>96</ele>
        <time>2016-12-11T09:53:02.423Z</time>
      </trkpt>
      <trkpt lat="48.0316" lon="2.81114">
        <ele>96</ele>
        <time>2016-12-11T09:53:03.418Z</time>
      </trkpt>
      <trkpt lat="48.03158" lon="2.81118">
        <ele>96</ele>
        <time>2016-12-11T09:53:04.420Z</time>
      </trkpt>
      <trkpt lat="48.03158" lon="2.81118">
        <ele>96</ele>
        <time>2016-12-11T09:53:05.420Z</time>
      </trkpt>
      <trkpt lat="48.03155" lon="2.81126">
        <ele>96</ele>
        <time>2016-12-11T09:53:06.424Z</time>
      </trkpt>
      <trkpt lat="48.03155" lon="2.81126">
        <ele>96</ele>
        <time>2016-12-11T09:53:07.417Z</time>
      </trkpt>
      <trkpt lat="48.03151" lon="2.81136">
        <ele>96</ele>
        <time>2016-12-11T09:53:08.424Z</time>
      </trkpt>
      <trkpt lat="48.03151" lon="2.81136">
        <ele>96</ele>
        <time>2016-12-11T09:53:09.421Z</time>
      </trkpt>
      <trkpt lat="48.03147" lon="2.81146">
        <ele>97</ele>
        <time>2016-12-11T09:53:10.424Z</time>
      </trkpt>
      <trkpt lat="48.03147" lon="2.81146">
        <ele>97</ele>
        <time>2016-12-11T09:53:11.419Z</time>
      </trkpt>
      <trkpt lat="48.03143" lon="2.81151">
        <ele>97</ele>
        <time>2016-12-11T09:53:12.426Z</time>
      </trkpt>
      <trkpt lat="48.03143" lon="2.81151">
        <ele>97</ele>
        <time>2016-12-11T09:53:13.422Z</time>
      </trkpt>
      <trkpt lat="48.03139" lon="2.81157">
        <ele>98</ele>
        <time>2016-12-11T09:53:14.426Z</time>
      </trkpt>
      <trkpt lat="48.03139" lon="2.81157">
        <ele>98</ele>
        <time>2016-12-11T09:53:15.421Z</time>
      </trkpt>
      <trkpt lat="48.03136" lon="2.81165">
        <ele>99</ele>
        <time>2016-12-11T09:53:16.424Z</time>
      </trkpt>
      <trkpt lat="48.03136" lon="2.81165">
        <ele>99</ele>
        <time>2016-12-11T09:53:17.401Z</time>
      </trkpt>
      <trkpt lat="48.03132" lon="2.81173">
        <ele>100</ele>
        <time>2016-12-11T09:53:18.417Z</time>
      </trkpt>
      <trkpt lat="48.03132" lon="2.81173">
        <ele>100</ele>
        <time>2016-12-11T09:53:19.423Z</time>
      </trkpt>
      <trkpt lat="48.03128" lon="2.81181">
        <ele>100</ele>
        <time>2016-12-11T09:53:20.424Z</time>
      </trkpt>
      <trkpt lat="48.03126" lon="2.81185">
        <ele>100</ele>
        <time>2016-12-11T09:53:21.426Z</time>
      </trkpt>
      <trkpt lat="48.03126" lon="2.81185">
        <ele>100</ele>
        <time>2016-12-11T09:53:22.418Z</time>
      </trkpt>
      <trkpt lat="48.03122" lon="2.81194">
        <ele>99</ele>
        <time>2016-12-11T09:53:23.425Z</time>
      </trkpt>
      <trkpt lat="48.03118" lon="2.812">
        <ele>100</ele>
        <time>2016-12-11T09:53:24.423Z</time>
      </trkpt>
      <trkpt lat="48.03118" lon="2.812">
        <ele>100</ele>
        <time>2016-12-11T09:53:25.417Z</time>
      </trkpt>
      <trkpt lat="48.03111" lon="2.81212">
        <ele>99</ele>
        <time>2016-12-11T09:53:26.424Z</time>
      </trkpt>
      <trkpt lat="48.03111" lon="2.81212">
        <ele>99</ele>
        <time>2016-12-11T09:53:27.420Z</time>
      </trkpt>
      <trkpt lat="48.03104" lon="2.81227">
        <ele>99</ele>
        <time>2016-12-11T09:53:28.420Z</time>
      </trkpt>
      <trkpt lat="48.03104" lon="2.81227">
        <ele>99</ele>
        <time>2016-12-11T09:53:29.418Z</time>
      </trkpt>
      <trkpt lat="48.03098" lon="2.81235">
        <ele>99</ele>
        <time>2016-12-11T09:53:30.425Z</time>
      </trkpt>
      <trkpt lat="48.03098" lon="2.81235">
        <ele>99</ele>
        <time>2016-12-11T09:53:31.420Z</time>
      </trkpt>
      <trkpt lat="48.03091" lon="2.81237">
        <ele>98</ele>
        <time>2016-12-11T09:53:32.422Z</time>
      </trkpt>
      <trkpt lat="48.03087" lon="2.8124">
        <ele>98</ele>
        <time>2016-12-11T09:53:33.420Z</time>
      </trkpt>
      <trkpt lat="48.03087" lon="2.8124">
        <ele>98</ele>
        <time>2016-12-11T09:53:34.419Z</time>
      </trkpt>
      <trkpt lat="48.0308" lon="2.81243">
        <ele>98</ele>
        <time>2016-12-11T09:53:35.423Z</time>
      </trkpt>
      <trkpt lat="48.03075" lon="2.81242">
        <ele>98</ele>
        <time>2016-12-11T09:53:36.426Z</time>
      </trkpt>
      <trkpt lat="48.03075" lon="2.81242">
        <ele>98</ele>
        <time>2016-12-11T09:53:37.420Z</time>
      </trkpt>
      <trkpt lat="48.03064" lon="2.81241">
        <ele>97</ele>
        <time>2016-12-11T09:53:38.424Z</time>
      </trkpt>
      <trkpt lat="48.03064" lon="2.81241">
        <ele>97</ele>
        <time>2016-12-11T09:53:39.421Z</time>
      </trkpt>
      <trkpt lat="48.03053" lon="2.81239">
        <ele>96</ele>
        <time>2016-12-11T09:53:40.420Z</time>
      </trkpt>
      <trkpt lat="48.03053" lon="2.81239">
        <ele>96</ele>
        <time>2016-12-11T09:53:41.418Z</time>
      </trkpt>
      <trkpt lat="48.03043" lon="2.81239">
        <ele>94</ele>
        <time>2016-12-11T09:53:42.427Z</time>
      </trkpt>
      <trkpt lat="48.03043" lon="2.81239">
        <ele>94</ele>
        <time>2016-12-11T09:53:43.418Z</time>
      </trkpt>
      <trkpt lat="48.03034" lon="2.81239">
        <ele>94</ele>
        <time>2016-12-11T09:53:44.424Z</time>
      </trkpt>
      <trkpt lat="48.03034" lon="2.81239">
        <ele>94</ele>
        <time>2016-12-11T09:53:45.421Z</time>
      </trkpt>
      <trkpt lat="48.03026" lon="2.81237">
        <ele>94</ele>
        <time>2016-12-11T09:53:46.399Z</time>
      </trkpt>
      <trkpt lat="48.03022" lon="2.81236">
        <ele>93</ele>
        <time>2016-12-11T09:53:47.431Z</time>
      </trkpt>
      <trkpt lat="48.03022" lon="2.81236">
        <ele>93</ele>
        <time>2016-12-11T09:53:48.422Z</time>
      </trkpt>
      <trkpt lat="48.03013" lon="2.81239">
        <ele>94</ele>
        <time>2016-12-11T09:53:49.423Z</time>
      </trkpt>
      <trkpt lat="48.03009" lon="2.81239">
        <ele>94</ele>
        <time>2016-12-11T09:53:50.426Z</time>
      </trkpt>
      <trkpt lat="48.03009" lon="2.81239">
        <ele>94</ele>
        <time>2016-12-11T09:53:51.423Z</time>
      </trkpt>
      <trkpt lat="48.03001" lon="2.81237">
        <ele>93</ele>
        <time>2016-12-11T09:53:52.420Z</time>
      </trkpt>
      <trkpt lat="48.03001" lon="2.81237">
        <ele>93</ele>
        <time>2016-12-11T09:53:53.418Z</time>
      </trkpt>
      <trkpt lat="48.02993" lon="2.81238">
        <ele>94</ele>
        <time>2016-12-11T09:53:54.425Z</time>
      </trkpt>
      <trkpt lat="48.02993" lon="2.81238">
        <ele>94</ele>
        <time>2016-12-11T09:53:55.420Z</time>
      </trkpt>
      <trkpt lat="48.02985" lon="2.81239">
        <ele>95</ele>
        <time>2016-12-11T09:53:56.422Z</time>
      </trkpt>
      <trkpt lat="48.02981" lon="2.81239">
        <ele>97</ele>
        <time>2016-12-11T09:53:57.420Z</time>
      </trkpt>
      <trkpt lat="48.02981" lon="2.81239">
        <ele>97</ele>
        <time>2016-12-11T09:53:58.422Z</time>
      </trkpt>
      <trkpt lat="48.02973" lon="2.81237">
        <ele>96</ele>
        <time>2016-12-11T09:53:59.424Z</time>
      </trkpt>
      <trkpt lat="48.02969" lon="2.81236">
        <ele>96</ele>
        <time>2016-12-11T09:54:00.424Z</time>
      </trkpt>
      <trkpt lat="48.02969" lon="2.81236">
        <ele>96</ele>
        <time>2016-12-11T09:54:01.417Z</time>
      </trkpt>
      <trkpt lat="48.02962" lon="2.81234">
        <ele>96</ele>
        <time>2016-12-11T09:54:02.422Z</time>
      </trkpt>
      <trkpt lat="48.02962" lon="2.81234">
        <ele>96</ele>
        <time>2016-12-11T09:54:03.420Z</time>
      </trkpt>
      <trkpt lat="48.02954" lon="2.81234">
        <ele>96</ele>
        <time>2016-12-11T09:54:04.420Z</time>
      </trkpt>
      <trkpt lat="48.02954" lon="2.81234">
        <ele>96</ele>
        <time>2016-12-11T09:54:05.417Z</time>
      </trkpt>
      <trkpt lat="48.02947" lon="2.8124">
        <ele>97</ele>
        <time>2016-12-11T09:54:06.427Z</time>
      </trkpt>
      <trkpt lat="48.02947" lon="2.8124">
        <ele>97</ele>
        <time>2016-12-11T09:54:07.417Z</time>
      </trkpt>
      <trkpt lat="48.02942" lon="2.81248">
        <ele>97</ele>
        <time>2016-12-11T09:54:08.424Z</time>
      </trkpt>
      <trkpt lat="48.02942" lon="2.81248">
        <ele>97</ele>
        <time>2016-12-11T09:54:09.412Z</time>
      </trkpt>
      <trkpt lat="48.02937" lon="2.81256">
        <ele>96</ele>
        <time>2016-12-11T09:54:10.424Z</time>
      </trkpt>
      <trkpt lat="48.02934" lon="2.81262">
        <ele>96</ele>
        <time>2016-12-11T09:54:11.425Z</time>
      </trkpt>
      <trkpt lat="48.02934" lon="2.81262">
        <ele>96</ele>
        <time>2016-12-11T09:54:12.422Z</time>
      </trkpt>
      <trkpt lat="48.02926" lon="2.81273">
        <ele>97</ele>
        <time>2016-12-11T09:54:13.423Z</time>
      </trkpt>
      <trkpt lat="48.02923" lon="2.81279">
        <ele>97</ele>
        <time>2016-12-11T09:54:14.424Z</time>
      </trkpt>
      <trkpt lat="48.02923" lon="2.81279">
        <ele>97</ele>
        <time>2016-12-11T09:54:15.417Z</time>
      </trkpt>
      <trkpt lat="48.02918" lon="2.8129">
        <ele>98</ele>
        <time>2016-12-11T09:54:16.420Z</time>
      </trkpt>
      <trkpt lat="48.02918" lon="2.8129">
        <ele>98</ele>
        <time>2016-12-11T09:54:17.422Z</time>
      </trkpt>
      <trkpt lat="48.02911" lon="2.81302">
        <ele>99</ele>
        <time>2016-12-11T09:54:18.430Z</time>
      </trkpt>
      <trkpt lat="48.02911" lon="2.81302">
        <ele>99</ele>
        <time>2016-12-11T09:54:19.397Z</time>
      </trkpt>
      <trkpt lat="48.02905" lon="2.81312">
        <ele>100</ele>
        <time>2016-12-11T09:54:20.422Z</time>
      </trkpt>
      <trkpt lat="48.02903" lon="2.81317">
        <ele>100</ele>
        <time>2016-12-11T09:54:21.420Z</time>
      </trkpt>
      <trkpt lat="48.02903" lon="2.81317">
        <ele>100</ele>
        <time>2016-12-11T09:54:22.421Z</time>
      </trkpt>
      <trkpt lat="48.02899" lon="2.81328">
        <ele>100</ele>
        <time>2016-12-11T09:54:23.421Z</time>
      </trkpt>
      <trkpt lat="48.02899" lon="2.81328">
        <ele>100</ele>
        <time>2016-12-11T09:54:24.432Z</time>
      </trkpt>
      <trkpt lat="48.02895" lon="2.81337">
        <ele>101</ele>
        <time>2016-12-11T09:54:25.425Z</time>
      </trkpt>
      <trkpt lat="48.02894" lon="2.81342">
        <ele>101</ele>
        <time>2016-12-11T09:54:26.423Z</time>
      </trkpt>
      <trkpt lat="48.02894" lon="2.81342">
        <ele>101</ele>
        <time>2016-12-11T09:54:27.418Z</time>
      </trkpt>
      <trkpt lat="48.0289" lon="2.81353">
        <ele>101</ele>
        <time>2016-12-11T09:54:28.424Z</time>
      </trkpt>
      <trkpt lat="48.0289" lon="2.81353">
        <ele>101</ele>
        <time>2016-12-11T09:54:29.418Z</time>
      </trkpt>
      <trkpt lat="48.02887" lon="2.81366">
        <ele>101</ele>
        <time>2016-12-11T09:54:30.425Z</time>
      </trkpt>
      <trkpt lat="48.02887" lon="2.81366">
        <ele>101</ele>
        <time>2016-12-11T09:54:31.418Z</time>
      </trkpt>
      <trkpt lat="48.02883" lon="2.81373">
        <ele>102</ele>
        <time>2016-12-11T09:54:32.422Z</time>
      </trkpt>
      <trkpt lat="48.02879" lon="2.81374">
        <ele>101</ele>
        <time>2016-12-11T09:54:33.421Z</time>
      </trkpt>
      <trkpt lat="48.02879" lon="2.81374">
        <ele>101</ele>
        <time>2016-12-11T09:54:34.418Z</time>
      </trkpt>
      <trkpt lat="48.02873" lon="2.81371">
        <ele>101</ele>
        <time>2016-12-11T09:54:35.420Z</time>
      </trkpt>
      <trkpt lat="48.02869" lon="2.81371">
        <ele>101</ele>
        <time>2016-12-11T09:54:36.425Z</time>
      </trkpt>
      <trkpt lat="48.02869" lon="2.81371">
        <ele>101</ele>
        <time>2016-12-11T09:54:37.421Z</time>
      </trkpt>
      <trkpt lat="48.0286" lon="2.81377">
        <ele>102</ele>
        <time>2016-12-11T09:54:38.425Z</time>
      </trkpt>
      <trkpt lat="48.0286" lon="2.81377">
        <ele>102</ele>
        <time>2016-12-11T09:54:39.419Z</time>
      </trkpt>
      <trkpt lat="48.02854" lon="2.81384">
        <ele>101</ele>
        <time>2016-12-11T09:54:40.425Z</time>
      </trkpt>
      <trkpt lat="48.02854" lon="2.81384">
        <ele>101</ele>
        <time>2016-12-11T09:54:41.418Z</time>
      </trkpt>
      <trkpt lat="48.0285" lon="2.81393">
        <ele>101</ele>
        <time>2016-12-11T09:54:42.426Z</time>
      </trkpt>
      <trkpt lat="48.0285" lon="2.81393">
        <ele>101</ele>
        <time>2016-12-11T09:54:43.419Z</time>
      </trkpt>
      <trkpt lat="48.02845" lon="2.814">
        <ele>101</ele>
        <time>2016-12-11T09:54:44.424Z</time>
      </trkpt>
      <trkpt lat="48.02845" lon="2.814">
        <ele>101</ele>
        <time>2016-12-11T09:54:45.420Z</time>
      </trkpt>
      <trkpt lat="48.02841" lon="2.81408">
        <ele>101</ele>
        <time>2016-12-11T09:54:46.422Z</time>
      </trkpt>
      <trkpt lat="48.02841" lon="2.81408">
        <ele>101</ele>
        <time>2016-12-11T09:54:47.418Z</time>
      </trkpt>
      <trkpt lat="48.02836" lon="2.81414">
        <ele>101</ele>
        <time>2016-12-11T09:54:48.423Z</time>
      </trkpt>
      <trkpt lat="48.02836" lon="2.81414">
        <ele>101</ele>
        <time>2016-12-11T09:54:49.432Z</time>
      </trkpt>
      <trkpt lat="48.02832" lon="2.8142">
        <ele>101</ele>
        <time>2016-12-11T09:54:50.423Z</time>
      </trkpt>
      <trkpt lat="48.02832" lon="2.8142">
        <ele>101</ele>
        <time>2016-12-11T09:54:51.417Z</time>
      </trkpt>
      <trkpt lat="48.02827" lon="2.81427">
        <ele>101</ele>
        <time>2016-12-11T09:54:52.429Z</time>
      </trkpt>
      <trkpt lat="48.02827" lon="2.81427">
        <ele>101</ele>
        <time>2016-12-11T09:54:53.419Z</time>
      </trkpt>
      <trkpt lat="48.02824" lon="2.81433">
        <ele>101</ele>
        <time>2016-12-11T09:54:54.426Z</time>
      </trkpt>
      <trkpt lat="48.02824" lon="2.81433">
        <ele>101</ele>
        <time>2016-12-11T09:54:55.418Z</time>
      </trkpt>
      <trkpt lat="48.0282" lon="2.81439">
        <ele>101</ele>
        <time>2016-12-11T09:54:56.424Z</time>
      </trkpt>
      <trkpt lat="48.02818" lon="2.81442">
        <ele>101</ele>
        <time>2016-12-11T09:54:57.424Z</time>
      </trkpt>
      <trkpt lat="48.02818" lon="2.81442">
        <ele>101</ele>
        <time>2016-12-11T09:54:58.425Z</time>
      </trkpt>
      <trkpt lat="48.02815" lon="2.81449">
        <ele>101</ele>
        <time>2016-12-11T09:54:59.424Z</time>
      </trkpt>
      <trkpt lat="48.02814" lon="2.81452">
        <ele>101</ele>
        <time>2016-12-11T09:55:00.426Z</time>
      </trkpt>
      <trkpt lat="48.02814" lon="2.81452">
        <ele>101</ele>
        <time>2016-12-11T09:55:01.417Z</time>
      </trkpt>
      <trkpt lat="48.02812" lon="2.81458">
        <ele>101</ele>
        <time>2016-12-11T09:55:02.424Z</time>
      </trkpt>
      <trkpt lat="48.02812" lon="2.81458">
        <ele>101</ele>
        <time>2016-12-11T09:55:03.419Z</time>
      </trkpt>
      <trkpt lat="48.02809" lon="2.81464">
        <ele>102</ele>
        <time>2016-12-11T09:55:04.425Z</time>
      </trkpt>
      <trkpt lat="48.02809" lon="2.81464">
        <ele>102</ele>
        <time>2016-12-11T09:55:05.419Z</time>
      </trkpt>
      <trkpt lat="48.02806" lon="2.81468">
        <ele>102</ele>
        <time>2016-12-11T09:55:06.425Z</time>
      </trkpt>
      <trkpt lat="48.02805" lon="2.81471">
        <ele>101</ele>
        <time>2016-12-11T09:55:07.426Z</time>
      </trkpt>
      <trkpt lat="48.02805" lon="2.81471">
        <ele>101</ele>
        <time>2016-12-11T09:55:08.420Z</time>
      </trkpt>
      <trkpt lat="48.02801" lon="2.81476">
        <ele>101</ele>
        <time>2016-12-11T09:55:09.425Z</time>
      </trkpt>
      <trkpt lat="48.02801" lon="2.81476">
        <ele>101</ele>
        <time>2016-12-11T09:55:10.421Z</time>
      </trkpt>
      <trkpt lat="48.02798" lon="2.81481">
        <ele>102</ele>
        <time>2016-12-11T09:55:11.424Z</time>
      </trkpt>
      <trkpt lat="48.02796" lon="2.81483">
        <ele>102</ele>
        <time>2016-12-11T09:55:12.426Z</time>
      </trkpt>
      <trkpt lat="48.02796" lon="2.81483">
        <ele>102</ele>
        <time>2016-12-11T09:55:13.419Z</time>
      </trkpt>
      <trkpt lat="48.02793" lon="2.81488">
        <ele>103</ele>
        <time>2016-12-11T09:55:14.423Z</time>
      </trkpt>
      <trkpt lat="48.02792" lon="2.8149">
        <ele>103</ele>
        <time>2016-12-11T09:55:15.424Z</time>
      </trkpt>
      <trkpt lat="48.0279" lon="2.81493">
        <ele>103</ele>
        <time>2016-12-11T09:55:16.424Z</time>
      </trkpt>
      <trkpt lat="48.0279" lon="2.81493">
        <ele>103</ele>
        <time>2016-12-11T09:55:17.432Z</time>
      </trkpt>
      <trkpt lat="48.02788" lon="2.81498">
        <ele>103</ele>
        <time>2016-12-11T09:55:18.412Z</time>
      </trkpt>
      <trkpt lat="48.02788" lon="2.81498">
        <ele>103</ele>
        <time>2016-12-11T09:55:19.419Z</time>
      </trkpt>
      <trkpt lat="48.02785" lon="2.81503">
        <ele>103</ele>
        <time>2016-12-11T09:55:20.425Z</time>
      </trkpt>
      <trkpt lat="48.02783" lon="2.81506">
        <ele>103</ele>
        <time>2016-12-11T09:55:21.423Z</time>
      </trkpt>
      <trkpt lat="48.02783" lon="2.81506">
        <ele>103</ele>
        <time>2016-12-11T09:55:22.418Z</time>
      </trkpt>
      <trkpt lat="48.0278" lon="2.81511">
        <ele>103</ele>
        <time>2016-12-11T09:55:23.425Z</time>
      </trkpt>
      <trkpt lat="48.02779" lon="2.81513">
        <ele>103</ele>
        <time>2016-12-11T09:55:24.429Z</time>
      </trkpt>
      <trkpt lat="48.02779" lon="2.81513">
        <ele>103</ele>
        <time>2016-12-11T09:55:25.430Z</time>
      </trkpt>
      <trkpt lat="48.02776" lon="2.81517">
        <ele>103</ele>
        <time>2016-12-11T09:55:26.424Z</time>
      </trkpt>
      <trkpt lat="48.02776" lon="2.81517">
        <ele>103</ele>
        <time>2016-12-11T09:55:27.419Z</time>
      </trkpt>
      <trkpt lat="48.02774" lon="2.81522">
        <ele>104</ele>
        <time>2016-12-11T09:55:28.424Z</time>
      </trkpt>
      <trkpt lat="48.02774" lon="2.81522">
        <ele>104</ele>
        <time>2016-12-11T09:55:29.422Z</time>
      </trkpt>
      <trkpt lat="48.02772" lon="2.81526">
        <ele>104</ele>
        <time>2016-12-11T09:55:30.424Z</time>
      </trkpt>
      <trkpt lat="48.02772" lon="2.81526">
        <ele>104</ele>
        <time>2016-12-11T09:55:31.418Z</time>
      </trkpt>
      <trkpt lat="48.02771" lon="2.81531">
        <ele>105</ele>
        <time>2016-12-11T09:55:32.424Z</time>
      </trkpt>
      <trkpt lat="48.02771" lon="2.81534">
        <ele>105</ele>
        <time>2016-12-11T09:55:33.426Z</time>
      </trkpt>
      <trkpt lat="48.02771" lon="2.81534">
        <ele>105</ele>
        <time>2016-12-11T09:55:34.423Z</time>
      </trkpt>
      <trkpt lat="48.02773" lon="2.8154">
        <ele>105</ele>
        <time>2016-12-11T09:55:35.424Z</time>
      </trkpt>
      <trkpt lat="48.02773" lon="2.81542">
        <ele>106</ele>
        <time>2016-12-11T09:55:36.423Z</time>
      </trkpt>
      <trkpt lat="48.02773" lon="2.81542">
        <ele>106</ele>
        <time>2016-12-11T09:55:37.419Z</time>
      </trkpt>
      <trkpt lat="48.02773" lon="2.81546">
        <ele>107</ele>
        <time>2016-12-11T09:55:38.425Z</time>
      </trkpt>
      <trkpt lat="48.02773" lon="2.81546">
        <ele>107</ele>
        <time>2016-12-11T09:55:39.419Z</time>
      </trkpt>
      <trkpt lat="48.02773" lon="2.8155">
        <ele>107</ele>
        <time>2016-12-11T09:55:40.421Z</time>
      </trkpt>
      <trkpt lat="48.02772" lon="2.81553">
        <ele>108</ele>
        <time>2016-12-11T09:55:41.426Z</time>
      </trkpt>
      <trkpt lat="48.02772" lon="2.81553">
        <ele>108</ele>
        <time>2016-12-11T09:55:42.421Z</time>
      </trkpt>
      <trkpt lat="48.02773" lon="2.81557">
        <ele>108</ele>
        <time>2016-12-11T09:55:43.424Z</time>
      </trkpt>
      <trkpt lat="48.02772" lon="2.81558">
        <ele>109</ele>
        <time>2016-12-11T09:55:44.424Z</time>
      </trkpt>
      <trkpt lat="48.02772" lon="2.81558">
        <ele>109</ele>
        <time>2016-12-11T09:55:45.419Z</time>
      </trkpt>
      <trkpt lat="48.0277" lon="2.81562">
        <ele>110</ele>
        <time>2016-12-11T09:55:46.420Z</time>
      </trkpt>
      <trkpt lat="48.0277" lon="2.81562">
        <ele>110</ele>
        <time>2016-12-11T09:55:47.418Z</time>
      </trkpt>
      <trkpt lat="48.02768" lon="2.81566">
        <ele>110</ele>
        <time>2016-12-11T09:55:48.424Z</time>
      </trkpt>
      <trkpt lat="48.02768" lon="2.81566">
        <ele>110</ele>
        <time>2016-12-11T09:55:49.419Z</time>
      </trkpt>
      <trkpt lat="48.02766" lon="2.8157">
        <ele>110</ele>
        <time>2016-12-11T09:55:50.424Z</time>
      </trkpt>
      <trkpt lat="48.02766" lon="2.8157">
        <ele>110</ele>
        <time>2016-12-11T09:55:51.418Z</time>
      </trkpt>
      <trkpt lat="48.02764" lon="2.81574">
        <ele>110</ele>
        <time>2016-12-11T09:55:52.421Z</time>
      </trkpt>
      <trkpt lat="48.02764" lon="2.81574">
        <ele>110</ele>
        <time>2016-12-11T09:55:53.419Z</time>
      </trkpt>
      <trkpt lat="48.02762" lon="2.81578">
        <ele>109</ele>
        <time>2016-12-11T09:55:54.424Z</time>
      </trkpt>
      <trkpt lat="48.02762" lon="2.81578">
        <ele>109</ele>
        <time>2016-12-11T09:55:55.418Z</time>
      </trkpt>
      <trkpt lat="48.0276" lon="2.81583">
        <ele>109</ele>
        <time>2016-12-11T09:55:56.424Z</time>
      </trkpt>
      <trkpt lat="48.0276" lon="2.81583">
        <ele>109</ele>
        <time>2016-12-11T09:55:57.418Z</time>
      </trkpt>
      <trkpt lat="48.0276" lon="2.81588">
        <ele>109</ele>
        <time>2016-12-11T09:55:58.427Z</time>
      </trkpt>
      <trkpt lat="48.0276" lon="2.81588">
        <ele>109</ele>
        <time>2016-12-11T09:55:59.418Z</time>
      </trkpt>
      <trkpt lat="48.02761" lon="2.81594">
        <ele>110</ele>
        <time>2016-12-11T09:56:00.427Z</time>
      </trkpt>
      <trkpt lat="48.02761" lon="2.81594">
        <ele>110</ele>
        <time>2016-12-11T09:56:01.419Z</time>
      </trkpt>
      <trkpt lat="48.02762" lon="2.816">
        <ele>111</ele>
        <time>2016-12-11T09:56:02.425Z</time>
      </trkpt>
      <trkpt lat="48.02762" lon="2.816">
        <ele>111</ele>
        <time>2016-12-11T09:56:03.419Z</time>
      </trkpt>
      <trkpt lat="48.02762" lon="2.81607">
        <ele>112</ele>
        <time>2016-12-11T09:56:04.432Z</time>
      </trkpt>
      <trkpt lat="48.02762" lon="2.8161">
        <ele>112</ele>
        <time>2016-12-11T09:56:05.426Z</time>
      </trkpt>
      <trkpt lat="48.02761" lon="2.81613">
        <ele>113</ele>
        <time>2016-12-11T09:56:06.427Z</time>
      </trkpt>
      <trkpt lat="48.02761" lon="2.81613">
        <ele>113</ele>
        <time>2016-12-11T09:56:07.420Z</time>
      </trkpt>
      <trkpt lat="48.0276" lon="2.81617">
        <ele>113</ele>
        <time>2016-12-11T09:56:08.422Z</time>
      </trkpt>
      <trkpt lat="48.02761" lon="2.81617">
        <ele>113</ele>
        <time>2016-12-11T09:56:09.426Z</time>
      </trkpt>
      <trkpt lat="48.02761" lon="2.81617">
        <ele>113</ele>
        <time>2016-12-11T09:56:10.415Z</time>
      </trkpt>
      <trkpt lat="48.02761" lon="2.81618">
        <ele>113</ele>
        <time>2016-12-11T09:56:11.421Z</time>
      </trkpt>
      <trkpt lat="48.02768" lon="2.81621">
        <ele>115</ele>
        <time>2016-12-11T09:56:12.428Z</time>
      </trkpt>
      <trkpt lat="48.02768" lon="2.81621">
        <ele>115</ele>
        <time>2016-12-11T09:56:13.442Z</time>
      </trkpt>
      <trkpt lat="48.02768" lon="2.81621">
        <ele>115</ele>
        <time>2016-12-11T09:56:14.408Z</time>
      </trkpt>
      <trkpt lat="48.02768" lon="2.81621">
        <ele>115</ele>
        <time>2016-12-11T09:56:15.397Z</time>
      </trkpt>
      <trkpt lat="48.02769" lon="2.81618">
        <ele>115</ele>
        <time>2016-12-11T09:56:16.403Z</time>
      </trkpt>
      <trkpt lat="48.02769" lon="2.81616">
        <ele>115</ele>
        <time>2016-12-11T09:56:17.424Z</time>
      </trkpt>
      <trkpt lat="48.0277" lon="2.81611">
        <ele>115</ele>
        <time>2016-12-11T09:56:18.403Z</time>
      </trkpt>
      <trkpt lat="48.0277" lon="2.81611">
        <ele>115</ele>
        <time>2016-12-11T09:56:19.410Z</time>
      </trkpt>
      <trkpt lat="48.02772" lon="2.8161">
        <ele>115</ele>
        <time>2016-12-11T09:56:20.417Z</time>
      </trkpt>
      <trkpt lat="48.02772" lon="2.8161">
        <ele>115</ele>
        <time>2016-12-11T09:56:21.400Z</time>
      </trkpt>
      <trkpt lat="48.02772" lon="2.8161">
        <ele>115</ele>
        <time>2016-12-11T09:56:22.408Z</time>
      </trkpt>
      <trkpt lat="48.02774" lon="2.81613">
        <ele>115</ele>
        <time>2016-12-11T09:56:23.409Z</time>
      </trkpt>
      <trkpt lat="48.02775" lon="2.81614">
        <ele>115</ele>
        <time>2016-12-11T09:56:24.397Z</time>
      </trkpt>
      <trkpt lat="48.02776" lon="2.81615">
        <ele>115</ele>
        <time>2016-12-11T09:56:25.432Z</time>
      </trkpt>
      <trkpt lat="48.02776" lon="2.81615">
        <ele>115</ele>
        <time>2016-12-11T09:56:26.398Z</time>
      </trkpt>
      <trkpt lat="48.0278" lon="2.81616">
        <ele>115</ele>
        <time>2016-12-11T09:56:27.399Z</time>
      </trkpt>
      <trkpt lat="48.02781" lon="2.81617">
        <ele>115</ele>
        <time>2016-12-11T09:56:28.433Z</time>
      </trkpt>
      <trkpt lat="48.02781" lon="2.81617">
        <ele>115</ele>
        <time>2016-12-11T09:56:29.396Z</time>
      </trkpt>
      <trkpt lat="48.02783" lon="2.8162">
        <ele>115</ele>
        <time>2016-12-11T09:56:30.396Z</time>
      </trkpt>
      <trkpt lat="48.02783" lon="2.81621">
        <ele>115</ele>
        <time>2016-12-11T09:56:31.432Z</time>
      </trkpt>
      <trkpt lat="48.02783" lon="2.81621">
        <ele>115</ele>
        <time>2016-12-11T09:56:32.397Z</time>
      </trkpt>
      <trkpt lat="48.02783" lon="2.81624">
        <ele>115</ele>
        <time>2016-12-11T09:56:33.431Z</time>
      </trkpt>
      <trkpt lat="48.02783" lon="2.81624">
        <ele>115</ele>
        <time>2016-12-11T09:56:34.398Z</time>
      </trkpt>
      <trkpt lat="48.02784" lon="2.81626">
        <ele>115</ele>
        <time>2016-12-11T09:56:35.432Z</time>
      </trkpt>
      <trkpt lat="48.02784" lon="2.81626">
        <ele>115</ele>
        <time>2016-12-11T09:56:36.396Z</time>
      </trkpt>
      <trkpt lat="48.02786" lon="2.81629">
        <ele>115</ele>
        <time>2016-12-11T09:56:37.415Z</time>
      </trkpt>
      <trkpt lat="48.02789" lon="2.81628">
        <ele>116</ele>
        <time>2016-12-11T09:56:38.404Z</time>
      </trkpt>
      <trkpt lat="48.02789" lon="2.81628">
        <ele>116</ele>
        <time>2016-12-11T09:56:39.431Z</time>
      </trkpt>
      <trkpt lat="48.02789" lon="2.81628">
        <ele>116</ele>
        <time>2016-12-11T09:56:40.399Z</time>
      </trkpt>
      <trkpt lat="48.02791" lon="2.81632">
        <ele>116</ele>
        <time>2016-12-11T09:56:41.432Z</time>
      </trkpt>
      <trkpt lat="48.02791" lon="2.81632">
        <ele>116</ele>
        <time>2016-12-11T09:56:42.396Z</time>
      </trkpt>
      <trkpt lat="48.02791" lon="2.81637">
        <ele>116</ele>
        <time>2016-12-11T09:56:43.431Z</time>
      </trkpt>
      <trkpt lat="48.02791" lon="2.81637">
        <ele>116</ele>
        <time>2016-12-11T09:56:44.396Z</time>
      </trkpt>
      <trkpt lat="48.02794" lon="2.81639">
        <ele>116</ele>
        <time>2016-12-11T09:56:45.431Z</time>
      </trkpt>
      <trkpt lat="48.02794" lon="2.81639">
        <ele>116</ele>
        <time>2016-12-11T09:56:46.398Z</time>
      </trkpt>
      <trkpt lat="48.02799" lon="2.81638">
        <ele>116</ele>
        <time>2016-12-11T09:56:47.431Z</time>
      </trkpt>
      <trkpt lat="48.02799" lon="2.81638">
        <ele>116</ele>
        <time>2016-12-11T09:56:48.396Z</time>
      </trkpt>
      <trkpt lat="48.02802" lon="2.81634">
        <ele>117</ele>
        <time>2016-12-11T09:56:49.399Z</time>
      </trkpt>
      <trkpt lat="48.02803" lon="2.81632">
        <ele>117</ele>
        <time>2016-12-11T09:56:50.404Z</time>
      </trkpt>
      <trkpt lat="48.02803" lon="2.81632">
        <ele>117</ele>
        <time>2016-12-11T09:56:51.399Z</time>
      </trkpt>
      <trkpt lat="48.02804" lon="2.81627">
        <ele>118</ele>
        <time>2016-12-11T09:56:52.413Z</time>
      </trkpt>
      <trkpt lat="48.02804" lon="2.81627">
        <ele>118</ele>
        <time>2016-12-11T09:56:53.396Z</time>
      </trkpt>
      <trkpt lat="48.02804" lon="2.81627">
        <ele>118</ele>
        <time>2016-12-11T09:56:54.397Z</time>
      </trkpt>
      <trkpt lat="48.02806" lon="2.81626">
        <ele>118</ele>
        <time>2016-12-11T09:56:55.403Z</time>
      </trkpt>
      <trkpt lat="48.02807" lon="2.81626">
        <ele>118</ele>
        <time>2016-12-11T09:56:56.398Z</time>
      </trkpt>
      <trkpt lat="48.02808" lon="2.81625">
        <ele>119</ele>
        <time>2016-12-11T09:56:57.432Z</time>
      </trkpt>
      <trkpt lat="48.02808" lon="2.81625">
        <ele>119</ele>
        <time>2016-12-11T09:56:58.397Z</time>
      </trkpt>
      <trkpt lat="48.02808" lon="2.81622">
        <ele>119</ele>
        <time>2016-12-11T09:56:59.432Z</time>
      </trkpt>
      <trkpt lat="48.02808" lon="2.81622">
        <ele>119</ele>
        <time>2016-12-11T09:57:00.398Z</time>
      </trkpt>
      <trkpt lat="48.02811" lon="2.81618">
        <ele>120</ele>
        <time>2016-12-11T09:57:01.431Z</time>
      </trkpt>
      <trkpt lat="48.02811" lon="2.81618">
        <ele>120</ele>
        <time>2016-12-11T09:57:02.397Z</time>
      </trkpt>
      <trkpt lat="48.02815" lon="2.81617">
        <ele>119</ele>
        <time>2016-12-11T09:57:03.432Z</time>
      </trkpt>
      <trkpt lat="48.02815" lon="2.81617">
        <ele>119</ele>
        <time>2016-12-11T09:57:04.399Z</time>
      </trkpt>
      <trkpt lat="48.02818" lon="2.81615">
        <ele>119</ele>
        <time>2016-12-11T09:57:05.432Z</time>
      </trkpt>
      <trkpt lat="48.02818" lon="2.81615">
        <ele>119</ele>
        <time>2016-12-11T09:57:06.398Z</time>
      </trkpt>
      <trkpt lat="48.02821" lon="2.8161">
        <ele>119</ele>
        <time>2016-12-11T09:57:07.397Z</time>
      </trkpt>
      <trkpt lat="48.02821" lon="2.81606">
        <ele>119</ele>
        <time>2016-12-11T09:57:08.431Z</time>
      </trkpt>
      <trkpt lat="48.02821" lon="2.81606">
        <ele>119</ele>
        <time>2016-12-11T09:57:09.398Z</time>
      </trkpt>
      <trkpt lat="48.02818" lon="2.81604">
        <ele>119</ele>
        <time>2016-12-11T09:57:10.413Z</time>
      </trkpt>
      <trkpt lat="48.02818" lon="2.81604">
        <ele>119</ele>
        <time>2016-12-11T09:57:11.412Z</time>
      </trkpt>
      <trkpt lat="48.02818" lon="2.81604">
        <ele>119</ele>
        <time>2016-12-11T09:57:12.403Z</time>
      </trkpt>
      <trkpt lat="48.02816" lon="2.81605">
        <ele>119</ele>
        <time>2016-12-11T09:57:13.432Z</time>
      </trkpt>
      <trkpt lat="48.02816" lon="2.81605">
        <ele>119</ele>
        <time>2016-12-11T09:57:14.397Z</time>
      </trkpt>
      <trkpt lat="48.02813" lon="2.81606">
        <ele>118</ele>
        <time>2016-12-11T09:57:15.431Z</time>
      </trkpt>
      <trkpt lat="48.02813" lon="2.81606">
        <ele>118</ele>
        <time>2016-12-11T09:57:16.398Z</time>
      </trkpt>
      <trkpt lat="48.0281" lon="2.81605">
        <ele>118</ele>
        <time>2016-12-11T09:57:17.434Z</time>
      </trkpt>
      <trkpt lat="48.02808" lon="2.81606">
        <ele>117</ele>
        <time>2016-12-11T09:57:18.399Z</time>
      </trkpt>
      <trkpt lat="48.02807" lon="2.81607">
        <ele>117</ele>
        <time>2016-12-11T09:57:19.405Z</time>
      </trkpt>
      <trkpt lat="48.02807" lon="2.81607">
        <ele>117</ele>
        <time>2016-12-11T09:57:20.410Z</time>
      </trkpt>
      <trkpt lat="48.02807" lon="2.81607">
        <ele>117</ele>
        <time>2016-12-11T09:57:21.398Z</time>
      </trkpt>
      <trkpt lat="48.02805" lon="2.81612">
        <ele>117</ele>
        <time>2016-12-11T09:57:22.416Z</time>
      </trkpt>
      <trkpt lat="48.02805" lon="2.81612">
        <ele>117</ele>
        <time>2016-12-11T09:57:23.404Z</time>
      </trkpt>
      <trkpt lat="48.02805" lon="2.81612">
        <ele>117</ele>
        <time>2016-12-11T09:57:24.399Z</time>
      </trkpt>
      <trkpt lat="48.02803" lon="2.81615">
        <ele>118</ele>
        <time>2016-12-11T09:57:25.432Z</time>
      </trkpt>
      <trkpt lat="48.02803" lon="2.81615">
        <ele>118</ele>
        <time>2016-12-11T09:57:26.397Z</time>
      </trkpt>
      <trkpt lat="48.02802" lon="2.81616">
        <ele>117</ele>
        <time>2016-12-11T09:57:27.397Z</time>
      </trkpt>
      <trkpt lat="48.02801" lon="2.81616">
        <ele>117</ele>
        <time>2016-12-11T09:57:28.397Z</time>
      </trkpt>
      <trkpt lat="48.02797" lon="2.81619">
        <ele>117</ele>
        <time>2016-12-11T09:57:29.432Z</time>
      </trkpt>
      <trkpt lat="48.02797" lon="2.81619">
        <ele>117</ele>
        <time>2016-12-11T09:57:30.398Z</time>
      </trkpt>
      <trkpt lat="48.02793" lon="2.81622">
        <ele>117</ele>
        <time>2016-12-11T09:57:31.398Z</time>
      </trkpt>
      <trkpt lat="48.02792" lon="2.81621">
        <ele>117</ele>
        <time>2016-12-11T09:57:32.431Z</time>
      </trkpt>
      <trkpt lat="48.02792" lon="2.81621">
        <ele>117</ele>
        <time>2016-12-11T09:57:33.397Z</time>
      </trkpt>
      <trkpt lat="48.0279" lon="2.81619">
        <ele>117</ele>
        <time>2016-12-11T09:57:34.433Z</time>
      </trkpt>
      <trkpt lat="48.0279" lon="2.81619">
        <ele>117</ele>
        <time>2016-12-11T09:57:35.397Z</time>
      </trkpt>
      <trkpt lat="48.02787" lon="2.81619">
        <ele>116</ele>
        <time>2016-12-11T09:57:36.432Z</time>
      </trkpt>
      <trkpt lat="48.02787" lon="2.81619">
        <ele>116</ele>
        <time>2016-12-11T09:57:37.396Z</time>
      </trkpt>
      <trkpt lat="48.02786" lon="2.81616">
        <ele>116</ele>
        <time>2016-12-11T09:57:38.432Z</time>
      </trkpt>
      <trkpt lat="48.02786" lon="2.81614">
        <ele>116</ele>
        <time>2016-12-11T09:57:39.397Z</time>
      </trkpt>
      <trkpt lat="48.02787" lon="2.81613">
        <ele>116</ele>
        <time>2016-12-11T09:57:40.435Z</time>
      </trkpt>
      <trkpt lat="48.02787" lon="2.81613">
        <ele>116</ele>
        <time>2016-12-11T09:57:41.432Z</time>
      </trkpt>
      <trkpt lat="48.02787" lon="2.81613">
        <ele>116</ele>
        <time>2016-12-11T09:57:42.397Z</time>
      </trkpt>
      <trkpt lat="48.02789" lon="2.81611">
        <ele>116</ele>
        <time>2016-12-11T09:57:43.408Z</time>
      </trkpt>
      <trkpt lat="48.02789" lon="2.81611">
        <ele>116</ele>
        <time>2016-12-11T09:57:44.398Z</time>
      </trkpt>
      <trkpt lat="48.02791" lon="2.8161">
        <ele>116</ele>
        <time>2016-12-11T09:57:45.431Z</time>
      </trkpt>
      <trkpt lat="48.02791" lon="2.8161">
        <ele>116</ele>
        <time>2016-12-11T09:57:46.400Z</time>
      </trkpt>
      <trkpt lat="48.02794" lon="2.81608">
        <ele>116</ele>
        <time>2016-12-11T09:57:47.423Z</time>
      </trkpt>
      <trkpt lat="48.02794" lon="2.81608">
        <ele>116</ele>
        <time>2016-12-11T09:57:48.397Z</time>
      </trkpt>
      <trkpt lat="48.02796" lon="2.81607">
        <ele>116</ele>
        <time>2016-12-11T09:57:49.433Z</time>
      </trkpt>
      <trkpt lat="48.02796" lon="2.81607">
        <ele>116</ele>
        <time>2016-12-11T09:57:50.397Z</time>
      </trkpt>
      <trkpt lat="48.02797" lon="2.81601">
        <ele>116</ele>
        <time>2016-12-11T09:57:51.416Z</time>
      </trkpt>
      <trkpt lat="48.02797" lon="2.81601">
        <ele>116</ele>
        <time>2016-12-11T09:57:52.405Z</time>
      </trkpt>
      <trkpt lat="48.02796" lon="2.81592">
        <ele>116</ele>
        <time>2016-12-11T09:57:53.433Z</time>
      </trkpt>
      <trkpt lat="48.02796" lon="2.81592">
        <ele>116</ele>
        <time>2016-12-11T09:57:54.396Z</time>
      </trkpt>
      <trkpt lat="48.02795" lon="2.81588">
        <ele>115</ele>
        <time>2016-12-11T09:57:55.398Z</time>
      </trkpt>
      <trkpt lat="48.02794" lon="2.81586">
        <ele>115</ele>
        <time>2016-12-11T09:57:56.432Z</time>
      </trkpt>
      <trkpt lat="48.02794" lon="2.81586">
        <ele>115</ele>
        <time>2016-12-11T09:57:57.397Z</time>
      </trkpt>
      <trkpt lat="48.02792" lon="2.81581">
        <ele>114</ele>
        <time>2016-12-11T09:57:58.433Z</time>
      </trkpt>
      <trkpt lat="48.02792" lon="2.81581">
        <ele>114</ele>
        <time>2016-12-11T09:57:59.398Z</time>
      </trkpt>
      <trkpt lat="48.0279" lon="2.81575">
        <ele>114</ele>
        <time>2016-12-11T09:58:00.398Z</time>
      </trkpt>
      <trkpt lat="48.02789" lon="2.81573">
        <ele>113</ele>
        <time>2016-12-11T09:58:01.432Z</time>
      </trkpt>
      <trkpt lat="48.02789" lon="2.81573">
        <ele>113</ele>
        <time>2016-12-11T09:58:02.398Z</time>
      </trkpt>
      <trkpt lat="48.02788" lon="2.8157">
        <ele>113</ele>
        <time>2016-12-11T09:58:03.432Z</time>
      </trkpt>
      <trkpt lat="48.02788" lon="2.8157">
        <ele>113</ele>
        <time>2016-12-11T09:58:04.399Z</time>
      </trkpt>
      <trkpt lat="48.02788" lon="2.81563">
        <ele>113</ele>
        <time>2016-12-11T09:58:05.432Z</time>
      </trkpt>
      <trkpt lat="48.02788" lon="2.81563">
        <ele>113</ele>
        <time>2016-12-11T09:58:06.397Z</time>
      </trkpt>
      <trkpt lat="48.02788" lon="2.81557">
        <ele>112</ele>
        <time>2016-12-11T09:58:07.432Z</time>
      </trkpt>
      <trkpt lat="48.02788" lon="2.81557">
        <ele>112</ele>
        <time>2016-12-11T09:58:08.397Z</time>
      </trkpt>
      <trkpt lat="48.02788" lon="2.81552">
        <ele>112</ele>
        <time>2016-12-11T09:58:09.432Z</time>
      </trkpt>
      <trkpt lat="48.02788" lon="2.81552">
        <ele>112</ele>
        <time>2016-12-11T09:58:10.400Z</time>
      </trkpt>
      <trkpt lat="48.02788" lon="2.81543">
        <ele>112</ele>
        <time>2016-12-11T09:58:11.432Z</time>
      </trkpt>
      <trkpt lat="48.02788" lon="2.81543">
        <ele>112</ele>
        <time>2016-12-11T09:58:12.398Z</time>
      </trkpt>
      <trkpt lat="48.02792" lon="2.81536">
        <ele>111</ele>
        <time>2016-12-11T09:58:13.400Z</time>
      </trkpt>
      <trkpt lat="48.02792" lon="2.81536">
        <ele>111</ele>
        <time>2016-12-11T09:58:14.397Z</time>
      </trkpt>
      <trkpt lat="48.02795" lon="2.81534">
        <ele>111</ele>
        <time>2016-12-11T09:58:15.433Z</time>
      </trkpt>
      <trkpt lat="48.02795" lon="2.81534">
        <ele>111</ele>
        <time>2016-12-11T09:58:16.406Z</time>
      </trkpt>
      <trkpt lat="48.02799" lon="2.81529">
        <ele>110</ele>
        <time>2016-12-11T09:58:17.402Z</time>
      </trkpt>
      <trkpt lat="48.02802" lon="2.81523">
        <ele>109</ele>
        <time>2016-12-11T09:58:18.396Z</time>
      </trkpt>
      <trkpt lat="48.02804" lon="2.81521">
        <ele>109</ele>
        <time>2016-12-11T09:58:19.423Z</time>
      </trkpt>
      <trkpt lat="48.02806" lon="2.8152">
        <ele>108</ele>
        <time>2016-12-11T09:58:20.406Z</time>
      </trkpt>
      <trkpt lat="48.02806" lon="2.8152">
        <ele>108</ele>
        <time>2016-12-11T09:58:21.432Z</time>
      </trkpt>
      <trkpt lat="48.02806" lon="2.8152">
        <ele>108</ele>
        <time>2016-12-11T09:58:22.398Z</time>
      </trkpt>
      <trkpt lat="48.0281" lon="2.81518">
        <ele>108</ele>
        <time>2016-12-11T09:58:23.406Z</time>
      </trkpt>
      <trkpt lat="48.0281" lon="2.81518">
        <ele>108</ele>
        <time>2016-12-11T09:58:24.398Z</time>
      </trkpt>
      <trkpt lat="48.02814" lon="2.81518">
        <ele>108</ele>
        <time>2016-12-11T09:58:25.435Z</time>
      </trkpt>
      <trkpt lat="48.02814" lon="2.81518">
        <ele>108</ele>
        <time>2016-12-11T09:58:26.432Z</time>
      </trkpt>
      <trkpt lat="48.02814" lon="2.81518">
        <ele>108</ele>
        <time>2016-12-11T09:58:27.397Z</time>
      </trkpt>
      <trkpt lat="48.02817" lon="2.81513">
        <ele>107</ele>
        <time>2016-12-11T09:58:28.417Z</time>
      </trkpt>
      <trkpt lat="48.02817" lon="2.81513">
        <ele>107</ele>
        <time>2016-12-11T09:58:29.399Z</time>
      </trkpt>
      <trkpt lat="48.02817" lon="2.81513">
        <ele>107</ele>
        <time>2016-12-11T09:58:30.398Z</time>
      </trkpt>
      <trkpt lat="48.02821" lon="2.81508">
        <ele>106</ele>
        <time>2016-12-11T09:58:31.432Z</time>
      </trkpt>
      <trkpt lat="48.02821" lon="2.81508">
        <ele>106</ele>
        <time>2016-12-11T09:58:32.397Z</time>
      </trkpt>
      <trkpt lat="48.02827" lon="2.81504">
        <ele>105</ele>
        <time>2016-12-11T09:58:33.433Z</time>
      </trkpt>
      <trkpt lat="48.02827" lon="2.81504">
        <ele>105</ele>
        <time>2016-12-11T09:58:34.398Z</time>
      </trkpt>
      <trkpt lat="48.02831" lon="2.81499">
        <ele>105</ele>
        <time>2016-12-11T09:58:35.433Z</time>
      </trkpt>
      <trkpt lat="48.02831" lon="2.81499">
        <ele>105</ele>
        <time>2016-12-11T09:58:36.398Z</time>
      </trkpt>
      <trkpt lat="48.02832" lon="2.81495">
        <ele>105</ele>
        <time>2016-12-11T09:58:37.432Z</time>
      </trkpt>
      <trkpt lat="48.02831" lon="2.81491">
        <ele>104</ele>
        <time>2016-12-11T09:58:38.435Z</time>
      </trkpt>
      <trkpt lat="48.02831" lon="2.81491">
        <ele>104</ele>
        <time>2016-12-11T09:58:39.432Z</time>
      </trkpt>
      <trkpt lat="48.02831" lon="2.81491">
        <ele>104</ele>
        <time>2016-12-11T09:58:40.397Z</time>
      </trkpt>
      <trkpt lat="48.02828" lon="2.81482">
        <ele>103</ele>
        <time>2016-12-11T09:58:41.417Z</time>
      </trkpt>
      <trkpt lat="48.02828" lon="2.81477">
        <ele>103</ele>
        <time>2016-12-11T09:58:42.433Z</time>
      </trkpt>
      <trkpt lat="48.02828" lon="2.81477">
        <ele>103</ele>
        <time>2016-12-11T09:58:43.398Z</time>
      </trkpt>
      <trkpt lat="48.02831" lon="2.81471">
        <ele>102</ele>
        <time>2016-12-11T09:58:44.433Z</time>
      </trkpt>
      <trkpt lat="48.02831" lon="2.81471">
        <ele>102</ele>
        <time>2016-12-11T09:58:45.396Z</time>
      </trkpt>
      <trkpt lat="48.02831" lon="2.81467">
        <ele>102</ele>
        <time>2016-12-11T09:58:46.400Z</time>
      </trkpt>
      <trkpt lat="48.02829" lon="2.81466">
        <ele>102</ele>
        <time>2016-12-11T09:58:47.433Z</time>
      </trkpt>
      <trkpt lat="48.02829" lon="2.81466">
        <ele>102</ele>
        <time>2016-12-11T09:58:48.397Z</time>
      </trkpt>
      <trkpt lat="48.02828" lon="2.81466">
        <ele>102</ele>
        <time>2016-12-11T09:58:49.432Z</time>
      </trkpt>
      <trkpt lat="48.02828" lon="2.81466">
        <ele>102</ele>
        <time>2016-12-11T09:58:50.397Z</time>
      </trkpt>
      <trkpt lat="48.02826" lon="2.81468">
        <ele>102</ele>
        <time>2016-12-11T09:58:51.433Z</time>
      </trkpt>
      <trkpt lat="48.02826" lon="2.81468">
        <ele>102</ele>
        <time>2016-12-11T09:58:52.401Z</time>
      </trkpt>
      <trkpt lat="48.02826" lon="2.81473">
        <ele>102</ele>
        <time>2016-12-11T09:58:53.432Z</time>
      </trkpt>
      <trkpt lat="48.02826" lon="2.81473">
        <ele>102</ele>
        <time>2016-12-11T09:58:54.397Z</time>
      </trkpt>
      <trkpt lat="48.02824" lon="2.81476">
        <ele>101</ele>
        <time>2016-12-11T09:58:55.432Z</time>
      </trkpt>
      <trkpt lat="48.02824" lon="2.81476">
        <ele>101</ele>
        <time>2016-12-11T09:58:56.397Z</time>
      </trkpt>
      <trkpt lat="48.0282" lon="2.81475">
        <ele>101</ele>
        <time>2016-12-11T09:58:57.432Z</time>
      </trkpt>
      <trkpt lat="48.02817" lon="2.8147">
        <ele>100</ele>
        <time>2016-12-11T09:58:58.398Z</time>
      </trkpt>
      <trkpt lat="48.02817" lon="2.8147">
        <ele>100</ele>
        <time>2016-12-11T09:58:59.400Z</time>
      </trkpt>
      <trkpt lat="48.02816" lon="2.81467">
        <ele>100</ele>
        <time>2016-12-11T09:59:00.433Z</time>
      </trkpt>
      <trkpt lat="48.02816" lon="2.81467">
        <ele>100</ele>
        <time>2016-12-11T09:59:01.397Z</time>
      </trkpt>
      <trkpt lat="48.02814" lon="2.81462">
        <ele>100</ele>
        <time>2016-12-11T09:59:02.432Z</time>
      </trkpt>
      <trkpt lat="48.02814" lon="2.81462">
        <ele>100</ele>
        <time>2016-12-11T09:59:03.397Z</time>
      </trkpt>
      <trkpt lat="48.0281" lon="2.81462">
        <ele>99</ele>
        <time>2016-12-11T09:59:04.427Z</time>
      </trkpt>
      <trkpt lat="48.0281" lon="2.81462">
        <ele>99</ele>
        <time>2016-12-11T09:59:05.432Z</time>
      </trkpt>
      <trkpt lat="48.0281" lon="2.81462">
        <ele>99</ele>
        <time>2016-12-11T09:59:06.396Z</time>
      </trkpt>
      <trkpt lat="48.02808" lon="2.81466">
        <ele>100</ele>
        <time>2016-12-11T09:59:07.433Z</time>
      </trkpt>
      <trkpt lat="48.02808" lon="2.81466">
        <ele>100</ele>
        <time>2016-12-11T09:59:08.396Z</time>
      </trkpt>
      <trkpt lat="48.02807" lon="2.81469">
        <ele>100</ele>
        <time>2016-12-11T09:59:09.432Z</time>
      </trkpt>
      <trkpt lat="48.02807" lon="2.81469">
        <ele>100</ele>
        <time>2016-12-11T09:59:10.400Z</time>
      </trkpt>
      <trkpt lat="48.02805" lon="2.81473">
        <ele>101</ele>
        <time>2016-12-11T09:59:11.433Z</time>
      </trkpt>
      <trkpt lat="48.02805" lon="2.81473">
        <ele>101</ele>
        <time>2016-12-11T09:59:12.398Z</time>
      </trkpt>
      <trkpt lat="48.02803" lon="2.81476">
        <ele>102</ele>
        <time>2016-12-11T09:59:13.434Z</time>
      </trkpt>
      <trkpt lat="48.02803" lon="2.81476">
        <ele>102</ele>
        <time>2016-12-11T09:59:14.398Z</time>
      </trkpt>
      <trkpt lat="48.02801" lon="2.81479">
        <ele>102</ele>
        <time>2016-12-11T09:59:15.433Z</time>
      </trkpt>
      <trkpt lat="48.02801" lon="2.81479">
        <ele>102</ele>
        <time>2016-12-11T09:59:16.399Z</time>
      </trkpt>
      <trkpt lat="48.02799" lon="2.81483">
        <ele>102</ele>
        <time>2016-12-11T09:59:17.427Z</time>
      </trkpt>
      <trkpt lat="48.02798" lon="2.81487">
        <ele>102</ele>
        <time>2016-12-11T09:59:18.406Z</time>
      </trkpt>
      <trkpt lat="48.02797" lon="2.81489">
        <ele>102</ele>
        <time>2016-12-11T09:59:19.413Z</time>
      </trkpt>
      <trkpt lat="48.02797" lon="2.81489">
        <ele>102</ele>
        <time>2016-12-11T09:59:20.397Z</time>
      </trkpt>
      <trkpt lat="48.02796" lon="2.81491">
        <ele>102</ele>
        <time>2016-12-11T09:59:21.409Z</time>
      </trkpt>
      <trkpt lat="48.02796" lon="2.81491">
        <ele>102</ele>
        <time>2016-12-11T09:59:22.402Z</time>
      </trkpt>
      <trkpt lat="48.02794" lon="2.81495">
        <ele>102</ele>
        <time>2016-12-11T09:59:23.407Z</time>
      </trkpt>
      <trkpt lat="48.02794" lon="2.81495">
        <ele>102</ele>
        <time>2016-12-11T09:59:24.397Z</time>
      </trkpt>
      <trkpt lat="48.02792" lon="2.81499">
        <ele>103</ele>
        <time>2016-12-11T09:59:25.399Z</time>
      </trkpt>
      <trkpt lat="48.02791" lon="2.81501">
        <ele>103</ele>
        <time>2016-12-11T09:59:26.433Z</time>
      </trkpt>
      <trkpt lat="48.02791" lon="2.81501">
        <ele>103</ele>
        <time>2016-12-11T09:59:27.398Z</time>
      </trkpt>
      <trkpt lat="48.02787" lon="2.81505">
        <ele>104</ele>
        <time>2016-12-11T09:59:28.414Z</time>
      </trkpt>
      <trkpt lat="48.02787" lon="2.81505">
        <ele>104</ele>
        <time>2016-12-11T09:59:29.435Z</time>
      </trkpt>
      <trkpt lat="48.02785" lon="2.81509">
        <ele>104</ele>
        <time>2016-12-11T09:59:30.435Z</time>
      </trkpt>
      <trkpt lat="48.02785" lon="2.81509">
        <ele>104</ele>
        <time>2016-12-11T09:59:31.435Z</time>
      </trkpt>
      <trkpt lat="48.02785" lon="2.81509">
        <ele>104</ele>
        <time>2016-12-11T09:59:32.397Z</time>
      </trkpt>
      <trkpt lat="48.02783" lon="2.81514">
        <ele>104</ele>
        <time>2016-12-11T09:59:33.433Z</time>
      </trkpt>
      <trkpt lat="48.02783" lon="2.81514">
        <ele>104</ele>
        <time>2016-12-11T09:59:34.399Z</time>
      </trkpt>
      <trkpt lat="48.0278" lon="2.81517">
        <ele>105</ele>
        <time>2016-12-11T09:59:35.433Z</time>
      </trkpt>
      <trkpt lat="48.0278" lon="2.81517">
        <ele>105</ele>
        <time>2016-12-11T09:59:36.398Z</time>
      </trkpt>
      <trkpt lat="48.02779" lon="2.81522">
        <ele>105</ele>
        <time>2016-12-11T09:59:37.433Z</time>
      </trkpt>
      <trkpt lat="48.02779" lon="2.81522">
        <ele>105</ele>
        <time>2016-12-11T09:59:38.397Z</time>
      </trkpt>
      <trkpt lat="48.02777" lon="2.81525">
        <ele>106</ele>
        <time>2016-12-11T09:59:39.434Z</time>
      </trkpt>
      <trkpt lat="48.02777" lon="2.81525">
        <ele>106</ele>
        <time>2016-12-11T09:59:40.400Z</time>
      </trkpt>
      <trkpt lat="48.02774" lon="2.81528">
        <ele>106</ele>
        <time>2016-12-11T09:59:41.433Z</time>
      </trkpt>
      <trkpt lat="48.02774" lon="2.81528">
        <ele>106</ele>
        <time>2016-12-11T09:59:42.398Z</time>
      </trkpt>
      <trkpt lat="48.02772" lon="2.81532">
        <ele>106</ele>
        <time>2016-12-11T09:59:43.434Z</time>
      </trkpt>
      <trkpt lat="48.02772" lon="2.81532">
        <ele>106</ele>
        <time>2016-12-11T09:59:44.397Z</time>
      </trkpt>
      <trkpt lat="48.02771" lon="2.81532">
        <ele>107</ele>
        <time>2016-12-11T09:59:45.397Z</time>
      </trkpt>
      <trkpt lat="48.02771" lon="2.81532">
        <ele>107</ele>
        <time>2016-12-11T09:59:46.397Z</time>
      </trkpt>
      <trkpt lat="48.02769" lon="2.81533">
        <ele>107</ele>
        <time>2016-12-11T09:59:47.432Z</time>
      </trkpt>
      <trkpt lat="48.02768" lon="2.81535">
        <ele>107</ele>
        <time>2016-12-11T09:59:48.406Z</time>
      </trkpt>
      <trkpt lat="48.02768" lon="2.81535">
        <ele>107</ele>
        <time>2016-12-11T09:59:49.433Z</time>
      </trkpt>
      <trkpt lat="48.02768" lon="2.81535">
        <ele>107</ele>
        <time>2016-12-11T09:59:50.397Z</time>
      </trkpt>
      <trkpt lat="48.02766" lon="2.8154">
        <ele>107</ele>
        <time>2016-12-11T09:59:51.433Z</time>
      </trkpt>
      <trkpt lat="48.02766" lon="2.8154">
        <ele>107</ele>
        <time>2016-12-11T09:59:52.401Z</time>
      </trkpt>
      <trkpt lat="48.02765" lon="2.81546">
        <ele>107</ele>
        <time>2016-12-11T09:59:53.433Z</time>
      </trkpt>
      <trkpt lat="48.02765" lon="2.81546">
        <ele>107</ele>
        <time>2016-12-11T09:59:54.397Z</time>
      </trkpt>
      <trkpt lat="48.02763" lon="2.8155">
        <ele>108</ele>
        <time>2016-12-11T09:59:55.433Z</time>
      </trkpt>
      <trkpt lat="48.02763" lon="2.8155">
        <ele>108</ele>
        <time>2016-12-11T09:59:56.397Z</time>
      </trkpt>
      <trkpt lat="48.0276" lon="2.81554">
        <ele>109</ele>
        <time>2016-12-11T09:59:57.399Z</time>
      </trkpt>
      <trkpt lat="48.02759" lon="2.81556">
        <ele>110</ele>
        <time>2016-12-11T09:59:58.434Z</time>
      </trkpt>
      <trkpt lat="48.02759" lon="2.81556">
        <ele>110</ele>
        <time>2016-12-11T09:59:59.398Z</time>
      </trkpt>
      <trkpt lat="48.02757" lon="2.8156">
        <ele>111</ele>
        <time>2016-12-11T10:00:00.398Z</time>
      </trkpt>
      <trkpt lat="48.02755" lon="2.81562">
        <ele>111</ele>
        <time>2016-12-11T10:00:01.416Z</time>
      </trkpt>
      <trkpt lat="48.02755" lon="2.81562">
        <ele>111</ele>
        <time>2016-12-11T10:00:02.399Z</time>
      </trkpt>
      <trkpt lat="48.02753" lon="2.81564">
        <ele>112</ele>
        <time>2016-12-11T10:00:03.433Z</time>
      </trkpt>
      <trkpt lat="48.0275" lon="2.81568">
        <ele>113</ele>
        <time>2016-12-11T10:00:04.430Z</time>
      </trkpt>
      <trkpt lat="48.0275" lon="2.81568">
        <ele>113</ele>
        <time>2016-12-11T10:00:05.397Z</time>
      </trkpt>
      <trkpt lat="48.02748" lon="2.81572">
        <ele>113</ele>
        <time>2016-12-11T10:00:06.412Z</time>
      </trkpt>
      <trkpt lat="48.02748" lon="2.81572">
        <ele>113</ele>
        <time>2016-12-11T10:00:07.434Z</time>
      </trkpt>
      <trkpt lat="48.02748" lon="2.81572">
        <ele>113</ele>
        <time>2016-12-11T10:00:08.399Z</time>
      </trkpt>
      <trkpt lat="48.02746" lon="2.81577">
        <ele>114</ele>
        <time>2016-12-11T10:00:09.434Z</time>
      </trkpt>
      <trkpt lat="48.02746" lon="2.81577">
        <ele>114</ele>
        <time>2016-12-11T10:00:10.399Z</time>
      </trkpt>
      <trkpt lat="48.02744" lon="2.81581">
        <ele>114</ele>
        <time>2016-12-11T10:00:11.401Z</time>
      </trkpt>
      <trkpt lat="48.02744" lon="2.81581">
        <ele>114</ele>
        <time>2016-12-11T10:00:12.399Z</time>
      </trkpt>
      <trkpt lat="48.02741" lon="2.81586">
        <ele>114</ele>
        <time>2016-12-11T10:00:13.433Z</time>
      </trkpt>
      <trkpt lat="48.02741" lon="2.81586">
        <ele>114</ele>
        <time>2016-12-11T10:00:14.403Z</time>
      </trkpt>
      <trkpt lat="48.02739" lon="2.81591">
        <ele>115</ele>
        <time>2016-12-11T10:00:15.397Z</time>
      </trkpt>
      <trkpt lat="48.02738" lon="2.81593">
        <ele>115</ele>
        <time>2016-12-11T10:00:16.434Z</time>
      </trkpt>
      <trkpt lat="48.02735" lon="2.81597">
        <ele>115</ele>
        <time>2016-12-11T10:00:17.428Z</time>
      </trkpt>
      <trkpt lat="48.02735" lon="2.81597">
        <ele>115</ele>
        <time>2016-12-11T10:00:18.421Z</time>
      </trkpt>
      <trkpt lat="48.02732" lon="2.81602">
        <ele>116</ele>
        <time>2016-12-11T10:00:19.427Z</time>
      </trkpt>
      <trkpt lat="48.02731" lon="2.81605">
        <ele>116</ele>
        <time>2016-12-11T10:00:20.397Z</time>
      </trkpt>
      <trkpt lat="48.02731" lon="2.81605">
        <ele>116</ele>
        <time>2016-12-11T10:00:21.433Z</time>
      </trkpt>
      <trkpt lat="48.02731" lon="2.81605">
        <ele>116</ele>
        <time>2016-12-11T10:00:22.398Z</time>
      </trkpt>
      <trkpt lat="48.02728" lon="2.81611">
        <ele>116</ele>
        <time>2016-12-11T10:00:23.433Z</time>
      </trkpt>
      <trkpt lat="48.02728" lon="2.81611">
        <ele>116</ele>
        <time>2016-12-11T10:00:24.408Z</time>
      </trkpt>
      <trkpt lat="48.02725" lon="2.81617">
        <ele>116</ele>
        <time>2016-12-11T10:00:25.399Z</time>
      </trkpt>
      <trkpt lat="48.02723" lon="2.8162">
        <ele>117</ele>
        <time>2016-12-11T10:00:26.434Z</time>
      </trkpt>
      <trkpt lat="48.02723" lon="2.8162">
        <ele>117</ele>
        <time>2016-12-11T10:00:27.398Z</time>
      </trkpt>
      <trkpt lat="48.02718" lon="2.81632">
        <ele>116</ele>
        <time>2016-12-11T10:00:28.414Z</time>
      </trkpt>
      <trkpt lat="48.02718" lon="2.81632">
        <ele>116</ele>
        <time>2016-12-11T10:00:29.396Z</time>
      </trkpt>
      <trkpt lat="48.02718" lon="2.81632">
        <ele>116</ele>
        <time>2016-12-11T10:00:30.399Z</time>
      </trkpt>
      <trkpt lat="48.02715" lon="2.81641">
        <ele>117</ele>
        <time>2016-12-11T10:00:31.433Z</time>
      </trkpt>
      <trkpt lat="48.0271" lon="2.81649">
        <ele>117</ele>
        <time>2016-12-11T10:00:32.435Z</time>
      </trkpt>
      <trkpt lat="48.02707" lon="2.81653">
        <ele>118</ele>
        <time>2016-12-11T10:00:33.435Z</time>
      </trkpt>
      <trkpt lat="48.02707" lon="2.81653">
        <ele>118</ele>
        <time>2016-12-11T10:00:34.434Z</time>
      </trkpt>
      <trkpt lat="48.02707" lon="2.81653">
        <ele>118</ele>
        <time>2016-12-11T10:00:35.398Z</time>
      </trkpt>
      <trkpt lat="48.02703" lon="2.81663">
        <ele>118</ele>
        <time>2016-12-11T10:00:36.399Z</time>
      </trkpt>
      <trkpt lat="48.027" lon="2.81668">
        <ele>118</ele>
        <time>2016-12-11T10:00:37.416Z</time>
      </trkpt>
      <trkpt lat="48.02694" lon="2.81677">
        <ele>118</ele>
        <time>2016-12-11T10:00:38.407Z</time>
      </trkpt>
      <trkpt lat="48.02694" lon="2.81677">
        <ele>118</ele>
        <time>2016-12-11T10:00:39.434Z</time>
      </trkpt>
      <trkpt lat="48.02694" lon="2.81677">
        <ele>118</ele>
        <time>2016-12-11T10:00:40.399Z</time>
      </trkpt>
      <trkpt lat="48.02688" lon="2.81685">
        <ele>118</ele>
        <time>2016-12-11T10:00:41.433Z</time>
      </trkpt>
      <trkpt lat="48.02688" lon="2.81685">
        <ele>118</ele>
        <time>2016-12-11T10:00:42.399Z</time>
      </trkpt>
      <trkpt lat="48.02683" lon="2.81693">
        <ele>118</ele>
        <time>2016-12-11T10:00:43.433Z</time>
      </trkpt>
      <trkpt lat="48.02683" lon="2.81693">
        <ele>118</ele>
        <time>2016-12-11T10:00:44.398Z</time>
      </trkpt>
      <trkpt lat="48.02678" lon="2.817">
        <ele>117</ele>
        <time>2016-12-11T10:00:45.434Z</time>
      </trkpt>
      <trkpt lat="48.02678" lon="2.817">
        <ele>117</ele>
        <time>2016-12-11T10:00:46.399Z</time>
      </trkpt>
      <trkpt lat="48.02673" lon="2.81708">
        <ele>118</ele>
        <time>2016-12-11T10:00:47.435Z</time>
      </trkpt>
      <trkpt lat="48.02673" lon="2.81708">
        <ele>118</ele>
        <time>2016-12-11T10:00:48.397Z</time>
      </trkpt>
      <trkpt lat="48.0267" lon="2.81714">
        <ele>118</ele>
        <time>2016-12-11T10:00:49.433Z</time>
      </trkpt>
      <trkpt lat="48.0267" lon="2.81714">
        <ele>118</ele>
        <time>2016-12-11T10:00:50.399Z</time>
      </trkpt>
      <trkpt lat="48.02667" lon="2.8172">
        <ele>119</ele>
        <time>2016-12-11T10:00:51.434Z</time>
      </trkpt>
      <trkpt lat="48.02667" lon="2.8172">
        <ele>119</ele>
        <time>2016-12-11T10:00:52.401Z</time>
      </trkpt>
      <trkpt lat="48.02667" lon="2.81725">
        <ele>120</ele>
        <time>2016-12-11T10:00:53.433Z</time>
      </trkpt>
      <trkpt lat="48.02667" lon="2.81725">
        <ele>120</ele>
        <time>2016-12-11T10:00:54.397Z</time>
      </trkpt>
      <trkpt lat="48.02669" lon="2.81731">
        <ele>120</ele>
        <time>2016-12-11T10:00:55.398Z</time>
      </trkpt>
      <trkpt lat="48.02669" lon="2.81733">
        <ele>119</ele>
        <time>2016-12-11T10:00:56.434Z</time>
      </trkpt>
      <trkpt lat="48.02671" lon="2.81738">
        <ele>120</ele>
        <time>2016-12-11T10:00:57.435Z</time>
      </trkpt>
      <trkpt lat="48.02673" lon="2.81738">
        <ele>120</ele>
        <time>2016-12-11T10:00:58.418Z</time>
      </trkpt>
      <trkpt lat="48.02673" lon="2.81738">
        <ele>120</ele>
        <time>2016-12-11T10:00:59.400Z</time>
      </trkpt>
      <trkpt lat="48.02673" lon="2.81738">
        <ele>120</ele>
        <time>2016-12-11T10:01:00.398Z</time>
      </trkpt>
      <trkpt lat="48.02675" lon="2.81737">
        <ele>120</ele>
        <time>2016-12-11T10:01:01.437Z</time>
      </trkpt>
      <trkpt lat="48.02675" lon="2.81737">
        <ele>120</ele>
        <time>2016-12-11T10:01:02.397Z</time>
      </trkpt>
      <trkpt lat="48.02674" lon="2.81733">
        <ele>121</ele>
        <time>2016-12-11T10:01:03.398Z</time>
      </trkpt>
      <trkpt lat="48.02673" lon="2.81732">
        <ele>121</ele>
        <time>2016-12-11T10:01:04.402Z</time>
      </trkpt>
      <trkpt lat="48.02672" lon="2.81731">
        <ele>121</ele>
        <time>2016-12-11T10:01:05.413Z</time>
      </trkpt>
      <trkpt lat="48.0267" lon="2.81732">
        <ele>120</ele>
        <time>2016-12-11T10:01:06.408Z</time>
      </trkpt>
      <trkpt lat="48.0267" lon="2.81732">
        <ele>120</ele>
        <time>2016-12-11T10:01:07.433Z</time>
      </trkpt>
      <trkpt lat="48.0267" lon="2.81732">
        <ele>120</ele>
        <time>2016-12-11T10:01:08.399Z</time>
      </trkpt>
      <trkpt lat="48.02671" lon="2.81737">
        <ele>121</ele>
        <time>2016-12-11T10:01:09.433Z</time>
      </trkpt>
      <trkpt lat="48.02671" lon="2.81737">
        <ele>121</ele>
        <time>2016-12-11T10:01:10.397Z</time>
      </trkpt>
      <trkpt lat="48.02675" lon="2.81741">
        <ele>121</ele>
        <time>2016-12-11T10:01:11.433Z</time>
      </trkpt>
      <trkpt lat="48.02675" lon="2.81741">
        <ele>121</ele>
        <time>2016-12-11T10:01:12.399Z</time>
      </trkpt>
      <trkpt lat="48.0268" lon="2.81748">
        <ele>121</ele>
        <time>2016-12-11T10:01:13.398Z</time>
      </trkpt>
      <trkpt lat="48.02682" lon="2.81751">
        <ele>121</ele>
        <time>2016-12-11T10:01:14.433Z</time>
      </trkpt>
      <trkpt lat="48.02682" lon="2.81751">
        <ele>121</ele>
        <time>2016-12-11T10:01:15.398Z</time>
      </trkpt>
      <trkpt lat="48.02692" lon="2.81763">
        <ele>121</ele>
        <time>2016-12-11T10:01:16.419Z</time>
      </trkpt>
      <trkpt lat="48.02692" lon="2.81763">
        <ele>121</ele>
        <time>2016-12-11T10:01:17.413Z</time>
      </trkpt>
      <trkpt lat="48.02699" lon="2.81772">
        <ele>121</ele>
        <time>2016-12-11T10:01:18.434Z</time>
      </trkpt>
      <trkpt lat="48.02703" lon="2.81777">
        <ele>121</ele>
        <time>2016-12-11T10:01:19.400Z</time>
      </trkpt>
      <trkpt lat="48.02703" lon="2.81777">
        <ele>121</ele>
        <time>2016-12-11T10:01:20.405Z</time>
      </trkpt>
      <trkpt lat="48.02703" lon="2.81777">
        <ele>121</ele>
        <time>2016-12-11T10:01:21.398Z</time>
      </trkpt>
      <trkpt lat="48.02712" lon="2.81788">
        <ele>120</ele>
        <time>2016-12-11T10:01:22.402Z</time>
      </trkpt>
      <trkpt lat="48.02716" lon="2.81794">
        <ele>121</ele>
        <time>2016-12-11T10:01:23.408Z</time>
      </trkpt>
      <trkpt lat="48.02716" lon="2.81794">
        <ele>121</ele>
        <time>2016-12-11T10:01:24.397Z</time>
      </trkpt>
      <trkpt lat="48.02723" lon="2.81806">
        <ele>120</ele>
        <time>2016-12-11T10:01:25.417Z</time>
      </trkpt>
      <trkpt lat="48.02723" lon="2.81806">
        <ele>120</ele>
        <time>2016-12-11T10:01:26.398Z</time>
      </trkpt>
      <trkpt lat="48.0273" lon="2.81819">
        <ele>120</ele>
        <time>2016-12-11T10:01:27.434Z</time>
      </trkpt>
      <trkpt lat="48.02737" lon="2.81831">
        <ele>120</ele>
        <time>2016-12-11T10:01:28.436Z</time>
      </trkpt>
      <trkpt lat="48.02737" lon="2.81831">
        <ele>120</ele>
        <time>2016-12-11T10:01:29.426Z</time>
      </trkpt>
      <trkpt lat="48.02737" lon="2.81831">
        <ele>120</ele>
        <time>2016-12-11T10:01:30.396Z</time>
      </trkpt>
      <trkpt lat="48.02744" lon="2.81843">
        <ele>120</ele>
        <time>2016-12-11T10:01:31.435Z</time>
      </trkpt>
      <trkpt lat="48.02744" lon="2.81843">
        <ele>120</ele>
        <time>2016-12-11T10:01:32.402Z</time>
      </trkpt>
      <trkpt lat="48.0275" lon="2.81855">
        <ele>120</ele>
        <time>2016-12-11T10:01:33.401Z</time>
      </trkpt>
      <trkpt lat="48.02753" lon="2.81862">
        <ele>120</ele>
        <time>2016-12-11T10:01:34.406Z</time>
      </trkpt>
      <trkpt lat="48.02756" lon="2.81869">
        <ele>120</ele>
        <time>2016-12-11T10:01:35.434Z</time>
      </trkpt>
      <trkpt lat="48.02756" lon="2.81869">
        <ele>120</ele>
        <time>2016-12-11T10:01:36.529Z</time>
      </trkpt>
      <trkpt lat="48.02763" lon="2.81884">
        <ele>119</ele>
        <time>2016-12-11T10:01:37.408Z</time>
      </trkpt>
      <trkpt lat="48.0277" lon="2.81899">
        <ele>119</ele>
        <time>2016-12-11T10:01:38.409Z</time>
      </trkpt>
      <trkpt lat="48.0277" lon="2.81899">
        <ele>119</ele>
        <time>2016-12-11T10:01:39.405Z</time>
      </trkpt>
      <trkpt lat="48.02779" lon="2.81912">
        <ele>119</ele>
        <time>2016-12-11T10:01:40.414Z</time>
      </trkpt>
      <trkpt lat="48.02783" lon="2.81919">
        <ele>118</ele>
        <time>2016-12-11T10:01:41.423Z</time>
      </trkpt>
      <trkpt lat="48.02783" lon="2.81919">
        <ele>118</ele>
        <time>2016-12-11T10:01:42.418Z</time>
      </trkpt>
      <trkpt lat="48.02791" lon="2.81935">
        <ele>118</ele>
        <time>2016-12-11T10:01:43.397Z</time>
      </trkpt>
      <trkpt lat="48.02795" lon="2.81944">
        <ele>118</ele>
        <time>2016-12-11T10:01:44.423Z</time>
      </trkpt>
      <trkpt lat="48.02799" lon="2.81952">
        <ele>118</ele>
        <time>2016-12-11T10:01:45.432Z</time>
      </trkpt>
      <trkpt lat="48.02803" lon="2.81961">
        <ele>118</ele>
        <time>2016-12-11T10:01:46.406Z</time>
      </trkpt>
      <trkpt lat="48.02803" lon="2.81961">
        <ele>118</ele>
        <time>2016-12-11T10:01:47.396Z</time>
      </trkpt>
      <trkpt lat="48.02811" lon="2.81978">
        <ele>117</ele>
        <time>2016-12-11T10:01:48.446Z</time>
      </trkpt>
      <trkpt lat="48.02811" lon="2.81978">
        <ele>117</ele>
        <time>2016-12-11T10:01:49.425Z</time>
      </trkpt>
      <trkpt lat="48.02819" lon="2.81996">
        <ele>116</ele>
        <time>2016-12-11T10:01:50.433Z</time>
      </trkpt>
      <trkpt lat="48.02819" lon="2.81996">
        <ele>116</ele>
        <time>2016-12-11T10:01:51.410Z</time>
      </trkpt>
      <trkpt lat="48.02828" lon="2.82015">
        <ele>116</ele>
        <time>2016-12-11T10:01:52.402Z</time>
      </trkpt>
      <trkpt lat="48.02828" lon="2.82015">
        <ele>116</ele>
        <time>2016-12-11T10:01:53.414Z</time>
      </trkpt>
      <trkpt lat="48.02838" lon="2.82035">
        <ele>114</ele>
        <time>2016-12-11T10:01:54.429Z</time>
      </trkpt>
      <trkpt lat="48.02838" lon="2.82035">
        <ele>114</ele>
        <time>2016-12-11T10:01:55.429Z</time>
      </trkpt>
      <trkpt lat="48.02849" lon="2.82054">
        <ele>113</ele>
        <time>2016-12-11T10:01:56.405Z</time>
      </trkpt>
      <trkpt lat="48.02856" lon="2.82064">
        <ele>112</ele>
        <time>2016-12-11T10:01:57.398Z</time>
      </trkpt>
      <trkpt lat="48.02862" lon="2.82073">
        <ele>112</ele>
        <time>2016-12-11T10:01:58.417Z</time>
      </trkpt>
      <trkpt lat="48.02862" lon="2.82073">
        <ele>112</ele>
        <time>2016-12-11T10:01:59.403Z</time>
      </trkpt>
      <trkpt lat="48.02875" lon="2.82093">
        <ele>110</ele>
        <time>2016-12-11T10:02:00.410Z</time>
      </trkpt>
      <trkpt lat="48.02875" lon="2.82093">
        <ele>110</ele>
        <time>2016-12-11T10:02:01.408Z</time>
      </trkpt>
      <trkpt lat="48.0289" lon="2.82113">
        <ele>109</ele>
        <time>2016-12-11T10:02:02.396Z</time>
      </trkpt>
      <trkpt lat="48.0289" lon="2.82113">
        <ele>109</ele>
        <time>2016-12-11T10:02:03.434Z</time>
      </trkpt>
      <trkpt lat="48.02905" lon="2.82132">
        <ele>108</ele>
        <time>2016-12-11T10:02:04.403Z</time>
      </trkpt>
      <trkpt lat="48.02905" lon="2.82132">
        <ele>108</ele>
        <time>2016-12-11T10:02:05.411Z</time>
      </trkpt>
      <trkpt lat="48.0292" lon="2.82153">
        <ele>106</ele>
        <time>2016-12-11T10:02:06.398Z</time>
      </trkpt>
      <trkpt lat="48.0292" lon="2.82153">
        <ele>106</ele>
        <time>2016-12-11T10:02:07.402Z</time>
      </trkpt>
      <trkpt lat="48.02935" lon="2.82173">
        <ele>105</ele>
        <time>2016-12-11T10:02:08.411Z</time>
      </trkpt>
      <trkpt lat="48.02935" lon="2.82173">
        <ele>105</ele>
        <time>2016-12-11T10:02:09.404Z</time>
      </trkpt>
      <trkpt lat="48.02949" lon="2.82194">
        <ele>104</ele>
        <time>2016-12-11T10:02:10.413Z</time>
      </trkpt>
      <trkpt lat="48.02949" lon="2.82194">
        <ele>104</ele>
        <time>2016-12-11T10:02:11.419Z</time>
      </trkpt>
      <trkpt lat="48.02962" lon="2.8221">
        <ele>103</ele>
        <time>2016-12-11T10:02:12.430Z</time>
      </trkpt>
      <trkpt lat="48.02962" lon="2.8221">
        <ele>103</ele>
        <time>2016-12-11T10:02:13.403Z</time>
      </trkpt>
      <trkpt lat="48.02966" lon="2.82221">
        <ele>103</ele>
        <time>2016-12-11T10:02:14.411Z</time>
      </trkpt>
      <trkpt lat="48.02966" lon="2.82221">
        <ele>103</ele>
        <time>2016-12-11T10:02:15.420Z</time>
      </trkpt>
      <trkpt lat="48.02962" lon="2.82233">
        <ele>102</ele>
        <time>2016-12-11T10:02:16.400Z</time>
      </trkpt>
      <trkpt lat="48.02962" lon="2.82233">
        <ele>102</ele>
        <time>2016-12-11T10:02:17.423Z</time>
      </trkpt>
      <trkpt lat="48.02955" lon="2.82242">
        <ele>101</ele>
        <time>2016-12-11T10:02:18.405Z</time>
      </trkpt>
      <trkpt lat="48.02955" lon="2.82242">
        <ele>101</ele>
        <time>2016-12-11T10:02:19.418Z</time>
      </trkpt>
      <trkpt lat="48.02945" lon="2.8225">
        <ele>100</ele>
        <time>2016-12-11T10:02:20.428Z</time>
      </trkpt>
      <trkpt lat="48.02945" lon="2.8225">
        <ele>100</ele>
        <time>2016-12-11T10:02:21.424Z</time>
      </trkpt>
      <trkpt lat="48.02945" lon="2.8225">
        <ele>100</ele>
        <time>2016-12-11T10:02:22.399Z</time>
      </trkpt>
      <trkpt lat="48.02937" lon="2.82258">
        <ele>99</ele>
        <time>2016-12-11T10:02:23.398Z</time>
      </trkpt>
      <trkpt lat="48.02928" lon="2.82267">
        <ele>97</ele>
        <time>2016-12-11T10:02:24.423Z</time>
      </trkpt>
      <trkpt lat="48.02924" lon="2.82271">
        <ele>97</ele>
        <time>2016-12-11T10:02:25.405Z</time>
      </trkpt>
      <trkpt lat="48.02924" lon="2.82271">
        <ele>97</ele>
        <time>2016-12-11T10:02:26.421Z</time>
      </trkpt>
      <trkpt lat="48.02916" lon="2.82279">
        <ele>95</ele>
        <time>2016-12-11T10:02:27.428Z</time>
      </trkpt>
      <trkpt lat="48.02916" lon="2.82279">
        <ele>95</ele>
        <time>2016-12-11T10:02:28.404Z</time>
      </trkpt>
      <trkpt lat="48.02912" lon="2.82283">
        <ele>95</ele>
        <time>2016-12-11T10:02:29.424Z</time>
      </trkpt>
      <trkpt lat="48.02905" lon="2.8229">
        <ele>94</ele>
        <time>2016-12-11T10:02:30.431Z</time>
      </trkpt>
      <trkpt lat="48.02905" lon="2.8229">
        <ele>94</ele>
        <time>2016-12-11T10:02:31.418Z</time>
      </trkpt>
      <trkpt lat="48.02905" lon="2.8229">
        <ele>94</ele>
        <time>2016-12-11T10:02:32.398Z</time>
      </trkpt>
      <trkpt lat="48.029" lon="2.82295">
        <ele>93</ele>
        <time>2016-12-11T10:02:33.424Z</time>
      </trkpt>
      <trkpt lat="48.02896" lon="2.82302">
        <ele>92</ele>
        <time>2016-12-11T10:02:34.431Z</time>
      </trkpt>
      <trkpt lat="48.02894" lon="2.82307">
        <ele>92</ele>
        <time>2016-12-11T10:02:35.420Z</time>
      </trkpt>
      <trkpt lat="48.02894" lon="2.82307">
        <ele>92</ele>
        <time>2016-12-11T10:02:36.413Z</time>
      </trkpt>
      <trkpt lat="48.02895" lon="2.82315">
        <ele>91</ele>
        <time>2016-12-11T10:02:37.424Z</time>
      </trkpt>
      <trkpt lat="48.02895" lon="2.82315">
        <ele>91</ele>
        <time>2016-12-11T10:02:38.424Z</time>
      </trkpt>
      <trkpt lat="48.02898" lon="2.82321">
        <ele>91</ele>
        <time>2016-12-11T10:02:39.431Z</time>
      </trkpt>
      <trkpt lat="48.02899" lon="2.82325">
        <ele>91</ele>
        <time>2016-12-11T10:02:40.414Z</time>
      </trkpt>
      <trkpt lat="48.02899" lon="2.82325">
        <ele>91</ele>
        <time>2016-12-11T10:02:41.431Z</time>
      </trkpt>
      <trkpt lat="48.029" lon="2.82332">
        <ele>91</ele>
        <time>2016-12-11T10:02:42.413Z</time>
      </trkpt>
      <trkpt lat="48.029" lon="2.82332">
        <ele>91</ele>
        <time>2016-12-11T10:02:43.396Z</time>
      </trkpt>
      <trkpt lat="48.02901" lon="2.82338">
        <ele>91</ele>
        <time>2016-12-11T10:02:44.402Z</time>
      </trkpt>
      <trkpt lat="48.02901" lon="2.82338">
        <ele>91</ele>
        <time>2016-12-11T10:02:45.432Z</time>
      </trkpt>
      <trkpt lat="48.02901" lon="2.82338">
        <ele>91</ele>
        <time>2016-12-11T10:02:46.407Z</time>
      </trkpt>
      <trkpt lat="48.02901" lon="2.82339">
        <ele>90</ele>
        <time>2016-12-11T10:02:47.405Z</time>
      </trkpt>
      <trkpt lat="48.02901" lon="2.82339">
        <ele>90</ele>
        <time>2016-12-11T10:02:48.432Z</time>
      </trkpt>
      <trkpt lat="48.02901" lon="2.82339">
        <ele>90</ele>
        <time>2016-12-11T10:02:49.433Z</time>
      </trkpt>
      <trkpt lat="48.02902" lon="2.82353">
        <ele>95</ele>
        <time>2016-12-11T10:02:50.417Z</time>
      </trkpt>
      <trkpt lat="48.02902" lon="2.82353">
        <ele>95</ele>
        <time>2016-12-11T10:02:51.406Z</time>
      </trkpt>
      <trkpt lat="48.02903" lon="2.82357">
        <ele>95</ele>
        <time>2016-12-11T10:02:52.416Z</time>
      </trkpt>
      <trkpt lat="48.02903" lon="2.82357">
        <ele>95</ele>
        <time>2016-12-11T10:02:53.411Z</time>
      </trkpt>
      <trkpt lat="48.02903" lon="2.82363">
        <ele>96</ele>
        <time>2016-12-11T10:02:54.408Z</time>
      </trkpt>
      <trkpt lat="48.02903" lon="2.82363">
        <ele>96</ele>
        <time>2016-12-11T10:02:55.435Z</time>
      </trkpt>
      <trkpt lat="48.02904" lon="2.82367">
        <ele>96</ele>
        <time>2016-12-11T10:02:56.406Z</time>
      </trkpt>
      <trkpt lat="48.02904" lon="2.82367">
        <ele>96</ele>
        <time>2016-12-11T10:02:57.425Z</time>
      </trkpt>
      <trkpt lat="48.02904" lon="2.8237">
        <ele>96</ele>
        <time>2016-12-11T10:02:58.433Z</time>
      </trkpt>
      <trkpt lat="48.02904" lon="2.82372">
        <ele>96</ele>
        <time>2016-12-11T10:02:59.420Z</time>
      </trkpt>
      <trkpt lat="48.02904" lon="2.82374">
        <ele>97</ele>
        <time>2016-12-11T10:03:00.400Z</time>
      </trkpt>
      <trkpt lat="48.02904" lon="2.82374">
        <ele>97</ele>
        <time>2016-12-11T10:03:01.426Z</time>
      </trkpt>
      <trkpt lat="48.02902" lon="2.82375">
        <ele>97</ele>
        <time>2016-12-11T10:03:02.432Z</time>
      </trkpt>
      <trkpt lat="48.02902" lon="2.82377">
        <ele>97</ele>
        <time>2016-12-11T10:03:03.425Z</time>
      </trkpt>
      <trkpt lat="48.02902" lon="2.82377">
        <ele>97</ele>
        <time>2016-12-11T10:03:04.408Z</time>
      </trkpt>
      <trkpt lat="48.02901" lon="2.8238">
        <ele>97</ele>
        <time>2016-12-11T10:03:05.418Z</time>
      </trkpt>
      <trkpt lat="48.02901" lon="2.82382">
        <ele>98</ele>
        <time>2016-12-11T10:03:06.399Z</time>
      </trkpt>
      <trkpt lat="48.02901" lon="2.82382">
        <ele>98</ele>
        <time>2016-12-11T10:03:07.425Z</time>
      </trkpt>
      <trkpt lat="48.02899" lon="2.82385">
        <ele>98</ele>
        <time>2016-12-11T10:03:08.433Z</time>
      </trkpt>
      <trkpt lat="48.02899" lon="2.82386">
        <ele>98</ele>
        <time>2016-12-11T10:03:09.429Z</time>
      </trkpt>
      <trkpt lat="48.02899" lon="2.82386">
        <ele>98</ele>
        <time>2016-12-11T10:03:10.418Z</time>
      </trkpt>
      <trkpt lat="48.02897" lon="2.82389">
        <ele>98</ele>
        <time>2016-12-11T10:03:11.430Z</time>
      </trkpt>
      <trkpt lat="48.02896" lon="2.82391">
        <ele>98</ele>
        <time>2016-12-11T10:03:12.425Z</time>
      </trkpt>
      <trkpt lat="48.02896" lon="2.82391">
        <ele>98</ele>
        <time>2016-12-11T10:03:13.411Z</time>
      </trkpt>
      <trkpt lat="48.02894" lon="2.82394">
        <ele>98</ele>
        <time>2016-12-11T10:03:14.420Z</time>
      </trkpt>
      <trkpt lat="48.02894" lon="2.82394">
        <ele>98</ele>
        <time>2016-12-11T10:03:15.408Z</time>
      </trkpt>
      <trkpt lat="48.02891" lon="2.82397">
        <ele>98</ele>
        <time>2016-12-11T10:03:16.415Z</time>
      </trkpt>
      <trkpt lat="48.02891" lon="2.82397">
        <ele>98</ele>
        <time>2016-12-11T10:03:17.401Z</time>
      </trkpt>
      <trkpt lat="48.02889" lon="2.824">
        <ele>98</ele>
        <time>2016-12-11T10:03:18.422Z</time>
      </trkpt>
      <trkpt lat="48.02889" lon="2.824">
        <ele>98</ele>
        <time>2016-12-11T10:03:19.434Z</time>
      </trkpt>
      <trkpt lat="48.02886" lon="2.82403">
        <ele>99</ele>
        <time>2016-12-11T10:03:20.419Z</time>
      </trkpt>
      <trkpt lat="48.02886" lon="2.82403">
        <ele>99</ele>
        <time>2016-12-11T10:03:21.424Z</time>
      </trkpt>
      <trkpt lat="48.02884" lon="2.82405">
        <ele>99</ele>
        <time>2016-12-11T10:03:22.431Z</time>
      </trkpt>
      <trkpt lat="48.02883" lon="2.82407">
        <ele>99</ele>
        <time>2016-12-11T10:03:23.431Z</time>
      </trkpt>
      <trkpt lat="48.02883" lon="2.82408">
        <ele>99</ele>
        <time>2016-12-11T10:03:24.417Z</time>
      </trkpt>
      <trkpt lat="48.02883" lon="2.82408">
        <ele>99</ele>
        <time>2016-12-11T10:03:25.401Z</time>
      </trkpt>
      <trkpt lat="48.02881" lon="2.82411">
        <ele>99</ele>
        <time>2016-12-11T10:03:26.410Z</time>
      </trkpt>
      <trkpt lat="48.02881" lon="2.82411">
        <ele>99</ele>
        <time>2016-12-11T10:03:27.398Z</time>
      </trkpt>
      <trkpt lat="48.0288" lon="2.82414">
        <ele>99</ele>
        <time>2016-12-11T10:03:28.407Z</time>
      </trkpt>
      <trkpt lat="48.02879" lon="2.82415">
        <ele>99</ele>
        <time>2016-12-11T10:03:29.419Z</time>
      </trkpt>
      <trkpt lat="48.02879" lon="2.82415">
        <ele>99</ele>
        <time>2016-12-11T10:03:30.415Z</time>
      </trkpt>
      <trkpt lat="48.02878" lon="2.82418">
        <ele>99</ele>
        <time>2016-12-11T10:03:31.434Z</time>
      </trkpt>
      <trkpt lat="48.02877" lon="2.82419">
        <ele>100</ele>
        <time>2016-12-11T10:03:32.400Z</time>
      </trkpt>
      <trkpt lat="48.02877" lon="2.82419">
        <ele>100</ele>
        <time>2016-12-11T10:03:33.423Z</time>
      </trkpt>
      <trkpt lat="48.02874" lon="2.82421">
        <ele>100</ele>
        <time>2016-12-11T10:03:34.431Z</time>
      </trkpt>
      <trkpt lat="48.02873" lon="2.82424">
        <ele>100</ele>
        <time>2016-12-11T10:03:35.401Z</time>
      </trkpt>
      <trkpt lat="48.02872" lon="2.82426">
        <ele>100</ele>
        <time>2016-12-11T10:03:36.426Z</time>
      </trkpt>
      <trkpt lat="48.02872" lon="2.82426">
        <ele>100</ele>
        <time>2016-12-11T10:03:37.412Z</time>
      </trkpt>
      <trkpt lat="48.02871" lon="2.8243">
        <ele>100</ele>
        <time>2016-12-11T10:03:38.419Z</time>
      </trkpt>
      <trkpt lat="48.02871" lon="2.82432">
        <ele>100</ele>
        <time>2016-12-11T10:03:39.408Z</time>
      </trkpt>
      <trkpt lat="48.0287" lon="2.82433">
        <ele>100</ele>
        <time>2016-12-11T10:03:40.402Z</time>
      </trkpt>
      <trkpt lat="48.0287" lon="2.82433">
        <ele>100</ele>
        <time>2016-12-11T10:03:41.418Z</time>
      </trkpt>
      <trkpt lat="48.02869" lon="2.82436">
        <ele>100</ele>
        <time>2016-12-11T10:03:42.415Z</time>
      </trkpt>
      <trkpt lat="48.02868" lon="2.82438">
        <ele>100</ele>
        <time>2016-12-11T10:03:43.433Z</time>
      </trkpt>
      <trkpt lat="48.02868" lon="2.82438">
        <ele>100</ele>
        <time>2016-12-11T10:03:44.421Z</time>
      </trkpt>
      <trkpt lat="48.02867" lon="2.82439">
        <ele>101</ele>
        <time>2016-12-11T10:03:45.411Z</time>
      </trkpt>
      <trkpt lat="48.02867" lon="2.82439">
        <ele>101</ele>
        <time>2016-12-11T10:03:46.398Z</time>
      </trkpt>
      <trkpt lat="48.02866" lon="2.82442">
        <ele>101</ele>
        <time>2016-12-11T10:03:47.408Z</time>
      </trkpt>
      <trkpt lat="48.02866" lon="2.82443">
        <ele>101</ele>
        <time>2016-12-11T10:03:48.400Z</time>
      </trkpt>
      <trkpt lat="48.02866" lon="2.82443">
        <ele>101</ele>
        <time>2016-12-11T10:03:49.428Z</time>
      </trkpt>
      <trkpt lat="48.02865" lon="2.82446">
        <ele>102</ele>
        <time>2016-12-11T10:03:50.435Z</time>
      </trkpt>
      <trkpt lat="48.02865" lon="2.82448">
        <ele>102</ele>
        <time>2016-12-11T10:03:51.423Z</time>
      </trkpt>
      <trkpt lat="48.02865" lon="2.82448">
        <ele>102</ele>
        <time>2016-12-11T10:03:52.410Z</time>
      </trkpt>
      <trkpt lat="48.02864" lon="2.8245">
        <ele>102</ele>
        <time>2016-12-11T10:03:53.398Z</time>
      </trkpt>
      <trkpt lat="48.02863" lon="2.82451">
        <ele>102</ele>
        <time>2016-12-11T10:03:54.423Z</time>
      </trkpt>
      <trkpt lat="48.02863" lon="2.82451">
        <ele>102</ele>
        <time>2016-12-11T10:03:55.408Z</time>
      </trkpt>
      <trkpt lat="48.02862" lon="2.82456">
        <ele>103</ele>
        <time>2016-12-11T10:03:56.422Z</time>
      </trkpt>
      <trkpt lat="48.02862" lon="2.82457">
        <ele>103</ele>
        <time>2016-12-11T10:03:57.439Z</time>
      </trkpt>
      <trkpt lat="48.02862" lon="2.82457">
        <ele>103</ele>
        <time>2016-12-11T10:03:58.400Z</time>
      </trkpt>
      <trkpt lat="48.02861" lon="2.8246">
        <ele>103</ele>
        <time>2016-12-11T10:03:59.407Z</time>
      </trkpt>
      <trkpt lat="48.0286" lon="2.82463">
        <ele>103</ele>
        <time>2016-12-11T10:04:00.410Z</time>
      </trkpt>
      <trkpt lat="48.0286" lon="2.82463">
        <ele>103</ele>
        <time>2016-12-11T10:04:01.399Z</time>
      </trkpt>
      <trkpt lat="48.02859" lon="2.82466">
        <ele>104</ele>
        <time>2016-12-11T10:04:02.410Z</time>
      </trkpt>
      <trkpt lat="48.02858" lon="2.82467">
        <ele>104</ele>
        <time>2016-12-11T10:04:03.400Z</time>
      </trkpt>
      <trkpt lat="48.02858" lon="2.82467">
        <ele>104</ele>
        <time>2016-12-11T10:04:04.426Z</time>
      </trkpt>
      <trkpt lat="48.02857" lon="2.8247">
        <ele>104</ele>
        <time>2016-12-11T10:04:05.401Z</time>
      </trkpt>
      <trkpt lat="48.02857" lon="2.8247">
        <ele>104</ele>
        <time>2016-12-11T10:04:06.425Z</time>
      </trkpt>
      <trkpt lat="48.02856" lon="2.82474">
        <ele>104</ele>
        <time>2016-12-11T10:04:07.398Z</time>
      </trkpt>
      <trkpt lat="48.02856" lon="2.82474">
        <ele>104</ele>
        <time>2016-12-11T10:04:08.424Z</time>
      </trkpt>
      <trkpt lat="48.02855" lon="2.82478">
        <ele>105</ele>
        <time>2016-12-11T10:04:09.431Z</time>
      </trkpt>
      <trkpt lat="48.02855" lon="2.82478">
        <ele>105</ele>
        <time>2016-12-11T10:04:10.415Z</time>
      </trkpt>
      <trkpt lat="48.02855" lon="2.82481">
        <ele>105</ele>
        <time>2016-12-11T10:04:11.430Z</time>
      </trkpt>
      <trkpt lat="48.02855" lon="2.82483">
        <ele>105</ele>
        <time>2016-12-11T10:04:12.398Z</time>
      </trkpt>
      <trkpt lat="48.02855" lon="2.82483">
        <ele>105</ele>
        <time>2016-12-11T10:04:13.423Z</time>
      </trkpt>
      <trkpt lat="48.02855" lon="2.82487">
        <ele>106</ele>
        <time>2016-12-11T10:04:14.420Z</time>
      </trkpt>
      <trkpt lat="48.02855" lon="2.82488">
        <ele>106</ele>
        <time>2016-12-11T10:04:15.412Z</time>
      </trkpt>
      <trkpt lat="48.02855" lon="2.82488">
        <ele>106</ele>
        <time>2016-12-11T10:04:16.403Z</time>
      </trkpt>
      <trkpt lat="48.02855" lon="2.82491">
        <ele>106</ele>
        <time>2016-12-11T10:04:17.400Z</time>
      </trkpt>
      <trkpt lat="48.02855" lon="2.82493">
        <ele>106</ele>
        <time>2016-12-11T10:04:18.424Z</time>
      </trkpt>
      <trkpt lat="48.02855" lon="2.82493">
        <ele>106</ele>
        <time>2016-12-11T10:04:19.409Z</time>
      </trkpt>
      <trkpt lat="48.02855" lon="2.82497">
        <ele>106</ele>
        <time>2016-12-11T10:04:20.418Z</time>
      </trkpt>
      <trkpt lat="48.02855" lon="2.82497">
        <ele>106</ele>
        <time>2016-12-11T10:04:21.412Z</time>
      </trkpt>
      <trkpt lat="48.02854" lon="2.825">
        <ele>106</ele>
        <time>2016-12-11T10:04:22.406Z</time>
      </trkpt>
      <trkpt lat="48.02854" lon="2.825">
        <ele>106</ele>
        <time>2016-12-11T10:04:23.433Z</time>
      </trkpt>
      <trkpt lat="48.02853" lon="2.82503">
        <ele>107</ele>
        <time>2016-12-11T10:04:24.409Z</time>
      </trkpt>
      <trkpt lat="48.02853" lon="2.82503">
        <ele>107</ele>
        <time>2016-12-11T10:04:25.435Z</time>
      </trkpt>
      <trkpt lat="48.02853" lon="2.82506">
        <ele>107</ele>
        <time>2016-12-11T10:04:26.417Z</time>
      </trkpt>
      <trkpt lat="48.02853" lon="2.82506">
        <ele>107</ele>
        <time>2016-12-11T10:04:27.403Z</time>
      </trkpt>
      <trkpt lat="48.02851" lon="2.82508">
        <ele>107</ele>
        <time>2016-12-11T10:04:28.411Z</time>
      </trkpt>
      <trkpt lat="48.02851" lon="2.82509">
        <ele>108</ele>
        <time>2016-12-11T10:04:29.419Z</time>
      </trkpt>
      <trkpt lat="48.0285" lon="2.8251">
        <ele>108</ele>
        <time>2016-12-11T10:04:30.415Z</time>
      </trkpt>
      <trkpt lat="48.0285" lon="2.8251">
        <ele>108</ele>
        <time>2016-12-11T10:04:31.434Z</time>
      </trkpt>
      <trkpt lat="48.02849" lon="2.82514">
        <ele>108</ele>
        <time>2016-12-11T10:04:32.405Z</time>
      </trkpt>
      <trkpt lat="48.02849" lon="2.82514">
        <ele>108</ele>
        <time>2016-12-11T10:04:33.430Z</time>
      </trkpt>
      <trkpt lat="48.02848" lon="2.82517">
        <ele>109</ele>
        <time>2016-12-11T10:04:34.397Z</time>
      </trkpt>
      <trkpt lat="48.02848" lon="2.82517">
        <ele>109</ele>
        <time>2016-12-11T10:04:35.422Z</time>
      </trkpt>
      <trkpt lat="48.02847" lon="2.8252">
        <ele>109</ele>
        <time>2016-12-11T10:04:36.396Z</time>
      </trkpt>
      <trkpt lat="48.02847" lon="2.8252">
        <ele>109</ele>
        <time>2016-12-11T10:04:37.413Z</time>
      </trkpt>
      <trkpt lat="48.02847" lon="2.82523">
        <ele>109</ele>
        <time>2016-12-11T10:04:38.420Z</time>
      </trkpt>
      <trkpt lat="48.02847" lon="2.82523">
        <ele>109</ele>
        <time>2016-12-11T10:04:39.408Z</time>
      </trkpt>
      <trkpt lat="48.02846" lon="2.82526">
        <ele>110</ele>
        <time>2016-12-11T10:04:40.435Z</time>
      </trkpt>
      <trkpt lat="48.02846" lon="2.82526">
        <ele>110</ele>
        <time>2016-12-11T10:04:41.418Z</time>
      </trkpt>
      <trkpt lat="48.02845" lon="2.82529">
        <ele>110</ele>
        <time>2016-12-11T10:04:42.417Z</time>
      </trkpt>
      <trkpt lat="48.02845" lon="2.82529">
        <ele>110</ele>
        <time>2016-12-11T10:04:43.403Z</time>
      </trkpt>
      <trkpt lat="48.02844" lon="2.82534">
        <ele>111</ele>
        <time>2016-12-11T10:04:44.410Z</time>
      </trkpt>
      <trkpt lat="48.02844" lon="2.82534">
        <ele>111</ele>
        <time>2016-12-11T10:04:45.431Z</time>
      </trkpt>
      <trkpt lat="48.02844" lon="2.82539">
        <ele>111</ele>
        <time>2016-12-11T10:04:46.416Z</time>
      </trkpt>
      <trkpt lat="48.02844" lon="2.82539">
        <ele>111</ele>
        <time>2016-12-11T10:04:47.435Z</time>
      </trkpt>
      <trkpt lat="48.02844" lon="2.82543">
        <ele>111</ele>
        <time>2016-12-11T10:04:48.409Z</time>
      </trkpt>
      <trkpt lat="48.02844" lon="2.82543">
        <ele>111</ele>
        <time>2016-12-11T10:04:49.432Z</time>
      </trkpt>
      <trkpt lat="48.02846" lon="2.82547">
        <ele>112</ele>
        <time>2016-12-11T10:04:50.399Z</time>
      </trkpt>
      <trkpt lat="48.02846" lon="2.82548">
        <ele>112</ele>
        <time>2016-12-11T10:04:51.410Z</time>
      </trkpt>
      <trkpt lat="48.02846" lon="2.8255">
        <ele>112</ele>
        <time>2016-12-11T10:04:52.396Z</time>
      </trkpt>
      <trkpt lat="48.02846" lon="2.8255">
        <ele>112</ele>
        <time>2016-12-11T10:04:53.421Z</time>
      </trkpt>
      <trkpt lat="48.02847" lon="2.82554">
        <ele>112</ele>
        <time>2016-12-11T10:04:54.415Z</time>
      </trkpt>
      <trkpt lat="48.02847" lon="2.82554">
        <ele>112</ele>
        <time>2016-12-11T10:04:55.421Z</time>
      </trkpt>
      <trkpt lat="48.02846" lon="2.82556">
        <ele>113</ele>
        <time>2016-12-11T10:04:56.400Z</time>
      </trkpt>
      <trkpt lat="48.02846" lon="2.82556">
        <ele>113</ele>
        <time>2016-12-11T10:04:57.404Z</time>
      </trkpt>
      <trkpt lat="48.02843" lon="2.82559">
        <ele>113</ele>
        <time>2016-12-11T10:04:58.414Z</time>
      </trkpt>
      <trkpt lat="48.02841" lon="2.8256">
        <ele>113</ele>
        <time>2016-12-11T10:04:59.408Z</time>
      </trkpt>
      <trkpt lat="48.02841" lon="2.8256">
        <ele>113</ele>
        <time>2016-12-11T10:05:00.432Z</time>
      </trkpt>
      <trkpt lat="48.02838" lon="2.82562">
        <ele>113</ele>
        <time>2016-12-11T10:05:01.432Z</time>
      </trkpt>
      <trkpt lat="48.02838" lon="2.82562">
        <ele>113</ele>
        <time>2016-12-11T10:05:02.417Z</time>
      </trkpt>
      <trkpt lat="48.02834" lon="2.82565">
        <ele>113</ele>
        <time>2016-12-11T10:05:03.424Z</time>
      </trkpt>
      <trkpt lat="48.02831" lon="2.82566">
        <ele>113</ele>
        <time>2016-12-11T10:05:04.404Z</time>
      </trkpt>
      <trkpt lat="48.02829" lon="2.82568">
        <ele>114</ele>
        <time>2016-12-11T10:05:05.401Z</time>
      </trkpt>
      <trkpt lat="48.02825" lon="2.82569">
        <ele>114</ele>
        <time>2016-12-11T10:05:06.425Z</time>
      </trkpt>
      <trkpt lat="48.02825" lon="2.82569">
        <ele>114</ele>
        <time>2016-12-11T10:05:07.413Z</time>
      </trkpt>
      <trkpt lat="48.0282" lon="2.82571">
        <ele>114</ele>
        <time>2016-12-11T10:05:08.420Z</time>
      </trkpt>
      <trkpt lat="48.02818" lon="2.82572">
        <ele>114</ele>
        <time>2016-12-11T10:05:09.401Z</time>
      </trkpt>
      <trkpt lat="48.02818" lon="2.82572">
        <ele>114</ele>
        <time>2016-12-11T10:05:10.427Z</time>
      </trkpt>
      <trkpt lat="48.02813" lon="2.82574">
        <ele>114</ele>
        <time>2016-12-11T10:05:11.435Z</time>
      </trkpt>
      <trkpt lat="48.02811" lon="2.82576">
        <ele>115</ele>
        <time>2016-12-11T10:05:12.410Z</time>
      </trkpt>
      <trkpt lat="48.02811" lon="2.82576">
        <ele>115</ele>
        <time>2016-12-11T10:05:13.417Z</time>
      </trkpt>
      <trkpt lat="48.02806" lon="2.82579">
        <ele>115</ele>
        <time>2016-12-11T10:05:14.424Z</time>
      </trkpt>
      <trkpt lat="48.02806" lon="2.82579">
        <ele>115</ele>
        <time>2016-12-11T10:05:15.405Z</time>
      </trkpt>
      <trkpt lat="48.02801" lon="2.82581">
        <ele>114</ele>
        <time>2016-12-11T10:05:16.407Z</time>
      </trkpt>
      <trkpt lat="48.02801" lon="2.82581">
        <ele>114</ele>
        <time>2016-12-11T10:05:17.410Z</time>
      </trkpt>
      <trkpt lat="48.02795" lon="2.82583">
        <ele>114</ele>
        <time>2016-12-11T10:05:18.430Z</time>
      </trkpt>
      <trkpt lat="48.02795" lon="2.82583">
        <ele>114</ele>
        <time>2016-12-11T10:05:19.415Z</time>
      </trkpt>
      <trkpt lat="48.0279" lon="2.82587">
        <ele>114</ele>
        <time>2016-12-11T10:05:20.424Z</time>
      </trkpt>
      <trkpt lat="48.0279" lon="2.82587">
        <ele>114</ele>
        <time>2016-12-11T10:05:21.431Z</time>
      </trkpt>
      <trkpt lat="48.02785" lon="2.82591">
        <ele>114</ele>
        <time>2016-12-11T10:05:22.402Z</time>
      </trkpt>
      <trkpt lat="48.02785" lon="2.82591">
        <ele>114</ele>
        <time>2016-12-11T10:05:23.429Z</time>
      </trkpt>
      <trkpt lat="48.02781" lon="2.82595">
        <ele>113</ele>
        <time>2016-12-11T10:05:24.410Z</time>
      </trkpt>
      <trkpt lat="48.02781" lon="2.82595">
        <ele>113</ele>
        <time>2016-12-11T10:05:25.404Z</time>
      </trkpt>
      <trkpt lat="48.02776" lon="2.826">
        <ele>113</ele>
        <time>2016-12-11T10:05:26.410Z</time>
      </trkpt>
      <trkpt lat="48.02776" lon="2.826">
        <ele>113</ele>
        <time>2016-12-11T10:05:27.434Z</time>
      </trkpt>
      <trkpt lat="48.0277" lon="2.82603">
        <ele>113</ele>
        <time>2016-12-11T10:05:28.404Z</time>
      </trkpt>
      <trkpt lat="48.0277" lon="2.82603">
        <ele>113</ele>
        <time>2016-12-11T10:05:29.430Z</time>
      </trkpt>
      <trkpt lat="48.02765" lon="2.82607">
        <ele>113</ele>
        <time>2016-12-11T10:05:30.396Z</time>
      </trkpt>
      <trkpt lat="48.02765" lon="2.82607">
        <ele>113</ele>
        <time>2016-12-11T10:05:31.432Z</time>
      </trkpt>
      <trkpt lat="48.02761" lon="2.82611">
        <ele>113</ele>
        <time>2016-12-11T10:05:32.417Z</time>
      </trkpt>
      <trkpt lat="48.02761" lon="2.82611">
        <ele>113</ele>
        <time>2016-12-11T10:05:33.402Z</time>
      </trkpt>
      <trkpt lat="48.02755" lon="2.82614">
        <ele>113</ele>
        <time>2016-12-11T10:05:34.410Z</time>
      </trkpt>
      <trkpt lat="48.02752" lon="2.82616">
        <ele>113</ele>
        <time>2016-12-11T10:05:35.431Z</time>
      </trkpt>
      <trkpt lat="48.02749" lon="2.82618">
        <ele>113</ele>
        <time>2016-12-11T10:05:36.412Z</time>
      </trkpt>
      <trkpt lat="48.02749" lon="2.82618">
        <ele>113</ele>
        <time>2016-12-11T10:05:37.400Z</time>
      </trkpt>
      <trkpt lat="48.02744" lon="2.82624">
        <ele>113</ele>
        <time>2016-12-11T10:05:38.422Z</time>
      </trkpt>
      <trkpt lat="48.02744" lon="2.82624">
        <ele>113</ele>
        <time>2016-12-11T10:05:39.406Z</time>
      </trkpt>
      <trkpt lat="48.02738" lon="2.82629">
        <ele>113</ele>
        <time>2016-12-11T10:05:40.415Z</time>
      </trkpt>
      <trkpt lat="48.02735" lon="2.82631">
        <ele>113</ele>
        <time>2016-12-11T10:05:41.401Z</time>
      </trkpt>
      <trkpt lat="48.02731" lon="2.82633">
        <ele>113</ele>
        <time>2016-12-11T10:05:42.426Z</time>
      </trkpt>
      <trkpt lat="48.02729" lon="2.82636">
        <ele>113</ele>
        <time>2016-12-11T10:05:43.411Z</time>
      </trkpt>
      <trkpt lat="48.02729" lon="2.82636">
        <ele>113</ele>
        <time>2016-12-11T10:05:44.397Z</time>
      </trkpt>
      <trkpt lat="48.02725" lon="2.82641">
        <ele>113</ele>
        <time>2016-12-11T10:05:45.411Z</time>
      </trkpt>
      <trkpt lat="48.02722" lon="2.82644">
        <ele>113</ele>
        <time>2016-12-11T10:05:46.434Z</time>
      </trkpt>
      <trkpt lat="48.02722" lon="2.82644">
        <ele>113</ele>
        <time>2016-12-11T10:05:47.418Z</time>
      </trkpt>
      <trkpt lat="48.02719" lon="2.8265">
        <ele>113</ele>
        <time>2016-12-11T10:05:48.425Z</time>
      </trkpt>
      <trkpt lat="48.02717" lon="2.82654">
        <ele>113</ele>
        <time>2016-12-11T10:05:49.420Z</time>
      </trkpt>
      <trkpt lat="48.02717" lon="2.82654">
        <ele>113</ele>
        <time>2016-12-11T10:05:50.404Z</time>
      </trkpt>
      <trkpt lat="48.02713" lon="2.8266">
        <ele>113</ele>
        <time>2016-12-11T10:05:51.411Z</time>
      </trkpt>
      <trkpt lat="48.02713" lon="2.8266">
        <ele>113</ele>
        <time>2016-12-11T10:05:52.397Z</time>
      </trkpt>
      <trkpt lat="48.02708" lon="2.82666">
        <ele>113</ele>
        <time>2016-12-11T10:05:53.404Z</time>
      </trkpt>
      <trkpt lat="48.02706" lon="2.82669">
        <ele>113</ele>
        <time>2016-12-11T10:05:54.431Z</time>
      </trkpt>
      <trkpt lat="48.02706" lon="2.82669">
        <ele>113</ele>
        <time>2016-12-11T10:05:55.421Z</time>
      </trkpt>
      <trkpt lat="48.02699" lon="2.82675">
        <ele>112</ele>
        <time>2016-12-11T10:05:56.430Z</time>
      </trkpt>
      <trkpt lat="48.02699" lon="2.82675">
        <ele>112</ele>
        <time>2016-12-11T10:05:57.416Z</time>
      </trkpt>
      <trkpt lat="48.02692" lon="2.82682">
        <ele>112</ele>
        <time>2016-12-11T10:05:58.423Z</time>
      </trkpt>
      <trkpt lat="48.02692" lon="2.82682">
        <ele>112</ele>
        <time>2016-12-11T10:05:59.413Z</time>
      </trkpt>
      <trkpt lat="48.02686" lon="2.82688">
        <ele>112</ele>
        <time>2016-12-11T10:06:00.408Z</time>
      </trkpt>
      <trkpt lat="48.02686" lon="2.82688">
        <ele>112</ele>
        <time>2016-12-11T10:06:01.434Z</time>
      </trkpt>
      <trkpt lat="48.02679" lon="2.82694">
        <ele>112</ele>
        <time>2016-12-11T10:06:02.425Z</time>
      </trkpt>
      <trkpt lat="48.02679" lon="2.82694">
        <ele>112</ele>
        <time>2016-12-11T10:06:03.435Z</time>
      </trkpt>
      <trkpt lat="48.02673" lon="2.827">
        <ele>111</ele>
        <time>2016-12-11T10:06:04.406Z</time>
      </trkpt>
      <trkpt lat="48.02673" lon="2.827">
        <ele>111</ele>
        <time>2016-12-11T10:06:05.431Z</time>
      </trkpt>
      <trkpt lat="48.02668" lon="2.82706">
        <ele>111</ele>
        <time>2016-12-11T10:06:06.411Z</time>
      </trkpt>
      <trkpt lat="48.02666" lon="2.82709">
        <ele>111</ele>
        <time>2016-12-11T10:06:07.401Z</time>
      </trkpt>
      <trkpt lat="48.02666" lon="2.82709">
        <ele>111</ele>
        <time>2016-12-11T10:06:08.407Z</time>
      </trkpt>
      <trkpt lat="48.02662" lon="2.82716">
        <ele>110</ele>
        <time>2016-12-11T10:06:09.412Z</time>
      </trkpt>
      <trkpt lat="48.0266" lon="2.82721">
        <ele>111</ele>
        <time>2016-12-11T10:06:10.427Z</time>
      </trkpt>
      <trkpt lat="48.0266" lon="2.82721">
        <ele>111</ele>
        <time>2016-12-11T10:06:11.412Z</time>
      </trkpt>
      <trkpt lat="48.02654" lon="2.82727">
        <ele>111</ele>
        <time>2016-12-11T10:06:12.418Z</time>
      </trkpt>
      <trkpt lat="48.02654" lon="2.82727">
        <ele>111</ele>
        <time>2016-12-11T10:06:13.405Z</time>
      </trkpt>
      <trkpt lat="48.02648" lon="2.82731">
        <ele>111</ele>
        <time>2016-12-11T10:06:14.432Z</time>
      </trkpt>
      <trkpt lat="48.02645" lon="2.82733">
        <ele>111</ele>
        <time>2016-12-11T10:06:15.417Z</time>
      </trkpt>
      <trkpt lat="48.02642" lon="2.82736">
        <ele>110</ele>
        <time>2016-12-11T10:06:16.411Z</time>
      </trkpt>
      <trkpt lat="48.02642" lon="2.82736">
        <ele>110</ele>
        <time>2016-12-11T10:06:17.399Z</time>
      </trkpt>
      <trkpt lat="48.02635" lon="2.82742">
        <ele>111</ele>
        <time>2016-12-11T10:06:18.435Z</time>
      </trkpt>
      <trkpt lat="48.02635" lon="2.82742">
        <ele>111</ele>
        <time>2016-12-11T10:06:19.420Z</time>
      </trkpt>
      <trkpt lat="48.02629" lon="2.82746">
        <ele>111</ele>
        <time>2016-12-11T10:06:20.427Z</time>
      </trkpt>
      <trkpt lat="48.02629" lon="2.82746">
        <ele>111</ele>
        <time>2016-12-11T10:06:21.414Z</time>
      </trkpt>
      <trkpt lat="48.02622" lon="2.82752">
        <ele>110</ele>
        <time>2016-12-11T10:06:22.429Z</time>
      </trkpt>
      <trkpt lat="48.02622" lon="2.82752">
        <ele>110</ele>
        <time>2016-12-11T10:06:23.396Z</time>
      </trkpt>
      <trkpt lat="48.02615" lon="2.82758">
        <ele>111</ele>
        <time>2016-12-11T10:06:24.409Z</time>
      </trkpt>
      <trkpt lat="48.02615" lon="2.82758">
        <ele>111</ele>
        <time>2016-12-11T10:06:25.434Z</time>
      </trkpt>
      <trkpt lat="48.02609" lon="2.82764">
        <ele>111</ele>
        <time>2016-12-11T10:06:26.417Z</time>
      </trkpt>
      <trkpt lat="48.02609" lon="2.82764">
        <ele>111</ele>
        <time>2016-12-11T10:06:27.426Z</time>
      </trkpt>
      <trkpt lat="48.02602" lon="2.82769">
        <ele>112</ele>
        <time>2016-12-11T10:06:28.432Z</time>
      </trkpt>
      <trkpt lat="48.02602" lon="2.82769">
        <ele>112</ele>
        <time>2016-12-11T10:06:29.418Z</time>
      </trkpt>
      <trkpt lat="48.02595" lon="2.82774">
        <ele>111</ele>
        <time>2016-12-11T10:06:30.426Z</time>
      </trkpt>
      <trkpt lat="48.02595" lon="2.82774">
        <ele>111</ele>
        <time>2016-12-11T10:06:31.409Z</time>
      </trkpt>
      <trkpt lat="48.02587" lon="2.82778">
        <ele>111</ele>
        <time>2016-12-11T10:06:32.416Z</time>
      </trkpt>
      <trkpt lat="48.02584" lon="2.82781">
        <ele>111</ele>
        <time>2016-12-11T10:06:33.405Z</time>
      </trkpt>
      <trkpt lat="48.02584" lon="2.82781">
        <ele>111</ele>
        <time>2016-12-11T10:06:34.430Z</time>
      </trkpt>
      <trkpt lat="48.02577" lon="2.82787">
        <ele>112</ele>
        <time>2016-12-11T10:06:35.398Z</time>
      </trkpt>
      <trkpt lat="48.02577" lon="2.82787">
        <ele>112</ele>
        <time>2016-12-11T10:06:36.408Z</time>
      </trkpt>
      <trkpt lat="48.02572" lon="2.82794">
        <ele>112</ele>
        <time>2016-12-11T10:06:37.400Z</time>
      </trkpt>
      <trkpt lat="48.02572" lon="2.82794">
        <ele>112</ele>
        <time>2016-12-11T10:06:38.428Z</time>
      </trkpt>
      <trkpt lat="48.02568" lon="2.82801">
        <ele>111</ele>
        <time>2016-12-11T10:06:39.434Z</time>
      </trkpt>
      <trkpt lat="48.02565" lon="2.82805">
        <ele>111</ele>
        <time>2016-12-11T10:06:40.401Z</time>
      </trkpt>
      <trkpt lat="48.02565" lon="2.82805">
        <ele>111</ele>
        <time>2016-12-11T10:06:41.427Z</time>
      </trkpt>
      <trkpt lat="48.0256" lon="2.82813">
        <ele>111</ele>
        <time>2016-12-11T10:06:42.434Z</time>
      </trkpt>
      <trkpt lat="48.02558" lon="2.82816">
        <ele>111</ele>
        <time>2016-12-11T10:06:43.409Z</time>
      </trkpt>
      <trkpt lat="48.02558" lon="2.82816">
        <ele>111</ele>
        <time>2016-12-11T10:06:44.434Z</time>
      </trkpt>
      <trkpt lat="48.02553" lon="2.82826">
        <ele>111</ele>
        <time>2016-12-11T10:06:45.402Z</time>
      </trkpt>
      <trkpt lat="48.02553" lon="2.82826">
        <ele>111</ele>
        <time>2016-12-11T10:06:46.426Z</time>
      </trkpt>
      <trkpt lat="48.02548" lon="2.82833">
        <ele>110</ele>
        <time>2016-12-11T10:06:47.425Z</time>
      </trkpt>
      <trkpt lat="48.02546" lon="2.82837">
        <ele>110</ele>
        <time>2016-12-11T10:06:48.408Z</time>
      </trkpt>
      <trkpt lat="48.02546" lon="2.82837">
        <ele>110</ele>
        <time>2016-12-11T10:06:49.433Z</time>
      </trkpt>
      <trkpt lat="48.02542" lon="2.82844">
        <ele>110</ele>
        <time>2016-12-11T10:06:50.423Z</time>
      </trkpt>
      <trkpt lat="48.0254" lon="2.82847">
        <ele>110</ele>
        <time>2016-12-11T10:06:51.409Z</time>
      </trkpt>
      <trkpt lat="48.0254" lon="2.82847">
        <ele>110</ele>
        <time>2016-12-11T10:06:52.419Z</time>
      </trkpt>
      <trkpt lat="48.02535" lon="2.82857">
        <ele>111</ele>
        <time>2016-12-11T10:06:53.420Z</time>
      </trkpt>
      <trkpt lat="48.02532" lon="2.8286">
        <ele>112</ele>
        <time>2016-12-11T10:06:54.411Z</time>
      </trkpt>
      <trkpt lat="48.02532" lon="2.8286">
        <ele>112</ele>
        <time>2016-12-11T10:06:55.397Z</time>
      </trkpt>
      <trkpt lat="48.02527" lon="2.82868">
        <ele>112</ele>
        <time>2016-12-11T10:06:56.403Z</time>
      </trkpt>
      <trkpt lat="48.02524" lon="2.82871">
        <ele>112</ele>
        <time>2016-12-11T10:06:57.420Z</time>
      </trkpt>
      <trkpt lat="48.02524" lon="2.82871">
        <ele>112</ele>
        <time>2016-12-11T10:06:58.424Z</time>
      </trkpt>
      <trkpt lat="48.02517" lon="2.82878">
        <ele>112</ele>
        <time>2016-12-11T10:06:59.432Z</time>
      </trkpt>
      <trkpt lat="48.02517" lon="2.82878">
        <ele>112</ele>
        <time>2016-12-11T10:07:00.419Z</time>
      </trkpt>
      <trkpt lat="48.02511" lon="2.82884">
        <ele>112</ele>
        <time>2016-12-11T10:07:01.416Z</time>
      </trkpt>
      <trkpt lat="48.02511" lon="2.82884">
        <ele>112</ele>
        <time>2016-12-11T10:07:02.404Z</time>
      </trkpt>
      <trkpt lat="48.02505" lon="2.82892">
        <ele>113</ele>
        <time>2016-12-11T10:07:03.412Z</time>
      </trkpt>
      <trkpt lat="48.02503" lon="2.82898">
        <ele>114</ele>
        <time>2016-12-11T10:07:04.401Z</time>
      </trkpt>
      <trkpt lat="48.02503" lon="2.82898">
        <ele>114</ele>
        <time>2016-12-11T10:07:05.426Z</time>
      </trkpt>
      <trkpt lat="48.025" lon="2.82909">
        <ele>114</ele>
        <time>2016-12-11T10:07:06.432Z</time>
      </trkpt>
      <trkpt lat="48.025" lon="2.82909">
        <ele>114</ele>
        <time>2016-12-11T10:07:07.417Z</time>
      </trkpt>
      <trkpt lat="48.02497" lon="2.82917">
        <ele>114</ele>
        <time>2016-12-11T10:07:08.428Z</time>
      </trkpt>
      <trkpt lat="48.02496" lon="2.82922">
        <ele>114</ele>
        <time>2016-12-11T10:07:09.424Z</time>
      </trkpt>
      <trkpt lat="48.02494" lon="2.82926">
        <ele>114</ele>
        <time>2016-12-11T10:07:10.407Z</time>
      </trkpt>
      <trkpt lat="48.02494" lon="2.82926">
        <ele>114</ele>
        <time>2016-12-11T10:07:11.418Z</time>
      </trkpt>
      <trkpt lat="48.02492" lon="2.82936">
        <ele>115</ele>
        <time>2016-12-11T10:07:12.415Z</time>
      </trkpt>
      <trkpt lat="48.0249" lon="2.82941">
        <ele>114</ele>
        <time>2016-12-11T10:07:13.417Z</time>
      </trkpt>
      <trkpt lat="48.0249" lon="2.82941">
        <ele>114</ele>
        <time>2016-12-11T10:07:14.404Z</time>
      </trkpt>
      <trkpt lat="48.02486" lon="2.82953">
        <ele>114</ele>
        <time>2016-12-11T10:07:15.430Z</time>
      </trkpt>
      <trkpt lat="48.02486" lon="2.82953">
        <ele>114</ele>
        <time>2016-12-11T10:07:16.419Z</time>
      </trkpt>
      <trkpt lat="48.02481" lon="2.82964">
        <ele>114</ele>
        <time>2016-12-11T10:07:17.401Z</time>
      </trkpt>
      <trkpt lat="48.02479" lon="2.82969">
        <ele>115</ele>
        <time>2016-12-11T10:07:18.407Z</time>
      </trkpt>
      <trkpt lat="48.02477" lon="2.82974">
        <ele>115</ele>
        <time>2016-12-11T10:07:19.433Z</time>
      </trkpt>
      <trkpt lat="48.02477" lon="2.82974">
        <ele>115</ele>
        <time>2016-12-11T10:07:20.415Z</time>
      </trkpt>
      <trkpt lat="48.02473" lon="2.82983">
        <ele>114</ele>
        <time>2016-12-11T10:07:21.427Z</time>
      </trkpt>
      <trkpt lat="48.02473" lon="2.82983">
        <ele>114</ele>
        <time>2016-12-11T10:07:22.409Z</time>
      </trkpt>
      <trkpt lat="48.02466" lon="2.82984">
        <ele>114</ele>
        <time>2016-12-11T10:07:23.416Z</time>
      </trkpt>
      <trkpt lat="48.02463" lon="2.8298">
        <ele>114</ele>
        <time>2016-12-11T10:07:24.410Z</time>
      </trkpt>
      <trkpt lat="48.02463" lon="2.8298">
        <ele>114</ele>
        <time>2016-12-11T10:07:25.396Z</time>
      </trkpt>
      <trkpt lat="48.02457" lon="2.82968">
        <ele>113</ele>
        <time>2016-12-11T10:07:26.405Z</time>
      </trkpt>
      <trkpt lat="48.02454" lon="2.82962">
        <ele>113</ele>
        <time>2016-12-11T10:07:27.432Z</time>
      </trkpt>
      <trkpt lat="48.02454" lon="2.82962">
        <ele>113</ele>
        <time>2016-12-11T10:07:28.419Z</time>
      </trkpt>
      <trkpt lat="48.02446" lon="2.82944">
        <ele>112</ele>
        <time>2016-12-11T10:07:29.404Z</time>
      </trkpt>
      <trkpt lat="48.02441" lon="2.82933">
        <ele>111</ele>
        <time>2016-12-11T10:07:30.433Z</time>
      </trkpt>
      <trkpt lat="48.02441" lon="2.82933">
        <ele>111</ele>
        <time>2016-12-11T10:07:31.419Z</time>
      </trkpt>
      <trkpt lat="48.0243" lon="2.82908">
        <ele>110</ele>
        <time>2016-12-11T10:07:32.431Z</time>
      </trkpt>
      <trkpt lat="48.0243" lon="2.82908">
        <ele>110</ele>
        <time>2016-12-11T10:07:33.417Z</time>
      </trkpt>
      <trkpt lat="48.02421" lon="2.82886">
        <ele>109</ele>
        <time>2016-12-11T10:07:34.405Z</time>
      </trkpt>
      <trkpt lat="48.02417" lon="2.82874">
        <ele>108</ele>
        <time>2016-12-11T10:07:35.413Z</time>
      </trkpt>
      <trkpt lat="48.02413" lon="2.82865">
        <ele>108</ele>
        <time>2016-12-11T10:07:36.398Z</time>
      </trkpt>
      <trkpt lat="48.02413" lon="2.82865">
        <ele>108</ele>
        <time>2016-12-11T10:07:37.422Z</time>
      </trkpt>
      <trkpt lat="48.02408" lon="2.8285">
        <ele>106</ele>
        <time>2016-12-11T10:07:38.400Z</time>
      </trkpt>
      <trkpt lat="48.02406" lon="2.82847">
        <ele>106</ele>
        <time>2016-12-11T10:07:39.430Z</time>
      </trkpt>
      <trkpt lat="48.02406" lon="2.82847">
        <ele>106</ele>
        <time>2016-12-11T10:07:40.415Z</time>
      </trkpt>
      <trkpt lat="48.02402" lon="2.82848">
        <ele>104</ele>
        <time>2016-12-11T10:07:41.434Z</time>
      </trkpt>
      <trkpt lat="48.024" lon="2.82851">
        <ele>104</ele>
        <time>2016-12-11T10:07:42.408Z</time>
      </trkpt>
      <trkpt lat="48.024" lon="2.82851">
        <ele>104</ele>
        <time>2016-12-11T10:07:43.433Z</time>
      </trkpt>
      <trkpt lat="48.02392" lon="2.82858">
        <ele>102</ele>
        <time>2016-12-11T10:07:44.430Z</time>
      </trkpt>
      <trkpt lat="48.02386" lon="2.82864">
        <ele>102</ele>
        <time>2016-12-11T10:07:45.420Z</time>
      </trkpt>
      <trkpt lat="48.02386" lon="2.82864">
        <ele>102</ele>
        <time>2016-12-11T10:07:46.406Z</time>
      </trkpt>
      <trkpt lat="48.02375" lon="2.82874">
        <ele>100</ele>
        <time>2016-12-11T10:07:47.400Z</time>
      </trkpt>
      <trkpt lat="48.02375" lon="2.82874">
        <ele>100</ele>
        <time>2016-12-11T10:07:48.425Z</time>
      </trkpt>
      <trkpt lat="48.02367" lon="2.82881">
        <ele>99</ele>
        <time>2016-12-11T10:07:49.432Z</time>
      </trkpt>
      <trkpt lat="48.02367" lon="2.82881">
        <ele>99</ele>
        <time>2016-12-11T10:07:50.421Z</time>
      </trkpt>
      <trkpt lat="48.02359" lon="2.82888">
        <ele>98</ele>
        <time>2016-12-11T10:07:51.400Z</time>
      </trkpt>
      <trkpt lat="48.02359" lon="2.82888">
        <ele>98</ele>
        <time>2016-12-11T10:07:52.426Z</time>
      </trkpt>
      <trkpt lat="48.02352" lon="2.82896">
        <ele>96</ele>
        <time>2016-12-11T10:07:53.417Z</time>
      </trkpt>
      <trkpt lat="48.02348" lon="2.829">
        <ele>96</ele>
        <time>2016-12-11T10:07:54.425Z</time>
      </trkpt>
      <trkpt lat="48.02348" lon="2.829">
        <ele>96</ele>
        <time>2016-12-11T10:07:55.409Z</time>
      </trkpt>
      <trkpt lat="48.02341" lon="2.82907">
        <ele>94</ele>
        <time>2016-12-11T10:07:56.405Z</time>
      </trkpt>
      <trkpt lat="48.02337" lon="2.82911">
        <ele>94</ele>
        <time>2016-12-11T10:07:57.427Z</time>
      </trkpt>
      <trkpt lat="48.02337" lon="2.82911">
        <ele>94</ele>
        <time>2016-12-11T10:07:58.408Z</time>
      </trkpt>
      <trkpt lat="48.0233" lon="2.82919">
        <ele>93</ele>
        <time>2016-12-11T10:07:59.416Z</time>
      </trkpt>
      <trkpt lat="48.0233" lon="2.82919">
        <ele>93</ele>
        <time>2016-12-11T10:08:00.436Z</time>
      </trkpt>
      <trkpt lat="48.02322" lon="2.82927">
        <ele>92</ele>
        <time>2016-12-11T10:08:01.420Z</time>
      </trkpt>
      <trkpt lat="48.02322" lon="2.82927">
        <ele>92</ele>
        <time>2016-12-11T10:08:02.433Z</time>
      </trkpt>
      <trkpt lat="48.02315" lon="2.82935">
        <ele>91</ele>
        <time>2016-12-11T10:08:03.408Z</time>
      </trkpt>
      <trkpt lat="48.02315" lon="2.82935">
        <ele>91</ele>
        <time>2016-12-11T10:08:04.435Z</time>
      </trkpt>
      <trkpt lat="48.02308" lon="2.82943">
        <ele>91</ele>
        <time>2016-12-11T10:08:05.413Z</time>
      </trkpt>
      <trkpt lat="48.02308" lon="2.82943">
        <ele>91</ele>
        <time>2016-12-11T10:08:06.401Z</time>
      </trkpt>
      <trkpt lat="48.02301" lon="2.82949">
        <ele>91</ele>
        <time>2016-12-11T10:08:07.420Z</time>
      </trkpt>
      <trkpt lat="48.02301" lon="2.82949">
        <ele>91</ele>
        <time>2016-12-11T10:08:08.404Z</time>
      </trkpt>
      <trkpt lat="48.02296" lon="2.82956">
        <ele>91</ele>
        <time>2016-12-11T10:08:09.412Z</time>
      </trkpt>
      <trkpt lat="48.02296" lon="2.82956">
        <ele>91</ele>
        <time>2016-12-11T10:08:10.396Z</time>
      </trkpt>
      <trkpt lat="48.02291" lon="2.82961">
        <ele>92</ele>
        <time>2016-12-11T10:08:11.410Z</time>
      </trkpt>
      <trkpt lat="48.02291" lon="2.82961">
        <ele>92</ele>
        <time>2016-12-11T10:08:12.435Z</time>
      </trkpt>
      <trkpt lat="48.02286" lon="2.82967">
        <ele>91</ele>
        <time>2016-12-11T10:08:13.402Z</time>
      </trkpt>
      <trkpt lat="48.02286" lon="2.82967">
        <ele>91</ele>
        <time>2016-12-11T10:08:14.426Z</time>
      </trkpt>
      <trkpt lat="48.02282" lon="2.82971">
        <ele>91</ele>
        <time>2016-12-11T10:08:15.410Z</time>
      </trkpt>
      <trkpt lat="48.02282" lon="2.82971">
        <ele>91</ele>
        <time>2016-12-11T10:08:16.426Z</time>
      </trkpt>
      <trkpt lat="48.02277" lon="2.82975">
        <ele>91</ele>
        <time>2016-12-11T10:08:17.397Z</time>
      </trkpt>
      <trkpt lat="48.02275" lon="2.82977">
        <ele>91</ele>
        <time>2016-12-11T10:08:18.425Z</time>
      </trkpt>
      <trkpt lat="48.02273" lon="2.8298">
        <ele>91</ele>
        <time>2016-12-11T10:08:19.433Z</time>
      </trkpt>
      <trkpt lat="48.02273" lon="2.8298">
        <ele>91</ele>
        <time>2016-12-11T10:08:20.418Z</time>
      </trkpt>
      <trkpt lat="48.02269" lon="2.82984">
        <ele>92</ele>
        <time>2016-12-11T10:08:21.410Z</time>
      </trkpt>
      <trkpt lat="48.02269" lon="2.82984">
        <ele>92</ele>
        <time>2016-12-11T10:08:22.396Z</time>
      </trkpt>
      <trkpt lat="48.02266" lon="2.82987">
        <ele>92</ele>
        <time>2016-12-11T10:08:23.404Z</time>
      </trkpt>
      <trkpt lat="48.02265" lon="2.82989">
        <ele>92</ele>
        <time>2016-12-11T10:08:24.402Z</time>
      </trkpt>
      <trkpt lat="48.02265" lon="2.82989">
        <ele>92</ele>
        <time>2016-12-11T10:08:25.428Z</time>
      </trkpt>
      <trkpt lat="48.02262" lon="2.82991">
        <ele>92</ele>
        <time>2016-12-11T10:08:26.435Z</time>
      </trkpt>
      <trkpt lat="48.02261" lon="2.82992">
        <ele>92</ele>
        <time>2016-12-11T10:08:27.397Z</time>
      </trkpt>
      <trkpt lat="48.02261" lon="2.82992">
        <ele>92</ele>
        <time>2016-12-11T10:08:28.423Z</time>
      </trkpt>
      <trkpt lat="48.02258" lon="2.82994">
        <ele>92</ele>
        <time>2016-12-11T10:08:29.430Z</time>
      </trkpt>
      <trkpt lat="48.02256" lon="2.82995">
        <ele>92</ele>
        <time>2016-12-11T10:08:30.406Z</time>
      </trkpt>
      <trkpt lat="48.02256" lon="2.82995">
        <ele>92</ele>
        <time>2016-12-11T10:08:31.431Z</time>
      </trkpt>
      <trkpt lat="48.02254" lon="2.82996">
        <ele>92</ele>
        <time>2016-12-11T10:08:32.397Z</time>
      </trkpt>
      <trkpt lat="48.02252" lon="2.82996">
        <ele>92</ele>
        <time>2016-12-11T10:08:33.408Z</time>
      </trkpt>
      <trkpt lat="48.02252" lon="2.82996">
        <ele>92</ele>
        <time>2016-12-11T10:08:34.435Z</time>
      </trkpt>
      <trkpt lat="48.0225" lon="2.82999">
        <ele>93</ele>
        <time>2016-12-11T10:08:35.408Z</time>
      </trkpt>
      <trkpt lat="48.02249" lon="2.83">
        <ele>94</ele>
        <time>2016-12-11T10:08:36.432Z</time>
      </trkpt>
      <trkpt lat="48.02249" lon="2.83">
        <ele>94</ele>
        <time>2016-12-11T10:08:37.416Z</time>
      </trkpt>
      <trkpt lat="48.02246" lon="2.83003">
        <ele>94</ele>
        <time>2016-12-11T10:08:38.433Z</time>
      </trkpt>
      <trkpt lat="48.02245" lon="2.83004">
        <ele>94</ele>
        <time>2016-12-11T10:08:39.418Z</time>
      </trkpt>
      <trkpt lat="48.02245" lon="2.83004">
        <ele>94</ele>
        <time>2016-12-11T10:08:40.408Z</time>
      </trkpt>
      <trkpt lat="48.02242" lon="2.83006">
        <ele>94</ele>
        <time>2016-12-11T10:08:41.427Z</time>
      </trkpt>
      <trkpt lat="48.02242" lon="2.83006">
        <ele>94</ele>
        <time>2016-12-11T10:08:42.412Z</time>
      </trkpt>
      <trkpt lat="48.0224" lon="2.83007">
        <ele>95</ele>
        <time>2016-12-11T10:08:43.418Z</time>
      </trkpt>
      <trkpt lat="48.02239" lon="2.83008">
        <ele>95</ele>
        <time>2016-12-11T10:08:44.401Z</time>
      </trkpt>
      <trkpt lat="48.02239" lon="2.83008">
        <ele>95</ele>
        <time>2016-12-11T10:08:45.425Z</time>
      </trkpt>
      <trkpt lat="48.02237" lon="2.8301">
        <ele>95</ele>
        <time>2016-12-11T10:08:46.432Z</time>
      </trkpt>
      <trkpt lat="48.02236" lon="2.83011">
        <ele>96</ele>
        <time>2016-12-11T10:08:47.409Z</time>
      </trkpt>
      <trkpt lat="48.02236" lon="2.83011">
        <ele>96</ele>
        <time>2016-12-11T10:08:48.431Z</time>
      </trkpt>
      <trkpt lat="48.02233" lon="2.83014">
        <ele>97</ele>
        <time>2016-12-11T10:08:49.403Z</time>
      </trkpt>
      <trkpt lat="48.02232" lon="2.83015">
        <ele>97</ele>
        <time>2016-12-11T10:08:50.434Z</time>
      </trkpt>
      <trkpt lat="48.02232" lon="2.83015">
        <ele>97</ele>
        <time>2016-12-11T10:08:51.420Z</time>
      </trkpt>
      <trkpt lat="48.02229" lon="2.83018">
        <ele>98</ele>
        <time>2016-12-11T10:08:52.427Z</time>
      </trkpt>
      <trkpt lat="48.02229" lon="2.83018">
        <ele>98</ele>
        <time>2016-12-11T10:08:53.414Z</time>
      </trkpt>
      <trkpt lat="48.02226" lon="2.8302">
        <ele>98</ele>
        <time>2016-12-11T10:08:54.410Z</time>
      </trkpt>
      <trkpt lat="48.02226" lon="2.8302">
        <ele>98</ele>
        <time>2016-12-11T10:08:55.398Z</time>
      </trkpt>
      <trkpt lat="48.02224" lon="2.83022">
        <ele>99</ele>
        <time>2016-12-11T10:08:56.411Z</time>
      </trkpt>
      <trkpt lat="48.02224" lon="2.83022">
        <ele>99</ele>
        <time>2016-12-11T10:08:57.435Z</time>
      </trkpt>
      <trkpt lat="48.02221" lon="2.83025">
        <ele>99</ele>
        <time>2016-12-11T10:08:58.422Z</time>
      </trkpt>
      <trkpt lat="48.02221" lon="2.83025">
        <ele>99</ele>
        <time>2016-12-11T10:08:59.422Z</time>
      </trkpt>
      <trkpt lat="48.02219" lon="2.83029">
        <ele>99</ele>
        <time>2016-12-11T10:09:00.429Z</time>
      </trkpt>
      <trkpt lat="48.02219" lon="2.83029">
        <ele>99</ele>
        <time>2016-12-11T10:09:01.416Z</time>
      </trkpt>
      <trkpt lat="48.02218" lon="2.83031">
        <ele>99</ele>
        <time>2016-12-11T10:09:02.420Z</time>
      </trkpt>
      <trkpt lat="48.02218" lon="2.83031">
        <ele>99</ele>
        <time>2016-12-11T10:09:03.423Z</time>
      </trkpt>
      <trkpt lat="48.02216" lon="2.83033">
        <ele>100</ele>
        <time>2016-12-11T10:09:04.429Z</time>
      </trkpt>
      <trkpt lat="48.02215" lon="2.83034">
        <ele>100</ele>
        <time>2016-12-11T10:09:05.400Z</time>
      </trkpt>
      <trkpt lat="48.02214" lon="2.83035">
        <ele>100</ele>
        <time>2016-12-11T10:09:06.424Z</time>
      </trkpt>
      <trkpt lat="48.02214" lon="2.83035">
        <ele>100</ele>
        <time>2016-12-11T10:09:07.408Z</time>
      </trkpt>
      <trkpt lat="48.02212" lon="2.83037">
        <ele>101</ele>
        <time>2016-12-11T10:09:08.431Z</time>
      </trkpt>
      <trkpt lat="48.02211" lon="2.83038">
        <ele>101</ele>
        <time>2016-12-11T10:09:09.422Z</time>
      </trkpt>
      <trkpt lat="48.0221" lon="2.83039">
        <ele>101</ele>
        <time>2016-12-11T10:09:10.409Z</time>
      </trkpt>
      <trkpt lat="48.0221" lon="2.83039">
        <ele>101</ele>
        <time>2016-12-11T10:09:11.434Z</time>
      </trkpt>
      <trkpt lat="48.02208" lon="2.83042">
        <ele>102</ele>
        <time>2016-12-11T10:09:12.401Z</time>
      </trkpt>
      <trkpt lat="48.02207" lon="2.83043">
        <ele>102</ele>
        <time>2016-12-11T10:09:13.413Z</time>
      </trkpt>
      <trkpt lat="48.02207" lon="2.83043">
        <ele>102</ele>
        <time>2016-12-11T10:09:14.397Z</time>
      </trkpt>
      <trkpt lat="48.02205" lon="2.83046">
        <ele>102</ele>
        <time>2016-12-11T10:09:15.406Z</time>
      </trkpt>
      <trkpt lat="48.02205" lon="2.83046">
        <ele>102</ele>
        <time>2016-12-11T10:09:16.431Z</time>
      </trkpt>
      <trkpt lat="48.02203" lon="2.83048">
        <ele>103</ele>
        <time>2016-12-11T10:09:17.418Z</time>
      </trkpt>
      <trkpt lat="48.02202" lon="2.83049">
        <ele>104</ele>
        <time>2016-12-11T10:09:18.421Z</time>
      </trkpt>
      <trkpt lat="48.02202" lon="2.83049">
        <ele>104</ele>
        <time>2016-12-11T10:09:19.412Z</time>
      </trkpt>
      <trkpt lat="48.02199" lon="2.83052">
        <ele>104</ele>
        <time>2016-12-11T10:09:20.419Z</time>
      </trkpt>
      <trkpt lat="48.02199" lon="2.83052">
        <ele>104</ele>
        <time>2016-12-11T10:09:21.406Z</time>
      </trkpt>
      <trkpt lat="48.02197" lon="2.83054">
        <ele>104</ele>
        <time>2016-12-11T10:09:22.421Z</time>
      </trkpt>
      <trkpt lat="48.02195" lon="2.83055">
        <ele>105</ele>
        <time>2016-12-11T10:09:23.409Z</time>
      </trkpt>
      <trkpt lat="48.02194" lon="2.83055">
        <ele>105</ele>
        <time>2016-12-11T10:09:24.435Z</time>
      </trkpt>
      <trkpt lat="48.02194" lon="2.83055">
        <ele>105</ele>
        <time>2016-12-11T10:09:25.421Z</time>
      </trkpt>
      <trkpt lat="48.02192" lon="2.83058">
        <ele>105</ele>
        <time>2016-12-11T10:09:26.429Z</time>
      </trkpt>
      <trkpt lat="48.02191" lon="2.8306">
        <ele>105</ele>
        <time>2016-12-11T10:09:27.434Z</time>
      </trkpt>
      <trkpt lat="48.02191" lon="2.8306">
        <ele>105</ele>
        <time>2016-12-11T10:09:28.417Z</time>
      </trkpt>
      <trkpt lat="48.02188" lon="2.83062">
        <ele>105</ele>
        <time>2016-12-11T10:09:29.424Z</time>
      </trkpt>
      <trkpt lat="48.02188" lon="2.83062">
        <ele>105</ele>
        <time>2016-12-11T10:09:30.414Z</time>
      </trkpt>
      <trkpt lat="48.02186" lon="2.83064">
        <ele>105</ele>
        <time>2016-12-11T10:09:31.416Z</time>
      </trkpt>
      <trkpt lat="48.02186" lon="2.83064">
        <ele>105</ele>
        <time>2016-12-11T10:09:32.407Z</time>
      </trkpt>
      <trkpt lat="48.02184" lon="2.83067">
        <ele>105</ele>
        <time>2016-12-11T10:09:33.414Z</time>
      </trkpt>
      <trkpt lat="48.02183" lon="2.83068">
        <ele>105</ele>
        <time>2016-12-11T10:09:34.410Z</time>
      </trkpt>
      <trkpt lat="48.02183" lon="2.83068">
        <ele>105</ele>
        <time>2016-12-11T10:09:35.397Z</time>
      </trkpt>
      <trkpt lat="48.02181" lon="2.83071">
        <ele>106</ele>
        <time>2016-12-11T10:09:36.408Z</time>
      </trkpt>
      <trkpt lat="48.0218" lon="2.83072">
        <ele>106</ele>
        <time>2016-12-11T10:09:37.430Z</time>
      </trkpt>
      <trkpt lat="48.0218" lon="2.83072">
        <ele>106</ele>
        <time>2016-12-11T10:09:38.405Z</time>
      </trkpt>
      <trkpt lat="48.02178" lon="2.83075">
        <ele>105</ele>
        <time>2016-12-11T10:09:39.415Z</time>
      </trkpt>
      <trkpt lat="48.02178" lon="2.83075">
        <ele>105</ele>
        <time>2016-12-11T10:09:40.412Z</time>
      </trkpt>
      <trkpt lat="48.02175" lon="2.83077">
        <ele>105</ele>
        <time>2016-12-11T10:09:41.422Z</time>
      </trkpt>
      <trkpt lat="48.02175" lon="2.83077">
        <ele>105</ele>
        <time>2016-12-11T10:09:42.408Z</time>
      </trkpt>
      <trkpt lat="48.02172" lon="2.8308">
        <ele>106</ele>
        <time>2016-12-11T10:09:43.415Z</time>
      </trkpt>
      <trkpt lat="48.02171" lon="2.83082">
        <ele>106</ele>
        <time>2016-12-11T10:09:44.400Z</time>
      </trkpt>
      <trkpt lat="48.0217" lon="2.83083">
        <ele>106</ele>
        <time>2016-12-11T10:09:45.430Z</time>
      </trkpt>
      <trkpt lat="48.0217" lon="2.83083">
        <ele>106</ele>
        <time>2016-12-11T10:09:46.413Z</time>
      </trkpt>
      <trkpt lat="48.02168" lon="2.83087">
        <ele>107</ele>
        <time>2016-12-11T10:09:47.401Z</time>
      </trkpt>
      <trkpt lat="48.02168" lon="2.83087">
        <ele>107</ele>
        <time>2016-12-11T10:09:48.427Z</time>
      </trkpt>
      <trkpt lat="48.02165" lon="2.83089">
        <ele>107</ele>
        <time>2016-12-11T10:09:49.434Z</time>
      </trkpt>
      <trkpt lat="48.02165" lon="2.83089">
        <ele>107</ele>
        <time>2016-12-11T10:09:50.419Z</time>
      </trkpt>
      <trkpt lat="48.02163" lon="2.83092">
        <ele>107</ele>
        <time>2016-12-11T10:09:51.397Z</time>
      </trkpt>
      <trkpt lat="48.02163" lon="2.83092">
        <ele>107</ele>
        <time>2016-12-11T10:09:52.426Z</time>
      </trkpt>
      <trkpt lat="48.02161" lon="2.83094">
        <ele>107</ele>
        <time>2016-12-11T10:09:53.433Z</time>
      </trkpt>
      <trkpt lat="48.0216" lon="2.83095">
        <ele>107</ele>
        <time>2016-12-11T10:09:54.412Z</time>
      </trkpt>
      <trkpt lat="48.0216" lon="2.83095">
        <ele>107</ele>
        <time>2016-12-11T10:09:55.435Z</time>
      </trkpt>
      <trkpt lat="48.02158" lon="2.83097">
        <ele>107</ele>
        <time>2016-12-11T10:09:56.406Z</time>
      </trkpt>
      <trkpt lat="48.02158" lon="2.83097">
        <ele>107</ele>
        <time>2016-12-11T10:09:57.434Z</time>
      </trkpt>
      <trkpt lat="48.02156" lon="2.831">
        <ele>108</ele>
        <time>2016-12-11T10:09:58.420Z</time>
      </trkpt>
      <trkpt lat="48.02156" lon="2.831">
        <ele>108</ele>
        <time>2016-12-11T10:09:59.410Z</time>
      </trkpt>
      <trkpt lat="48.02153" lon="2.83102">
        <ele>109</ele>
        <time>2016-12-11T10:10:00.417Z</time>
      </trkpt>
      <trkpt lat="48.02153" lon="2.83102">
        <ele>109</ele>
        <time>2016-12-11T10:10:01.434Z</time>
      </trkpt>
      <trkpt lat="48.02152" lon="2.83106">
        <ele>110</ele>
        <time>2016-12-11T10:10:02.410Z</time>
      </trkpt>
      <trkpt lat="48.02152" lon="2.83106">
        <ele>110</ele>
        <time>2016-12-11T10:10:03.424Z</time>
      </trkpt>
      <trkpt lat="48.0215" lon="2.83108">
        <ele>110</ele>
        <time>2016-12-11T10:10:04.431Z</time>
      </trkpt>
      <trkpt lat="48.0215" lon="2.83108">
        <ele>110</ele>
        <time>2016-12-11T10:10:05.416Z</time>
      </trkpt>
      <trkpt lat="48.02147" lon="2.83111">
        <ele>111</ele>
        <time>2016-12-11T10:10:06.410Z</time>
      </trkpt>
      <trkpt lat="48.02147" lon="2.83111">
        <ele>111</ele>
        <time>2016-12-11T10:10:07.397Z</time>
      </trkpt>
      <trkpt lat="48.02145" lon="2.83114">
        <ele>111</ele>
        <time>2016-12-11T10:10:08.404Z</time>
      </trkpt>
      <trkpt lat="48.02144" lon="2.83116">
        <ele>112</ele>
        <time>2016-12-11T10:10:09.431Z</time>
      </trkpt>
      <trkpt lat="48.02144" lon="2.83116">
        <ele>112</ele>
        <time>2016-12-11T10:10:10.416Z</time>
      </trkpt>
      <trkpt lat="48.02142" lon="2.83119">
        <ele>112</ele>
        <time>2016-12-11T10:10:11.423Z</time>
      </trkpt>
      <trkpt lat="48.02142" lon="2.83119">
        <ele>112</ele>
        <time>2016-12-11T10:10:12.408Z</time>
      </trkpt>
      <trkpt lat="48.0214" lon="2.83122">
        <ele>112</ele>
        <time>2016-12-11T10:10:13.410Z</time>
      </trkpt>
      <trkpt lat="48.0214" lon="2.83122">
        <ele>112</ele>
        <time>2016-12-11T10:10:14.396Z</time>
      </trkpt>
      <trkpt lat="48.02138" lon="2.83125">
        <ele>112</ele>
        <time>2016-12-11T10:10:15.413Z</time>
      </trkpt>
      <trkpt lat="48.02136" lon="2.83126">
        <ele>112</ele>
        <time>2016-12-11T10:10:16.420Z</time>
      </trkpt>
      <trkpt lat="48.02136" lon="2.83126">
        <ele>112</ele>
        <time>2016-12-11T10:10:17.400Z</time>
      </trkpt>
      <trkpt lat="48.02133" lon="2.8313">
        <ele>112</ele>
        <time>2016-12-11T10:10:18.404Z</time>
      </trkpt>
      <trkpt lat="48.02132" lon="2.83131">
        <ele>112</ele>
        <time>2016-12-11T10:10:19.427Z</time>
      </trkpt>
      <trkpt lat="48.02132" lon="2.83131">
        <ele>112</ele>
        <time>2016-12-11T10:10:20.412Z</time>
      </trkpt>
      <trkpt lat="48.0213" lon="2.83134">
        <ele>113</ele>
        <time>2016-12-11T10:10:21.419Z</time>
      </trkpt>
      <trkpt lat="48.02129" lon="2.83136">
        <ele>113</ele>
        <time>2016-12-11T10:10:22.409Z</time>
      </trkpt>
      <trkpt lat="48.02129" lon="2.83136">
        <ele>113</ele>
        <time>2016-12-11T10:10:23.434Z</time>
      </trkpt>
      <trkpt lat="48.02127" lon="2.83138">
        <ele>113</ele>
        <time>2016-12-11T10:10:24.421Z</time>
      </trkpt>
      <trkpt lat="48.02127" lon="2.83138">
        <ele>113</ele>
        <time>2016-12-11T10:10:25.427Z</time>
      </trkpt>
      <trkpt lat="48.02124" lon="2.8314">
        <ele>113</ele>
        <time>2016-12-11T10:10:26.396Z</time>
      </trkpt>
      <trkpt lat="48.02124" lon="2.8314">
        <ele>113</ele>
        <time>2016-12-11T10:10:27.421Z</time>
      </trkpt>
      <trkpt lat="48.02122" lon="2.83143">
        <ele>114</ele>
        <time>2016-12-11T10:10:28.421Z</time>
      </trkpt>
      <trkpt lat="48.02122" lon="2.83143">
        <ele>114</ele>
        <time>2016-12-11T10:10:29.427Z</time>
      </trkpt>
      <trkpt lat="48.02119" lon="2.83147">
        <ele>114</ele>
        <time>2016-12-11T10:10:30.434Z</time>
      </trkpt>
      <trkpt lat="48.02119" lon="2.83147">
        <ele>114</ele>
        <time>2016-12-11T10:10:31.418Z</time>
      </trkpt>
      <trkpt lat="48.02116" lon="2.83148">
        <ele>114</ele>
        <time>2016-12-11T10:10:32.404Z</time>
      </trkpt>
      <trkpt lat="48.02116" lon="2.83148">
        <ele>114</ele>
        <time>2016-12-11T10:10:33.430Z</time>
      </trkpt>
      <trkpt lat="48.02112" lon="2.83151">
        <ele>115</ele>
        <time>2016-12-11T10:10:34.397Z</time>
      </trkpt>
      <trkpt lat="48.0211" lon="2.83152">
        <ele>115</ele>
        <time>2016-12-11T10:10:35.412Z</time>
      </trkpt>
      <trkpt lat="48.0211" lon="2.83152">
        <ele>115</ele>
        <time>2016-12-11T10:10:36.398Z</time>
      </trkpt>
      <trkpt lat="48.02106" lon="2.83155">
        <ele>115</ele>
        <time>2016-12-11T10:10:37.406Z</time>
      </trkpt>
      <trkpt lat="48.02104" lon="2.83157">
        <ele>115</ele>
        <time>2016-12-11T10:10:38.411Z</time>
      </trkpt>
      <trkpt lat="48.02104" lon="2.83157">
        <ele>115</ele>
        <time>2016-12-11T10:10:39.398Z</time>
      </trkpt>
      <trkpt lat="48.02098" lon="2.83162">
        <ele>114</ele>
        <time>2016-12-11T10:10:40.412Z</time>
      </trkpt>
      <trkpt lat="48.02095" lon="2.83165">
        <ele>113</ele>
        <time>2016-12-11T10:10:41.401Z</time>
      </trkpt>
      <trkpt lat="48.02092" lon="2.83169">
        <ele>113</ele>
        <time>2016-12-11T10:10:42.427Z</time>
      </trkpt>
      <trkpt lat="48.02092" lon="2.83169">
        <ele>113</ele>
        <time>2016-12-11T10:10:43.412Z</time>
      </trkpt>
      <trkpt lat="48.02083" lon="2.83176">
        <ele>112</ele>
        <time>2016-12-11T10:10:44.423Z</time>
      </trkpt>
      <trkpt lat="48.0208" lon="2.8318">
        <ele>111</ele>
        <time>2016-12-11T10:10:45.412Z</time>
      </trkpt>
      <trkpt lat="48.0208" lon="2.8318">
        <ele>111</ele>
        <time>2016-12-11T10:10:46.397Z</time>
      </trkpt>
      <trkpt lat="48.02074" lon="2.83188">
        <ele>110</ele>
        <time>2016-12-11T10:10:47.415Z</time>
      </trkpt>
      <trkpt lat="48.02071" lon="2.83192">
        <ele>110</ele>
        <time>2016-12-11T10:10:48.398Z</time>
      </trkpt>
      <trkpt lat="48.02071" lon="2.83192">
        <ele>110</ele>
        <time>2016-12-11T10:10:49.425Z</time>
      </trkpt>
      <trkpt lat="48.02068" lon="2.83199">
        <ele>109</ele>
        <time>2016-12-11T10:10:50.433Z</time>
      </trkpt>
      <trkpt lat="48.02068" lon="2.83199">
        <ele>109</ele>
        <time>2016-12-11T10:10:51.414Z</time>
      </trkpt>
      <trkpt lat="48.02063" lon="2.83205">
        <ele>108</ele>
        <time>2016-12-11T10:10:52.414Z</time>
      </trkpt>
      <trkpt lat="48.02063" lon="2.83205">
        <ele>108</ele>
        <time>2016-12-11T10:10:53.401Z</time>
      </trkpt>
      <trkpt lat="48.02059" lon="2.8321">
        <ele>107</ele>
        <time>2016-12-11T10:10:54.408Z</time>
      </trkpt>
      <trkpt lat="48.02055" lon="2.83211">
        <ele>106</ele>
        <time>2016-12-11T10:10:55.410Z</time>
      </trkpt>
      <trkpt lat="48.02055" lon="2.83211">
        <ele>106</ele>
        <time>2016-12-11T10:10:56.396Z</time>
      </trkpt>
      <trkpt lat="48.02047" lon="2.83214">
        <ele>105</ele>
        <time>2016-12-11T10:10:57.408Z</time>
      </trkpt>
      <trkpt lat="48.02041" lon="2.83216">
        <ele>104</ele>
        <time>2016-12-11T10:10:58.405Z</time>
      </trkpt>
      <trkpt lat="48.02041" lon="2.83216">
        <ele>104</ele>
        <time>2016-12-11T10:10:59.432Z</time>
      </trkpt>
      <trkpt lat="48.02032" lon="2.83225">
        <ele>102</ele>
        <time>2016-12-11T10:11:00.423Z</time>
      </trkpt>
      <trkpt lat="48.02032" lon="2.83225">
        <ele>102</ele>
        <time>2016-12-11T10:11:01.409Z</time>
      </trkpt>
      <trkpt lat="48.02024" lon="2.83234">
        <ele>101</ele>
        <time>2016-12-11T10:11:02.417Z</time>
      </trkpt>
      <trkpt lat="48.02021" lon="2.83239">
        <ele>100</ele>
        <time>2016-12-11T10:11:03.420Z</time>
      </trkpt>
      <trkpt lat="48.02021" lon="2.83244">
        <ele>100</ele>
        <time>2016-12-11T10:11:04.412Z</time>
      </trkpt>
      <trkpt lat="48.02021" lon="2.83244">
        <ele>100</ele>
        <time>2016-12-11T10:11:05.435Z</time>
      </trkpt>
      <trkpt lat="48.0202" lon="2.83254">
        <ele>99</ele>
        <time>2016-12-11T10:11:06.411Z</time>
      </trkpt>
      <trkpt lat="48.0202" lon="2.83254">
        <ele>99</ele>
        <time>2016-12-11T10:11:07.397Z</time>
      </trkpt>
      <trkpt lat="48.02021" lon="2.83264">
        <ele>98</ele>
        <time>2016-12-11T10:11:08.411Z</time>
      </trkpt>
      <trkpt lat="48.02022" lon="2.83269">
        <ele>97</ele>
        <time>2016-12-11T10:11:09.396Z</time>
      </trkpt>
      <trkpt lat="48.02022" lon="2.83269">
        <ele>97</ele>
        <time>2016-12-11T10:11:10.418Z</time>
      </trkpt>
      <trkpt lat="48.02022" lon="2.83278">
        <ele>96</ele>
        <time>2016-12-11T10:11:11.402Z</time>
      </trkpt>
      <trkpt lat="48.02022" lon="2.83282">
        <ele>96</ele>
        <time>2016-12-11T10:11:12.429Z</time>
      </trkpt>
      <trkpt lat="48.02022" lon="2.83282">
        <ele>96</ele>
        <time>2016-12-11T10:11:13.413Z</time>
      </trkpt>
      <trkpt lat="48.02022" lon="2.83288">
        <ele>95</ele>
        <time>2016-12-11T10:11:14.408Z</time>
      </trkpt>
      <trkpt lat="48.02022" lon="2.83288">
        <ele>95</ele>
        <time>2016-12-11T10:11:15.434Z</time>
      </trkpt>
      <trkpt lat="48.02023" lon="2.83297">
        <ele>95</ele>
        <time>2016-12-11T10:11:16.416Z</time>
      </trkpt>
      <trkpt lat="48.02023" lon="2.83297">
        <ele>95</ele>
        <time>2016-12-11T10:11:17.412Z</time>
      </trkpt>
      <trkpt lat="48.0202" lon="2.83304">
        <ele>94</ele>
        <time>2016-12-11T10:11:18.433Z</time>
      </trkpt>
      <trkpt lat="48.0202" lon="2.83304">
        <ele>94</ele>
        <time>2016-12-11T10:11:19.419Z</time>
      </trkpt>
      <trkpt lat="48.02018" lon="2.8331">
        <ele>93</ele>
        <time>2016-12-11T10:11:20.408Z</time>
      </trkpt>
      <trkpt lat="48.02018" lon="2.8331">
        <ele>93</ele>
        <time>2016-12-11T10:11:21.435Z</time>
      </trkpt>
      <trkpt lat="48.02015" lon="2.83317">
        <ele>92</ele>
        <time>2016-12-11T10:11:22.433Z</time>
      </trkpt>
      <trkpt lat="48.02013" lon="2.83321">
        <ele>92</ele>
        <time>2016-12-11T10:11:23.422Z</time>
      </trkpt>
      <trkpt lat="48.0201" lon="2.83323">
        <ele>91</ele>
        <time>2016-12-11T10:11:24.398Z</time>
      </trkpt>
      <trkpt lat="48.0201" lon="2.83323">
        <ele>91</ele>
        <time>2016-12-11T10:11:25.423Z</time>
      </trkpt>
      <trkpt lat="48.02006" lon="2.8333">
        <ele>91</ele>
        <time>2016-12-11T10:11:26.429Z</time>
      </trkpt>
      <trkpt lat="48.02006" lon="2.8333">
        <ele>91</ele>
        <time>2016-12-11T10:11:27.415Z</time>
      </trkpt>
      <trkpt lat="48.02003" lon="2.83337">
        <ele>90</ele>
        <time>2016-12-11T10:11:28.399Z</time>
      </trkpt>
      <trkpt lat="48.02003" lon="2.83337">
        <ele>90</ele>
        <time>2016-12-11T10:11:29.412Z</time>
      </trkpt>
      <trkpt lat="48.02" lon="2.83345">
        <ele>89</ele>
        <time>2016-12-11T10:11:30.419Z</time>
      </trkpt>
      <trkpt lat="48.02" lon="2.83348">
        <ele>89</ele>
        <time>2016-12-11T10:11:31.410Z</time>
      </trkpt>
      <trkpt lat="48.02" lon="2.83348">
        <ele>89</ele>
        <time>2016-12-11T10:11:32.421Z</time>
      </trkpt>
      <trkpt lat="48.01996" lon="2.83355">
        <ele>89</ele>
        <time>2016-12-11T10:11:33.437Z</time>
      </trkpt>
      <trkpt lat="48.01996" lon="2.83355">
        <ele>89</ele>
        <time>2016-12-11T10:11:34.431Z</time>
      </trkpt>
      <trkpt lat="48.01991" lon="2.83361">
        <ele>89</ele>
        <time>2016-12-11T10:11:35.402Z</time>
      </trkpt>
      <trkpt lat="48.01989" lon="2.83361">
        <ele>88</ele>
        <time>2016-12-11T10:11:36.416Z</time>
      </trkpt>
      <trkpt lat="48.01989" lon="2.83361">
        <ele>88</ele>
        <time>2016-12-11T10:11:37.404Z</time>
      </trkpt>
      <trkpt lat="48.01982" lon="2.83358">
        <ele>87</ele>
        <time>2016-12-11T10:11:38.412Z</time>
      </trkpt>
      <trkpt lat="48.01979" lon="2.83355">
        <ele>87</ele>
        <time>2016-12-11T10:11:39.430Z</time>
      </trkpt>
      <trkpt lat="48.01979" lon="2.83355">
        <ele>87</ele>
        <time>2016-12-11T10:11:40.401Z</time>
      </trkpt>
      <trkpt lat="48.01973" lon="2.83358">
        <ele>86</ele>
        <time>2016-12-11T10:11:41.412Z</time>
      </trkpt>
      <trkpt lat="48.01971" lon="2.83359">
        <ele>86</ele>
        <time>2016-12-11T10:11:42.407Z</time>
      </trkpt>
      <trkpt lat="48.01971" lon="2.83359">
        <ele>86</ele>
        <time>2016-12-11T10:11:43.432Z</time>
      </trkpt>
      <trkpt lat="48.01968" lon="2.83366">
        <ele>86</ele>
        <time>2016-12-11T10:11:44.398Z</time>
      </trkpt>
      <trkpt lat="48.01967" lon="2.83368">
        <ele>85</ele>
        <time>2016-12-11T10:11:45.420Z</time>
      </trkpt>
      <trkpt lat="48.01967" lon="2.83368">
        <ele>85</ele>
        <time>2016-12-11T10:11:46.407Z</time>
      </trkpt>
      <trkpt lat="48.01962" lon="2.83374">
        <ele>85</ele>
        <time>2016-12-11T10:11:47.418Z</time>
      </trkpt>
      <trkpt lat="48.01961" lon="2.83377">
        <ele>84</ele>
        <time>2016-12-11T10:11:48.435Z</time>
      </trkpt>
      <trkpt lat="48.01961" lon="2.83377">
        <ele>84</ele>
        <time>2016-12-11T10:11:49.420Z</time>
      </trkpt>
      <trkpt lat="48.01956" lon="2.83382">
        <ele>83</ele>
        <time>2016-12-11T10:11:50.402Z</time>
      </trkpt>
      <trkpt lat="48.01954" lon="2.83385">
        <ele>83</ele>
        <time>2016-12-11T10:11:51.430Z</time>
      </trkpt>
      <trkpt lat="48.01952" lon="2.83386">
        <ele>83</ele>
        <time>2016-12-11T10:11:52.433Z</time>
      </trkpt>
      <trkpt lat="48.01952" lon="2.83386">
        <ele>83</ele>
        <time>2016-12-11T10:11:53.418Z</time>
      </trkpt>
      <trkpt lat="48.01947" lon="2.83384">
        <ele>82</ele>
        <time>2016-12-11T10:11:54.410Z</time>
      </trkpt>
      <trkpt lat="48.01947" lon="2.83384">
        <ele>82</ele>
        <time>2016-12-11T10:11:55.415Z</time>
      </trkpt>
      <trkpt lat="48.01945" lon="2.83382">
        <ele>81</ele>
        <time>2016-12-11T10:11:56.421Z</time>
      </trkpt>
      <trkpt lat="48.01945" lon="2.83382">
        <ele>81</ele>
        <time>2016-12-11T10:11:57.408Z</time>
      </trkpt>
      <trkpt lat="48.01941" lon="2.83377">
        <ele>81</ele>
        <time>2016-12-11T10:11:58.420Z</time>
      </trkpt>
      <trkpt lat="48.01941" lon="2.83377">
        <ele>81</ele>
        <time>2016-12-11T10:11:59.408Z</time>
      </trkpt>
      <trkpt lat="48.01938" lon="2.83373">
        <ele>80</ele>
        <time>2016-12-11T10:12:00.418Z</time>
      </trkpt>
      <trkpt lat="48.01938" lon="2.83373">
        <ele>80</ele>
        <time>2016-12-11T10:12:01.407Z</time>
      </trkpt>
      <trkpt lat="48.01935" lon="2.83367">
        <ele>80</ele>
        <time>2016-12-11T10:12:02.412Z</time>
      </trkpt>
      <trkpt lat="48.01935" lon="2.83367">
        <ele>80</ele>
        <time>2016-12-11T10:12:03.401Z</time>
      </trkpt>
      <trkpt lat="48.01933" lon="2.8336">
        <ele>79</ele>
        <time>2016-12-11T10:12:04.408Z</time>
      </trkpt>
      <trkpt lat="48.01933" lon="2.8336">
        <ele>79</ele>
        <time>2016-12-11T10:12:05.434Z</time>
      </trkpt>
      <trkpt lat="48.01931" lon="2.83353">
        <ele>79</ele>
        <time>2016-12-11T10:12:06.406Z</time>
      </trkpt>
      <trkpt lat="48.01931" lon="2.83353">
        <ele>79</ele>
        <time>2016-12-11T10:12:07.431Z</time>
      </trkpt>
      <trkpt lat="48.0193" lon="2.83345">
        <ele>79</ele>
        <time>2016-12-11T10:12:08.403Z</time>
      </trkpt>
      <trkpt lat="48.01928" lon="2.83341">
        <ele>79</ele>
        <time>2016-12-11T10:12:09.432Z</time>
      </trkpt>
      <trkpt lat="48.01928" lon="2.83337">
        <ele>79</ele>
        <time>2016-12-11T10:12:10.421Z</time>
      </trkpt>
      <trkpt lat="48.01928" lon="2.83337">
        <ele>79</ele>
        <time>2016-12-11T10:12:11.401Z</time>
      </trkpt>
      <trkpt lat="48.01928" lon="2.83326">
        <ele>81</ele>
        <time>2016-12-11T10:12:12.413Z</time>
      </trkpt>
      <trkpt lat="48.01928" lon="2.83326">
        <ele>81</ele>
        <time>2016-12-11T10:12:13.435Z</time>
      </trkpt>
      <trkpt lat="48.01928" lon="2.83318">
        <ele>82</ele>
        <time>2016-12-11T10:12:14.431Z</time>
      </trkpt>
      <trkpt lat="48.01928" lon="2.83318">
        <ele>82</ele>
        <time>2016-12-11T10:12:15.421Z</time>
      </trkpt>
      <trkpt lat="48.01928" lon="2.83309">
        <ele>83</ele>
        <time>2016-12-11T10:12:16.428Z</time>
      </trkpt>
      <trkpt lat="48.01928" lon="2.83309">
        <ele>83</ele>
        <time>2016-12-11T10:12:17.409Z</time>
      </trkpt>
      <trkpt lat="48.01928" lon="2.83301">
        <ele>84</ele>
        <time>2016-12-11T10:12:18.415Z</time>
      </trkpt>
      <trkpt lat="48.01928" lon="2.83297">
        <ele>84</ele>
        <time>2016-12-11T10:12:19.401Z</time>
      </trkpt>
      <trkpt lat="48.01928" lon="2.83297">
        <ele>84</ele>
        <time>2016-12-11T10:12:20.431Z</time>
      </trkpt>
      <trkpt lat="48.01929" lon="2.8329">
        <ele>85</ele>
        <time>2016-12-11T10:12:21.398Z</time>
      </trkpt>
      <trkpt lat="48.01929" lon="2.83286">
        <ele>85</ele>
        <time>2016-12-11T10:12:22.423Z</time>
      </trkpt>
      <trkpt lat="48.01929" lon="2.83281">
        <ele>86</ele>
        <time>2016-12-11T10:12:23.410Z</time>
      </trkpt>
      <trkpt lat="48.01929" lon="2.83277">
        <ele>86</ele>
        <time>2016-12-11T10:12:24.416Z</time>
      </trkpt>
      <trkpt lat="48.01929" lon="2.83277">
        <ele>86</ele>
        <time>2016-12-11T10:12:25.407Z</time>
      </trkpt>
      <trkpt lat="48.01929" lon="2.83268">
        <ele>87</ele>
        <time>2016-12-11T10:12:26.420Z</time>
      </trkpt>
      <trkpt lat="48.01929" lon="2.83263">
        <ele>88</ele>
        <time>2016-12-11T10:12:27.434Z</time>
      </trkpt>
      <trkpt lat="48.01929" lon="2.83263">
        <ele>88</ele>
        <time>2016-12-11T10:12:28.421Z</time>
      </trkpt>
      <trkpt lat="48.01929" lon="2.83255">
        <ele>89</ele>
        <time>2016-12-11T10:12:29.428Z</time>
      </trkpt>
      <trkpt lat="48.01929" lon="2.83251">
        <ele>89</ele>
        <time>2016-12-11T10:12:30.429Z</time>
      </trkpt>
      <trkpt lat="48.01929" lon="2.83251">
        <ele>89</ele>
        <time>2016-12-11T10:12:31.414Z</time>
      </trkpt>
      <trkpt lat="48.01928" lon="2.83242">
        <ele>90</ele>
        <time>2016-12-11T10:12:32.422Z</time>
      </trkpt>
      <trkpt lat="48.01928" lon="2.83238">
        <ele>90</ele>
        <time>2016-12-11T10:12:33.406Z</time>
      </trkpt>
      <trkpt lat="48.01928" lon="2.83238">
        <ele>90</ele>
        <time>2016-12-11T10:12:34.432Z</time>
      </trkpt>
      <trkpt lat="48.01929" lon="2.8323">
        <ele>90</ele>
        <time>2016-12-11T10:12:35.411Z</time>
      </trkpt>
      <trkpt lat="48.01929" lon="2.83226">
        <ele>90</ele>
        <time>2016-12-11T10:12:36.428Z</time>
      </trkpt>
      <trkpt lat="48.01929" lon="2.83226">
        <ele>90</ele>
        <time>2016-12-11T10:12:37.408Z</time>
      </trkpt>
      <trkpt lat="48.01929" lon="2.83217">
        <ele>90</ele>
        <time>2016-12-11T10:12:38.414Z</time>
      </trkpt>
      <trkpt lat="48.01929" lon="2.83217">
        <ele>90</ele>
        <time>2016-12-11T10:12:39.398Z</time>
      </trkpt>
      <trkpt lat="48.01929" lon="2.83207">
        <ele>92</ele>
        <time>2016-12-11T10:12:40.429Z</time>
      </trkpt>
      <trkpt lat="48.01929" lon="2.83207">
        <ele>92</ele>
        <time>2016-12-11T10:12:41.409Z</time>
      </trkpt>
      <trkpt lat="48.01929" lon="2.83198">
        <ele>93</ele>
        <time>2016-12-11T10:12:42.415Z</time>
      </trkpt>
      <trkpt lat="48.01929" lon="2.83193">
        <ele>94</ele>
        <time>2016-12-11T10:12:43.414Z</time>
      </trkpt>
      <trkpt lat="48.01929" lon="2.83193">
        <ele>94</ele>
        <time>2016-12-11T10:12:44.403Z</time>
      </trkpt>
      <trkpt lat="48.01929" lon="2.83185">
        <ele>94</ele>
        <time>2016-12-11T10:12:45.412Z</time>
      </trkpt>
      <trkpt lat="48.01929" lon="2.83185">
        <ele>94</ele>
        <time>2016-12-11T10:12:46.398Z</time>
      </trkpt>
      <trkpt lat="48.01929" lon="2.83175">
        <ele>95</ele>
        <time>2016-12-11T10:12:47.409Z</time>
      </trkpt>
      <trkpt lat="48.01929" lon="2.83175">
        <ele>95</ele>
        <time>2016-12-11T10:12:48.434Z</time>
      </trkpt>
      <trkpt lat="48.0193" lon="2.83165">
        <ele>95</ele>
        <time>2016-12-11T10:12:49.429Z</time>
      </trkpt>
      <trkpt lat="48.0193" lon="2.83165">
        <ele>95</ele>
        <time>2016-12-11T10:12:50.424Z</time>
      </trkpt>
      <trkpt lat="48.01931" lon="2.83154">
        <ele>94</ele>
        <time>2016-12-11T10:12:51.410Z</time>
      </trkpt>
      <trkpt lat="48.01931" lon="2.83154">
        <ele>94</ele>
        <time>2016-12-11T10:12:52.434Z</time>
      </trkpt>
      <trkpt lat="48.01932" lon="2.83143">
        <ele>94</ele>
        <time>2016-12-11T10:12:53.409Z</time>
      </trkpt>
      <trkpt lat="48.01932" lon="2.83143">
        <ele>94</ele>
        <time>2016-12-11T10:12:54.435Z</time>
      </trkpt>
      <trkpt lat="48.01932" lon="2.83132">
        <ele>94</ele>
        <time>2016-12-11T10:12:55.408Z</time>
      </trkpt>
      <trkpt lat="48.01932" lon="2.83132">
        <ele>94</ele>
        <time>2016-12-11T10:12:56.434Z</time>
      </trkpt>
      <trkpt lat="48.01929" lon="2.83121">
        <ele>94</ele>
        <time>2016-12-11T10:12:57.422Z</time>
      </trkpt>
      <trkpt lat="48.01929" lon="2.83121">
        <ele>94</ele>
        <time>2016-12-11T10:12:58.410Z</time>
      </trkpt>
      <trkpt lat="48.01925" lon="2.83112">
        <ele>94</ele>
        <time>2016-12-11T10:12:59.417Z</time>
      </trkpt>
      <trkpt lat="48.01924" lon="2.83108">
        <ele>94</ele>
        <time>2016-12-11T10:13:00.412Z</time>
      </trkpt>
      <trkpt lat="48.01924" lon="2.83108">
        <ele>94</ele>
        <time>2016-12-11T10:13:01.409Z</time>
      </trkpt>
      <trkpt lat="48.01922" lon="2.83096">
        <ele>93</ele>
        <time>2016-12-11T10:13:02.417Z</time>
      </trkpt>
      <trkpt lat="48.01921" lon="2.83088">
        <ele>93</ele>
        <time>2016-12-11T10:13:03.409Z</time>
      </trkpt>
      <trkpt lat="48.01921" lon="2.83088">
        <ele>93</ele>
        <time>2016-12-11T10:13:04.434Z</time>
      </trkpt>
      <trkpt lat="48.0192" lon="2.83073">
        <ele>93</ele>
        <time>2016-12-11T10:13:05.414Z</time>
      </trkpt>
      <trkpt lat="48.01919" lon="2.83067">
        <ele>93</ele>
        <time>2016-12-11T10:13:06.421Z</time>
      </trkpt>
      <trkpt lat="48.01919" lon="2.83067">
        <ele>93</ele>
        <time>2016-12-11T10:13:07.406Z</time>
      </trkpt>
      <trkpt lat="48.01915" lon="2.83057">
        <ele>93</ele>
        <time>2016-12-11T10:13:08.415Z</time>
      </trkpt>
      <trkpt lat="48.01913" lon="2.83054">
        <ele>93</ele>
        <time>2016-12-11T10:13:09.400Z</time>
      </trkpt>
      <trkpt lat="48.0191" lon="2.83051">
        <ele>93</ele>
        <time>2016-12-11T10:13:10.427Z</time>
      </trkpt>
      <trkpt lat="48.0191" lon="2.83051">
        <ele>93</ele>
        <time>2016-12-11T10:13:11.413Z</time>
      </trkpt>
      <trkpt lat="48.01905" lon="2.83046">
        <ele>93</ele>
        <time>2016-12-11T10:13:12.420Z</time>
      </trkpt>
      <trkpt lat="48.01903" lon="2.83044">
        <ele>92</ele>
        <time>2016-12-11T10:13:13.401Z</time>
      </trkpt>
      <trkpt lat="48.01903" lon="2.83044">
        <ele>92</ele>
        <time>2016-12-11T10:13:14.427Z</time>
      </trkpt>
      <trkpt lat="48.01899" lon="2.8304">
        <ele>92</ele>
        <time>2016-12-11T10:13:15.396Z</time>
      </trkpt>
      <trkpt lat="48.01897" lon="2.83038">
        <ele>92</ele>
        <time>2016-12-11T10:13:16.401Z</time>
      </trkpt>
      <trkpt lat="48.01897" lon="2.83038">
        <ele>92</ele>
        <time>2016-12-11T10:13:17.399Z</time>
      </trkpt>
      <trkpt lat="48.01893" lon="2.83033">
        <ele>91</ele>
        <time>2016-12-11T10:13:18.412Z</time>
      </trkpt>
      <trkpt lat="48.01893" lon="2.83033">
        <ele>91</ele>
        <time>2016-12-11T10:13:19.397Z</time>
      </trkpt>
      <trkpt lat="48.0189" lon="2.83027">
        <ele>91</ele>
        <time>2016-12-11T10:13:20.404Z</time>
      </trkpt>
      <trkpt lat="48.0189" lon="2.83025">
        <ele>91</ele>
        <time>2016-12-11T10:13:21.427Z</time>
      </trkpt>
      <trkpt lat="48.0189" lon="2.83025">
        <ele>91</ele>
        <time>2016-12-11T10:13:22.406Z</time>
      </trkpt>
      <trkpt lat="48.01888" lon="2.83019">
        <ele>90</ele>
        <time>2016-12-11T10:13:23.413Z</time>
      </trkpt>
      <trkpt lat="48.01888" lon="2.83019">
        <ele>90</ele>
        <time>2016-12-11T10:13:24.398Z</time>
      </trkpt>
      <trkpt lat="48.01884" lon="2.83012">
        <ele>91</ele>
        <time>2016-12-11T10:13:25.410Z</time>
      </trkpt>
      <trkpt lat="48.01884" lon="2.83012">
        <ele>91</ele>
        <time>2016-12-11T10:13:26.435Z</time>
      </trkpt>
      <trkpt lat="48.01881" lon="2.83004">
        <ele>91</ele>
        <time>2016-12-11T10:13:27.402Z</time>
      </trkpt>
      <trkpt lat="48.0188" lon="2.82999">
        <ele>91</ele>
        <time>2016-12-11T10:13:28.420Z</time>
      </trkpt>
      <trkpt lat="48.0188" lon="2.82999">
        <ele>91</ele>
        <time>2016-12-11T10:13:29.409Z</time>
      </trkpt>
      <trkpt lat="48.01879" lon="2.82991">
        <ele>92</ele>
        <time>2016-12-11T10:13:30.415Z</time>
      </trkpt>
      <trkpt lat="48.01879" lon="2.82991">
        <ele>92</ele>
        <time>2016-12-11T10:13:31.435Z</time>
      </trkpt>
      <trkpt lat="48.01877" lon="2.82985">
        <ele>92</ele>
        <time>2016-12-11T10:13:32.411Z</time>
      </trkpt>
      <trkpt lat="48.01877" lon="2.82985">
        <ele>92</ele>
        <time>2016-12-11T10:13:33.399Z</time>
      </trkpt>
      <trkpt lat="48.01876" lon="2.8298">
        <ele>92</ele>
        <time>2016-12-11T10:13:34.408Z</time>
      </trkpt>
      <trkpt lat="48.01876" lon="2.8298">
        <ele>92</ele>
        <time>2016-12-11T10:13:35.397Z</time>
      </trkpt>
      <trkpt lat="48.01875" lon="2.82973">
        <ele>92</ele>
        <time>2016-12-11T10:13:36.411Z</time>
      </trkpt>
      <trkpt lat="48.01875" lon="2.82973">
        <ele>92</ele>
        <time>2016-12-11T10:13:37.403Z</time>
      </trkpt>
      <trkpt lat="48.01872" lon="2.82966">
        <ele>93</ele>
        <time>2016-12-11T10:13:38.411Z</time>
      </trkpt>
      <trkpt lat="48.01871" lon="2.82963">
        <ele>93</ele>
        <time>2016-12-11T10:13:39.402Z</time>
      </trkpt>
      <trkpt lat="48.01871" lon="2.82963">
        <ele>93</ele>
        <time>2016-12-11T10:13:40.423Z</time>
      </trkpt>
      <trkpt lat="48.01869" lon="2.82958">
        <ele>94</ele>
        <time>2016-12-11T10:13:41.431Z</time>
      </trkpt>
      <trkpt lat="48.01869" lon="2.82954">
        <ele>94</ele>
        <time>2016-12-11T10:13:42.412Z</time>
      </trkpt>
      <trkpt lat="48.01869" lon="2.82954">
        <ele>94</ele>
        <time>2016-12-11T10:13:43.418Z</time>
      </trkpt>
      <trkpt lat="48.01867" lon="2.82949">
        <ele>94</ele>
        <time>2016-12-11T10:13:44.400Z</time>
      </trkpt>
      <trkpt lat="48.01866" lon="2.82946">
        <ele>94</ele>
        <time>2016-12-11T10:13:45.416Z</time>
      </trkpt>
      <trkpt lat="48.01866" lon="2.82946">
        <ele>94</ele>
        <time>2016-12-11T10:13:46.406Z</time>
      </trkpt>
      <trkpt lat="48.01864" lon="2.8294">
        <ele>95</ele>
        <time>2016-12-11T10:13:47.413Z</time>
      </trkpt>
      <trkpt lat="48.01863" lon="2.82937">
        <ele>95</ele>
        <time>2016-12-11T10:13:48.415Z</time>
      </trkpt>
      <trkpt lat="48.01862" lon="2.82934">
        <ele>95</ele>
        <time>2016-12-11T10:13:49.402Z</time>
      </trkpt>
      <trkpt lat="48.01862" lon="2.82934">
        <ele>95</ele>
        <time>2016-12-11T10:13:50.427Z</time>
      </trkpt>
      <trkpt lat="48.01861" lon="2.82928">
        <ele>96</ele>
        <time>2016-12-11T10:13:51.419Z</time>
      </trkpt>
      <trkpt lat="48.0186" lon="2.82925">
        <ele>96</ele>
        <time>2016-12-11T10:13:52.411Z</time>
      </trkpt>
      <trkpt lat="48.0186" lon="2.82925">
        <ele>96</ele>
        <time>2016-12-11T10:13:53.427Z</time>
      </trkpt>
      <trkpt lat="48.01859" lon="2.82919">
        <ele>96</ele>
        <time>2016-12-11T10:13:54.409Z</time>
      </trkpt>
      <trkpt lat="48.01859" lon="2.82919">
        <ele>96</ele>
        <time>2016-12-11T10:13:55.417Z</time>
      </trkpt>
      <trkpt lat="48.01857" lon="2.82913">
        <ele>97</ele>
        <time>2016-12-11T10:13:56.427Z</time>
      </trkpt>
      <trkpt lat="48.01857" lon="2.82913">
        <ele>97</ele>
        <time>2016-12-11T10:13:57.416Z</time>
      </trkpt>
      <trkpt lat="48.01856" lon="2.82907">
        <ele>97</ele>
        <time>2016-12-11T10:13:58.403Z</time>
      </trkpt>
      <trkpt lat="48.01856" lon="2.82907">
        <ele>97</ele>
        <time>2016-12-11T10:13:59.428Z</time>
      </trkpt>
      <trkpt lat="48.01855" lon="2.829">
        <ele>98</ele>
        <time>2016-12-11T10:14:00.435Z</time>
      </trkpt>
      <trkpt lat="48.01855" lon="2.829">
        <ele>98</ele>
        <time>2016-12-11T10:14:01.419Z</time>
      </trkpt>
      <trkpt lat="48.01853" lon="2.82893">
        <ele>98</ele>
        <time>2016-12-11T10:14:02.407Z</time>
      </trkpt>
      <trkpt lat="48.01853" lon="2.82893">
        <ele>98</ele>
        <time>2016-12-11T10:14:03.433Z</time>
      </trkpt>
      <trkpt lat="48.01851" lon="2.82886">
        <ele>99</ele>
        <time>2016-12-11T10:14:04.400Z</time>
      </trkpt>
      <trkpt lat="48.0185" lon="2.82882">
        <ele>99</ele>
        <time>2016-12-11T10:14:05.404Z</time>
      </trkpt>
      <trkpt lat="48.01849" lon="2.82879">
        <ele>99</ele>
        <time>2016-12-11T10:14:06.400Z</time>
      </trkpt>
      <trkpt lat="48.01849" lon="2.82879">
        <ele>99</ele>
        <time>2016-12-11T10:14:07.426Z</time>
      </trkpt>
      <trkpt lat="48.01848" lon="2.82873">
        <ele>101</ele>
        <time>2016-12-11T10:14:08.418Z</time>
      </trkpt>
      <trkpt lat="48.01848" lon="2.82873">
        <ele>101</ele>
        <time>2016-12-11T10:14:09.420Z</time>
      </trkpt>
      <trkpt lat="48.01846" lon="2.82866">
        <ele>101</ele>
        <time>2016-12-11T10:14:10.426Z</time>
      </trkpt>
      <trkpt lat="48.01844" lon="2.82862">
        <ele>102</ele>
        <time>2016-12-11T10:14:11.416Z</time>
      </trkpt>
      <trkpt lat="48.01844" lon="2.82862">
        <ele>102</ele>
        <time>2016-12-11T10:14:12.410Z</time>
      </trkpt>
      <trkpt lat="48.01843" lon="2.82855">
        <ele>102</ele>
        <time>2016-12-11T10:14:13.417Z</time>
      </trkpt>
      <trkpt lat="48.01843" lon="2.82855">
        <ele>102</ele>
        <time>2016-12-11T10:14:14.406Z</time>
      </trkpt>
      <trkpt lat="48.01841" lon="2.82849">
        <ele>103</ele>
        <time>2016-12-11T10:14:15.406Z</time>
      </trkpt>
      <trkpt lat="48.01841" lon="2.82849">
        <ele>103</ele>
        <time>2016-12-11T10:14:16.411Z</time>
      </trkpt>
      <trkpt lat="48.01839" lon="2.82842">
        <ele>103</ele>
        <time>2016-12-11T10:14:17.412Z</time>
      </trkpt>
      <trkpt lat="48.01838" lon="2.82838">
        <ele>104</ele>
        <time>2016-12-11T10:14:18.412Z</time>
      </trkpt>
      <trkpt lat="48.01838" lon="2.82838">
        <ele>104</ele>
        <time>2016-12-11T10:14:19.422Z</time>
      </trkpt>
      <trkpt lat="48.01836" lon="2.8283">
        <ele>104</ele>
        <time>2016-12-11T10:14:20.407Z</time>
      </trkpt>
      <trkpt lat="48.01836" lon="2.8283">
        <ele>104</ele>
        <time>2016-12-11T10:14:21.431Z</time>
      </trkpt>
      <trkpt lat="48.01834" lon="2.82823">
        <ele>104</ele>
        <time>2016-12-11T10:14:22.399Z</time>
      </trkpt>
      <trkpt lat="48.01833" lon="2.82819">
        <ele>105</ele>
        <time>2016-12-11T10:14:23.400Z</time>
      </trkpt>
      <trkpt lat="48.01832" lon="2.82815">
        <ele>105</ele>
        <time>2016-12-11T10:14:24.426Z</time>
      </trkpt>
      <trkpt lat="48.01832" lon="2.82815">
        <ele>105</ele>
        <time>2016-12-11T10:14:25.411Z</time>
      </trkpt>
      <trkpt lat="48.0183" lon="2.82807">
        <ele>105</ele>
        <time>2016-12-11T10:14:26.421Z</time>
      </trkpt>
      <trkpt lat="48.0183" lon="2.82807">
        <ele>105</ele>
        <time>2016-12-11T10:14:27.409Z</time>
      </trkpt>
      <trkpt lat="48.01828" lon="2.82799">
        <ele>106</ele>
        <time>2016-12-11T10:14:28.429Z</time>
      </trkpt>
      <trkpt lat="48.01828" lon="2.82799">
        <ele>106</ele>
        <time>2016-12-11T10:14:29.415Z</time>
      </trkpt>
      <trkpt lat="48.01826" lon="2.8279">
        <ele>106</ele>
        <time>2016-12-11T10:14:30.421Z</time>
      </trkpt>
      <trkpt lat="48.01826" lon="2.8279">
        <ele>106</ele>
        <time>2016-12-11T10:14:31.400Z</time>
      </trkpt>
      <trkpt lat="48.01824" lon="2.82781">
        <ele>106</ele>
        <time>2016-12-11T10:14:32.422Z</time>
      </trkpt>
      <trkpt lat="48.01824" lon="2.82781">
        <ele>106</ele>
        <time>2016-12-11T10:14:33.410Z</time>
      </trkpt>
      <trkpt lat="48.01822" lon="2.82773">
        <ele>106</ele>
        <time>2016-12-11T10:14:34.417Z</time>
      </trkpt>
      <trkpt lat="48.01822" lon="2.82773">
        <ele>106</ele>
        <time>2016-12-11T10:14:35.413Z</time>
      </trkpt>
      <trkpt lat="48.01821" lon="2.82764">
        <ele>106</ele>
        <time>2016-12-11T10:14:36.411Z</time>
      </trkpt>
      <trkpt lat="48.01821" lon="2.82764">
        <ele>106</ele>
        <time>2016-12-11T10:14:37.417Z</time>
      </trkpt>
      <trkpt lat="48.01818" lon="2.82755">
        <ele>106</ele>
        <time>2016-12-11T10:14:38.423Z</time>
      </trkpt>
      <trkpt lat="48.01818" lon="2.82755">
        <ele>106</ele>
        <time>2016-12-11T10:14:39.408Z</time>
      </trkpt>
      <trkpt lat="48.01816" lon="2.82746">
        <ele>106</ele>
        <time>2016-12-11T10:14:40.431Z</time>
      </trkpt>
      <trkpt lat="48.01815" lon="2.8274">
        <ele>106</ele>
        <time>2016-12-11T10:14:41.423Z</time>
      </trkpt>
      <trkpt lat="48.01815" lon="2.8274">
        <ele>106</ele>
        <time>2016-12-11T10:14:42.407Z</time>
      </trkpt>
      <trkpt lat="48.01812" lon="2.82729">
        <ele>106</ele>
        <time>2016-12-11T10:14:43.414Z</time>
      </trkpt>
      <trkpt lat="48.01812" lon="2.82729">
        <ele>106</ele>
        <time>2016-12-11T10:14:44.398Z</time>
      </trkpt>
      <trkpt lat="48.01809" lon="2.82716">
        <ele>106</ele>
        <time>2016-12-11T10:14:45.410Z</time>
      </trkpt>
      <trkpt lat="48.01809" lon="2.82716">
        <ele>106</ele>
        <time>2016-12-11T10:14:46.397Z</time>
      </trkpt>
      <trkpt lat="48.01806" lon="2.82704">
        <ele>105</ele>
        <time>2016-12-11T10:14:47.405Z</time>
      </trkpt>
      <trkpt lat="48.01804" lon="2.82697">
        <ele>105</ele>
        <time>2016-12-11T10:14:48.435Z</time>
      </trkpt>
      <trkpt lat="48.01804" lon="2.82697">
        <ele>105</ele>
        <time>2016-12-11T10:14:49.422Z</time>
      </trkpt>
      <trkpt lat="48.01801" lon="2.82686">
        <ele>106</ele>
        <time>2016-12-11T10:14:50.429Z</time>
      </trkpt>
      <trkpt lat="48.018" lon="2.8268">
        <ele>106</ele>
        <time>2016-12-11T10:14:51.410Z</time>
      </trkpt>
      <trkpt lat="48.018" lon="2.8268">
        <ele>106</ele>
        <time>2016-12-11T10:14:52.416Z</time>
      </trkpt>
      <trkpt lat="48.01798" lon="2.82669">
        <ele>106</ele>
        <time>2016-12-11T10:14:53.399Z</time>
      </trkpt>
      <trkpt lat="48.01797" lon="2.82665">
        <ele>106</ele>
        <time>2016-12-11T10:14:54.410Z</time>
      </trkpt>
      <trkpt lat="48.01797" lon="2.82665">
        <ele>106</ele>
        <time>2016-12-11T10:14:55.435Z</time>
      </trkpt>
      <trkpt lat="48.01794" lon="2.82656">
        <ele>105</ele>
        <time>2016-12-11T10:14:56.419Z</time>
      </trkpt>
      <trkpt lat="48.01794" lon="2.82656">
        <ele>105</ele>
        <time>2016-12-11T10:14:57.399Z</time>
      </trkpt>
      <trkpt lat="48.01792" lon="2.82646">
        <ele>105</ele>
        <time>2016-12-11T10:14:58.409Z</time>
      </trkpt>
      <trkpt lat="48.01792" lon="2.82646">
        <ele>105</ele>
        <time>2016-12-11T10:14:59.434Z</time>
      </trkpt>
      <trkpt lat="48.0179" lon="2.82638">
        <ele>106</ele>
        <time>2016-12-11T10:15:00.418Z</time>
      </trkpt>
      <trkpt lat="48.0179" lon="2.82638">
        <ele>106</ele>
        <time>2016-12-11T10:15:01.408Z</time>
      </trkpt>
      <trkpt lat="48.01787" lon="2.82628">
        <ele>106</ele>
        <time>2016-12-11T10:15:02.400Z</time>
      </trkpt>
      <trkpt lat="48.01786" lon="2.82623">
        <ele>107</ele>
        <time>2016-12-11T10:15:03.396Z</time>
      </trkpt>
      <trkpt lat="48.01786" lon="2.82623">
        <ele>107</ele>
        <time>2016-12-11T10:15:04.422Z</time>
      </trkpt>
      <trkpt lat="48.01784" lon="2.82614">
        <ele>107</ele>
        <time>2016-12-11T10:15:05.433Z</time>
      </trkpt>
      <trkpt lat="48.01783" lon="2.82609">
        <ele>107</ele>
        <time>2016-12-11T10:15:06.410Z</time>
      </trkpt>
      <trkpt lat="48.01783" lon="2.82609">
        <ele>107</ele>
        <time>2016-12-11T10:15:07.398Z</time>
      </trkpt>
      <trkpt lat="48.0178" lon="2.82599">
        <ele>108</ele>
        <time>2016-12-11T10:15:08.410Z</time>
      </trkpt>
      <trkpt lat="48.0178" lon="2.82599">
        <ele>108</ele>
        <time>2016-12-11T10:15:09.434Z</time>
      </trkpt>
      <trkpt lat="48.01778" lon="2.8259">
        <ele>108</ele>
        <time>2016-12-11T10:15:10.420Z</time>
      </trkpt>
      <trkpt lat="48.01778" lon="2.8259">
        <ele>108</ele>
        <time>2016-12-11T10:15:11.406Z</time>
      </trkpt>
      <trkpt lat="48.01776" lon="2.82581">
        <ele>108</ele>
        <time>2016-12-11T10:15:12.440Z</time>
      </trkpt>
      <trkpt lat="48.01776" lon="2.82581">
        <ele>108</ele>
        <time>2016-12-11T10:15:13.409Z</time>
      </trkpt>
      <trkpt lat="48.01774" lon="2.82572">
        <ele>109</ele>
        <time>2016-12-11T10:15:14.417Z</time>
      </trkpt>
      <trkpt lat="48.01773" lon="2.82568">
        <ele>109</ele>
        <time>2016-12-11T10:15:15.416Z</time>
      </trkpt>
      <trkpt lat="48.01773" lon="2.82568">
        <ele>109</ele>
        <time>2016-12-11T10:15:16.398Z</time>
      </trkpt>
      <trkpt lat="48.01771" lon="2.82558">
        <ele>109</ele>
        <time>2016-12-11T10:15:17.430Z</time>
      </trkpt>
      <trkpt lat="48.0177" lon="2.82554">
        <ele>109</ele>
        <time>2016-12-11T10:15:18.426Z</time>
      </trkpt>
      <trkpt lat="48.01769" lon="2.82549">
        <ele>109</ele>
        <time>2016-12-11T10:15:19.433Z</time>
      </trkpt>
      <trkpt lat="48.01769" lon="2.82549">
        <ele>109</ele>
        <time>2016-12-11T10:15:20.418Z</time>
      </trkpt>
      <trkpt lat="48.01768" lon="2.82541">
        <ele>109</ele>
        <time>2016-12-11T10:15:21.423Z</time>
      </trkpt>
      <trkpt lat="48.01768" lon="2.82541">
        <ele>109</ele>
        <time>2016-12-11T10:15:22.412Z</time>
      </trkpt>
      <trkpt lat="48.01767" lon="2.82534">
        <ele>110</ele>
        <time>2016-12-11T10:15:23.418Z</time>
      </trkpt>
      <trkpt lat="48.01766" lon="2.8253">
        <ele>110</ele>
        <time>2016-12-11T10:15:24.429Z</time>
      </trkpt>
      <trkpt lat="48.01766" lon="2.8253">
        <ele>110</ele>
        <time>2016-12-11T10:15:25.411Z</time>
      </trkpt>
      <trkpt lat="48.01764" lon="2.82523">
        <ele>110</ele>
        <time>2016-12-11T10:15:26.418Z</time>
      </trkpt>
      <trkpt lat="48.01764" lon="2.82523">
        <ele>110</ele>
        <time>2016-12-11T10:15:27.408Z</time>
      </trkpt>
      <trkpt lat="48.01763" lon="2.82517">
        <ele>111</ele>
        <time>2016-12-11T10:15:28.412Z</time>
      </trkpt>
      <trkpt lat="48.01763" lon="2.82517">
        <ele>111</ele>
        <time>2016-12-11T10:15:29.432Z</time>
      </trkpt>
      <trkpt lat="48.0176" lon="2.82511">
        <ele>111</ele>
        <time>2016-12-11T10:15:30.399Z</time>
      </trkpt>
      <trkpt lat="48.0176" lon="2.82511">
        <ele>111</ele>
        <time>2016-12-11T10:15:31.424Z</time>
      </trkpt>
      <trkpt lat="48.01759" lon="2.82505">
        <ele>112</ele>
        <time>2016-12-11T10:15:32.420Z</time>
      </trkpt>
      <trkpt lat="48.01759" lon="2.82505">
        <ele>112</ele>
        <time>2016-12-11T10:15:33.429Z</time>
      </trkpt>
      <trkpt lat="48.01758" lon="2.82498">
        <ele>112</ele>
        <time>2016-12-11T10:15:34.396Z</time>
      </trkpt>
      <trkpt lat="48.01758" lon="2.82498">
        <ele>112</ele>
        <time>2016-12-11T10:15:35.423Z</time>
      </trkpt>
      <trkpt lat="48.01756" lon="2.82492">
        <ele>113</ele>
        <time>2016-12-11T10:15:36.411Z</time>
      </trkpt>
      <trkpt lat="48.01756" lon="2.82492">
        <ele>113</ele>
        <time>2016-12-11T10:15:37.396Z</time>
      </trkpt>
      <trkpt lat="48.01755" lon="2.82484">
        <ele>113</ele>
        <time>2016-12-11T10:15:38.412Z</time>
      </trkpt>
      <trkpt lat="48.01754" lon="2.82481">
        <ele>113</ele>
        <time>2016-12-11T10:15:39.414Z</time>
      </trkpt>
      <trkpt lat="48.01754" lon="2.82481">
        <ele>113</ele>
        <time>2016-12-11T10:15:40.400Z</time>
      </trkpt>
      <trkpt lat="48.01753" lon="2.82476">
        <ele>113</ele>
        <time>2016-12-11T10:15:41.409Z</time>
      </trkpt>
      <trkpt lat="48.01752" lon="2.82472">
        <ele>113</ele>
        <time>2016-12-11T10:15:42.409Z</time>
      </trkpt>
      <trkpt lat="48.01752" lon="2.82472">
        <ele>113</ele>
        <time>2016-12-11T10:15:43.434Z</time>
      </trkpt>
      <trkpt lat="48.0175" lon="2.82465">
        <ele>114</ele>
        <time>2016-12-11T10:15:44.404Z</time>
      </trkpt>
      <trkpt lat="48.01749" lon="2.82461">
        <ele>114</ele>
        <time>2016-12-11T10:15:45.419Z</time>
      </trkpt>
      <trkpt lat="48.01749" lon="2.82461">
        <ele>114</ele>
        <time>2016-12-11T10:15:46.409Z</time>
      </trkpt>
      <trkpt lat="48.01748" lon="2.82454">
        <ele>114</ele>
        <time>2016-12-11T10:15:47.416Z</time>
      </trkpt>
      <trkpt lat="48.01747" lon="2.8245">
        <ele>113</ele>
        <time>2016-12-11T10:15:48.433Z</time>
      </trkpt>
      <trkpt lat="48.01747" lon="2.8245">
        <ele>113</ele>
        <time>2016-12-11T10:15:49.418Z</time>
      </trkpt>
      <trkpt lat="48.01745" lon="2.82442">
        <ele>114</ele>
        <time>2016-12-11T10:15:50.425Z</time>
      </trkpt>
      <trkpt lat="48.01745" lon="2.82442">
        <ele>114</ele>
        <time>2016-12-11T10:15:51.409Z</time>
      </trkpt>
      <trkpt lat="48.01744" lon="2.82435">
        <ele>114</ele>
        <time>2016-12-11T10:15:52.425Z</time>
      </trkpt>
      <trkpt lat="48.01743" lon="2.82431">
        <ele>114</ele>
        <time>2016-12-11T10:15:53.412Z</time>
      </trkpt>
      <trkpt lat="48.01741" lon="2.82428">
        <ele>114</ele>
        <time>2016-12-11T10:15:54.397Z</time>
      </trkpt>
      <trkpt lat="48.01741" lon="2.82428">
        <ele>114</ele>
        <time>2016-12-11T10:15:55.418Z</time>
      </trkpt>
      <trkpt lat="48.01739" lon="2.82421">
        <ele>114</ele>
        <time>2016-12-11T10:15:56.425Z</time>
      </trkpt>
      <trkpt lat="48.01739" lon="2.82421">
        <ele>114</ele>
        <time>2016-12-11T10:15:57.410Z</time>
      </trkpt>
      <trkpt lat="48.01737" lon="2.82414">
        <ele>114</ele>
        <time>2016-12-11T10:15:58.398Z</time>
      </trkpt>
      <trkpt lat="48.01737" lon="2.82414">
        <ele>114</ele>
        <time>2016-12-11T10:15:59.424Z</time>
      </trkpt>
      <trkpt lat="48.01736" lon="2.82407">
        <ele>114</ele>
        <time>2016-12-11T10:16:00.430Z</time>
      </trkpt>
      <trkpt lat="48.01736" lon="2.82407">
        <ele>114</ele>
        <time>2016-12-11T10:16:01.414Z</time>
      </trkpt>
      <trkpt lat="48.01734" lon="2.824">
        <ele>114</ele>
        <time>2016-12-11T10:16:02.405Z</time>
      </trkpt>
      <trkpt lat="48.01734" lon="2.824">
        <ele>114</ele>
        <time>2016-12-11T10:16:03.415Z</time>
      </trkpt>
      <trkpt lat="48.01732" lon="2.82393">
        <ele>115</ele>
        <time>2016-12-11T10:16:04.421Z</time>
      </trkpt>
      <trkpt lat="48.01732" lon="2.82393">
        <ele>115</ele>
        <time>2016-12-11T10:16:05.409Z</time>
      </trkpt>
      <trkpt lat="48.01731" lon="2.82385">
        <ele>115</ele>
        <time>2016-12-11T10:16:06.400Z</time>
      </trkpt>
      <trkpt lat="48.01731" lon="2.82385">
        <ele>115</ele>
        <time>2016-12-11T10:16:07.409Z</time>
      </trkpt>
      <trkpt lat="48.0173" lon="2.82378">
        <ele>115</ele>
        <time>2016-12-11T10:16:08.416Z</time>
      </trkpt>
      <trkpt lat="48.0173" lon="2.82378">
        <ele>115</ele>
        <time>2016-12-11T10:16:09.405Z</time>
      </trkpt>
      <trkpt lat="48.01727" lon="2.82371">
        <ele>115</ele>
        <time>2016-12-11T10:16:10.420Z</time>
      </trkpt>
      <trkpt lat="48.01727" lon="2.82371">
        <ele>115</ele>
        <time>2016-12-11T10:16:11.404Z</time>
      </trkpt>
      <trkpt lat="48.01725" lon="2.82364">
        <ele>115</ele>
        <time>2016-12-11T10:16:12.414Z</time>
      </trkpt>
      <trkpt lat="48.01725" lon="2.82364">
        <ele>115</ele>
        <time>2016-12-11T10:16:13.398Z</time>
      </trkpt>
      <trkpt lat="48.01722" lon="2.82358">
        <ele>116</ele>
        <time>2016-12-11T10:16:14.417Z</time>
      </trkpt>
      <trkpt lat="48.01722" lon="2.82358">
        <ele>116</ele>
        <time>2016-12-11T10:16:15.409Z</time>
      </trkpt>
      <trkpt lat="48.01721" lon="2.8235">
        <ele>117</ele>
        <time>2016-12-11T10:16:16.417Z</time>
      </trkpt>
      <trkpt lat="48.01721" lon="2.8235">
        <ele>117</ele>
        <time>2016-12-11T10:16:17.426Z</time>
      </trkpt>
      <trkpt lat="48.0172" lon="2.82343">
        <ele>117</ele>
        <time>2016-12-11T10:16:18.417Z</time>
      </trkpt>
      <trkpt lat="48.0172" lon="2.82343">
        <ele>117</ele>
        <time>2016-12-11T10:16:19.409Z</time>
      </trkpt>
      <trkpt lat="48.01718" lon="2.82337">
        <ele>117</ele>
        <time>2016-12-11T10:16:20.418Z</time>
      </trkpt>
      <trkpt lat="48.01718" lon="2.82337">
        <ele>117</ele>
        <time>2016-12-11T10:16:21.403Z</time>
      </trkpt>
      <trkpt lat="48.01716" lon="2.82328">
        <ele>117</ele>
        <time>2016-12-11T10:16:22.421Z</time>
      </trkpt>
      <trkpt lat="48.01716" lon="2.82328">
        <ele>117</ele>
        <time>2016-12-11T10:16:23.408Z</time>
      </trkpt>
      <trkpt lat="48.01714" lon="2.82321">
        <ele>117</ele>
        <time>2016-12-11T10:16:24.430Z</time>
      </trkpt>
      <trkpt lat="48.01714" lon="2.82321">
        <ele>117</ele>
        <time>2016-12-11T10:16:25.415Z</time>
      </trkpt>
      <trkpt lat="48.01713" lon="2.82313">
        <ele>116</ele>
        <time>2016-12-11T10:16:26.421Z</time>
      </trkpt>
      <trkpt lat="48.01713" lon="2.82313">
        <ele>116</ele>
        <time>2016-12-11T10:16:27.396Z</time>
      </trkpt>
      <trkpt lat="48.01714" lon="2.82305">
        <ele>116</ele>
        <time>2016-12-11T10:16:28.410Z</time>
      </trkpt>
      <trkpt lat="48.01714" lon="2.82305">
        <ele>116</ele>
        <time>2016-12-11T10:16:29.396Z</time>
      </trkpt>
      <trkpt lat="48.01717" lon="2.82299">
        <ele>115</ele>
        <time>2016-12-11T10:16:30.402Z</time>
      </trkpt>
      <trkpt lat="48.01717" lon="2.82299">
        <ele>115</ele>
        <time>2016-12-11T10:16:31.427Z</time>
      </trkpt>
      <trkpt lat="48.01722" lon="2.82296">
        <ele>115</ele>
        <time>2016-12-11T10:16:32.430Z</time>
      </trkpt>
      <trkpt lat="48.01722" lon="2.82296">
        <ele>115</ele>
        <time>2016-12-11T10:16:33.415Z</time>
      </trkpt>
      <trkpt lat="48.01729" lon="2.82294">
        <ele>114</ele>
        <time>2016-12-11T10:16:34.422Z</time>
      </trkpt>
      <trkpt lat="48.01733" lon="2.82293">
        <ele>114</ele>
        <time>2016-12-11T10:16:35.399Z</time>
      </trkpt>
      <trkpt lat="48.01736" lon="2.82292">
        <ele>115</ele>
        <time>2016-12-11T10:16:36.425Z</time>
      </trkpt>
      <trkpt lat="48.01736" lon="2.82292">
        <ele>115</ele>
        <time>2016-12-11T10:16:37.411Z</time>
      </trkpt>
      <trkpt lat="48.01742" lon="2.8229">
        <ele>114</ele>
        <time>2016-12-11T10:16:38.435Z</time>
      </trkpt>
      <trkpt lat="48.01745" lon="2.8229">
        <ele>115</ele>
        <time>2016-12-11T10:16:39.431Z</time>
      </trkpt>
      <trkpt lat="48.01745" lon="2.8229">
        <ele>115</ele>
        <time>2016-12-11T10:16:40.415Z</time>
      </trkpt>
      <trkpt lat="48.01752" lon="2.8229">
        <ele>115</ele>
        <time>2016-12-11T10:16:41.421Z</time>
      </trkpt>
      <trkpt lat="48.01755" lon="2.82289">
        <ele>115</ele>
        <time>2016-12-11T10:16:42.418Z</time>
      </trkpt>
      <trkpt lat="48.01755" lon="2.82289">
        <ele>115</ele>
        <time>2016-12-11T10:16:43.424Z</time>
      </trkpt>
      <trkpt lat="48.01759" lon="2.82289">
        <ele>115</ele>
        <time>2016-12-11T10:16:44.430Z</time>
      </trkpt>
      <trkpt lat="48.01762" lon="2.82288">
        <ele>116</ele>
        <time>2016-12-11T10:16:45.418Z</time>
      </trkpt>
      <trkpt lat="48.01762" lon="2.82288">
        <ele>116</ele>
        <time>2016-12-11T10:16:46.408Z</time>
      </trkpt>
      <trkpt lat="48.01768" lon="2.82288">
        <ele>116</ele>
        <time>2016-12-11T10:16:47.423Z</time>
      </trkpt>
      <trkpt lat="48.01771" lon="2.82287">
        <ele>117</ele>
        <time>2016-12-11T10:16:48.421Z</time>
      </trkpt>
      <trkpt lat="48.01771" lon="2.82287">
        <ele>117</ele>
        <time>2016-12-11T10:16:49.426Z</time>
      </trkpt>
      <trkpt lat="48.01778" lon="2.82287">
        <ele>117</ele>
        <time>2016-12-11T10:16:50.433Z</time>
      </trkpt>
      <trkpt lat="48.01778" lon="2.82287">
        <ele>117</ele>
        <time>2016-12-11T10:16:51.417Z</time>
      </trkpt>
      <trkpt lat="48.01785" lon="2.82284">
        <ele>117</ele>
        <time>2016-12-11T10:16:52.419Z</time>
      </trkpt>
      <trkpt lat="48.01785" lon="2.82284">
        <ele>117</ele>
        <time>2016-12-11T10:16:53.428Z</time>
      </trkpt>
      <trkpt lat="48.01792" lon="2.82281">
        <ele>117</ele>
        <time>2016-12-11T10:16:54.435Z</time>
      </trkpt>
      <trkpt lat="48.01792" lon="2.82281">
        <ele>117</ele>
        <time>2016-12-11T10:16:55.417Z</time>
      </trkpt>
      <trkpt lat="48.01801" lon="2.8228">
        <ele>118</ele>
        <time>2016-12-11T10:16:56.423Z</time>
      </trkpt>
      <trkpt lat="48.01801" lon="2.8228">
        <ele>118</ele>
        <time>2016-12-11T10:16:57.409Z</time>
      </trkpt>
      <trkpt lat="48.0181" lon="2.8228">
        <ele>118</ele>
        <time>2016-12-11T10:16:58.431Z</time>
      </trkpt>
      <trkpt lat="48.0181" lon="2.8228">
        <ele>118</ele>
        <time>2016-12-11T10:16:59.415Z</time>
      </trkpt>
      <trkpt lat="48.01819" lon="2.82278">
        <ele>118</ele>
        <time>2016-12-11T10:17:00.421Z</time>
      </trkpt>
      <trkpt lat="48.01819" lon="2.82278">
        <ele>118</ele>
        <time>2016-12-11T10:17:01.409Z</time>
      </trkpt>
      <trkpt lat="48.01829" lon="2.82276">
        <ele>119</ele>
        <time>2016-12-11T10:17:02.421Z</time>
      </trkpt>
      <trkpt lat="48.01829" lon="2.82276">
        <ele>119</ele>
        <time>2016-12-11T10:17:03.432Z</time>
      </trkpt>
      <trkpt lat="48.01839" lon="2.82273">
        <ele>121</ele>
        <time>2016-12-11T10:17:04.399Z</time>
      </trkpt>
      <trkpt lat="48.01839" lon="2.82273">
        <ele>121</ele>
        <time>2016-12-11T10:17:05.433Z</time>
      </trkpt>
      <trkpt lat="48.01849" lon="2.82272">
        <ele>122</ele>
        <time>2016-12-11T10:17:06.414Z</time>
      </trkpt>
      <trkpt lat="48.01849" lon="2.82272">
        <ele>122</ele>
        <time>2016-12-11T10:17:07.399Z</time>
      </trkpt>
      <trkpt lat="48.01859" lon="2.8227">
        <ele>122</ele>
        <time>2016-12-11T10:17:08.407Z</time>
      </trkpt>
      <trkpt lat="48.01864" lon="2.82269">
        <ele>121</ele>
        <time>2016-12-11T10:17:09.407Z</time>
      </trkpt>
      <trkpt lat="48.01864" lon="2.82269">
        <ele>121</ele>
        <time>2016-12-11T10:17:10.432Z</time>
      </trkpt>
      <trkpt lat="48.01874" lon="2.82267">
        <ele>123</ele>
        <time>2016-12-11T10:17:11.398Z</time>
      </trkpt>
      <trkpt lat="48.01879" lon="2.82266">
        <ele>123</ele>
        <time>2016-12-11T10:17:12.422Z</time>
      </trkpt>
      <trkpt lat="48.01879" lon="2.82266">
        <ele>123</ele>
        <time>2016-12-11T10:17:13.408Z</time>
      </trkpt>
      <trkpt lat="48.0189" lon="2.82264">
        <ele>122</ele>
        <time>2016-12-11T10:17:14.416Z</time>
      </trkpt>
      <trkpt lat="48.0189" lon="2.82264">
        <ele>122</ele>
        <time>2016-12-11T10:17:15.401Z</time>
      </trkpt>
      <trkpt lat="48.019" lon="2.82261">
        <ele>123</ele>
        <time>2016-12-11T10:17:16.409Z</time>
      </trkpt>
      <trkpt lat="48.019" lon="2.82261">
        <ele>123</ele>
        <time>2016-12-11T10:17:17.421Z</time>
      </trkpt>
      <trkpt lat="48.0191" lon="2.82258">
        <ele>123</ele>
        <time>2016-12-11T10:17:18.428Z</time>
      </trkpt>
      <trkpt lat="48.0191" lon="2.82258">
        <ele>123</ele>
        <time>2016-12-11T10:17:19.412Z</time>
      </trkpt>
      <trkpt lat="48.01919" lon="2.82256">
        <ele>124</ele>
        <time>2016-12-11T10:17:20.430Z</time>
      </trkpt>
      <trkpt lat="48.01919" lon="2.82256">
        <ele>124</ele>
        <time>2016-12-11T10:17:21.422Z</time>
      </trkpt>
      <trkpt lat="48.01925" lon="2.82256">
        <ele>123</ele>
        <time>2016-12-11T10:17:22.428Z</time>
      </trkpt>
      <trkpt lat="48.01925" lon="2.82256">
        <ele>123</ele>
        <time>2016-12-11T10:17:23.416Z</time>
      </trkpt>
      <trkpt lat="48.01928" lon="2.82256">
        <ele>124</ele>
        <time>2016-12-11T10:17:24.420Z</time>
      </trkpt>
      <trkpt lat="48.01928" lon="2.82256">
        <ele>124</ele>
        <time>2016-12-11T10:17:25.407Z</time>
      </trkpt>
      <trkpt lat="48.01928" lon="2.82254">
        <ele>124</ele>
        <time>2016-12-11T10:17:26.417Z</time>
      </trkpt>
      <trkpt lat="48.01928" lon="2.82254">
        <ele>124</ele>
        <time>2016-12-11T10:17:27.431Z</time>
      </trkpt>
      <trkpt lat="48.01929" lon="2.82254">
        <ele>124</ele>
        <time>2016-12-11T10:17:28.422Z</time>
      </trkpt>
      <trkpt lat="48.01929" lon="2.82254">
        <ele>124</ele>
        <time>2016-12-11T10:17:29.397Z</time>
      </trkpt>
      <trkpt lat="48.01937" lon="2.82249">
        <ele>125</ele>
        <time>2016-12-11T10:17:30.435Z</time>
      </trkpt>
      <trkpt lat="48.01937" lon="2.82249">
        <ele>125</ele>
        <time>2016-12-11T10:17:31.430Z</time>
      </trkpt>
      <trkpt lat="48.01942" lon="2.82247">
        <ele>125</ele>
        <time>2016-12-11T10:17:32.444Z</time>
      </trkpt>
      <trkpt lat="48.01942" lon="2.82247">
        <ele>125</ele>
        <time>2016-12-11T10:17:33.407Z</time>
      </trkpt>
      <trkpt lat="48.0195" lon="2.82246">
        <ele>125</ele>
        <time>2016-12-11T10:17:34.413Z</time>
      </trkpt>
      <trkpt lat="48.0195" lon="2.82246">
        <ele>125</ele>
        <time>2016-12-11T10:17:35.401Z</time>
      </trkpt>
      <trkpt lat="48.0196" lon="2.82245">
        <ele>125</ele>
        <time>2016-12-11T10:17:36.444Z</time>
      </trkpt>
      <trkpt lat="48.0196" lon="2.82245">
        <ele>125</ele>
        <time>2016-12-11T10:17:37.415Z</time>
      </trkpt>
      <trkpt lat="48.01969" lon="2.82243">
        <ele>125</ele>
        <time>2016-12-11T10:17:38.424Z</time>
      </trkpt>
      <trkpt lat="48.01969" lon="2.82243">
        <ele>125</ele>
        <time>2016-12-11T10:17:39.411Z</time>
      </trkpt>
      <trkpt lat="48.01979" lon="2.82243">
        <ele>125</ele>
        <time>2016-12-11T10:17:40.446Z</time>
      </trkpt>
      <trkpt lat="48.01979" lon="2.82243">
        <ele>125</ele>
        <time>2016-12-11T10:17:41.427Z</time>
      </trkpt>
      <trkpt lat="48.01989" lon="2.82241">
        <ele>126</ele>
        <time>2016-12-11T10:17:42.433Z</time>
      </trkpt>
      <trkpt lat="48.01989" lon="2.82241">
        <ele>126</ele>
        <time>2016-12-11T10:17:43.424Z</time>
      </trkpt>
      <trkpt lat="48.01998" lon="2.8224">
        <ele>127</ele>
        <time>2016-12-11T10:17:44.447Z</time>
      </trkpt>
      <trkpt lat="48.01998" lon="2.8224">
        <ele>127</ele>
        <time>2016-12-11T10:17:45.406Z</time>
      </trkpt>
      <trkpt lat="48.02007" lon="2.82238">
        <ele>127</ele>
        <time>2016-12-11T10:17:46.412Z</time>
      </trkpt>
      <trkpt lat="48.02007" lon="2.82238">
        <ele>127</ele>
        <time>2016-12-11T10:17:47.400Z</time>
      </trkpt>
      <trkpt lat="48.02016" lon="2.82235">
        <ele>129</ele>
        <time>2016-12-11T10:17:48.447Z</time>
      </trkpt>
      <trkpt lat="48.02016" lon="2.82235">
        <ele>129</ele>
        <time>2016-12-11T10:17:49.400Z</time>
      </trkpt>
      <trkpt lat="48.02024" lon="2.82236">
        <ele>129</ele>
        <time>2016-12-11T10:17:50.428Z</time>
      </trkpt>
      <trkpt lat="48.02024" lon="2.82236">
        <ele>129</ele>
        <time>2016-12-11T10:17:51.417Z</time>
      </trkpt>
      <trkpt lat="48.02024" lon="2.82236">
        <ele>129</ele>
        <time>2016-12-11T10:17:52.438Z</time>
      </trkpt>
      <trkpt lat="48.02031" lon="2.82234">
        <ele>129</ele>
        <time>2016-12-11T10:17:53.429Z</time>
      </trkpt>
      <trkpt lat="48.0204" lon="2.82232">
        <ele>130</ele>
        <time>2016-12-11T10:17:54.435Z</time>
      </trkpt>
      <trkpt lat="48.02044" lon="2.82231">
        <ele>130</ele>
        <time>2016-12-11T10:17:55.423Z</time>
      </trkpt>
      <trkpt lat="48.02044" lon="2.82231">
        <ele>130</ele>
        <time>2016-12-11T10:17:56.435Z</time>
      </trkpt>
      <trkpt lat="48.02053" lon="2.8223">
        <ele>130</ele>
        <time>2016-12-11T10:17:57.401Z</time>
      </trkpt>
      <trkpt lat="48.02053" lon="2.8223">
        <ele>130</ele>
        <time>2016-12-11T10:17:58.406Z</time>
      </trkpt>
      <trkpt lat="48.02063" lon="2.82229">
        <ele>131</ele>
        <time>2016-12-11T10:17:59.417Z</time>
      </trkpt>
      <trkpt lat="48.02063" lon="2.82229">
        <ele>131</ele>
        <time>2016-12-11T10:18:00.422Z</time>
      </trkpt>
      <trkpt lat="48.02073" lon="2.82228">
        <ele>130</ele>
        <time>2016-12-11T10:18:01.429Z</time>
      </trkpt>
      <trkpt lat="48.02073" lon="2.82228">
        <ele>130</ele>
        <time>2016-12-11T10:18:02.433Z</time>
      </trkpt>
      <trkpt lat="48.02083" lon="2.82226">
        <ele>130</ele>
        <time>2016-12-11T10:18:03.447Z</time>
      </trkpt>
      <trkpt lat="48.02089" lon="2.82226">
        <ele>130</ele>
        <time>2016-12-11T10:18:04.398Z</time>
      </trkpt>
      <trkpt lat="48.02089" lon="2.82226">
        <ele>130</ele>
        <time>2016-12-11T10:18:05.423Z</time>
      </trkpt>
      <trkpt lat="48.02099" lon="2.82224">
        <ele>129</ele>
        <time>2016-12-11T10:18:06.431Z</time>
      </trkpt>
      <trkpt lat="48.02099" lon="2.82224">
        <ele>129</ele>
        <time>2016-12-11T10:18:07.398Z</time>
      </trkpt>
      <trkpt lat="48.02099" lon="2.82224">
        <ele>129</ele>
        <time>2016-12-11T10:18:08.406Z</time>
      </trkpt>
      <trkpt lat="48.02108" lon="2.82221">
        <ele>129</ele>
        <time>2016-12-11T10:18:09.435Z</time>
      </trkpt>
      <trkpt lat="48.0212" lon="2.82219">
        <ele>127</ele>
        <time>2016-12-11T10:18:10.401Z</time>
      </trkpt>
      <trkpt lat="48.0212" lon="2.82219">
        <ele>127</ele>
        <time>2016-12-11T10:18:11.411Z</time>
      </trkpt>
      <trkpt lat="48.0212" lon="2.82219">
        <ele>127</ele>
        <time>2016-12-11T10:18:12.426Z</time>
      </trkpt>
      <trkpt lat="48.02131" lon="2.82216">
        <ele>127</ele>
        <time>2016-12-11T10:18:13.433Z</time>
      </trkpt>
      <trkpt lat="48.02144" lon="2.82215">
        <ele>126</ele>
        <time>2016-12-11T10:18:14.400Z</time>
      </trkpt>
      <trkpt lat="48.02144" lon="2.82215">
        <ele>126</ele>
        <time>2016-12-11T10:18:15.413Z</time>
      </trkpt>
      <trkpt lat="48.02157" lon="2.82213">
        <ele>125</ele>
        <time>2016-12-11T10:18:16.447Z</time>
      </trkpt>
      <trkpt lat="48.02157" lon="2.82213">
        <ele>125</ele>
        <time>2016-12-11T10:18:17.427Z</time>
      </trkpt>
      <trkpt lat="48.0217" lon="2.82213">
        <ele>123</ele>
        <time>2016-12-11T10:18:18.428Z</time>
      </trkpt>
      <trkpt lat="48.02177" lon="2.82213">
        <ele>122</ele>
        <time>2016-12-11T10:18:19.418Z</time>
      </trkpt>
      <trkpt lat="48.02177" lon="2.82213">
        <ele>122</ele>
        <time>2016-12-11T10:18:20.427Z</time>
      </trkpt>
      <trkpt lat="48.0219" lon="2.82213">
        <ele>120</ele>
        <time>2016-12-11T10:18:21.433Z</time>
      </trkpt>
      <trkpt lat="48.02197" lon="2.82212">
        <ele>120</ele>
        <time>2016-12-11T10:18:22.429Z</time>
      </trkpt>
      <trkpt lat="48.02197" lon="2.82212">
        <ele>120</ele>
        <time>2016-12-11T10:18:23.396Z</time>
      </trkpt>
      <trkpt lat="48.02197" lon="2.82212">
        <ele>120</ele>
        <time>2016-12-11T10:18:24.415Z</time>
      </trkpt>
      <trkpt lat="48.0221" lon="2.82209">
        <ele>118</ele>
        <time>2016-12-11T10:18:25.399Z</time>
      </trkpt>
      <trkpt lat="48.02224" lon="2.82207">
        <ele>117</ele>
        <time>2016-12-11T10:18:26.405Z</time>
      </trkpt>
      <trkpt lat="48.02224" lon="2.82207">
        <ele>117</ele>
        <time>2016-12-11T10:18:27.414Z</time>
      </trkpt>
      <trkpt lat="48.02224" lon="2.82207">
        <ele>117</ele>
        <time>2016-12-11T10:18:28.397Z</time>
      </trkpt>
      <trkpt lat="48.02238" lon="2.82206">
        <ele>115</ele>
        <time>2016-12-11T10:18:29.425Z</time>
      </trkpt>
      <trkpt lat="48.02251" lon="2.82205">
        <ele>115</ele>
        <time>2016-12-11T10:18:30.432Z</time>
      </trkpt>
      <trkpt lat="48.02257" lon="2.82204">
        <ele>114</ele>
        <time>2016-12-11T10:18:31.400Z</time>
      </trkpt>
      <trkpt lat="48.02257" lon="2.82204">
        <ele>114</ele>
        <time>2016-12-11T10:18:32.404Z</time>
      </trkpt>
      <trkpt lat="48.0227" lon="2.82202">
        <ele>113</ele>
        <time>2016-12-11T10:18:33.411Z</time>
      </trkpt>
      <trkpt lat="48.02276" lon="2.822">
        <ele>113</ele>
        <time>2016-12-11T10:18:34.446Z</time>
      </trkpt>
      <trkpt lat="48.02276" lon="2.822">
        <ele>113</ele>
        <time>2016-12-11T10:18:35.413Z</time>
      </trkpt>
      <trkpt lat="48.02287" lon="2.82197">
        <ele>113</ele>
        <time>2016-12-11T10:18:36.424Z</time>
      </trkpt>
      <trkpt lat="48.02287" lon="2.82197">
        <ele>113</ele>
        <time>2016-12-11T10:18:37.397Z</time>
      </trkpt>
      <trkpt lat="48.02298" lon="2.82194">
        <ele>113</ele>
        <time>2016-12-11T10:18:38.442Z</time>
      </trkpt>
      <trkpt lat="48.02303" lon="2.82193">
        <ele>113</ele>
        <time>2016-12-11T10:18:39.434Z</time>
      </trkpt>
      <trkpt lat="48.02303" lon="2.82193">
        <ele>113</ele>
        <time>2016-12-11T10:18:40.428Z</time>
      </trkpt>
      <trkpt lat="48.02314" lon="2.82192">
        <ele>113</ele>
        <time>2016-12-11T10:18:41.434Z</time>
      </trkpt>
      <trkpt lat="48.02314" lon="2.82192">
        <ele>113</ele>
        <time>2016-12-11T10:18:42.430Z</time>
      </trkpt>
      <trkpt lat="48.02324" lon="2.82189">
        <ele>113</ele>
        <time>2016-12-11T10:18:43.396Z</time>
      </trkpt>
      <trkpt lat="48.02324" lon="2.82189">
        <ele>113</ele>
        <time>2016-12-11T10:18:44.432Z</time>
      </trkpt>
      <trkpt lat="48.02334" lon="2.82188">
        <ele>112</ele>
        <time>2016-12-11T10:18:45.446Z</time>
      </trkpt>
      <trkpt lat="48.02339" lon="2.82188">
        <ele>112</ele>
        <time>2016-12-11T10:18:46.423Z</time>
      </trkpt>
      <trkpt lat="48.02339" lon="2.82188">
        <ele>112</ele>
        <time>2016-12-11T10:18:47.430Z</time>
      </trkpt>
      <trkpt lat="48.02339" lon="2.82188">
        <ele>112</ele>
        <time>2016-12-11T10:18:48.396Z</time>
      </trkpt>
      <trkpt lat="48.0235" lon="2.82186">
        <ele>112</ele>
        <time>2016-12-11T10:18:49.408Z</time>
      </trkpt>
      <trkpt lat="48.0236" lon="2.82185">
        <ele>113</ele>
        <time>2016-12-11T10:18:50.414Z</time>
      </trkpt>
      <trkpt lat="48.0236" lon="2.82185">
        <ele>113</ele>
        <time>2016-12-11T10:18:51.402Z</time>
      </trkpt>
      <trkpt lat="48.0236" lon="2.82185">
        <ele>113</ele>
        <time>2016-12-11T10:18:52.396Z</time>
      </trkpt>
      <trkpt lat="48.0237" lon="2.82182">
        <ele>114</ele>
        <time>2016-12-11T10:18:53.405Z</time>
      </trkpt>
      <trkpt lat="48.02379" lon="2.8218">
        <ele>114</ele>
        <time>2016-12-11T10:18:54.425Z</time>
      </trkpt>
      <trkpt lat="48.02384" lon="2.82179">
        <ele>114</ele>
        <time>2016-12-11T10:18:55.440Z</time>
      </trkpt>
      <trkpt lat="48.02384" lon="2.82179">
        <ele>114</ele>
        <time>2016-12-11T10:18:56.420Z</time>
      </trkpt>
      <trkpt lat="48.02394" lon="2.82177">
        <ele>115</ele>
        <time>2016-12-11T10:18:57.426Z</time>
      </trkpt>
      <trkpt lat="48.02399" lon="2.82177">
        <ele>115</ele>
        <time>2016-12-11T10:18:58.416Z</time>
      </trkpt>
      <trkpt lat="48.02404" lon="2.82177">
        <ele>115</ele>
        <time>2016-12-11T10:18:59.424Z</time>
      </trkpt>
      <trkpt lat="48.02404" lon="2.82177">
        <ele>115</ele>
        <time>2016-12-11T10:19:00.425Z</time>
      </trkpt>
      <trkpt lat="48.02412" lon="2.82176">
        <ele>115</ele>
        <time>2016-12-11T10:19:01.433Z</time>
      </trkpt>
      <trkpt lat="48.02416" lon="2.82174">
        <ele>116</ele>
        <time>2016-12-11T10:19:02.424Z</time>
      </trkpt>
      <trkpt lat="48.02416" lon="2.82174">
        <ele>116</ele>
        <time>2016-12-11T10:19:03.414Z</time>
      </trkpt>
      <trkpt lat="48.02424" lon="2.8217">
        <ele>116</ele>
        <time>2016-12-11T10:19:04.430Z</time>
      </trkpt>
      <trkpt lat="48.02424" lon="2.8217">
        <ele>116</ele>
        <time>2016-12-11T10:19:05.405Z</time>
      </trkpt>
      <trkpt lat="48.02431" lon="2.82161">
        <ele>116</ele>
        <time>2016-12-11T10:19:06.417Z</time>
      </trkpt>
      <trkpt lat="48.02431" lon="2.82161">
        <ele>116</ele>
        <time>2016-12-11T10:19:07.418Z</time>
      </trkpt>
      <trkpt lat="48.02437" lon="2.82151">
        <ele>116</ele>
        <time>2016-12-11T10:19:08.427Z</time>
      </trkpt>
      <trkpt lat="48.02437" lon="2.82151">
        <ele>116</ele>
        <time>2016-12-11T10:19:09.397Z</time>
      </trkpt>
      <trkpt lat="48.02442" lon="2.82141">
        <ele>117</ele>
        <time>2016-12-11T10:19:10.434Z</time>
      </trkpt>
      <trkpt lat="48.02442" lon="2.82141">
        <ele>117</ele>
        <time>2016-12-11T10:19:11.416Z</time>
      </trkpt>
      <trkpt lat="48.02448" lon="2.82131">
        <ele>116</ele>
        <time>2016-12-11T10:19:12.426Z</time>
      </trkpt>
      <trkpt lat="48.02451" lon="2.82126">
        <ele>116</ele>
        <time>2016-12-11T10:19:13.446Z</time>
      </trkpt>
      <trkpt lat="48.02451" lon="2.82126">
        <ele>116</ele>
        <time>2016-12-11T10:19:14.426Z</time>
      </trkpt>
      <trkpt lat="48.02457" lon="2.82115">
        <ele>117</ele>
        <time>2016-12-11T10:19:15.433Z</time>
      </trkpt>
      <trkpt lat="48.02459" lon="2.8211">
        <ele>116</ele>
        <time>2016-12-11T10:19:16.422Z</time>
      </trkpt>
      <trkpt lat="48.02459" lon="2.8211">
        <ele>116</ele>
        <time>2016-12-11T10:19:17.397Z</time>
      </trkpt>
      <trkpt lat="48.02465" lon="2.821">
        <ele>116</ele>
        <time>2016-12-11T10:19:18.399Z</time>
      </trkpt>
      <trkpt lat="48.02465" lon="2.821">
        <ele>116</ele>
        <time>2016-12-11T10:19:19.412Z</time>
      </trkpt>
      <trkpt lat="48.02471" lon="2.8209">
        <ele>116</ele>
        <time>2016-12-11T10:19:20.420Z</time>
      </trkpt>
      <trkpt lat="48.02474" lon="2.82086">
        <ele>116</ele>
        <time>2016-12-11T10:19:21.409Z</time>
      </trkpt>
      <trkpt lat="48.02476" lon="2.82081">
        <ele>115</ele>
        <time>2016-12-11T10:19:22.411Z</time>
      </trkpt>
      <trkpt lat="48.02476" lon="2.82081">
        <ele>115</ele>
        <time>2016-12-11T10:19:23.400Z</time>
      </trkpt>
      <trkpt lat="48.02482" lon="2.82071">
        <ele>115</ele>
        <time>2016-12-11T10:19:24.447Z</time>
      </trkpt>
      <trkpt lat="48.02482" lon="2.82071">
        <ele>115</ele>
        <time>2016-12-11T10:19:25.397Z</time>
      </trkpt>
      <trkpt lat="48.02487" lon="2.82063">
        <ele>115</ele>
        <time>2016-12-11T10:19:26.404Z</time>
      </trkpt>
      <trkpt lat="48.02487" lon="2.82063">
        <ele>115</ele>
        <time>2016-12-11T10:19:27.431Z</time>
      </trkpt>
      <trkpt lat="48.02487" lon="2.82063">
        <ele>115</ele>
        <time>2016-12-11T10:19:28.398Z</time>
      </trkpt>
      <trkpt lat="48.02489" lon="2.82055">
        <ele>114</ele>
        <time>2016-12-11T10:19:29.398Z</time>
      </trkpt>
      <trkpt lat="48.02489" lon="2.82053">
        <ele>114</ele>
        <time>2016-12-11T10:19:30.426Z</time>
      </trkpt>
      <trkpt lat="48.02489" lon="2.82053">
        <ele>114</ele>
        <time>2016-12-11T10:19:31.414Z</time>
      </trkpt>
      <trkpt lat="48.02489" lon="2.82053">
        <ele>114</ele>
        <time>2016-12-11T10:19:32.425Z</time>
      </trkpt>
      <trkpt lat="48.02489" lon="2.82051">
        <ele>114</ele>
        <time>2016-12-11T10:19:33.396Z</time>
      </trkpt>
      <trkpt lat="48.02489" lon="2.82051">
        <ele>114</ele>
        <time>2016-12-11T10:19:34.398Z</time>
      </trkpt>
      <trkpt lat="48.02485" lon="2.82042">
        <ele>114</ele>
        <time>2016-12-11T10:19:35.415Z</time>
      </trkpt>
      <trkpt lat="48.02485" lon="2.82042">
        <ele>114</ele>
        <time>2016-12-11T10:19:36.424Z</time>
      </trkpt>
      <trkpt lat="48.02485" lon="2.82039">
        <ele>114</ele>
        <time>2016-12-11T10:19:37.401Z</time>
      </trkpt>
      <trkpt lat="48.02485" lon="2.82038">
        <ele>114</ele>
        <time>2016-12-11T10:19:38.408Z</time>
      </trkpt>
      <trkpt lat="48.02485" lon="2.82035">
        <ele>114</ele>
        <time>2016-12-11T10:19:39.400Z</time>
      </trkpt>
      <trkpt lat="48.02485" lon="2.82035">
        <ele>114</ele>
        <time>2016-12-11T10:19:40.426Z</time>
      </trkpt>
      <trkpt lat="48.02485" lon="2.82028">
        <ele>113</ele>
        <time>2016-12-11T10:19:41.399Z</time>
      </trkpt>
      <trkpt lat="48.02485" lon="2.82028">
        <ele>113</ele>
        <time>2016-12-11T10:19:42.422Z</time>
      </trkpt>
      <trkpt lat="48.02484" lon="2.8202">
        <ele>113</ele>
        <time>2016-12-11T10:19:43.403Z</time>
      </trkpt>
      <trkpt lat="48.02483" lon="2.82016">
        <ele>113</ele>
        <time>2016-12-11T10:19:44.426Z</time>
      </trkpt>
      <trkpt lat="48.02482" lon="2.82012">
        <ele>113</ele>
        <time>2016-12-11T10:19:45.412Z</time>
      </trkpt>
      <trkpt lat="48.02482" lon="2.82012">
        <ele>113</ele>
        <time>2016-12-11T10:19:46.398Z</time>
      </trkpt>
      <trkpt lat="48.02481" lon="2.82003">
        <ele>112</ele>
        <time>2016-12-11T10:19:47.406Z</time>
      </trkpt>
      <trkpt lat="48.02481" lon="2.81999">
        <ele>112</ele>
        <time>2016-12-11T10:19:48.420Z</time>
      </trkpt>
      <trkpt lat="48.02481" lon="2.81999">
        <ele>112</ele>
        <time>2016-12-11T10:19:49.407Z</time>
      </trkpt>
      <trkpt lat="48.02481" lon="2.81991">
        <ele>112</ele>
        <time>2016-12-11T10:19:50.414Z</time>
      </trkpt>
      <trkpt lat="48.0248" lon="2.81986">
        <ele>112</ele>
        <time>2016-12-11T10:19:51.399Z</time>
      </trkpt>
      <trkpt lat="48.0248" lon="2.81986">
        <ele>112</ele>
        <time>2016-12-11T10:19:52.426Z</time>
      </trkpt>
      <trkpt lat="48.02479" lon="2.81977">
        <ele>112</ele>
        <time>2016-12-11T10:19:53.399Z</time>
      </trkpt>
      <trkpt lat="48.02479" lon="2.81977">
        <ele>112</ele>
        <time>2016-12-11T10:19:54.425Z</time>
      </trkpt>
      <trkpt lat="48.02479" lon="2.81967">
        <ele>112</ele>
        <time>2016-12-11T10:19:55.431Z</time>
      </trkpt>
      <trkpt lat="48.02479" lon="2.81967">
        <ele>112</ele>
        <time>2016-12-11T10:19:56.412Z</time>
      </trkpt>
      <trkpt lat="48.02478" lon="2.81958">
        <ele>112</ele>
        <time>2016-12-11T10:19:57.427Z</time>
      </trkpt>
      <trkpt lat="48.02478" lon="2.81958">
        <ele>112</ele>
        <time>2016-12-11T10:19:58.434Z</time>
      </trkpt>
      <trkpt lat="48.02478" lon="2.81949">
        <ele>111</ele>
        <time>2016-12-11T10:19:59.400Z</time>
      </trkpt>
      <trkpt lat="48.02477" lon="2.81945">
        <ele>111</ele>
        <time>2016-12-11T10:20:00.406Z</time>
      </trkpt>
      <trkpt lat="48.02477" lon="2.81945">
        <ele>111</ele>
        <time>2016-12-11T10:20:01.398Z</time>
      </trkpt>
      <trkpt lat="48.02476" lon="2.81937">
        <ele>111</ele>
        <time>2016-12-11T10:20:02.406Z</time>
      </trkpt>
      <trkpt lat="48.02475" lon="2.81933">
        <ele>111</ele>
        <time>2016-12-11T10:20:03.396Z</time>
      </trkpt>
      <trkpt lat="48.02475" lon="2.81933">
        <ele>111</ele>
        <time>2016-12-11T10:20:04.421Z</time>
      </trkpt>
      <trkpt lat="48.02474" lon="2.81925">
        <ele>110</ele>
        <time>2016-12-11T10:20:05.429Z</time>
      </trkpt>
      <trkpt lat="48.02474" lon="2.81925">
        <ele>110</ele>
        <time>2016-12-11T10:20:06.413Z</time>
      </trkpt>
      <trkpt lat="48.02473" lon="2.81916">
        <ele>110</ele>
        <time>2016-12-11T10:20:07.419Z</time>
      </trkpt>
      <trkpt lat="48.02473" lon="2.81916">
        <ele>110</ele>
        <time>2016-12-11T10:20:08.403Z</time>
      </trkpt>
      <trkpt lat="48.02472" lon="2.81906">
        <ele>110</ele>
        <time>2016-12-11T10:20:09.431Z</time>
      </trkpt>
      <trkpt lat="48.02472" lon="2.81906">
        <ele>110</ele>
        <time>2016-12-11T10:20:10.417Z</time>
      </trkpt>
      <trkpt lat="48.02472" lon="2.81896">
        <ele>111</ele>
        <time>2016-12-11T10:20:11.424Z</time>
      </trkpt>
      <trkpt lat="48.02472" lon="2.81893">
        <ele>111</ele>
        <time>2016-12-11T10:20:12.407Z</time>
      </trkpt>
      <trkpt lat="48.02472" lon="2.81893">
        <ele>111</ele>
        <time>2016-12-11T10:20:13.397Z</time>
      </trkpt>
      <trkpt lat="48.02472" lon="2.81885">
        <ele>111</ele>
        <time>2016-12-11T10:20:14.405Z</time>
      </trkpt>
      <trkpt lat="48.02471" lon="2.8188">
        <ele>110</ele>
        <time>2016-12-11T10:20:15.399Z</time>
      </trkpt>
      <trkpt lat="48.02471" lon="2.8188">
        <ele>110</ele>
        <time>2016-12-11T10:20:16.426Z</time>
      </trkpt>
      <trkpt lat="48.02471" lon="2.81874">
        <ele>111</ele>
        <time>2016-12-11T10:20:17.397Z</time>
      </trkpt>
      <trkpt lat="48.0247" lon="2.81871">
        <ele>110</ele>
        <time>2016-12-11T10:20:18.402Z</time>
      </trkpt>
      <trkpt lat="48.0247" lon="2.81871">
        <ele>110</ele>
        <time>2016-12-11T10:20:19.430Z</time>
      </trkpt>
      <trkpt lat="48.02469" lon="2.81862">
        <ele>111</ele>
        <time>2016-12-11T10:20:20.401Z</time>
      </trkpt>
      <trkpt lat="48.02469" lon="2.81857">
        <ele>111</ele>
        <time>2016-12-11T10:20:21.430Z</time>
      </trkpt>
      <trkpt lat="48.02469" lon="2.81857">
        <ele>111</ele>
        <time>2016-12-11T10:20:22.418Z</time>
      </trkpt>
      <trkpt lat="48.02469" lon="2.8185">
        <ele>111</ele>
        <time>2016-12-11T10:20:23.432Z</time>
      </trkpt>
      <trkpt lat="48.02469" lon="2.81846">
        <ele>111</ele>
        <time>2016-12-11T10:20:24.428Z</time>
      </trkpt>
      <trkpt lat="48.02469" lon="2.81846">
        <ele>111</ele>
        <time>2016-12-11T10:20:25.413Z</time>
      </trkpt>
      <trkpt lat="48.02468" lon="2.81836">
        <ele>111</ele>
        <time>2016-12-11T10:20:26.419Z</time>
      </trkpt>
      <trkpt lat="48.02468" lon="2.81833">
        <ele>111</ele>
        <time>2016-12-11T10:20:27.418Z</time>
      </trkpt>
      <trkpt lat="48.02468" lon="2.81833">
        <ele>111</ele>
        <time>2016-12-11T10:20:28.403Z</time>
      </trkpt>
      <trkpt lat="48.02467" lon="2.81824">
        <ele>111</ele>
        <time>2016-12-11T10:20:29.410Z</time>
      </trkpt>
      <trkpt lat="48.02467" lon="2.81819">
        <ele>111</ele>
        <time>2016-12-11T10:20:30.418Z</time>
      </trkpt>
      <trkpt lat="48.02467" lon="2.81819">
        <ele>111</ele>
        <time>2016-12-11T10:20:31.424Z</time>
      </trkpt>
      <trkpt lat="48.02465" lon="2.81809">
        <ele>111</ele>
        <time>2016-12-11T10:20:32.433Z</time>
      </trkpt>
      <trkpt lat="48.02465" lon="2.81804">
        <ele>111</ele>
        <time>2016-12-11T10:20:33.396Z</time>
      </trkpt>
      <trkpt lat="48.02465" lon="2.81804">
        <ele>111</ele>
        <time>2016-12-11T10:20:34.411Z</time>
      </trkpt>
      <trkpt lat="48.02464" lon="2.81796">
        <ele>111</ele>
        <time>2016-12-11T10:20:35.417Z</time>
      </trkpt>
      <trkpt lat="48.02464" lon="2.81796">
        <ele>111</ele>
        <time>2016-12-11T10:20:36.402Z</time>
      </trkpt>
      <trkpt lat="48.02464" lon="2.81787">
        <ele>111</ele>
        <time>2016-12-11T10:20:37.409Z</time>
      </trkpt>
      <trkpt lat="48.02464" lon="2.81787">
        <ele>111</ele>
        <time>2016-12-11T10:20:38.397Z</time>
      </trkpt>
      <trkpt lat="48.02464" lon="2.81777">
        <ele>112</ele>
        <time>2016-12-11T10:20:39.425Z</time>
      </trkpt>
      <trkpt lat="48.02464" lon="2.81777">
        <ele>112</ele>
        <time>2016-12-11T10:20:40.410Z</time>
      </trkpt>
      <trkpt lat="48.02463" lon="2.81767">
        <ele>111</ele>
        <time>2016-12-11T10:20:41.417Z</time>
      </trkpt>
      <trkpt lat="48.02463" lon="2.81762">
        <ele>111</ele>
        <time>2016-12-11T10:20:42.399Z</time>
      </trkpt>
      <trkpt lat="48.02463" lon="2.81762">
        <ele>111</ele>
        <time>2016-12-11T10:20:43.423Z</time>
      </trkpt>
      <trkpt lat="48.02462" lon="2.81751">
        <ele>111</ele>
        <time>2016-12-11T10:20:44.396Z</time>
      </trkpt>
      <trkpt lat="48.02462" lon="2.81744">
        <ele>111</ele>
        <time>2016-12-11T10:20:45.406Z</time>
      </trkpt>
      <trkpt lat="48.02462" lon="2.81744">
        <ele>111</ele>
        <time>2016-12-11T10:20:46.432Z</time>
      </trkpt>
      <trkpt lat="48.02461" lon="2.81732">
        <ele>111</ele>
        <time>2016-12-11T10:20:47.399Z</time>
      </trkpt>
      <trkpt lat="48.02461" lon="2.81727">
        <ele>111</ele>
        <time>2016-12-11T10:20:48.427Z</time>
      </trkpt>
      <trkpt lat="48.02461" lon="2.81727">
        <ele>111</ele>
        <time>2016-12-11T10:20:49.415Z</time>
      </trkpt>
      <trkpt lat="48.02459" lon="2.81715">
        <ele>111</ele>
        <time>2016-12-11T10:20:50.421Z</time>
      </trkpt>
      <trkpt lat="48.02458" lon="2.8171">
        <ele>111</ele>
        <time>2016-12-11T10:20:51.414Z</time>
      </trkpt>
      <trkpt lat="48.02458" lon="2.8171">
        <ele>111</ele>
        <time>2016-12-11T10:20:52.400Z</time>
      </trkpt>
      <trkpt lat="48.02457" lon="2.817">
        <ele>112</ele>
        <time>2016-12-11T10:20:53.405Z</time>
      </trkpt>
      <trkpt lat="48.02457" lon="2.817">
        <ele>112</ele>
        <time>2016-12-11T10:20:54.423Z</time>
      </trkpt>
      <trkpt lat="48.02456" lon="2.81689">
        <ele>111</ele>
        <time>2016-12-11T10:20:55.429Z</time>
      </trkpt>
      <trkpt lat="48.02456" lon="2.81685">
        <ele>111</ele>
        <time>2016-12-11T10:20:56.418Z</time>
      </trkpt>
      <trkpt lat="48.02456" lon="2.81685">
        <ele>111</ele>
        <time>2016-12-11T10:20:57.403Z</time>
      </trkpt>
      <trkpt lat="48.02455" lon="2.81675">
        <ele>111</ele>
        <time>2016-12-11T10:20:58.409Z</time>
      </trkpt>
      <trkpt lat="48.02455" lon="2.81675">
        <ele>111</ele>
        <time>2016-12-11T10:20:59.399Z</time>
      </trkpt>
      <trkpt lat="48.02455" lon="2.81665">
        <ele>110</ele>
        <time>2016-12-11T10:21:00.425Z</time>
      </trkpt>
      <trkpt lat="48.02454" lon="2.81661">
        <ele>110</ele>
        <time>2016-12-11T10:21:01.410Z</time>
      </trkpt>
      <trkpt lat="48.02454" lon="2.81661">
        <ele>110</ele>
        <time>2016-12-11T10:21:02.398Z</time>
      </trkpt>
      <trkpt lat="48.02454" lon="2.8165">
        <ele>110</ele>
        <time>2016-12-11T10:21:03.406Z</time>
      </trkpt>
      <trkpt lat="48.02454" lon="2.8165">
        <ele>110</ele>
        <time>2016-12-11T10:21:04.406Z</time>
      </trkpt>
      <trkpt lat="48.02453" lon="2.81638">
        <ele>109</ele>
        <time>2016-12-11T10:21:05.416Z</time>
      </trkpt>
      <trkpt lat="48.02453" lon="2.81638">
        <ele>109</ele>
        <time>2016-12-11T10:21:06.398Z</time>
      </trkpt>
      <trkpt lat="48.02452" lon="2.81627">
        <ele>109</ele>
        <time>2016-12-11T10:21:07.406Z</time>
      </trkpt>
      <trkpt lat="48.02452" lon="2.81621">
        <ele>109</ele>
        <time>2016-12-11T10:21:08.397Z</time>
      </trkpt>
      <trkpt lat="48.02451" lon="2.81615">
        <ele>109</ele>
        <time>2016-12-11T10:21:09.432Z</time>
      </trkpt>
      <trkpt lat="48.02451" lon="2.81615">
        <ele>109</ele>
        <time>2016-12-11T10:21:10.416Z</time>
      </trkpt>
      <trkpt lat="48.02451" lon="2.81605">
        <ele>108</ele>
        <time>2016-12-11T10:21:11.423Z</time>
      </trkpt>
      <trkpt lat="48.0245" lon="2.816">
        <ele>108</ele>
        <time>2016-12-11T10:21:12.404Z</time>
      </trkpt>
      <trkpt lat="48.0245" lon="2.816">
        <ele>108</ele>
        <time>2016-12-11T10:21:13.397Z</time>
      </trkpt>
      <trkpt lat="48.02449" lon="2.81589">
        <ele>108</ele>
        <time>2016-12-11T10:21:14.406Z</time>
      </trkpt>
      <trkpt lat="48.02449" lon="2.81584">
        <ele>108</ele>
        <time>2016-12-11T10:21:15.411Z</time>
      </trkpt>
      <trkpt lat="48.02449" lon="2.81584">
        <ele>108</ele>
        <time>2016-12-11T10:21:16.435Z</time>
      </trkpt>
      <trkpt lat="48.02448" lon="2.81573">
        <ele>108</ele>
        <time>2016-12-11T10:21:17.434Z</time>
      </trkpt>
      <trkpt lat="48.02448" lon="2.81573">
        <ele>108</ele>
        <time>2016-12-11T10:21:18.428Z</time>
      </trkpt>
      <trkpt lat="48.02448" lon="2.81564">
        <ele>107</ele>
        <time>2016-12-11T10:21:19.400Z</time>
      </trkpt>
      <trkpt lat="48.02448" lon="2.81564">
        <ele>107</ele>
        <time>2016-12-11T10:21:20.425Z</time>
      </trkpt>
      <trkpt lat="48.02447" lon="2.81551">
        <ele>107</ele>
        <time>2016-12-11T10:21:21.433Z</time>
      </trkpt>
      <trkpt lat="48.02447" lon="2.81551">
        <ele>107</ele>
        <time>2016-12-11T10:21:22.419Z</time>
      </trkpt>
      <trkpt lat="48.02446" lon="2.81539">
        <ele>106</ele>
        <time>2016-12-11T10:21:23.425Z</time>
      </trkpt>
      <trkpt lat="48.02446" lon="2.81539">
        <ele>106</ele>
        <time>2016-12-11T10:21:24.422Z</time>
      </trkpt>
      <trkpt lat="48.02445" lon="2.81529">
        <ele>106</ele>
        <time>2016-12-11T10:21:25.398Z</time>
      </trkpt>
      <trkpt lat="48.02445" lon="2.81529">
        <ele>106</ele>
        <time>2016-12-11T10:21:26.407Z</time>
      </trkpt>
      <trkpt lat="48.02445" lon="2.81517">
        <ele>106</ele>
        <time>2016-12-11T10:21:27.413Z</time>
      </trkpt>
      <trkpt lat="48.02445" lon="2.81517">
        <ele>106</ele>
        <time>2016-12-11T10:21:28.432Z</time>
      </trkpt>
      <trkpt lat="48.02445" lon="2.81506">
        <ele>106</ele>
        <time>2016-12-11T10:21:29.415Z</time>
      </trkpt>
      <trkpt lat="48.02445" lon="2.81506">
        <ele>106</ele>
        <time>2016-12-11T10:21:30.400Z</time>
      </trkpt>
      <trkpt lat="48.02445" lon="2.81495">
        <ele>105</ele>
        <time>2016-12-11T10:21:31.407Z</time>
      </trkpt>
      <trkpt lat="48.02445" lon="2.8149">
        <ele>105</ele>
        <time>2016-12-11T10:21:32.409Z</time>
      </trkpt>
      <trkpt lat="48.02445" lon="2.8149">
        <ele>105</ele>
        <time>2016-12-11T10:21:33.398Z</time>
      </trkpt>
      <trkpt lat="48.02444" lon="2.8148">
        <ele>104</ele>
        <time>2016-12-11T10:21:34.415Z</time>
      </trkpt>
      <trkpt lat="48.02443" lon="2.81475">
        <ele>103</ele>
        <time>2016-12-11T10:21:35.401Z</time>
      </trkpt>
      <trkpt lat="48.02443" lon="2.81475">
        <ele>103</ele>
        <time>2016-12-11T10:21:36.429Z</time>
      </trkpt>
      <trkpt lat="48.02443" lon="2.81465">
        <ele>102</ele>
        <time>2016-12-11T10:21:37.420Z</time>
      </trkpt>
      <trkpt lat="48.02442" lon="2.81458">
        <ele>102</ele>
        <time>2016-12-11T10:21:38.406Z</time>
      </trkpt>
      <trkpt lat="48.02442" lon="2.81458">
        <ele>102</ele>
        <time>2016-12-11T10:21:39.434Z</time>
      </trkpt>
      <trkpt lat="48.02441" lon="2.81446">
        <ele>101</ele>
        <time>2016-12-11T10:21:40.404Z</time>
      </trkpt>
      <trkpt lat="48.02441" lon="2.81446">
        <ele>101</ele>
        <time>2016-12-11T10:21:41.431Z</time>
      </trkpt>
      <trkpt lat="48.0244" lon="2.81435">
        <ele>100</ele>
        <time>2016-12-11T10:21:42.399Z</time>
      </trkpt>
      <trkpt lat="48.0244" lon="2.81435">
        <ele>100</ele>
        <time>2016-12-11T10:21:43.426Z</time>
      </trkpt>
      <trkpt lat="48.0244" lon="2.81423">
        <ele>100</ele>
        <time>2016-12-11T10:21:44.420Z</time>
      </trkpt>
      <trkpt lat="48.0244" lon="2.81423">
        <ele>100</ele>
        <time>2016-12-11T10:21:45.427Z</time>
      </trkpt>
      <trkpt lat="48.02438" lon="2.81413">
        <ele>101</ele>
        <time>2016-12-11T10:21:46.408Z</time>
      </trkpt>
      <trkpt lat="48.02438" lon="2.81413">
        <ele>101</ele>
        <time>2016-12-11T10:21:47.414Z</time>
      </trkpt>
      <trkpt lat="48.02435" lon="2.81404">
        <ele>101</ele>
        <time>2016-12-11T10:21:48.408Z</time>
      </trkpt>
      <trkpt lat="48.02435" lon="2.81404">
        <ele>101</ele>
        <time>2016-12-11T10:21:49.408Z</time>
      </trkpt>
      <trkpt lat="48.02431" lon="2.81397">
        <ele>101</ele>
        <time>2016-12-11T10:21:50.427Z</time>
      </trkpt>
      <trkpt lat="48.02429" lon="2.81394">
        <ele>101</ele>
        <time>2016-12-11T10:21:51.400Z</time>
      </trkpt>
      <trkpt lat="48.02429" lon="2.81394">
        <ele>101</ele>
        <time>2016-12-11T10:21:52.425Z</time>
      </trkpt>
      <trkpt lat="48.02426" lon="2.81386">
        <ele>101</ele>
        <time>2016-12-11T10:21:53.432Z</time>
      </trkpt>
      <trkpt lat="48.02426" lon="2.81386">
        <ele>101</ele>
        <time>2016-12-11T10:21:54.413Z</time>
      </trkpt>
      <trkpt lat="48.02421" lon="2.81379">
        <ele>100</ele>
        <time>2016-12-11T10:21:55.419Z</time>
      </trkpt>
      <trkpt lat="48.02421" lon="2.81379">
        <ele>100</ele>
        <time>2016-12-11T10:21:56.407Z</time>
      </trkpt>
      <trkpt lat="48.02417" lon="2.81371">
        <ele>100</ele>
        <time>2016-12-11T10:21:57.399Z</time>
      </trkpt>
      <trkpt lat="48.02417" lon="2.81371">
        <ele>100</ele>
        <time>2016-12-11T10:21:58.421Z</time>
      </trkpt>
      <trkpt lat="48.02412" lon="2.81363">
        <ele>101</ele>
        <time>2016-12-11T10:21:59.428Z</time>
      </trkpt>
      <trkpt lat="48.02409" lon="2.81357">
        <ele>101</ele>
        <time>2016-12-11T10:22:00.422Z</time>
      </trkpt>
      <trkpt lat="48.02409" lon="2.81357">
        <ele>101</ele>
        <time>2016-12-11T10:22:01.428Z</time>
      </trkpt>
      <trkpt lat="48.02404" lon="2.81347">
        <ele>101</ele>
        <time>2016-12-11T10:22:02.428Z</time>
      </trkpt>
      <trkpt lat="48.02404" lon="2.81347">
        <ele>101</ele>
        <time>2016-12-11T10:22:03.417Z</time>
      </trkpt>
      <trkpt lat="48.02396" lon="2.81335">
        <ele>102</ele>
        <time>2016-12-11T10:22:04.429Z</time>
      </trkpt>
      <trkpt lat="48.02396" lon="2.81335">
        <ele>102</ele>
        <time>2016-12-11T10:22:05.415Z</time>
      </trkpt>
      <trkpt lat="48.02389" lon="2.81321">
        <ele>102</ele>
        <time>2016-12-11T10:22:06.432Z</time>
      </trkpt>
      <trkpt lat="48.02389" lon="2.81321">
        <ele>102</ele>
        <time>2016-12-11T10:22:07.417Z</time>
      </trkpt>
      <trkpt lat="48.02381" lon="2.81307">
        <ele>103</ele>
        <time>2016-12-11T10:22:08.425Z</time>
      </trkpt>
      <trkpt lat="48.02377" lon="2.81301">
        <ele>102</ele>
        <time>2016-12-11T10:22:09.410Z</time>
      </trkpt>
      <trkpt lat="48.02377" lon="2.81301">
        <ele>102</ele>
        <time>2016-12-11T10:22:10.397Z</time>
      </trkpt>
      <trkpt lat="48.02369" lon="2.81287">
        <ele>103</ele>
        <time>2016-12-11T10:22:11.415Z</time>
      </trkpt>
      <trkpt lat="48.02364" lon="2.8128">
        <ele>103</ele>
        <time>2016-12-11T10:22:12.424Z</time>
      </trkpt>
      <trkpt lat="48.02364" lon="2.8128">
        <ele>103</ele>
        <time>2016-12-11T10:22:13.407Z</time>
      </trkpt>
      <trkpt lat="48.02356" lon="2.81267">
        <ele>104</ele>
        <time>2016-12-11T10:22:14.425Z</time>
      </trkpt>
      <trkpt lat="48.02353" lon="2.81261">
        <ele>104</ele>
        <time>2016-12-11T10:22:15.413Z</time>
      </trkpt>
      <trkpt lat="48.02353" lon="2.81261">
        <ele>104</ele>
        <time>2016-12-11T10:22:16.397Z</time>
      </trkpt>
      <trkpt lat="48.02345" lon="2.81248">
        <ele>104</ele>
        <time>2016-12-11T10:22:17.401Z</time>
      </trkpt>
      <trkpt lat="48.02345" lon="2.81248">
        <ele>104</ele>
        <time>2016-12-11T10:22:18.429Z</time>
      </trkpt>
      <trkpt lat="48.02339" lon="2.81235">
        <ele>104</ele>
        <time>2016-12-11T10:22:19.398Z</time>
      </trkpt>
      <trkpt lat="48.02336" lon="2.81229">
        <ele>104</ele>
        <time>2016-12-11T10:22:20.421Z</time>
      </trkpt>
      <trkpt lat="48.02336" lon="2.81229">
        <ele>104</ele>
        <time>2016-12-11T10:22:21.407Z</time>
      </trkpt>
      <trkpt lat="48.02329" lon="2.81217">
        <ele>104</ele>
        <time>2016-12-11T10:22:22.414Z</time>
      </trkpt>
      <trkpt lat="48.02329" lon="2.81217">
        <ele>104</ele>
        <time>2016-12-11T10:22:23.405Z</time>
      </trkpt>
      <trkpt lat="48.02324" lon="2.81206">
        <ele>105</ele>
        <time>2016-12-11T10:22:24.404Z</time>
      </trkpt>
      <trkpt lat="48.02324" lon="2.81206">
        <ele>105</ele>
        <time>2016-12-11T10:22:25.406Z</time>
      </trkpt>
      <trkpt lat="48.02318" lon="2.81195">
        <ele>105</ele>
        <time>2016-12-11T10:22:26.412Z</time>
      </trkpt>
      <trkpt lat="48.02316" lon="2.8119">
        <ele>105</ele>
        <time>2016-12-11T10:22:27.432Z</time>
      </trkpt>
      <trkpt lat="48.02316" lon="2.8119">
        <ele>105</ele>
        <time>2016-12-11T10:22:28.416Z</time>
      </trkpt>
      <trkpt lat="48.02311" lon="2.8118">
        <ele>106</ele>
        <time>2016-12-11T10:22:29.423Z</time>
      </trkpt>
      <trkpt lat="48.02309" lon="2.81175">
        <ele>106</ele>
        <time>2016-12-11T10:22:30.419Z</time>
      </trkpt>
      <trkpt lat="48.02309" lon="2.81175">
        <ele>106</ele>
        <time>2016-12-11T10:22:31.397Z</time>
      </trkpt>
      <trkpt lat="48.02304" lon="2.81166">
        <ele>106</ele>
        <time>2016-12-11T10:22:32.428Z</time>
      </trkpt>
      <trkpt lat="48.02301" lon="2.81161">
        <ele>106</ele>
        <time>2016-12-11T10:22:33.399Z</time>
      </trkpt>
      <trkpt lat="48.02298" lon="2.81157">
        <ele>106</ele>
        <time>2016-12-11T10:22:34.424Z</time>
      </trkpt>
      <trkpt lat="48.02298" lon="2.81157">
        <ele>106</ele>
        <time>2016-12-11T10:22:35.414Z</time>
      </trkpt>
      <trkpt lat="48.02294" lon="2.81145">
        <ele>106</ele>
        <time>2016-12-11T10:22:36.421Z</time>
      </trkpt>
      <trkpt lat="48.02294" lon="2.81145">
        <ele>106</ele>
        <time>2016-12-11T10:22:37.404Z</time>
      </trkpt>
      <trkpt lat="48.02289" lon="2.81134">
        <ele>105</ele>
        <time>2016-12-11T10:22:38.408Z</time>
      </trkpt>
      <trkpt lat="48.02289" lon="2.81134">
        <ele>105</ele>
        <time>2016-12-11T10:22:39.432Z</time>
      </trkpt>
      <trkpt lat="48.02284" lon="2.81123">
        <ele>105</ele>
        <time>2016-12-11T10:22:40.404Z</time>
      </trkpt>
      <trkpt lat="48.02284" lon="2.81123">
        <ele>105</ele>
        <time>2016-12-11T10:22:41.411Z</time>
      </trkpt>
      <trkpt lat="48.02279" lon="2.81114">
        <ele>106</ele>
        <time>2016-12-11T10:22:42.405Z</time>
      </trkpt>
      <trkpt lat="48.02279" lon="2.81114">
        <ele>106</ele>
        <time>2016-12-11T10:22:43.430Z</time>
      </trkpt>
      <trkpt lat="48.02275" lon="2.81106">
        <ele>105</ele>
        <time>2016-12-11T10:22:44.413Z</time>
      </trkpt>
      <trkpt lat="48.02273" lon="2.81102">
        <ele>105</ele>
        <time>2016-12-11T10:22:45.400Z</time>
      </trkpt>
      <trkpt lat="48.02273" lon="2.81102">
        <ele>105</ele>
        <time>2016-12-11T10:22:46.425Z</time>
      </trkpt>
      <trkpt lat="48.02268" lon="2.81093">
        <ele>105</ele>
        <time>2016-12-11T10:22:47.418Z</time>
      </trkpt>
      <trkpt lat="48.02268" lon="2.81093">
        <ele>105</ele>
        <time>2016-12-11T10:22:48.402Z</time>
      </trkpt>
      <trkpt lat="48.02264" lon="2.81084">
        <ele>105</ele>
        <time>2016-12-11T10:22:49.411Z</time>
      </trkpt>
      <trkpt lat="48.02264" lon="2.81084">
        <ele>105</ele>
        <time>2016-12-11T10:22:50.399Z</time>
      </trkpt>
      <trkpt lat="48.02259" lon="2.81074">
        <ele>105</ele>
        <time>2016-12-11T10:22:51.409Z</time>
      </trkpt>
      <trkpt lat="48.02259" lon="2.81074">
        <ele>105</ele>
        <time>2016-12-11T10:22:52.396Z</time>
      </trkpt>
      <trkpt lat="48.02254" lon="2.81066">
        <ele>105</ele>
        <time>2016-12-11T10:22:53.413Z</time>
      </trkpt>
      <trkpt lat="48.02254" lon="2.81066">
        <ele>105</ele>
        <time>2016-12-11T10:22:54.400Z</time>
      </trkpt>
      <trkpt lat="48.0225" lon="2.81056">
        <ele>105</ele>
        <time>2016-12-11T10:22:55.398Z</time>
      </trkpt>
      <trkpt lat="48.0225" lon="2.81056">
        <ele>105</ele>
        <time>2016-12-11T10:22:56.403Z</time>
      </trkpt>
      <trkpt lat="48.02245" lon="2.81047">
        <ele>105</ele>
        <time>2016-12-11T10:22:57.410Z</time>
      </trkpt>
      <trkpt lat="48.02245" lon="2.81047">
        <ele>105</ele>
        <time>2016-12-11T10:22:58.430Z</time>
      </trkpt>
      <trkpt lat="48.0224" lon="2.81035">
        <ele>105</ele>
        <time>2016-12-11T10:22:59.416Z</time>
      </trkpt>
      <trkpt lat="48.0224" lon="2.81035">
        <ele>105</ele>
        <time>2016-12-11T10:23:00.423Z</time>
      </trkpt>
      <trkpt lat="48.02234" lon="2.81022">
        <ele>105</ele>
        <time>2016-12-11T10:23:01.430Z</time>
      </trkpt>
      <trkpt lat="48.02232" lon="2.81017">
        <ele>105</ele>
        <time>2016-12-11T10:23:02.407Z</time>
      </trkpt>
      <trkpt lat="48.02229" lon="2.81012">
        <ele>105</ele>
        <time>2016-12-11T10:23:03.398Z</time>
      </trkpt>
      <trkpt lat="48.02229" lon="2.81012">
        <ele>105</ele>
        <time>2016-12-11T10:23:04.423Z</time>
      </trkpt>
      <trkpt lat="48.02225" lon="2.81003">
        <ele>106</ele>
        <time>2016-12-11T10:23:05.405Z</time>
      </trkpt>
      <trkpt lat="48.02223" lon="2.81">
        <ele>107</ele>
        <time>2016-12-11T10:23:06.424Z</time>
      </trkpt>
      <trkpt lat="48.02221" lon="2.80995">
        <ele>107</ele>
        <time>2016-12-11T10:23:07.409Z</time>
      </trkpt>
      <trkpt lat="48.02221" lon="2.80995">
        <ele>107</ele>
        <time>2016-12-11T10:23:08.396Z</time>
      </trkpt>
      <trkpt lat="48.02217" lon="2.80987">
        <ele>106</ele>
        <time>2016-12-11T10:23:09.404Z</time>
      </trkpt>
      <trkpt lat="48.02217" lon="2.80987">
        <ele>106</ele>
        <time>2016-12-11T10:23:10.431Z</time>
      </trkpt>
      <trkpt lat="48.02213" lon="2.80978">
        <ele>107</ele>
        <time>2016-12-11T10:23:11.400Z</time>
      </trkpt>
      <trkpt lat="48.02213" lon="2.80978">
        <ele>107</ele>
        <time>2016-12-11T10:23:12.424Z</time>
      </trkpt>
      <trkpt lat="48.02208" lon="2.80969">
        <ele>107</ele>
        <time>2016-12-11T10:23:13.431Z</time>
      </trkpt>
      <trkpt lat="48.02208" lon="2.80969">
        <ele>107</ele>
        <time>2016-12-11T10:23:14.414Z</time>
      </trkpt>
      <trkpt lat="48.02203" lon="2.80958">
        <ele>107</ele>
        <time>2016-12-11T10:23:15.428Z</time>
      </trkpt>
      <trkpt lat="48.02201" lon="2.80953">
        <ele>107</ele>
        <time>2016-12-11T10:23:16.412Z</time>
      </trkpt>
      <trkpt lat="48.02201" lon="2.80953">
        <ele>107</ele>
        <time>2016-12-11T10:23:17.427Z</time>
      </trkpt>
      <trkpt lat="48.02195" lon="2.80945">
        <ele>107</ele>
        <time>2016-12-11T10:23:18.400Z</time>
      </trkpt>
      <trkpt lat="48.02192" lon="2.80942">
        <ele>107</ele>
        <time>2016-12-11T10:23:19.397Z</time>
      </trkpt>
      <trkpt lat="48.02192" lon="2.80942">
        <ele>107</ele>
        <time>2016-12-11T10:23:20.408Z</time>
      </trkpt>
      <trkpt lat="48.02186" lon="2.80933">
        <ele>107</ele>
        <time>2016-12-11T10:23:21.414Z</time>
      </trkpt>
      <trkpt lat="48.02184" lon="2.80928">
        <ele>107</ele>
        <time>2016-12-11T10:23:22.431Z</time>
      </trkpt>
      <trkpt lat="48.02184" lon="2.80928">
        <ele>107</ele>
        <time>2016-12-11T10:23:23.412Z</time>
      </trkpt>
      <trkpt lat="48.02178" lon="2.80915">
        <ele>107</ele>
        <time>2016-12-11T10:23:24.429Z</time>
      </trkpt>
      <trkpt lat="48.02176" lon="2.80909">
        <ele>107</ele>
        <time>2016-12-11T10:23:25.402Z</time>
      </trkpt>
      <trkpt lat="48.02173" lon="2.80903">
        <ele>107</ele>
        <time>2016-12-11T10:23:26.425Z</time>
      </trkpt>
      <trkpt lat="48.02173" lon="2.80903">
        <ele>107</ele>
        <time>2016-12-11T10:23:27.412Z</time>
      </trkpt>
      <trkpt lat="48.02169" lon="2.80888">
        <ele>108</ele>
        <time>2016-12-11T10:23:28.421Z</time>
      </trkpt>
      <trkpt lat="48.02166" lon="2.8088">
        <ele>108</ele>
        <time>2016-12-11T10:23:29.399Z</time>
      </trkpt>
      <trkpt lat="48.02166" lon="2.8088">
        <ele>108</ele>
        <time>2016-12-11T10:23:30.425Z</time>
      </trkpt>
      <trkpt lat="48.02162" lon="2.80866">
        <ele>108</ele>
        <time>2016-12-11T10:23:31.428Z</time>
      </trkpt>
      <trkpt lat="48.02162" lon="2.80866">
        <ele>108</ele>
        <time>2016-12-11T10:23:32.412Z</time>
      </trkpt>
      <trkpt lat="48.02156" lon="2.80852">
        <ele>108</ele>
        <time>2016-12-11T10:23:33.418Z</time>
      </trkpt>
      <trkpt lat="48.02156" lon="2.80852">
        <ele>108</ele>
        <time>2016-12-11T10:23:34.427Z</time>
      </trkpt>
      <trkpt lat="48.02152" lon="2.80838">
        <ele>108</ele>
        <time>2016-12-11T10:23:35.405Z</time>
      </trkpt>
      <trkpt lat="48.02152" lon="2.80838">
        <ele>108</ele>
        <time>2016-12-11T10:23:36.424Z</time>
      </trkpt>
      <trkpt lat="48.02146" lon="2.80823">
        <ele>109</ele>
        <time>2016-12-11T10:23:37.431Z</time>
      </trkpt>
      <trkpt lat="48.02146" lon="2.80823">
        <ele>109</ele>
        <time>2016-12-11T10:23:38.413Z</time>
      </trkpt>
      <trkpt lat="48.02142" lon="2.80809">
        <ele>109</ele>
        <time>2016-12-11T10:23:39.399Z</time>
      </trkpt>
      <trkpt lat="48.02142" lon="2.80809">
        <ele>109</ele>
        <time>2016-12-11T10:23:40.400Z</time>
      </trkpt>
      <trkpt lat="48.02137" lon="2.80796">
        <ele>109</ele>
        <time>2016-12-11T10:23:41.415Z</time>
      </trkpt>
      <trkpt lat="48.02134" lon="2.80789">
        <ele>109</ele>
        <time>2016-12-11T10:23:42.427Z</time>
      </trkpt>
      <trkpt lat="48.02134" lon="2.80789">
        <ele>109</ele>
        <time>2016-12-11T10:23:43.422Z</time>
      </trkpt>
      <trkpt lat="48.02129" lon="2.80775">
        <ele>110</ele>
        <time>2016-12-11T10:23:44.429Z</time>
      </trkpt>
      <trkpt lat="48.02127" lon="2.80769">
        <ele>110</ele>
        <time>2016-12-11T10:23:45.422Z</time>
      </trkpt>
      <trkpt lat="48.02127" lon="2.80769">
        <ele>110</ele>
        <time>2016-12-11T10:23:46.409Z</time>
      </trkpt>
      <trkpt lat="48.02123" lon="2.80755">
        <ele>110</ele>
        <time>2016-12-11T10:23:47.415Z</time>
      </trkpt>
      <trkpt lat="48.02121" lon="2.80748">
        <ele>110</ele>
        <time>2016-12-11T10:23:48.429Z</time>
      </trkpt>
      <trkpt lat="48.02121" lon="2.80748">
        <ele>110</ele>
        <time>2016-12-11T10:23:49.413Z</time>
      </trkpt>
      <trkpt lat="48.02117" lon="2.80735">
        <ele>111</ele>
        <time>2016-12-11T10:23:50.419Z</time>
      </trkpt>
      <trkpt lat="48.02116" lon="2.80729">
        <ele>111</ele>
        <time>2016-12-11T10:23:51.400Z</time>
      </trkpt>
      <trkpt lat="48.02116" lon="2.80729">
        <ele>111</ele>
        <time>2016-12-11T10:23:52.428Z</time>
      </trkpt>
      <trkpt lat="48.02112" lon="2.80718">
        <ele>111</ele>
        <time>2016-12-11T10:23:53.398Z</time>
      </trkpt>
      <trkpt lat="48.02112" lon="2.80718">
        <ele>111</ele>
        <time>2016-12-11T10:23:54.429Z</time>
      </trkpt>
      <trkpt lat="48.02109" lon="2.80707">
        <ele>111</ele>
        <time>2016-12-11T10:23:55.429Z</time>
      </trkpt>
      <trkpt lat="48.02107" lon="2.80701">
        <ele>111</ele>
        <time>2016-12-11T10:23:56.416Z</time>
      </trkpt>
      <trkpt lat="48.02107" lon="2.80701">
        <ele>111</ele>
        <time>2016-12-11T10:23:57.404Z</time>
      </trkpt>
      <trkpt lat="48.02105" lon="2.80689">
        <ele>111</ele>
        <time>2016-12-11T10:23:58.438Z</time>
      </trkpt>
      <trkpt lat="48.02105" lon="2.80689">
        <ele>111</ele>
        <time>2016-12-11T10:23:59.417Z</time>
      </trkpt>
      <trkpt lat="48.02102" lon="2.80677">
        <ele>111</ele>
        <time>2016-12-11T10:24:00.427Z</time>
      </trkpt>
      <trkpt lat="48.02102" lon="2.80677">
        <ele>111</ele>
        <time>2016-12-11T10:24:01.433Z</time>
      </trkpt>
      <trkpt lat="48.02099" lon="2.80666">
        <ele>112</ele>
        <time>2016-12-11T10:24:02.400Z</time>
      </trkpt>
      <trkpt lat="48.02097" lon="2.8066">
        <ele>112</ele>
        <time>2016-12-11T10:24:03.398Z</time>
      </trkpt>
      <trkpt lat="48.02097" lon="2.8066">
        <ele>112</ele>
        <time>2016-12-11T10:24:04.429Z</time>
      </trkpt>
      <trkpt lat="48.02093" lon="2.80649">
        <ele>112</ele>
        <time>2016-12-11T10:24:05.403Z</time>
      </trkpt>
      <trkpt lat="48.02093" lon="2.80649">
        <ele>112</ele>
        <time>2016-12-11T10:24:06.429Z</time>
      </trkpt>
      <trkpt lat="48.0209" lon="2.80639">
        <ele>112</ele>
        <time>2016-12-11T10:24:07.400Z</time>
      </trkpt>
      <trkpt lat="48.0209" lon="2.80639">
        <ele>112</ele>
        <time>2016-12-11T10:24:08.426Z</time>
      </trkpt>
      <trkpt lat="48.02087" lon="2.80629">
        <ele>112</ele>
        <time>2016-12-11T10:24:09.408Z</time>
      </trkpt>
      <trkpt lat="48.02087" lon="2.80629">
        <ele>112</ele>
        <time>2016-12-11T10:24:10.400Z</time>
      </trkpt>
      <trkpt lat="48.02084" lon="2.80618">
        <ele>112</ele>
        <time>2016-12-11T10:24:11.407Z</time>
      </trkpt>
      <trkpt lat="48.02082" lon="2.80613">
        <ele>112</ele>
        <time>2016-12-11T10:24:12.425Z</time>
      </trkpt>
      <trkpt lat="48.02082" lon="2.80613">
        <ele>112</ele>
        <time>2016-12-11T10:24:13.405Z</time>
      </trkpt>
      <trkpt lat="48.0208" lon="2.80602">
        <ele>113</ele>
        <time>2016-12-11T10:24:14.399Z</time>
      </trkpt>
      <trkpt lat="48.0208" lon="2.80602">
        <ele>113</ele>
        <time>2016-12-11T10:24:15.426Z</time>
      </trkpt>
      <trkpt lat="48.02076" lon="2.80593">
        <ele>113</ele>
        <time>2016-12-11T10:24:16.416Z</time>
      </trkpt>
      <trkpt lat="48.02076" lon="2.80593">
        <ele>113</ele>
        <time>2016-12-11T10:24:17.433Z</time>
      </trkpt>
      <trkpt lat="48.02074" lon="2.80582">
        <ele>113</ele>
        <time>2016-12-11T10:24:18.406Z</time>
      </trkpt>
      <trkpt lat="48.02074" lon="2.80582">
        <ele>113</ele>
        <time>2016-12-11T10:24:19.427Z</time>
      </trkpt>
      <trkpt lat="48.02071" lon="2.80571">
        <ele>113</ele>
        <time>2016-12-11T10:24:20.400Z</time>
      </trkpt>
      <trkpt lat="48.02071" lon="2.80571">
        <ele>113</ele>
        <time>2016-12-11T10:24:21.427Z</time>
      </trkpt>
      <trkpt lat="48.02067" lon="2.80561">
        <ele>114</ele>
        <time>2016-12-11T10:24:22.398Z</time>
      </trkpt>
      <trkpt lat="48.02067" lon="2.80561">
        <ele>114</ele>
        <time>2016-12-11T10:24:23.424Z</time>
      </trkpt>
      <trkpt lat="48.02065" lon="2.80552">
        <ele>114</ele>
        <time>2016-12-11T10:24:24.399Z</time>
      </trkpt>
      <trkpt lat="48.02063" lon="2.80548">
        <ele>114</ele>
        <time>2016-12-11T10:24:25.398Z</time>
      </trkpt>
      <trkpt lat="48.02063" lon="2.80548">
        <ele>114</ele>
        <time>2016-12-11T10:24:26.426Z</time>
      </trkpt>
      <trkpt lat="48.02059" lon="2.80538">
        <ele>114</ele>
        <time>2016-12-11T10:24:27.396Z</time>
      </trkpt>
      <trkpt lat="48.02059" lon="2.80538">
        <ele>114</ele>
        <time>2016-12-11T10:24:28.407Z</time>
      </trkpt>
      <trkpt lat="48.02056" lon="2.80527">
        <ele>114</ele>
        <time>2016-12-11T10:24:29.418Z</time>
      </trkpt>
      <trkpt lat="48.02056" lon="2.80527">
        <ele>114</ele>
        <time>2016-12-11T10:24:30.402Z</time>
      </trkpt>
      <trkpt lat="48.02054" lon="2.80515">
        <ele>114</ele>
        <time>2016-12-11T10:24:31.409Z</time>
      </trkpt>
      <trkpt lat="48.02054" lon="2.80515">
        <ele>114</ele>
        <time>2016-12-11T10:24:32.408Z</time>
      </trkpt>
      <trkpt lat="48.02051" lon="2.80504">
        <ele>114</ele>
        <time>2016-12-11T10:24:33.408Z</time>
      </trkpt>
      <trkpt lat="48.02051" lon="2.80504">
        <ele>114</ele>
        <time>2016-12-11T10:24:34.398Z</time>
      </trkpt>
      <trkpt lat="48.02048" lon="2.80494">
        <ele>114</ele>
        <time>2016-12-11T10:24:35.404Z</time>
      </trkpt>
      <trkpt lat="48.02048" lon="2.80494">
        <ele>114</ele>
        <time>2016-12-11T10:24:36.426Z</time>
      </trkpt>
      <trkpt lat="48.02042" lon="2.80485">
        <ele>114</ele>
        <time>2016-12-11T10:24:37.414Z</time>
      </trkpt>
      <trkpt lat="48.02042" lon="2.80485">
        <ele>114</ele>
        <time>2016-12-11T10:24:38.401Z</time>
      </trkpt>
      <trkpt lat="48.02035" lon="2.8048">
        <ele>114</ele>
        <time>2016-12-11T10:24:39.409Z</time>
      </trkpt>
      <trkpt lat="48.02035" lon="2.8048">
        <ele>114</ele>
        <time>2016-12-11T10:24:40.415Z</time>
      </trkpt>
      <trkpt lat="48.02026" lon="2.80478">
        <ele>114</ele>
        <time>2016-12-11T10:24:41.405Z</time>
      </trkpt>
      <trkpt lat="48.02026" lon="2.80478">
        <ele>114</ele>
        <time>2016-12-11T10:24:42.432Z</time>
      </trkpt>
      <trkpt lat="48.02019" lon="2.80479">
        <ele>114</ele>
        <time>2016-12-11T10:24:43.399Z</time>
      </trkpt>
      <trkpt lat="48.02015" lon="2.8048">
        <ele>114</ele>
        <time>2016-12-11T10:24:44.408Z</time>
      </trkpt>
      <trkpt lat="48.02011" lon="2.80481">
        <ele>114</ele>
        <time>2016-12-11T10:24:45.427Z</time>
      </trkpt>
      <trkpt lat="48.02007" lon="2.80482">
        <ele>114</ele>
        <time>2016-12-11T10:24:46.414Z</time>
      </trkpt>
      <trkpt lat="48.02007" lon="2.80482">
        <ele>114</ele>
        <time>2016-12-11T10:24:47.398Z</time>
      </trkpt>
      <trkpt lat="48.01998" lon="2.80483">
        <ele>114</ele>
        <time>2016-12-11T10:24:48.405Z</time>
      </trkpt>
      <trkpt lat="48.01998" lon="2.80483">
        <ele>114</ele>
        <time>2016-12-11T10:24:49.400Z</time>
      </trkpt>
      <trkpt lat="48.01989" lon="2.80485">
        <ele>114</ele>
        <time>2016-12-11T10:24:50.424Z</time>
      </trkpt>
      <trkpt lat="48.01985" lon="2.80486">
        <ele>114</ele>
        <time>2016-12-11T10:24:51.409Z</time>
      </trkpt>
      <trkpt lat="48.01985" lon="2.80486">
        <ele>114</ele>
        <time>2016-12-11T10:24:52.399Z</time>
      </trkpt>
      <trkpt lat="48.01976" lon="2.80488">
        <ele>114</ele>
        <time>2016-12-11T10:24:53.407Z</time>
      </trkpt>
      <trkpt lat="48.01976" lon="2.80488">
        <ele>114</ele>
        <time>2016-12-11T10:24:54.396Z</time>
      </trkpt>
      <trkpt lat="48.01968" lon="2.80491">
        <ele>114</ele>
        <time>2016-12-11T10:24:55.403Z</time>
      </trkpt>
      <trkpt lat="48.01968" lon="2.80491">
        <ele>114</ele>
        <time>2016-12-11T10:24:56.430Z</time>
      </trkpt>
      <trkpt lat="48.0196" lon="2.80492">
        <ele>114</ele>
        <time>2016-12-11T10:24:57.413Z</time>
      </trkpt>
      <trkpt lat="48.0196" lon="2.80492">
        <ele>114</ele>
        <time>2016-12-11T10:24:58.399Z</time>
      </trkpt>
      <trkpt lat="48.01952" lon="2.80494">
        <ele>115</ele>
        <time>2016-12-11T10:24:59.407Z</time>
      </trkpt>
      <trkpt lat="48.01952" lon="2.80494">
        <ele>115</ele>
        <time>2016-12-11T10:25:00.433Z</time>
      </trkpt>
      <trkpt lat="48.01945" lon="2.80496">
        <ele>115</ele>
        <time>2016-12-11T10:25:01.408Z</time>
      </trkpt>
      <trkpt lat="48.01941" lon="2.80497">
        <ele>116</ele>
        <time>2016-12-11T10:25:02.414Z</time>
      </trkpt>
      <trkpt lat="48.01941" lon="2.80497">
        <ele>116</ele>
        <time>2016-12-11T10:25:03.401Z</time>
      </trkpt>
      <trkpt lat="48.01933" lon="2.805">
        <ele>116</ele>
        <time>2016-12-11T10:25:04.433Z</time>
      </trkpt>
      <trkpt lat="48.01933" lon="2.805">
        <ele>116</ele>
        <time>2016-12-11T10:25:05.426Z</time>
      </trkpt>
      <trkpt lat="48.01924" lon="2.80502">
        <ele>116</ele>
        <time>2016-12-11T10:25:06.398Z</time>
      </trkpt>
      <trkpt lat="48.0192" lon="2.80503">
        <ele>116</ele>
        <time>2016-12-11T10:25:07.398Z</time>
      </trkpt>
      <trkpt lat="48.0192" lon="2.80503">
        <ele>116</ele>
        <time>2016-12-11T10:25:08.422Z</time>
      </trkpt>
      <trkpt lat="48.01912" lon="2.80505">
        <ele>117</ele>
        <time>2016-12-11T10:25:09.429Z</time>
      </trkpt>
      <trkpt lat="48.01912" lon="2.80505">
        <ele>117</ele>
        <time>2016-12-11T10:25:10.416Z</time>
      </trkpt>
      <trkpt lat="48.01904" lon="2.80507">
        <ele>117</ele>
        <time>2016-12-11T10:25:11.409Z</time>
      </trkpt>
      <trkpt lat="48.01904" lon="2.80507">
        <ele>117</ele>
        <time>2016-12-11T10:25:12.400Z</time>
      </trkpt>
      <trkpt lat="48.01896" lon="2.80509">
        <ele>117</ele>
        <time>2016-12-11T10:25:13.407Z</time>
      </trkpt>
      <trkpt lat="48.01892" lon="2.8051">
        <ele>118</ele>
        <time>2016-12-11T10:25:14.417Z</time>
      </trkpt>
      <trkpt lat="48.01889" lon="2.80511">
        <ele>118</ele>
        <time>2016-12-11T10:25:15.399Z</time>
      </trkpt>
      <trkpt lat="48.01889" lon="2.80511">
        <ele>118</ele>
        <time>2016-12-11T10:25:16.424Z</time>
      </trkpt>
      <trkpt lat="48.01881" lon="2.80513">
        <ele>118</ele>
        <time>2016-12-11T10:25:17.404Z</time>
      </trkpt>
      <trkpt lat="48.01877" lon="2.80514">
        <ele>118</ele>
        <time>2016-12-11T10:25:18.434Z</time>
      </trkpt>
      <trkpt lat="48.01873" lon="2.80516">
        <ele>118</ele>
        <time>2016-12-11T10:25:19.421Z</time>
      </trkpt>
      <trkpt lat="48.01873" lon="2.80516">
        <ele>118</ele>
        <time>2016-12-11T10:25:20.407Z</time>
      </trkpt>
      <trkpt lat="48.01866" lon="2.80518">
        <ele>118</ele>
        <time>2016-12-11T10:25:21.396Z</time>
      </trkpt>
      <trkpt lat="48.01866" lon="2.80518">
        <ele>118</ele>
        <time>2016-12-11T10:25:22.424Z</time>
      </trkpt>
      <trkpt lat="48.01859" lon="2.80521">
        <ele>118</ele>
        <time>2016-12-11T10:25:23.431Z</time>
      </trkpt>
      <trkpt lat="48.01859" lon="2.80521">
        <ele>118</ele>
        <time>2016-12-11T10:25:24.415Z</time>
      </trkpt>
      <trkpt lat="48.01852" lon="2.80523">
        <ele>119</ele>
        <time>2016-12-11T10:25:25.401Z</time>
      </trkpt>
      <trkpt lat="48.01852" lon="2.80523">
        <ele>119</ele>
        <time>2016-12-11T10:25:26.426Z</time>
      </trkpt>
      <trkpt lat="48.01843" lon="2.80525">
        <ele>119</ele>
        <time>2016-12-11T10:25:27.433Z</time>
      </trkpt>
      <trkpt lat="48.01839" lon="2.80526">
        <ele>119</ele>
        <time>2016-12-11T10:25:28.404Z</time>
      </trkpt>
      <trkpt lat="48.01839" lon="2.80526">
        <ele>119</ele>
        <time>2016-12-11T10:25:29.425Z</time>
      </trkpt>
      <trkpt lat="48.0183" lon="2.80528">
        <ele>119</ele>
        <time>2016-12-11T10:25:30.431Z</time>
      </trkpt>
      <trkpt lat="48.01826" lon="2.80528">
        <ele>119</ele>
        <time>2016-12-11T10:25:31.434Z</time>
      </trkpt>
      <trkpt lat="48.01826" lon="2.80528">
        <ele>119</ele>
        <time>2016-12-11T10:25:32.417Z</time>
      </trkpt>
      <trkpt lat="48.01818" lon="2.80531">
        <ele>120</ele>
        <time>2016-12-11T10:25:33.424Z</time>
      </trkpt>
      <trkpt lat="48.01813" lon="2.80533">
        <ele>120</ele>
        <time>2016-12-11T10:25:34.416Z</time>
      </trkpt>
      <trkpt lat="48.01807" lon="2.80534">
        <ele>120</ele>
        <time>2016-12-11T10:25:35.403Z</time>
      </trkpt>
      <trkpt lat="48.01807" lon="2.80534">
        <ele>120</ele>
        <time>2016-12-11T10:25:36.430Z</time>
      </trkpt>
      <trkpt lat="48.01797" lon="2.80536">
        <ele>120</ele>
        <time>2016-12-11T10:25:37.409Z</time>
      </trkpt>
      <trkpt lat="48.01797" lon="2.80536">
        <ele>120</ele>
        <time>2016-12-11T10:25:38.434Z</time>
      </trkpt>
      <trkpt lat="48.01787" lon="2.80537">
        <ele>120</ele>
        <time>2016-12-11T10:25:39.418Z</time>
      </trkpt>
      <trkpt lat="48.01787" lon="2.80537">
        <ele>120</ele>
        <time>2016-12-11T10:25:40.405Z</time>
      </trkpt>
      <trkpt lat="48.01778" lon="2.80539">
        <ele>120</ele>
        <time>2016-12-11T10:25:41.427Z</time>
      </trkpt>
      <trkpt lat="48.01778" lon="2.80539">
        <ele>120</ele>
        <time>2016-12-11T10:25:42.416Z</time>
      </trkpt>
      <trkpt lat="48.01769" lon="2.8054">
        <ele>120</ele>
        <time>2016-12-11T10:25:43.422Z</time>
      </trkpt>
      <trkpt lat="48.01764" lon="2.80541">
        <ele>120</ele>
        <time>2016-12-11T10:25:44.434Z</time>
      </trkpt>
      <trkpt lat="48.0176" lon="2.80541">
        <ele>119</ele>
        <time>2016-12-11T10:25:45.410Z</time>
      </trkpt>
      <trkpt lat="48.0176" lon="2.80541">
        <ele>119</ele>
        <time>2016-12-11T10:25:46.435Z</time>
      </trkpt>
      <trkpt lat="48.01752" lon="2.80543">
        <ele>119</ele>
        <time>2016-12-11T10:25:47.417Z</time>
      </trkpt>
      <trkpt lat="48.01752" lon="2.80543">
        <ele>119</ele>
        <time>2016-12-11T10:25:48.400Z</time>
      </trkpt>
      <trkpt lat="48.01743" lon="2.80544">
        <ele>119</ele>
        <time>2016-12-11T10:25:49.407Z</time>
      </trkpt>
      <trkpt lat="48.01739" lon="2.80546">
        <ele>119</ele>
        <time>2016-12-11T10:25:50.400Z</time>
      </trkpt>
      <trkpt lat="48.01739" lon="2.80546">
        <ele>119</ele>
        <time>2016-12-11T10:25:51.427Z</time>
      </trkpt>
      <trkpt lat="48.01731" lon="2.80548">
        <ele>118</ele>
        <time>2016-12-11T10:25:52.399Z</time>
      </trkpt>
      <trkpt lat="48.01726" lon="2.80548">
        <ele>118</ele>
        <time>2016-12-11T10:25:53.408Z</time>
      </trkpt>
      <trkpt lat="48.0172" lon="2.8055">
        <ele>118</ele>
        <time>2016-12-11T10:25:54.404Z</time>
      </trkpt>
      <trkpt lat="48.01716" lon="2.80551">
        <ele>118</ele>
        <time>2016-12-11T10:25:55.429Z</time>
      </trkpt>
      <trkpt lat="48.01716" lon="2.80551">
        <ele>118</ele>
        <time>2016-12-11T10:25:56.415Z</time>
      </trkpt>
      <trkpt lat="48.01706" lon="2.80553">
        <ele>118</ele>
        <time>2016-12-11T10:25:57.421Z</time>
      </trkpt>
      <trkpt lat="48.01706" lon="2.80553">
        <ele>118</ele>
        <time>2016-12-11T10:25:58.405Z</time>
      </trkpt>
      <trkpt lat="48.01696" lon="2.80556">
        <ele>118</ele>
        <time>2016-12-11T10:25:59.408Z</time>
      </trkpt>
      <trkpt lat="48.01696" lon="2.80556">
        <ele>118</ele>
        <time>2016-12-11T10:26:00.433Z</time>
      </trkpt>
      <trkpt lat="48.01687" lon="2.80559">
        <ele>117</ele>
        <time>2016-12-11T10:26:01.403Z</time>
      </trkpt>
      <trkpt lat="48.01684" lon="2.80559">
        <ele>117</ele>
        <time>2016-12-11T10:26:02.428Z</time>
      </trkpt>
      <trkpt lat="48.0168" lon="2.80559">
        <ele>117</ele>
        <time>2016-12-11T10:26:03.415Z</time>
      </trkpt>
      <trkpt lat="48.01676" lon="2.80559">
        <ele>117</ele>
        <time>2016-12-11T10:26:04.404Z</time>
      </trkpt>
      <trkpt lat="48.01676" lon="2.80559">
        <ele>117</ele>
        <time>2016-12-11T10:26:05.427Z</time>
      </trkpt>
      <trkpt lat="48.0167" lon="2.80559">
        <ele>117</ele>
        <time>2016-12-11T10:26:06.407Z</time>
      </trkpt>
      <trkpt lat="48.0167" lon="2.80559">
        <ele>117</ele>
        <time>2016-12-11T10:26:07.401Z</time>
      </trkpt>
      <trkpt lat="48.01663" lon="2.80563">
        <ele>117</ele>
        <time>2016-12-11T10:26:08.417Z</time>
      </trkpt>
      <trkpt lat="48.01663" lon="2.80563">
        <ele>117</ele>
        <time>2016-12-11T10:26:09.402Z</time>
      </trkpt>
      <trkpt lat="48.01656" lon="2.80567">
        <ele>116</ele>
        <time>2016-12-11T10:26:10.410Z</time>
      </trkpt>
      <trkpt lat="48.01656" lon="2.80567">
        <ele>116</ele>
        <time>2016-12-11T10:26:11.397Z</time>
      </trkpt>
      <trkpt lat="48.01648" lon="2.80569">
        <ele>117</ele>
        <time>2016-12-11T10:26:12.400Z</time>
      </trkpt>
      <trkpt lat="48.01645" lon="2.80569">
        <ele>117</ele>
        <time>2016-12-11T10:26:13.427Z</time>
      </trkpt>
      <trkpt lat="48.01645" lon="2.80569">
        <ele>117</ele>
        <time>2016-12-11T10:26:14.415Z</time>
      </trkpt>
      <trkpt lat="48.01635" lon="2.80569">
        <ele>117</ele>
        <time>2016-12-11T10:26:15.404Z</time>
      </trkpt>
      <trkpt lat="48.01635" lon="2.80569">
        <ele>117</ele>
        <time>2016-12-11T10:26:16.432Z</time>
      </trkpt>
      <trkpt lat="48.01625" lon="2.80569">
        <ele>117</ele>
        <time>2016-12-11T10:26:17.407Z</time>
      </trkpt>
      <trkpt lat="48.0162" lon="2.80569">
        <ele>116</ele>
        <time>2016-12-11T10:26:18.403Z</time>
      </trkpt>
      <trkpt lat="48.0162" lon="2.80569">
        <ele>116</ele>
        <time>2016-12-11T10:26:19.421Z</time>
      </trkpt>
      <trkpt lat="48.01609" lon="2.80573">
        <ele>117</ele>
        <time>2016-12-11T10:26:20.430Z</time>
      </trkpt>
      <trkpt lat="48.01604" lon="2.80574">
        <ele>117</ele>
        <time>2016-12-11T10:26:21.400Z</time>
      </trkpt>
      <trkpt lat="48.01604" lon="2.80574">
        <ele>117</ele>
        <time>2016-12-11T10:26:22.430Z</time>
      </trkpt>
      <trkpt lat="48.01594" lon="2.80576">
        <ele>116</ele>
        <time>2016-12-11T10:26:23.402Z</time>
      </trkpt>
      <trkpt lat="48.01594" lon="2.80576">
        <ele>116</ele>
        <time>2016-12-11T10:26:24.426Z</time>
      </trkpt>
      <trkpt lat="48.01584" lon="2.80579">
        <ele>116</ele>
        <time>2016-12-11T10:26:25.417Z</time>
      </trkpt>
      <trkpt lat="48.01584" lon="2.80579">
        <ele>116</ele>
        <time>2016-12-11T10:26:26.404Z</time>
      </trkpt>
      <trkpt lat="48.01574" lon="2.80582">
        <ele>115</ele>
        <time>2016-12-11T10:26:27.417Z</time>
      </trkpt>
      <trkpt lat="48.01574" lon="2.80582">
        <ele>115</ele>
        <time>2016-12-11T10:26:28.401Z</time>
      </trkpt>
      <trkpt lat="48.01564" lon="2.80586">
        <ele>116</ele>
        <time>2016-12-11T10:26:29.408Z</time>
      </trkpt>
      <trkpt lat="48.01564" lon="2.80586">
        <ele>116</ele>
        <time>2016-12-11T10:26:30.434Z</time>
      </trkpt>
      <trkpt lat="48.01554" lon="2.80589">
        <ele>116</ele>
        <time>2016-12-11T10:26:31.403Z</time>
      </trkpt>
      <trkpt lat="48.01549" lon="2.8059">
        <ele>115</ele>
        <time>2016-12-11T10:26:32.415Z</time>
      </trkpt>
      <trkpt lat="48.01549" lon="2.8059">
        <ele>115</ele>
        <time>2016-12-11T10:26:33.402Z</time>
      </trkpt>
      <trkpt lat="48.0154" lon="2.80592">
        <ele>115</ele>
        <time>2016-12-11T10:26:34.409Z</time>
      </trkpt>
      <trkpt lat="48.01535" lon="2.80593">
        <ele>115</ele>
        <time>2016-12-11T10:26:35.430Z</time>
      </trkpt>
      <trkpt lat="48.01535" lon="2.80593">
        <ele>115</ele>
        <time>2016-12-11T10:26:36.420Z</time>
      </trkpt>
      <trkpt lat="48.01525" lon="2.80594">
        <ele>114</ele>
        <time>2016-12-11T10:26:37.403Z</time>
      </trkpt>
      <trkpt lat="48.01525" lon="2.80594">
        <ele>114</ele>
        <time>2016-12-11T10:26:38.428Z</time>
      </trkpt>
      <trkpt lat="48.01514" lon="2.80597">
        <ele>114</ele>
        <time>2016-12-11T10:26:39.397Z</time>
      </trkpt>
      <trkpt lat="48.01514" lon="2.80597">
        <ele>114</ele>
        <time>2016-12-11T10:26:40.422Z</time>
      </trkpt>
      <trkpt lat="48.01503" lon="2.80598">
        <ele>113</ele>
        <time>2016-12-11T10:26:41.429Z</time>
      </trkpt>
      <trkpt lat="48.01503" lon="2.80598">
        <ele>113</ele>
        <time>2016-12-11T10:26:42.429Z</time>
      </trkpt>
      <trkpt lat="48.01491" lon="2.80602">
        <ele>113</ele>
        <time>2016-12-11T10:26:43.434Z</time>
      </trkpt>
      <trkpt lat="48.01491" lon="2.80602">
        <ele>113</ele>
        <time>2016-12-11T10:26:44.412Z</time>
      </trkpt>
      <trkpt lat="48.01479" lon="2.80605">
        <ele>113</ele>
        <time>2016-12-11T10:26:45.418Z</time>
      </trkpt>
      <trkpt lat="48.01479" lon="2.80605">
        <ele>113</ele>
        <time>2016-12-11T10:26:46.405Z</time>
      </trkpt>
      <trkpt lat="48.01469" lon="2.80611">
        <ele>114</ele>
        <time>2016-12-11T10:26:47.398Z</time>
      </trkpt>
      <trkpt lat="48.01469" lon="2.80611">
        <ele>114</ele>
        <time>2016-12-11T10:26:48.405Z</time>
      </trkpt>
      <trkpt lat="48.01459" lon="2.80615">
        <ele>114</ele>
        <time>2016-12-11T10:26:49.412Z</time>
      </trkpt>
      <trkpt lat="48.01459" lon="2.80615">
        <ele>114</ele>
        <time>2016-12-11T10:26:50.397Z</time>
      </trkpt>
      <trkpt lat="48.0145" lon="2.80617">
        <ele>114</ele>
        <time>2016-12-11T10:26:51.399Z</time>
      </trkpt>
      <trkpt lat="48.0145" lon="2.80617">
        <ele>114</ele>
        <time>2016-12-11T10:26:52.426Z</time>
      </trkpt>
      <trkpt lat="48.01439" lon="2.80621">
        <ele>114</ele>
        <time>2016-12-11T10:26:53.409Z</time>
      </trkpt>
      <trkpt lat="48.01439" lon="2.80621">
        <ele>114</ele>
        <time>2016-12-11T10:26:54.431Z</time>
      </trkpt>
      <trkpt lat="48.01429" lon="2.80624">
        <ele>114</ele>
        <time>2016-12-11T10:26:55.406Z</time>
      </trkpt>
      <trkpt lat="48.01429" lon="2.80624">
        <ele>114</ele>
        <time>2016-12-11T10:26:56.397Z</time>
      </trkpt>
      <trkpt lat="48.01419" lon="2.80627">
        <ele>114</ele>
        <time>2016-12-11T10:26:57.405Z</time>
      </trkpt>
      <trkpt lat="48.01414" lon="2.80628">
        <ele>114</ele>
        <time>2016-12-11T10:26:58.412Z</time>
      </trkpt>
      <trkpt lat="48.01414" lon="2.80628">
        <ele>114</ele>
        <time>2016-12-11T10:26:59.399Z</time>
      </trkpt>
      <trkpt lat="48.01403" lon="2.8063">
        <ele>114</ele>
        <time>2016-12-11T10:27:00.406Z</time>
      </trkpt>
      <trkpt lat="48.01399" lon="2.80632">
        <ele>114</ele>
        <time>2016-12-11T10:27:01.396Z</time>
      </trkpt>
      <trkpt lat="48.01399" lon="2.80632">
        <ele>114</ele>
        <time>2016-12-11T10:27:02.421Z</time>
      </trkpt>
      <trkpt lat="48.0139" lon="2.80633">
        <ele>114</ele>
        <time>2016-12-11T10:27:03.427Z</time>
      </trkpt>
      <trkpt lat="48.0139" lon="2.80633">
        <ele>114</ele>
        <time>2016-12-11T10:27:04.426Z</time>
      </trkpt>
      <trkpt lat="48.01381" lon="2.80636">
        <ele>114</ele>
        <time>2016-12-11T10:27:05.420Z</time>
      </trkpt>
      <trkpt lat="48.01381" lon="2.80636">
        <ele>114</ele>
        <time>2016-12-11T10:27:06.413Z</time>
      </trkpt>
      <trkpt lat="48.01374" lon="2.80631">
        <ele>114</ele>
        <time>2016-12-11T10:27:07.422Z</time>
      </trkpt>
      <trkpt lat="48.01371" lon="2.80627">
        <ele>114</ele>
        <time>2016-12-11T10:27:08.428Z</time>
      </trkpt>
      <trkpt lat="48.01368" lon="2.80622">
        <ele>113</ele>
        <time>2016-12-11T10:27:09.428Z</time>
      </trkpt>
      <trkpt lat="48.01368" lon="2.80622">
        <ele>113</ele>
        <time>2016-12-11T10:27:10.416Z</time>
      </trkpt>
      <trkpt lat="48.01365" lon="2.80611">
        <ele>113</ele>
        <time>2016-12-11T10:27:11.406Z</time>
      </trkpt>
      <trkpt lat="48.01364" lon="2.80606">
        <ele>113</ele>
        <time>2016-12-11T10:27:12.414Z</time>
      </trkpt>
      <trkpt lat="48.01364" lon="2.80606">
        <ele>113</ele>
        <time>2016-12-11T10:27:13.398Z</time>
      </trkpt>
      <trkpt lat="48.01362" lon="2.80594">
        <ele>114</ele>
        <time>2016-12-11T10:27:14.423Z</time>
      </trkpt>
      <trkpt lat="48.01362" lon="2.80594">
        <ele>114</ele>
        <time>2016-12-11T10:27:15.410Z</time>
      </trkpt>
      <trkpt lat="48.0136" lon="2.80582">
        <ele>113</ele>
        <time>2016-12-11T10:27:16.417Z</time>
      </trkpt>
      <trkpt lat="48.0136" lon="2.80582">
        <ele>113</ele>
        <time>2016-12-11T10:27:17.408Z</time>
      </trkpt>
      <trkpt lat="48.01358" lon="2.80571">
        <ele>113</ele>
        <time>2016-12-11T10:27:18.417Z</time>
      </trkpt>
      <trkpt lat="48.01356" lon="2.80566">
        <ele>112</ele>
        <time>2016-12-11T10:27:19.408Z</time>
      </trkpt>
      <trkpt lat="48.01356" lon="2.80566">
        <ele>112</ele>
        <time>2016-12-11T10:27:20.434Z</time>
      </trkpt>
      <trkpt lat="48.01354" lon="2.80556">
        <ele>112</ele>
        <time>2016-12-11T10:27:21.401Z</time>
      </trkpt>
      <trkpt lat="48.01353" lon="2.80551">
        <ele>111</ele>
        <time>2016-12-11T10:27:22.430Z</time>
      </trkpt>
      <trkpt lat="48.01353" lon="2.80551">
        <ele>111</ele>
        <time>2016-12-11T10:27:23.414Z</time>
      </trkpt>
      <trkpt lat="48.0135" lon="2.80542">
        <ele>111</ele>
        <time>2016-12-11T10:27:24.433Z</time>
      </trkpt>
      <trkpt lat="48.0135" lon="2.80542">
        <ele>111</ele>
        <time>2016-12-11T10:27:25.399Z</time>
      </trkpt>
      <trkpt lat="48.01349" lon="2.80533">
        <ele>110</ele>
        <time>2016-12-11T10:27:26.418Z</time>
      </trkpt>
      <trkpt lat="48.01349" lon="2.80533">
        <ele>110</ele>
        <time>2016-12-11T10:27:27.426Z</time>
      </trkpt>
      <trkpt lat="48.01348" lon="2.80523">
        <ele>110</ele>
        <time>2016-12-11T10:27:28.402Z</time>
      </trkpt>
      <trkpt lat="48.01348" lon="2.80523">
        <ele>110</ele>
        <time>2016-12-11T10:27:29.428Z</time>
      </trkpt>
      <trkpt lat="48.01347" lon="2.80514">
        <ele>109</ele>
        <time>2016-12-11T10:27:30.419Z</time>
      </trkpt>
      <trkpt lat="48.01347" lon="2.80514">
        <ele>109</ele>
        <time>2016-12-11T10:27:31.402Z</time>
      </trkpt>
      <trkpt lat="48.01346" lon="2.80505">
        <ele>109</ele>
        <time>2016-12-11T10:27:32.410Z</time>
      </trkpt>
      <trkpt lat="48.01345" lon="2.805">
        <ele>108</ele>
        <time>2016-12-11T10:27:33.428Z</time>
      </trkpt>
      <trkpt lat="48.01345" lon="2.805">
        <ele>108</ele>
        <time>2016-12-11T10:27:34.414Z</time>
      </trkpt>
      <trkpt lat="48.01344" lon="2.80491">
        <ele>108</ele>
        <time>2016-12-11T10:27:35.424Z</time>
      </trkpt>
      <trkpt lat="48.01344" lon="2.80491">
        <ele>108</ele>
        <time>2016-12-11T10:27:36.405Z</time>
      </trkpt>
      <trkpt lat="48.01343" lon="2.80482">
        <ele>107</ele>
        <time>2016-12-11T10:27:37.398Z</time>
      </trkpt>
      <trkpt lat="48.01343" lon="2.80482">
        <ele>107</ele>
        <time>2016-12-11T10:27:38.426Z</time>
      </trkpt>
      <trkpt lat="48.0134" lon="2.80473">
        <ele>107</ele>
        <time>2016-12-11T10:27:39.433Z</time>
      </trkpt>
      <trkpt lat="48.0134" lon="2.80473">
        <ele>107</ele>
        <time>2016-12-11T10:27:40.404Z</time>
      </trkpt>
      <trkpt lat="48.01339" lon="2.80464">
        <ele>106</ele>
        <time>2016-12-11T10:27:41.428Z</time>
      </trkpt>
      <trkpt lat="48.01338" lon="2.80459">
        <ele>106</ele>
        <time>2016-12-11T10:27:42.408Z</time>
      </trkpt>
      <trkpt lat="48.01338" lon="2.80459">
        <ele>106</ele>
        <time>2016-12-11T10:27:43.417Z</time>
      </trkpt>
      <trkpt lat="48.01337" lon="2.8045">
        <ele>106</ele>
        <time>2016-12-11T10:27:44.401Z</time>
      </trkpt>
      <trkpt lat="48.01337" lon="2.8045">
        <ele>106</ele>
        <time>2016-12-11T10:27:45.406Z</time>
      </trkpt>
      <trkpt lat="48.01336" lon="2.80441">
        <ele>106</ele>
        <time>2016-12-11T10:27:46.433Z</time>
      </trkpt>
      <trkpt lat="48.01336" lon="2.80441">
        <ele>106</ele>
        <time>2016-12-11T10:27:47.407Z</time>
      </trkpt>
      <trkpt lat="48.01333" lon="2.80431">
        <ele>106</ele>
        <time>2016-12-11T10:27:48.423Z</time>
      </trkpt>
      <trkpt lat="48.01333" lon="2.80426">
        <ele>106</ele>
        <time>2016-12-11T10:27:49.431Z</time>
      </trkpt>
      <trkpt lat="48.01333" lon="2.80426">
        <ele>106</ele>
        <time>2016-12-11T10:27:50.417Z</time>
      </trkpt>
      <trkpt lat="48.01332" lon="2.80416">
        <ele>106</ele>
        <time>2016-12-11T10:27:51.400Z</time>
      </trkpt>
      <trkpt lat="48.01332" lon="2.80416">
        <ele>106</ele>
        <time>2016-12-11T10:27:52.427Z</time>
      </trkpt>
      <trkpt lat="48.01331" lon="2.80406">
        <ele>105</ele>
        <time>2016-12-11T10:27:53.396Z</time>
      </trkpt>
      <trkpt lat="48.01331" lon="2.80406">
        <ele>105</ele>
        <time>2016-12-11T10:27:54.429Z</time>
      </trkpt>
      <trkpt lat="48.01329" lon="2.80394">
        <ele>105</ele>
        <time>2016-12-11T10:27:55.419Z</time>
      </trkpt>
      <trkpt lat="48.01329" lon="2.80394">
        <ele>105</ele>
        <time>2016-12-11T10:27:56.424Z</time>
      </trkpt>
      <trkpt lat="48.01328" lon="2.80384">
        <ele>104</ele>
        <time>2016-12-11T10:27:57.436Z</time>
      </trkpt>
      <trkpt lat="48.01328" lon="2.80384">
        <ele>104</ele>
        <time>2016-12-11T10:27:58.422Z</time>
      </trkpt>
      <trkpt lat="48.01327" lon="2.80375">
        <ele>104</ele>
        <time>2016-12-11T10:27:59.428Z</time>
      </trkpt>
      <trkpt lat="48.01327" lon="2.80375">
        <ele>104</ele>
        <time>2016-12-11T10:28:00.414Z</time>
      </trkpt>
      <trkpt lat="48.01326" lon="2.80365">
        <ele>104</ele>
        <time>2016-12-11T10:28:01.421Z</time>
      </trkpt>
      <trkpt lat="48.01325" lon="2.8036">
        <ele>104</ele>
        <time>2016-12-11T10:28:02.433Z</time>
      </trkpt>
      <trkpt lat="48.01325" lon="2.8036">
        <ele>104</ele>
        <time>2016-12-11T10:28:03.410Z</time>
      </trkpt>
      <trkpt lat="48.01324" lon="2.8035">
        <ele>104</ele>
        <time>2016-12-11T10:28:04.417Z</time>
      </trkpt>
      <trkpt lat="48.01323" lon="2.80345">
        <ele>104</ele>
        <time>2016-12-11T10:28:05.403Z</time>
      </trkpt>
      <trkpt lat="48.01323" lon="2.80345">
        <ele>104</ele>
        <time>2016-12-11T10:28:06.427Z</time>
      </trkpt>
      <trkpt lat="48.01322" lon="2.80334">
        <ele>104</ele>
        <time>2016-12-11T10:28:07.423Z</time>
      </trkpt>
      <trkpt lat="48.01322" lon="2.80334">
        <ele>104</ele>
        <time>2016-12-11T10:28:08.407Z</time>
      </trkpt>
      <trkpt lat="48.01322" lon="2.80324">
        <ele>104</ele>
        <time>2016-12-11T10:28:09.425Z</time>
      </trkpt>
      <trkpt lat="48.01322" lon="2.80324">
        <ele>104</ele>
        <time>2016-12-11T10:28:10.411Z</time>
      </trkpt>
      <trkpt lat="48.01321" lon="2.80316">
        <ele>104</ele>
        <time>2016-12-11T10:28:11.410Z</time>
      </trkpt>
      <trkpt lat="48.01321" lon="2.80316">
        <ele>104</ele>
        <time>2016-12-11T10:28:12.399Z</time>
      </trkpt>
      <trkpt lat="48.0132" lon="2.80308">
        <ele>104</ele>
        <time>2016-12-11T10:28:13.406Z</time>
      </trkpt>
      <trkpt lat="48.01319" lon="2.80303">
        <ele>104</ele>
        <time>2016-12-11T10:28:14.434Z</time>
      </trkpt>
      <trkpt lat="48.01318" lon="2.80298">
        <ele>104</ele>
        <time>2016-12-11T10:28:15.405Z</time>
      </trkpt>
      <trkpt lat="48.01318" lon="2.80298">
        <ele>104</ele>
        <time>2016-12-11T10:28:16.430Z</time>
      </trkpt>
      <trkpt lat="48.01317" lon="2.80289">
        <ele>104</ele>
        <time>2016-12-11T10:28:17.425Z</time>
      </trkpt>
      <trkpt lat="48.01316" lon="2.80285">
        <ele>104</ele>
        <time>2016-12-11T10:28:18.427Z</time>
      </trkpt>
      <trkpt lat="48.01316" lon="2.80285">
        <ele>104</ele>
        <time>2016-12-11T10:28:19.433Z</time>
      </trkpt>
      <trkpt lat="48.01315" lon="2.80276">
        <ele>104</ele>
        <time>2016-12-11T10:28:20.405Z</time>
      </trkpt>
      <trkpt lat="48.01314" lon="2.80271">
        <ele>104</ele>
        <time>2016-12-11T10:28:21.403Z</time>
      </trkpt>
      <trkpt lat="48.01314" lon="2.80271">
        <ele>104</ele>
        <time>2016-12-11T10:28:22.398Z</time>
      </trkpt>
      <trkpt lat="48.01313" lon="2.80262">
        <ele>104</ele>
        <time>2016-12-11T10:28:23.407Z</time>
      </trkpt>
      <trkpt lat="48.01313" lon="2.80256">
        <ele>104</ele>
        <time>2016-12-11T10:28:24.424Z</time>
      </trkpt>
      <trkpt lat="48.01313" lon="2.80256">
        <ele>104</ele>
        <time>2016-12-11T10:28:25.406Z</time>
      </trkpt>
      <trkpt lat="48.01311" lon="2.80246">
        <ele>104</ele>
        <time>2016-12-11T10:28:26.412Z</time>
      </trkpt>
      <trkpt lat="48.01311" lon="2.8024">
        <ele>104</ele>
        <time>2016-12-11T10:28:27.419Z</time>
      </trkpt>
      <trkpt lat="48.01311" lon="2.8024">
        <ele>104</ele>
        <time>2016-12-11T10:28:28.420Z</time>
      </trkpt>
      <trkpt lat="48.0131" lon="2.80231">
        <ele>104</ele>
        <time>2016-12-11T10:28:29.426Z</time>
      </trkpt>
      <trkpt lat="48.0131" lon="2.80231">
        <ele>104</ele>
        <time>2016-12-11T10:28:30.413Z</time>
      </trkpt>
      <trkpt lat="48.01309" lon="2.80219">
        <ele>103</ele>
        <time>2016-12-11T10:28:31.408Z</time>
      </trkpt>
      <trkpt lat="48.01309" lon="2.80219">
        <ele>103</ele>
        <time>2016-12-11T10:28:32.400Z</time>
      </trkpt>
      <trkpt lat="48.01308" lon="2.80209">
        <ele>103</ele>
        <time>2016-12-11T10:28:33.407Z</time>
      </trkpt>
      <trkpt lat="48.01308" lon="2.80209">
        <ele>103</ele>
        <time>2016-12-11T10:28:34.433Z</time>
      </trkpt>
      <trkpt lat="48.01307" lon="2.802">
        <ele>103</ele>
        <time>2016-12-11T10:28:35.428Z</time>
      </trkpt>
      <trkpt lat="48.01307" lon="2.802">
        <ele>103</ele>
        <time>2016-12-11T10:28:36.411Z</time>
      </trkpt>
      <trkpt lat="48.01305" lon="2.80192">
        <ele>104</ele>
        <time>2016-12-11T10:28:37.428Z</time>
      </trkpt>
      <trkpt lat="48.01305" lon="2.80192">
        <ele>104</ele>
        <time>2016-12-11T10:28:38.413Z</time>
      </trkpt>
      <trkpt lat="48.01304" lon="2.80183">
        <ele>104</ele>
        <time>2016-12-11T10:28:39.404Z</time>
      </trkpt>
      <trkpt lat="48.01304" lon="2.80183">
        <ele>104</ele>
        <time>2016-12-11T10:28:40.431Z</time>
      </trkpt>
      <trkpt lat="48.01303" lon="2.80174">
        <ele>104</ele>
        <time>2016-12-11T10:28:41.401Z</time>
      </trkpt>
      <trkpt lat="48.01303" lon="2.8017">
        <ele>104</ele>
        <time>2016-12-11T10:28:42.408Z</time>
      </trkpt>
      <trkpt lat="48.01303" lon="2.8017">
        <ele>104</ele>
        <time>2016-12-11T10:28:43.434Z</time>
      </trkpt>
      <trkpt lat="48.01301" lon="2.8016">
        <ele>105</ele>
        <time>2016-12-11T10:28:44.409Z</time>
      </trkpt>
      <trkpt lat="48.01301" lon="2.80155">
        <ele>105</ele>
        <time>2016-12-11T10:28:45.435Z</time>
      </trkpt>
      <trkpt lat="48.01301" lon="2.80155">
        <ele>105</ele>
        <time>2016-12-11T10:28:46.422Z</time>
      </trkpt>
      <trkpt lat="48.013" lon="2.80144">
        <ele>105</ele>
        <time>2016-12-11T10:28:47.428Z</time>
      </trkpt>
      <trkpt lat="48.013" lon="2.80139">
        <ele>105</ele>
        <time>2016-12-11T10:28:48.398Z</time>
      </trkpt>
      <trkpt lat="48.013" lon="2.80139">
        <ele>105</ele>
        <time>2016-12-11T10:28:49.400Z</time>
      </trkpt>
      <trkpt lat="48.01299" lon="2.8013">
        <ele>105</ele>
        <time>2016-12-11T10:28:50.410Z</time>
      </trkpt>
      <trkpt lat="48.01299" lon="2.80126">
        <ele>105</ele>
        <time>2016-12-11T10:28:51.425Z</time>
      </trkpt>
      <trkpt lat="48.01299" lon="2.80126">
        <ele>105</ele>
        <time>2016-12-11T10:28:52.432Z</time>
      </trkpt>
      <trkpt lat="48.01298" lon="2.80117">
        <ele>105</ele>
        <time>2016-12-11T10:28:53.401Z</time>
      </trkpt>
      <trkpt lat="48.01298" lon="2.80113">
        <ele>105</ele>
        <time>2016-12-11T10:28:54.431Z</time>
      </trkpt>
      <trkpt lat="48.01297" lon="2.80108">
        <ele>105</ele>
        <time>2016-12-11T10:28:55.418Z</time>
      </trkpt>
      <trkpt lat="48.01297" lon="2.80108">
        <ele>105</ele>
        <time>2016-12-11T10:28:56.404Z</time>
      </trkpt>
      <trkpt lat="48.01296" lon="2.80099">
        <ele>105</ele>
        <time>2016-12-11T10:28:57.408Z</time>
      </trkpt>
      <trkpt lat="48.01296" lon="2.80099">
        <ele>105</ele>
        <time>2016-12-11T10:28:58.398Z</time>
      </trkpt>
      <trkpt lat="48.01293" lon="2.80092">
        <ele>105</ele>
        <time>2016-12-11T10:28:59.411Z</time>
      </trkpt>
      <trkpt lat="48.01293" lon="2.80092">
        <ele>105</ele>
        <time>2016-12-11T10:29:00.408Z</time>
      </trkpt>
      <trkpt lat="48.0129" lon="2.80084">
        <ele>105</ele>
        <time>2016-12-11T10:29:01.414Z</time>
      </trkpt>
      <trkpt lat="48.0129" lon="2.80084">
        <ele>105</ele>
        <time>2016-12-11T10:29:02.422Z</time>
      </trkpt>
      <trkpt lat="48.01286" lon="2.80079">
        <ele>105</ele>
        <time>2016-12-11T10:29:03.428Z</time>
      </trkpt>
      <trkpt lat="48.01286" lon="2.80079">
        <ele>105</ele>
        <time>2016-12-11T10:29:04.414Z</time>
      </trkpt>
      <trkpt lat="48.01281" lon="2.80074">
        <ele>104</ele>
        <time>2016-12-11T10:29:05.428Z</time>
      </trkpt>
      <trkpt lat="48.01281" lon="2.80074">
        <ele>104</ele>
        <time>2016-12-11T10:29:06.403Z</time>
      </trkpt>
      <trkpt lat="48.01275" lon="2.80068">
        <ele>105</ele>
        <time>2016-12-11T10:29:07.409Z</time>
      </trkpt>
      <trkpt lat="48.01275" lon="2.80068">
        <ele>105</ele>
        <time>2016-12-11T10:29:08.399Z</time>
      </trkpt>
      <trkpt lat="48.0127" lon="2.80065">
        <ele>104</ele>
        <time>2016-12-11T10:29:09.408Z</time>
      </trkpt>
      <trkpt lat="48.0127" lon="2.80065">
        <ele>104</ele>
        <time>2016-12-11T10:29:10.424Z</time>
      </trkpt>
      <trkpt lat="48.01263" lon="2.80061">
        <ele>104</ele>
        <time>2016-12-11T10:29:11.430Z</time>
      </trkpt>
      <trkpt lat="48.01261" lon="2.80059">
        <ele>104</ele>
        <time>2016-12-11T10:29:12.418Z</time>
      </trkpt>
      <trkpt lat="48.01261" lon="2.80059">
        <ele>104</ele>
        <time>2016-12-11T10:29:13.402Z</time>
      </trkpt>
      <trkpt lat="48.01253" lon="2.80056">
        <ele>103</ele>
        <time>2016-12-11T10:29:14.411Z</time>
      </trkpt>
      <trkpt lat="48.0125" lon="2.80053">
        <ele>103</ele>
        <time>2016-12-11T10:29:15.413Z</time>
      </trkpt>
      <trkpt lat="48.0125" lon="2.80053">
        <ele>103</ele>
        <time>2016-12-11T10:29:16.401Z</time>
      </trkpt>
      <trkpt lat="48.01243" lon="2.80049">
        <ele>103</ele>
        <time>2016-12-11T10:29:17.404Z</time>
      </trkpt>
      <trkpt lat="48.01243" lon="2.80049">
        <ele>103</ele>
        <time>2016-12-11T10:29:18.429Z</time>
      </trkpt>
      <trkpt lat="48.01236" lon="2.80049">
        <ele>103</ele>
        <time>2016-12-11T10:29:19.407Z</time>
      </trkpt>
      <trkpt lat="48.01236" lon="2.80049">
        <ele>103</ele>
        <time>2016-12-11T10:29:20.402Z</time>
      </trkpt>
      <trkpt lat="48.01227" lon="2.80045">
        <ele>103</ele>
        <time>2016-12-11T10:29:21.418Z</time>
      </trkpt>
      <trkpt lat="48.01227" lon="2.80045">
        <ele>103</ele>
        <time>2016-12-11T10:29:22.409Z</time>
      </trkpt>
      <trkpt lat="48.0122" lon="2.80042">
        <ele>103</ele>
        <time>2016-12-11T10:29:23.398Z</time>
      </trkpt>
      <trkpt lat="48.0122" lon="2.80042">
        <ele>103</ele>
        <time>2016-12-11T10:29:24.414Z</time>
      </trkpt>
      <trkpt lat="48.01212" lon="2.80038">
        <ele>102</ele>
        <time>2016-12-11T10:29:25.421Z</time>
      </trkpt>
      <trkpt lat="48.01212" lon="2.80038">
        <ele>102</ele>
        <time>2016-12-11T10:29:26.407Z</time>
      </trkpt>
      <trkpt lat="48.01204" lon="2.80036">
        <ele>102</ele>
        <time>2016-12-11T10:29:27.408Z</time>
      </trkpt>
      <trkpt lat="48.01204" lon="2.80036">
        <ele>102</ele>
        <time>2016-12-11T10:29:28.402Z</time>
      </trkpt>
      <trkpt lat="48.01196" lon="2.80032">
        <ele>102</ele>
        <time>2016-12-11T10:29:29.409Z</time>
      </trkpt>
      <trkpt lat="48.01193" lon="2.80029">
        <ele>102</ele>
        <time>2016-12-11T10:29:30.406Z</time>
      </trkpt>
      <trkpt lat="48.01193" lon="2.80029">
        <ele>102</ele>
        <time>2016-12-11T10:29:31.420Z</time>
      </trkpt>
      <trkpt lat="48.01185" lon="2.80027">
        <ele>101</ele>
        <time>2016-12-11T10:29:32.426Z</time>
      </trkpt>
      <trkpt lat="48.01181" lon="2.80026">
        <ele>101</ele>
        <time>2016-12-11T10:29:33.396Z</time>
      </trkpt>
      <trkpt lat="48.01176" lon="2.80025">
        <ele>101</ele>
        <time>2016-12-11T10:29:34.429Z</time>
      </trkpt>
      <trkpt lat="48.01176" lon="2.80025">
        <ele>101</ele>
        <time>2016-12-11T10:29:35.401Z</time>
      </trkpt>
      <trkpt lat="48.01168" lon="2.8002">
        <ele>101</ele>
        <time>2016-12-11T10:29:36.424Z</time>
      </trkpt>
      <trkpt lat="48.01168" lon="2.8002">
        <ele>101</ele>
        <time>2016-12-11T10:29:37.413Z</time>
      </trkpt>
      <trkpt lat="48.01158" lon="2.80015">
        <ele>101</ele>
        <time>2016-12-11T10:29:38.435Z</time>
      </trkpt>
      <trkpt lat="48.01153" lon="2.80011">
        <ele>101</ele>
        <time>2016-12-11T10:29:39.422Z</time>
      </trkpt>
      <trkpt lat="48.01153" lon="2.80011">
        <ele>101</ele>
        <time>2016-12-11T10:29:40.407Z</time>
      </trkpt>
      <trkpt lat="48.01145" lon="2.80006">
        <ele>101</ele>
        <time>2016-12-11T10:29:41.434Z</time>
      </trkpt>
      <trkpt lat="48.01141" lon="2.80004">
        <ele>101</ele>
        <time>2016-12-11T10:29:42.419Z</time>
      </trkpt>
      <trkpt lat="48.01141" lon="2.80004">
        <ele>101</ele>
        <time>2016-12-11T10:29:43.406Z</time>
      </trkpt>
      <trkpt lat="48.01132" lon="2.8">
        <ele>101</ele>
        <time>2016-12-11T10:29:44.416Z</time>
      </trkpt>
      <trkpt lat="48.01128" lon="2.8">
        <ele>101</ele>
        <time>2016-12-11T10:29:45.400Z</time>
      </trkpt>
      <trkpt lat="48.01128" lon="2.8">
        <ele>101</ele>
        <time>2016-12-11T10:29:46.426Z</time>
      </trkpt>
      <trkpt lat="48.01121" lon="2.8">
        <ele>101</ele>
        <time>2016-12-11T10:29:47.428Z</time>
      </trkpt>
      <trkpt lat="48.01121" lon="2.8">
        <ele>101</ele>
        <time>2016-12-11T10:29:48.415Z</time>
      </trkpt>
      <trkpt lat="48.01113" lon="2.79998">
        <ele>102</ele>
        <time>2016-12-11T10:29:49.421Z</time>
      </trkpt>
      <trkpt lat="48.01108" lon="2.79997">
        <ele>102</ele>
        <time>2016-12-11T10:29:50.432Z</time>
      </trkpt>
      <trkpt lat="48.01103" lon="2.79996">
        <ele>102</ele>
        <time>2016-12-11T10:29:51.406Z</time>
      </trkpt>
      <trkpt lat="48.01103" lon="2.79996">
        <ele>102</ele>
        <time>2016-12-11T10:29:52.430Z</time>
      </trkpt>
      <trkpt lat="48.01094" lon="2.79994">
        <ele>101</ele>
        <time>2016-12-11T10:29:53.413Z</time>
      </trkpt>
      <trkpt lat="48.01094" lon="2.79994">
        <ele>101</ele>
        <time>2016-12-11T10:29:54.402Z</time>
      </trkpt>
      <trkpt lat="48.01084" lon="2.79989">
        <ele>101</ele>
        <time>2016-12-11T10:29:55.409Z</time>
      </trkpt>
      <trkpt lat="48.01084" lon="2.79989">
        <ele>101</ele>
        <time>2016-12-11T10:29:56.396Z</time>
      </trkpt>
      <trkpt lat="48.01074" lon="2.79984">
        <ele>101</ele>
        <time>2016-12-11T10:29:57.418Z</time>
      </trkpt>
      <trkpt lat="48.01074" lon="2.79984">
        <ele>101</ele>
        <time>2016-12-11T10:29:58.406Z</time>
      </trkpt>
      <trkpt lat="48.01064" lon="2.79982">
        <ele>100</ele>
        <time>2016-12-11T10:29:59.412Z</time>
      </trkpt>
      <trkpt lat="48.01064" lon="2.79982">
        <ele>100</ele>
        <time>2016-12-11T10:30:00.398Z</time>
      </trkpt>
      <trkpt lat="48.01054" lon="2.7998">
        <ele>100</ele>
        <time>2016-12-11T10:30:01.430Z</time>
      </trkpt>
      <trkpt lat="48.01054" lon="2.7998">
        <ele>100</ele>
        <time>2016-12-11T10:30:02.417Z</time>
      </trkpt>
      <trkpt lat="48.01042" lon="2.79977">
        <ele>100</ele>
        <time>2016-12-11T10:30:03.423Z</time>
      </trkpt>
      <trkpt lat="48.01035" lon="2.79975">
        <ele>100</ele>
        <time>2016-12-11T10:30:04.424Z</time>
      </trkpt>
      <trkpt lat="48.01035" lon="2.79975">
        <ele>100</ele>
        <time>2016-12-11T10:30:05.410Z</time>
      </trkpt>
      <trkpt lat="48.01023" lon="2.79971">
        <ele>99</ele>
        <time>2016-12-11T10:30:06.416Z</time>
      </trkpt>
      <trkpt lat="48.01017" lon="2.79968">
        <ele>100</ele>
        <time>2016-12-11T10:30:07.428Z</time>
      </trkpt>
      <trkpt lat="48.01017" lon="2.79968">
        <ele>100</ele>
        <time>2016-12-11T10:30:08.420Z</time>
      </trkpt>
      <trkpt lat="48.01005" lon="2.79962">
        <ele>99</ele>
        <time>2016-12-11T10:30:09.399Z</time>
      </trkpt>
      <trkpt lat="48.01005" lon="2.79962">
        <ele>99</ele>
        <time>2016-12-11T10:30:10.428Z</time>
      </trkpt>
      <trkpt lat="48.00995" lon="2.79959">
        <ele>99</ele>
        <time>2016-12-11T10:30:11.399Z</time>
      </trkpt>
      <trkpt lat="48.00995" lon="2.79959">
        <ele>99</ele>
        <time>2016-12-11T10:30:12.410Z</time>
      </trkpt>
      <trkpt lat="48.00985" lon="2.79955">
        <ele>99</ele>
        <time>2016-12-11T10:30:13.418Z</time>
      </trkpt>
      <trkpt lat="48.0098" lon="2.79953">
        <ele>99</ele>
        <time>2016-12-11T10:30:14.402Z</time>
      </trkpt>
      <trkpt lat="48.00975" lon="2.7995">
        <ele>99</ele>
        <time>2016-12-11T10:30:15.419Z</time>
      </trkpt>
      <trkpt lat="48.00975" lon="2.7995">
        <ele>99</ele>
        <time>2016-12-11T10:30:16.400Z</time>
      </trkpt>
      <trkpt lat="48.00965" lon="2.79945">
        <ele>99</ele>
        <time>2016-12-11T10:30:17.415Z</time>
      </trkpt>
      <trkpt lat="48.0096" lon="2.79943">
        <ele>99</ele>
        <time>2016-12-11T10:30:18.407Z</time>
      </trkpt>
      <trkpt lat="48.0096" lon="2.79943">
        <ele>99</ele>
        <time>2016-12-11T10:30:19.433Z</time>
      </trkpt>
      <trkpt lat="48.00949" lon="2.79938">
        <ele>100</ele>
        <time>2016-12-11T10:30:20.404Z</time>
      </trkpt>
      <trkpt lat="48.00944" lon="2.79936">
        <ele>100</ele>
        <time>2016-12-11T10:30:21.418Z</time>
      </trkpt>
      <trkpt lat="48.00944" lon="2.79936">
        <ele>100</ele>
        <time>2016-12-11T10:30:22.402Z</time>
      </trkpt>
      <trkpt lat="48.00938" lon="2.79927">
        <ele>100</ele>
        <time>2016-12-11T10:30:23.409Z</time>
      </trkpt>
      <trkpt lat="48.00937" lon="2.79921">
        <ele>100</ele>
        <time>2016-12-11T10:30:24.423Z</time>
      </trkpt>
      <trkpt lat="48.00937" lon="2.79921">
        <ele>100</ele>
        <time>2016-12-11T10:30:25.410Z</time>
      </trkpt>
      <trkpt lat="48.00937" lon="2.79908">
        <ele>100</ele>
        <time>2016-12-11T10:30:26.417Z</time>
      </trkpt>
      <trkpt lat="48.00937" lon="2.799">
        <ele>101</ele>
        <time>2016-12-11T10:30:27.407Z</time>
      </trkpt>
      <trkpt lat="48.00937" lon="2.799">
        <ele>101</ele>
        <time>2016-12-11T10:30:28.399Z</time>
      </trkpt>
      <trkpt lat="48.00936" lon="2.79884">
        <ele>101</ele>
        <time>2016-12-11T10:30:29.424Z</time>
      </trkpt>
      <trkpt lat="48.00936" lon="2.79884">
        <ele>101</ele>
        <time>2016-12-11T10:30:30.410Z</time>
      </trkpt>
      <trkpt lat="48.00933" lon="2.79867">
        <ele>100</ele>
        <time>2016-12-11T10:30:31.403Z</time>
      </trkpt>
      <trkpt lat="48.00933" lon="2.79867">
        <ele>100</ele>
        <time>2016-12-11T10:30:32.410Z</time>
      </trkpt>
      <trkpt lat="48.00929" lon="2.79849">
        <ele>101</ele>
        <time>2016-12-11T10:30:33.417Z</time>
      </trkpt>
      <trkpt lat="48.00929" lon="2.79849">
        <ele>101</ele>
        <time>2016-12-11T10:30:34.422Z</time>
      </trkpt>
      <trkpt lat="48.00927" lon="2.79833">
        <ele>100</ele>
        <time>2016-12-11T10:30:35.430Z</time>
      </trkpt>
      <trkpt lat="48.00927" lon="2.79833">
        <ele>100</ele>
        <time>2016-12-11T10:30:36.416Z</time>
      </trkpt>
      <trkpt lat="48.00925" lon="2.79817">
        <ele>100</ele>
        <time>2016-12-11T10:30:37.436Z</time>
      </trkpt>
      <trkpt lat="48.00925" lon="2.79817">
        <ele>100</ele>
        <time>2016-12-11T10:30:38.425Z</time>
      </trkpt>
      <trkpt lat="48.00923" lon="2.79801">
        <ele>100</ele>
        <time>2016-12-11T10:30:39.432Z</time>
      </trkpt>
      <trkpt lat="48.00923" lon="2.79801">
        <ele>100</ele>
        <time>2016-12-11T10:30:40.412Z</time>
      </trkpt>
      <trkpt lat="48.00922" lon="2.79783">
        <ele>100</ele>
        <time>2016-12-11T10:30:41.419Z</time>
      </trkpt>
      <trkpt lat="48.00922" lon="2.79783">
        <ele>100</ele>
        <time>2016-12-11T10:30:42.409Z</time>
      </trkpt>
      <trkpt lat="48.0092" lon="2.79767">
        <ele>100</ele>
        <time>2016-12-11T10:30:43.402Z</time>
      </trkpt>
      <trkpt lat="48.0092" lon="2.79767">
        <ele>100</ele>
        <time>2016-12-11T10:30:44.430Z</time>
      </trkpt>
      <trkpt lat="48.00919" lon="2.79751">
        <ele>100</ele>
        <time>2016-12-11T10:30:45.396Z</time>
      </trkpt>
      <trkpt lat="48.00919" lon="2.79751">
        <ele>100</ele>
        <time>2016-12-11T10:30:46.422Z</time>
      </trkpt>
      <trkpt lat="48.00917" lon="2.79738">
        <ele>100</ele>
        <time>2016-12-11T10:30:47.429Z</time>
      </trkpt>
      <trkpt lat="48.00917" lon="2.79738">
        <ele>100</ele>
        <time>2016-12-11T10:30:48.415Z</time>
      </trkpt>
      <trkpt lat="48.00917" lon="2.79725">
        <ele>101</ele>
        <time>2016-12-11T10:30:49.408Z</time>
      </trkpt>
      <trkpt lat="48.00917" lon="2.79725">
        <ele>101</ele>
        <time>2016-12-11T10:30:50.424Z</time>
      </trkpt>
      <trkpt lat="48.00916" lon="2.79713">
        <ele>101</ele>
        <time>2016-12-11T10:30:51.430Z</time>
      </trkpt>
      <trkpt lat="48.00915" lon="2.79706">
        <ele>101</ele>
        <time>2016-12-11T10:30:52.416Z</time>
      </trkpt>
      <trkpt lat="48.00915" lon="2.79706">
        <ele>101</ele>
        <time>2016-12-11T10:30:53.405Z</time>
      </trkpt>
      <trkpt lat="48.00914" lon="2.79691">
        <ele>102</ele>
        <time>2016-12-11T10:30:54.412Z</time>
      </trkpt>
      <trkpt lat="48.00914" lon="2.79685">
        <ele>101</ele>
        <time>2016-12-11T10:30:55.428Z</time>
      </trkpt>
      <trkpt lat="48.00914" lon="2.79685">
        <ele>101</ele>
        <time>2016-12-11T10:30:56.421Z</time>
      </trkpt>
      <trkpt lat="48.00913" lon="2.79671">
        <ele>102</ele>
        <time>2016-12-11T10:30:57.428Z</time>
      </trkpt>
      <trkpt lat="48.00913" lon="2.79671">
        <ele>102</ele>
        <time>2016-12-11T10:30:58.414Z</time>
      </trkpt>
      <trkpt lat="48.00911" lon="2.79657">
        <ele>102</ele>
        <time>2016-12-11T10:30:59.402Z</time>
      </trkpt>
      <trkpt lat="48.00911" lon="2.79657">
        <ele>102</ele>
        <time>2016-12-11T10:31:00.429Z</time>
      </trkpt>
      <trkpt lat="48.0091" lon="2.79645">
        <ele>103</ele>
        <time>2016-12-11T10:31:01.403Z</time>
      </trkpt>
      <trkpt lat="48.00909" lon="2.79637">
        <ele>103</ele>
        <time>2016-12-11T10:31:02.401Z</time>
      </trkpt>
      <trkpt lat="48.00909" lon="2.7963">
        <ele>103</ele>
        <time>2016-12-11T10:31:03.428Z</time>
      </trkpt>
      <trkpt lat="48.00909" lon="2.7963">
        <ele>103</ele>
        <time>2016-12-11T10:31:04.414Z</time>
      </trkpt>
      <trkpt lat="48.00908" lon="2.79616">
        <ele>104</ele>
        <time>2016-12-11T10:31:05.416Z</time>
      </trkpt>
      <trkpt lat="48.00908" lon="2.79616">
        <ele>104</ele>
        <time>2016-12-11T10:31:06.421Z</time>
      </trkpt>
      <trkpt lat="48.00907" lon="2.79604">
        <ele>104</ele>
        <time>2016-12-11T10:31:07.428Z</time>
      </trkpt>
      <trkpt lat="48.00906" lon="2.79598">
        <ele>104</ele>
        <time>2016-12-11T10:31:08.418Z</time>
      </trkpt>
      <trkpt lat="48.00906" lon="2.79592">
        <ele>105</ele>
        <time>2016-12-11T10:31:09.404Z</time>
      </trkpt>
      <trkpt lat="48.00906" lon="2.79592">
        <ele>105</ele>
        <time>2016-12-11T10:31:10.414Z</time>
      </trkpt>
      <trkpt lat="48.00904" lon="2.79581">
        <ele>105</ele>
        <time>2016-12-11T10:31:11.418Z</time>
      </trkpt>
      <trkpt lat="48.00904" lon="2.79581">
        <ele>105</ele>
        <time>2016-12-11T10:31:12.406Z</time>
      </trkpt>
      <trkpt lat="48.00903" lon="2.79569">
        <ele>105</ele>
        <time>2016-12-11T10:31:13.413Z</time>
      </trkpt>
      <trkpt lat="48.00902" lon="2.79563">
        <ele>105</ele>
        <time>2016-12-11T10:31:14.423Z</time>
      </trkpt>
      <trkpt lat="48.00902" lon="2.79563">
        <ele>105</ele>
        <time>2016-12-11T10:31:15.405Z</time>
      </trkpt>
      <trkpt lat="48.009" lon="2.79549">
        <ele>105</ele>
        <time>2016-12-11T10:31:16.412Z</time>
      </trkpt>
      <trkpt lat="48.009" lon="2.79549">
        <ele>105</ele>
        <time>2016-12-11T10:31:17.405Z</time>
      </trkpt>
      <trkpt lat="48.00899" lon="2.79536">
        <ele>106</ele>
        <time>2016-12-11T10:31:18.426Z</time>
      </trkpt>
      <trkpt lat="48.00899" lon="2.79536">
        <ele>106</ele>
        <time>2016-12-11T10:31:19.412Z</time>
      </trkpt>
      <trkpt lat="48.00899" lon="2.79525">
        <ele>105</ele>
        <time>2016-12-11T10:31:20.420Z</time>
      </trkpt>
      <trkpt lat="48.00899" lon="2.7952">
        <ele>105</ele>
        <time>2016-12-11T10:31:21.404Z</time>
      </trkpt>
      <trkpt lat="48.00899" lon="2.79513">
        <ele>105</ele>
        <time>2016-12-11T10:31:22.424Z</time>
      </trkpt>
      <trkpt lat="48.00899" lon="2.79513">
        <ele>105</ele>
        <time>2016-12-11T10:31:23.409Z</time>
      </trkpt>
      <trkpt lat="48.00897" lon="2.79499">
        <ele>105</ele>
        <time>2016-12-11T10:31:24.428Z</time>
      </trkpt>
      <trkpt lat="48.00897" lon="2.79499">
        <ele>105</ele>
        <time>2016-12-11T10:31:25.400Z</time>
      </trkpt>
      <trkpt lat="48.00895" lon="2.79488">
        <ele>105</ele>
        <time>2016-12-11T10:31:26.419Z</time>
      </trkpt>
      <trkpt lat="48.00893" lon="2.79483">
        <ele>105</ele>
        <time>2016-12-11T10:31:27.435Z</time>
      </trkpt>
      <trkpt lat="48.00893" lon="2.79483">
        <ele>105</ele>
        <time>2016-12-11T10:31:28.422Z</time>
      </trkpt>
      <trkpt lat="48.00887" lon="2.79475">
        <ele>105</ele>
        <time>2016-12-11T10:31:29.430Z</time>
      </trkpt>
      <trkpt lat="48.00887" lon="2.79475">
        <ele>105</ele>
        <time>2016-12-11T10:31:30.416Z</time>
      </trkpt>
      <trkpt lat="48.00878" lon="2.79471">
        <ele>105</ele>
        <time>2016-12-11T10:31:31.422Z</time>
      </trkpt>
      <trkpt lat="48.00878" lon="2.79471">
        <ele>105</ele>
        <time>2016-12-11T10:31:32.400Z</time>
      </trkpt>
      <trkpt lat="48.00869" lon="2.79466">
        <ele>105</ele>
        <time>2016-12-11T10:31:33.418Z</time>
      </trkpt>
      <trkpt lat="48.00869" lon="2.79466">
        <ele>105</ele>
        <time>2016-12-11T10:31:34.405Z</time>
      </trkpt>
      <trkpt lat="48.00859" lon="2.79462">
        <ele>105</ele>
        <time>2016-12-11T10:31:35.412Z</time>
      </trkpt>
      <trkpt lat="48.00854" lon="2.7946">
        <ele>105</ele>
        <time>2016-12-11T10:31:36.399Z</time>
      </trkpt>
      <trkpt lat="48.00854" lon="2.7946">
        <ele>105</ele>
        <time>2016-12-11T10:31:37.427Z</time>
      </trkpt>
      <trkpt lat="48.00844" lon="2.79456">
        <ele>105</ele>
        <time>2016-12-11T10:31:38.434Z</time>
      </trkpt>
      <trkpt lat="48.0084" lon="2.79452">
        <ele>105</ele>
        <time>2016-12-11T10:31:39.408Z</time>
      </trkpt>
      <trkpt lat="48.0084" lon="2.79452">
        <ele>105</ele>
        <time>2016-12-11T10:31:40.433Z</time>
      </trkpt>
      <trkpt lat="48.00839" lon="2.79441">
        <ele>105</ele>
        <time>2016-12-11T10:31:41.405Z</time>
      </trkpt>
      <trkpt lat="48.0084" lon="2.79435">
        <ele>105</ele>
        <time>2016-12-11T10:31:42.397Z</time>
      </trkpt>
      <trkpt lat="48.0084" lon="2.79435">
        <ele>105</ele>
        <time>2016-12-11T10:31:43.424Z</time>
      </trkpt>
      <trkpt lat="48.00841" lon="2.79422">
        <ele>105</ele>
        <time>2016-12-11T10:31:44.398Z</time>
      </trkpt>
      <trkpt lat="48.00841" lon="2.79415">
        <ele>105</ele>
        <time>2016-12-11T10:31:45.401Z</time>
      </trkpt>
      <trkpt lat="48.00841" lon="2.79415">
        <ele>105</ele>
        <time>2016-12-11T10:31:46.427Z</time>
      </trkpt>
      <trkpt lat="48.00841" lon="2.79401">
        <ele>105</ele>
        <time>2016-12-11T10:31:47.433Z</time>
      </trkpt>
      <trkpt lat="48.0084" lon="2.79395">
        <ele>105</ele>
        <time>2016-12-11T10:31:48.402Z</time>
      </trkpt>
      <trkpt lat="48.0084" lon="2.79395">
        <ele>105</ele>
        <time>2016-12-11T10:31:49.430Z</time>
      </trkpt>
      <trkpt lat="48.00835" lon="2.79384">
        <ele>105</ele>
        <time>2016-12-11T10:31:50.405Z</time>
      </trkpt>
      <trkpt lat="48.00831" lon="2.7938">
        <ele>104</ele>
        <time>2016-12-11T10:31:51.433Z</time>
      </trkpt>
      <trkpt lat="48.00831" lon="2.7938">
        <ele>104</ele>
        <time>2016-12-11T10:31:52.417Z</time>
      </trkpt>
      <trkpt lat="48.00824" lon="2.79373">
        <ele>104</ele>
        <time>2016-12-11T10:31:53.407Z</time>
      </trkpt>
      <trkpt lat="48.00824" lon="2.79373">
        <ele>104</ele>
        <time>2016-12-11T10:31:54.432Z</time>
      </trkpt>
      <trkpt lat="48.00816" lon="2.79364">
        <ele>103</ele>
        <time>2016-12-11T10:31:55.404Z</time>
      </trkpt>
      <trkpt lat="48.00813" lon="2.79359">
        <ele>103</ele>
        <time>2016-12-11T10:31:56.420Z</time>
      </trkpt>
      <trkpt lat="48.00809" lon="2.79355">
        <ele>103</ele>
        <time>2016-12-11T10:31:57.406Z</time>
      </trkpt>
      <trkpt lat="48.00809" lon="2.79355">
        <ele>103</ele>
        <time>2016-12-11T10:31:58.413Z</time>
      </trkpt>
      <trkpt lat="48.00802" lon="2.79345">
        <ele>102</ele>
        <time>2016-12-11T10:31:59.416Z</time>
      </trkpt>
      <trkpt lat="48.00798" lon="2.7934">
        <ele>102</ele>
        <time>2016-12-11T10:32:00.396Z</time>
      </trkpt>
      <trkpt lat="48.00793" lon="2.79334">
        <ele>102</ele>
        <time>2016-12-11T10:32:01.421Z</time>
      </trkpt>
      <trkpt lat="48.00793" lon="2.79334">
        <ele>102</ele>
        <time>2016-12-11T10:32:02.406Z</time>
      </trkpt>
      <trkpt lat="48.00786" lon="2.79321">
        <ele>102</ele>
        <time>2016-12-11T10:32:03.413Z</time>
      </trkpt>
      <trkpt lat="48.00786" lon="2.79321">
        <ele>102</ele>
        <time>2016-12-11T10:32:04.431Z</time>
      </trkpt>
      <trkpt lat="48.00779" lon="2.79308">
        <ele>101</ele>
        <time>2016-12-11T10:32:05.410Z</time>
      </trkpt>
      <trkpt lat="48.00779" lon="2.79308">
        <ele>101</ele>
        <time>2016-12-11T10:32:06.399Z</time>
      </trkpt>
      <trkpt lat="48.00771" lon="2.79294">
        <ele>101</ele>
        <time>2016-12-11T10:32:07.408Z</time>
      </trkpt>
      <trkpt lat="48.00767" lon="2.79287">
        <ele>100</ele>
        <time>2016-12-11T10:32:08.428Z</time>
      </trkpt>
      <trkpt lat="48.00764" lon="2.7928">
        <ele>100</ele>
        <time>2016-12-11T10:32:09.418Z</time>
      </trkpt>
      <trkpt lat="48.00764" lon="2.7928">
        <ele>100</ele>
        <time>2016-12-11T10:32:10.397Z</time>
      </trkpt>
      <trkpt lat="48.00756" lon="2.79264">
        <ele>99</ele>
        <time>2016-12-11T10:32:11.404Z</time>
      </trkpt>
      <trkpt lat="48.00756" lon="2.79264">
        <ele>99</ele>
        <time>2016-12-11T10:32:12.431Z</time>
      </trkpt>
      <trkpt lat="48.00747" lon="2.79249">
        <ele>98</ele>
        <time>2016-12-11T10:32:13.401Z</time>
      </trkpt>
      <trkpt lat="48.00747" lon="2.79249">
        <ele>98</ele>
        <time>2016-12-11T10:32:14.427Z</time>
      </trkpt>
      <trkpt lat="48.00737" lon="2.79234">
        <ele>98</ele>
        <time>2016-12-11T10:32:15.428Z</time>
      </trkpt>
      <trkpt lat="48.00737" lon="2.79234">
        <ele>98</ele>
        <time>2016-12-11T10:32:16.404Z</time>
      </trkpt>
      <trkpt lat="48.00728" lon="2.79219">
        <ele>98</ele>
        <time>2016-12-11T10:32:17.403Z</time>
      </trkpt>
      <trkpt lat="48.00723" lon="2.79212">
        <ele>98</ele>
        <time>2016-12-11T10:32:18.412Z</time>
      </trkpt>
      <trkpt lat="48.00719" lon="2.79203">
        <ele>98</ele>
        <time>2016-12-11T10:32:19.413Z</time>
      </trkpt>
      <trkpt lat="48.00719" lon="2.79203">
        <ele>98</ele>
        <time>2016-12-11T10:32:20.401Z</time>
      </trkpt>
      <trkpt lat="48.00713" lon="2.79185">
        <ele>98</ele>
        <time>2016-12-11T10:32:21.408Z</time>
      </trkpt>
      <trkpt lat="48.00713" lon="2.79185">
        <ele>98</ele>
        <time>2016-12-11T10:32:22.432Z</time>
      </trkpt>
      <trkpt lat="48.00707" lon="2.79168">
        <ele>98</ele>
        <time>2016-12-11T10:32:23.412Z</time>
      </trkpt>
      <trkpt lat="48.00707" lon="2.79168">
        <ele>98</ele>
        <time>2016-12-11T10:32:24.401Z</time>
      </trkpt>
      <trkpt lat="48.007" lon="2.7915">
        <ele>98</ele>
        <time>2016-12-11T10:32:25.414Z</time>
      </trkpt>
      <trkpt lat="48.00697" lon="2.79142">
        <ele>98</ele>
        <time>2016-12-11T10:32:26.399Z</time>
      </trkpt>
      <trkpt lat="48.00697" lon="2.79142">
        <ele>98</ele>
        <time>2016-12-11T10:32:27.424Z</time>
      </trkpt>
      <trkpt lat="48.00688" lon="2.79128">
        <ele>97</ele>
        <time>2016-12-11T10:32:28.432Z</time>
      </trkpt>
      <trkpt lat="48.00684" lon="2.79123">
        <ele>97</ele>
        <time>2016-12-11T10:32:29.408Z</time>
      </trkpt>
      <trkpt lat="48.0068" lon="2.79118">
        <ele>96</ele>
        <time>2016-12-11T10:32:30.403Z</time>
      </trkpt>
      <trkpt lat="48.0068" lon="2.79118">
        <ele>96</ele>
        <time>2016-12-11T10:32:31.429Z</time>
      </trkpt>
      <trkpt lat="48.00671" lon="2.79111">
        <ele>96</ele>
        <time>2016-12-11T10:32:32.406Z</time>
      </trkpt>
      <trkpt lat="48.00671" lon="2.79111">
        <ele>96</ele>
        <time>2016-12-11T10:32:33.434Z</time>
      </trkpt>
      <trkpt lat="48.00661" lon="2.79104">
        <ele>95</ele>
        <time>2016-12-11T10:32:34.405Z</time>
      </trkpt>
      <trkpt lat="48.00661" lon="2.79104">
        <ele>95</ele>
        <time>2016-12-11T10:32:35.421Z</time>
      </trkpt>
      <trkpt lat="48.00651" lon="2.79099">
        <ele>95</ele>
        <time>2016-12-11T10:32:36.399Z</time>
      </trkpt>
      <trkpt lat="48.00651" lon="2.79099">
        <ele>95</ele>
        <time>2016-12-11T10:32:37.425Z</time>
      </trkpt>
      <trkpt lat="48.00642" lon="2.79093">
        <ele>94</ele>
        <time>2016-12-11T10:32:38.432Z</time>
      </trkpt>
      <trkpt lat="48.00636" lon="2.79091">
        <ele>94</ele>
        <time>2016-12-11T10:32:39.430Z</time>
      </trkpt>
      <trkpt lat="48.00636" lon="2.79091">
        <ele>94</ele>
        <time>2016-12-11T10:32:40.419Z</time>
      </trkpt>
      <trkpt lat="48.00626" lon="2.79087">
        <ele>94</ele>
        <time>2016-12-11T10:32:41.398Z</time>
      </trkpt>
      <trkpt lat="48.00626" lon="2.79087">
        <ele>94</ele>
        <time>2016-12-11T10:32:42.412Z</time>
      </trkpt>
      <trkpt lat="48.00615" lon="2.79082">
        <ele>94</ele>
        <time>2016-12-11T10:32:43.419Z</time>
      </trkpt>
      <trkpt lat="48.00611" lon="2.79077">
        <ele>93</ele>
        <time>2016-12-11T10:32:44.428Z</time>
      </trkpt>
      <trkpt lat="48.0061" lon="2.79072">
        <ele>93</ele>
        <time>2016-12-11T10:32:45.435Z</time>
      </trkpt>
      <trkpt lat="48.0061" lon="2.79072">
        <ele>93</ele>
        <time>2016-12-11T10:32:46.421Z</time>
      </trkpt>
      <trkpt lat="48.00611" lon="2.79064">
        <ele>93</ele>
        <time>2016-12-11T10:32:47.399Z</time>
      </trkpt>
      <trkpt lat="48.00611" lon="2.79061">
        <ele>93</ele>
        <time>2016-12-11T10:32:48.426Z</time>
      </trkpt>
      <trkpt lat="48.00611" lon="2.79061">
        <ele>93</ele>
        <time>2016-12-11T10:32:49.409Z</time>
      </trkpt>
      <trkpt lat="48.00612" lon="2.79055">
        <ele>93</ele>
        <time>2016-12-11T10:32:50.411Z</time>
      </trkpt>
      <trkpt lat="48.00612" lon="2.79052">
        <ele>93</ele>
        <time>2016-12-11T10:32:51.402Z</time>
      </trkpt>
      <trkpt lat="48.00612" lon="2.79052">
        <ele>93</ele>
        <time>2016-12-11T10:32:52.428Z</time>
      </trkpt>
      <trkpt lat="48.00612" lon="2.79043">
        <ele>93</ele>
        <time>2016-12-11T10:32:53.435Z</time>
      </trkpt>
      <trkpt lat="48.00612" lon="2.79039">
        <ele>93</ele>
        <time>2016-12-11T10:32:54.422Z</time>
      </trkpt>
      <trkpt lat="48.00612" lon="2.79039">
        <ele>93</ele>
        <time>2016-12-11T10:32:55.405Z</time>
      </trkpt>
      <trkpt lat="48.00613" lon="2.79028">
        <ele>94</ele>
        <time>2016-12-11T10:32:56.412Z</time>
      </trkpt>
      <trkpt lat="48.00614" lon="2.79023">
        <ele>94</ele>
        <time>2016-12-11T10:32:57.429Z</time>
      </trkpt>
      <trkpt lat="48.00614" lon="2.79023">
        <ele>94</ele>
        <time>2016-12-11T10:32:58.417Z</time>
      </trkpt>
      <trkpt lat="48.00616" lon="2.79013">
        <ele>93</ele>
        <time>2016-12-11T10:32:59.418Z</time>
      </trkpt>
      <trkpt lat="48.00616" lon="2.79013">
        <ele>93</ele>
        <time>2016-12-11T10:33:00.405Z</time>
      </trkpt>
      <trkpt lat="48.00618" lon="2.79004">
        <ele>93</ele>
        <time>2016-12-11T10:33:01.401Z</time>
      </trkpt>
      <trkpt lat="48.0062" lon="2.78999">
        <ele>93</ele>
        <time>2016-12-11T10:33:02.422Z</time>
      </trkpt>
      <trkpt lat="48.00621" lon="2.78994">
        <ele>93</ele>
        <time>2016-12-11T10:33:03.405Z</time>
      </trkpt>
      <trkpt lat="48.00621" lon="2.78994">
        <ele>93</ele>
        <time>2016-12-11T10:33:04.429Z</time>
      </trkpt>
      <trkpt lat="48.00623" lon="2.78983">
        <ele>93</ele>
        <time>2016-12-11T10:33:05.407Z</time>
      </trkpt>
      <trkpt lat="48.00623" lon="2.78983">
        <ele>93</ele>
        <time>2016-12-11T10:33:06.396Z</time>
      </trkpt>
      <trkpt lat="48.00624" lon="2.78971">
        <ele>93</ele>
        <time>2016-12-11T10:33:07.404Z</time>
      </trkpt>
      <trkpt lat="48.00626" lon="2.78965">
        <ele>93</ele>
        <time>2016-12-11T10:33:08.431Z</time>
      </trkpt>
      <trkpt lat="48.00627" lon="2.78959">
        <ele>93</ele>
        <time>2016-12-11T10:33:09.410Z</time>
      </trkpt>
      <trkpt lat="48.00627" lon="2.78959">
        <ele>93</ele>
        <time>2016-12-11T10:33:10.396Z</time>
      </trkpt>
      <trkpt lat="48.0063" lon="2.78947">
        <ele>93</ele>
        <time>2016-12-11T10:33:11.403Z</time>
      </trkpt>
      <trkpt lat="48.0063" lon="2.78947">
        <ele>93</ele>
        <time>2016-12-11T10:33:12.429Z</time>
      </trkpt>
      <trkpt lat="48.00633" lon="2.78935">
        <ele>93</ele>
        <time>2016-12-11T10:33:13.401Z</time>
      </trkpt>
      <trkpt lat="48.00633" lon="2.78935">
        <ele>93</ele>
        <time>2016-12-11T10:33:14.429Z</time>
      </trkpt>
      <trkpt lat="48.00635" lon="2.78921">
        <ele>94</ele>
        <time>2016-12-11T10:33:15.418Z</time>
      </trkpt>
      <trkpt lat="48.00635" lon="2.78921">
        <ele>94</ele>
        <time>2016-12-11T10:33:16.404Z</time>
      </trkpt>
      <trkpt lat="48.00638" lon="2.78909">
        <ele>94</ele>
        <time>2016-12-11T10:33:17.407Z</time>
      </trkpt>
      <trkpt lat="48.00638" lon="2.78909">
        <ele>94</ele>
        <time>2016-12-11T10:33:18.423Z</time>
      </trkpt>
      <trkpt lat="48.00641" lon="2.78897">
        <ele>94</ele>
        <time>2016-12-11T10:33:19.435Z</time>
      </trkpt>
      <trkpt lat="48.00641" lon="2.78897">
        <ele>94</ele>
        <time>2016-12-11T10:33:20.423Z</time>
      </trkpt>
      <trkpt lat="48.00643" lon="2.78882">
        <ele>93</ele>
        <time>2016-12-11T10:33:21.430Z</time>
      </trkpt>
      <trkpt lat="48.00644" lon="2.78875">
        <ele>93</ele>
        <time>2016-12-11T10:33:22.400Z</time>
      </trkpt>
      <trkpt lat="48.00644" lon="2.78875">
        <ele>93</ele>
        <time>2016-12-11T10:33:23.403Z</time>
      </trkpt>
      <trkpt lat="48.00647" lon="2.78861">
        <ele>93</ele>
        <time>2016-12-11T10:33:24.410Z</time>
      </trkpt>
      <trkpt lat="48.00647" lon="2.78853">
        <ele>93</ele>
        <time>2016-12-11T10:33:25.422Z</time>
      </trkpt>
      <trkpt lat="48.00647" lon="2.78853">
        <ele>93</ele>
        <time>2016-12-11T10:33:26.408Z</time>
      </trkpt>
      <trkpt lat="48.0065" lon="2.78838">
        <ele>93</ele>
        <time>2016-12-11T10:33:27.415Z</time>
      </trkpt>
      <trkpt lat="48.0065" lon="2.78838">
        <ele>93</ele>
        <time>2016-12-11T10:33:28.402Z</time>
      </trkpt>
      <trkpt lat="48.00652" lon="2.78823">
        <ele>92</ele>
        <time>2016-12-11T10:33:29.416Z</time>
      </trkpt>
      <trkpt lat="48.00652" lon="2.78823">
        <ele>92</ele>
        <time>2016-12-11T10:33:30.407Z</time>
      </trkpt>
      <trkpt lat="48.00655" lon="2.78808">
        <ele>94</ele>
        <time>2016-12-11T10:33:31.397Z</time>
      </trkpt>
      <trkpt lat="48.00656" lon="2.78801">
        <ele>94</ele>
        <time>2016-12-11T10:33:32.414Z</time>
      </trkpt>
      <trkpt lat="48.00656" lon="2.78801">
        <ele>94</ele>
        <time>2016-12-11T10:33:33.432Z</time>
      </trkpt>
      <trkpt lat="48.0066" lon="2.78787">
        <ele>95</ele>
        <time>2016-12-11T10:33:34.408Z</time>
      </trkpt>
      <trkpt lat="48.0066" lon="2.78787">
        <ele>95</ele>
        <time>2016-12-11T10:33:35.401Z</time>
      </trkpt>
      <trkpt lat="48.00663" lon="2.78772">
        <ele>96</ele>
        <time>2016-12-11T10:33:36.408Z</time>
      </trkpt>
      <trkpt lat="48.00663" lon="2.78772">
        <ele>96</ele>
        <time>2016-12-11T10:33:37.410Z</time>
      </trkpt>
      <trkpt lat="48.00666" lon="2.78758">
        <ele>97</ele>
        <time>2016-12-11T10:33:38.408Z</time>
      </trkpt>
      <trkpt lat="48.00668" lon="2.78751">
        <ele>97</ele>
        <time>2016-12-11T10:33:39.434Z</time>
      </trkpt>
      <trkpt lat="48.00668" lon="2.78751">
        <ele>97</ele>
        <time>2016-12-11T10:33:40.416Z</time>
      </trkpt>
      <trkpt lat="48.00671" lon="2.78736">
        <ele>97</ele>
        <time>2016-12-11T10:33:41.397Z</time>
      </trkpt>
      <trkpt lat="48.00671" lon="2.78736">
        <ele>97</ele>
        <time>2016-12-11T10:33:42.434Z</time>
      </trkpt>
      <trkpt lat="48.00674" lon="2.78721">
        <ele>98</ele>
        <time>2016-12-11T10:33:43.404Z</time>
      </trkpt>
      <trkpt lat="48.00675" lon="2.78714">
        <ele>98</ele>
        <time>2016-12-11T10:33:44.425Z</time>
      </trkpt>
      <trkpt lat="48.00677" lon="2.78707">
        <ele>98</ele>
        <time>2016-12-11T10:33:45.412Z</time>
      </trkpt>
      <trkpt lat="48.00677" lon="2.78707">
        <ele>98</ele>
        <time>2016-12-11T10:33:46.402Z</time>
      </trkpt>
      <trkpt lat="48.00679" lon="2.78692">
        <ele>98</ele>
        <time>2016-12-11T10:33:47.411Z</time>
      </trkpt>
      <trkpt lat="48.00679" lon="2.78692">
        <ele>98</ele>
        <time>2016-12-11T10:33:48.401Z</time>
      </trkpt>
      <trkpt lat="48.00682" lon="2.78678">
        <ele>99</ele>
        <time>2016-12-11T10:33:49.419Z</time>
      </trkpt>
      <trkpt lat="48.00682" lon="2.78678">
        <ele>99</ele>
        <time>2016-12-11T10:33:50.406Z</time>
      </trkpt>
      <trkpt lat="48.00685" lon="2.78663">
        <ele>99</ele>
        <time>2016-12-11T10:33:51.399Z</time>
      </trkpt>
      <trkpt lat="48.00685" lon="2.78663">
        <ele>99</ele>
        <time>2016-12-11T10:33:52.426Z</time>
      </trkpt>
      <trkpt lat="48.00688" lon="2.7865">
        <ele>99</ele>
        <time>2016-12-11T10:33:53.433Z</time>
      </trkpt>
      <trkpt lat="48.00688" lon="2.7865">
        <ele>99</ele>
        <time>2016-12-11T10:33:54.419Z</time>
      </trkpt>
      <trkpt lat="48.00691" lon="2.78637">
        <ele>99</ele>
        <time>2016-12-11T10:33:55.406Z</time>
      </trkpt>
      <trkpt lat="48.00691" lon="2.78637">
        <ele>99</ele>
        <time>2016-12-11T10:33:56.431Z</time>
      </trkpt>
      <trkpt lat="48.00694" lon="2.78624">
        <ele>99</ele>
        <time>2016-12-11T10:33:57.403Z</time>
      </trkpt>
      <trkpt lat="48.00694" lon="2.78624">
        <ele>99</ele>
        <time>2016-12-11T10:33:58.430Z</time>
      </trkpt>
      <trkpt lat="48.00696" lon="2.7861">
        <ele>100</ele>
        <time>2016-12-11T10:33:59.398Z</time>
      </trkpt>
      <trkpt lat="48.00696" lon="2.7861">
        <ele>100</ele>
        <time>2016-12-11T10:34:00.405Z</time>
      </trkpt>
      <trkpt lat="48.00699" lon="2.78595">
        <ele>100</ele>
        <time>2016-12-11T10:34:01.426Z</time>
      </trkpt>
      <trkpt lat="48.00701" lon="2.78587">
        <ele>100</ele>
        <time>2016-12-11T10:34:02.434Z</time>
      </trkpt>
      <trkpt lat="48.00702" lon="2.78579">
        <ele>101</ele>
        <time>2016-12-11T10:34:03.421Z</time>
      </trkpt>
      <trkpt lat="48.00702" lon="2.78579">
        <ele>101</ele>
        <time>2016-12-11T10:34:04.405Z</time>
      </trkpt>
      <trkpt lat="48.00705" lon="2.78564">
        <ele>100</ele>
        <time>2016-12-11T10:34:05.424Z</time>
      </trkpt>
      <trkpt lat="48.00706" lon="2.78558">
        <ele>100</ele>
        <time>2016-12-11T10:34:06.413Z</time>
      </trkpt>
      <trkpt lat="48.00706" lon="2.78558">
        <ele>100</ele>
        <time>2016-12-11T10:34:07.403Z</time>
      </trkpt>
      <trkpt lat="48.00708" lon="2.78545">
        <ele>101</ele>
        <time>2016-12-11T10:34:08.429Z</time>
      </trkpt>
      <trkpt lat="48.0071" lon="2.78538">
        <ele>101</ele>
        <time>2016-12-11T10:34:09.414Z</time>
      </trkpt>
      <trkpt lat="48.0071" lon="2.78538">
        <ele>101</ele>
        <time>2016-12-11T10:34:10.399Z</time>
      </trkpt>
      <trkpt lat="48.00713" lon="2.78524">
        <ele>101</ele>
        <time>2016-12-11T10:34:11.401Z</time>
      </trkpt>
      <trkpt lat="48.00714" lon="2.78516">
        <ele>101</ele>
        <time>2016-12-11T10:34:12.429Z</time>
      </trkpt>
      <trkpt lat="48.00714" lon="2.78516">
        <ele>101</ele>
        <time>2016-12-11T10:34:13.414Z</time>
      </trkpt>
      <trkpt lat="48.00717" lon="2.78501">
        <ele>101</ele>
        <time>2016-12-11T10:34:14.418Z</time>
      </trkpt>
      <trkpt lat="48.00718" lon="2.78493">
        <ele>101</ele>
        <time>2016-12-11T10:34:15.407Z</time>
      </trkpt>
      <trkpt lat="48.00718" lon="2.78493">
        <ele>101</ele>
        <time>2016-12-11T10:34:16.432Z</time>
      </trkpt>
      <trkpt lat="48.00722" lon="2.78478">
        <ele>100</ele>
        <time>2016-12-11T10:34:17.425Z</time>
      </trkpt>
      <trkpt lat="48.00723" lon="2.7847">
        <ele>100</ele>
        <time>2016-12-11T10:34:18.434Z</time>
      </trkpt>
      <trkpt lat="48.00723" lon="2.7847">
        <ele>100</ele>
        <time>2016-12-11T10:34:19.414Z</time>
      </trkpt>
      <trkpt lat="48.00726" lon="2.78456">
        <ele>100</ele>
        <time>2016-12-11T10:34:20.423Z</time>
      </trkpt>
      <trkpt lat="48.00726" lon="2.78456">
        <ele>100</ele>
        <time>2016-12-11T10:34:21.411Z</time>
      </trkpt>
      <trkpt lat="48.0073" lon="2.78443">
        <ele>100</ele>
        <time>2016-12-11T10:34:22.398Z</time>
      </trkpt>
      <trkpt lat="48.0073" lon="2.78443">
        <ele>100</ele>
        <time>2016-12-11T10:34:23.415Z</time>
      </trkpt>
      <trkpt lat="48.00733" lon="2.7843">
        <ele>100</ele>
        <time>2016-12-11T10:34:24.397Z</time>
      </trkpt>
      <trkpt lat="48.00735" lon="2.78423">
        <ele>100</ele>
        <time>2016-12-11T10:34:25.399Z</time>
      </trkpt>
      <trkpt lat="48.00735" lon="2.78423">
        <ele>100</ele>
        <time>2016-12-11T10:34:26.431Z</time>
      </trkpt>
      <trkpt lat="48.00736" lon="2.7841">
        <ele>99</ele>
        <time>2016-12-11T10:34:27.404Z</time>
      </trkpt>
      <trkpt lat="48.00736" lon="2.7841">
        <ele>99</ele>
        <time>2016-12-11T10:34:28.416Z</time>
      </trkpt>
      <trkpt lat="48.00734" lon="2.78398">
        <ele>99</ele>
        <time>2016-12-11T10:34:29.405Z</time>
      </trkpt>
      <trkpt lat="48.00734" lon="2.78398">
        <ele>99</ele>
        <time>2016-12-11T10:34:30.433Z</time>
      </trkpt>
      <trkpt lat="48.00729" lon="2.78389">
        <ele>99</ele>
        <time>2016-12-11T10:34:31.403Z</time>
      </trkpt>
      <trkpt lat="48.00726" lon="2.78386">
        <ele>98</ele>
        <time>2016-12-11T10:34:32.403Z</time>
      </trkpt>
      <trkpt lat="48.00726" lon="2.78386">
        <ele>98</ele>
        <time>2016-12-11T10:34:33.423Z</time>
      </trkpt>
      <trkpt lat="48.00717" lon="2.78382">
        <ele>98</ele>
        <time>2016-12-11T10:34:34.431Z</time>
      </trkpt>
      <trkpt lat="48.00717" lon="2.78382">
        <ele>98</ele>
        <time>2016-12-11T10:34:35.409Z</time>
      </trkpt>
      <trkpt lat="48.00708" lon="2.78377">
        <ele>97</ele>
        <time>2016-12-11T10:34:36.427Z</time>
      </trkpt>
      <trkpt lat="48.00708" lon="2.78377">
        <ele>97</ele>
        <time>2016-12-11T10:34:37.404Z</time>
      </trkpt>
      <trkpt lat="48.00699" lon="2.78374">
        <ele>97</ele>
        <time>2016-12-11T10:34:38.410Z</time>
      </trkpt>
      <trkpt lat="48.00695" lon="2.78371">
        <ele>97</ele>
        <time>2016-12-11T10:34:39.418Z</time>
      </trkpt>
      <trkpt lat="48.00695" lon="2.78371">
        <ele>97</ele>
        <time>2016-12-11T10:34:40.404Z</time>
      </trkpt>
      <trkpt lat="48.00687" lon="2.78367">
        <ele>97</ele>
        <time>2016-12-11T10:34:41.411Z</time>
      </trkpt>
      <trkpt lat="48.00687" lon="2.78367">
        <ele>97</ele>
        <time>2016-12-11T10:34:42.408Z</time>
      </trkpt>
      <trkpt lat="48.00679" lon="2.78363">
        <ele>97</ele>
        <time>2016-12-11T10:34:43.401Z</time>
      </trkpt>
      <trkpt lat="48.00679" lon="2.78363">
        <ele>97</ele>
        <time>2016-12-11T10:34:44.428Z</time>
      </trkpt>
      <trkpt lat="48.00671" lon="2.78361">
        <ele>97</ele>
        <time>2016-12-11T10:34:45.435Z</time>
      </trkpt>
      <trkpt lat="48.00671" lon="2.78361">
        <ele>97</ele>
        <time>2016-12-11T10:34:46.419Z</time>
      </trkpt>
      <trkpt lat="48.00665" lon="2.7837">
        <ele>98</ele>
        <time>2016-12-11T10:34:47.427Z</time>
      </trkpt>
      <trkpt lat="48.00665" lon="2.7837">
        <ele>98</ele>
        <time>2016-12-11T10:34:48.413Z</time>
      </trkpt>
      <trkpt lat="48.00664" lon="2.78379">
        <ele>98</ele>
        <time>2016-12-11T10:34:49.410Z</time>
      </trkpt>
      <trkpt lat="48.00664" lon="2.78385">
        <ele>99</ele>
        <time>2016-12-11T10:34:50.428Z</time>
      </trkpt>
      <trkpt lat="48.00664" lon="2.78389">
        <ele>99</ele>
        <time>2016-12-11T10:34:51.413Z</time>
      </trkpt>
      <trkpt lat="48.00664" lon="2.78389">
        <ele>99</ele>
        <time>2016-12-11T10:34:52.402Z</time>
      </trkpt>
      <trkpt lat="48.00664" lon="2.78401">
        <ele>100</ele>
        <time>2016-12-11T10:34:53.408Z</time>
      </trkpt>
      <trkpt lat="48.00664" lon="2.78401">
        <ele>100</ele>
        <time>2016-12-11T10:34:54.399Z</time>
      </trkpt>
      <trkpt lat="48.00663" lon="2.78411">
        <ele>100</ele>
        <time>2016-12-11T10:34:55.405Z</time>
      </trkpt>
      <trkpt lat="48.00663" lon="2.78416">
        <ele>100</ele>
        <time>2016-12-11T10:34:56.408Z</time>
      </trkpt>
      <trkpt lat="48.00663" lon="2.78416">
        <ele>100</ele>
        <time>2016-12-11T10:34:57.401Z</time>
      </trkpt>
      <trkpt lat="48.00662" lon="2.78424">
        <ele>100</ele>
        <time>2016-12-11T10:34:58.408Z</time>
      </trkpt>
      <trkpt lat="48.00662" lon="2.78424">
        <ele>100</ele>
        <time>2016-12-11T10:34:59.433Z</time>
      </trkpt>
      <trkpt lat="48.0066" lon="2.78432">
        <ele>101</ele>
        <time>2016-12-11T10:35:00.420Z</time>
      </trkpt>
      <trkpt lat="48.0066" lon="2.78432">
        <ele>101</ele>
        <time>2016-12-11T10:35:01.410Z</time>
      </trkpt>
      <trkpt lat="48.00656" lon="2.78435">
        <ele>101</ele>
        <time>2016-12-11T10:35:02.417Z</time>
      </trkpt>
      <trkpt lat="48.00654" lon="2.78434">
        <ele>102</ele>
        <time>2016-12-11T10:35:03.420Z</time>
      </trkpt>
      <trkpt lat="48.00654" lon="2.78434">
        <ele>102</ele>
        <time>2016-12-11T10:35:04.407Z</time>
      </trkpt>
      <trkpt lat="48.00648" lon="2.78431">
        <ele>102</ele>
        <time>2016-12-11T10:35:05.416Z</time>
      </trkpt>
      <trkpt lat="48.00648" lon="2.78431">
        <ele>102</ele>
        <time>2016-12-11T10:35:06.402Z</time>
      </trkpt>
      <trkpt lat="48.00641" lon="2.78429">
        <ele>103</ele>
        <time>2016-12-11T10:35:07.399Z</time>
      </trkpt>
      <trkpt lat="48.00641" lon="2.78429">
        <ele>103</ele>
        <time>2016-12-11T10:35:08.426Z</time>
      </trkpt>
      <trkpt lat="48.00636" lon="2.78426">
        <ele>103</ele>
        <time>2016-12-11T10:35:09.433Z</time>
      </trkpt>
      <trkpt lat="48.00636" lon="2.78426">
        <ele>103</ele>
        <time>2016-12-11T10:35:10.419Z</time>
      </trkpt>
      <trkpt lat="48.00632" lon="2.78422">
        <ele>104</ele>
        <time>2016-12-11T10:35:11.407Z</time>
      </trkpt>
      <trkpt lat="48.00632" lon="2.78418">
        <ele>104</ele>
        <time>2016-12-11T10:35:12.426Z</time>
      </trkpt>
      <trkpt lat="48.00632" lon="2.78418">
        <ele>104</ele>
        <time>2016-12-11T10:35:13.404Z</time>
      </trkpt>
      <trkpt lat="48.0063" lon="2.7841">
        <ele>105</ele>
        <time>2016-12-11T10:35:14.398Z</time>
      </trkpt>
      <trkpt lat="48.00629" lon="2.78407">
        <ele>105</ele>
        <time>2016-12-11T10:35:15.424Z</time>
      </trkpt>
      <trkpt lat="48.00629" lon="2.78407">
        <ele>105</ele>
        <time>2016-12-11T10:35:16.407Z</time>
      </trkpt>
      <trkpt lat="48.00627" lon="2.78405">
        <ele>105</ele>
        <time>2016-12-11T10:35:17.417Z</time>
      </trkpt>
      <trkpt lat="48.00627" lon="2.78405">
        <ele>105</ele>
        <time>2016-12-11T10:35:18.414Z</time>
      </trkpt>
      <trkpt lat="48.00625" lon="2.78405">
        <ele>106</ele>
        <time>2016-12-11T10:35:19.426Z</time>
      </trkpt>
      <trkpt lat="48.00625" lon="2.78405">
        <ele>106</ele>
        <time>2016-12-11T10:35:20.415Z</time>
      </trkpt>
      <trkpt lat="48.00624" lon="2.78404">
        <ele>106</ele>
        <time>2016-12-11T10:35:21.408Z</time>
      </trkpt>
      <trkpt lat="48.00623" lon="2.78403">
        <ele>106</ele>
        <time>2016-12-11T10:35:22.431Z</time>
      </trkpt>
      <trkpt lat="48.00623" lon="2.78403">
        <ele>106</ele>
        <time>2016-12-11T10:35:23.419Z</time>
      </trkpt>
      <trkpt lat="48.00623" lon="2.78403">
        <ele>106</ele>
        <time>2016-12-11T10:35:24.406Z</time>
      </trkpt>
      <trkpt lat="48.00623" lon="2.78399">
        <ele>106</ele>
        <time>2016-12-11T10:35:25.412Z</time>
      </trkpt>
      <trkpt lat="48.00623" lon="2.78399">
        <ele>106</ele>
        <time>2016-12-11T10:35:26.418Z</time>
      </trkpt>
      <trkpt lat="48.00623" lon="2.78395">
        <ele>107</ele>
        <time>2016-12-11T10:35:27.434Z</time>
      </trkpt>
      <trkpt lat="48.00623" lon="2.78395">
        <ele>107</ele>
        <time>2016-12-11T10:35:28.419Z</time>
      </trkpt>
      <trkpt lat="48.00623" lon="2.78391">
        <ele>107</ele>
        <time>2016-12-11T10:35:29.427Z</time>
      </trkpt>
      <trkpt lat="48.00623" lon="2.78391">
        <ele>107</ele>
        <time>2016-12-11T10:35:30.414Z</time>
      </trkpt>
      <trkpt lat="48.0062" lon="2.78386">
        <ele>107</ele>
        <time>2016-12-11T10:35:31.418Z</time>
      </trkpt>
      <trkpt lat="48.0062" lon="2.78386">
        <ele>107</ele>
        <time>2016-12-11T10:35:32.403Z</time>
      </trkpt>
      <trkpt lat="48.00618" lon="2.78381">
        <ele>107</ele>
        <time>2016-12-11T10:35:33.409Z</time>
      </trkpt>
      <trkpt lat="48.00618" lon="2.78381">
        <ele>107</ele>
        <time>2016-12-11T10:35:34.406Z</time>
      </trkpt>
      <trkpt lat="48.00619" lon="2.78375">
        <ele>106</ele>
        <time>2016-12-11T10:35:35.398Z</time>
      </trkpt>
      <trkpt lat="48.00619" lon="2.78375">
        <ele>106</ele>
        <time>2016-12-11T10:35:36.424Z</time>
      </trkpt>
      <trkpt lat="48.00622" lon="2.78371">
        <ele>106</ele>
        <time>2016-12-11T10:35:37.431Z</time>
      </trkpt>
      <trkpt lat="48.00623" lon="2.78369">
        <ele>106</ele>
        <time>2016-12-11T10:35:38.438Z</time>
      </trkpt>
      <trkpt lat="48.00624" lon="2.78368">
        <ele>106</ele>
        <time>2016-12-11T10:35:39.413Z</time>
      </trkpt>
      <trkpt lat="48.00624" lon="2.78368">
        <ele>106</ele>
        <time>2016-12-11T10:35:40.396Z</time>
      </trkpt>
      <trkpt lat="48.00624" lon="2.78365">
        <ele>106</ele>
        <time>2016-12-11T10:35:41.428Z</time>
      </trkpt>
      <trkpt lat="48.00624" lon="2.78365">
        <ele>106</ele>
        <time>2016-12-11T10:35:42.414Z</time>
      </trkpt>
      <trkpt lat="48.00623" lon="2.78364">
        <ele>107</ele>
        <time>2016-12-11T10:35:43.420Z</time>
      </trkpt>
      <trkpt lat="48.00623" lon="2.78364">
        <ele>107</ele>
        <time>2016-12-11T10:35:44.406Z</time>
      </trkpt>
      <trkpt lat="48.0062" lon="2.78368">
        <ele>107</ele>
        <time>2016-12-11T10:35:45.408Z</time>
      </trkpt>
      <trkpt lat="48.0062" lon="2.78368">
        <ele>107</ele>
        <time>2016-12-11T10:35:46.434Z</time>
      </trkpt>
      <trkpt lat="48.00616" lon="2.7837">
        <ele>107</ele>
        <time>2016-12-11T10:35:47.402Z</time>
      </trkpt>
      <trkpt lat="48.00615" lon="2.78371">
        <ele>107</ele>
        <time>2016-12-11T10:35:48.416Z</time>
      </trkpt>
      <trkpt lat="48.00613" lon="2.78373">
        <ele>107</ele>
        <time>2016-12-11T10:35:49.402Z</time>
      </trkpt>
      <trkpt lat="48.00613" lon="2.78373">
        <ele>107</ele>
        <time>2016-12-11T10:35:50.430Z</time>
      </trkpt>
      <trkpt lat="48.0061" lon="2.78374">
        <ele>107</ele>
        <time>2016-12-11T10:35:51.404Z</time>
      </trkpt>
      <trkpt lat="48.0061" lon="2.78374">
        <ele>107</ele>
        <time>2016-12-11T10:35:52.429Z</time>
      </trkpt>
      <trkpt lat="48.00607" lon="2.78373">
        <ele>107</ele>
        <time>2016-12-11T10:35:53.438Z</time>
      </trkpt>
      <trkpt lat="48.00607" lon="2.78373">
        <ele>107</ele>
        <time>2016-12-11T10:35:54.428Z</time>
      </trkpt>
      <trkpt lat="48.00603" lon="2.78372">
        <ele>107</ele>
        <time>2016-12-11T10:35:55.434Z</time>
      </trkpt>
      <trkpt lat="48.00603" lon="2.78372">
        <ele>107</ele>
        <time>2016-12-11T10:35:56.419Z</time>
      </trkpt>
      <trkpt lat="48.006" lon="2.78372">
        <ele>107</ele>
        <time>2016-12-11T10:35:57.398Z</time>
      </trkpt>
      <trkpt lat="48.006" lon="2.78372">
        <ele>107</ele>
        <time>2016-12-11T10:35:58.424Z</time>
      </trkpt>
      <trkpt lat="48.00596" lon="2.78374">
        <ele>107</ele>
        <time>2016-12-11T10:35:59.432Z</time>
      </trkpt>
      <trkpt lat="48.00596" lon="2.78374">
        <ele>107</ele>
        <time>2016-12-11T10:36:00.417Z</time>
      </trkpt>
      <trkpt lat="48.00593" lon="2.78377">
        <ele>107</ele>
        <time>2016-12-11T10:36:01.429Z</time>
      </trkpt>
      <trkpt lat="48.00593" lon="2.78377">
        <ele>107</ele>
        <time>2016-12-11T10:36:02.412Z</time>
      </trkpt>
      <trkpt lat="48.00589" lon="2.78377">
        <ele>107</ele>
        <time>2016-12-11T10:36:03.424Z</time>
      </trkpt>
      <trkpt lat="48.00589" lon="2.78377">
        <ele>107</ele>
        <time>2016-12-11T10:36:04.414Z</time>
      </trkpt>
      <trkpt lat="48.00586" lon="2.78372">
        <ele>107</ele>
        <time>2016-12-11T10:36:05.420Z</time>
      </trkpt>
      <trkpt lat="48.00586" lon="2.78372">
        <ele>107</ele>
        <time>2016-12-11T10:36:06.420Z</time>
      </trkpt>
      <trkpt lat="48.00585" lon="2.78366">
        <ele>107</ele>
        <time>2016-12-11T10:36:07.404Z</time>
      </trkpt>
      <trkpt lat="48.00585" lon="2.78366">
        <ele>107</ele>
        <time>2016-12-11T10:36:08.412Z</time>
      </trkpt>
      <trkpt lat="48.00585" lon="2.78358">
        <ele>106</ele>
        <time>2016-12-11T10:36:09.419Z</time>
      </trkpt>
      <trkpt lat="48.00585" lon="2.78358">
        <ele>106</ele>
        <time>2016-12-11T10:36:10.404Z</time>
      </trkpt>
      <trkpt lat="48.00584" lon="2.78351">
        <ele>106</ele>
        <time>2016-12-11T10:36:11.414Z</time>
      </trkpt>
      <trkpt lat="48.00584" lon="2.78351">
        <ele>106</ele>
        <time>2016-12-11T10:36:12.403Z</time>
      </trkpt>
      <trkpt lat="48.00584" lon="2.78345">
        <ele>106</ele>
        <time>2016-12-11T10:36:13.410Z</time>
      </trkpt>
      <trkpt lat="48.00583" lon="2.78343">
        <ele>105</ele>
        <time>2016-12-11T10:36:14.408Z</time>
      </trkpt>
      <trkpt lat="48.00581" lon="2.78343">
        <ele>105</ele>
        <time>2016-12-11T10:36:15.396Z</time>
      </trkpt>
      <trkpt lat="48.00581" lon="2.78343">
        <ele>105</ele>
        <time>2016-12-11T10:36:16.420Z</time>
      </trkpt>
      <trkpt lat="48.00578" lon="2.78344">
        <ele>105</ele>
        <time>2016-12-11T10:36:17.417Z</time>
      </trkpt>
      <trkpt lat="48.00577" lon="2.78345">
        <ele>105</ele>
        <time>2016-12-11T10:36:18.430Z</time>
      </trkpt>
      <trkpt lat="48.00577" lon="2.78345">
        <ele>105</ele>
        <time>2016-12-11T10:36:19.416Z</time>
      </trkpt>
      <trkpt lat="48.00576" lon="2.78348">
        <ele>105</ele>
        <time>2016-12-11T10:36:20.423Z</time>
      </trkpt>
      <trkpt lat="48.00576" lon="2.7835">
        <ele>105</ele>
        <time>2016-12-11T10:36:21.410Z</time>
      </trkpt>
      <trkpt lat="48.00576" lon="2.7835">
        <ele>105</ele>
        <time>2016-12-11T10:36:22.426Z</time>
      </trkpt>
      <trkpt lat="48.00576" lon="2.78352">
        <ele>105</ele>
        <time>2016-12-11T10:36:23.417Z</time>
      </trkpt>
      <trkpt lat="48.00575" lon="2.78353">
        <ele>105</ele>
        <time>2016-12-11T10:36:24.411Z</time>
      </trkpt>
      <trkpt lat="48.00575" lon="2.78353">
        <ele>105</ele>
        <time>2016-12-11T10:36:25.396Z</time>
      </trkpt>
      <trkpt lat="48.00572" lon="2.78356">
        <ele>105</ele>
        <time>2016-12-11T10:36:26.424Z</time>
      </trkpt>
      <trkpt lat="48.00572" lon="2.78358">
        <ele>105</ele>
        <time>2016-12-11T10:36:27.413Z</time>
      </trkpt>
      <trkpt lat="48.00572" lon="2.78358">
        <ele>105</ele>
        <time>2016-12-11T10:36:28.401Z</time>
      </trkpt>
      <trkpt lat="48.00573" lon="2.78359">
        <ele>105</ele>
        <time>2016-12-11T10:36:29.430Z</time>
      </trkpt>
      <trkpt lat="48.00573" lon="2.78359">
        <ele>105</ele>
        <time>2016-12-11T10:36:30.413Z</time>
      </trkpt>
      <trkpt lat="48.00573" lon="2.78361">
        <ele>105</ele>
        <time>2016-12-11T10:36:31.419Z</time>
      </trkpt>
      <trkpt lat="48.00573" lon="2.78362">
        <ele>105</ele>
        <time>2016-12-11T10:36:32.409Z</time>
      </trkpt>
      <trkpt lat="48.00573" lon="2.78363">
        <ele>105</ele>
        <time>2016-12-11T10:36:33.420Z</time>
      </trkpt>
      <trkpt lat="48.00576" lon="2.78368">
        <ele>105</ele>
        <time>2016-12-11T10:36:34.404Z</time>
      </trkpt>
      <trkpt lat="48.00576" lon="2.78368">
        <ele>105</ele>
        <time>2016-12-11T10:36:35.402Z</time>
      </trkpt>
      <trkpt lat="48.00576" lon="2.78368">
        <ele>105</ele>
        <time>2016-12-11T10:36:36.435Z</time>
      </trkpt>
      <trkpt lat="48.00576" lon="2.78368">
        <ele>105</ele>
        <time>2016-12-11T10:36:37.432Z</time>
      </trkpt>
      <trkpt lat="48.00577" lon="2.7837">
        <ele>105</ele>
        <time>2016-12-11T10:36:38.401Z</time>
      </trkpt>
      <trkpt lat="48.00577" lon="2.7837">
        <ele>105</ele>
        <time>2016-12-11T10:36:39.412Z</time>
      </trkpt>
      <trkpt lat="48.00579" lon="2.78375">
        <ele>105</ele>
        <time>2016-12-11T10:36:40.418Z</time>
      </trkpt>
      <trkpt lat="48.00579" lon="2.78375">
        <ele>105</ele>
        <time>2016-12-11T10:36:41.404Z</time>
      </trkpt>
      <trkpt lat="48.0058" lon="2.78378">
        <ele>105</ele>
        <time>2016-12-11T10:36:42.401Z</time>
      </trkpt>
      <trkpt lat="48.0058" lon="2.78378">
        <ele>105</ele>
        <time>2016-12-11T10:36:43.411Z</time>
      </trkpt>
      <trkpt lat="48.00578" lon="2.78382">
        <ele>105</ele>
        <time>2016-12-11T10:36:44.422Z</time>
      </trkpt>
      <trkpt lat="48.00578" lon="2.78382">
        <ele>105</ele>
        <time>2016-12-11T10:36:45.400Z</time>
      </trkpt>
      <trkpt lat="48.00575" lon="2.78385">
        <ele>105</ele>
        <time>2016-12-11T10:36:46.409Z</time>
      </trkpt>
      <trkpt lat="48.00575" lon="2.78385">
        <ele>105</ele>
        <time>2016-12-11T10:36:47.400Z</time>
      </trkpt>
      <trkpt lat="48.00572" lon="2.78391">
        <ele>105</ele>
        <time>2016-12-11T10:36:48.406Z</time>
      </trkpt>
      <trkpt lat="48.00571" lon="2.78392">
        <ele>105</ele>
        <time>2016-12-11T10:36:49.415Z</time>
      </trkpt>
      <trkpt lat="48.00571" lon="2.78392">
        <ele>105</ele>
        <time>2016-12-11T10:36:50.421Z</time>
      </trkpt>
      <trkpt lat="48.00566" lon="2.78394">
        <ele>106</ele>
        <time>2016-12-11T10:36:51.431Z</time>
      </trkpt>
      <trkpt lat="48.00563" lon="2.78394">
        <ele>106</ele>
        <time>2016-12-11T10:36:52.410Z</time>
      </trkpt>
      <trkpt lat="48.00563" lon="2.78394">
        <ele>106</ele>
        <time>2016-12-11T10:36:53.400Z</time>
      </trkpt>
      <trkpt lat="48.00559" lon="2.78396">
        <ele>106</ele>
        <time>2016-12-11T10:36:54.406Z</time>
      </trkpt>
      <trkpt lat="48.00556" lon="2.78397">
        <ele>106</ele>
        <time>2016-12-11T10:36:55.411Z</time>
      </trkpt>
      <trkpt lat="48.00556" lon="2.78397">
        <ele>106</ele>
        <time>2016-12-11T10:36:56.400Z</time>
      </trkpt>
      <trkpt lat="48.00553" lon="2.78397">
        <ele>106</ele>
        <time>2016-12-11T10:36:57.431Z</time>
      </trkpt>
      <trkpt lat="48.0055" lon="2.78397">
        <ele>106</ele>
        <time>2016-12-11T10:36:58.416Z</time>
      </trkpt>
      <trkpt lat="48.0055" lon="2.78397">
        <ele>106</ele>
        <time>2016-12-11T10:36:59.403Z</time>
      </trkpt>
      <trkpt lat="48.00545" lon="2.78397">
        <ele>106</ele>
        <time>2016-12-11T10:37:00.409Z</time>
      </trkpt>
      <trkpt lat="48.00543" lon="2.78396">
        <ele>106</ele>
        <time>2016-12-11T10:37:01.396Z</time>
      </trkpt>
      <trkpt lat="48.00543" lon="2.78396">
        <ele>106</ele>
        <time>2016-12-11T10:37:02.424Z</time>
      </trkpt>
      <trkpt lat="48.0054" lon="2.78391">
        <ele>106</ele>
        <time>2016-12-11T10:37:03.432Z</time>
      </trkpt>
      <trkpt lat="48.00539" lon="2.78389">
        <ele>106</ele>
        <time>2016-12-11T10:37:04.429Z</time>
      </trkpt>
      <trkpt lat="48.00539" lon="2.78389">
        <ele>106</ele>
        <time>2016-12-11T10:37:05.415Z</time>
      </trkpt>
      <trkpt lat="48.00535" lon="2.78384">
        <ele>106</ele>
        <time>2016-12-11T10:37:06.424Z</time>
      </trkpt>
      <trkpt lat="48.00535" lon="2.78384">
        <ele>106</ele>
        <time>2016-12-11T10:37:07.424Z</time>
      </trkpt>
      <trkpt lat="48.00531" lon="2.78377">
        <ele>106</ele>
        <time>2016-12-11T10:37:08.430Z</time>
      </trkpt>
      <trkpt lat="48.00529" lon="2.78374">
        <ele>105</ele>
        <time>2016-12-11T10:37:09.426Z</time>
      </trkpt>
      <trkpt lat="48.00529" lon="2.78374">
        <ele>105</ele>
        <time>2016-12-11T10:37:10.433Z</time>
      </trkpt>
      <trkpt lat="48.00526" lon="2.78367">
        <ele>105</ele>
        <time>2016-12-11T10:37:11.399Z</time>
      </trkpt>
      <trkpt lat="48.00523" lon="2.78364">
        <ele>105</ele>
        <time>2016-12-11T10:37:12.406Z</time>
      </trkpt>
      <trkpt lat="48.00523" lon="2.78364">
        <ele>105</ele>
        <time>2016-12-11T10:37:13.432Z</time>
      </trkpt>
      <trkpt lat="48.00518" lon="2.78361">
        <ele>105</ele>
        <time>2016-12-11T10:37:14.400Z</time>
      </trkpt>
      <trkpt lat="48.00518" lon="2.78361">
        <ele>105</ele>
        <time>2016-12-11T10:37:15.428Z</time>
      </trkpt>
      <trkpt lat="48.00512" lon="2.78359">
        <ele>104</ele>
        <time>2016-12-11T10:37:16.400Z</time>
      </trkpt>
      <trkpt lat="48.00512" lon="2.78359">
        <ele>104</ele>
        <time>2016-12-11T10:37:17.418Z</time>
      </trkpt>
      <trkpt lat="48.00506" lon="2.78358">
        <ele>104</ele>
        <time>2016-12-11T10:37:18.415Z</time>
      </trkpt>
      <trkpt lat="48.00504" lon="2.78359">
        <ele>104</ele>
        <time>2016-12-11T10:37:19.401Z</time>
      </trkpt>
      <trkpt lat="48.00504" lon="2.78359">
        <ele>104</ele>
        <time>2016-12-11T10:37:20.429Z</time>
      </trkpt>
      <trkpt lat="48.00499" lon="2.78365">
        <ele>104</ele>
        <time>2016-12-11T10:37:21.400Z</time>
      </trkpt>
      <trkpt lat="48.00498" lon="2.78368">
        <ele>103</ele>
        <time>2016-12-11T10:37:22.424Z</time>
      </trkpt>
      <trkpt lat="48.00498" lon="2.78368">
        <ele>103</ele>
        <time>2016-12-11T10:37:23.414Z</time>
      </trkpt>
      <trkpt lat="48.00499" lon="2.78371">
        <ele>103</ele>
        <time>2016-12-11T10:37:24.412Z</time>
      </trkpt>
      <trkpt lat="48.00499" lon="2.78371">
        <ele>103</ele>
        <time>2016-12-11T10:37:25.434Z</time>
      </trkpt>
      <trkpt lat="48.00501" lon="2.78368">
        <ele>103</ele>
        <time>2016-12-11T10:37:26.410Z</time>
      </trkpt>
      <trkpt lat="48.00501" lon="2.78368">
        <ele>103</ele>
        <time>2016-12-11T10:37:27.403Z</time>
      </trkpt>
      <trkpt lat="48.00503" lon="2.78365">
        <ele>103</ele>
        <time>2016-12-11T10:37:28.409Z</time>
      </trkpt>
      <trkpt lat="48.00503" lon="2.78365">
        <ele>103</ele>
        <time>2016-12-11T10:37:29.397Z</time>
      </trkpt>
      <trkpt lat="48.00505" lon="2.78363">
        <ele>103</ele>
        <time>2016-12-11T10:37:30.416Z</time>
      </trkpt>
      <trkpt lat="48.00505" lon="2.78363">
        <ele>103</ele>
        <time>2016-12-11T10:37:31.421Z</time>
      </trkpt>
      <trkpt lat="48.00506" lon="2.78363">
        <ele>103</ele>
        <time>2016-12-11T10:37:32.428Z</time>
      </trkpt>
      <trkpt lat="48.00514" lon="2.78368">
        <ele>105</ele>
        <time>2016-12-11T10:37:33.432Z</time>
      </trkpt>
      <trkpt lat="48.00513" lon="2.78371">
        <ele>105</ele>
        <time>2016-12-11T10:37:34.433Z</time>
      </trkpt>
      <trkpt lat="48.00513" lon="2.78371">
        <ele>105</ele>
        <time>2016-12-11T10:37:35.428Z</time>
      </trkpt>
      <trkpt lat="48.00512" lon="2.78376">
        <ele>106</ele>
        <time>2016-12-11T10:37:36.407Z</time>
      </trkpt>
      <trkpt lat="48.00512" lon="2.78376">
        <ele>106</ele>
        <time>2016-12-11T10:37:37.423Z</time>
      </trkpt>
      <trkpt lat="48.00513" lon="2.78379">
        <ele>106</ele>
        <time>2016-12-11T10:37:38.430Z</time>
      </trkpt>
      <trkpt lat="48.00513" lon="2.78379">
        <ele>106</ele>
        <time>2016-12-11T10:37:39.406Z</time>
      </trkpt>
      <trkpt lat="48.00515" lon="2.7838">
        <ele>106</ele>
        <time>2016-12-11T10:37:40.405Z</time>
      </trkpt>
      <trkpt lat="48.00515" lon="2.7838">
        <ele>106</ele>
        <time>2016-12-11T10:37:41.427Z</time>
      </trkpt>
      <trkpt lat="48.00516" lon="2.7838">
        <ele>106</ele>
        <time>2016-12-11T10:37:42.432Z</time>
      </trkpt>
      <trkpt lat="48.00516" lon="2.7838">
        <ele>107</ele>
        <time>2016-12-11T10:37:43.397Z</time>
      </trkpt>
      <trkpt lat="48.00516" lon="2.7838">
        <ele>107</ele>
        <time>2016-12-11T10:37:44.431Z</time>
      </trkpt>
      <trkpt lat="48.00517" lon="2.78384">
        <ele>107</ele>
        <time>2016-12-11T10:37:45.438Z</time>
      </trkpt>
      <trkpt lat="48.00517" lon="2.78384">
        <ele>107</ele>
        <time>2016-12-11T10:37:46.436Z</time>
      </trkpt>
      <trkpt lat="48.00519" lon="2.78389">
        <ele>107</ele>
        <time>2016-12-11T10:37:47.404Z</time>
      </trkpt>
      <trkpt lat="48.0052" lon="2.78391">
        <ele>107</ele>
        <time>2016-12-11T10:37:48.410Z</time>
      </trkpt>
      <trkpt lat="48.0052" lon="2.78393">
        <ele>107</ele>
        <time>2016-12-11T10:37:49.396Z</time>
      </trkpt>
      <trkpt lat="48.0052" lon="2.78393">
        <ele>107</ele>
        <time>2016-12-11T10:37:50.427Z</time>
      </trkpt>
      <trkpt lat="48.0052" lon="2.78398">
        <ele>107</ele>
        <time>2016-12-11T10:37:51.432Z</time>
      </trkpt>
      <trkpt lat="48.00521" lon="2.784">
        <ele>107</ele>
        <time>2016-12-11T10:37:52.420Z</time>
      </trkpt>
      <trkpt lat="48.00521" lon="2.784">
        <ele>107</ele>
        <time>2016-12-11T10:37:53.435Z</time>
      </trkpt>
      <trkpt lat="48.00522" lon="2.78401">
        <ele>107</ele>
        <time>2016-12-11T10:37:54.417Z</time>
      </trkpt>
      <trkpt lat="48.00522" lon="2.78401">
        <ele>107</ele>
        <time>2016-12-11T10:37:55.427Z</time>
      </trkpt>
      <trkpt lat="48.00525" lon="2.78402">
        <ele>108</ele>
        <time>2016-12-11T10:37:56.433Z</time>
      </trkpt>
      <trkpt lat="48.00525" lon="2.78402">
        <ele>108</ele>
        <time>2016-12-11T10:37:57.416Z</time>
      </trkpt>
      <trkpt lat="48.00528" lon="2.784">
        <ele>108</ele>
        <time>2016-12-11T10:37:58.422Z</time>
      </trkpt>
      <trkpt lat="48.00528" lon="2.784">
        <ele>108</ele>
        <time>2016-12-11T10:37:59.410Z</time>
      </trkpt>
      <trkpt lat="48.00532" lon="2.78398">
        <ele>108</ele>
        <time>2016-12-11T10:38:00.437Z</time>
      </trkpt>
      <trkpt lat="48.00532" lon="2.78398">
        <ele>108</ele>
        <time>2016-12-11T10:38:01.396Z</time>
      </trkpt>
      <trkpt lat="48.00536" lon="2.784">
        <ele>107</ele>
        <time>2016-12-11T10:38:02.411Z</time>
      </trkpt>
      <trkpt lat="48.00536" lon="2.784">
        <ele>107</ele>
        <time>2016-12-11T10:38:03.399Z</time>
      </trkpt>
      <trkpt lat="48.00536" lon="2.78404">
        <ele>107</ele>
        <time>2016-12-11T10:38:04.438Z</time>
      </trkpt>
      <trkpt lat="48.00536" lon="2.78404">
        <ele>107</ele>
        <time>2016-12-11T10:38:05.436Z</time>
      </trkpt>
      <trkpt lat="48.00536" lon="2.78408">
        <ele>107</ele>
        <time>2016-12-11T10:38:06.409Z</time>
      </trkpt>
      <trkpt lat="48.00535" lon="2.78409">
        <ele>107</ele>
        <time>2016-12-11T10:38:07.429Z</time>
      </trkpt>
      <trkpt lat="48.00535" lon="2.78409">
        <ele>107</ele>
        <time>2016-12-11T10:38:08.411Z</time>
      </trkpt>
      <trkpt lat="48.00535" lon="2.78413">
        <ele>107</ele>
        <time>2016-12-11T10:38:09.417Z</time>
      </trkpt>
      <trkpt lat="48.00534" lon="2.78415">
        <ele>107</ele>
        <time>2016-12-11T10:38:10.436Z</time>
      </trkpt>
      <trkpt lat="48.00534" lon="2.78415">
        <ele>107</ele>
        <time>2016-12-11T10:38:11.423Z</time>
      </trkpt>
      <trkpt lat="48.00531" lon="2.78416">
        <ele>107</ele>
        <time>2016-12-11T10:38:12.429Z</time>
      </trkpt>
      <trkpt lat="48.00531" lon="2.78416">
        <ele>107</ele>
        <time>2016-12-11T10:38:13.416Z</time>
      </trkpt>
      <trkpt lat="48.00528" lon="2.78415">
        <ele>107</ele>
        <time>2016-12-11T10:38:14.404Z</time>
      </trkpt>
      <trkpt lat="48.00528" lon="2.78415">
        <ele>107</ele>
        <time>2016-12-11T10:38:15.407Z</time>
      </trkpt>
      <trkpt lat="48.00525" lon="2.78416">
        <ele>107</ele>
        <time>2016-12-11T10:38:16.414Z</time>
      </trkpt>
      <trkpt lat="48.00525" lon="2.78416">
        <ele>107</ele>
        <time>2016-12-11T10:38:17.415Z</time>
      </trkpt>
      <trkpt lat="48.00521" lon="2.78419">
        <ele>107</ele>
        <time>2016-12-11T10:38:18.410Z</time>
      </trkpt>
      <trkpt lat="48.00519" lon="2.7842">
        <ele>107</ele>
        <time>2016-12-11T10:38:19.405Z</time>
      </trkpt>
      <trkpt lat="48.00519" lon="2.7842">
        <ele>107</ele>
        <time>2016-12-11T10:38:20.408Z</time>
      </trkpt>
      <trkpt lat="48.00516" lon="2.78418">
        <ele>107</ele>
        <time>2016-12-11T10:38:21.414Z</time>
      </trkpt>
      <trkpt lat="48.00514" lon="2.78418">
        <ele>107</ele>
        <time>2016-12-11T10:38:22.401Z</time>
      </trkpt>
      <trkpt lat="48.00514" lon="2.78418">
        <ele>107</ele>
        <time>2016-12-11T10:38:23.404Z</time>
      </trkpt>
      <trkpt lat="48.00511" lon="2.78421">
        <ele>107</ele>
        <time>2016-12-11T10:38:24.412Z</time>
      </trkpt>
      <trkpt lat="48.00511" lon="2.78421">
        <ele>107</ele>
        <time>2016-12-11T10:38:25.405Z</time>
      </trkpt>
      <trkpt lat="48.00508" lon="2.78422">
        <ele>107</ele>
        <time>2016-12-11T10:38:26.438Z</time>
      </trkpt>
      <trkpt lat="48.00508" lon="2.78422">
        <ele>107</ele>
        <time>2016-12-11T10:38:27.397Z</time>
      </trkpt>
      <trkpt lat="48.00504" lon="2.7842">
        <ele>107</ele>
        <time>2016-12-11T10:38:28.408Z</time>
      </trkpt>
      <trkpt lat="48.00504" lon="2.7842">
        <ele>107</ele>
        <time>2016-12-11T10:38:29.435Z</time>
      </trkpt>
      <trkpt lat="48.00501" lon="2.78416">
        <ele>107</ele>
        <time>2016-12-11T10:38:30.435Z</time>
      </trkpt>
      <trkpt lat="48.00501" lon="2.78416">
        <ele>107</ele>
        <time>2016-12-11T10:38:31.416Z</time>
      </trkpt>
      <trkpt lat="48.005" lon="2.78411">
        <ele>107</ele>
        <time>2016-12-11T10:38:32.422Z</time>
      </trkpt>
      <trkpt lat="48.005" lon="2.78411">
        <ele>107</ele>
        <time>2016-12-11T10:38:33.408Z</time>
      </trkpt>
      <trkpt lat="48.00499" lon="2.78404">
        <ele>106</ele>
        <time>2016-12-11T10:38:34.438Z</time>
      </trkpt>
      <trkpt lat="48.00499" lon="2.78404">
        <ele>106</ele>
        <time>2016-12-11T10:38:35.396Z</time>
      </trkpt>
      <trkpt lat="48.00498" lon="2.784">
        <ele>106</ele>
        <time>2016-12-11T10:38:36.403Z</time>
      </trkpt>
      <trkpt lat="48.00497" lon="2.78397">
        <ele>106</ele>
        <time>2016-12-11T10:38:37.396Z</time>
      </trkpt>
      <trkpt lat="48.00497" lon="2.78397">
        <ele>106</ele>
        <time>2016-12-11T10:38:38.396Z</time>
      </trkpt>
      <trkpt lat="48.00494" lon="2.78393">
        <ele>105</ele>
        <time>2016-12-11T10:38:39.406Z</time>
      </trkpt>
      <trkpt lat="48.00492" lon="2.78392">
        <ele>105</ele>
        <time>2016-12-11T10:38:40.403Z</time>
      </trkpt>
      <trkpt lat="48.0049" lon="2.78394">
        <ele>105</ele>
        <time>2016-12-11T10:38:41.426Z</time>
      </trkpt>
      <trkpt lat="48.0049" lon="2.78394">
        <ele>105</ele>
        <time>2016-12-11T10:38:42.416Z</time>
      </trkpt>
      <trkpt lat="48.00488" lon="2.78399">
        <ele>105</ele>
        <time>2016-12-11T10:38:43.438Z</time>
      </trkpt>
      <trkpt lat="48.00488" lon="2.78401">
        <ele>105</ele>
        <time>2016-12-11T10:38:44.424Z</time>
      </trkpt>
      <trkpt lat="48.00488" lon="2.78401">
        <ele>105</ele>
        <time>2016-12-11T10:38:45.408Z</time>
      </trkpt>
      <trkpt lat="48.00487" lon="2.78406">
        <ele>105</ele>
        <time>2016-12-11T10:38:46.415Z</time>
      </trkpt>
      <trkpt lat="48.00487" lon="2.78406">
        <ele>105</ele>
        <time>2016-12-11T10:38:47.417Z</time>
      </trkpt>
      <trkpt lat="48.00486" lon="2.78412">
        <ele>106</ele>
        <time>2016-12-11T10:38:48.423Z</time>
      </trkpt>
      <trkpt lat="48.00486" lon="2.78412">
        <ele>106</ele>
        <time>2016-12-11T10:38:49.399Z</time>
      </trkpt>
      <trkpt lat="48.00487" lon="2.78419">
        <ele>107</ele>
        <time>2016-12-11T10:38:50.435Z</time>
      </trkpt>
      <trkpt lat="48.00486" lon="2.78422">
        <ele>107</ele>
        <time>2016-12-11T10:38:51.426Z</time>
      </trkpt>
      <trkpt lat="48.00486" lon="2.78425">
        <ele>107</ele>
        <time>2016-12-11T10:38:52.419Z</time>
      </trkpt>
      <trkpt lat="48.00486" lon="2.78425">
        <ele>107</ele>
        <time>2016-12-11T10:38:53.408Z</time>
      </trkpt>
      <trkpt lat="48.00483" lon="2.78431">
        <ele>107</ele>
        <time>2016-12-11T10:38:54.414Z</time>
      </trkpt>
      <trkpt lat="48.00482" lon="2.78434">
        <ele>107</ele>
        <time>2016-12-11T10:38:55.410Z</time>
      </trkpt>
      <trkpt lat="48.00482" lon="2.78434">
        <ele>107</ele>
        <time>2016-12-11T10:38:56.428Z</time>
      </trkpt>
      <trkpt lat="48.00478" lon="2.78439">
        <ele>107</ele>
        <time>2016-12-11T10:38:57.435Z</time>
      </trkpt>
      <trkpt lat="48.00478" lon="2.78441">
        <ele>107</ele>
        <time>2016-12-11T10:38:58.421Z</time>
      </trkpt>
      <trkpt lat="48.00478" lon="2.78441">
        <ele>107</ele>
        <time>2016-12-11T10:38:59.425Z</time>
      </trkpt>
      <trkpt lat="48.00478" lon="2.78447">
        <ele>108</ele>
        <time>2016-12-11T10:39:00.431Z</time>
      </trkpt>
      <trkpt lat="48.00479" lon="2.78451">
        <ele>108</ele>
        <time>2016-12-11T10:39:01.416Z</time>
      </trkpt>
      <trkpt lat="48.00479" lon="2.78451">
        <ele>108</ele>
        <time>2016-12-11T10:39:02.409Z</time>
      </trkpt>
      <trkpt lat="48.00479" lon="2.78457">
        <ele>108</ele>
        <time>2016-12-11T10:39:03.417Z</time>
      </trkpt>
      <trkpt lat="48.0048" lon="2.7846">
        <ele>109</ele>
        <time>2016-12-11T10:39:04.438Z</time>
      </trkpt>
      <trkpt lat="48.0048" lon="2.7846">
        <ele>109</ele>
        <time>2016-12-11T10:39:05.416Z</time>
      </trkpt>
      <trkpt lat="48.00481" lon="2.78466">
        <ele>109</ele>
        <time>2016-12-11T10:39:06.422Z</time>
      </trkpt>
      <trkpt lat="48.00481" lon="2.78469">
        <ele>109</ele>
        <time>2016-12-11T10:39:07.411Z</time>
      </trkpt>
      <trkpt lat="48.00481" lon="2.78469">
        <ele>109</ele>
        <time>2016-12-11T10:39:08.400Z</time>
      </trkpt>
      <trkpt lat="48.00482" lon="2.78477">
        <ele>110</ele>
        <time>2016-12-11T10:39:09.424Z</time>
      </trkpt>
      <trkpt lat="48.00482" lon="2.78477">
        <ele>110</ele>
        <time>2016-12-11T10:39:10.405Z</time>
      </trkpt>
      <trkpt lat="48.00483" lon="2.78485">
        <ele>110</ele>
        <time>2016-12-11T10:39:11.426Z</time>
      </trkpt>
      <trkpt lat="48.00483" lon="2.78485">
        <ele>110</ele>
        <time>2016-12-11T10:39:12.417Z</time>
      </trkpt>
      <trkpt lat="48.00486" lon="2.78492">
        <ele>111</ele>
        <time>2016-12-11T10:39:13.438Z</time>
      </trkpt>
      <trkpt lat="48.00486" lon="2.78492">
        <ele>111</ele>
        <time>2016-12-11T10:39:14.406Z</time>
      </trkpt>
      <trkpt lat="48.00489" lon="2.78498">
        <ele>111</ele>
        <time>2016-12-11T10:39:15.412Z</time>
      </trkpt>
      <trkpt lat="48.00491" lon="2.78501">
        <ele>111</ele>
        <time>2016-12-11T10:39:16.432Z</time>
      </trkpt>
      <trkpt lat="48.00491" lon="2.78501">
        <ele>111</ele>
        <time>2016-12-11T10:39:17.405Z</time>
      </trkpt>
      <trkpt lat="48.00495" lon="2.78505">
        <ele>111</ele>
        <time>2016-12-11T10:39:18.411Z</time>
      </trkpt>
      <trkpt lat="48.00496" lon="2.78506">
        <ele>112</ele>
        <time>2016-12-11T10:39:19.431Z</time>
      </trkpt>
      <trkpt lat="48.00496" lon="2.78506">
        <ele>112</ele>
        <time>2016-12-11T10:39:20.411Z</time>
      </trkpt>
      <trkpt lat="48.00498" lon="2.78507">
        <ele>112</ele>
        <time>2016-12-11T10:39:21.421Z</time>
      </trkpt>
      <trkpt lat="48.00498" lon="2.78507">
        <ele>112</ele>
        <time>2016-12-11T10:39:22.418Z</time>
      </trkpt>
      <trkpt lat="48.00498" lon="2.78508">
        <ele>112</ele>
        <time>2016-12-11T10:39:23.424Z</time>
      </trkpt>
      <trkpt lat="48.00498" lon="2.78508">
        <ele>112</ele>
        <time>2016-12-11T10:39:24.411Z</time>
      </trkpt>
      <trkpt lat="48.00497" lon="2.78522">
        <ele>113</ele>
        <time>2016-12-11T10:39:25.414Z</time>
      </trkpt>
      <trkpt lat="48.00497" lon="2.78522">
        <ele>113</ele>
        <time>2016-12-11T10:39:26.412Z</time>
      </trkpt>
      <trkpt lat="48.00495" lon="2.78525">
        <ele>112</ele>
        <time>2016-12-11T10:39:27.434Z</time>
      </trkpt>
      <trkpt lat="48.00495" lon="2.78525">
        <ele>112</ele>
        <time>2016-12-11T10:39:28.412Z</time>
      </trkpt>
      <trkpt lat="48.00494" lon="2.78529">
        <ele>112</ele>
        <time>2016-12-11T10:39:29.418Z</time>
      </trkpt>
      <trkpt lat="48.00493" lon="2.78532">
        <ele>112</ele>
        <time>2016-12-11T10:39:30.407Z</time>
      </trkpt>
      <trkpt lat="48.00493" lon="2.78532">
        <ele>112</ele>
        <time>2016-12-11T10:39:31.428Z</time>
      </trkpt>
      <trkpt lat="48.00494" lon="2.78538">
        <ele>112</ele>
        <time>2016-12-11T10:39:32.398Z</time>
      </trkpt>
      <trkpt lat="48.00494" lon="2.78538">
        <ele>112</ele>
        <time>2016-12-11T10:39:33.427Z</time>
      </trkpt>
      <trkpt lat="48.00495" lon="2.78542">
        <ele>112</ele>
        <time>2016-12-11T10:39:34.432Z</time>
      </trkpt>
      <trkpt lat="48.00495" lon="2.78542">
        <ele>112</ele>
        <time>2016-12-11T10:39:35.416Z</time>
      </trkpt>
      <trkpt lat="48.00496" lon="2.78546">
        <ele>112</ele>
        <time>2016-12-11T10:39:36.422Z</time>
      </trkpt>
      <trkpt lat="48.00496" lon="2.78546">
        <ele>112</ele>
        <time>2016-12-11T10:39:37.411Z</time>
      </trkpt>
      <trkpt lat="48.00496" lon="2.78551">
        <ele>112</ele>
        <time>2016-12-11T10:39:38.423Z</time>
      </trkpt>
      <trkpt lat="48.00496" lon="2.78551">
        <ele>112</ele>
        <time>2016-12-11T10:39:39.422Z</time>
      </trkpt>
      <trkpt lat="48.00498" lon="2.78556">
        <ele>112</ele>
        <time>2016-12-11T10:39:40.429Z</time>
      </trkpt>
      <trkpt lat="48.00498" lon="2.78556">
        <ele>112</ele>
        <time>2016-12-11T10:39:41.415Z</time>
      </trkpt>
      <trkpt lat="48.00498" lon="2.78561">
        <ele>111</ele>
        <time>2016-12-11T10:39:42.432Z</time>
      </trkpt>
      <trkpt lat="48.00498" lon="2.78561">
        <ele>111</ele>
        <time>2016-12-11T10:39:43.410Z</time>
      </trkpt>
      <trkpt lat="48.00496" lon="2.78562">
        <ele>112</ele>
        <time>2016-12-11T10:39:44.416Z</time>
      </trkpt>
      <trkpt lat="48.00496" lon="2.78562">
        <ele>112</ele>
        <time>2016-12-11T10:39:45.412Z</time>
      </trkpt>
      <trkpt lat="48.00493" lon="2.78565">
        <ele>112</ele>
        <time>2016-12-11T10:39:46.430Z</time>
      </trkpt>
      <trkpt lat="48.00493" lon="2.78565">
        <ele>112</ele>
        <time>2016-12-11T10:39:47.397Z</time>
      </trkpt>
      <trkpt lat="48.00491" lon="2.78562">
        <ele>112</ele>
        <time>2016-12-11T10:39:48.424Z</time>
      </trkpt>
      <trkpt lat="48.0049" lon="2.78559">
        <ele>112</ele>
        <time>2016-12-11T10:39:49.410Z</time>
      </trkpt>
      <trkpt lat="48.0049" lon="2.78559">
        <ele>112</ele>
        <time>2016-12-11T10:39:50.424Z</time>
      </trkpt>
      <trkpt lat="48.00489" lon="2.78552">
        <ele>111</ele>
        <time>2016-12-11T10:39:51.435Z</time>
      </trkpt>
      <trkpt lat="48.00489" lon="2.78549">
        <ele>111</ele>
        <time>2016-12-11T10:39:52.421Z</time>
      </trkpt>
      <trkpt lat="48.00489" lon="2.78549">
        <ele>111</ele>
        <time>2016-12-11T10:39:53.413Z</time>
      </trkpt>
      <trkpt lat="48.00486" lon="2.78541">
        <ele>111</ele>
        <time>2016-12-11T10:39:54.419Z</time>
      </trkpt>
      <trkpt lat="48.00485" lon="2.78537">
        <ele>110</ele>
        <time>2016-12-11T10:39:55.420Z</time>
      </trkpt>
      <trkpt lat="48.00485" lon="2.78537">
        <ele>110</ele>
        <time>2016-12-11T10:39:56.413Z</time>
      </trkpt>
      <trkpt lat="48.00482" lon="2.78528">
        <ele>109</ele>
        <time>2016-12-11T10:39:57.420Z</time>
      </trkpt>
      <trkpt lat="48.00481" lon="2.78523">
        <ele>109</ele>
        <time>2016-12-11T10:39:58.416Z</time>
      </trkpt>
      <trkpt lat="48.00481" lon="2.78523">
        <ele>109</ele>
        <time>2016-12-11T10:39:59.404Z</time>
      </trkpt>
      <trkpt lat="48.0048" lon="2.78513">
        <ele>108</ele>
        <time>2016-12-11T10:40:00.410Z</time>
      </trkpt>
      <trkpt lat="48.0048" lon="2.78513">
        <ele>108</ele>
        <time>2016-12-11T10:40:01.397Z</time>
      </trkpt>
      <trkpt lat="48.00478" lon="2.78503">
        <ele>107</ele>
        <time>2016-12-11T10:40:02.407Z</time>
      </trkpt>
      <trkpt lat="48.00478" lon="2.78503">
        <ele>107</ele>
        <time>2016-12-11T10:40:03.433Z</time>
      </trkpt>
      <trkpt lat="48.00475" lon="2.78495">
        <ele>106</ele>
        <time>2016-12-11T10:40:04.434Z</time>
      </trkpt>
      <trkpt lat="48.00475" lon="2.78495">
        <ele>106</ele>
        <time>2016-12-11T10:40:05.411Z</time>
      </trkpt>
      <trkpt lat="48.00473" lon="2.78485">
        <ele>105</ele>
        <time>2016-12-11T10:40:06.418Z</time>
      </trkpt>
      <trkpt lat="48.00471" lon="2.7848">
        <ele>105</ele>
        <time>2016-12-11T10:40:07.406Z</time>
      </trkpt>
      <trkpt lat="48.00471" lon="2.7848">
        <ele>105</ele>
        <time>2016-12-11T10:40:08.433Z</time>
      </trkpt>
      <trkpt lat="48.00468" lon="2.78468">
        <ele>104</ele>
        <time>2016-12-11T10:40:09.406Z</time>
      </trkpt>
      <trkpt lat="48.00466" lon="2.78462">
        <ele>104</ele>
        <time>2016-12-11T10:40:10.420Z</time>
      </trkpt>
      <trkpt lat="48.00466" lon="2.78462">
        <ele>104</ele>
        <time>2016-12-11T10:40:11.406Z</time>
      </trkpt>
      <trkpt lat="48.00463" lon="2.78449">
        <ele>103</ele>
        <time>2016-12-11T10:40:12.434Z</time>
      </trkpt>
      <trkpt lat="48.00463" lon="2.78449">
        <ele>103</ele>
        <time>2016-12-11T10:40:13.432Z</time>
      </trkpt>
      <trkpt lat="48.0046" lon="2.78436">
        <ele>103</ele>
        <time>2016-12-11T10:40:14.414Z</time>
      </trkpt>
      <trkpt lat="48.0046" lon="2.78436">
        <ele>103</ele>
        <time>2016-12-11T10:40:15.406Z</time>
      </trkpt>
      <trkpt lat="48.00458" lon="2.78423">
        <ele>102</ele>
        <time>2016-12-11T10:40:16.434Z</time>
      </trkpt>
      <trkpt lat="48.00458" lon="2.78423">
        <ele>102</ele>
        <time>2016-12-11T10:40:17.405Z</time>
      </trkpt>
      <trkpt lat="48.00456" lon="2.78412">
        <ele>102</ele>
        <time>2016-12-11T10:40:18.410Z</time>
      </trkpt>
      <trkpt lat="48.00456" lon="2.78412">
        <ele>102</ele>
        <time>2016-12-11T10:40:19.396Z</time>
      </trkpt>
      <trkpt lat="48.00453" lon="2.784">
        <ele>102</ele>
        <time>2016-12-11T10:40:20.403Z</time>
      </trkpt>
      <trkpt lat="48.00452" lon="2.78394">
        <ele>102</ele>
        <time>2016-12-11T10:40:21.399Z</time>
      </trkpt>
      <trkpt lat="48.00452" lon="2.78394">
        <ele>102</ele>
        <time>2016-12-11T10:40:22.411Z</time>
      </trkpt>
      <trkpt lat="48.00449" lon="2.78381">
        <ele>101</ele>
        <time>2016-12-11T10:40:23.417Z</time>
      </trkpt>
      <trkpt lat="48.00449" lon="2.78381">
        <ele>101</ele>
        <time>2016-12-11T10:40:24.433Z</time>
      </trkpt>
      <trkpt lat="48.00446" lon="2.78367">
        <ele>101</ele>
        <time>2016-12-11T10:40:25.424Z</time>
      </trkpt>
      <trkpt lat="48.00445" lon="2.78361">
        <ele>101</ele>
        <time>2016-12-11T10:40:26.408Z</time>
      </trkpt>
      <trkpt lat="48.00445" lon="2.78361">
        <ele>101</ele>
        <time>2016-12-11T10:40:27.435Z</time>
      </trkpt>
      <trkpt lat="48.00441" lon="2.78346">
        <ele>101</ele>
        <time>2016-12-11T10:40:28.399Z</time>
      </trkpt>
      <trkpt lat="48.00441" lon="2.78346">
        <ele>101</ele>
        <time>2016-12-11T10:40:29.422Z</time>
      </trkpt>
      <trkpt lat="48.00437" lon="2.7833">
        <ele>101</ele>
        <time>2016-12-11T10:40:30.428Z</time>
      </trkpt>
      <trkpt lat="48.00435" lon="2.78322">
        <ele>101</ele>
        <time>2016-12-11T10:40:31.412Z</time>
      </trkpt>
      <trkpt lat="48.00435" lon="2.78322">
        <ele>101</ele>
        <time>2016-12-11T10:40:32.418Z</time>
      </trkpt>
      <trkpt lat="48.0043" lon="2.78306">
        <ele>101</ele>
        <time>2016-12-11T10:40:33.425Z</time>
      </trkpt>
      <trkpt lat="48.00427" lon="2.78297">
        <ele>101</ele>
        <time>2016-12-11T10:40:34.409Z</time>
      </trkpt>
      <trkpt lat="48.00427" lon="2.78297">
        <ele>101</ele>
        <time>2016-12-11T10:40:35.412Z</time>
      </trkpt>
      <trkpt lat="48.00423" lon="2.78281">
        <ele>101</ele>
        <time>2016-12-11T10:40:36.418Z</time>
      </trkpt>
      <trkpt lat="48.00422" lon="2.78274">
        <ele>101</ele>
        <time>2016-12-11T10:40:37.431Z</time>
      </trkpt>
      <trkpt lat="48.00422" lon="2.78274">
        <ele>101</ele>
        <time>2016-12-11T10:40:38.406Z</time>
      </trkpt>
      <trkpt lat="48.00423" lon="2.78261">
        <ele>102</ele>
        <time>2016-12-11T10:40:39.426Z</time>
      </trkpt>
      <trkpt lat="48.00425" lon="2.78257">
        <ele>102</ele>
        <time>2016-12-11T10:40:40.411Z</time>
      </trkpt>
      <trkpt lat="48.00425" lon="2.78257">
        <ele>102</ele>
        <time>2016-12-11T10:40:41.405Z</time>
      </trkpt>
      <trkpt lat="48.00427" lon="2.78248">
        <ele>102</ele>
        <time>2016-12-11T10:40:42.411Z</time>
      </trkpt>
      <trkpt lat="48.00429" lon="2.78244">
        <ele>102</ele>
        <time>2016-12-11T10:40:43.401Z</time>
      </trkpt>
      <trkpt lat="48.00429" lon="2.78244">
        <ele>102</ele>
        <time>2016-12-11T10:40:44.406Z</time>
      </trkpt>
      <trkpt lat="48.00434" lon="2.78238">
        <ele>102</ele>
        <time>2016-12-11T10:40:45.414Z</time>
      </trkpt>
      <trkpt lat="48.00438" lon="2.78236">
        <ele>103</ele>
        <time>2016-12-11T10:40:46.410Z</time>
      </trkpt>
      <trkpt lat="48.00438" lon="2.78236">
        <ele>103</ele>
        <time>2016-12-11T10:40:47.422Z</time>
      </trkpt>
      <trkpt lat="48.00446" lon="2.78234">
        <ele>103</ele>
        <time>2016-12-11T10:40:48.428Z</time>
      </trkpt>
      <trkpt lat="48.00446" lon="2.78234">
        <ele>103</ele>
        <time>2016-12-11T10:40:49.428Z</time>
      </trkpt>
      <trkpt lat="48.00454" lon="2.78234">
        <ele>103</ele>
        <time>2016-12-11T10:40:50.431Z</time>
      </trkpt>
      <trkpt lat="48.00454" lon="2.78234">
        <ele>103</ele>
        <time>2016-12-11T10:40:51.431Z</time>
      </trkpt>
      <trkpt lat="48.00461" lon="2.78233">
        <ele>104</ele>
        <time>2016-12-11T10:40:52.398Z</time>
      </trkpt>
      <trkpt lat="48.00461" lon="2.78233">
        <ele>104</ele>
        <time>2016-12-11T10:40:53.425Z</time>
      </trkpt>
      <trkpt lat="48.00467" lon="2.78228">
        <ele>104</ele>
        <time>2016-12-11T10:40:54.423Z</time>
      </trkpt>
      <trkpt lat="48.00467" lon="2.78228">
        <ele>104</ele>
        <time>2016-12-11T10:40:55.403Z</time>
      </trkpt>
      <trkpt lat="48.00472" lon="2.78223">
        <ele>104</ele>
        <time>2016-12-11T10:40:56.408Z</time>
      </trkpt>
      <trkpt lat="48.00472" lon="2.78223">
        <ele>104</ele>
        <time>2016-12-11T10:40:57.436Z</time>
      </trkpt>
      <trkpt lat="48.00476" lon="2.78218">
        <ele>104</ele>
        <time>2016-12-11T10:40:58.434Z</time>
      </trkpt>
      <trkpt lat="48.00476" lon="2.78218">
        <ele>104</ele>
        <time>2016-12-11T10:40:59.400Z</time>
      </trkpt>
      <trkpt lat="48.00482" lon="2.78214">
        <ele>104</ele>
        <time>2016-12-11T10:41:00.410Z</time>
      </trkpt>
      <trkpt lat="48.00482" lon="2.78214">
        <ele>104</ele>
        <time>2016-12-11T10:41:01.435Z</time>
      </trkpt>
      <trkpt lat="48.00486" lon="2.7821">
        <ele>105</ele>
        <time>2016-12-11T10:41:02.436Z</time>
      </trkpt>
      <trkpt lat="48.00486" lon="2.7821">
        <ele>105</ele>
        <time>2016-12-11T10:41:03.403Z</time>
      </trkpt>
      <trkpt lat="48.00488" lon="2.78204">
        <ele>105</ele>
        <time>2016-12-11T10:41:04.410Z</time>
      </trkpt>
      <trkpt lat="48.00488" lon="2.78204">
        <ele>105</ele>
        <time>2016-12-11T10:41:05.396Z</time>
      </trkpt>
      <trkpt lat="48.00489" lon="2.78195">
        <ele>105</ele>
        <time>2016-12-11T10:41:06.396Z</time>
      </trkpt>
      <trkpt lat="48.00489" lon="2.78195">
        <ele>105</ele>
        <time>2016-12-11T10:41:07.397Z</time>
      </trkpt>
      <trkpt lat="48.00489" lon="2.78182">
        <ele>105</ele>
        <time>2016-12-11T10:41:08.406Z</time>
      </trkpt>
      <trkpt lat="48.00489" lon="2.78175">
        <ele>105</ele>
        <time>2016-12-11T10:41:09.401Z</time>
      </trkpt>
      <trkpt lat="48.00489" lon="2.78175">
        <ele>105</ele>
        <time>2016-12-11T10:41:10.407Z</time>
      </trkpt>
      <trkpt lat="48.00489" lon="2.78162">
        <ele>104</ele>
        <time>2016-12-11T10:41:11.414Z</time>
      </trkpt>
      <trkpt lat="48.00489" lon="2.78162">
        <ele>104</ele>
        <time>2016-12-11T10:41:12.412Z</time>
      </trkpt>
      <trkpt lat="48.0049" lon="2.78148">
        <ele>104</ele>
        <time>2016-12-11T10:41:13.430Z</time>
      </trkpt>
      <trkpt lat="48.0049" lon="2.78148">
        <ele>104</ele>
        <time>2016-12-11T10:41:14.405Z</time>
      </trkpt>
      <trkpt lat="48.00491" lon="2.78134">
        <ele>103</ele>
        <time>2016-12-11T10:41:15.413Z</time>
      </trkpt>
      <trkpt lat="48.00492" lon="2.78128">
        <ele>103</ele>
        <time>2016-12-11T10:41:16.413Z</time>
      </trkpt>
      <trkpt lat="48.00492" lon="2.78128">
        <ele>103</ele>
        <time>2016-12-11T10:41:17.407Z</time>
      </trkpt>
      <trkpt lat="48.00492" lon="2.78115">
        <ele>103</ele>
        <time>2016-12-11T10:41:18.423Z</time>
      </trkpt>
      <trkpt lat="48.00492" lon="2.78108">
        <ele>103</ele>
        <time>2016-12-11T10:41:19.426Z</time>
      </trkpt>
      <trkpt lat="48.00492" lon="2.78102">
        <ele>103</ele>
        <time>2016-12-11T10:41:20.430Z</time>
      </trkpt>
      <trkpt lat="48.00492" lon="2.78102">
        <ele>103</ele>
        <time>2016-12-11T10:41:21.410Z</time>
      </trkpt>
      <trkpt lat="48.0049" lon="2.7809">
        <ele>102</ele>
        <time>2016-12-11T10:41:22.426Z</time>
      </trkpt>
      <trkpt lat="48.0049" lon="2.7809">
        <ele>102</ele>
        <time>2016-12-11T10:41:23.415Z</time>
      </trkpt>
      <trkpt lat="48.00492" lon="2.78076">
        <ele>102</ele>
        <time>2016-12-11T10:41:24.399Z</time>
      </trkpt>
      <trkpt lat="48.00492" lon="2.78076">
        <ele>102</ele>
        <time>2016-12-11T10:41:25.423Z</time>
      </trkpt>
      <trkpt lat="48.00494" lon="2.78063">
        <ele>102</ele>
        <time>2016-12-11T10:41:26.407Z</time>
      </trkpt>
      <trkpt lat="48.00494" lon="2.78063">
        <ele>102</ele>
        <time>2016-12-11T10:41:27.430Z</time>
      </trkpt>
      <trkpt lat="48.00495" lon="2.78049">
        <ele>101</ele>
        <time>2016-12-11T10:41:28.431Z</time>
      </trkpt>
      <trkpt lat="48.00495" lon="2.78049">
        <ele>101</ele>
        <time>2016-12-11T10:41:29.416Z</time>
      </trkpt>
      <trkpt lat="48.00497" lon="2.78035">
        <ele>101</ele>
        <time>2016-12-11T10:41:30.431Z</time>
      </trkpt>
      <trkpt lat="48.00497" lon="2.78035">
        <ele>101</ele>
        <time>2016-12-11T10:41:31.422Z</time>
      </trkpt>
      <trkpt lat="48.00498" lon="2.78022">
        <ele>101</ele>
        <time>2016-12-11T10:41:32.397Z</time>
      </trkpt>
      <trkpt lat="48.00498" lon="2.78022">
        <ele>101</ele>
        <time>2016-12-11T10:41:33.422Z</time>
      </trkpt>
      <trkpt lat="48.00498" lon="2.78008">
        <ele>101</ele>
        <time>2016-12-11T10:41:34.433Z</time>
      </trkpt>
      <trkpt lat="48.00498" lon="2.78008">
        <ele>101</ele>
        <time>2016-12-11T10:41:35.421Z</time>
      </trkpt>
      <trkpt lat="48.00496" lon="2.77997">
        <ele>101</ele>
        <time>2016-12-11T10:41:36.397Z</time>
      </trkpt>
      <trkpt lat="48.00496" lon="2.77997">
        <ele>101</ele>
        <time>2016-12-11T10:41:37.405Z</time>
      </trkpt>
      <trkpt lat="48.00493" lon="2.77985">
        <ele>100</ele>
        <time>2016-12-11T10:41:38.415Z</time>
      </trkpt>
      <trkpt lat="48.00493" lon="2.77985">
        <ele>100</ele>
        <time>2016-12-11T10:41:39.410Z</time>
      </trkpt>
      <trkpt lat="48.00491" lon="2.77972">
        <ele>100</ele>
        <time>2016-12-11T10:41:40.427Z</time>
      </trkpt>
      <trkpt lat="48.00491" lon="2.77972">
        <ele>100</ele>
        <time>2016-12-11T10:41:41.432Z</time>
      </trkpt>
      <trkpt lat="48.00491" lon="2.77958">
        <ele>99</ele>
        <time>2016-12-11T10:41:42.410Z</time>
      </trkpt>
      <trkpt lat="48.00491" lon="2.77952">
        <ele>99</ele>
        <time>2016-12-11T10:41:43.432Z</time>
      </trkpt>
      <trkpt lat="48.00491" lon="2.77952">
        <ele>99</ele>
        <time>2016-12-11T10:41:44.416Z</time>
      </trkpt>
      <trkpt lat="48.00491" lon="2.77939">
        <ele>99</ele>
        <time>2016-12-11T10:41:45.433Z</time>
      </trkpt>
      <trkpt lat="48.00491" lon="2.77939">
        <ele>99</ele>
        <time>2016-12-11T10:41:46.426Z</time>
      </trkpt>
      <trkpt lat="48.0049" lon="2.77926">
        <ele>99</ele>
        <time>2016-12-11T10:41:47.437Z</time>
      </trkpt>
      <trkpt lat="48.0049" lon="2.77926">
        <ele>99</ele>
        <time>2016-12-11T10:41:48.412Z</time>
      </trkpt>
      <trkpt lat="48.00489" lon="2.77913">
        <ele>99</ele>
        <time>2016-12-11T10:41:49.420Z</time>
      </trkpt>
      <trkpt lat="48.00489" lon="2.77906">
        <ele>99</ele>
        <time>2016-12-11T10:41:50.408Z</time>
      </trkpt>
      <trkpt lat="48.00489" lon="2.77906">
        <ele>99</ele>
        <time>2016-12-11T10:41:51.417Z</time>
      </trkpt>
      <trkpt lat="48.00489" lon="2.77893">
        <ele>99</ele>
        <time>2016-12-11T10:41:52.430Z</time>
      </trkpt>
      <trkpt lat="48.00489" lon="2.77886">
        <ele>99</ele>
        <time>2016-12-11T10:41:53.432Z</time>
      </trkpt>
      <trkpt lat="48.00489" lon="2.77886">
        <ele>99</ele>
        <time>2016-12-11T10:41:54.411Z</time>
      </trkpt>
      <trkpt lat="48.00488" lon="2.77875">
        <ele>99</ele>
        <time>2016-12-11T10:41:55.420Z</time>
      </trkpt>
      <trkpt lat="48.00488" lon="2.77875">
        <ele>99</ele>
        <time>2016-12-11T10:41:56.424Z</time>
      </trkpt>
      <trkpt lat="48.00486" lon="2.77865">
        <ele>100</ele>
        <time>2016-12-11T10:41:57.398Z</time>
      </trkpt>
      <trkpt lat="48.00486" lon="2.77865">
        <ele>100</ele>
        <time>2016-12-11T10:41:58.417Z</time>
      </trkpt>
      <trkpt lat="48.00486" lon="2.77854">
        <ele>99</ele>
        <time>2016-12-11T10:41:59.427Z</time>
      </trkpt>
      <trkpt lat="48.00486" lon="2.77849">
        <ele>99</ele>
        <time>2016-12-11T10:42:00.418Z</time>
      </trkpt>
      <trkpt lat="48.00486" lon="2.77849">
        <ele>99</ele>
        <time>2016-12-11T10:42:01.406Z</time>
      </trkpt>
      <trkpt lat="48.00486" lon="2.77835">
        <ele>99</ele>
        <time>2016-12-11T10:42:02.416Z</time>
      </trkpt>
      <trkpt lat="48.00486" lon="2.77828">
        <ele>99</ele>
        <time>2016-12-11T10:42:03.432Z</time>
      </trkpt>
      <trkpt lat="48.00486" lon="2.77822">
        <ele>99</ele>
        <time>2016-12-11T10:42:04.419Z</time>
      </trkpt>
      <trkpt lat="48.00486" lon="2.77822">
        <ele>99</ele>
        <time>2016-12-11T10:42:05.427Z</time>
      </trkpt>
      <trkpt lat="48.00487" lon="2.77809">
        <ele>99</ele>
        <time>2016-12-11T10:42:06.401Z</time>
      </trkpt>
      <trkpt lat="48.00487" lon="2.77802">
        <ele>99</ele>
        <time>2016-12-11T10:42:07.408Z</time>
      </trkpt>
      <trkpt lat="48.00487" lon="2.77802">
        <ele>99</ele>
        <time>2016-12-11T10:42:08.405Z</time>
      </trkpt>
      <trkpt lat="48.00489" lon="2.77792">
        <ele>98</ele>
        <time>2016-12-11T10:42:09.413Z</time>
      </trkpt>
      <trkpt lat="48.00491" lon="2.7779">
        <ele>97</ele>
        <time>2016-12-11T10:42:10.434Z</time>
      </trkpt>
      <trkpt lat="48.00491" lon="2.7779">
        <ele>97</ele>
        <time>2016-12-11T10:42:11.423Z</time>
      </trkpt>
      <trkpt lat="48.00496" lon="2.77793">
        <ele>97</ele>
        <time>2016-12-11T10:42:12.431Z</time>
      </trkpt>
      <trkpt lat="48.00498" lon="2.77792">
        <ele>97</ele>
        <time>2016-12-11T10:42:13.408Z</time>
      </trkpt>
      <trkpt lat="48.00498" lon="2.77792">
        <ele>97</ele>
        <time>2016-12-11T10:42:14.434Z</time>
      </trkpt>
      <trkpt lat="48.00501" lon="2.77792">
        <ele>97</ele>
        <time>2016-12-11T10:42:15.406Z</time>
      </trkpt>
      <trkpt lat="48.00501" lon="2.77792">
        <ele>97</ele>
        <time>2016-12-11T10:42:16.407Z</time>
      </trkpt>
      <trkpt lat="48.00504" lon="2.77792">
        <ele>98</ele>
        <time>2016-12-11T10:42:17.428Z</time>
      </trkpt>
      <trkpt lat="48.00505" lon="2.77792">
        <ele>98</ele>
        <time>2016-12-11T10:42:18.408Z</time>
      </trkpt>
      <trkpt lat="48.00507" lon="2.77792">
        <ele>98</ele>
        <time>2016-12-11T10:42:19.414Z</time>
      </trkpt>
      <trkpt lat="48.00507" lon="2.77792">
        <ele>98</ele>
        <time>2016-12-11T10:42:20.406Z</time>
      </trkpt>
      <trkpt lat="48.00509" lon="2.77792">
        <ele>98</ele>
        <time>2016-12-11T10:42:21.414Z</time>
      </trkpt>
      <trkpt lat="48.00509" lon="2.77792">
        <ele>98</ele>
        <time>2016-12-11T10:42:22.407Z</time>
      </trkpt>
      <trkpt lat="48.00512" lon="2.77792">
        <ele>98</ele>
        <time>2016-12-11T10:42:23.401Z</time>
      </trkpt>
      <trkpt lat="48.00512" lon="2.77792">
        <ele>98</ele>
        <time>2016-12-11T10:42:24.418Z</time>
      </trkpt>
      <trkpt lat="48.00514" lon="2.77792">
        <ele>99</ele>
        <time>2016-12-11T10:42:25.425Z</time>
      </trkpt>
      <trkpt lat="48.00514" lon="2.77792">
        <ele>99</ele>
        <time>2016-12-11T10:42:26.410Z</time>
      </trkpt>
      <trkpt lat="48.00515" lon="2.77792">
        <ele>99</ele>
        <time>2016-12-11T10:42:27.434Z</time>
      </trkpt>
      <trkpt lat="48.00515" lon="2.77792">
        <ele>99</ele>
        <time>2016-12-11T10:42:28.410Z</time>
      </trkpt>
      <trkpt lat="48.00518" lon="2.77793">
        <ele>99</ele>
        <time>2016-12-11T10:42:29.417Z</time>
      </trkpt>
      <trkpt lat="48.00518" lon="2.77793">
        <ele>99</ele>
        <time>2016-12-11T10:42:30.408Z</time>
      </trkpt>
      <trkpt lat="48.00521" lon="2.77794">
        <ele>99</ele>
        <time>2016-12-11T10:42:31.421Z</time>
      </trkpt>
      <trkpt lat="48.00521" lon="2.77794">
        <ele>99</ele>
        <time>2016-12-11T10:42:32.406Z</time>
      </trkpt>
      <trkpt lat="48.00523" lon="2.77794">
        <ele>99</ele>
        <time>2016-12-11T10:42:33.413Z</time>
      </trkpt>
      <trkpt lat="48.00524" lon="2.77795">
        <ele>99</ele>
        <time>2016-12-11T10:42:34.411Z</time>
      </trkpt>
      <trkpt lat="48.00524" lon="2.77795">
        <ele>99</ele>
        <time>2016-12-11T10:42:35.413Z</time>
      </trkpt>
      <trkpt lat="48.00527" lon="2.77796">
        <ele>100</ele>
        <time>2016-12-11T10:42:36.437Z</time>
      </trkpt>
      <trkpt lat="48.00527" lon="2.77796">
        <ele>100</ele>
        <time>2016-12-11T10:42:37.422Z</time>
      </trkpt>
      <trkpt lat="48.0053" lon="2.77798">
        <ele>100</ele>
        <time>2016-12-11T10:42:38.429Z</time>
      </trkpt>
      <trkpt lat="48.00531" lon="2.77799">
        <ele>100</ele>
        <time>2016-12-11T10:42:39.414Z</time>
      </trkpt>
      <trkpt lat="48.00531" lon="2.77799">
        <ele>100</ele>
        <time>2016-12-11T10:42:40.412Z</time>
      </trkpt>
      <trkpt lat="48.00534" lon="2.778">
        <ele>101</ele>
        <time>2016-12-11T10:42:41.419Z</time>
      </trkpt>
      <trkpt lat="48.00534" lon="2.778">
        <ele>101</ele>
        <time>2016-12-11T10:42:42.406Z</time>
      </trkpt>
      <trkpt lat="48.00536" lon="2.77801">
        <ele>101</ele>
        <time>2016-12-11T10:42:43.397Z</time>
      </trkpt>
      <trkpt lat="48.00536" lon="2.77801">
        <ele>101</ele>
        <time>2016-12-11T10:42:44.428Z</time>
      </trkpt>
      <trkpt lat="48.00539" lon="2.77802">
        <ele>102</ele>
        <time>2016-12-11T10:42:45.435Z</time>
      </trkpt>
      <trkpt lat="48.00539" lon="2.77802">
        <ele>102</ele>
        <time>2016-12-11T10:42:46.421Z</time>
      </trkpt>
      <trkpt lat="48.00542" lon="2.77803">
        <ele>102</ele>
        <time>2016-12-11T10:42:47.420Z</time>
      </trkpt>
      <trkpt lat="48.00542" lon="2.77803">
        <ele>102</ele>
        <time>2016-12-11T10:42:48.419Z</time>
      </trkpt>
      <trkpt lat="48.00545" lon="2.77805">
        <ele>102</ele>
        <time>2016-12-11T10:42:49.426Z</time>
      </trkpt>
      <trkpt lat="48.00545" lon="2.77805">
        <ele>102</ele>
        <time>2016-12-11T10:42:50.413Z</time>
      </trkpt>
      <trkpt lat="48.00548" lon="2.77806">
        <ele>102</ele>
        <time>2016-12-11T10:42:51.434Z</time>
      </trkpt>
      <trkpt lat="48.0055" lon="2.77807">
        <ele>102</ele>
        <time>2016-12-11T10:42:52.413Z</time>
      </trkpt>
      <trkpt lat="48.0055" lon="2.77807">
        <ele>102</ele>
        <time>2016-12-11T10:42:53.405Z</time>
      </trkpt>
      <trkpt lat="48.00553" lon="2.77808">
        <ele>101</ele>
        <time>2016-12-11T10:42:54.413Z</time>
      </trkpt>
      <trkpt lat="48.00555" lon="2.7781">
        <ele>101</ele>
        <time>2016-12-11T10:42:55.420Z</time>
      </trkpt>
      <trkpt lat="48.00555" lon="2.7781">
        <ele>101</ele>
        <time>2016-12-11T10:42:56.412Z</time>
      </trkpt>
      <trkpt lat="48.00558" lon="2.77812">
        <ele>101</ele>
        <time>2016-12-11T10:42:57.418Z</time>
      </trkpt>
      <trkpt lat="48.00559" lon="2.77813">
        <ele>101</ele>
        <time>2016-12-11T10:42:58.431Z</time>
      </trkpt>
      <trkpt lat="48.00559" lon="2.77813">
        <ele>101</ele>
        <time>2016-12-11T10:42:59.409Z</time>
      </trkpt>
      <trkpt lat="48.00562" lon="2.77815">
        <ele>101</ele>
        <time>2016-12-11T10:43:00.420Z</time>
      </trkpt>
      <trkpt lat="48.00562" lon="2.77815">
        <ele>101</ele>
        <time>2016-12-11T10:43:01.403Z</time>
      </trkpt>
      <trkpt lat="48.00566" lon="2.77817">
        <ele>101</ele>
        <time>2016-12-11T10:43:02.432Z</time>
      </trkpt>
      <trkpt lat="48.00566" lon="2.77817">
        <ele>101</ele>
        <time>2016-12-11T10:43:03.431Z</time>
      </trkpt>
      <trkpt lat="48.00569" lon="2.77818">
        <ele>101</ele>
        <time>2016-12-11T10:43:04.398Z</time>
      </trkpt>
      <trkpt lat="48.00569" lon="2.77818">
        <ele>101</ele>
        <time>2016-12-11T10:43:05.429Z</time>
      </trkpt>
      <trkpt lat="48.00572" lon="2.77819">
        <ele>101</ele>
        <time>2016-12-11T10:43:06.465Z</time>
      </trkpt>
      <trkpt lat="48.00572" lon="2.77819">
        <ele>101</ele>
        <time>2016-12-11T10:43:07.417Z</time>
      </trkpt>
      <trkpt lat="48.00576" lon="2.77821">
        <ele>100</ele>
        <time>2016-12-11T10:43:08.425Z</time>
      </trkpt>
      <trkpt lat="48.00578" lon="2.77822">
        <ele>100</ele>
        <time>2016-12-11T10:43:09.414Z</time>
      </trkpt>
      <trkpt lat="48.0058" lon="2.77823">
        <ele>100</ele>
        <time>2016-12-11T10:43:10.414Z</time>
      </trkpt>
      <trkpt lat="48.0058" lon="2.77823">
        <ele>100</ele>
        <time>2016-12-11T10:43:11.421Z</time>
      </trkpt>
      <trkpt lat="48.00584" lon="2.77824">
        <ele>100</ele>
        <time>2016-12-11T10:43:12.431Z</time>
      </trkpt>
      <trkpt lat="48.00584" lon="2.77824">
        <ele>100</ele>
        <time>2016-12-11T10:43:13.410Z</time>
      </trkpt>
      <trkpt lat="48.00589" lon="2.77826">
        <ele>100</ele>
        <time>2016-12-11T10:43:14.417Z</time>
      </trkpt>
      <trkpt lat="48.00589" lon="2.77826">
        <ele>100</ele>
        <time>2016-12-11T10:43:15.405Z</time>
      </trkpt>
      <trkpt lat="48.00593" lon="2.77828">
        <ele>100</ele>
        <time>2016-12-11T10:43:16.398Z</time>
      </trkpt>
      <trkpt lat="48.00593" lon="2.77828">
        <ele>100</ele>
        <time>2016-12-11T10:43:17.401Z</time>
      </trkpt>
      <trkpt lat="48.00597" lon="2.7783">
        <ele>99</ele>
        <time>2016-12-11T10:43:18.421Z</time>
      </trkpt>
      <trkpt lat="48.006" lon="2.77831">
        <ele>99</ele>
        <time>2016-12-11T10:43:19.410Z</time>
      </trkpt>
      <trkpt lat="48.006" lon="2.77831">
        <ele>99</ele>
        <time>2016-12-11T10:43:20.398Z</time>
      </trkpt>
      <trkpt lat="48.00604" lon="2.77833">
        <ele>99</ele>
        <time>2016-12-11T10:43:21.410Z</time>
      </trkpt>
      <trkpt lat="48.00607" lon="2.77835">
        <ele>100</ele>
        <time>2016-12-11T10:43:22.398Z</time>
      </trkpt>
      <trkpt lat="48.00607" lon="2.77835">
        <ele>100</ele>
        <time>2016-12-11T10:43:23.426Z</time>
      </trkpt>
      <trkpt lat="48.00612" lon="2.77837">
        <ele>99</ele>
        <time>2016-12-11T10:43:24.434Z</time>
      </trkpt>
      <trkpt lat="48.00612" lon="2.77837">
        <ele>99</ele>
        <time>2016-12-11T10:43:25.404Z</time>
      </trkpt>
      <trkpt lat="48.00618" lon="2.77838">
        <ele>100</ele>
        <time>2016-12-11T10:43:26.410Z</time>
      </trkpt>
      <trkpt lat="48.00618" lon="2.77838">
        <ele>100</ele>
        <time>2016-12-11T10:43:27.406Z</time>
      </trkpt>
      <trkpt lat="48.00623" lon="2.7784">
        <ele>100</ele>
        <time>2016-12-11T10:43:28.413Z</time>
      </trkpt>
      <trkpt lat="48.00623" lon="2.7784">
        <ele>100</ele>
        <time>2016-12-11T10:43:29.398Z</time>
      </trkpt>
      <trkpt lat="48.00629" lon="2.77842">
        <ele>100</ele>
        <time>2016-12-11T10:43:30.407Z</time>
      </trkpt>
      <trkpt lat="48.00629" lon="2.77842">
        <ele>100</ele>
        <time>2016-12-11T10:43:31.418Z</time>
      </trkpt>
      <trkpt lat="48.00636" lon="2.77847">
        <ele>100</ele>
        <time>2016-12-11T10:43:32.424Z</time>
      </trkpt>
      <trkpt lat="48.00639" lon="2.77849">
        <ele>100</ele>
        <time>2016-12-11T10:43:33.419Z</time>
      </trkpt>
      <trkpt lat="48.00642" lon="2.77851">
        <ele>100</ele>
        <time>2016-12-11T10:43:34.409Z</time>
      </trkpt>
      <trkpt lat="48.00642" lon="2.77851">
        <ele>100</ele>
        <time>2016-12-11T10:43:35.396Z</time>
      </trkpt>
      <trkpt lat="48.00648" lon="2.77855">
        <ele>100</ele>
        <time>2016-12-11T10:43:36.408Z</time>
      </trkpt>
      <trkpt lat="48.00648" lon="2.77855">
        <ele>100</ele>
        <time>2016-12-11T10:43:37.406Z</time>
      </trkpt>
      <trkpt lat="48.00654" lon="2.77858">
        <ele>100</ele>
        <time>2016-12-11T10:43:38.427Z</time>
      </trkpt>
      <trkpt lat="48.00654" lon="2.77858">
        <ele>100</ele>
        <time>2016-12-11T10:43:39.402Z</time>
      </trkpt>
      <trkpt lat="48.0066" lon="2.7786">
        <ele>101</ele>
        <time>2016-12-11T10:43:40.409Z</time>
      </trkpt>
      <trkpt lat="48.0066" lon="2.7786">
        <ele>101</ele>
        <time>2016-12-11T10:43:41.411Z</time>
      </trkpt>
      <trkpt lat="48.00667" lon="2.77862">
        <ele>101</ele>
        <time>2016-12-11T10:43:42.430Z</time>
      </trkpt>
      <trkpt lat="48.00667" lon="2.77862">
        <ele>101</ele>
        <time>2016-12-11T10:43:43.424Z</time>
      </trkpt>
      <trkpt lat="48.00673" lon="2.77865">
        <ele>101</ele>
        <time>2016-12-11T10:43:44.431Z</time>
      </trkpt>
      <trkpt lat="48.00673" lon="2.77865">
        <ele>101</ele>
        <time>2016-12-11T10:43:45.415Z</time>
      </trkpt>
      <trkpt lat="48.0068" lon="2.77868">
        <ele>101</ele>
        <time>2016-12-11T10:43:46.433Z</time>
      </trkpt>
      <trkpt lat="48.0068" lon="2.77868">
        <ele>101</ele>
        <time>2016-12-11T10:43:47.404Z</time>
      </trkpt>
      <trkpt lat="48.00687" lon="2.77872">
        <ele>101</ele>
        <time>2016-12-11T10:43:48.429Z</time>
      </trkpt>
      <trkpt lat="48.00687" lon="2.77872">
        <ele>101</ele>
        <time>2016-12-11T10:43:49.415Z</time>
      </trkpt>
      <trkpt lat="48.00695" lon="2.77874">
        <ele>102</ele>
        <time>2016-12-11T10:43:50.434Z</time>
      </trkpt>
      <trkpt lat="48.00695" lon="2.77874">
        <ele>102</ele>
        <time>2016-12-11T10:43:51.422Z</time>
      </trkpt>
      <trkpt lat="48.00702" lon="2.77876">
        <ele>102</ele>
        <time>2016-12-11T10:43:52.428Z</time>
      </trkpt>
      <trkpt lat="48.00702" lon="2.77876">
        <ele>102</ele>
        <time>2016-12-11T10:43:53.405Z</time>
      </trkpt>
      <trkpt lat="48.00708" lon="2.77879">
        <ele>104</ele>
        <time>2016-12-11T10:43:54.429Z</time>
      </trkpt>
      <trkpt lat="48.00708" lon="2.77879">
        <ele>104</ele>
        <time>2016-12-11T10:43:55.434Z</time>
      </trkpt>
      <trkpt lat="48.00715" lon="2.77882">
        <ele>104</ele>
        <time>2016-12-11T10:43:56.409Z</time>
      </trkpt>
      <trkpt lat="48.00715" lon="2.77882">
        <ele>104</ele>
        <time>2016-12-11T10:43:57.407Z</time>
      </trkpt>
      <trkpt lat="48.00722" lon="2.77884">
        <ele>106</ele>
        <time>2016-12-11T10:43:58.432Z</time>
      </trkpt>
      <trkpt lat="48.00722" lon="2.77884">
        <ele>106</ele>
        <time>2016-12-11T10:43:59.407Z</time>
      </trkpt>
      <trkpt lat="48.00727" lon="2.77881">
        <ele>106</ele>
        <time>2016-12-11T10:44:00.414Z</time>
      </trkpt>
      <trkpt lat="48.00729" lon="2.77879">
        <ele>107</ele>
        <time>2016-12-11T10:44:01.406Z</time>
      </trkpt>
      <trkpt lat="48.0073" lon="2.77876">
        <ele>106</ele>
        <time>2016-12-11T10:44:02.420Z</time>
      </trkpt>
      <trkpt lat="48.0073" lon="2.77876">
        <ele>106</ele>
        <time>2016-12-11T10:44:03.407Z</time>
      </trkpt>
      <trkpt lat="48.00731" lon="2.77867">
        <ele>106</ele>
        <time>2016-12-11T10:44:04.433Z</time>
      </trkpt>
      <trkpt lat="48.00731" lon="2.77867">
        <ele>106</ele>
        <time>2016-12-11T10:44:05.426Z</time>
      </trkpt>
      <trkpt lat="48.00732" lon="2.77857">
        <ele>106</ele>
        <time>2016-12-11T10:44:06.433Z</time>
      </trkpt>
      <trkpt lat="48.00732" lon="2.77857">
        <ele>106</ele>
        <time>2016-12-11T10:44:07.423Z</time>
      </trkpt>
      <trkpt lat="48.00732" lon="2.77848">
        <ele>106</ele>
        <time>2016-12-11T10:44:08.424Z</time>
      </trkpt>
      <trkpt lat="48.00732" lon="2.77848">
        <ele>106</ele>
        <time>2016-12-11T10:44:09.424Z</time>
      </trkpt>
      <trkpt lat="48.00733" lon="2.77838">
        <ele>107</ele>
        <time>2016-12-11T10:44:10.430Z</time>
      </trkpt>
      <trkpt lat="48.00733" lon="2.77838">
        <ele>107</ele>
        <time>2016-12-11T10:44:11.416Z</time>
      </trkpt>
      <trkpt lat="48.00733" lon="2.77829">
        <ele>107</ele>
        <time>2016-12-11T10:44:12.397Z</time>
      </trkpt>
      <trkpt lat="48.00733" lon="2.77829">
        <ele>107</ele>
        <time>2016-12-11T10:44:13.402Z</time>
      </trkpt>
      <trkpt lat="48.00733" lon="2.77818">
        <ele>107</ele>
        <time>2016-12-11T10:44:14.414Z</time>
      </trkpt>
      <trkpt lat="48.00733" lon="2.77818">
        <ele>107</ele>
        <time>2016-12-11T10:44:15.435Z</time>
      </trkpt>
      <trkpt lat="48.00733" lon="2.77805">
        <ele>106</ele>
        <time>2016-12-11T10:44:16.430Z</time>
      </trkpt>
      <trkpt lat="48.00733" lon="2.77805">
        <ele>106</ele>
        <time>2016-12-11T10:44:17.414Z</time>
      </trkpt>
      <trkpt lat="48.00734" lon="2.77794">
        <ele>106</ele>
        <time>2016-12-11T10:44:18.398Z</time>
      </trkpt>
      <trkpt lat="48.00734" lon="2.77794">
        <ele>106</ele>
        <time>2016-12-11T10:44:19.416Z</time>
      </trkpt>
      <trkpt lat="48.00734" lon="2.77782">
        <ele>106</ele>
        <time>2016-12-11T10:44:20.422Z</time>
      </trkpt>
      <trkpt lat="48.00734" lon="2.77782">
        <ele>106</ele>
        <time>2016-12-11T10:44:21.409Z</time>
      </trkpt>
      <trkpt lat="48.00733" lon="2.77769">
        <ele>106</ele>
        <time>2016-12-11T10:44:22.396Z</time>
      </trkpt>
      <trkpt lat="48.00733" lon="2.77769">
        <ele>106</ele>
        <time>2016-12-11T10:44:23.422Z</time>
      </trkpt>
      <trkpt lat="48.00733" lon="2.77755">
        <ele>105</ele>
        <time>2016-12-11T10:44:24.428Z</time>
      </trkpt>
      <trkpt lat="48.00733" lon="2.77755">
        <ele>105</ele>
        <time>2016-12-11T10:44:25.425Z</time>
      </trkpt>
      <trkpt lat="48.00733" lon="2.77742">
        <ele>105</ele>
        <time>2016-12-11T10:44:26.396Z</time>
      </trkpt>
      <trkpt lat="48.00733" lon="2.77742">
        <ele>105</ele>
        <time>2016-12-11T10:44:27.422Z</time>
      </trkpt>
      <trkpt lat="48.00732" lon="2.77728">
        <ele>104</ele>
        <time>2016-12-11T10:44:28.428Z</time>
      </trkpt>
      <trkpt lat="48.00731" lon="2.77721">
        <ele>104</ele>
        <time>2016-12-11T10:44:29.424Z</time>
      </trkpt>
      <trkpt lat="48.00731" lon="2.77721">
        <ele>104</ele>
        <time>2016-12-11T10:44:30.417Z</time>
      </trkpt>
      <trkpt lat="48.00731" lon="2.77704">
        <ele>103</ele>
        <time>2016-12-11T10:44:31.429Z</time>
      </trkpt>
      <trkpt lat="48.00731" lon="2.77704">
        <ele>103</ele>
        <time>2016-12-11T10:44:32.414Z</time>
      </trkpt>
      <trkpt lat="48.0073" lon="2.77687">
        <ele>102</ele>
        <time>2016-12-11T10:44:33.434Z</time>
      </trkpt>
      <trkpt lat="48.0073" lon="2.77678">
        <ele>102</ele>
        <time>2016-12-11T10:44:34.435Z</time>
      </trkpt>
      <trkpt lat="48.0073" lon="2.77678">
        <ele>102</ele>
        <time>2016-12-11T10:44:35.418Z</time>
      </trkpt>
      <trkpt lat="48.00731" lon="2.77661">
        <ele>102</ele>
        <time>2016-12-11T10:44:36.425Z</time>
      </trkpt>
      <trkpt lat="48.00731" lon="2.77661">
        <ele>102</ele>
        <time>2016-12-11T10:44:37.407Z</time>
      </trkpt>
      <trkpt lat="48.00731" lon="2.77644">
        <ele>101</ele>
        <time>2016-12-11T10:44:38.414Z</time>
      </trkpt>
      <trkpt lat="48.00732" lon="2.77635">
        <ele>102</ele>
        <time>2016-12-11T10:44:39.421Z</time>
      </trkpt>
      <trkpt lat="48.00732" lon="2.77627">
        <ele>102</ele>
        <time>2016-12-11T10:44:40.407Z</time>
      </trkpt>
      <trkpt lat="48.00732" lon="2.77627">
        <ele>102</ele>
        <time>2016-12-11T10:44:41.434Z</time>
      </trkpt>
      <trkpt lat="48.00732" lon="2.7761">
        <ele>101</ele>
        <time>2016-12-11T10:44:42.401Z</time>
      </trkpt>
      <trkpt lat="48.00732" lon="2.77602">
        <ele>101</ele>
        <time>2016-12-11T10:44:43.408Z</time>
      </trkpt>
      <trkpt lat="48.00732" lon="2.77602">
        <ele>101</ele>
        <time>2016-12-11T10:44:44.430Z</time>
      </trkpt>
      <trkpt lat="48.00732" lon="2.77584">
        <ele>101</ele>
        <time>2016-12-11T10:44:45.396Z</time>
      </trkpt>
      <trkpt lat="48.00732" lon="2.77575">
        <ele>101</ele>
        <time>2016-12-11T10:44:46.418Z</time>
      </trkpt>
      <trkpt lat="48.00732" lon="2.77575">
        <ele>101</ele>
        <time>2016-12-11T10:44:47.406Z</time>
      </trkpt>
      <trkpt lat="48.00731" lon="2.77557">
        <ele>100</ele>
        <time>2016-12-11T10:44:48.413Z</time>
      </trkpt>
      <trkpt lat="48.0073" lon="2.77548">
        <ele>100</ele>
        <time>2016-12-11T10:44:49.470Z</time>
      </trkpt>
      <trkpt lat="48.0073" lon="2.77548">
        <ele>100</ele>
        <time>2016-12-11T10:44:50.420Z</time>
      </trkpt>
      <trkpt lat="48.0073" lon="2.77531">
        <ele>101</ele>
        <time>2016-12-11T10:44:51.426Z</time>
      </trkpt>
      <trkpt lat="48.0073" lon="2.77521">
        <ele>101</ele>
        <time>2016-12-11T10:44:52.420Z</time>
      </trkpt>
      <trkpt lat="48.0073" lon="2.77521">
        <ele>101</ele>
        <time>2016-12-11T10:44:53.409Z</time>
      </trkpt>
      <trkpt lat="48.0073" lon="2.77503">
        <ele>100</ele>
        <time>2016-12-11T10:44:54.416Z</time>
      </trkpt>
      <trkpt lat="48.0073" lon="2.77503">
        <ele>100</ele>
        <time>2016-12-11T10:44:55.406Z</time>
      </trkpt>
      <trkpt lat="48.00729" lon="2.77484">
        <ele>100</ele>
        <time>2016-12-11T10:44:56.437Z</time>
      </trkpt>
      <trkpt lat="48.00729" lon="2.77484">
        <ele>100</ele>
        <time>2016-12-11T10:44:57.412Z</time>
      </trkpt>
      <trkpt lat="48.00729" lon="2.77464">
        <ele>100</ele>
        <time>2016-12-11T10:44:58.396Z</time>
      </trkpt>
      <trkpt lat="48.00729" lon="2.77455">
        <ele>100</ele>
        <time>2016-12-11T10:44:59.415Z</time>
      </trkpt>
      <trkpt lat="48.00729" lon="2.77455">
        <ele>100</ele>
        <time>2016-12-11T10:45:00.422Z</time>
      </trkpt>
      <trkpt lat="48.00729" lon="2.77437">
        <ele>100</ele>
        <time>2016-12-11T10:45:01.429Z</time>
      </trkpt>
      <trkpt lat="48.00729" lon="2.77437">
        <ele>100</ele>
        <time>2016-12-11T10:45:02.418Z</time>
      </trkpt>
      <trkpt lat="48.00728" lon="2.77418">
        <ele>99</ele>
        <time>2016-12-11T10:45:03.429Z</time>
      </trkpt>
      <trkpt lat="48.00728" lon="2.77418">
        <ele>99</ele>
        <time>2016-12-11T10:45:04.420Z</time>
      </trkpt>
      <trkpt lat="48.00729" lon="2.774">
        <ele>99</ele>
        <time>2016-12-11T10:45:05.427Z</time>
      </trkpt>
      <trkpt lat="48.00729" lon="2.774">
        <ele>99</ele>
        <time>2016-12-11T10:45:06.415Z</time>
      </trkpt>
      <trkpt lat="48.00729" lon="2.77383">
        <ele>98</ele>
        <time>2016-12-11T10:45:07.422Z</time>
      </trkpt>
      <trkpt lat="48.00729" lon="2.77375">
        <ele>98</ele>
        <time>2016-12-11T10:45:08.396Z</time>
      </trkpt>
      <trkpt lat="48.00729" lon="2.77375">
        <ele>98</ele>
        <time>2016-12-11T10:45:09.407Z</time>
      </trkpt>
      <trkpt lat="48.00728" lon="2.77358">
        <ele>98</ele>
        <time>2016-12-11T10:45:10.414Z</time>
      </trkpt>
      <trkpt lat="48.00728" lon="2.77358">
        <ele>98</ele>
        <time>2016-12-11T10:45:11.436Z</time>
      </trkpt>
      <trkpt lat="48.00727" lon="2.77341">
        <ele>98</ele>
        <time>2016-12-11T10:45:12.427Z</time>
      </trkpt>
      <trkpt lat="48.00727" lon="2.77341">
        <ele>98</ele>
        <time>2016-12-11T10:45:13.434Z</time>
      </trkpt>
      <trkpt lat="48.00727" lon="2.77324">
        <ele>98</ele>
        <time>2016-12-11T10:45:14.404Z</time>
      </trkpt>
      <trkpt lat="48.00727" lon="2.77324">
        <ele>98</ele>
        <time>2016-12-11T10:45:15.428Z</time>
      </trkpt>
      <trkpt lat="48.00728" lon="2.77309">
        <ele>97</ele>
        <time>2016-12-11T10:45:16.430Z</time>
      </trkpt>
      <trkpt lat="48.00728" lon="2.77309">
        <ele>97</ele>
        <time>2016-12-11T10:45:17.421Z</time>
      </trkpt>
      <trkpt lat="48.00728" lon="2.77294">
        <ele>98</ele>
        <time>2016-12-11T10:45:18.435Z</time>
      </trkpt>
      <trkpt lat="48.00728" lon="2.77294">
        <ele>98</ele>
        <time>2016-12-11T10:45:19.420Z</time>
      </trkpt>
      <trkpt lat="48.00728" lon="2.77279">
        <ele>97</ele>
        <time>2016-12-11T10:45:20.426Z</time>
      </trkpt>
      <trkpt lat="48.00728" lon="2.77279">
        <ele>97</ele>
        <time>2016-12-11T10:45:21.413Z</time>
      </trkpt>
      <trkpt lat="48.00729" lon="2.77264">
        <ele>97</ele>
        <time>2016-12-11T10:45:22.420Z</time>
      </trkpt>
      <trkpt lat="48.00729" lon="2.77264">
        <ele>97</ele>
        <time>2016-12-11T10:45:23.396Z</time>
      </trkpt>
      <trkpt lat="48.00729" lon="2.7725">
        <ele>97</ele>
        <time>2016-12-11T10:45:24.405Z</time>
      </trkpt>
      <trkpt lat="48.00729" lon="2.77243">
        <ele>96</ele>
        <time>2016-12-11T10:45:25.433Z</time>
      </trkpt>
      <trkpt lat="48.00729" lon="2.77243">
        <ele>96</ele>
        <time>2016-12-11T10:45:26.407Z</time>
      </trkpt>
      <trkpt lat="48.00729" lon="2.77227">
        <ele>96</ele>
        <time>2016-12-11T10:45:27.425Z</time>
      </trkpt>
      <trkpt lat="48.00729" lon="2.77227">
        <ele>96</ele>
        <time>2016-12-11T10:45:28.409Z</time>
      </trkpt>
      <trkpt lat="48.00729" lon="2.77212">
        <ele>96</ele>
        <time>2016-12-11T10:45:29.417Z</time>
      </trkpt>
      <trkpt lat="48.00729" lon="2.77212">
        <ele>96</ele>
        <time>2016-12-11T10:45:30.403Z</time>
      </trkpt>
      <trkpt lat="48.00729" lon="2.77197">
        <ele>96</ele>
        <time>2016-12-11T10:45:31.410Z</time>
      </trkpt>
      <trkpt lat="48.00729" lon="2.77189">
        <ele>95</ele>
        <time>2016-12-11T10:45:32.406Z</time>
      </trkpt>
      <trkpt lat="48.00729" lon="2.7718">
        <ele>96</ele>
        <time>2016-12-11T10:45:33.413Z</time>
      </trkpt>
      <trkpt lat="48.00729" lon="2.7718">
        <ele>96</ele>
        <time>2016-12-11T10:45:34.431Z</time>
      </trkpt>
      <trkpt lat="48.00729" lon="2.77163">
        <ele>96</ele>
        <time>2016-12-11T10:45:35.397Z</time>
      </trkpt>
      <trkpt lat="48.00729" lon="2.77154">
        <ele>95</ele>
        <time>2016-12-11T10:45:36.418Z</time>
      </trkpt>
      <trkpt lat="48.00729" lon="2.77154">
        <ele>95</ele>
        <time>2016-12-11T10:45:37.407Z</time>
      </trkpt>
      <trkpt lat="48.00729" lon="2.77136">
        <ele>95</ele>
        <time>2016-12-11T10:45:38.415Z</time>
      </trkpt>
      <trkpt lat="48.00729" lon="2.77136">
        <ele>95</ele>
        <time>2016-12-11T10:45:39.406Z</time>
      </trkpt>
      <trkpt lat="48.00729" lon="2.77117">
        <ele>95</ele>
        <time>2016-12-11T10:45:40.433Z</time>
      </trkpt>
      <trkpt lat="48.00728" lon="2.7711">
        <ele>96</ele>
        <time>2016-12-11T10:45:41.425Z</time>
      </trkpt>
      <trkpt lat="48.00728" lon="2.7711">
        <ele>96</ele>
        <time>2016-12-11T10:45:42.407Z</time>
      </trkpt>
      <trkpt lat="48.00727" lon="2.77098">
        <ele>96</ele>
        <time>2016-12-11T10:45:43.424Z</time>
      </trkpt>
      <trkpt lat="48.00727" lon="2.77098">
        <ele>96</ele>
        <time>2016-12-11T10:45:44.433Z</time>
      </trkpt>
      <trkpt lat="48.00726" lon="2.77087">
        <ele>97</ele>
        <time>2016-12-11T10:45:45.402Z</time>
      </trkpt>
      <trkpt lat="48.00726" lon="2.77081">
        <ele>97</ele>
        <time>2016-12-11T10:45:46.430Z</time>
      </trkpt>
      <trkpt lat="48.00726" lon="2.77081">
        <ele>97</ele>
        <time>2016-12-11T10:45:47.397Z</time>
      </trkpt>
      <trkpt lat="48.00726" lon="2.77069">
        <ele>98</ele>
        <time>2016-12-11T10:45:48.410Z</time>
      </trkpt>
      <trkpt lat="48.00726" lon="2.77062">
        <ele>98</ele>
        <time>2016-12-11T10:45:49.434Z</time>
      </trkpt>
      <trkpt lat="48.00726" lon="2.77062">
        <ele>98</ele>
        <time>2016-12-11T10:45:50.401Z</time>
      </trkpt>
      <trkpt lat="48.00726" lon="2.77048">
        <ele>98</ele>
        <time>2016-12-11T10:45:51.408Z</time>
      </trkpt>
      <trkpt lat="48.00727" lon="2.77041">
        <ele>98</ele>
        <time>2016-12-11T10:45:52.434Z</time>
      </trkpt>
      <trkpt lat="48.00727" lon="2.77041">
        <ele>98</ele>
        <time>2016-12-11T10:45:53.406Z</time>
      </trkpt>
      <trkpt lat="48.00726" lon="2.77027">
        <ele>98</ele>
        <time>2016-12-11T10:45:54.417Z</time>
      </trkpt>
      <trkpt lat="48.00726" lon="2.77027">
        <ele>98</ele>
        <time>2016-12-11T10:45:55.405Z</time>
      </trkpt>
      <trkpt lat="48.00726" lon="2.77013">
        <ele>98</ele>
        <time>2016-12-11T10:45:56.398Z</time>
      </trkpt>
      <trkpt lat="48.00726" lon="2.77013">
        <ele>98</ele>
        <time>2016-12-11T10:45:57.426Z</time>
      </trkpt>
      <trkpt lat="48.00727" lon="2.76999">
        <ele>98</ele>
        <time>2016-12-11T10:45:58.433Z</time>
      </trkpt>
      <trkpt lat="48.00727" lon="2.76999">
        <ele>98</ele>
        <time>2016-12-11T10:45:59.407Z</time>
      </trkpt>
      <trkpt lat="48.00727" lon="2.76986">
        <ele>98</ele>
        <time>2016-12-11T10:46:00.413Z</time>
      </trkpt>
      <trkpt lat="48.00727" lon="2.76986">
        <ele>98</ele>
        <time>2016-12-11T10:46:01.401Z</time>
      </trkpt>
      <trkpt lat="48.00727" lon="2.76972">
        <ele>98</ele>
        <time>2016-12-11T10:46:02.434Z</time>
      </trkpt>
      <trkpt lat="48.00727" lon="2.76972">
        <ele>98</ele>
        <time>2016-12-11T10:46:03.431Z</time>
      </trkpt>
      <trkpt lat="48.00726" lon="2.76958">
        <ele>98</ele>
        <time>2016-12-11T10:46:04.398Z</time>
      </trkpt>
      <trkpt lat="48.00726" lon="2.76958">
        <ele>98</ele>
        <time>2016-12-11T10:46:05.426Z</time>
      </trkpt>
      <trkpt lat="48.00725" lon="2.76945">
        <ele>98</ele>
        <time>2016-12-11T10:46:06.434Z</time>
      </trkpt>
      <trkpt lat="48.00725" lon="2.76945">
        <ele>98</ele>
        <time>2016-12-11T10:46:07.415Z</time>
      </trkpt>
      <trkpt lat="48.00725" lon="2.76931">
        <ele>98</ele>
        <time>2016-12-11T10:46:08.422Z</time>
      </trkpt>
      <trkpt lat="48.00725" lon="2.76924">
        <ele>98</ele>
        <time>2016-12-11T10:46:09.415Z</time>
      </trkpt>
      <trkpt lat="48.00725" lon="2.76918">
        <ele>98</ele>
        <time>2016-12-11T10:46:10.410Z</time>
      </trkpt>
      <trkpt lat="48.00725" lon="2.76918">
        <ele>98</ele>
        <time>2016-12-11T10:46:11.396Z</time>
      </trkpt>
      <trkpt lat="48.00724" lon="2.76905">
        <ele>98</ele>
        <time>2016-12-11T10:46:12.409Z</time>
      </trkpt>
      <trkpt lat="48.00723" lon="2.76899">
        <ele>98</ele>
        <time>2016-12-11T10:46:13.410Z</time>
      </trkpt>
      <trkpt lat="48.00723" lon="2.76899">
        <ele>98</ele>
        <time>2016-12-11T10:46:14.429Z</time>
      </trkpt>
      <trkpt lat="48.00723" lon="2.76886">
        <ele>98</ele>
        <time>2016-12-11T10:46:15.436Z</time>
      </trkpt>
      <trkpt lat="48.00723" lon="2.76879">
        <ele>98</ele>
        <time>2016-12-11T10:46:16.422Z</time>
      </trkpt>
      <trkpt lat="48.00723" lon="2.76879">
        <ele>98</ele>
        <time>2016-12-11T10:46:17.421Z</time>
      </trkpt>
      <trkpt lat="48.00723" lon="2.76866">
        <ele>98</ele>
        <time>2016-12-11T10:46:18.415Z</time>
      </trkpt>
      <trkpt lat="48.00723" lon="2.7686">
        <ele>98</ele>
        <time>2016-12-11T10:46:19.402Z</time>
      </trkpt>
      <trkpt lat="48.00723" lon="2.76853">
        <ele>97</ele>
        <time>2016-12-11T10:46:20.429Z</time>
      </trkpt>
      <trkpt lat="48.00723" lon="2.76853">
        <ele>97</ele>
        <time>2016-12-11T10:46:21.417Z</time>
      </trkpt>
      <trkpt lat="48.00723" lon="2.76841">
        <ele>97</ele>
        <time>2016-12-11T10:46:22.423Z</time>
      </trkpt>
      <trkpt lat="48.00723" lon="2.76841">
        <ele>97</ele>
        <time>2016-12-11T10:46:23.432Z</time>
      </trkpt>
      <trkpt lat="48.00723" lon="2.76828">
        <ele>97</ele>
        <time>2016-12-11T10:46:24.398Z</time>
      </trkpt>
      <trkpt lat="48.00723" lon="2.76828">
        <ele>97</ele>
        <time>2016-12-11T10:46:25.426Z</time>
      </trkpt>
      <trkpt lat="48.00723" lon="2.76815">
        <ele>97</ele>
        <time>2016-12-11T10:46:26.434Z</time>
      </trkpt>
      <trkpt lat="48.00723" lon="2.76815">
        <ele>97</ele>
        <time>2016-12-11T10:46:27.402Z</time>
      </trkpt>
      <trkpt lat="48.00722" lon="2.76802">
        <ele>98</ele>
        <time>2016-12-11T10:46:28.408Z</time>
      </trkpt>
      <trkpt lat="48.00722" lon="2.76802">
        <ele>98</ele>
        <time>2016-12-11T10:46:29.398Z</time>
      </trkpt>
      <trkpt lat="48.00722" lon="2.7679">
        <ele>97</ele>
        <time>2016-12-11T10:46:30.434Z</time>
      </trkpt>
      <trkpt lat="48.00722" lon="2.7679">
        <ele>97</ele>
        <time>2016-12-11T10:46:31.406Z</time>
      </trkpt>
      <trkpt lat="48.00722" lon="2.76777">
        <ele>98</ele>
        <time>2016-12-11T10:46:32.413Z</time>
      </trkpt>
      <trkpt lat="48.00722" lon="2.76771">
        <ele>98</ele>
        <time>2016-12-11T10:46:33.430Z</time>
      </trkpt>
      <trkpt lat="48.00722" lon="2.76765">
        <ele>98</ele>
        <time>2016-12-11T10:46:34.413Z</time>
      </trkpt>
      <trkpt lat="48.00722" lon="2.76765">
        <ele>98</ele>
        <time>2016-12-11T10:46:35.431Z</time>
      </trkpt>
      <trkpt lat="48.00722" lon="2.76753">
        <ele>98</ele>
        <time>2016-12-11T10:46:36.397Z</time>
      </trkpt>
      <trkpt lat="48.00722" lon="2.76753">
        <ele>98</ele>
        <time>2016-12-11T10:46:37.413Z</time>
      </trkpt>
      <trkpt lat="48.00722" lon="2.76742">
        <ele>98</ele>
        <time>2016-12-11T10:46:38.420Z</time>
      </trkpt>
      <trkpt lat="48.00722" lon="2.76736">
        <ele>98</ele>
        <time>2016-12-11T10:46:39.408Z</time>
      </trkpt>
      <trkpt lat="48.00722" lon="2.7673">
        <ele>98</ele>
        <time>2016-12-11T10:46:40.428Z</time>
      </trkpt>
      <trkpt lat="48.00722" lon="2.7673">
        <ele>98</ele>
        <time>2016-12-11T10:46:41.417Z</time>
      </trkpt>
      <trkpt lat="48.00721" lon="2.76717">
        <ele>98</ele>
        <time>2016-12-11T10:46:42.403Z</time>
      </trkpt>
      <trkpt lat="48.00721" lon="2.76711">
        <ele>98</ele>
        <time>2016-12-11T10:46:43.422Z</time>
      </trkpt>
      <trkpt lat="48.00721" lon="2.76711">
        <ele>98</ele>
        <time>2016-12-11T10:46:44.408Z</time>
      </trkpt>
      <trkpt lat="48.00721" lon="2.76698">
        <ele>98</ele>
        <time>2016-12-11T10:46:45.420Z</time>
      </trkpt>
      <trkpt lat="48.00721" lon="2.76691">
        <ele>98</ele>
        <time>2016-12-11T10:46:46.412Z</time>
      </trkpt>
      <trkpt lat="48.00721" lon="2.76691">
        <ele>98</ele>
        <time>2016-12-11T10:46:47.396Z</time>
      </trkpt>
      <trkpt lat="48.00721" lon="2.76679">
        <ele>98</ele>
        <time>2016-12-11T10:46:48.412Z</time>
      </trkpt>
      <trkpt lat="48.00721" lon="2.76673">
        <ele>98</ele>
        <time>2016-12-11T10:46:49.411Z</time>
      </trkpt>
      <trkpt lat="48.00721" lon="2.76673">
        <ele>98</ele>
        <time>2016-12-11T10:46:50.398Z</time>
      </trkpt>
      <trkpt lat="48.00722" lon="2.7666">
        <ele>98</ele>
        <time>2016-12-11T10:46:51.409Z</time>
      </trkpt>
      <trkpt lat="48.00722" lon="2.76653">
        <ele>98</ele>
        <time>2016-12-11T10:46:52.396Z</time>
      </trkpt>
      <trkpt lat="48.00722" lon="2.76653">
        <ele>98</ele>
        <time>2016-12-11T10:46:53.425Z</time>
      </trkpt>
      <trkpt lat="48.00721" lon="2.76641">
        <ele>98</ele>
        <time>2016-12-11T10:46:54.396Z</time>
      </trkpt>
      <trkpt lat="48.00721" lon="2.76641">
        <ele>98</ele>
        <time>2016-12-11T10:46:55.418Z</time>
      </trkpt>
      <trkpt lat="48.00721" lon="2.76629">
        <ele>98</ele>
        <time>2016-12-11T10:46:56.426Z</time>
      </trkpt>
      <trkpt lat="48.00721" lon="2.76629">
        <ele>98</ele>
        <time>2016-12-11T10:46:57.409Z</time>
      </trkpt>
      <trkpt lat="48.00722" lon="2.76617">
        <ele>98</ele>
        <time>2016-12-11T10:46:58.421Z</time>
      </trkpt>
      <trkpt lat="48.00722" lon="2.76617">
        <ele>98</ele>
        <time>2016-12-11T10:46:59.423Z</time>
      </trkpt>
      <trkpt lat="48.00722" lon="2.76604">
        <ele>98</ele>
        <time>2016-12-11T10:47:00.434Z</time>
      </trkpt>
      <trkpt lat="48.00722" lon="2.76604">
        <ele>98</ele>
        <time>2016-12-11T10:47:01.411Z</time>
      </trkpt>
      <trkpt lat="48.00722" lon="2.76591">
        <ele>98</ele>
        <time>2016-12-11T10:47:02.417Z</time>
      </trkpt>
      <trkpt lat="48.00722" lon="2.76591">
        <ele>98</ele>
        <time>2016-12-11T10:47:03.406Z</time>
      </trkpt>
      <trkpt lat="48.00722" lon="2.76577">
        <ele>98</ele>
        <time>2016-12-11T10:47:04.436Z</time>
      </trkpt>
      <trkpt lat="48.00722" lon="2.76577">
        <ele>98</ele>
        <time>2016-12-11T10:47:05.412Z</time>
      </trkpt>
      <trkpt lat="48.00721" lon="2.76563">
        <ele>98</ele>
        <time>2016-12-11T10:47:06.418Z</time>
      </trkpt>
      <trkpt lat="48.00721" lon="2.76563">
        <ele>98</ele>
        <time>2016-12-11T10:47:07.407Z</time>
      </trkpt>
      <trkpt lat="48.00722" lon="2.76549">
        <ele>99</ele>
        <time>2016-12-11T10:47:08.451Z</time>
      </trkpt>
      <trkpt lat="48.00722" lon="2.76549">
        <ele>99</ele>
        <time>2016-12-11T10:47:09.407Z</time>
      </trkpt>
      <trkpt lat="48.00723" lon="2.76537">
        <ele>99</ele>
        <time>2016-12-11T10:47:10.414Z</time>
      </trkpt>
      <trkpt lat="48.00723" lon="2.7653">
        <ele>99</ele>
        <time>2016-12-11T10:47:11.401Z</time>
      </trkpt>
      <trkpt lat="48.00723" lon="2.7653">
        <ele>99</ele>
        <time>2016-12-11T10:47:12.421Z</time>
      </trkpt>
      <trkpt lat="48.00723" lon="2.76516">
        <ele>100</ele>
        <time>2016-12-11T10:47:13.428Z</time>
      </trkpt>
      <trkpt lat="48.00723" lon="2.76509">
        <ele>100</ele>
        <time>2016-12-11T10:47:14.416Z</time>
      </trkpt>
      <trkpt lat="48.00723" lon="2.76509">
        <ele>100</ele>
        <time>2016-12-11T10:47:15.415Z</time>
      </trkpt>
      <trkpt lat="48.00722" lon="2.76495">
        <ele>100</ele>
        <time>2016-12-11T10:47:16.423Z</time>
      </trkpt>
      <trkpt lat="48.00722" lon="2.76495">
        <ele>100</ele>
        <time>2016-12-11T10:47:17.421Z</time>
      </trkpt>
      <trkpt lat="48.00722" lon="2.76483">
        <ele>99</ele>
        <time>2016-12-11T10:47:18.397Z</time>
      </trkpt>
      <trkpt lat="48.00722" lon="2.76483">
        <ele>99</ele>
        <time>2016-12-11T10:47:19.431Z</time>
      </trkpt>
      <trkpt lat="48.00722" lon="2.76474">
        <ele>100</ele>
        <time>2016-12-11T10:47:20.397Z</time>
      </trkpt>
      <trkpt lat="48.00722" lon="2.76474">
        <ele>100</ele>
        <time>2016-12-11T10:47:21.425Z</time>
      </trkpt>
      <trkpt lat="48.00722" lon="2.76469">
        <ele>100</ele>
        <time>2016-12-11T10:47:22.434Z</time>
      </trkpt>
      <trkpt lat="48.00722" lon="2.76469">
        <ele>100</ele>
        <time>2016-12-11T10:47:23.402Z</time>
      </trkpt>
      <trkpt lat="48.00721" lon="2.76467">
        <ele>100</ele>
        <time>2016-12-11T10:47:24.409Z</time>
      </trkpt>
      <trkpt lat="48.00721" lon="2.76465">
        <ele>100</ele>
        <time>2016-12-11T10:47:25.439Z</time>
      </trkpt>
      <trkpt lat="48.00721" lon="2.76465">
        <ele>100</ele>
        <time>2016-12-11T10:47:26.416Z</time>
      </trkpt>
      <trkpt lat="48.00721" lon="2.76459">
        <ele>100</ele>
        <time>2016-12-11T10:47:27.422Z</time>
      </trkpt>
      <trkpt lat="48.00721" lon="2.76455">
        <ele>100</ele>
        <time>2016-12-11T10:47:28.419Z</time>
      </trkpt>
      <trkpt lat="48.00721" lon="2.76455">
        <ele>100</ele>
        <time>2016-12-11T10:47:29.413Z</time>
      </trkpt>
      <trkpt lat="48.00721" lon="2.76446">
        <ele>100</ele>
        <time>2016-12-11T10:47:30.419Z</time>
      </trkpt>
      <trkpt lat="48.00721" lon="2.76446">
        <ele>100</ele>
        <time>2016-12-11T10:47:31.406Z</time>
      </trkpt>
      <trkpt lat="48.00721" lon="2.76434">
        <ele>100</ele>
        <time>2016-12-11T10:47:32.401Z</time>
      </trkpt>
      <trkpt lat="48.00721" lon="2.76434">
        <ele>100</ele>
        <time>2016-12-11T10:47:33.413Z</time>
      </trkpt>
      <trkpt lat="48.00721" lon="2.76421">
        <ele>101</ele>
        <time>2016-12-11T10:47:34.420Z</time>
      </trkpt>
      <trkpt lat="48.00721" lon="2.76421">
        <ele>101</ele>
        <time>2016-12-11T10:47:35.409Z</time>
      </trkpt>
      <trkpt lat="48.00722" lon="2.76406">
        <ele>101</ele>
        <time>2016-12-11T10:47:36.418Z</time>
      </trkpt>
      <trkpt lat="48.00722" lon="2.76406">
        <ele>101</ele>
        <time>2016-12-11T10:47:37.425Z</time>
      </trkpt>
      <trkpt lat="48.00721" lon="2.7639">
        <ele>101</ele>
        <time>2016-12-11T10:47:38.432Z</time>
      </trkpt>
      <trkpt lat="48.00721" lon="2.7639">
        <ele>101</ele>
        <time>2016-12-11T10:47:39.408Z</time>
      </trkpt>
      <trkpt lat="48.00721" lon="2.76373">
        <ele>100</ele>
        <time>2016-12-11T10:47:40.415Z</time>
      </trkpt>
      <trkpt lat="48.00721" lon="2.76373">
        <ele>100</ele>
        <time>2016-12-11T10:47:41.408Z</time>
      </trkpt>
      <trkpt lat="48.00721" lon="2.76358">
        <ele>100</ele>
        <time>2016-12-11T10:47:42.434Z</time>
      </trkpt>
      <trkpt lat="48.00721" lon="2.76358">
        <ele>100</ele>
        <time>2016-12-11T10:47:43.432Z</time>
      </trkpt>
      <trkpt lat="48.00721" lon="2.76343">
        <ele>99</ele>
        <time>2016-12-11T10:47:44.398Z</time>
      </trkpt>
      <trkpt lat="48.00721" lon="2.76343">
        <ele>99</ele>
        <time>2016-12-11T10:47:45.424Z</time>
      </trkpt>
      <trkpt lat="48.00721" lon="2.76327">
        <ele>99</ele>
        <time>2016-12-11T10:47:46.434Z</time>
      </trkpt>
      <trkpt lat="48.00721" lon="2.76327">
        <ele>99</ele>
        <time>2016-12-11T10:47:47.423Z</time>
      </trkpt>
      <trkpt lat="48.00721" lon="2.7631">
        <ele>99</ele>
        <time>2016-12-11T10:47:48.429Z</time>
      </trkpt>
      <trkpt lat="48.00721" lon="2.76302">
        <ele>99</ele>
        <time>2016-12-11T10:47:49.396Z</time>
      </trkpt>
      <trkpt lat="48.00721" lon="2.76294">
        <ele>99</ele>
        <time>2016-12-11T10:47:50.412Z</time>
      </trkpt>
      <trkpt lat="48.00721" lon="2.76294">
        <ele>99</ele>
        <time>2016-12-11T10:47:51.400Z</time>
      </trkpt>
      <trkpt lat="48.00721" lon="2.76279">
        <ele>99</ele>
        <time>2016-12-11T10:47:52.408Z</time>
      </trkpt>
      <trkpt lat="48.00721" lon="2.76279">
        <ele>99</ele>
        <time>2016-12-11T10:47:53.433Z</time>
      </trkpt>
      <trkpt lat="48.00722" lon="2.76265">
        <ele>100</ele>
        <time>2016-12-11T10:47:54.405Z</time>
      </trkpt>
      <trkpt lat="48.0072" lon="2.76258">
        <ele>100</ele>
        <time>2016-12-11T10:47:55.396Z</time>
      </trkpt>
      <trkpt lat="48.0072" lon="2.76258">
        <ele>100</ele>
        <time>2016-12-11T10:47:56.409Z</time>
      </trkpt>
      <trkpt lat="48.00714" lon="2.76246">
        <ele>99</ele>
        <time>2016-12-11T10:47:57.416Z</time>
      </trkpt>
      <trkpt lat="48.0071" lon="2.76243">
        <ele>98</ele>
        <time>2016-12-11T10:47:58.397Z</time>
      </trkpt>
      <trkpt lat="48.0071" lon="2.76243">
        <ele>98</ele>
        <time>2016-12-11T10:47:59.406Z</time>
      </trkpt>
      <trkpt lat="48.00702" lon="2.76244">
        <ele>98</ele>
        <time>2016-12-11T10:48:00.416Z</time>
      </trkpt>
      <trkpt lat="48.00702" lon="2.76244">
        <ele>98</ele>
        <time>2016-12-11T10:48:01.405Z</time>
      </trkpt>
      <trkpt lat="48.00693" lon="2.76249">
        <ele>98</ele>
        <time>2016-12-11T10:48:02.431Z</time>
      </trkpt>
      <trkpt lat="48.00693" lon="2.76249">
        <ele>98</ele>
        <time>2016-12-11T10:48:03.399Z</time>
      </trkpt>
      <trkpt lat="48.00685" lon="2.76252">
        <ele>97</ele>
        <time>2016-12-11T10:48:04.406Z</time>
      </trkpt>
      <trkpt lat="48.00685" lon="2.76252">
        <ele>97</ele>
        <time>2016-12-11T10:48:05.431Z</time>
      </trkpt>
      <trkpt lat="48.00676" lon="2.76256">
        <ele>97</ele>
        <time>2016-12-11T10:48:06.403Z</time>
      </trkpt>
      <trkpt lat="48.00676" lon="2.76256">
        <ele>97</ele>
        <time>2016-12-11T10:48:07.407Z</time>
      </trkpt>
      <trkpt lat="48.00668" lon="2.7626">
        <ele>97</ele>
        <time>2016-12-11T10:48:08.415Z</time>
      </trkpt>
      <trkpt lat="48.00664" lon="2.76264">
        <ele>98</ele>
        <time>2016-12-11T10:48:09.434Z</time>
      </trkpt>
      <trkpt lat="48.00664" lon="2.76264">
        <ele>98</ele>
        <time>2016-12-11T10:48:10.432Z</time>
      </trkpt>
      <trkpt lat="48.00655" lon="2.7627">
        <ele>99</ele>
        <time>2016-12-11T10:48:11.398Z</time>
      </trkpt>
      <trkpt lat="48.00651" lon="2.76273">
        <ele>99</ele>
        <time>2016-12-11T10:48:12.400Z</time>
      </trkpt>
      <trkpt lat="48.00646" lon="2.76276">
        <ele>99</ele>
        <time>2016-12-11T10:48:13.414Z</time>
      </trkpt>
      <trkpt lat="48.00646" lon="2.76276">
        <ele>99</ele>
        <time>2016-12-11T10:48:14.400Z</time>
      </trkpt>
      <trkpt lat="48.00635" lon="2.76281">
        <ele>99</ele>
        <time>2016-12-11T10:48:15.434Z</time>
      </trkpt>
      <trkpt lat="48.0063" lon="2.76284">
        <ele>100</ele>
        <time>2016-12-11T10:48:16.413Z</time>
      </trkpt>
      <trkpt lat="48.0063" lon="2.76284">
        <ele>100</ele>
        <time>2016-12-11T10:48:17.403Z</time>
      </trkpt>
      <trkpt lat="48.00621" lon="2.7629">
        <ele>100</ele>
        <time>2016-12-11T10:48:18.410Z</time>
      </trkpt>
      <trkpt lat="48.00621" lon="2.7629">
        <ele>100</ele>
        <time>2016-12-11T10:48:19.397Z</time>
      </trkpt>
      <trkpt lat="48.00611" lon="2.76295">
        <ele>100</ele>
        <time>2016-12-11T10:48:20.432Z</time>
      </trkpt>
      <trkpt lat="48.00611" lon="2.76295">
        <ele>100</ele>
        <time>2016-12-11T10:48:21.432Z</time>
      </trkpt>
      <trkpt lat="48.00602" lon="2.76299">
        <ele>100</ele>
        <time>2016-12-11T10:48:22.398Z</time>
      </trkpt>
      <trkpt lat="48.00602" lon="2.76299">
        <ele>100</ele>
        <time>2016-12-11T10:48:23.411Z</time>
      </trkpt>
      <trkpt lat="48.00593" lon="2.76304">
        <ele>100</ele>
        <time>2016-12-11T10:48:24.418Z</time>
      </trkpt>
      <trkpt lat="48.00593" lon="2.76304">
        <ele>100</ele>
        <time>2016-12-11T10:48:25.408Z</time>
      </trkpt>
      <trkpt lat="48.00583" lon="2.76309">
        <ele>101</ele>
        <time>2016-12-11T10:48:26.420Z</time>
      </trkpt>
      <trkpt lat="48.00583" lon="2.76309">
        <ele>101</ele>
        <time>2016-12-11T10:48:27.424Z</time>
      </trkpt>
      <trkpt lat="48.00575" lon="2.76312">
        <ele>101</ele>
        <time>2016-12-11T10:48:28.430Z</time>
      </trkpt>
      <trkpt lat="48.00575" lon="2.76312">
        <ele>101</ele>
        <time>2016-12-11T10:48:29.416Z</time>
      </trkpt>
      <trkpt lat="48.00568" lon="2.76316">
        <ele>102</ele>
        <time>2016-12-11T10:48:30.432Z</time>
      </trkpt>
      <trkpt lat="48.00568" lon="2.76316">
        <ele>102</ele>
        <time>2016-12-11T10:48:31.399Z</time>
      </trkpt>
      <trkpt lat="48.0056" lon="2.76321">
        <ele>103</ele>
        <time>2016-12-11T10:48:32.407Z</time>
      </trkpt>
      <trkpt lat="48.00556" lon="2.76323">
        <ele>104</ele>
        <time>2016-12-11T10:48:33.434Z</time>
      </trkpt>
      <trkpt lat="48.00552" lon="2.76325">
        <ele>104</ele>
        <time>2016-12-11T10:48:34.403Z</time>
      </trkpt>
      <trkpt lat="48.00552" lon="2.76325">
        <ele>104</ele>
        <time>2016-12-11T10:48:35.429Z</time>
      </trkpt>
      <trkpt lat="48.00544" lon="2.76331">
        <ele>105</ele>
        <time>2016-12-11T10:48:36.410Z</time>
      </trkpt>
      <trkpt lat="48.0054" lon="2.76335">
        <ele>104</ele>
        <time>2016-12-11T10:48:37.414Z</time>
      </trkpt>
      <trkpt lat="48.00538" lon="2.76339">
        <ele>104</ele>
        <time>2016-12-11T10:48:38.400Z</time>
      </trkpt>
      <trkpt lat="48.00538" lon="2.76339">
        <ele>104</ele>
        <time>2016-12-11T10:48:39.418Z</time>
      </trkpt>
      <trkpt lat="48.00537" lon="2.76348">
        <ele>105</ele>
        <time>2016-12-11T10:48:40.424Z</time>
      </trkpt>
      <trkpt lat="48.00537" lon="2.76348">
        <ele>105</ele>
        <time>2016-12-11T10:48:41.411Z</time>
      </trkpt>
      <trkpt lat="48.00537" lon="2.76357">
        <ele>106</ele>
        <time>2016-12-11T10:48:42.418Z</time>
      </trkpt>
      <trkpt lat="48.00537" lon="2.76357">
        <ele>106</ele>
        <time>2016-12-11T10:48:43.397Z</time>
      </trkpt>
      <trkpt lat="48.00539" lon="2.76365">
        <ele>107</ele>
        <time>2016-12-11T10:48:44.405Z</time>
      </trkpt>
      <trkpt lat="48.00539" lon="2.76365">
        <ele>107</ele>
        <time>2016-12-11T10:48:45.430Z</time>
      </trkpt>
      <trkpt lat="48.0054" lon="2.76373">
        <ele>107</ele>
        <time>2016-12-11T10:48:46.437Z</time>
      </trkpt>
      <trkpt lat="48.0054" lon="2.76373">
        <ele>107</ele>
        <time>2016-12-11T10:48:47.412Z</time>
      </trkpt>
      <trkpt lat="48.00541" lon="2.76382">
        <ele>108</ele>
        <time>2016-12-11T10:48:48.418Z</time>
      </trkpt>
      <trkpt lat="48.00541" lon="2.76382">
        <ele>108</ele>
        <time>2016-12-11T10:48:49.400Z</time>
      </trkpt>
      <trkpt lat="48.00541" lon="2.76392">
        <ele>108</ele>
        <time>2016-12-11T10:48:50.434Z</time>
      </trkpt>
      <trkpt lat="48.00541" lon="2.76397">
        <ele>108</ele>
        <time>2016-12-11T10:48:51.407Z</time>
      </trkpt>
      <trkpt lat="48.00541" lon="2.76397">
        <ele>108</ele>
        <time>2016-12-11T10:48:52.434Z</time>
      </trkpt>
      <trkpt lat="48.00541" lon="2.76407">
        <ele>109</ele>
        <time>2016-12-11T10:48:53.433Z</time>
      </trkpt>
      <trkpt lat="48.00541" lon="2.76407">
        <ele>109</ele>
        <time>2016-12-11T10:48:54.434Z</time>
      </trkpt>
      <trkpt lat="48.00542" lon="2.76418">
        <ele>109</ele>
        <time>2016-12-11T10:48:55.401Z</time>
      </trkpt>
      <trkpt lat="48.00542" lon="2.76418">
        <ele>109</ele>
        <time>2016-12-11T10:48:56.419Z</time>
      </trkpt>
      <trkpt lat="48.00542" lon="2.76427">
        <ele>110</ele>
        <time>2016-12-11T10:48:57.434Z</time>
      </trkpt>
      <trkpt lat="48.00542" lon="2.76427">
        <ele>110</ele>
        <time>2016-12-11T10:48:58.412Z</time>
      </trkpt>
      <trkpt lat="48.00543" lon="2.76437">
        <ele>110</ele>
        <time>2016-12-11T10:48:59.418Z</time>
      </trkpt>
      <trkpt lat="48.00543" lon="2.76437">
        <ele>110</ele>
        <time>2016-12-11T10:49:00.400Z</time>
      </trkpt>
      <trkpt lat="48.00544" lon="2.7645">
        <ele>110</ele>
        <time>2016-12-11T10:49:01.421Z</time>
      </trkpt>
      <trkpt lat="48.00544" lon="2.7645">
        <ele>110</ele>
        <time>2016-12-11T10:49:02.422Z</time>
      </trkpt>
      <trkpt lat="48.00546" lon="2.76463">
        <ele>111</ele>
        <time>2016-12-11T10:49:03.428Z</time>
      </trkpt>
      <trkpt lat="48.00548" lon="2.76469">
        <ele>111</ele>
        <time>2016-12-11T10:49:04.401Z</time>
      </trkpt>
      <trkpt lat="48.00548" lon="2.76469">
        <ele>111</ele>
        <time>2016-12-11T10:49:05.416Z</time>
      </trkpt>
      <trkpt lat="48.00548" lon="2.7648">
        <ele>111</ele>
        <time>2016-12-11T10:49:06.430Z</time>
      </trkpt>
      <trkpt lat="48.00548" lon="2.7648">
        <ele>111</ele>
        <time>2016-12-11T10:49:07.420Z</time>
      </trkpt>
      <trkpt lat="48.00543" lon="2.76488">
        <ele>111</ele>
        <time>2016-12-11T10:49:08.401Z</time>
      </trkpt>
      <trkpt lat="48.00543" lon="2.76488">
        <ele>111</ele>
        <time>2016-12-11T10:49:09.432Z</time>
      </trkpt>
      <trkpt lat="48.00534" lon="2.76496">
        <ele>112</ele>
        <time>2016-12-11T10:49:10.397Z</time>
      </trkpt>
      <trkpt lat="48.00534" lon="2.76496">
        <ele>112</ele>
        <time>2016-12-11T10:49:11.426Z</time>
      </trkpt>
      <trkpt lat="48.00525" lon="2.76506">
        <ele>112</ele>
        <time>2016-12-11T10:49:12.432Z</time>
      </trkpt>
      <trkpt lat="48.00525" lon="2.76506">
        <ele>112</ele>
        <time>2016-12-11T10:49:13.423Z</time>
      </trkpt>
      <trkpt lat="48.00515" lon="2.76517">
        <ele>112</ele>
        <time>2016-12-11T10:49:14.429Z</time>
      </trkpt>
      <trkpt lat="48.00515" lon="2.76517">
        <ele>112</ele>
        <time>2016-12-11T10:49:15.414Z</time>
      </trkpt>
      <trkpt lat="48.00505" lon="2.76527">
        <ele>113</ele>
        <time>2016-12-11T10:49:16.420Z</time>
      </trkpt>
      <trkpt lat="48.00505" lon="2.76527">
        <ele>113</ele>
        <time>2016-12-11T10:49:17.398Z</time>
      </trkpt>
      <trkpt lat="48.00493" lon="2.76537">
        <ele>113</ele>
        <time>2016-12-11T10:49:18.406Z</time>
      </trkpt>
      <trkpt lat="48.00487" lon="2.76542">
        <ele>113</ele>
        <time>2016-12-11T10:49:19.434Z</time>
      </trkpt>
      <trkpt lat="48.00481" lon="2.76547">
        <ele>112</ele>
        <time>2016-12-11T10:49:20.427Z</time>
      </trkpt>
      <trkpt lat="48.00481" lon="2.76547">
        <ele>112</ele>
        <time>2016-12-11T10:49:21.413Z</time>
      </trkpt>
      <trkpt lat="48.00469" lon="2.76554">
        <ele>112</ele>
        <time>2016-12-11T10:49:22.418Z</time>
      </trkpt>
      <trkpt lat="48.00469" lon="2.76554">
        <ele>112</ele>
        <time>2016-12-11T10:49:23.414Z</time>
      </trkpt>
      <trkpt lat="48.0046" lon="2.76553">
        <ele>112</ele>
        <time>2016-12-11T10:49:24.434Z</time>
      </trkpt>
      <trkpt lat="48.0046" lon="2.76553">
        <ele>112</ele>
        <time>2016-12-11T10:49:25.409Z</time>
      </trkpt>
      <trkpt lat="48.00453" lon="2.76559">
        <ele>112</ele>
        <time>2016-12-11T10:49:26.415Z</time>
      </trkpt>
      <trkpt lat="48.00453" lon="2.76559">
        <ele>112</ele>
        <time>2016-12-11T10:49:27.434Z</time>
      </trkpt>
      <trkpt lat="48.00444" lon="2.76567">
        <ele>112</ele>
        <time>2016-12-11T10:49:28.434Z</time>
      </trkpt>
      <trkpt lat="48.00444" lon="2.76567">
        <ele>112</ele>
        <time>2016-12-11T10:49:29.432Z</time>
      </trkpt>
      <trkpt lat="48.00435" lon="2.76572">
        <ele>111</ele>
        <time>2016-12-11T10:49:30.398Z</time>
      </trkpt>
      <trkpt lat="48.00431" lon="2.76572">
        <ele>111</ele>
        <time>2016-12-11T10:49:31.400Z</time>
      </trkpt>
      <trkpt lat="48.00431" lon="2.76572">
        <ele>111</ele>
        <time>2016-12-11T10:49:32.424Z</time>
      </trkpt>
      <trkpt lat="48.00422" lon="2.76575">
        <ele>111</ele>
        <time>2016-12-11T10:49:33.430Z</time>
      </trkpt>
      <trkpt lat="48.00418" lon="2.76577">
        <ele>110</ele>
        <time>2016-12-11T10:49:34.421Z</time>
      </trkpt>
      <trkpt lat="48.00418" lon="2.76577">
        <ele>110</ele>
        <time>2016-12-11T10:49:35.400Z</time>
      </trkpt>
      <trkpt lat="48.00413" lon="2.7658">
        <ele>110</ele>
        <time>2016-12-11T10:49:36.410Z</time>
      </trkpt>
      <trkpt lat="48.00413" lon="2.7658">
        <ele>110</ele>
        <time>2016-12-11T10:49:37.397Z</time>
      </trkpt>
      <trkpt lat="48.00409" lon="2.76583">
        <ele>110</ele>
        <time>2016-12-11T10:49:38.434Z</time>
      </trkpt>
      <trkpt lat="48.00409" lon="2.76583">
        <ele>110</ele>
        <time>2016-12-11T10:49:39.412Z</time>
      </trkpt>
      <trkpt lat="48.00407" lon="2.76591">
        <ele>110</ele>
        <time>2016-12-11T10:49:40.418Z</time>
      </trkpt>
      <trkpt lat="48.00407" lon="2.76591">
        <ele>110</ele>
        <time>2016-12-11T10:49:41.405Z</time>
      </trkpt>
      <trkpt lat="48.00405" lon="2.76599">
        <ele>110</ele>
        <time>2016-12-11T10:49:42.434Z</time>
      </trkpt>
      <trkpt lat="48.00405" lon="2.76599">
        <ele>110</ele>
        <time>2016-12-11T10:49:43.408Z</time>
      </trkpt>
      <trkpt lat="48.00408" lon="2.76609">
        <ele>110</ele>
        <time>2016-12-11T10:49:44.415Z</time>
      </trkpt>
      <trkpt lat="48.0041" lon="2.76614">
        <ele>110</ele>
        <time>2016-12-11T10:49:45.397Z</time>
      </trkpt>
      <trkpt lat="48.0041" lon="2.76614">
        <ele>110</ele>
        <time>2016-12-11T10:49:46.415Z</time>
      </trkpt>
      <trkpt lat="48.00415" lon="2.76626">
        <ele>111</ele>
        <time>2016-12-11T10:49:47.421Z</time>
      </trkpt>
      <trkpt lat="48.00415" lon="2.76626">
        <ele>111</ele>
        <time>2016-12-11T10:49:48.403Z</time>
      </trkpt>
      <trkpt lat="48.00421" lon="2.76635">
        <ele>111</ele>
        <time>2016-12-11T10:49:49.410Z</time>
      </trkpt>
      <trkpt lat="48.00421" lon="2.76635">
        <ele>111</ele>
        <time>2016-12-11T10:49:50.423Z</time>
      </trkpt>
      <trkpt lat="48.00429" lon="2.7664">
        <ele>111</ele>
        <time>2016-12-11T10:49:51.430Z</time>
      </trkpt>
      <trkpt lat="48.00433" lon="2.76643">
        <ele>111</ele>
        <time>2016-12-11T10:49:52.408Z</time>
      </trkpt>
      <trkpt lat="48.00433" lon="2.76643">
        <ele>111</ele>
        <time>2016-12-11T10:49:53.417Z</time>
      </trkpt>
      <trkpt lat="48.0044" lon="2.76648">
        <ele>111</ele>
        <time>2016-12-11T10:49:54.423Z</time>
      </trkpt>
      <trkpt lat="48.00444" lon="2.76652">
        <ele>111</ele>
        <time>2016-12-11T10:49:55.410Z</time>
      </trkpt>
      <trkpt lat="48.00444" lon="2.76652">
        <ele>111</ele>
        <time>2016-12-11T10:49:56.403Z</time>
      </trkpt>
      <trkpt lat="48.00453" lon="2.76662">
        <ele>111</ele>
        <time>2016-12-11T10:49:57.410Z</time>
      </trkpt>
      <trkpt lat="48.00455" lon="2.76669">
        <ele>111</ele>
        <time>2016-12-11T10:49:58.434Z</time>
      </trkpt>
      <trkpt lat="48.00455" lon="2.76669">
        <ele>111</ele>
        <time>2016-12-11T10:49:59.396Z</time>
      </trkpt>
      <trkpt lat="48.00461" lon="2.7668">
        <ele>111</ele>
        <time>2016-12-11T10:50:00.413Z</time>
      </trkpt>
      <trkpt lat="48.00464" lon="2.76684">
        <ele>111</ele>
        <time>2016-12-11T10:50:01.403Z</time>
      </trkpt>
      <trkpt lat="48.00464" lon="2.76684">
        <ele>111</ele>
        <time>2016-12-11T10:50:02.413Z</time>
      </trkpt>
      <trkpt lat="48.0047" lon="2.76692">
        <ele>112</ele>
        <time>2016-12-11T10:50:03.419Z</time>
      </trkpt>
      <trkpt lat="48.00475" lon="2.76697">
        <ele>112</ele>
        <time>2016-12-11T10:50:04.434Z</time>
      </trkpt>
      <trkpt lat="48.00475" lon="2.76697">
        <ele>112</ele>
        <time>2016-12-11T10:50:05.412Z</time>
      </trkpt>
      <trkpt lat="48.00483" lon="2.76704">
        <ele>112</ele>
        <time>2016-12-11T10:50:06.421Z</time>
      </trkpt>
      <trkpt lat="48.00486" lon="2.76709">
        <ele>112</ele>
        <time>2016-12-11T10:50:07.406Z</time>
      </trkpt>
      <trkpt lat="48.00486" lon="2.76709">
        <ele>112</ele>
        <time>2016-12-11T10:50:08.422Z</time>
      </trkpt>
      <trkpt lat="48.00494" lon="2.76718">
        <ele>113</ele>
        <time>2016-12-11T10:50:09.428Z</time>
      </trkpt>
      <trkpt lat="48.00497" lon="2.76723">
        <ele>113</ele>
        <time>2016-12-11T10:50:10.413Z</time>
      </trkpt>
      <trkpt lat="48.00497" lon="2.76723">
        <ele>113</ele>
        <time>2016-12-11T10:50:11.418Z</time>
      </trkpt>
      <trkpt lat="48.00503" lon="2.76734">
        <ele>113</ele>
        <time>2016-12-11T10:50:12.424Z</time>
      </trkpt>
      <trkpt lat="48.00504" lon="2.7674">
        <ele>113</ele>
        <time>2016-12-11T10:50:13.434Z</time>
      </trkpt>
      <trkpt lat="48.00504" lon="2.7674">
        <ele>113</ele>
        <time>2016-12-11T10:50:14.422Z</time>
      </trkpt>
      <trkpt lat="48.00506" lon="2.76749">
        <ele>114</ele>
        <time>2016-12-11T10:50:15.428Z</time>
      </trkpt>
      <trkpt lat="48.00507" lon="2.76753">
        <ele>114</ele>
        <time>2016-12-11T10:50:16.434Z</time>
      </trkpt>
      <trkpt lat="48.00507" lon="2.76753">
        <ele>114</ele>
        <time>2016-12-11T10:50:17.401Z</time>
      </trkpt>
      <trkpt lat="48.00509" lon="2.76759">
        <ele>115</ele>
        <time>2016-12-11T10:50:18.416Z</time>
      </trkpt>
      <trkpt lat="48.00509" lon="2.76759">
        <ele>115</ele>
        <time>2016-12-11T10:50:19.409Z</time>
      </trkpt>
      <trkpt lat="48.0051" lon="2.76764">
        <ele>115</ele>
        <time>2016-12-11T10:50:20.416Z</time>
      </trkpt>
      <trkpt lat="48.0051" lon="2.76764">
        <ele>115</ele>
        <time>2016-12-11T10:50:21.409Z</time>
      </trkpt>
      <trkpt lat="48.00508" lon="2.76769">
        <ele>115</ele>
        <time>2016-12-11T10:50:22.434Z</time>
      </trkpt>
      <trkpt lat="48.00508" lon="2.76769">
        <ele>115</ele>
        <time>2016-12-11T10:50:23.422Z</time>
      </trkpt>
      <trkpt lat="48.00507" lon="2.76776">
        <ele>115</ele>
        <time>2016-12-11T10:50:24.428Z</time>
      </trkpt>
      <trkpt lat="48.00507" lon="2.7678">
        <ele>116</ele>
        <time>2016-12-11T10:50:25.420Z</time>
      </trkpt>
      <trkpt lat="48.00507" lon="2.7678">
        <ele>116</ele>
        <time>2016-12-11T10:50:26.407Z</time>
      </trkpt>
      <trkpt lat="48.00506" lon="2.76787">
        <ele>116</ele>
        <time>2016-12-11T10:50:27.414Z</time>
      </trkpt>
      <trkpt lat="48.00504" lon="2.7679">
        <ele>116</ele>
        <time>2016-12-11T10:50:28.423Z</time>
      </trkpt>
      <trkpt lat="48.00504" lon="2.7679">
        <ele>116</ele>
        <time>2016-12-11T10:50:29.423Z</time>
      </trkpt>
      <trkpt lat="48.00501" lon="2.76791">
        <ele>116</ele>
        <time>2016-12-11T10:50:30.430Z</time>
      </trkpt>
      <trkpt lat="48.00501" lon="2.76791">
        <ele>116</ele>
        <time>2016-12-11T10:50:31.417Z</time>
      </trkpt>
      <trkpt lat="48.00498" lon="2.76788">
        <ele>116</ele>
        <time>2016-12-11T10:50:32.439Z</time>
      </trkpt>
      <trkpt lat="48.00498" lon="2.76788">
        <ele>116</ele>
        <time>2016-12-11T10:50:33.415Z</time>
      </trkpt>
      <trkpt lat="48.00496" lon="2.76784">
        <ele>116</ele>
        <time>2016-12-11T10:50:34.421Z</time>
      </trkpt>
      <trkpt lat="48.00496" lon="2.76784">
        <ele>116</ele>
        <time>2016-12-11T10:50:35.415Z</time>
      </trkpt>
      <trkpt lat="48.00497" lon="2.76779">
        <ele>115</ele>
        <time>2016-12-11T10:50:36.437Z</time>
      </trkpt>
      <trkpt lat="48.00497" lon="2.76779">
        <ele>115</ele>
        <time>2016-12-11T10:50:37.402Z</time>
      </trkpt>
      <trkpt lat="48.00497" lon="2.76771">
        <ele>114</ele>
        <time>2016-12-11T10:50:38.411Z</time>
      </trkpt>
      <trkpt lat="48.00497" lon="2.76771">
        <ele>114</ele>
        <time>2016-12-11T10:50:39.396Z</time>
      </trkpt>
      <trkpt lat="48.00497" lon="2.76762">
        <ele>113</ele>
        <time>2016-12-11T10:50:40.412Z</time>
      </trkpt>
      <trkpt lat="48.00497" lon="2.76762">
        <ele>113</ele>
        <time>2016-12-11T10:50:41.413Z</time>
      </trkpt>
      <trkpt lat="48.00492" lon="2.76756">
        <ele>113</ele>
        <time>2016-12-11T10:50:42.420Z</time>
      </trkpt>
      <trkpt lat="48.00489" lon="2.76755">
        <ele>112</ele>
        <time>2016-12-11T10:50:43.401Z</time>
      </trkpt>
      <trkpt lat="48.00489" lon="2.76755">
        <ele>112</ele>
        <time>2016-12-11T10:50:44.398Z</time>
      </trkpt>
      <trkpt lat="48.00485" lon="2.76754">
        <ele>112</ele>
        <time>2016-12-11T10:50:45.411Z</time>
      </trkpt>
      <trkpt lat="48.00484" lon="2.76752">
        <ele>111</ele>
        <time>2016-12-11T10:50:46.402Z</time>
      </trkpt>
      <trkpt lat="48.00484" lon="2.76752">
        <ele>111</ele>
        <time>2016-12-11T10:50:47.434Z</time>
      </trkpt>
      <trkpt lat="48.00485" lon="2.76745">
        <ele>111</ele>
        <time>2016-12-11T10:50:48.402Z</time>
      </trkpt>
      <trkpt lat="48.00485" lon="2.76745">
        <ele>111</ele>
        <time>2016-12-11T10:50:49.419Z</time>
      </trkpt>
      <trkpt lat="48.00486" lon="2.76736">
        <ele>111</ele>
        <time>2016-12-11T10:50:50.426Z</time>
      </trkpt>
      <trkpt lat="48.00486" lon="2.76731">
        <ele>111</ele>
        <time>2016-12-11T10:50:51.415Z</time>
      </trkpt>
      <trkpt lat="48.00485" lon="2.76728">
        <ele>110</ele>
        <time>2016-12-11T10:50:52.411Z</time>
      </trkpt>
      <trkpt lat="48.00485" lon="2.76728">
        <ele>110</ele>
        <time>2016-12-11T10:50:53.433Z</time>
      </trkpt>
      <trkpt lat="48.0048" lon="2.76725">
        <ele>109</ele>
        <time>2016-12-11T10:50:54.400Z</time>
      </trkpt>
      <trkpt lat="48.0048" lon="2.76725">
        <ele>109</ele>
        <time>2016-12-11T10:50:55.426Z</time>
      </trkpt>
      <trkpt lat="48.00474" lon="2.76724">
        <ele>108</ele>
        <time>2016-12-11T10:50:56.434Z</time>
      </trkpt>
      <trkpt lat="48.00474" lon="2.76724">
        <ele>108</ele>
        <time>2016-12-11T10:50:57.423Z</time>
      </trkpt>
      <trkpt lat="48.00469" lon="2.76724">
        <ele>107</ele>
        <time>2016-12-11T10:50:58.429Z</time>
      </trkpt>
      <trkpt lat="48.00469" lon="2.76724">
        <ele>107</ele>
        <time>2016-12-11T10:50:59.423Z</time>
      </trkpt>
      <trkpt lat="48.00467" lon="2.76721">
        <ele>107</ele>
        <time>2016-12-11T10:51:00.454Z</time>
      </trkpt>
      <trkpt lat="48.00467" lon="2.76721">
        <ele>107</ele>
        <time>2016-12-11T10:51:01.408Z</time>
      </trkpt>
      <trkpt lat="48.00465" lon="2.76718">
        <ele>107</ele>
        <time>2016-12-11T10:51:02.416Z</time>
      </trkpt>
      <trkpt lat="48.00465" lon="2.76718">
        <ele>107</ele>
        <time>2016-12-11T10:51:03.434Z</time>
      </trkpt>
      <trkpt lat="48.00462" lon="2.76715">
        <ele>106</ele>
        <time>2016-12-11T10:51:04.434Z</time>
      </trkpt>
      <trkpt lat="48.00462" lon="2.76715">
        <ele>106</ele>
        <time>2016-12-11T10:51:05.431Z</time>
      </trkpt>
      <trkpt lat="48.00455" lon="2.76713">
        <ele>106</ele>
        <time>2016-12-11T10:51:06.397Z</time>
      </trkpt>
      <trkpt lat="48.00452" lon="2.76711">
        <ele>105</ele>
        <time>2016-12-11T10:51:07.433Z</time>
      </trkpt>
      <trkpt lat="48.00452" lon="2.76711">
        <ele>105</ele>
        <time>2016-12-11T10:51:08.420Z</time>
      </trkpt>
      <trkpt lat="48.00449" lon="2.76707">
        <ele>105</ele>
        <time>2016-12-11T10:51:09.426Z</time>
      </trkpt>
      <trkpt lat="48.0045" lon="2.76701">
        <ele>105</ele>
        <time>2016-12-11T10:51:10.413Z</time>
      </trkpt>
      <trkpt lat="48.0045" lon="2.76701">
        <ele>105</ele>
        <time>2016-12-11T10:51:11.428Z</time>
      </trkpt>
      <trkpt lat="48.00445" lon="2.7669">
        <ele>104</ele>
        <time>2016-12-11T10:51:12.436Z</time>
      </trkpt>
      <trkpt lat="48.00445" lon="2.7669">
        <ele>104</ele>
        <time>2016-12-11T10:51:13.415Z</time>
      </trkpt>
      <trkpt lat="48.00439" lon="2.76683">
        <ele>104</ele>
        <time>2016-12-11T10:51:14.434Z</time>
      </trkpt>
      <trkpt lat="48.00439" lon="2.76683">
        <ele>104</ele>
        <time>2016-12-11T10:51:15.412Z</time>
      </trkpt>
      <trkpt lat="48.00433" lon="2.7668">
        <ele>103</ele>
        <time>2016-12-11T10:51:16.419Z</time>
      </trkpt>
      <trkpt lat="48.00433" lon="2.7668">
        <ele>103</ele>
        <time>2016-12-11T10:51:17.431Z</time>
      </trkpt>
      <trkpt lat="48.00427" lon="2.76677">
        <ele>102</ele>
        <time>2016-12-11T10:51:18.400Z</time>
      </trkpt>
      <trkpt lat="48.00424" lon="2.76675">
        <ele>102</ele>
        <time>2016-12-11T10:51:19.427Z</time>
      </trkpt>
      <trkpt lat="48.00424" lon="2.76675">
        <ele>102</ele>
        <time>2016-12-11T10:51:20.408Z</time>
      </trkpt>
      <trkpt lat="48.00418" lon="2.76672">
        <ele>102</ele>
        <time>2016-12-11T10:51:21.415Z</time>
      </trkpt>
      <trkpt lat="48.00418" lon="2.76672">
        <ele>102</ele>
        <time>2016-12-11T10:51:22.420Z</time>
      </trkpt>
      <trkpt lat="48.00415" lon="2.7667">
        <ele>101</ele>
        <time>2016-12-11T10:51:23.433Z</time>
      </trkpt>
      <trkpt lat="48.00415" lon="2.7667">
        <ele>101</ele>
        <time>2016-12-11T10:51:24.432Z</time>
      </trkpt>
      <trkpt lat="48.0041" lon="2.76668">
        <ele>101</ele>
        <time>2016-12-11T10:51:25.398Z</time>
      </trkpt>
      <trkpt lat="48.00408" lon="2.76665">
        <ele>101</ele>
        <time>2016-12-11T10:51:26.427Z</time>
      </trkpt>
      <trkpt lat="48.00406" lon="2.76663">
        <ele>100</ele>
        <time>2016-12-11T10:51:27.423Z</time>
      </trkpt>
      <trkpt lat="48.00406" lon="2.76663">
        <ele>100</ele>
        <time>2016-12-11T10:51:28.410Z</time>
      </trkpt>
      <trkpt lat="48.00402" lon="2.7666">
        <ele>100</ele>
        <time>2016-12-11T10:51:29.415Z</time>
      </trkpt>
      <trkpt lat="48.00402" lon="2.7666">
        <ele>100</ele>
        <time>2016-12-11T10:51:30.427Z</time>
      </trkpt>
      <trkpt lat="48.00398" lon="2.76655">
        <ele>99</ele>
        <time>2016-12-11T10:51:31.434Z</time>
      </trkpt>
      <trkpt lat="48.00397" lon="2.76652">
        <ele>99</ele>
        <time>2016-12-11T10:51:32.433Z</time>
      </trkpt>
      <trkpt lat="48.00397" lon="2.76652">
        <ele>99</ele>
        <time>2016-12-11T10:51:33.412Z</time>
      </trkpt>
      <trkpt lat="48.00395" lon="2.76646">
        <ele>99</ele>
        <time>2016-12-11T10:51:34.427Z</time>
      </trkpt>
      <trkpt lat="48.00395" lon="2.76646">
        <ele>99</ele>
        <time>2016-12-11T10:51:35.414Z</time>
      </trkpt>
      <trkpt lat="48.00392" lon="2.76639">
        <ele>98</ele>
        <time>2016-12-11T10:51:36.398Z</time>
      </trkpt>
      <trkpt lat="48.00392" lon="2.76639">
        <ele>98</ele>
        <time>2016-12-11T10:51:37.414Z</time>
      </trkpt>
      <trkpt lat="48.0039" lon="2.76631">
        <ele>98</ele>
        <time>2016-12-11T10:51:38.421Z</time>
      </trkpt>
      <trkpt lat="48.0039" lon="2.76631">
        <ele>98</ele>
        <time>2016-12-11T10:51:39.400Z</time>
      </trkpt>
      <trkpt lat="48.00387" lon="2.76625">
        <ele>98</ele>
        <time>2016-12-11T10:51:40.428Z</time>
      </trkpt>
      <trkpt lat="48.00387" lon="2.76625">
        <ele>98</ele>
        <time>2016-12-11T10:51:41.398Z</time>
      </trkpt>
      <trkpt lat="48.00384" lon="2.7662">
        <ele>97</ele>
        <time>2016-12-11T10:51:42.404Z</time>
      </trkpt>
      <trkpt lat="48.00382" lon="2.76617">
        <ele>96</ele>
        <time>2016-12-11T10:51:43.434Z</time>
      </trkpt>
      <trkpt lat="48.00382" lon="2.76617">
        <ele>96</ele>
        <time>2016-12-11T10:51:44.412Z</time>
      </trkpt>
      <trkpt lat="48.00379" lon="2.76612">
        <ele>95</ele>
        <time>2016-12-11T10:51:45.418Z</time>
      </trkpt>
      <trkpt lat="48.00379" lon="2.76612">
        <ele>95</ele>
        <time>2016-12-11T10:51:46.410Z</time>
      </trkpt>
      <trkpt lat="48.00376" lon="2.76606">
        <ele>95</ele>
        <time>2016-12-11T10:51:47.396Z</time>
      </trkpt>
      <trkpt lat="48.00376" lon="2.76606">
        <ele>95</ele>
        <time>2016-12-11T10:51:48.398Z</time>
      </trkpt>
      <trkpt lat="48.00372" lon="2.76603">
        <ele>94</ele>
        <time>2016-12-11T10:51:49.418Z</time>
      </trkpt>
      <trkpt lat="48.00372" lon="2.76603">
        <ele>94</ele>
        <time>2016-12-11T10:51:50.412Z</time>
      </trkpt>
      <trkpt lat="48.00368" lon="2.76603">
        <ele>94</ele>
        <time>2016-12-11T10:51:51.402Z</time>
      </trkpt>
      <trkpt lat="48.00368" lon="2.76603">
        <ele>94</ele>
        <time>2016-12-11T10:51:52.398Z</time>
      </trkpt>
      <trkpt lat="48.00364" lon="2.76604">
        <ele>94</ele>
        <time>2016-12-11T10:51:53.408Z</time>
      </trkpt>
      <trkpt lat="48.00364" lon="2.76604">
        <ele>94</ele>
        <time>2016-12-11T10:51:54.435Z</time>
      </trkpt>
      <trkpt lat="48.00358" lon="2.76607">
        <ele>94</ele>
        <time>2016-12-11T10:51:55.434Z</time>
      </trkpt>
      <trkpt lat="48.00358" lon="2.76607">
        <ele>94</ele>
        <time>2016-12-11T10:51:56.399Z</time>
      </trkpt>
      <trkpt lat="48.00353" lon="2.76605">
        <ele>94</ele>
        <time>2016-12-11T10:51:57.410Z</time>
      </trkpt>
      <trkpt lat="48.00351" lon="2.76603">
        <ele>94</ele>
        <time>2016-12-11T10:51:58.438Z</time>
      </trkpt>
      <trkpt lat="48.00351" lon="2.76603">
        <ele>94</ele>
        <time>2016-12-11T10:51:59.433Z</time>
      </trkpt>
      <trkpt lat="48.00349" lon="2.76598">
        <ele>94</ele>
        <time>2016-12-11T10:52:00.400Z</time>
      </trkpt>
      <trkpt lat="48.00346" lon="2.76597">
        <ele>94</ele>
        <time>2016-12-11T10:52:01.432Z</time>
      </trkpt>
      <trkpt lat="48.00346" lon="2.76597">
        <ele>94</ele>
        <time>2016-12-11T10:52:02.422Z</time>
      </trkpt>
      <trkpt lat="48.00341" lon="2.76597">
        <ele>94</ele>
        <time>2016-12-11T10:52:03.428Z</time>
      </trkpt>
      <trkpt lat="48.00338" lon="2.76597">
        <ele>94</ele>
        <time>2016-12-11T10:52:04.431Z</time>
      </trkpt>
      <trkpt lat="48.00338" lon="2.76597">
        <ele>94</ele>
        <time>2016-12-11T10:52:05.433Z</time>
      </trkpt>
      <trkpt lat="48.00332" lon="2.76602">
        <ele>94</ele>
        <time>2016-12-11T10:52:06.399Z</time>
      </trkpt>
      <trkpt lat="48.00331" lon="2.76605">
        <ele>94</ele>
        <time>2016-12-11T10:52:07.424Z</time>
      </trkpt>
      <trkpt lat="48.0033" lon="2.76608">
        <ele>94</ele>
        <time>2016-12-11T10:52:08.424Z</time>
      </trkpt>
      <trkpt lat="48.0033" lon="2.76608">
        <ele>94</ele>
        <time>2016-12-11T10:52:09.410Z</time>
      </trkpt>
      <trkpt lat="48.00326" lon="2.76611">
        <ele>94</ele>
        <time>2016-12-11T10:52:10.418Z</time>
      </trkpt>
      <trkpt lat="48.00326" lon="2.76611">
        <ele>94</ele>
        <time>2016-12-11T10:52:11.396Z</time>
      </trkpt>
      <trkpt lat="48.00323" lon="2.76615">
        <ele>94</ele>
        <time>2016-12-11T10:52:12.415Z</time>
      </trkpt>
      <trkpt lat="48.00323" lon="2.76615">
        <ele>94</ele>
        <time>2016-12-11T10:52:13.431Z</time>
      </trkpt>
      <trkpt lat="48.0032" lon="2.76618">
        <ele>94</ele>
        <time>2016-12-11T10:52:14.397Z</time>
      </trkpt>
      <trkpt lat="48.0032" lon="2.76618">
        <ele>94</ele>
        <time>2016-12-11T10:52:15.410Z</time>
      </trkpt>
      <trkpt lat="48.00318" lon="2.76616">
        <ele>95</ele>
        <time>2016-12-11T10:52:16.434Z</time>
      </trkpt>
      <trkpt lat="48.00318" lon="2.76616">
        <ele>95</ele>
        <time>2016-12-11T10:52:17.421Z</time>
      </trkpt>
      <trkpt lat="48.00318" lon="2.76612">
        <ele>95</ele>
        <time>2016-12-11T10:52:18.410Z</time>
      </trkpt>
      <trkpt lat="48.00318" lon="2.76612">
        <ele>95</ele>
        <time>2016-12-11T10:52:19.435Z</time>
      </trkpt>
      <trkpt lat="48.00318" lon="2.76607">
        <ele>95</ele>
        <time>2016-12-11T10:52:20.401Z</time>
      </trkpt>
      <trkpt lat="48.00318" lon="2.76607">
        <ele>95</ele>
        <time>2016-12-11T10:52:21.428Z</time>
      </trkpt>
      <trkpt lat="48.0032" lon="2.766">
        <ele>95</ele>
        <time>2016-12-11T10:52:22.433Z</time>
      </trkpt>
      <trkpt lat="48.0032" lon="2.766">
        <ele>95</ele>
        <time>2016-12-11T10:52:23.411Z</time>
      </trkpt>
      <trkpt lat="48.00321" lon="2.76594">
        <ele>95</ele>
        <time>2016-12-11T10:52:24.417Z</time>
      </trkpt>
      <trkpt lat="48.00321" lon="2.76594">
        <ele>95</ele>
        <time>2016-12-11T10:52:25.409Z</time>
      </trkpt>
      <trkpt lat="48.00323" lon="2.76587">
        <ele>95</ele>
        <time>2016-12-11T10:52:26.434Z</time>
      </trkpt>
      <trkpt lat="48.00323" lon="2.76587">
        <ele>95</ele>
        <time>2016-12-11T10:52:27.433Z</time>
      </trkpt>
      <trkpt lat="48.00325" lon="2.7658">
        <ele>95</ele>
        <time>2016-12-11T10:52:28.398Z</time>
      </trkpt>
      <trkpt lat="48.00325" lon="2.7658">
        <ele>95</ele>
        <time>2016-12-11T10:52:29.418Z</time>
      </trkpt>
      <trkpt lat="48.00325" lon="2.76571">
        <ele>95</ele>
        <time>2016-12-11T10:52:30.434Z</time>
      </trkpt>
      <trkpt lat="48.00325" lon="2.76571">
        <ele>95</ele>
        <time>2016-12-11T10:52:31.406Z</time>
      </trkpt>
      <trkpt lat="48.00327" lon="2.76563">
        <ele>95</ele>
        <time>2016-12-11T10:52:32.413Z</time>
      </trkpt>
      <trkpt lat="48.00327" lon="2.76558">
        <ele>95</ele>
        <time>2016-12-11T10:52:33.429Z</time>
      </trkpt>
      <trkpt lat="48.00327" lon="2.76554">
        <ele>95</ele>
        <time>2016-12-11T10:52:34.416Z</time>
      </trkpt>
      <trkpt lat="48.00327" lon="2.76554">
        <ele>95</ele>
        <time>2016-12-11T10:52:35.409Z</time>
      </trkpt>
      <trkpt lat="48.00327" lon="2.76545">
        <ele>95</ele>
        <time>2016-12-11T10:52:36.434Z</time>
      </trkpt>
      <trkpt lat="48.00327" lon="2.76545">
        <ele>95</ele>
        <time>2016-12-11T10:52:37.432Z</time>
      </trkpt>
      <trkpt lat="48.00325" lon="2.76537">
        <ele>95</ele>
        <time>2016-12-11T10:52:38.398Z</time>
      </trkpt>
      <trkpt lat="48.00323" lon="2.76533">
        <ele>94</ele>
        <time>2016-12-11T10:52:39.415Z</time>
      </trkpt>
      <trkpt lat="48.00321" lon="2.76528">
        <ele>94</ele>
        <time>2016-12-11T10:52:40.425Z</time>
      </trkpt>
      <trkpt lat="48.00321" lon="2.76528">
        <ele>94</ele>
        <time>2016-12-11T10:52:41.411Z</time>
      </trkpt>
      <trkpt lat="48.00318" lon="2.76521">
        <ele>94</ele>
        <time>2016-12-11T10:52:42.400Z</time>
      </trkpt>
      <trkpt lat="48.00318" lon="2.76521">
        <ele>94</ele>
        <time>2016-12-11T10:52:43.428Z</time>
      </trkpt>
      <trkpt lat="48.00316" lon="2.76514">
        <ele>94</ele>
        <time>2016-12-11T10:52:44.434Z</time>
      </trkpt>
      <trkpt lat="48.00316" lon="2.76514">
        <ele>94</ele>
        <time>2016-12-11T10:52:45.414Z</time>
      </trkpt>
      <trkpt lat="48.00314" lon="2.76509">
        <ele>93</ele>
        <time>2016-12-11T10:52:46.402Z</time>
      </trkpt>
      <trkpt lat="48.00314" lon="2.76509">
        <ele>93</ele>
        <time>2016-12-11T10:52:47.412Z</time>
      </trkpt>
      <trkpt lat="48.00313" lon="2.76503">
        <ele>93</ele>
        <time>2016-12-11T10:52:48.419Z</time>
      </trkpt>
      <trkpt lat="48.00313" lon="2.76503">
        <ele>93</ele>
        <time>2016-12-11T10:52:49.435Z</time>
      </trkpt>
      <trkpt lat="48.00311" lon="2.76499">
        <ele>92</ele>
        <time>2016-12-11T10:52:50.433Z</time>
      </trkpt>
      <trkpt lat="48.00311" lon="2.76499">
        <ele>92</ele>
        <time>2016-12-11T10:52:51.435Z</time>
      </trkpt>
      <trkpt lat="48.0031" lon="2.76496">
        <ele>92</ele>
        <time>2016-12-11T10:52:52.401Z</time>
      </trkpt>
      <trkpt lat="48.0031" lon="2.76494">
        <ele>92</ele>
        <time>2016-12-11T10:52:53.434Z</time>
      </trkpt>
      <trkpt lat="48.0031" lon="2.76494">
        <ele>92</ele>
        <time>2016-12-11T10:52:54.425Z</time>
      </trkpt>
      <trkpt lat="48.00308" lon="2.76489">
        <ele>92</ele>
        <time>2016-12-11T10:52:55.432Z</time>
      </trkpt>
      <trkpt lat="48.00308" lon="2.76487">
        <ele>92</ele>
        <time>2016-12-11T10:52:56.434Z</time>
      </trkpt>
      <trkpt lat="48.00308" lon="2.76487">
        <ele>92</ele>
        <time>2016-12-11T10:52:57.405Z</time>
      </trkpt>
      <trkpt lat="48.00306" lon="2.76483">
        <ele>92</ele>
        <time>2016-12-11T10:52:58.413Z</time>
      </trkpt>
      <trkpt lat="48.00305" lon="2.76482">
        <ele>92</ele>
        <time>2016-12-11T10:52:59.434Z</time>
      </trkpt>
      <trkpt lat="48.00305" lon="2.76482">
        <ele>92</ele>
        <time>2016-12-11T10:53:00.423Z</time>
      </trkpt>
      <trkpt lat="48.00303" lon="2.76478">
        <ele>92</ele>
        <time>2016-12-11T10:53:01.430Z</time>
      </trkpt>
      <trkpt lat="48.00303" lon="2.76478">
        <ele>92</ele>
        <time>2016-12-11T10:53:02.421Z</time>
      </trkpt>
      <trkpt lat="48.00302" lon="2.76475">
        <ele>91</ele>
        <time>2016-12-11T10:53:03.399Z</time>
      </trkpt>
      <trkpt lat="48.00302" lon="2.76475">
        <ele>91</ele>
        <time>2016-12-11T10:53:04.402Z</time>
      </trkpt>
      <trkpt lat="48.00301" lon="2.76472">
        <ele>91</ele>
        <time>2016-12-11T10:53:05.412Z</time>
      </trkpt>
      <trkpt lat="48.00301" lon="2.76472">
        <ele>91</ele>
        <time>2016-12-11T10:53:06.407Z</time>
      </trkpt>
      <trkpt lat="48.003" lon="2.76469">
        <ele>91</ele>
        <time>2016-12-11T10:53:07.433Z</time>
      </trkpt>
      <trkpt lat="48.003" lon="2.76469">
        <ele>91</ele>
        <time>2016-12-11T10:53:08.434Z</time>
      </trkpt>
      <trkpt lat="48.00299" lon="2.76466">
        <ele>92</ele>
        <time>2016-12-11T10:53:09.399Z</time>
      </trkpt>
      <trkpt lat="48.00299" lon="2.76466">
        <ele>92</ele>
        <time>2016-12-11T10:53:10.424Z</time>
      </trkpt>
      <trkpt lat="48.00297" lon="2.76463">
        <ele>92</ele>
        <time>2016-12-11T10:53:11.397Z</time>
      </trkpt>
      <trkpt lat="48.00297" lon="2.76463">
        <ele>92</ele>
        <time>2016-12-11T10:53:12.409Z</time>
      </trkpt>
      <trkpt lat="48.00296" lon="2.7646">
        <ele>92</ele>
        <time>2016-12-11T10:53:13.444Z</time>
      </trkpt>
      <trkpt lat="48.00296" lon="2.76459">
        <ele>92</ele>
        <time>2016-12-11T10:53:14.420Z</time>
      </trkpt>
      <trkpt lat="48.00296" lon="2.76459">
        <ele>92</ele>
        <time>2016-12-11T10:53:15.409Z</time>
      </trkpt>
      <trkpt lat="48.00296" lon="2.76457">
        <ele>93</ele>
        <time>2016-12-11T10:53:16.415Z</time>
      </trkpt>
      <trkpt lat="48.00296" lon="2.76457">
        <ele>93</ele>
        <time>2016-12-11T10:53:17.411Z</time>
      </trkpt>
      <trkpt lat="48.00297" lon="2.76454">
        <ele>93</ele>
        <time>2016-12-11T10:53:18.426Z</time>
      </trkpt>
      <trkpt lat="48.00297" lon="2.76453">
        <ele>94</ele>
        <time>2016-12-11T10:53:19.422Z</time>
      </trkpt>
      <trkpt lat="48.00297" lon="2.76453">
        <ele>94</ele>
        <time>2016-12-11T10:53:20.409Z</time>
      </trkpt>
      <trkpt lat="48.00297" lon="2.76449">
        <ele>94</ele>
        <time>2016-12-11T10:53:21.416Z</time>
      </trkpt>
      <trkpt lat="48.00297" lon="2.76449">
        <ele>94</ele>
        <time>2016-12-11T10:53:22.413Z</time>
      </trkpt>
      <trkpt lat="48.00296" lon="2.76445">
        <ele>94</ele>
        <time>2016-12-11T10:53:23.420Z</time>
      </trkpt>
      <trkpt lat="48.00296" lon="2.76445">
        <ele>94</ele>
        <time>2016-12-11T10:53:24.398Z</time>
      </trkpt>
      <trkpt lat="48.00295" lon="2.76442">
        <ele>95</ele>
        <time>2016-12-11T10:53:25.431Z</time>
      </trkpt>
      <trkpt lat="48.00295" lon="2.7644">
        <ele>95</ele>
        <time>2016-12-11T10:53:26.398Z</time>
      </trkpt>
      <trkpt lat="48.00295" lon="2.7644">
        <ele>95</ele>
        <time>2016-12-11T10:53:27.427Z</time>
      </trkpt>
      <trkpt lat="48.00296" lon="2.76437">
        <ele>96</ele>
        <time>2016-12-11T10:53:28.413Z</time>
      </trkpt>
      <trkpt lat="48.00296" lon="2.76437">
        <ele>96</ele>
        <time>2016-12-11T10:53:29.412Z</time>
      </trkpt>
      <trkpt lat="48.00296" lon="2.76435">
        <ele>96</ele>
        <time>2016-12-11T10:53:30.418Z</time>
      </trkpt>
      <trkpt lat="48.00296" lon="2.76435">
        <ele>96</ele>
        <time>2016-12-11T10:53:31.407Z</time>
      </trkpt>
      <trkpt lat="48.00295" lon="2.76432">
        <ele>96</ele>
        <time>2016-12-11T10:53:32.434Z</time>
      </trkpt>
      <trkpt lat="48.00295" lon="2.76432">
        <ele>96</ele>
        <time>2016-12-11T10:53:33.430Z</time>
      </trkpt>
      <trkpt lat="48.00294" lon="2.76429">
        <ele>96</ele>
        <time>2016-12-11T10:53:34.435Z</time>
      </trkpt>
      <trkpt lat="48.00294" lon="2.76429">
        <ele>96</ele>
        <time>2016-12-11T10:53:35.422Z</time>
      </trkpt>
      <trkpt lat="48.00293" lon="2.76424">
        <ele>97</ele>
        <time>2016-12-11T10:53:36.413Z</time>
      </trkpt>
      <trkpt lat="48.00293" lon="2.76424">
        <ele>97</ele>
        <time>2016-12-11T10:53:37.421Z</time>
      </trkpt>
      <trkpt lat="48.00292" lon="2.76419">
        <ele>97</ele>
        <time>2016-12-11T10:53:38.427Z</time>
      </trkpt>
      <trkpt lat="48.00292" lon="2.76419">
        <ele>97</ele>
        <time>2016-12-11T10:53:39.413Z</time>
      </trkpt>
      <trkpt lat="48.00291" lon="2.76414">
        <ele>98</ele>
        <time>2016-12-11T10:53:40.434Z</time>
      </trkpt>
      <trkpt lat="48.00291" lon="2.76414">
        <ele>98</ele>
        <time>2016-12-11T10:53:41.401Z</time>
      </trkpt>
      <trkpt lat="48.00291" lon="2.76408">
        <ele>98</ele>
        <time>2016-12-11T10:53:42.413Z</time>
      </trkpt>
      <trkpt lat="48.00291" lon="2.76408">
        <ele>98</ele>
        <time>2016-12-11T10:53:43.403Z</time>
      </trkpt>
      <trkpt lat="48.0029" lon="2.76403">
        <ele>98</ele>
        <time>2016-12-11T10:53:44.434Z</time>
      </trkpt>
      <trkpt lat="48.0029" lon="2.76403">
        <ele>98</ele>
        <time>2016-12-11T10:53:45.415Z</time>
      </trkpt>
      <trkpt lat="48.00289" lon="2.76395">
        <ele>98</ele>
        <time>2016-12-11T10:53:46.420Z</time>
      </trkpt>
      <trkpt lat="48.00289" lon="2.76395">
        <ele>98</ele>
        <time>2016-12-11T10:53:47.406Z</time>
      </trkpt>
      <trkpt lat="48.00287" lon="2.76387">
        <ele>98</ele>
        <time>2016-12-11T10:53:48.397Z</time>
      </trkpt>
      <trkpt lat="48.00287" lon="2.76387">
        <ele>98</ele>
        <time>2016-12-11T10:53:49.410Z</time>
      </trkpt>
      <trkpt lat="48.00285" lon="2.76379">
        <ele>98</ele>
        <time>2016-12-11T10:53:50.416Z</time>
      </trkpt>
      <trkpt lat="48.00285" lon="2.76375">
        <ele>98</ele>
        <time>2016-12-11T10:53:51.423Z</time>
      </trkpt>
      <trkpt lat="48.00285" lon="2.76375">
        <ele>98</ele>
        <time>2016-12-11T10:53:52.416Z</time>
      </trkpt>
      <trkpt lat="48.00283" lon="2.76367">
        <ele>98</ele>
        <time>2016-12-11T10:53:53.423Z</time>
      </trkpt>
      <trkpt lat="48.00283" lon="2.76367">
        <ele>98</ele>
        <time>2016-12-11T10:53:54.433Z</time>
      </trkpt>
      <trkpt lat="48.00281" lon="2.76359">
        <ele>99</ele>
        <time>2016-12-11T10:53:55.399Z</time>
      </trkpt>
      <trkpt lat="48.0028" lon="2.76355">
        <ele>99</ele>
        <time>2016-12-11T10:53:56.432Z</time>
      </trkpt>
      <trkpt lat="48.0028" lon="2.76355">
        <ele>99</ele>
        <time>2016-12-11T10:53:57.420Z</time>
      </trkpt>
      <trkpt lat="48.00279" lon="2.76345">
        <ele>99</ele>
        <time>2016-12-11T10:53:58.426Z</time>
      </trkpt>
      <trkpt lat="48.00279" lon="2.76345">
        <ele>99</ele>
        <time>2016-12-11T10:53:59.416Z</time>
      </trkpt>
      <trkpt lat="48.00279" lon="2.76335">
        <ele>99</ele>
        <time>2016-12-11T10:54:00.434Z</time>
      </trkpt>
      <trkpt lat="48.00279" lon="2.76335">
        <ele>99</ele>
        <time>2016-12-11T10:54:01.416Z</time>
      </trkpt>
      <trkpt lat="48.00278" lon="2.76326">
        <ele>99</ele>
        <time>2016-12-11T10:54:02.423Z</time>
      </trkpt>
      <trkpt lat="48.00278" lon="2.76321">
        <ele>99</ele>
        <time>2016-12-11T10:54:03.398Z</time>
      </trkpt>
      <trkpt lat="48.00278" lon="2.76315">
        <ele>99</ele>
        <time>2016-12-11T10:54:04.425Z</time>
      </trkpt>
      <trkpt lat="48.00278" lon="2.76315">
        <ele>99</ele>
        <time>2016-12-11T10:54:05.412Z</time>
      </trkpt>
      <trkpt lat="48.00276" lon="2.76301">
        <ele>98</ele>
        <time>2016-12-11T10:54:06.418Z</time>
      </trkpt>
      <trkpt lat="48.00276" lon="2.76301">
        <ele>98</ele>
        <time>2016-12-11T10:54:07.435Z</time>
      </trkpt>
      <trkpt lat="48.00274" lon="2.76288">
        <ele>98</ele>
        <time>2016-12-11T10:54:08.402Z</time>
      </trkpt>
      <trkpt lat="48.00274" lon="2.76288">
        <ele>98</ele>
        <time>2016-12-11T10:54:09.423Z</time>
      </trkpt>
      <trkpt lat="48.00271" lon="2.76277">
        <ele>96</ele>
        <time>2016-12-11T10:54:10.428Z</time>
      </trkpt>
      <trkpt lat="48.00271" lon="2.76277">
        <ele>96</ele>
        <time>2016-12-11T10:54:11.407Z</time>
      </trkpt>
      <trkpt lat="48.00268" lon="2.76265">
        <ele>96</ele>
        <time>2016-12-11T10:54:12.434Z</time>
      </trkpt>
      <trkpt lat="48.00268" lon="2.76265">
        <ele>96</ele>
        <time>2016-12-11T10:54:13.412Z</time>
      </trkpt>
      <trkpt lat="48.00266" lon="2.76253">
        <ele>95</ele>
        <time>2016-12-11T10:54:14.418Z</time>
      </trkpt>
      <trkpt lat="48.00266" lon="2.76253">
        <ele>95</ele>
        <time>2016-12-11T10:54:15.409Z</time>
      </trkpt>
      <trkpt lat="48.00265" lon="2.76241">
        <ele>94</ele>
        <time>2016-12-11T10:54:16.402Z</time>
      </trkpt>
      <trkpt lat="48.00265" lon="2.76241">
        <ele>94</ele>
        <time>2016-12-11T10:54:17.400Z</time>
      </trkpt>
      <trkpt lat="48.00263" lon="2.7623">
        <ele>94</ele>
        <time>2016-12-11T10:54:18.423Z</time>
      </trkpt>
      <trkpt lat="48.00263" lon="2.76225">
        <ele>93</ele>
        <time>2016-12-11T10:54:19.411Z</time>
      </trkpt>
      <trkpt lat="48.00263" lon="2.76225">
        <ele>93</ele>
        <time>2016-12-11T10:54:20.398Z</time>
      </trkpt>
      <trkpt lat="48.0026" lon="2.76214">
        <ele>92</ele>
        <time>2016-12-11T10:54:21.410Z</time>
      </trkpt>
      <trkpt lat="48.00259" lon="2.76209">
        <ele>92</ele>
        <time>2016-12-11T10:54:22.397Z</time>
      </trkpt>
      <trkpt lat="48.00259" lon="2.76209">
        <ele>92</ele>
        <time>2016-12-11T10:54:23.426Z</time>
      </trkpt>
      <trkpt lat="48.00255" lon="2.76194">
        <ele>92</ele>
        <time>2016-12-11T10:54:24.432Z</time>
      </trkpt>
      <trkpt lat="48.00255" lon="2.76194">
        <ele>92</ele>
        <time>2016-12-11T10:54:25.417Z</time>
      </trkpt>
      <trkpt lat="48.0025" lon="2.76184">
        <ele>91</ele>
        <time>2016-12-11T10:54:26.430Z</time>
      </trkpt>
      <trkpt lat="48.0025" lon="2.76184">
        <ele>91</ele>
        <time>2016-12-11T10:54:27.421Z</time>
      </trkpt>
      <trkpt lat="48.00246" lon="2.76177">
        <ele>91</ele>
        <time>2016-12-11T10:54:28.427Z</time>
      </trkpt>
      <trkpt lat="48.00246" lon="2.76177">
        <ele>91</ele>
        <time>2016-12-11T10:54:29.419Z</time>
      </trkpt>
      <trkpt lat="48.00241" lon="2.7617">
        <ele>90</ele>
        <time>2016-12-11T10:54:30.433Z</time>
      </trkpt>
      <trkpt lat="48.00241" lon="2.7617">
        <ele>90</ele>
        <time>2016-12-11T10:54:31.410Z</time>
      </trkpt>
      <trkpt lat="48.00238" lon="2.76164">
        <ele>90</ele>
        <time>2016-12-11T10:54:32.418Z</time>
      </trkpt>
      <trkpt lat="48.00237" lon="2.76162">
        <ele>91</ele>
        <time>2016-12-11T10:54:33.432Z</time>
      </trkpt>
      <trkpt lat="48.00236" lon="2.76162">
        <ele>91</ele>
        <time>2016-12-11T10:54:34.418Z</time>
      </trkpt>
      <trkpt lat="48.00236" lon="2.76162">
        <ele>91</ele>
        <time>2016-12-11T10:54:35.400Z</time>
      </trkpt>
      <trkpt lat="48.00234" lon="2.76161">
        <ele>91</ele>
        <time>2016-12-11T10:54:36.410Z</time>
      </trkpt>
      <trkpt lat="48.00234" lon="2.76161">
        <ele>91</ele>
        <time>2016-12-11T10:54:37.421Z</time>
      </trkpt>
      <trkpt lat="48.00231" lon="2.76159">
        <ele>91</ele>
        <time>2016-12-11T10:54:38.396Z</time>
      </trkpt>
      <trkpt lat="48.00231" lon="2.76159">
        <ele>91</ele>
        <time>2016-12-11T10:54:39.429Z</time>
      </trkpt>
      <trkpt lat="48.00228" lon="2.76156">
        <ele>91</ele>
        <time>2016-12-11T10:54:40.434Z</time>
      </trkpt>
      <trkpt lat="48.00228" lon="2.76156">
        <ele>91</ele>
        <time>2016-12-11T10:54:41.420Z</time>
      </trkpt>
      <trkpt lat="48.00225" lon="2.76155">
        <ele>92</ele>
        <time>2016-12-11T10:54:42.412Z</time>
      </trkpt>
      <trkpt lat="48.00224" lon="2.76154">
        <ele>92</ele>
        <time>2016-12-11T10:54:43.396Z</time>
      </trkpt>
      <trkpt lat="48.00224" lon="2.76154">
        <ele>92</ele>
        <time>2016-12-11T10:54:44.428Z</time>
      </trkpt>
      <trkpt lat="48.00222" lon="2.76151">
        <ele>92</ele>
        <time>2016-12-11T10:54:45.435Z</time>
      </trkpt>
      <trkpt lat="48.00222" lon="2.76151">
        <ele>92</ele>
        <time>2016-12-11T10:54:46.412Z</time>
      </trkpt>
      <trkpt lat="48.00221" lon="2.76147">
        <ele>92</ele>
        <time>2016-12-11T10:54:47.419Z</time>
      </trkpt>
      <trkpt lat="48.00221" lon="2.76147">
        <ele>92</ele>
        <time>2016-12-11T10:54:48.416Z</time>
      </trkpt>
      <trkpt lat="48.00221" lon="2.76145">
        <ele>92</ele>
        <time>2016-12-11T10:54:49.432Z</time>
      </trkpt>
      <trkpt lat="48.00221" lon="2.76145">
        <ele>92</ele>
        <time>2016-12-11T10:54:50.432Z</time>
      </trkpt>
      <trkpt lat="48.0022" lon="2.76141">
        <ele>92</ele>
        <time>2016-12-11T10:54:51.398Z</time>
      </trkpt>
      <trkpt lat="48.0022" lon="2.76141">
        <ele>92</ele>
        <time>2016-12-11T10:54:52.432Z</time>
      </trkpt>
      <trkpt lat="48.00218" lon="2.76138">
        <ele>93</ele>
        <time>2016-12-11T10:54:53.410Z</time>
      </trkpt>
      <trkpt lat="48.00218" lon="2.76138">
        <ele>93</ele>
        <time>2016-12-11T10:54:54.415Z</time>
      </trkpt>
      <trkpt lat="48.00217" lon="2.76138">
        <ele>93</ele>
        <time>2016-12-11T10:54:55.421Z</time>
      </trkpt>
      <trkpt lat="48.00217" lon="2.76138">
        <ele>93</ele>
        <time>2016-12-11T10:54:56.434Z</time>
      </trkpt>
      <trkpt lat="48.00217" lon="2.76138">
        <ele>93</ele>
        <time>2016-12-11T10:54:57.407Z</time>
      </trkpt>
      <trkpt lat="48.00211" lon="2.7613">
        <ele>94</ele>
        <time>2016-12-11T10:54:58.423Z</time>
      </trkpt>
      <trkpt lat="48.00211" lon="2.7613">
        <ele>94</ele>
        <time>2016-12-11T10:54:59.412Z</time>
      </trkpt>
      <trkpt lat="48.00206" lon="2.76126">
        <ele>94</ele>
        <time>2016-12-11T10:55:00.431Z</time>
      </trkpt>
      <trkpt lat="48.00206" lon="2.76126">
        <ele>94</ele>
        <time>2016-12-11T10:55:01.419Z</time>
      </trkpt>
      <trkpt lat="48.00203" lon="2.7612">
        <ele>95</ele>
        <time>2016-12-11T10:55:02.402Z</time>
      </trkpt>
      <trkpt lat="48.00203" lon="2.7612">
        <ele>95</ele>
        <time>2016-12-11T10:55:03.410Z</time>
      </trkpt>
      <trkpt lat="48.002" lon="2.76113">
        <ele>95</ele>
        <time>2016-12-11T10:55:04.416Z</time>
      </trkpt>
      <trkpt lat="48.00199" lon="2.76109">
        <ele>96</ele>
        <time>2016-12-11T10:55:05.412Z</time>
      </trkpt>
      <trkpt lat="48.00199" lon="2.76106">
        <ele>96</ele>
        <time>2016-12-11T10:55:06.396Z</time>
      </trkpt>
      <trkpt lat="48.00199" lon="2.76106">
        <ele>96</ele>
        <time>2016-12-11T10:55:07.421Z</time>
      </trkpt>
      <trkpt lat="48.00198" lon="2.76098">
        <ele>97</ele>
        <time>2016-12-11T10:55:08.423Z</time>
      </trkpt>
      <trkpt lat="48.00198" lon="2.76095">
        <ele>97</ele>
        <time>2016-12-11T10:55:09.404Z</time>
      </trkpt>
      <trkpt lat="48.00197" lon="2.76091">
        <ele>97</ele>
        <time>2016-12-11T10:55:10.428Z</time>
      </trkpt>
      <trkpt lat="48.00197" lon="2.76091">
        <ele>97</ele>
        <time>2016-12-11T10:55:11.415Z</time>
      </trkpt>
      <trkpt lat="48.00197" lon="2.76083">
        <ele>98</ele>
        <time>2016-12-11T10:55:12.422Z</time>
      </trkpt>
      <trkpt lat="48.00197" lon="2.76083">
        <ele>98</ele>
        <time>2016-12-11T10:55:13.408Z</time>
      </trkpt>
      <trkpt lat="48.00196" lon="2.76076">
        <ele>99</ele>
        <time>2016-12-11T10:55:14.402Z</time>
      </trkpt>
      <trkpt lat="48.00196" lon="2.76076">
        <ele>99</ele>
        <time>2016-12-11T10:55:15.429Z</time>
      </trkpt>
      <trkpt lat="48.00194" lon="2.76069">
        <ele>100</ele>
        <time>2016-12-11T10:55:16.396Z</time>
      </trkpt>
      <trkpt lat="48.00194" lon="2.76069">
        <ele>100</ele>
        <time>2016-12-11T10:55:17.415Z</time>
      </trkpt>
      <trkpt lat="48.00192" lon="2.76064">
        <ele>100</ele>
        <time>2016-12-11T10:55:18.405Z</time>
      </trkpt>
      <trkpt lat="48.00192" lon="2.76064">
        <ele>100</ele>
        <time>2016-12-11T10:55:19.431Z</time>
      </trkpt>
      <trkpt lat="48.0019" lon="2.76058">
        <ele>101</ele>
        <time>2016-12-11T10:55:20.402Z</time>
      </trkpt>
      <trkpt lat="48.0019" lon="2.76058">
        <ele>101</ele>
        <time>2016-12-11T10:55:21.427Z</time>
      </trkpt>
      <trkpt lat="48.0019" lon="2.76051">
        <ele>101</ele>
        <time>2016-12-11T10:55:22.434Z</time>
      </trkpt>
      <trkpt lat="48.0019" lon="2.76047">
        <ele>102</ele>
        <time>2016-12-11T10:55:23.403Z</time>
      </trkpt>
      <trkpt lat="48.0019" lon="2.76044">
        <ele>102</ele>
        <time>2016-12-11T10:55:24.431Z</time>
      </trkpt>
      <trkpt lat="48.0019" lon="2.76044">
        <ele>102</ele>
        <time>2016-12-11T10:55:25.419Z</time>
      </trkpt>
      <trkpt lat="48.00187" lon="2.76036">
        <ele>102</ele>
        <time>2016-12-11T10:55:26.412Z</time>
      </trkpt>
      <trkpt lat="48.00187" lon="2.76036">
        <ele>102</ele>
        <time>2016-12-11T10:55:27.403Z</time>
      </trkpt>
      <trkpt lat="48.00186" lon="2.76028">
        <ele>101</ele>
        <time>2016-12-11T10:55:28.416Z</time>
      </trkpt>
      <trkpt lat="48.00186" lon="2.76023">
        <ele>101</ele>
        <time>2016-12-11T10:55:29.400Z</time>
      </trkpt>
      <trkpt lat="48.00186" lon="2.76023">
        <ele>101</ele>
        <time>2016-12-11T10:55:30.426Z</time>
      </trkpt>
      <trkpt lat="48.00187" lon="2.76014">
        <ele>101</ele>
        <time>2016-12-11T10:55:31.398Z</time>
      </trkpt>
      <trkpt lat="48.00187" lon="2.76014">
        <ele>101</ele>
        <time>2016-12-11T10:55:32.421Z</time>
      </trkpt>
      <trkpt lat="48.00187" lon="2.76004">
        <ele>101</ele>
        <time>2016-12-11T10:55:33.429Z</time>
      </trkpt>
      <trkpt lat="48.00186" lon="2.75999">
        <ele>101</ele>
        <time>2016-12-11T10:55:34.402Z</time>
      </trkpt>
      <trkpt lat="48.00186" lon="2.75999">
        <ele>101</ele>
        <time>2016-12-11T10:55:35.430Z</time>
      </trkpt>
      <trkpt lat="48.00186" lon="2.7599">
        <ele>101</ele>
        <time>2016-12-11T10:55:36.397Z</time>
      </trkpt>
      <trkpt lat="48.00186" lon="2.7599">
        <ele>101</ele>
        <time>2016-12-11T10:55:37.422Z</time>
      </trkpt>
      <trkpt lat="48.00186" lon="2.7598">
        <ele>101</ele>
        <time>2016-12-11T10:55:38.419Z</time>
      </trkpt>
      <trkpt lat="48.00186" lon="2.7598">
        <ele>101</ele>
        <time>2016-12-11T10:55:39.405Z</time>
      </trkpt>
      <trkpt lat="48.00184" lon="2.7597">
        <ele>101</ele>
        <time>2016-12-11T10:55:40.412Z</time>
      </trkpt>
      <trkpt lat="48.00184" lon="2.7597">
        <ele>101</ele>
        <time>2016-12-11T10:55:41.411Z</time>
      </trkpt>
      <trkpt lat="48.00182" lon="2.75959">
        <ele>101</ele>
        <time>2016-12-11T10:55:42.401Z</time>
      </trkpt>
      <trkpt lat="48.00182" lon="2.75959">
        <ele>101</ele>
        <time>2016-12-11T10:55:43.425Z</time>
      </trkpt>
      <trkpt lat="48.00181" lon="2.75949">
        <ele>101</ele>
        <time>2016-12-11T10:55:44.412Z</time>
      </trkpt>
      <trkpt lat="48.00181" lon="2.75949">
        <ele>101</ele>
        <time>2016-12-11T10:55:45.419Z</time>
      </trkpt>
      <trkpt lat="48.00178" lon="2.75938">
        <ele>101</ele>
        <time>2016-12-11T10:55:46.429Z</time>
      </trkpt>
      <trkpt lat="48.00177" lon="2.75931">
        <ele>101</ele>
        <time>2016-12-11T10:55:47.432Z</time>
      </trkpt>
      <trkpt lat="48.00176" lon="2.75925">
        <ele>101</ele>
        <time>2016-12-11T10:55:48.420Z</time>
      </trkpt>
      <trkpt lat="48.00176" lon="2.75925">
        <ele>101</ele>
        <time>2016-12-11T10:55:49.407Z</time>
      </trkpt>
      <trkpt lat="48.00173" lon="2.75914">
        <ele>100</ele>
        <time>2016-12-11T10:55:50.433Z</time>
      </trkpt>
      <trkpt lat="48.00173" lon="2.75909">
        <ele>100</ele>
        <time>2016-12-11T10:55:51.400Z</time>
      </trkpt>
      <trkpt lat="48.00172" lon="2.75902">
        <ele>100</ele>
        <time>2016-12-11T10:55:52.429Z</time>
      </trkpt>
      <trkpt lat="48.00172" lon="2.75902">
        <ele>100</ele>
        <time>2016-12-11T10:55:53.434Z</time>
      </trkpt>
      <trkpt lat="48.00173" lon="2.75891">
        <ele>99</ele>
        <time>2016-12-11T10:55:54.410Z</time>
      </trkpt>
      <trkpt lat="48.00173" lon="2.75891">
        <ele>99</ele>
        <time>2016-12-11T10:55:55.398Z</time>
      </trkpt>
      <trkpt lat="48.00174" lon="2.75879">
        <ele>99</ele>
        <time>2016-12-11T10:55:56.411Z</time>
      </trkpt>
      <trkpt lat="48.00174" lon="2.75879">
        <ele>99</ele>
        <time>2016-12-11T10:55:57.398Z</time>
      </trkpt>
      <trkpt lat="48.00171" lon="2.75866">
        <ele>97</ele>
        <time>2016-12-11T10:55:58.408Z</time>
      </trkpt>
      <trkpt lat="48.00169" lon="2.7586">
        <ele>96</ele>
        <time>2016-12-11T10:55:59.405Z</time>
      </trkpt>
      <trkpt lat="48.00166" lon="2.75854">
        <ele>96</ele>
        <time>2016-12-11T10:56:00.430Z</time>
      </trkpt>
      <trkpt lat="48.00166" lon="2.75854">
        <ele>96</ele>
        <time>2016-12-11T10:56:01.417Z</time>
      </trkpt>
      <trkpt lat="48.00166" lon="2.75839">
        <ele>95</ele>
        <time>2016-12-11T10:56:02.433Z</time>
      </trkpt>
      <trkpt lat="48.00166" lon="2.75839">
        <ele>95</ele>
        <time>2016-12-11T10:56:03.399Z</time>
      </trkpt>
      <trkpt lat="48.00163" lon="2.7582">
        <ele>94</ele>
        <time>2016-12-11T10:56:04.407Z</time>
      </trkpt>
      <trkpt lat="48.00162" lon="2.75809">
        <ele>93</ele>
        <time>2016-12-11T10:56:05.413Z</time>
      </trkpt>
      <trkpt lat="48.00162" lon="2.75809">
        <ele>93</ele>
        <time>2016-12-11T10:56:06.396Z</time>
      </trkpt>
      <trkpt lat="48.00159" lon="2.75788">
        <ele>91</ele>
        <time>2016-12-11T10:56:07.406Z</time>
      </trkpt>
      <trkpt lat="48.00159" lon="2.75788">
        <ele>91</ele>
        <time>2016-12-11T10:56:08.431Z</time>
      </trkpt>
      <trkpt lat="48.00155" lon="2.75767">
        <ele>90</ele>
        <time>2016-12-11T10:56:09.412Z</time>
      </trkpt>
      <trkpt lat="48.00155" lon="2.75767">
        <ele>90</ele>
        <time>2016-12-11T10:56:10.396Z</time>
      </trkpt>
      <trkpt lat="48.00152" lon="2.75747">
        <ele>89</ele>
        <time>2016-12-11T10:56:11.407Z</time>
      </trkpt>
      <trkpt lat="48.00152" lon="2.75747">
        <ele>89</ele>
        <time>2016-12-11T10:56:12.431Z</time>
      </trkpt>
      <trkpt lat="48.00147" lon="2.75732">
        <ele>87</ele>
        <time>2016-12-11T10:56:13.400Z</time>
      </trkpt>
      <trkpt lat="48.00147" lon="2.75732">
        <ele>87</ele>
        <time>2016-12-11T10:56:14.424Z</time>
      </trkpt>
      <trkpt lat="48.00139" lon="2.75718">
        <ele>86</ele>
        <time>2016-12-11T10:56:15.431Z</time>
      </trkpt>
      <trkpt lat="48.00139" lon="2.75718">
        <ele>86</ele>
        <time>2016-12-11T10:56:16.417Z</time>
      </trkpt>
      <trkpt lat="48.00131" lon="2.75707">
        <ele>85</ele>
        <time>2016-12-11T10:56:17.437Z</time>
      </trkpt>
      <trkpt lat="48.00131" lon="2.75707">
        <ele>85</ele>
        <time>2016-12-11T10:56:18.412Z</time>
      </trkpt>
      <trkpt lat="48.00123" lon="2.75696">
        <ele>84</ele>
        <time>2016-12-11T10:56:19.419Z</time>
      </trkpt>
      <trkpt lat="48.00123" lon="2.75696">
        <ele>84</ele>
        <time>2016-12-11T10:56:20.407Z</time>
      </trkpt>
      <trkpt lat="48.00119" lon="2.75684">
        <ele>83</ele>
        <time>2016-12-11T10:56:21.413Z</time>
      </trkpt>
      <trkpt lat="48.00119" lon="2.75678">
        <ele>82</ele>
        <time>2016-12-11T10:56:22.407Z</time>
      </trkpt>
      <trkpt lat="48.00119" lon="2.75678">
        <ele>82</ele>
        <time>2016-12-11T10:56:23.431Z</time>
      </trkpt>
      <trkpt lat="48.00122" lon="2.75672">
        <ele>81</ele>
        <time>2016-12-11T10:56:24.398Z</time>
      </trkpt>
      <trkpt lat="48.00122" lon="2.75672">
        <ele>81</ele>
        <time>2016-12-11T10:56:25.418Z</time>
      </trkpt>
      <trkpt lat="48.00125" lon="2.75671">
        <ele>81</ele>
        <time>2016-12-11T10:56:26.423Z</time>
      </trkpt>
      <trkpt lat="48.00125" lon="2.75671">
        <ele>81</ele>
        <time>2016-12-11T10:56:27.406Z</time>
      </trkpt>
      <trkpt lat="48.00128" lon="2.75671">
        <ele>80</ele>
        <time>2016-12-11T10:56:28.413Z</time>
      </trkpt>
      <trkpt lat="48.0013" lon="2.75671">
        <ele>80</ele>
        <time>2016-12-11T10:56:29.424Z</time>
      </trkpt>
      <trkpt lat="48.00131" lon="2.75671">
        <ele>80</ele>
        <time>2016-12-11T10:56:30.417Z</time>
      </trkpt>
      <trkpt lat="48.00131" lon="2.75671">
        <ele>80</ele>
        <time>2016-12-11T10:56:31.430Z</time>
      </trkpt>
      <trkpt lat="48.00134" lon="2.75669">
        <ele>80</ele>
        <time>2016-12-11T10:56:32.407Z</time>
      </trkpt>
      <trkpt lat="48.00134" lon="2.75669">
        <ele>80</ele>
        <time>2016-12-11T10:56:33.434Z</time>
      </trkpt>
      <trkpt lat="48.00135" lon="2.75667">
        <ele>80</ele>
        <time>2016-12-11T10:56:34.407Z</time>
      </trkpt>
      <trkpt lat="48.00136" lon="2.75667">
        <ele>80</ele>
        <time>2016-12-11T10:56:35.401Z</time>
      </trkpt>
      <trkpt lat="48.00136" lon="2.75667">
        <ele>80</ele>
        <time>2016-12-11T10:56:36.428Z</time>
      </trkpt>
      <trkpt lat="48.00137" lon="2.75667">
        <ele>80</ele>
        <time>2016-12-11T10:56:37.396Z</time>
      </trkpt>
      <trkpt lat="48.00138" lon="2.75667">
        <ele>80</ele>
        <time>2016-12-11T10:56:38.407Z</time>
      </trkpt>
      <trkpt lat="48.00138" lon="2.75667">
        <ele>80</ele>
        <time>2016-12-11T10:56:39.430Z</time>
      </trkpt>
      <trkpt lat="48.0014" lon="2.75667">
        <ele>81</ele>
        <time>2016-12-11T10:56:40.397Z</time>
      </trkpt>
      <trkpt lat="48.0014" lon="2.75667">
        <ele>81</ele>
        <time>2016-12-11T10:56:41.432Z</time>
      </trkpt>
      <trkpt lat="48.00143" lon="2.75665">
        <ele>82</ele>
        <time>2016-12-11T10:56:42.413Z</time>
      </trkpt>
      <trkpt lat="48.00143" lon="2.75665">
        <ele>82</ele>
        <time>2016-12-11T10:56:43.434Z</time>
      </trkpt>
      <trkpt lat="48.00145" lon="2.75665">
        <ele>83</ele>
        <time>2016-12-11T10:56:44.422Z</time>
      </trkpt>
      <trkpt lat="48.00147" lon="2.75664">
        <ele>83</ele>
        <time>2016-12-11T10:56:45.420Z</time>
      </trkpt>
      <trkpt lat="48.00147" lon="2.75664">
        <ele>83</ele>
        <time>2016-12-11T10:56:46.406Z</time>
      </trkpt>
      <trkpt lat="48.0015" lon="2.75664">
        <ele>84</ele>
        <time>2016-12-11T10:56:47.412Z</time>
      </trkpt>
      <trkpt lat="48.0015" lon="2.75663">
        <ele>84</ele>
        <time>2016-12-11T10:56:48.409Z</time>
      </trkpt>
      <trkpt lat="48.0015" lon="2.75663">
        <ele>84</ele>
        <time>2016-12-11T10:56:49.396Z</time>
      </trkpt>
      <trkpt lat="48.00152" lon="2.75662">
        <ele>85</ele>
        <time>2016-12-11T10:56:50.402Z</time>
      </trkpt>
      <trkpt lat="48.00153" lon="2.75661">
        <ele>86</ele>
        <time>2016-12-11T10:56:51.434Z</time>
      </trkpt>
      <trkpt lat="48.00153" lon="2.75661">
        <ele>86</ele>
        <time>2016-12-11T10:56:52.421Z</time>
      </trkpt>
      <trkpt lat="48.00156" lon="2.75659">
        <ele>86</ele>
        <time>2016-12-11T10:56:53.435Z</time>
      </trkpt>
      <trkpt lat="48.00156" lon="2.75659">
        <ele>86</ele>
        <time>2016-12-11T10:56:54.419Z</time>
      </trkpt>
      <trkpt lat="48.00159" lon="2.75657">
        <ele>88</ele>
        <time>2016-12-11T10:56:55.427Z</time>
      </trkpt>
      <trkpt lat="48.0016" lon="2.75655">
        <ele>88</ele>
        <time>2016-12-11T10:56:56.407Z</time>
      </trkpt>
      <trkpt lat="48.0016" lon="2.75655">
        <ele>88</ele>
        <time>2016-12-11T10:56:57.432Z</time>
      </trkpt>
      <trkpt lat="48.00162" lon="2.75653">
        <ele>89</ele>
        <time>2016-12-11T10:56:58.417Z</time>
      </trkpt>
      <trkpt lat="48.00163" lon="2.75651">
        <ele>89</ele>
        <time>2016-12-11T10:56:59.402Z</time>
      </trkpt>
      <trkpt lat="48.00164" lon="2.75651">
        <ele>90</ele>
        <time>2016-12-11T10:57:00.427Z</time>
      </trkpt>
      <trkpt lat="48.00164" lon="2.75651">
        <ele>90</ele>
        <time>2016-12-11T10:57:01.415Z</time>
      </trkpt>
      <trkpt lat="48.00167" lon="2.75649">
        <ele>91</ele>
        <time>2016-12-11T10:57:02.407Z</time>
      </trkpt>
      <trkpt lat="48.00167" lon="2.75649">
        <ele>91</ele>
        <time>2016-12-11T10:57:03.434Z</time>
      </trkpt>
      <trkpt lat="48.0017" lon="2.7565">
        <ele>92</ele>
        <time>2016-12-11T10:57:04.408Z</time>
      </trkpt>
      <trkpt lat="48.00172" lon="2.7565">
        <ele>93</ele>
        <time>2016-12-11T10:57:05.419Z</time>
      </trkpt>
      <trkpt lat="48.00172" lon="2.75649">
        <ele>94</ele>
        <time>2016-12-11T10:57:06.429Z</time>
      </trkpt>
      <trkpt lat="48.00173" lon="2.75649">
        <ele>94</ele>
        <time>2016-12-11T10:57:07.414Z</time>
      </trkpt>
      <trkpt lat="48.00173" lon="2.75649">
        <ele>94</ele>
        <time>2016-12-11T10:57:08.435Z</time>
      </trkpt>
      <trkpt lat="48.00175" lon="2.75647">
        <ele>95</ele>
        <time>2016-12-11T10:57:09.413Z</time>
      </trkpt>
      <trkpt lat="48.00176" lon="2.75646">
        <ele>95</ele>
        <time>2016-12-11T10:57:10.435Z</time>
      </trkpt>
      <trkpt lat="48.00176" lon="2.75646">
        <ele>95</ele>
        <time>2016-12-11T10:57:11.421Z</time>
      </trkpt>
      <trkpt lat="48.00178" lon="2.75643">
        <ele>96</ele>
        <time>2016-12-11T10:57:12.412Z</time>
      </trkpt>
      <trkpt lat="48.00178" lon="2.75643">
        <ele>96</ele>
        <time>2016-12-11T10:57:13.396Z</time>
      </trkpt>
      <trkpt lat="48.00181" lon="2.75638">
        <ele>96</ele>
        <time>2016-12-11T10:57:14.403Z</time>
      </trkpt>
      <trkpt lat="48.00181" lon="2.75638">
        <ele>96</ele>
        <time>2016-12-11T10:57:15.432Z</time>
      </trkpt>
      <trkpt lat="48.00184" lon="2.75634">
        <ele>97</ele>
        <time>2016-12-11T10:57:16.435Z</time>
      </trkpt>
      <trkpt lat="48.00184" lon="2.75634">
        <ele>97</ele>
        <time>2016-12-11T10:57:17.423Z</time>
      </trkpt>
      <trkpt lat="48.00188" lon="2.75632">
        <ele>97</ele>
        <time>2016-12-11T10:57:18.422Z</time>
      </trkpt>
      <trkpt lat="48.00189" lon="2.75631">
        <ele>97</ele>
        <time>2016-12-11T10:57:19.423Z</time>
      </trkpt>
      <trkpt lat="48.00189" lon="2.75631">
        <ele>97</ele>
        <time>2016-12-11T10:57:20.406Z</time>
      </trkpt>
      <trkpt lat="48.00191" lon="2.75627">
        <ele>98</ele>
        <time>2016-12-11T10:57:21.397Z</time>
      </trkpt>
      <trkpt lat="48.00191" lon="2.75627">
        <ele>98</ele>
        <time>2016-12-11T10:57:22.421Z</time>
      </trkpt>
      <trkpt lat="48.00193" lon="2.75623">
        <ele>98</ele>
        <time>2016-12-11T10:57:23.412Z</time>
      </trkpt>
      <trkpt lat="48.00195" lon="2.75619">
        <ele>98</ele>
        <time>2016-12-11T10:57:24.396Z</time>
      </trkpt>
      <trkpt lat="48.00195" lon="2.75619">
        <ele>98</ele>
        <time>2016-12-11T10:57:25.421Z</time>
      </trkpt>
      <trkpt lat="48.002" lon="2.75609">
        <ele>98</ele>
        <time>2016-12-11T10:57:26.417Z</time>
      </trkpt>
      <trkpt lat="48.00201" lon="2.75605">
        <ele>98</ele>
        <time>2016-12-11T10:57:27.407Z</time>
      </trkpt>
      <trkpt lat="48.00201" lon="2.75605">
        <ele>98</ele>
        <time>2016-12-11T10:57:28.424Z</time>
      </trkpt>
      <trkpt lat="48.00205" lon="2.75599">
        <ele>99</ele>
        <time>2016-12-11T10:57:29.434Z</time>
      </trkpt>
      <trkpt lat="48.00206" lon="2.75596">
        <ele>99</ele>
        <time>2016-12-11T10:57:30.402Z</time>
      </trkpt>
      <trkpt lat="48.00206" lon="2.75596">
        <ele>99</ele>
        <time>2016-12-11T10:57:31.427Z</time>
      </trkpt>
      <trkpt lat="48.0021" lon="2.75589">
        <ele>99</ele>
        <time>2016-12-11T10:57:32.435Z</time>
      </trkpt>
      <trkpt lat="48.0021" lon="2.75589">
        <ele>99</ele>
        <time>2016-12-11T10:57:33.422Z</time>
      </trkpt>
      <trkpt lat="48.00212" lon="2.75581">
        <ele>99</ele>
        <time>2016-12-11T10:57:34.404Z</time>
      </trkpt>
      <trkpt lat="48.00212" lon="2.75581">
        <ele>99</ele>
        <time>2016-12-11T10:57:35.431Z</time>
      </trkpt>
      <trkpt lat="48.00214" lon="2.75575">
        <ele>99</ele>
        <time>2016-12-11T10:57:36.398Z</time>
      </trkpt>
      <trkpt lat="48.00214" lon="2.75575">
        <ele>99</ele>
        <time>2016-12-11T10:57:37.421Z</time>
      </trkpt>
      <trkpt lat="48.00216" lon="2.75567">
        <ele>99</ele>
        <time>2016-12-11T10:57:38.422Z</time>
      </trkpt>
      <trkpt lat="48.00216" lon="2.75567">
        <ele>99</ele>
        <time>2016-12-11T10:57:39.406Z</time>
      </trkpt>
      <trkpt lat="48.00216" lon="2.75562">
        <ele>99</ele>
        <time>2016-12-11T10:57:40.413Z</time>
      </trkpt>
      <trkpt lat="48.00216" lon="2.75562">
        <ele>99</ele>
        <time>2016-12-11T10:57:41.422Z</time>
      </trkpt>
      <trkpt lat="48.00215" lon="2.75556">
        <ele>99</ele>
        <time>2016-12-11T10:57:42.422Z</time>
      </trkpt>
      <trkpt lat="48.00215" lon="2.75556">
        <ele>99</ele>
        <time>2016-12-11T10:57:43.405Z</time>
      </trkpt>
      <trkpt lat="48.00216" lon="2.7555">
        <ele>98</ele>
        <time>2016-12-11T10:57:44.411Z</time>
      </trkpt>
      <trkpt lat="48.00216" lon="2.7555">
        <ele>98</ele>
        <time>2016-12-11T10:57:45.431Z</time>
      </trkpt>
      <trkpt lat="48.00218" lon="2.75544">
        <ele>98</ele>
        <time>2016-12-11T10:57:46.412Z</time>
      </trkpt>
      <trkpt lat="48.00218" lon="2.75544">
        <ele>98</ele>
        <time>2016-12-11T10:57:47.396Z</time>
      </trkpt>
      <trkpt lat="48.00219" lon="2.75538">
        <ele>99</ele>
        <time>2016-12-11T10:57:48.404Z</time>
      </trkpt>
      <trkpt lat="48.0022" lon="2.75534">
        <ele>99</ele>
        <time>2016-12-11T10:57:49.412Z</time>
      </trkpt>
      <trkpt lat="48.0022" lon="2.75534">
        <ele>99</ele>
        <time>2016-12-11T10:57:50.420Z</time>
      </trkpt>
      <trkpt lat="48.0022" lon="2.75523">
        <ele>99</ele>
        <time>2016-12-11T10:57:51.399Z</time>
      </trkpt>
      <trkpt lat="48.0022" lon="2.75516">
        <ele>99</ele>
        <time>2016-12-11T10:57:52.426Z</time>
      </trkpt>
      <trkpt lat="48.0022" lon="2.75516">
        <ele>99</ele>
        <time>2016-12-11T10:57:53.413Z</time>
      </trkpt>
      <trkpt lat="48.0022" lon="2.75505">
        <ele>99</ele>
        <time>2016-12-11T10:57:54.408Z</time>
      </trkpt>
      <trkpt lat="48.0022" lon="2.75505">
        <ele>99</ele>
        <time>2016-12-11T10:57:55.429Z</time>
      </trkpt>
      <trkpt lat="48.00222" lon="2.75492">
        <ele>100</ele>
        <time>2016-12-11T10:57:56.396Z</time>
      </trkpt>
      <trkpt lat="48.00222" lon="2.75485">
        <ele>99</ele>
        <time>2016-12-11T10:57:57.411Z</time>
      </trkpt>
      <trkpt lat="48.00222" lon="2.75485">
        <ele>99</ele>
        <time>2016-12-11T10:57:58.435Z</time>
      </trkpt>
      <trkpt lat="48.00223" lon="2.75473">
        <ele>99</ele>
        <time>2016-12-11T10:57:59.404Z</time>
      </trkpt>
      <trkpt lat="48.00224" lon="2.75467">
        <ele>99</ele>
        <time>2016-12-11T10:58:00.435Z</time>
      </trkpt>
      <trkpt lat="48.00224" lon="2.75467">
        <ele>99</ele>
        <time>2016-12-11T10:58:01.420Z</time>
      </trkpt>
      <trkpt lat="48.00228" lon="2.75455">
        <ele>99</ele>
        <time>2016-12-11T10:58:02.428Z</time>
      </trkpt>
      <trkpt lat="48.00228" lon="2.75455">
        <ele>99</ele>
        <time>2016-12-11T10:58:03.413Z</time>
      </trkpt>
      <trkpt lat="48.00232" lon="2.75446">
        <ele>98</ele>
        <time>2016-12-11T10:58:04.403Z</time>
      </trkpt>
      <trkpt lat="48.00232" lon="2.75446">
        <ele>98</ele>
        <time>2016-12-11T10:58:05.428Z</time>
      </trkpt>
      <trkpt lat="48.00235" lon="2.7544">
        <ele>98</ele>
        <time>2016-12-11T10:58:06.435Z</time>
      </trkpt>
      <trkpt lat="48.00235" lon="2.7544">
        <ele>98</ele>
        <time>2016-12-11T10:58:07.421Z</time>
      </trkpt>
      <trkpt lat="48.00239" lon="2.75436">
        <ele>98</ele>
        <time>2016-12-11T10:58:08.428Z</time>
      </trkpt>
      <trkpt lat="48.00241" lon="2.75435">
        <ele>98</ele>
        <time>2016-12-11T10:58:09.431Z</time>
      </trkpt>
      <trkpt lat="48.00241" lon="2.75435">
        <ele>98</ele>
        <time>2016-12-11T10:58:10.396Z</time>
      </trkpt>
      <trkpt lat="48.00245" lon="2.75433">
        <ele>100</ele>
        <time>2016-12-11T10:58:11.409Z</time>
      </trkpt>
      <trkpt lat="48.00247" lon="2.75432">
        <ele>100</ele>
        <time>2016-12-11T10:58:12.414Z</time>
      </trkpt>
      <trkpt lat="48.00247" lon="2.75432">
        <ele>100</ele>
        <time>2016-12-11T10:58:13.435Z</time>
      </trkpt>
      <trkpt lat="48.00251" lon="2.7543">
        <ele>100</ele>
        <time>2016-12-11T10:58:14.404Z</time>
      </trkpt>
      <trkpt lat="48.00253" lon="2.7543">
        <ele>100</ele>
        <time>2016-12-11T10:58:15.411Z</time>
      </trkpt>
      <trkpt lat="48.00253" lon="2.7543">
        <ele>100</ele>
        <time>2016-12-11T10:58:16.434Z</time>
      </trkpt>
      <trkpt lat="48.00257" lon="2.75428">
        <ele>100</ele>
        <time>2016-12-11T10:58:17.402Z</time>
      </trkpt>
      <trkpt lat="48.00259" lon="2.75427">
        <ele>100</ele>
        <time>2016-12-11T10:58:18.409Z</time>
      </trkpt>
      <trkpt lat="48.00259" lon="2.75427">
        <ele>100</ele>
        <time>2016-12-11T10:58:19.435Z</time>
      </trkpt>
      <trkpt lat="48.00263" lon="2.75426">
        <ele>101</ele>
        <time>2016-12-11T10:58:20.402Z</time>
      </trkpt>
      <trkpt lat="48.00263" lon="2.75426">
        <ele>101</ele>
        <time>2016-12-11T10:58:21.427Z</time>
      </trkpt>
      <trkpt lat="48.00268" lon="2.75423">
        <ele>102</ele>
        <time>2016-12-11T10:58:22.419Z</time>
      </trkpt>
      <trkpt lat="48.00271" lon="2.75421">
        <ele>102</ele>
        <time>2016-12-11T10:58:23.397Z</time>
      </trkpt>
      <trkpt lat="48.00273" lon="2.75419">
        <ele>103</ele>
        <time>2016-12-11T10:58:24.421Z</time>
      </trkpt>
      <trkpt lat="48.00273" lon="2.75419">
        <ele>103</ele>
        <time>2016-12-11T10:58:25.406Z</time>
      </trkpt>
      <trkpt lat="48.00278" lon="2.75414">
        <ele>103</ele>
        <time>2016-12-11T10:58:26.413Z</time>
      </trkpt>
      <trkpt lat="48.00278" lon="2.75414">
        <ele>103</ele>
        <time>2016-12-11T10:58:27.398Z</time>
      </trkpt>
      <trkpt lat="48.00284" lon="2.75408">
        <ele>103</ele>
        <time>2016-12-11T10:58:28.412Z</time>
      </trkpt>
      <trkpt lat="48.00284" lon="2.75408">
        <ele>103</ele>
        <time>2016-12-11T10:58:29.399Z</time>
      </trkpt>
      <trkpt lat="48.0029" lon="2.75404">
        <ele>103</ele>
        <time>2016-12-11T10:58:30.406Z</time>
      </trkpt>
      <trkpt lat="48.0029" lon="2.75404">
        <ele>103</ele>
        <time>2016-12-11T10:58:31.430Z</time>
      </trkpt>
      <trkpt lat="48.00296" lon="2.75402">
        <ele>103</ele>
        <time>2016-12-11T10:58:32.412Z</time>
      </trkpt>
      <trkpt lat="48.00296" lon="2.75402">
        <ele>103</ele>
        <time>2016-12-11T10:58:33.398Z</time>
      </trkpt>
      <trkpt lat="48.00304" lon="2.75399">
        <ele>103</ele>
        <time>2016-12-11T10:58:34.406Z</time>
      </trkpt>
      <trkpt lat="48.00308" lon="2.75397">
        <ele>103</ele>
        <time>2016-12-11T10:58:35.423Z</time>
      </trkpt>
      <trkpt lat="48.00312" lon="2.75395">
        <ele>103</ele>
        <time>2016-12-11T10:58:36.434Z</time>
      </trkpt>
      <trkpt lat="48.00312" lon="2.75395">
        <ele>103</ele>
        <time>2016-12-11T10:58:37.406Z</time>
      </trkpt>
      <trkpt lat="48.00318" lon="2.75393">
        <ele>103</ele>
        <time>2016-12-11T10:58:38.419Z</time>
      </trkpt>
      <trkpt lat="48.00318" lon="2.75393">
        <ele>103</ele>
        <time>2016-12-11T10:58:39.399Z</time>
      </trkpt>
      <trkpt lat="48.00323" lon="2.75387">
        <ele>102</ele>
        <time>2016-12-11T10:58:40.409Z</time>
      </trkpt>
      <trkpt lat="48.00326" lon="2.75384">
        <ele>102</ele>
        <time>2016-12-11T10:58:41.403Z</time>
      </trkpt>
      <trkpt lat="48.00329" lon="2.7538">
        <ele>102</ele>
        <time>2016-12-11T10:58:42.428Z</time>
      </trkpt>
      <trkpt lat="48.00329" lon="2.7538">
        <ele>102</ele>
        <time>2016-12-11T10:58:43.413Z</time>
      </trkpt>
      <trkpt lat="48.00337" lon="2.75375">
        <ele>102</ele>
        <time>2016-12-11T10:58:44.419Z</time>
      </trkpt>
      <trkpt lat="48.00337" lon="2.75375">
        <ele>102</ele>
        <time>2016-12-11T10:58:45.408Z</time>
      </trkpt>
      <trkpt lat="48.00347" lon="2.75369">
        <ele>102</ele>
        <time>2016-12-11T10:58:46.412Z</time>
      </trkpt>
      <trkpt lat="48.00347" lon="2.75369">
        <ele>102</ele>
        <time>2016-12-11T10:58:47.435Z</time>
      </trkpt>
      <trkpt lat="48.00355" lon="2.75363">
        <ele>102</ele>
        <time>2016-12-11T10:58:48.404Z</time>
      </trkpt>
      <trkpt lat="48.00358" lon="2.7536">
        <ele>101</ele>
        <time>2016-12-11T10:58:49.396Z</time>
      </trkpt>
      <trkpt lat="48.00358" lon="2.7536">
        <ele>101</ele>
        <time>2016-12-11T10:58:50.423Z</time>
      </trkpt>
      <trkpt lat="48.00366" lon="2.75353">
        <ele>102</ele>
        <time>2016-12-11T10:58:51.434Z</time>
      </trkpt>
      <trkpt lat="48.0037" lon="2.7535">
        <ele>101</ele>
        <time>2016-12-11T10:58:52.420Z</time>
      </trkpt>
      <trkpt lat="48.0037" lon="2.7535">
        <ele>101</ele>
        <time>2016-12-11T10:58:53.402Z</time>
      </trkpt>
      <trkpt lat="48.00377" lon="2.75344">
        <ele>100</ele>
        <time>2016-12-11T10:58:54.433Z</time>
      </trkpt>
      <trkpt lat="48.00377" lon="2.75344">
        <ele>100</ele>
        <time>2016-12-11T10:58:55.416Z</time>
      </trkpt>
      <trkpt lat="48.00383" lon="2.75335">
        <ele>99</ele>
        <time>2016-12-11T10:58:56.423Z</time>
      </trkpt>
      <trkpt lat="48.00383" lon="2.75335">
        <ele>99</ele>
        <time>2016-12-11T10:58:57.399Z</time>
      </trkpt>
      <trkpt lat="48.00388" lon="2.75325">
        <ele>98</ele>
        <time>2016-12-11T10:58:58.416Z</time>
      </trkpt>
      <trkpt lat="48.00388" lon="2.75325">
        <ele>98</ele>
        <time>2016-12-11T10:58:59.406Z</time>
      </trkpt>
      <trkpt lat="48.00394" lon="2.75319">
        <ele>97</ele>
        <time>2016-12-11T10:59:00.415Z</time>
      </trkpt>
      <trkpt lat="48.00394" lon="2.75319">
        <ele>97</ele>
        <time>2016-12-11T10:59:01.402Z</time>
      </trkpt>
      <trkpt lat="48.004" lon="2.7531">
        <ele>97</ele>
        <time>2016-12-11T10:59:02.409Z</time>
      </trkpt>
      <trkpt lat="48.004" lon="2.7531">
        <ele>97</ele>
        <time>2016-12-11T10:59:03.396Z</time>
      </trkpt>
      <trkpt lat="48.00406" lon="2.753">
        <ele>96</ele>
        <time>2016-12-11T10:59:04.405Z</time>
      </trkpt>
      <trkpt lat="48.00409" lon="2.75295">
        <ele>96</ele>
        <time>2016-12-11T10:59:05.410Z</time>
      </trkpt>
      <trkpt lat="48.00413" lon="2.75289">
        <ele>95</ele>
        <time>2016-12-11T10:59:06.435Z</time>
      </trkpt>
      <trkpt lat="48.00413" lon="2.75289">
        <ele>95</ele>
        <time>2016-12-11T10:59:07.421Z</time>
      </trkpt>
      <trkpt lat="48.0042" lon="2.75277">
        <ele>95</ele>
        <time>2016-12-11T10:59:08.416Z</time>
      </trkpt>
      <trkpt lat="48.00424" lon="2.75271">
        <ele>94</ele>
        <time>2016-12-11T10:59:09.404Z</time>
      </trkpt>
      <trkpt lat="48.00424" lon="2.75271">
        <ele>94</ele>
        <time>2016-12-11T10:59:10.425Z</time>
      </trkpt>
      <trkpt lat="48.00431" lon="2.75258">
        <ele>93</ele>
        <time>2016-12-11T10:59:11.422Z</time>
      </trkpt>
      <trkpt lat="48.00431" lon="2.75258">
        <ele>93</ele>
        <time>2016-12-11T10:59:12.406Z</time>
      </trkpt>
      <trkpt lat="48.00439" lon="2.75242">
        <ele>92</ele>
        <time>2016-12-11T10:59:13.430Z</time>
      </trkpt>
      <trkpt lat="48.00441" lon="2.75235">
        <ele>91</ele>
        <time>2016-12-11T10:59:14.410Z</time>
      </trkpt>
      <trkpt lat="48.00441" lon="2.75235">
        <ele>91</ele>
        <time>2016-12-11T10:59:15.435Z</time>
      </trkpt>
      <trkpt lat="48.00442" lon="2.75217">
        <ele>90</ele>
        <time>2016-12-11T10:59:16.402Z</time>
      </trkpt>
      <trkpt lat="48.00442" lon="2.75217">
        <ele>90</ele>
        <time>2016-12-11T10:59:17.423Z</time>
      </trkpt>
      <trkpt lat="48.00442" lon="2.75196">
        <ele>88</ele>
        <time>2016-12-11T10:59:18.398Z</time>
      </trkpt>
      <trkpt lat="48.00442" lon="2.75184">
        <ele>88</ele>
        <time>2016-12-11T10:59:19.423Z</time>
      </trkpt>
      <trkpt lat="48.00442" lon="2.75184">
        <ele>88</ele>
        <time>2016-12-11T10:59:20.410Z</time>
      </trkpt>
      <trkpt lat="48.0044" lon="2.75162">
        <ele>88</ele>
        <time>2016-12-11T10:59:21.408Z</time>
      </trkpt>
      <trkpt lat="48.0044" lon="2.75162">
        <ele>88</ele>
        <time>2016-12-11T10:59:22.432Z</time>
      </trkpt>
      <trkpt lat="48.00439" lon="2.75146">
        <ele>88</ele>
        <time>2016-12-11T10:59:23.422Z</time>
      </trkpt>
      <trkpt lat="48.00439" lon="2.75146">
        <ele>88</ele>
        <time>2016-12-11T10:59:24.417Z</time>
      </trkpt>
      <trkpt lat="48.00439" lon="2.75131">
        <ele>91</ele>
        <time>2016-12-11T10:59:25.424Z</time>
      </trkpt>
      <trkpt lat="48.00439" lon="2.75131">
        <ele>91</ele>
        <time>2016-12-11T10:59:26.410Z</time>
      </trkpt>
      <trkpt lat="48.00438" lon="2.75117">
        <ele>91</ele>
        <time>2016-12-11T10:59:27.413Z</time>
      </trkpt>
      <trkpt lat="48.00438" lon="2.7511">
        <ele>92</ele>
        <time>2016-12-11T10:59:28.400Z</time>
      </trkpt>
      <trkpt lat="48.00438" lon="2.7511">
        <ele>92</ele>
        <time>2016-12-11T10:59:29.424Z</time>
      </trkpt>
      <trkpt lat="48.00438" lon="2.75097">
        <ele>92</ele>
        <time>2016-12-11T10:59:30.411Z</time>
      </trkpt>
      <trkpt lat="48.00438" lon="2.75097">
        <ele>92</ele>
        <time>2016-12-11T10:59:31.396Z</time>
      </trkpt>
      <trkpt lat="48.00438" lon="2.75085">
        <ele>92</ele>
        <time>2016-12-11T10:59:32.413Z</time>
      </trkpt>
      <trkpt lat="48.00438" lon="2.75085">
        <ele>92</ele>
        <time>2016-12-11T10:59:33.399Z</time>
      </trkpt>
      <trkpt lat="48.00437" lon="2.75073">
        <ele>93</ele>
        <time>2016-12-11T10:59:34.417Z</time>
      </trkpt>
      <trkpt lat="48.00437" lon="2.75073">
        <ele>93</ele>
        <time>2016-12-11T10:59:35.412Z</time>
      </trkpt>
      <trkpt lat="48.00437" lon="2.7506">
        <ele>93</ele>
        <time>2016-12-11T10:59:36.412Z</time>
      </trkpt>
      <trkpt lat="48.00437" lon="2.7506">
        <ele>93</ele>
        <time>2016-12-11T10:59:37.396Z</time>
      </trkpt>
      <trkpt lat="48.00436" lon="2.75045">
        <ele>94</ele>
        <time>2016-12-11T10:59:38.405Z</time>
      </trkpt>
      <trkpt lat="48.00436" lon="2.75037">
        <ele>94</ele>
        <time>2016-12-11T10:59:39.431Z</time>
      </trkpt>
      <trkpt lat="48.00436" lon="2.75037">
        <ele>94</ele>
        <time>2016-12-11T10:59:40.415Z</time>
      </trkpt>
      <trkpt lat="48.00433" lon="2.75025">
        <ele>94</ele>
        <time>2016-12-11T10:59:41.421Z</time>
      </trkpt>
      <trkpt lat="48.00431" lon="2.7502">
        <ele>93</ele>
        <time>2016-12-11T10:59:42.434Z</time>
      </trkpt>
      <trkpt lat="48.00431" lon="2.7502">
        <ele>93</ele>
        <time>2016-12-11T10:59:43.424Z</time>
      </trkpt>
      <trkpt lat="48.0043" lon="2.75009">
        <ele>93</ele>
        <time>2016-12-11T10:59:44.402Z</time>
      </trkpt>
      <trkpt lat="48.00431" lon="2.75004">
        <ele>93</ele>
        <time>2016-12-11T10:59:45.422Z</time>
      </trkpt>
      <trkpt lat="48.00431" lon="2.75004">
        <ele>93</ele>
        <time>2016-12-11T10:59:46.407Z</time>
      </trkpt>
      <trkpt lat="48.00433" lon="2.74994">
        <ele>93</ele>
        <time>2016-12-11T10:59:47.414Z</time>
      </trkpt>
      <trkpt lat="48.00435" lon="2.74988">
        <ele>93</ele>
        <time>2016-12-11T10:59:48.422Z</time>
      </trkpt>
      <trkpt lat="48.00435" lon="2.74988">
        <ele>93</ele>
        <time>2016-12-11T10:59:49.406Z</time>
      </trkpt>
      <trkpt lat="48.00437" lon="2.74977">
        <ele>93</ele>
        <time>2016-12-11T10:59:50.403Z</time>
      </trkpt>
      <trkpt lat="48.00437" lon="2.74977">
        <ele>93</ele>
        <time>2016-12-11T10:59:51.427Z</time>
      </trkpt>
      <trkpt lat="48.00439" lon="2.74964">
        <ele>93</ele>
        <time>2016-12-11T10:59:52.434Z</time>
      </trkpt>
      <trkpt lat="48.00439" lon="2.74964">
        <ele>93</ele>
        <time>2016-12-11T10:59:53.419Z</time>
      </trkpt>
      <trkpt lat="48.00441" lon="2.74951">
        <ele>92</ele>
        <time>2016-12-11T10:59:54.402Z</time>
      </trkpt>
      <trkpt lat="48.00441" lon="2.74951">
        <ele>92</ele>
        <time>2016-12-11T10:59:55.427Z</time>
      </trkpt>
      <trkpt lat="48.00445" lon="2.74942">
        <ele>90</ele>
        <time>2016-12-11T10:59:56.434Z</time>
      </trkpt>
      <trkpt lat="48.00445" lon="2.74942">
        <ele>90</ele>
        <time>2016-12-11T10:59:57.424Z</time>
      </trkpt>
      <trkpt lat="48.00451" lon="2.74944">
        <ele>90</ele>
        <time>2016-12-11T10:59:58.410Z</time>
      </trkpt>
      <trkpt lat="48.00451" lon="2.74944">
        <ele>90</ele>
        <time>2016-12-11T10:59:59.433Z</time>
      </trkpt>
      <trkpt lat="48.00457" lon="2.74948">
        <ele>89</ele>
        <time>2016-12-11T11:00:00.422Z</time>
      </trkpt>
      <trkpt lat="48.00457" lon="2.74948">
        <ele>89</ele>
        <time>2016-12-11T11:00:01.431Z</time>
      </trkpt>
      <trkpt lat="48.00464" lon="2.74953">
        <ele>90</ele>
        <time>2016-12-11T11:00:02.421Z</time>
      </trkpt>
      <trkpt lat="48.00464" lon="2.74953">
        <ele>90</ele>
        <time>2016-12-11T11:00:03.433Z</time>
      </trkpt>
      <trkpt lat="48.0047" lon="2.74959">
        <ele>91</ele>
        <time>2016-12-11T11:00:04.408Z</time>
      </trkpt>
      <trkpt lat="48.0047" lon="2.74959">
        <ele>91</ele>
        <time>2016-12-11T11:00:05.434Z</time>
      </trkpt>
      <trkpt lat="48.00476" lon="2.74965">
        <ele>92</ele>
        <time>2016-12-11T11:00:06.425Z</time>
      </trkpt>
      <trkpt lat="48.00476" lon="2.74965">
        <ele>92</ele>
        <time>2016-12-11T11:00:07.430Z</time>
      </trkpt>
      <trkpt lat="48.00482" lon="2.74973">
        <ele>92</ele>
        <time>2016-12-11T11:00:08.432Z</time>
      </trkpt>
      <trkpt lat="48.00484" lon="2.74977">
        <ele>91</ele>
        <time>2016-12-11T11:00:09.415Z</time>
      </trkpt>
      <trkpt lat="48.00487" lon="2.74981">
        <ele>91</ele>
        <time>2016-12-11T11:00:10.404Z</time>
      </trkpt>
      <trkpt lat="48.00487" lon="2.74981">
        <ele>91</ele>
        <time>2016-12-11T11:00:11.432Z</time>
      </trkpt>
      <trkpt lat="48.00493" lon="2.74988">
        <ele>92</ele>
        <time>2016-12-11T11:00:12.399Z</time>
      </trkpt>
      <trkpt lat="48.00493" lon="2.74988">
        <ele>92</ele>
        <time>2016-12-11T11:00:13.423Z</time>
      </trkpt>
      <trkpt lat="48.00499" lon="2.74994">
        <ele>92</ele>
        <time>2016-12-11T11:00:14.403Z</time>
      </trkpt>
      <trkpt lat="48.00502" lon="2.74997">
        <ele>93</ele>
        <time>2016-12-11T11:00:15.429Z</time>
      </trkpt>
      <trkpt lat="48.00502" lon="2.74997">
        <ele>93</ele>
        <time>2016-12-11T11:00:16.414Z</time>
      </trkpt>
      <trkpt lat="48.00509" lon="2.75003">
        <ele>93</ele>
        <time>2016-12-11T11:00:17.418Z</time>
      </trkpt>
      <trkpt lat="48.00511" lon="2.75007">
        <ele>93</ele>
        <time>2016-12-11T11:00:18.410Z</time>
      </trkpt>
      <trkpt lat="48.00511" lon="2.75007">
        <ele>93</ele>
        <time>2016-12-11T11:00:19.396Z</time>
      </trkpt>
      <trkpt lat="48.00517" lon="2.75016">
        <ele>93</ele>
        <time>2016-12-11T11:00:20.408Z</time>
      </trkpt>
      <trkpt lat="48.00517" lon="2.75016">
        <ele>93</ele>
        <time>2016-12-11T11:00:21.435Z</time>
      </trkpt>
      <trkpt lat="48.00523" lon="2.75024">
        <ele>93</ele>
        <time>2016-12-11T11:00:22.418Z</time>
      </trkpt>
      <trkpt lat="48.00523" lon="2.75024">
        <ele>93</ele>
        <time>2016-12-11T11:00:23.403Z</time>
      </trkpt>
      <trkpt lat="48.0053" lon="2.75031">
        <ele>94</ele>
        <time>2016-12-11T11:00:24.422Z</time>
      </trkpt>
      <trkpt lat="48.0053" lon="2.75031">
        <ele>94</ele>
        <time>2016-12-11T11:00:25.425Z</time>
      </trkpt>
      <trkpt lat="48.00538" lon="2.75037">
        <ele>95</ele>
        <time>2016-12-11T11:00:26.411Z</time>
      </trkpt>
      <trkpt lat="48.00538" lon="2.75037">
        <ele>95</ele>
        <time>2016-12-11T11:00:27.434Z</time>
      </trkpt>
      <trkpt lat="48.00546" lon="2.75045">
        <ele>93</ele>
        <time>2016-12-11T11:00:28.402Z</time>
      </trkpt>
      <trkpt lat="48.00548" lon="2.75049">
        <ele>93</ele>
        <time>2016-12-11T11:00:29.412Z</time>
      </trkpt>
      <trkpt lat="48.00551" lon="2.75053">
        <ele>93</ele>
        <time>2016-12-11T11:00:30.435Z</time>
      </trkpt>
      <trkpt lat="48.00551" lon="2.75053">
        <ele>93</ele>
        <time>2016-12-11T11:00:31.428Z</time>
      </trkpt>
      <trkpt lat="48.00559" lon="2.75059">
        <ele>93</ele>
        <time>2016-12-11T11:00:32.434Z</time>
      </trkpt>
      <trkpt lat="48.00559" lon="2.75059">
        <ele>93</ele>
        <time>2016-12-11T11:00:33.421Z</time>
      </trkpt>
      <trkpt lat="48.00567" lon="2.75066">
        <ele>94</ele>
        <time>2016-12-11T11:00:34.412Z</time>
      </trkpt>
      <trkpt lat="48.00567" lon="2.75066">
        <ele>94</ele>
        <time>2016-12-11T11:00:35.435Z</time>
      </trkpt>
      <trkpt lat="48.00573" lon="2.75075">
        <ele>94</ele>
        <time>2016-12-11T11:00:36.408Z</time>
      </trkpt>
      <trkpt lat="48.00573" lon="2.75075">
        <ele>94</ele>
        <time>2016-12-11T11:00:37.399Z</time>
      </trkpt>
      <trkpt lat="48.0058" lon="2.75082">
        <ele>94</ele>
        <time>2016-12-11T11:00:38.397Z</time>
      </trkpt>
      <trkpt lat="48.0058" lon="2.75082">
        <ele>94</ele>
        <time>2016-12-11T11:00:39.410Z</time>
      </trkpt>
      <trkpt lat="48.00587" lon="2.7509">
        <ele>94</ele>
        <time>2016-12-11T11:00:40.417Z</time>
      </trkpt>
      <trkpt lat="48.00587" lon="2.7509">
        <ele>94</ele>
        <time>2016-12-11T11:00:41.411Z</time>
      </trkpt>
      <trkpt lat="48.00594" lon="2.75098">
        <ele>94</ele>
        <time>2016-12-11T11:00:42.408Z</time>
      </trkpt>
      <trkpt lat="48.00594" lon="2.75098">
        <ele>94</ele>
        <time>2016-12-11T11:00:43.433Z</time>
      </trkpt>
      <trkpt lat="48.006" lon="2.75106">
        <ele>95</ele>
        <time>2016-12-11T11:00:44.407Z</time>
      </trkpt>
      <trkpt lat="48.00604" lon="2.75111">
        <ele>95</ele>
        <time>2016-12-11T11:00:45.424Z</time>
      </trkpt>
      <trkpt lat="48.00604" lon="2.75111">
        <ele>95</ele>
        <time>2016-12-11T11:00:46.408Z</time>
      </trkpt>
      <trkpt lat="48.00612" lon="2.75118">
        <ele>95</ele>
        <time>2016-12-11T11:00:47.416Z</time>
      </trkpt>
      <trkpt lat="48.00617" lon="2.75119">
        <ele>96</ele>
        <time>2016-12-11T11:00:48.402Z</time>
      </trkpt>
      <trkpt lat="48.00617" lon="2.75119">
        <ele>96</ele>
        <time>2016-12-11T11:00:49.427Z</time>
      </trkpt>
      <trkpt lat="48.00625" lon="2.75118">
        <ele>97</ele>
        <time>2016-12-11T11:00:50.434Z</time>
      </trkpt>
      <trkpt lat="48.00625" lon="2.75118">
        <ele>97</ele>
        <time>2016-12-11T11:00:51.422Z</time>
      </trkpt>
      <trkpt lat="48.00633" lon="2.75114">
        <ele>98</ele>
        <time>2016-12-11T11:00:52.435Z</time>
      </trkpt>
      <trkpt lat="48.00633" lon="2.75114">
        <ele>98</ele>
        <time>2016-12-11T11:00:53.419Z</time>
      </trkpt>
      <trkpt lat="48.00642" lon="2.75113">
        <ele>99</ele>
        <time>2016-12-11T11:00:54.402Z</time>
      </trkpt>
      <trkpt lat="48.00642" lon="2.75113">
        <ele>99</ele>
        <time>2016-12-11T11:00:55.427Z</time>
      </trkpt>
      <trkpt lat="48.00649" lon="2.75112">
        <ele>99</ele>
        <time>2016-12-11T11:00:56.434Z</time>
      </trkpt>
      <trkpt lat="48.00649" lon="2.75112">
        <ele>99</ele>
        <time>2016-12-11T11:00:57.418Z</time>
      </trkpt>
      <trkpt lat="48.00657" lon="2.75108">
        <ele>99</ele>
        <time>2016-12-11T11:00:58.410Z</time>
      </trkpt>
      <trkpt lat="48.00657" lon="2.75108">
        <ele>99</ele>
        <time>2016-12-11T11:00:59.433Z</time>
      </trkpt>
      <trkpt lat="48.00663" lon="2.75102">
        <ele>100</ele>
        <time>2016-12-11T11:01:00.400Z</time>
      </trkpt>
      <trkpt lat="48.00663" lon="2.75102">
        <ele>100</ele>
        <time>2016-12-11T11:01:01.408Z</time>
      </trkpt>
      <trkpt lat="48.00668" lon="2.75097">
        <ele>100</ele>
        <time>2016-12-11T11:01:02.402Z</time>
      </trkpt>
      <trkpt lat="48.00668" lon="2.75097">
        <ele>100</ele>
        <time>2016-12-11T11:01:03.426Z</time>
      </trkpt>
      <trkpt lat="48.0067" lon="2.75095">
        <ele>100</ele>
        <time>2016-12-11T11:01:04.433Z</time>
      </trkpt>
      <trkpt lat="48.0067" lon="2.75095">
        <ele>100</ele>
        <time>2016-12-11T11:01:05.418Z</time>
      </trkpt>
      <trkpt lat="48.00672" lon="2.75094">
        <ele>99</ele>
        <time>2016-12-11T11:01:06.432Z</time>
      </trkpt>
      <trkpt lat="48.00672" lon="2.75094">
        <ele>99</ele>
        <time>2016-12-11T11:01:07.416Z</time>
      </trkpt>
      <trkpt lat="48.00675" lon="2.75091">
        <ele>99</ele>
        <time>2016-12-11T11:01:08.423Z</time>
      </trkpt>
      <trkpt lat="48.00675" lon="2.75091">
        <ele>99</ele>
        <time>2016-12-11T11:01:09.409Z</time>
      </trkpt>
      <trkpt lat="48.00677" lon="2.75087">
        <ele>99</ele>
        <time>2016-12-11T11:01:10.414Z</time>
      </trkpt>
      <trkpt lat="48.00677" lon="2.75087">
        <ele>99</ele>
        <time>2016-12-11T11:01:11.397Z</time>
      </trkpt>
      <trkpt lat="48.0068" lon="2.75082">
        <ele>99</ele>
        <time>2016-12-11T11:01:12.411Z</time>
      </trkpt>
      <trkpt lat="48.00681" lon="2.75079">
        <ele>99</ele>
        <time>2016-12-11T11:01:13.422Z</time>
      </trkpt>
      <trkpt lat="48.00681" lon="2.75079">
        <ele>99</ele>
        <time>2016-12-11T11:01:14.407Z</time>
      </trkpt>
      <trkpt lat="48.00686" lon="2.75072">
        <ele>99</ele>
        <time>2016-12-11T11:01:15.416Z</time>
      </trkpt>
      <trkpt lat="48.00689" lon="2.7507">
        <ele>99</ele>
        <time>2016-12-11T11:01:16.427Z</time>
      </trkpt>
      <trkpt lat="48.00689" lon="2.7507">
        <ele>99</ele>
        <time>2016-12-11T11:01:17.429Z</time>
      </trkpt>
      <trkpt lat="48.00695" lon="2.75067">
        <ele>100</ele>
        <time>2016-12-11T11:01:18.414Z</time>
      </trkpt>
      <trkpt lat="48.00695" lon="2.75067">
        <ele>100</ele>
        <time>2016-12-11T11:01:19.405Z</time>
      </trkpt>
      <trkpt lat="48.007" lon="2.75063">
        <ele>100</ele>
        <time>2016-12-11T11:01:20.417Z</time>
      </trkpt>
      <trkpt lat="48.00703" lon="2.7506">
        <ele>100</ele>
        <time>2016-12-11T11:01:21.431Z</time>
      </trkpt>
      <trkpt lat="48.00703" lon="2.7506">
        <ele>100</ele>
        <time>2016-12-11T11:01:22.414Z</time>
      </trkpt>
      <trkpt lat="48.00708" lon="2.75055">
        <ele>101</ele>
        <time>2016-12-11T11:01:23.421Z</time>
      </trkpt>
      <trkpt lat="48.0071" lon="2.75053">
        <ele>101</ele>
        <time>2016-12-11T11:01:24.418Z</time>
      </trkpt>
      <trkpt lat="48.0071" lon="2.75053">
        <ele>101</ele>
        <time>2016-12-11T11:01:25.403Z</time>
      </trkpt>
      <trkpt lat="48.00716" lon="2.75048">
        <ele>101</ele>
        <time>2016-12-11T11:01:26.411Z</time>
      </trkpt>
      <trkpt lat="48.00716" lon="2.75048">
        <ele>101</ele>
        <time>2016-12-11T11:01:27.434Z</time>
      </trkpt>
      <trkpt lat="48.00723" lon="2.75044">
        <ele>100</ele>
        <time>2016-12-11T11:01:28.403Z</time>
      </trkpt>
      <trkpt lat="48.00723" lon="2.75044">
        <ele>100</ele>
        <time>2016-12-11T11:01:29.428Z</time>
      </trkpt>
      <trkpt lat="48.0073" lon="2.75039">
        <ele>99</ele>
        <time>2016-12-11T11:01:30.396Z</time>
      </trkpt>
      <trkpt lat="48.00733" lon="2.75036">
        <ele>98</ele>
        <time>2016-12-11T11:01:31.401Z</time>
      </trkpt>
      <trkpt lat="48.00733" lon="2.75036">
        <ele>98</ele>
        <time>2016-12-11T11:01:32.426Z</time>
      </trkpt>
      <trkpt lat="48.00739" lon="2.75031">
        <ele>97</ele>
        <time>2016-12-11T11:01:33.433Z</time>
      </trkpt>
      <trkpt lat="48.00742" lon="2.75029">
        <ele>97</ele>
        <time>2016-12-11T11:01:34.406Z</time>
      </trkpt>
      <trkpt lat="48.00742" lon="2.75029">
        <ele>97</ele>
        <time>2016-12-11T11:01:35.425Z</time>
      </trkpt>
      <trkpt lat="48.00748" lon="2.75024">
        <ele>96</ele>
        <time>2016-12-11T11:01:36.402Z</time>
      </trkpt>
      <trkpt lat="48.00752" lon="2.75021">
        <ele>96</ele>
        <time>2016-12-11T11:01:37.428Z</time>
      </trkpt>
      <trkpt lat="48.00752" lon="2.75021">
        <ele>96</ele>
        <time>2016-12-11T11:01:38.411Z</time>
      </trkpt>
      <trkpt lat="48.0076" lon="2.75015">
        <ele>95</ele>
        <time>2016-12-11T11:01:39.418Z</time>
      </trkpt>
      <trkpt lat="48.00764" lon="2.75012">
        <ele>95</ele>
        <time>2016-12-11T11:01:40.406Z</time>
      </trkpt>
      <trkpt lat="48.00764" lon="2.75012">
        <ele>95</ele>
        <time>2016-12-11T11:01:41.432Z</time>
      </trkpt>
      <trkpt lat="48.00771" lon="2.75007">
        <ele>95</ele>
        <time>2016-12-11T11:01:42.403Z</time>
      </trkpt>
      <trkpt lat="48.00771" lon="2.75007">
        <ele>95</ele>
        <time>2016-12-11T11:01:43.425Z</time>
      </trkpt>
      <trkpt lat="48.00779" lon="2.75">
        <ele>94</ele>
        <time>2016-12-11T11:01:44.413Z</time>
      </trkpt>
      <trkpt lat="48.00779" lon="2.75">
        <ele>94</ele>
        <time>2016-12-11T11:01:45.406Z</time>
      </trkpt>
      <trkpt lat="48.00785" lon="2.74995">
        <ele>94</ele>
        <time>2016-12-11T11:01:46.422Z</time>
      </trkpt>
      <trkpt lat="48.00789" lon="2.74993">
        <ele>94</ele>
        <time>2016-12-11T11:01:47.430Z</time>
      </trkpt>
      <trkpt lat="48.00792" lon="2.74991">
        <ele>94</ele>
        <time>2016-12-11T11:01:48.416Z</time>
      </trkpt>
      <trkpt lat="48.00792" lon="2.74991">
        <ele>94</ele>
        <time>2016-12-11T11:01:49.404Z</time>
      </trkpt>
      <trkpt lat="48.00798" lon="2.74986">
        <ele>94</ele>
        <time>2016-12-11T11:01:50.397Z</time>
      </trkpt>
      <trkpt lat="48.00798" lon="2.74986">
        <ele>94</ele>
        <time>2016-12-11T11:01:51.416Z</time>
      </trkpt>
      <trkpt lat="48.00804" lon="2.74982">
        <ele>94</ele>
        <time>2016-12-11T11:01:52.439Z</time>
      </trkpt>
      <trkpt lat="48.00804" lon="2.74982">
        <ele>94</ele>
        <time>2016-12-11T11:01:53.434Z</time>
      </trkpt>
      <trkpt lat="48.00808" lon="2.74978">
        <ele>95</ele>
        <time>2016-12-11T11:01:54.411Z</time>
      </trkpt>
      <trkpt lat="48.00808" lon="2.74978">
        <ele>95</ele>
        <time>2016-12-11T11:01:55.396Z</time>
      </trkpt>
      <trkpt lat="48.0081" lon="2.74975">
        <ele>95</ele>
        <time>2016-12-11T11:01:56.397Z</time>
      </trkpt>
      <trkpt lat="48.0081" lon="2.74975">
        <ele>95</ele>
        <time>2016-12-11T11:01:57.422Z</time>
      </trkpt>
      <trkpt lat="48.00813" lon="2.74972">
        <ele>95</ele>
        <time>2016-12-11T11:01:58.402Z</time>
      </trkpt>
      <trkpt lat="48.00813" lon="2.74972">
        <ele>95</ele>
        <time>2016-12-11T11:01:59.425Z</time>
      </trkpt>
      <trkpt lat="48.00817" lon="2.74969">
        <ele>95</ele>
        <time>2016-12-11T11:02:00.433Z</time>
      </trkpt>
      <trkpt lat="48.00817" lon="2.74969">
        <ele>95</ele>
        <time>2016-12-11T11:02:01.418Z</time>
      </trkpt>
      <trkpt lat="48.00821" lon="2.74964">
        <ele>96</ele>
        <time>2016-12-11T11:02:02.397Z</time>
      </trkpt>
      <trkpt lat="48.00821" lon="2.74964">
        <ele>96</ele>
        <time>2016-12-11T11:02:03.424Z</time>
      </trkpt>
      <trkpt lat="48.00823" lon="2.74955">
        <ele>97</ele>
        <time>2016-12-11T11:02:04.402Z</time>
      </trkpt>
      <trkpt lat="48.00823" lon="2.74952">
        <ele>97</ele>
        <time>2016-12-11T11:02:05.423Z</time>
      </trkpt>
      <trkpt lat="48.00825" lon="2.7495">
        <ele>97</ele>
        <time>2016-12-11T11:02:06.409Z</time>
      </trkpt>
      <trkpt lat="48.00825" lon="2.7495">
        <ele>97</ele>
        <time>2016-12-11T11:02:07.402Z</time>
      </trkpt>
      <trkpt lat="48.00829" lon="2.74955">
        <ele>97</ele>
        <time>2016-12-11T11:02:08.410Z</time>
      </trkpt>
      <trkpt lat="48.00829" lon="2.74955">
        <ele>97</ele>
        <time>2016-12-11T11:02:09.397Z</time>
      </trkpt>
      <trkpt lat="48.00833" lon="2.74962">
        <ele>97</ele>
        <time>2016-12-11T11:02:10.403Z</time>
      </trkpt>
      <trkpt lat="48.00833" lon="2.74962">
        <ele>97</ele>
        <time>2016-12-11T11:02:11.428Z</time>
      </trkpt>
      <trkpt lat="48.00836" lon="2.74968">
        <ele>97</ele>
        <time>2016-12-11T11:02:12.434Z</time>
      </trkpt>
      <trkpt lat="48.00836" lon="2.74968">
        <ele>97</ele>
        <time>2016-12-11T11:02:13.424Z</time>
      </trkpt>
      <trkpt lat="48.00842" lon="2.74974">
        <ele>97</ele>
        <time>2016-12-11T11:02:14.424Z</time>
      </trkpt>
      <trkpt lat="48.00842" lon="2.74974">
        <ele>97</ele>
        <time>2016-12-11T11:02:15.408Z</time>
      </trkpt>
      <trkpt lat="48.0085" lon="2.74979">
        <ele>97</ele>
        <time>2016-12-11T11:02:16.415Z</time>
      </trkpt>
      <trkpt lat="48.0085" lon="2.74979">
        <ele>97</ele>
        <time>2016-12-11T11:02:17.423Z</time>
      </trkpt>
      <trkpt lat="48.00858" lon="2.74984">
        <ele>98</ele>
        <time>2016-12-11T11:02:18.433Z</time>
      </trkpt>
      <trkpt lat="48.00858" lon="2.74984">
        <ele>98</ele>
        <time>2016-12-11T11:02:19.404Z</time>
      </trkpt>
      <trkpt lat="48.00865" lon="2.74989">
        <ele>97</ele>
        <time>2016-12-11T11:02:20.412Z</time>
      </trkpt>
      <trkpt lat="48.00869" lon="2.74991">
        <ele>97</ele>
        <time>2016-12-11T11:02:21.422Z</time>
      </trkpt>
      <trkpt lat="48.00869" lon="2.74991">
        <ele>97</ele>
        <time>2016-12-11T11:02:22.413Z</time>
      </trkpt>
      <trkpt lat="48.00876" lon="2.74995">
        <ele>97</ele>
        <time>2016-12-11T11:02:23.420Z</time>
      </trkpt>
      <trkpt lat="48.0088" lon="2.74996">
        <ele>97</ele>
        <time>2016-12-11T11:02:24.410Z</time>
      </trkpt>
      <trkpt lat="48.0088" lon="2.74996">
        <ele>97</ele>
        <time>2016-12-11T11:02:25.435Z</time>
      </trkpt>
      <trkpt lat="48.00887" lon="2.74999">
        <ele>97</ele>
        <time>2016-12-11T11:02:26.405Z</time>
      </trkpt>
      <trkpt lat="48.00891" lon="2.75002">
        <ele>98</ele>
        <time>2016-12-11T11:02:27.413Z</time>
      </trkpt>
      <trkpt lat="48.00891" lon="2.75002">
        <ele>98</ele>
        <time>2016-12-11T11:02:28.400Z</time>
      </trkpt>
      <trkpt lat="48.00897" lon="2.75007">
        <ele>98</ele>
        <time>2016-12-11T11:02:29.397Z</time>
      </trkpt>
      <trkpt lat="48.009" lon="2.75009">
        <ele>98</ele>
        <time>2016-12-11T11:02:30.419Z</time>
      </trkpt>
      <trkpt lat="48.009" lon="2.75009">
        <ele>98</ele>
        <time>2016-12-11T11:02:31.405Z</time>
      </trkpt>
      <trkpt lat="48.00907" lon="2.75012">
        <ele>98</ele>
        <time>2016-12-11T11:02:32.426Z</time>
      </trkpt>
      <trkpt lat="48.0091" lon="2.75014">
        <ele>98</ele>
        <time>2016-12-11T11:02:33.409Z</time>
      </trkpt>
      <trkpt lat="48.0091" lon="2.75014">
        <ele>98</ele>
        <time>2016-12-11T11:02:34.434Z</time>
      </trkpt>
      <trkpt lat="48.00918" lon="2.75019">
        <ele>99</ele>
        <time>2016-12-11T11:02:35.433Z</time>
      </trkpt>
      <trkpt lat="48.00921" lon="2.7502">
        <ele>99</ele>
        <time>2016-12-11T11:02:36.417Z</time>
      </trkpt>
      <trkpt lat="48.00921" lon="2.7502">
        <ele>99</ele>
        <time>2016-12-11T11:02:37.405Z</time>
      </trkpt>
      <trkpt lat="48.00928" lon="2.75023">
        <ele>99</ele>
        <time>2016-12-11T11:02:38.426Z</time>
      </trkpt>
      <trkpt lat="48.00928" lon="2.75023">
        <ele>99</ele>
        <time>2016-12-11T11:02:39.410Z</time>
      </trkpt>
      <trkpt lat="48.00934" lon="2.75025">
        <ele>100</ele>
        <time>2016-12-11T11:02:40.417Z</time>
      </trkpt>
      <trkpt lat="48.00936" lon="2.75025">
        <ele>100</ele>
        <time>2016-12-11T11:02:41.413Z</time>
      </trkpt>
      <trkpt lat="48.00936" lon="2.75025">
        <ele>100</ele>
        <time>2016-12-11T11:02:42.402Z</time>
      </trkpt>
      <trkpt lat="48.00942" lon="2.75029">
        <ele>100</ele>
        <time>2016-12-11T11:02:43.401Z</time>
      </trkpt>
      <trkpt lat="48.00945" lon="2.75031">
        <ele>100</ele>
        <time>2016-12-11T11:02:44.421Z</time>
      </trkpt>
      <trkpt lat="48.00949" lon="2.75033">
        <ele>100</ele>
        <time>2016-12-11T11:02:45.407Z</time>
      </trkpt>
      <trkpt lat="48.00949" lon="2.75033">
        <ele>100</ele>
        <time>2016-12-11T11:02:46.402Z</time>
      </trkpt>
      <trkpt lat="48.00955" lon="2.75035">
        <ele>100</ele>
        <time>2016-12-11T11:02:47.410Z</time>
      </trkpt>
      <trkpt lat="48.00959" lon="2.75037">
        <ele>100</ele>
        <time>2016-12-11T11:02:48.413Z</time>
      </trkpt>
      <trkpt lat="48.00959" lon="2.75037">
        <ele>100</ele>
        <time>2016-12-11T11:02:49.399Z</time>
      </trkpt>
      <trkpt lat="48.00966" lon="2.75041">
        <ele>100</ele>
        <time>2016-12-11T11:02:50.407Z</time>
      </trkpt>
      <trkpt lat="48.00969" lon="2.75044">
        <ele>100</ele>
        <time>2016-12-11T11:02:51.423Z</time>
      </trkpt>
      <trkpt lat="48.00969" lon="2.75044">
        <ele>100</ele>
        <time>2016-12-11T11:02:52.411Z</time>
      </trkpt>
      <trkpt lat="48.00976" lon="2.75049">
        <ele>99</ele>
        <time>2016-12-11T11:02:53.402Z</time>
      </trkpt>
      <trkpt lat="48.00979" lon="2.75052">
        <ele>99</ele>
        <time>2016-12-11T11:02:54.403Z</time>
      </trkpt>
      <trkpt lat="48.00979" lon="2.75052">
        <ele>99</ele>
        <time>2016-12-11T11:02:55.421Z</time>
      </trkpt>
      <trkpt lat="48.00983" lon="2.75055">
        <ele>99</ele>
        <time>2016-12-11T11:02:56.421Z</time>
      </trkpt>
      <trkpt lat="48.00983" lon="2.75055">
        <ele>99</ele>
        <time>2016-12-11T11:02:57.405Z</time>
      </trkpt>
      <trkpt lat="48.00988" lon="2.75059">
        <ele>100</ele>
        <time>2016-12-11T11:02:58.407Z</time>
      </trkpt>
      <trkpt lat="48.00991" lon="2.75061">
        <ele>100</ele>
        <time>2016-12-11T11:02:59.396Z</time>
      </trkpt>
      <trkpt lat="48.00993" lon="2.75063">
        <ele>100</ele>
        <time>2016-12-11T11:03:00.413Z</time>
      </trkpt>
      <trkpt lat="48.00993" lon="2.75063">
        <ele>100</ele>
        <time>2016-12-11T11:03:01.398Z</time>
      </trkpt>
      <trkpt lat="48.00998" lon="2.75066">
        <ele>100</ele>
        <time>2016-12-11T11:03:02.413Z</time>
      </trkpt>
      <trkpt lat="48.01" lon="2.75068">
        <ele>100</ele>
        <time>2016-12-11T11:03:03.418Z</time>
      </trkpt>
      <trkpt lat="48.01" lon="2.75068">
        <ele>100</ele>
        <time>2016-12-11T11:03:04.407Z</time>
      </trkpt>
      <trkpt lat="48.01006" lon="2.75071">
        <ele>99</ele>
        <time>2016-12-11T11:03:05.415Z</time>
      </trkpt>
      <trkpt lat="48.0101" lon="2.75073">
        <ele>99</ele>
        <time>2016-12-11T11:03:06.399Z</time>
      </trkpt>
      <trkpt lat="48.0101" lon="2.75073">
        <ele>99</ele>
        <time>2016-12-11T11:03:07.423Z</time>
      </trkpt>
      <trkpt lat="48.01018" lon="2.75079">
        <ele>99</ele>
        <time>2016-12-11T11:03:08.430Z</time>
      </trkpt>
      <trkpt lat="48.01022" lon="2.75081">
        <ele>99</ele>
        <time>2016-12-11T11:03:09.403Z</time>
      </trkpt>
      <trkpt lat="48.01022" lon="2.75081">
        <ele>99</ele>
        <time>2016-12-11T11:03:10.428Z</time>
      </trkpt>
      <trkpt lat="48.01027" lon="2.75084">
        <ele>98</ele>
        <time>2016-12-11T11:03:11.403Z</time>
      </trkpt>
      <trkpt lat="48.01029" lon="2.75084">
        <ele>98</ele>
        <time>2016-12-11T11:03:12.427Z</time>
      </trkpt>
      <trkpt lat="48.01029" lon="2.75084">
        <ele>98</ele>
        <time>2016-12-11T11:03:13.410Z</time>
      </trkpt>
      <trkpt lat="48.0103" lon="2.75085">
        <ele>98</ele>
        <time>2016-12-11T11:03:14.417Z</time>
      </trkpt>
      <trkpt lat="48.0103" lon="2.75085">
        <ele>98</ele>
        <time>2016-12-11T11:03:15.400Z</time>
      </trkpt>
    </trkseg>
  </trk>
</gpx>